<?xml version='1.0' encoding='UTF-8'?><gpx version="1.1" creator="JPX - https://github.com/jenetics/jpx" xmlns="http://www.topografix.com/GPX/1/1"><trk><trkseg><trkpt lat="41.1647303" lon="-7.8975829"><ele>352.0</ele><time>2026-04-25T07:27:29.281Z</time></trkpt><trkpt lat="41.1646575" lon="-7.8976526"><ele>352.0</ele><time>2026-04-25T07:31:21.903Z</time></trkpt><trkpt lat="41.1644932" lon="-7.8975837"><ele>352.0</ele><time>2026-04-25T07:31:25.899Z</time></trkpt><trkpt lat="41.1644162" lon="-7.8975362"><ele>352.0</ele><time>2026-04-25T07:31:27.9Z</time></trkpt><trkpt lat="41.1643762" lon="-7.8974314"><ele>352.0</ele><time>2026-04-25T07:31:30.91Z</time></trkpt><trkpt lat="41.1643383" lon="-7.8973553"><ele>352.0</ele><time>2026-04-25T07:31:36.898Z</time></trkpt><trkpt lat="41.1643202" lon="-7.8972186"><ele>352.0</ele><time>2026-04-25T07:32:47.902Z</time></trkpt><trkpt lat="41.1642253" lon="-7.896969"><ele>352.0</ele><time>2026-04-25T07:32:51.898Z</time></trkpt><trkpt lat="41.1641888" lon="-7.8968592"><ele>352.0</ele><time>2026-04-25T07:32:53.896Z</time></trkpt><trkpt lat="41.1641553" lon="-7.8967458"><ele>353.8</ele><time>2026-04-25T07:32:55.895Z</time></trkpt><trkpt lat="41.1641116" lon="-7.8966483"><ele>355.6</ele><time>2026-04-25T07:32:57.892Z</time></trkpt><trkpt lat="41.1640597" lon="-7.8965554"><ele>357.40000000000003</ele><time>2026-04-25T07:32:59.895Z</time></trkpt><trkpt lat="41.1640222" lon="-7.8964543"><ele>359.20000000000005</ele><time>2026-04-25T07:33:01.894Z</time></trkpt><trkpt lat="41.1639706" lon="-7.8963429"><ele>361.0</ele><time>2026-04-25T07:33:03.908Z</time></trkpt><trkpt lat="41.1638978" lon="-7.8962519"><ele>361.0</ele><time>2026-04-25T07:33:05.895Z</time></trkpt><trkpt lat="41.1637997" lon="-7.8961747"><ele>361.0</ele><time>2026-04-25T07:33:07.9Z</time></trkpt><trkpt lat="41.1636944" lon="-7.8961145"><ele>361.0</ele><time>2026-04-25T07:33:09.9Z</time></trkpt><trkpt lat="41.1635331" lon="-7.8959756"><ele>361.0</ele><time>2026-04-25T07:33:13.894Z</time></trkpt><trkpt lat="41.1634753" lon="-7.8958804"><ele>355.4</ele><time>2026-04-25T07:33:15.906Z</time></trkpt><trkpt lat="41.1634519" lon="-7.8957566"><ele>349.8</ele><time>2026-04-25T07:33:17.894Z</time></trkpt><trkpt lat="41.1634635" lon="-7.895634"><ele>344.2</ele><time>2026-04-25T07:33:19.893Z</time></trkpt><trkpt lat="41.1634933" lon="-7.895516"><ele>338.59999999999997</ele><time>2026-04-25T07:33:21.896Z</time></trkpt><trkpt lat="41.1635234" lon="-7.8954067"><ele>333.0</ele><time>2026-04-25T07:33:23.894Z</time></trkpt><trkpt lat="41.163566" lon="-7.8952839"><ele>333.0</ele><time>2026-04-25T07:33:25.896Z</time></trkpt><trkpt lat="41.1636044" lon="-7.8951573"><ele>333.0</ele><time>2026-04-25T07:33:27.894Z</time></trkpt><trkpt lat="41.1636408" lon="-7.8950456"><ele>333.0</ele><time>2026-04-25T07:33:29.906Z</time></trkpt><trkpt lat="41.1636603" lon="-7.8949391"><ele>333.0</ele><time>2026-04-25T07:33:31.899Z</time></trkpt><trkpt lat="41.1637064" lon="-7.8947649"><ele>333.0</ele><time>2026-04-25T07:33:35.897Z</time></trkpt><trkpt lat="41.1637304" lon="-7.8946785"><ele>330.0</ele><time>2026-04-25T07:33:37.896Z</time></trkpt><trkpt lat="41.1637086" lon="-7.8945944"><ele>327.0</ele><time>2026-04-25T07:33:39.901Z</time></trkpt><trkpt lat="41.1636232" lon="-7.8944664"><ele>324.0</ele><time>2026-04-25T07:33:41.905Z</time></trkpt><trkpt lat="41.1635743" lon="-7.8943917"><ele>321.0</ele><time>2026-04-25T07:33:42.898Z</time></trkpt><trkpt lat="41.1635264" lon="-7.8943009"><ele>318.0</ele><time>2026-04-25T07:33:43.892Z</time></trkpt><trkpt lat="41.1634855" lon="-7.894205"><ele>315.0</ele><time>2026-04-25T07:33:44.899Z</time></trkpt><trkpt lat="41.1634516" lon="-7.894109"><ele>312.7142857142857</ele><time>2026-04-25T07:33:45.891Z</time></trkpt><trkpt lat="41.1634149" lon="-7.8940166"><ele>310.42857142857144</ele><time>2026-04-25T07:33:46.896Z</time></trkpt><trkpt lat="41.1633796" lon="-7.8939262"><ele>308.1428571428571</ele><time>2026-04-25T07:33:47.891Z</time></trkpt><trkpt lat="41.1633459" lon="-7.8938381"><ele>305.8571428571429</ele><time>2026-04-25T07:33:48.896Z</time></trkpt><trkpt lat="41.1633108" lon="-7.893754"><ele>303.57142857142856</ele><time>2026-04-25T07:33:49.897Z</time></trkpt><trkpt lat="41.1632735" lon="-7.8936741"><ele>301.2857142857143</ele><time>2026-04-25T07:33:50.898Z</time></trkpt><trkpt lat="41.1632377" lon="-7.8935969"><ele>299.0</ele><time>2026-04-25T07:33:51.904Z</time></trkpt><trkpt lat="41.1632041" lon="-7.8935254"><ele>294.75</ele><time>2026-04-25T07:33:52.897Z</time></trkpt><trkpt lat="41.1631162" lon="-7.8933292"><ele>290.5</ele><time>2026-04-25T07:33:55.9Z</time></trkpt><trkpt lat="41.1630734" lon="-7.8931857"><ele>286.25</ele><time>2026-04-25T07:33:57.9Z</time></trkpt><trkpt lat="41.1630403" lon="-7.8930398"><ele>282.0</ele><time>2026-04-25T07:33:59.895Z</time></trkpt><trkpt lat="41.1630391" lon="-7.8928759"><ele>282.0</ele><time>2026-04-25T07:34:01.899Z</time></trkpt><trkpt lat="41.1630444" lon="-7.8927366"><ele>282.0</ele><time>2026-04-25T07:34:03.899Z</time></trkpt><trkpt lat="41.1630611" lon="-7.8926467"><ele>282.0</ele><time>2026-04-25T07:34:05.892Z</time></trkpt><trkpt lat="41.1630677" lon="-7.8925327"><ele>282.0</ele><time>2026-04-25T07:34:07.896Z</time></trkpt><trkpt lat="41.1630712" lon="-7.892443"><ele>282.0</ele><time>2026-04-25T07:34:08.894Z</time></trkpt><trkpt lat="41.1630691" lon="-7.892343"><ele>282.0</ele><time>2026-04-25T07:34:09.89Z</time></trkpt><trkpt lat="41.1630548" lon="-7.8922375"><ele>280.6666666666667</ele><time>2026-04-25T07:34:10.896Z</time></trkpt><trkpt lat="41.1630282" lon="-7.8921414"><ele>279.3333333333333</ele><time>2026-04-25T07:34:11.901Z</time></trkpt><trkpt lat="41.1629869" lon="-7.8920592"><ele>278.0</ele><time>2026-04-25T07:34:12.899Z</time></trkpt><trkpt lat="41.1629339" lon="-7.8919931"><ele>276.66666666666663</ele><time>2026-04-25T07:34:13.891Z</time></trkpt><trkpt lat="41.1628169" lon="-7.8918785"><ele>275.3333333333333</ele><time>2026-04-25T07:34:15.893Z</time></trkpt><trkpt lat="41.1627588" lon="-7.8918097"><ele>274.0</ele><time>2026-04-25T07:34:16.897Z</time></trkpt><trkpt lat="41.1626956" lon="-7.8917326"><ele>274.0</ele><time>2026-04-25T07:34:17.901Z</time></trkpt><trkpt lat="41.1626302" lon="-7.8916656"><ele>274.0</ele><time>2026-04-25T07:34:18.893Z</time></trkpt><trkpt lat="41.1625626" lon="-7.891603"><ele>274.0</ele><time>2026-04-25T07:34:19.897Z</time></trkpt><trkpt lat="41.1624912" lon="-7.8915446"><ele>274.0</ele><time>2026-04-25T07:34:20.896Z</time></trkpt><trkpt lat="41.1624121" lon="-7.8914881"><ele>274.0</ele><time>2026-04-25T07:34:21.895Z</time></trkpt><trkpt lat="41.162332" lon="-7.8914444"><ele>274.0</ele><time>2026-04-25T07:34:22.898Z</time></trkpt><trkpt lat="41.1622541" lon="-7.8914141"><ele>271.5</ele><time>2026-04-25T07:34:23.899Z</time></trkpt><trkpt lat="41.1621814" lon="-7.8913912"><ele>269.0</ele><time>2026-04-25T07:34:24.892Z</time></trkpt><trkpt lat="41.1620902" lon="-7.8913547"><ele>266.5</ele><time>2026-04-25T07:34:26.891Z</time></trkpt><trkpt lat="41.1620837" lon="-7.8912681"><ele>264.0</ele><time>2026-04-25T07:34:28.892Z</time></trkpt><trkpt lat="41.1621712" lon="-7.8911804"><ele>261.5</ele><time>2026-04-25T07:34:30.905Z</time></trkpt><trkpt lat="41.1622214" lon="-7.8911204"><ele>259.0</ele><time>2026-04-25T07:34:31.899Z</time></trkpt><trkpt lat="41.1622611" lon="-7.8910548"><ele>259.0</ele><time>2026-04-25T07:34:32.893Z</time></trkpt><trkpt lat="41.1623002" lon="-7.8909848"><ele>259.0</ele><time>2026-04-25T07:34:33.892Z</time></trkpt><trkpt lat="41.162345" lon="-7.8909237"><ele>259.0</ele><time>2026-04-25T07:34:34.9Z</time></trkpt><trkpt lat="41.1623475" lon="-7.8907285"><ele>259.0</ele><time>2026-04-25T07:34:38.908Z</time></trkpt><trkpt lat="41.1622433" lon="-7.8906272"><ele>259.0</ele><time>2026-04-25T07:34:40.892Z</time></trkpt><trkpt lat="41.1621384" lon="-7.8905615"><ele>260.8</ele><time>2026-04-25T07:34:42.893Z</time></trkpt><trkpt lat="41.1620265" lon="-7.890618"><ele>262.59999999999997</ele><time>2026-04-25T07:34:44.898Z</time></trkpt><trkpt lat="41.1619717" lon="-7.8906689"><ele>264.4</ele><time>2026-04-25T07:34:45.894Z</time></trkpt><trkpt lat="41.1618711" lon="-7.8907333"><ele>266.2</ele><time>2026-04-25T07:34:47.901Z</time></trkpt><trkpt lat="41.1617886" lon="-7.8907668"><ele>268.0</ele><time>2026-04-25T07:34:49.894Z</time></trkpt><trkpt lat="41.1617142" lon="-7.8907491"><ele>268.0</ele><time>2026-04-25T07:34:51.892Z</time></trkpt><trkpt lat="41.1616195" lon="-7.8907038"><ele>268.0</ele><time>2026-04-25T07:34:53.897Z</time></trkpt><trkpt lat="41.1614862" lon="-7.890667"><ele>268.0</ele><time>2026-04-25T07:34:55.9Z</time></trkpt><trkpt lat="41.1613153" lon="-7.8906641"><ele>268.0</ele><time>2026-04-25T07:34:57.902Z</time></trkpt><trkpt lat="41.1612276" lon="-7.8906831"><ele>269.8333333333333</ele><time>2026-04-25T07:34:58.893Z</time></trkpt><trkpt lat="41.1611475" lon="-7.89072"><ele>271.66666666666663</ele><time>2026-04-25T07:34:59.895Z</time></trkpt><trkpt lat="41.1610811" lon="-7.8907716"><ele>273.5</ele><time>2026-04-25T07:35:00.896Z</time></trkpt><trkpt lat="41.1610301" lon="-7.8908372"><ele>275.3333333333333</ele><time>2026-04-25T07:35:01.893Z</time></trkpt><trkpt lat="41.1609889" lon="-7.8909151"><ele>277.1666666666667</ele><time>2026-04-25T07:35:02.89Z</time></trkpt><trkpt lat="41.1609633" lon="-7.8910097"><ele>279.0</ele><time>2026-04-25T07:35:03.905Z</time></trkpt><trkpt lat="41.1609464" lon="-7.8911129"><ele>279.0</ele><time>2026-04-25T07:35:04.902Z</time></trkpt><trkpt lat="41.1609273" lon="-7.8912296"><ele>279.0</ele><time>2026-04-25T07:35:05.902Z</time></trkpt><trkpt lat="41.1609017" lon="-7.8913416"><ele>279.0</ele><time>2026-04-25T07:35:06.895Z</time></trkpt><trkpt lat="41.1608748" lon="-7.8914465"><ele>279.0</ele><time>2026-04-25T07:35:07.893Z</time></trkpt><trkpt lat="41.1608508" lon="-7.8915525"><ele>279.0</ele><time>2026-04-25T07:35:08.893Z</time></trkpt><trkpt lat="41.1608266" lon="-7.8916592"><ele>279.0</ele><time>2026-04-25T07:35:09.893Z</time></trkpt><trkpt lat="41.1607906" lon="-7.8917562"><ele>277.0</ele><time>2026-04-25T07:35:10.893Z</time></trkpt><trkpt lat="41.1607426" lon="-7.8918381"><ele>275.0</ele><time>2026-04-25T07:35:11.896Z</time></trkpt><trkpt lat="41.1606843" lon="-7.8919005"><ele>273.0</ele><time>2026-04-25T07:35:12.899Z</time></trkpt><trkpt lat="41.160622" lon="-7.8919425"><ele>271.0</ele><time>2026-04-25T07:35:13.907Z</time></trkpt><trkpt lat="41.1605101" lon="-7.8919225"><ele>269.0</ele><time>2026-04-25T07:35:15.894Z</time></trkpt><trkpt lat="41.1604714" lon="-7.8918491"><ele>267.0</ele><time>2026-04-25T07:35:16.894Z</time></trkpt><trkpt lat="41.1604723" lon="-7.8916703"><ele>271.3333333333333</ele><time>2026-04-25T07:35:18.895Z</time></trkpt><trkpt lat="41.1604865" lon="-7.8915783"><ele>275.6666666666667</ele><time>2026-04-25T07:35:19.893Z</time></trkpt><trkpt lat="41.1605155" lon="-7.8914721"><ele>280.0</ele><time>2026-04-25T07:35:20.893Z</time></trkpt><trkpt lat="41.1605559" lon="-7.8913609"><ele>284.33333333333337</ele><time>2026-04-25T07:35:21.893Z</time></trkpt><trkpt lat="41.1606015" lon="-7.891245"><ele>288.6666666666667</ele><time>2026-04-25T07:35:22.893Z</time></trkpt><trkpt lat="41.1606372" lon="-7.8911283"><ele>293.0</ele><time>2026-04-25T07:35:23.906Z</time></trkpt><trkpt lat="41.1606548" lon="-7.8910162"><ele>295.33333333333337</ele><time>2026-04-25T07:35:24.897Z</time></trkpt><trkpt lat="41.1606667" lon="-7.890913"><ele>297.6666666666667</ele><time>2026-04-25T07:35:25.899Z</time></trkpt><trkpt lat="41.1606754" lon="-7.8908158"><ele>300.0</ele><time>2026-04-25T07:35:26.904Z</time></trkpt><trkpt lat="41.160681" lon="-7.8907182"><ele>302.3333333333333</ele><time>2026-04-25T07:35:27.893Z</time></trkpt><trkpt lat="41.1606824" lon="-7.890621"><ele>304.66666666666663</ele><time>2026-04-25T07:35:28.893Z</time></trkpt><trkpt lat="41.160683" lon="-7.8905303"><ele>307.0</ele><time>2026-04-25T07:35:29.894Z</time></trkpt><trkpt lat="41.1606772" lon="-7.8903738"><ele>307.0</ele><time>2026-04-25T07:35:31.895Z</time></trkpt><trkpt lat="41.1606431" lon="-7.890272"><ele>307.0</ele><time>2026-04-25T07:35:33.895Z</time></trkpt><trkpt lat="41.1605702" lon="-7.8903376"><ele>307.0</ele><time>2026-04-25T07:35:35.894Z</time></trkpt><trkpt lat="41.1605389" lon="-7.8905092"><ele>307.0</ele><time>2026-04-25T07:35:37.896Z</time></trkpt><trkpt lat="41.1605327" lon="-7.8906959"><ele>307.0</ele><time>2026-04-25T07:35:39.9Z</time></trkpt><trkpt lat="41.1605357" lon="-7.8907846"><ele>307.0</ele><time>2026-04-25T07:35:40.897Z</time></trkpt><trkpt lat="41.1605407" lon="-7.8908855"><ele>307.0</ele><time>2026-04-25T07:35:41.892Z</time></trkpt><trkpt lat="41.1605409" lon="-7.8909913"><ele>307.0</ele><time>2026-04-25T07:35:42.901Z</time></trkpt><trkpt lat="41.1605414" lon="-7.891088"><ele>307.0</ele><time>2026-04-25T07:35:43.898Z</time></trkpt><trkpt lat="41.1605439" lon="-7.8911773"><ele>307.0</ele><time>2026-04-25T07:35:44.898Z</time></trkpt><trkpt lat="41.1605143" lon="-7.8913166"><ele>307.0</ele><time>2026-04-25T07:35:46.893Z</time></trkpt><trkpt lat="41.1604541" lon="-7.8914176"><ele>306.99999999999994</ele><time>2026-04-25T07:35:48.895Z</time></trkpt><trkpt lat="41.1604416" lon="-7.8913198"><ele>307.0</ele><time>2026-04-25T07:35:51.895Z</time></trkpt><trkpt lat="41.1604511" lon="-7.8912288"><ele>307.0</ele><time>2026-04-25T07:35:52.898Z</time></trkpt><trkpt lat="41.1604441" lon="-7.8911444"><ele>307.0</ele><time>2026-04-25T07:35:53.902Z</time></trkpt><trkpt lat="41.1604236" lon="-7.8910618"><ele>307.0</ele><time>2026-04-25T07:35:54.893Z</time></trkpt><trkpt lat="41.1604011" lon="-7.8909818"><ele>306.99999999999994</ele><time>2026-04-25T07:35:55.895Z</time></trkpt><trkpt lat="41.1603789" lon="-7.8909017"><ele>307.0</ele><time>2026-04-25T07:35:56.894Z</time></trkpt><trkpt lat="41.1603613" lon="-7.8908199"><ele>307.0</ele><time>2026-04-25T07:35:57.894Z</time></trkpt><trkpt lat="41.1603484" lon="-7.8906746"><ele>307.0</ele><time>2026-04-25T07:35:59.891Z</time></trkpt><trkpt lat="41.1602426" lon="-7.8904616"><ele>307.0</ele><time>2026-04-25T07:36:03.895Z</time></trkpt><trkpt lat="41.1601599" lon="-7.8904302"><ele>307.0</ele><time>2026-04-25T07:36:05.894Z</time></trkpt><trkpt lat="41.160073" lon="-7.8904216"><ele>307.0</ele><time>2026-04-25T07:36:07.894Z</time></trkpt><trkpt lat="41.1600072" lon="-7.8904141"><ele>307.0</ele><time>2026-04-25T07:36:09.893Z</time></trkpt><trkpt lat="41.1599412" lon="-7.8904098"><ele>307.0</ele><time>2026-04-25T07:36:11.894Z</time></trkpt><trkpt lat="41.1598795" lon="-7.8903873"><ele>307.0</ele><time>2026-04-25T07:36:13.897Z</time></trkpt><trkpt lat="41.1598151" lon="-7.8903653"><ele>307.0</ele><time>2026-04-25T07:36:17.895Z</time></trkpt><trkpt lat="41.1597377" lon="-7.8903374"><ele>307.0</ele><time>2026-04-25T07:36:19.894Z</time></trkpt><trkpt lat="41.1596298" lon="-7.8902847"><ele>307.0</ele><time>2026-04-25T07:36:21.903Z</time></trkpt><trkpt lat="41.1594184" lon="-7.8901881"><ele>307.0</ele><time>2026-04-25T07:36:25.895Z</time></trkpt><trkpt lat="41.1593265" lon="-7.8901385"><ele>307.0</ele><time>2026-04-25T07:36:27.897Z</time></trkpt><trkpt lat="41.1592302" lon="-7.890122"><ele>307.0</ele><time>2026-04-25T07:36:29.9Z</time></trkpt><trkpt lat="41.1591536" lon="-7.8901432"><ele>307.0</ele><time>2026-04-25T07:36:31.894Z</time></trkpt><trkpt lat="41.1591586" lon="-7.8902336"><ele>307.0</ele><time>2026-04-25T07:43:01.895Z</time></trkpt><trkpt lat="41.1590527" lon="-7.8902837"><ele>307.0</ele><time>2026-04-25T07:43:09.901Z</time></trkpt><trkpt lat="41.1589725" lon="-7.890246"><ele>307.0</ele><time>2026-04-25T07:43:11.894Z</time></trkpt><trkpt lat="41.1588815" lon="-7.8902545"><ele>307.0</ele><time>2026-04-25T07:43:13.895Z</time></trkpt><trkpt lat="41.1587891" lon="-7.8903445"><ele>305.57142857142856</ele><time>2026-04-25T07:43:15.905Z</time></trkpt><trkpt lat="41.1587358" lon="-7.890399"><ele>304.1428571428571</ele><time>2026-04-25T07:43:16.897Z</time></trkpt><trkpt lat="41.1586791" lon="-7.8904564"><ele>302.7142857142857</ele><time>2026-04-25T07:43:17.892Z</time></trkpt><trkpt lat="41.1586185" lon="-7.8905147"><ele>301.2857142857143</ele><time>2026-04-25T07:43:18.897Z</time></trkpt><trkpt lat="41.1585616" lon="-7.8905819"><ele>299.8571428571429</ele><time>2026-04-25T07:43:19.892Z</time></trkpt><trkpt lat="41.1585048" lon="-7.8906511"><ele>298.42857142857144</ele><time>2026-04-25T07:43:20.897Z</time></trkpt><trkpt lat="41.1584473" lon="-7.8907202"><ele>297.0</ele><time>2026-04-25T07:43:21.893Z</time></trkpt><trkpt lat="41.1583889" lon="-7.890787"><ele>297.0</ele><time>2026-04-25T07:43:22.889Z</time></trkpt><trkpt lat="41.1582705" lon="-7.8909091"><ele>297.0</ele><time>2026-04-25T07:43:24.894Z</time></trkpt><trkpt lat="41.1582124" lon="-7.8909699"><ele>297.0</ele><time>2026-04-25T07:43:25.896Z</time></trkpt><trkpt lat="41.1581493" lon="-7.8910334"><ele>297.0</ele><time>2026-04-25T07:43:26.891Z</time></trkpt><trkpt lat="41.1580754" lon="-7.8911091"><ele>297.0</ele><time>2026-04-25T07:43:27.894Z</time></trkpt><trkpt lat="41.1579899" lon="-7.8912094"><ele>295.0</ele><time>2026-04-25T07:43:28.901Z</time></trkpt><trkpt lat="41.1578975" lon="-7.8913207"><ele>293.0</ele><time>2026-04-25T07:43:29.893Z</time></trkpt><trkpt lat="41.1578002" lon="-7.8914283"><ele>291.0</ele><time>2026-04-25T07:43:30.898Z</time></trkpt><trkpt lat="41.157706" lon="-7.8915276"><ele>289.0</ele><time>2026-04-25T07:43:31.896Z</time></trkpt><trkpt lat="41.1576125" lon="-7.8916238"><ele>289.0</ele><time>2026-04-25T07:43:32.894Z</time></trkpt><trkpt lat="41.1575213" lon="-7.8917176"><ele>289.0</ele><time>2026-04-25T07:43:33.903Z</time></trkpt><trkpt lat="41.157436" lon="-7.8918101"><ele>289.0</ele><time>2026-04-25T07:43:34.895Z</time></trkpt><trkpt lat="41.1573485" lon="-7.8918975"><ele>289.0</ele><time>2026-04-25T07:43:35.895Z</time></trkpt><trkpt lat="41.1572676" lon="-7.891987"><ele>289.0</ele><time>2026-04-25T07:43:36.895Z</time></trkpt><trkpt lat="41.1571903" lon="-7.8920767"><ele>289.2</ele><time>2026-04-25T07:43:37.892Z</time></trkpt><trkpt lat="41.1571073" lon="-7.8921599"><ele>289.4</ele><time>2026-04-25T07:43:38.891Z</time></trkpt><trkpt lat="41.1570196" lon="-7.8922263"><ele>289.6</ele><time>2026-04-25T07:43:39.901Z</time></trkpt><trkpt lat="41.1569295" lon="-7.8922771"><ele>289.8</ele><time>2026-04-25T07:43:40.893Z</time></trkpt><trkpt lat="41.1568387" lon="-7.892304"><ele>290.0</ele><time>2026-04-25T07:43:41.894Z</time></trkpt><trkpt lat="41.1567498" lon="-7.8923085"><ele>290.0</ele><time>2026-04-25T07:43:42.894Z</time></trkpt><trkpt lat="41.1566572" lon="-7.8922853"><ele>290.0</ele><time>2026-04-25T07:43:43.896Z</time></trkpt><trkpt lat="41.1564696" lon="-7.8921773"><ele>290.0</ele><time>2026-04-25T07:43:45.899Z</time></trkpt><trkpt lat="41.1563822" lon="-7.8921295"><ele>290.0</ele><time>2026-04-25T07:43:46.897Z</time></trkpt><trkpt lat="41.1563013" lon="-7.8921002"><ele>287.4</ele><time>2026-04-25T07:43:47.902Z</time></trkpt><trkpt lat="41.1562294" lon="-7.8920973"><ele>284.8</ele><time>2026-04-25T07:43:48.89Z</time></trkpt><trkpt lat="41.1561159" lon="-7.8921712"><ele>282.2</ele><time>2026-04-25T07:43:50.89Z</time></trkpt><trkpt lat="41.1560687" lon="-7.8922347"><ele>279.6</ele><time>2026-04-25T07:43:51.89Z</time></trkpt><trkpt lat="41.1560219" lon="-7.892387"><ele>277.0</ele><time>2026-04-25T07:43:53.893Z</time></trkpt><trkpt lat="41.156011" lon="-7.8924797"><ele>277.0</ele><time>2026-04-25T07:43:54.899Z</time></trkpt><trkpt lat="41.1560061" lon="-7.892582"><ele>277.0</ele><time>2026-04-25T07:43:55.892Z</time></trkpt><trkpt lat="41.1559985" lon="-7.8926859"><ele>277.0</ele><time>2026-04-25T07:43:56.89Z</time></trkpt><trkpt lat="41.1559892" lon="-7.8927874"><ele>277.0</ele><time>2026-04-25T07:43:57.906Z</time></trkpt><trkpt lat="41.1559793" lon="-7.8928884"><ele>277.0</ele><time>2026-04-25T07:43:58.892Z</time></trkpt><trkpt lat="41.1559684" lon="-7.8929928"><ele>277.0</ele><time>2026-04-25T07:43:59.89Z</time></trkpt><trkpt lat="41.1559516" lon="-7.8931053"><ele>280.0</ele><time>2026-04-25T07:44:00.894Z</time></trkpt><trkpt lat="41.1559355" lon="-7.8932295"><ele>283.0</ele><time>2026-04-25T07:44:01.889Z</time></trkpt><trkpt lat="41.1559206" lon="-7.8933566"><ele>286.0</ele><time>2026-04-25T07:44:02.897Z</time></trkpt><trkpt lat="41.155905" lon="-7.8934913"><ele>289.0</ele><time>2026-04-25T07:44:03.9Z</time></trkpt><trkpt lat="41.1558872" lon="-7.8936315"><ele>292.0</ele><time>2026-04-25T07:44:04.898Z</time></trkpt><trkpt lat="41.1558489" lon="-7.8939225"><ele>293.6</ele><time>2026-04-25T07:44:06.894Z</time></trkpt><trkpt lat="41.1558309" lon="-7.8940567"><ele>295.2</ele><time>2026-04-25T07:44:07.893Z</time></trkpt><trkpt lat="41.1558188" lon="-7.8941815"><ele>296.8</ele><time>2026-04-25T07:44:08.891Z</time></trkpt><trkpt lat="41.1558137" lon="-7.8942933"><ele>298.4</ele><time>2026-04-25T07:44:09.896Z</time></trkpt><trkpt lat="41.1558164" lon="-7.8943909"><ele>300.0</ele><time>2026-04-25T07:44:10.894Z</time></trkpt><trkpt lat="41.1558156" lon="-7.8945304"><ele>301.0</ele><time>2026-04-25T07:44:12.887Z</time></trkpt><trkpt lat="41.1557572" lon="-7.8946448"><ele>302.0</ele><time>2026-04-25T07:44:14.898Z</time></trkpt><trkpt lat="41.1556715" lon="-7.8947332"><ele>303.0</ele><time>2026-04-25T07:44:16.896Z</time></trkpt><trkpt lat="41.1555774" lon="-7.8948369"><ele>304.0</ele><time>2026-04-25T07:44:18.894Z</time></trkpt><trkpt lat="41.1554774" lon="-7.8949381"><ele>304.66666666666663</ele><time>2026-04-25T07:44:20.895Z</time></trkpt><trkpt lat="41.1554207" lon="-7.8949894"><ele>305.3333333333333</ele><time>2026-04-25T07:44:21.896Z</time></trkpt><trkpt lat="41.1553642" lon="-7.8950446"><ele>306.0</ele><time>2026-04-25T07:44:22.892Z</time></trkpt><trkpt lat="41.1553136" lon="-7.8951118"><ele>306.6666666666667</ele><time>2026-04-25T07:44:23.893Z</time></trkpt><trkpt lat="41.1552621" lon="-7.8951907"><ele>307.33333333333337</ele><time>2026-04-25T07:44:24.894Z</time></trkpt><trkpt lat="41.1552146" lon="-7.8952807"><ele>308.0</ele><time>2026-04-25T07:44:25.891Z</time></trkpt><trkpt lat="41.1551256" lon="-7.8954673"><ele>308.33333333333337</ele><time>2026-04-25T07:44:27.89Z</time></trkpt><trkpt lat="41.1550793" lon="-7.8955638"><ele>308.6666666666667</ele><time>2026-04-25T07:44:28.897Z</time></trkpt><trkpt lat="41.155032" lon="-7.8956616"><ele>309.0</ele><time>2026-04-25T07:44:29.895Z</time></trkpt><trkpt lat="41.1549852" lon="-7.8957583"><ele>309.3333333333333</ele><time>2026-04-25T07:44:30.891Z</time></trkpt><trkpt lat="41.1549395" lon="-7.8958481"><ele>309.66666666666663</ele><time>2026-04-25T07:44:31.897Z</time></trkpt><trkpt lat="41.1548947" lon="-7.895931"><ele>310.0</ele><time>2026-04-25T07:44:32.898Z</time></trkpt><trkpt lat="41.1548513" lon="-7.8960103"><ele>311.3333333333333</ele><time>2026-04-25T07:44:33.892Z</time></trkpt><trkpt lat="41.1548013" lon="-7.8960866"><ele>312.66666666666663</ele><time>2026-04-25T07:44:34.891Z</time></trkpt><trkpt lat="41.1547383" lon="-7.8961559"><ele>314.0</ele><time>2026-04-25T07:44:35.895Z</time></trkpt><trkpt lat="41.1546612" lon="-7.8962042"><ele>315.3333333333333</ele><time>2026-04-25T07:44:36.89Z</time></trkpt><trkpt lat="41.1545795" lon="-7.8962387"><ele>316.6666666666667</ele><time>2026-04-25T07:44:37.897Z</time></trkpt><trkpt lat="41.1545009" lon="-7.8962658"><ele>318.0</ele><time>2026-04-25T07:44:38.887Z</time></trkpt><trkpt lat="41.1544203" lon="-7.8962976"><ele>318.0</ele><time>2026-04-25T07:44:39.889Z</time></trkpt><trkpt lat="41.1543414" lon="-7.8963328"><ele>318.0</ele><time>2026-04-25T07:44:40.892Z</time></trkpt><trkpt lat="41.1542686" lon="-7.8963773"><ele>318.0</ele><time>2026-04-25T07:44:41.895Z</time></trkpt><trkpt lat="41.1541985" lon="-7.8964322"><ele>318.0</ele><time>2026-04-25T07:44:42.889Z</time></trkpt><trkpt lat="41.1541361" lon="-7.8965012"><ele>318.0</ele><time>2026-04-25T07:44:43.894Z</time></trkpt><trkpt lat="41.15409" lon="-7.8965797"><ele>318.0</ele><time>2026-04-25T07:44:44.892Z</time></trkpt><trkpt lat="41.1540586" lon="-7.8966734"><ele>318.2</ele><time>2026-04-25T07:44:45.889Z</time></trkpt><trkpt lat="41.1540438" lon="-7.8967764"><ele>318.4</ele><time>2026-04-25T07:44:46.894Z</time></trkpt><trkpt lat="41.1540086" lon="-7.8970057"><ele>318.59999999999997</ele><time>2026-04-25T07:44:48.895Z</time></trkpt><trkpt lat="41.1539876" lon="-7.8971291"><ele>318.8</ele><time>2026-04-25T07:44:49.891Z</time></trkpt><trkpt lat="41.1539652" lon="-7.8972562"><ele>319.0</ele><time>2026-04-25T07:44:50.898Z</time></trkpt><trkpt lat="41.1539414" lon="-7.8973904"><ele>324.6</ele><time>2026-04-25T07:44:51.898Z</time></trkpt><trkpt lat="41.153918" lon="-7.8975327"><ele>330.2</ele><time>2026-04-25T07:44:52.892Z</time></trkpt><trkpt lat="41.1538962" lon="-7.8976822"><ele>335.8</ele><time>2026-04-25T07:44:53.891Z</time></trkpt><trkpt lat="41.1538792" lon="-7.8978314"><ele>341.40000000000003</ele><time>2026-04-25T07:44:54.894Z</time></trkpt><trkpt lat="41.1538643" lon="-7.8979777"><ele>347.0</ele><time>2026-04-25T07:44:55.891Z</time></trkpt><trkpt lat="41.1538467" lon="-7.8981255"><ele>350.0</ele><time>2026-04-25T07:44:56.895Z</time></trkpt><trkpt lat="41.1538297" lon="-7.8982702"><ele>353.0</ele><time>2026-04-25T07:44:57.899Z</time></trkpt><trkpt lat="41.1538119" lon="-7.8984153"><ele>356.0</ele><time>2026-04-25T07:44:58.895Z</time></trkpt><trkpt lat="41.1537928" lon="-7.8985576"><ele>359.0</ele><time>2026-04-25T07:44:59.89Z</time></trkpt><trkpt lat="41.1537767" lon="-7.898686"><ele>362.0</ele><time>2026-04-25T07:45:00.889Z</time></trkpt><trkpt lat="41.1537722" lon="-7.8988057"><ele>363.33333333333337</ele><time>2026-04-25T07:45:01.896Z</time></trkpt><trkpt lat="41.1537676" lon="-7.8989116"><ele>364.6666666666667</ele><time>2026-04-25T07:45:02.891Z</time></trkpt><trkpt lat="41.1537463" lon="-7.8990006"><ele>366.0</ele><time>2026-04-25T07:45:03.892Z</time></trkpt><trkpt lat="41.1537132" lon="-7.8990882"><ele>367.3333333333333</ele><time>2026-04-25T07:45:04.897Z</time></trkpt><trkpt lat="41.1536801" lon="-7.899178"><ele>368.66666666666663</ele><time>2026-04-25T07:45:05.89Z</time></trkpt><trkpt lat="41.153656" lon="-7.8992727"><ele>370.0</ele><time>2026-04-25T07:45:06.894Z</time></trkpt><trkpt lat="41.1536521" lon="-7.8993728"><ele>371.8</ele><time>2026-04-25T07:45:07.902Z</time></trkpt><trkpt lat="41.1537052" lon="-7.8995641"><ele>373.6</ele><time>2026-04-25T07:45:09.894Z</time></trkpt><trkpt lat="41.1537468" lon="-7.899658"><ele>375.4</ele><time>2026-04-25T07:45:10.891Z</time></trkpt><trkpt lat="41.1537873" lon="-7.8997509"><ele>377.2</ele><time>2026-04-25T07:45:11.897Z</time></trkpt><trkpt lat="41.1538126" lon="-7.8998379"><ele>379.0</ele><time>2026-04-25T07:45:12.89Z</time></trkpt><trkpt lat="41.1538171" lon="-7.8999296"><ele>379.00000000000006</ele><time>2026-04-25T07:45:13.892Z</time></trkpt><trkpt lat="41.1538108" lon="-7.9000241"><ele>379.0</ele><time>2026-04-25T07:45:14.899Z</time></trkpt><trkpt lat="41.153795" lon="-7.9001183"><ele>379.0</ele><time>2026-04-25T07:45:15.891Z</time></trkpt><trkpt lat="41.1537836" lon="-7.900213"><ele>379.0</ele><time>2026-04-25T07:45:16.892Z</time></trkpt><trkpt lat="41.1537809" lon="-7.9003071"><ele>379.0</ele><time>2026-04-25T07:45:17.893Z</time></trkpt><trkpt lat="41.1537916" lon="-7.900403"><ele>379.00000000000006</ele><time>2026-04-25T07:45:18.891Z</time></trkpt><trkpt lat="41.1538071" lon="-7.9005001"><ele>379.0</ele><time>2026-04-25T07:45:19.891Z</time></trkpt><trkpt lat="41.1538232" lon="-7.9005904"><ele>379.3333333333333</ele><time>2026-04-25T07:45:20.9Z</time></trkpt><trkpt lat="41.1538335" lon="-7.900679"><ele>379.66666666666663</ele><time>2026-04-25T07:45:21.89Z</time></trkpt><trkpt lat="41.153842" lon="-7.9007663"><ele>380.0</ele><time>2026-04-25T07:45:22.9Z</time></trkpt><trkpt lat="41.15384" lon="-7.9009276"><ele>380.3333333333333</ele><time>2026-04-25T07:45:24.903Z</time></trkpt><trkpt lat="41.153836" lon="-7.9010113"><ele>380.6666666666667</ele><time>2026-04-25T07:45:25.891Z</time></trkpt><trkpt lat="41.1538268" lon="-7.9011033"><ele>381.0</ele><time>2026-04-25T07:45:26.908Z</time></trkpt><trkpt lat="41.153814" lon="-7.9011909"><ele>381.0</ele><time>2026-04-25T07:45:27.891Z</time></trkpt><trkpt lat="41.1537886" lon="-7.9012753"><ele>381.0</ele><time>2026-04-25T07:45:28.894Z</time></trkpt><trkpt lat="41.1537113" lon="-7.9014492"><ele>381.0</ele><time>2026-04-25T07:45:30.892Z</time></trkpt><trkpt lat="41.1536424" lon="-7.9015492"><ele>381.0</ele><time>2026-04-25T07:45:31.899Z</time></trkpt><trkpt lat="41.1535683" lon="-7.9016487"><ele>381.0</ele><time>2026-04-25T07:45:32.892Z</time></trkpt><trkpt lat="41.1534961" lon="-7.9017504"><ele>379.5</ele><time>2026-04-25T07:45:33.895Z</time></trkpt><trkpt lat="41.153431" lon="-7.9018491"><ele>378.0</ele><time>2026-04-25T07:45:34.901Z</time></trkpt><trkpt lat="41.1533755" lon="-7.9019463"><ele>376.5</ele><time>2026-04-25T07:45:35.89Z</time></trkpt><trkpt lat="41.1533177" lon="-7.9020241"><ele>375.0</ele><time>2026-04-25T07:45:36.889Z</time></trkpt><trkpt lat="41.1532555" lon="-7.9020838"><ele>373.5</ele><time>2026-04-25T07:45:37.886Z</time></trkpt><trkpt lat="41.1531836" lon="-7.9021369"><ele>372.0</ele><time>2026-04-25T07:45:38.891Z</time></trkpt><trkpt lat="41.1530985" lon="-7.9021767"><ele>372.0</ele><time>2026-04-25T07:45:39.893Z</time></trkpt><trkpt lat="41.1530043" lon="-7.9021945"><ele>372.0</ele><time>2026-04-25T07:45:40.9Z</time></trkpt><trkpt lat="41.152911" lon="-7.90219"><ele>372.0</ele><time>2026-04-25T07:45:41.892Z</time></trkpt><trkpt lat="41.1528166" lon="-7.902168"><ele>372.0</ele><time>2026-04-25T07:45:42.892Z</time></trkpt><trkpt lat="41.1527146" lon="-7.9021198"><ele>372.0</ele><time>2026-04-25T07:45:43.893Z</time></trkpt><trkpt lat="41.1526072" lon="-7.9020485"><ele>372.0</ele><time>2026-04-25T07:45:44.896Z</time></trkpt><trkpt lat="41.1524936" lon="-7.9019787"><ele>372.0</ele><time>2026-04-25T07:45:45.89Z</time></trkpt><trkpt lat="41.1523781" lon="-7.9019305"><ele>372.0</ele><time>2026-04-25T07:45:46.893Z</time></trkpt><trkpt lat="41.1522613" lon="-7.9018974"><ele>372.0</ele><time>2026-04-25T07:45:47.901Z</time></trkpt><trkpt lat="41.1521427" lon="-7.9018742"><ele>380.0</ele><time>2026-04-25T07:45:48.892Z</time></trkpt><trkpt lat="41.1520261" lon="-7.9018568"><ele>388.0</ele><time>2026-04-25T07:45:49.891Z</time></trkpt><trkpt lat="41.1518382" lon="-7.9018672"><ele>396.0</ele><time>2026-04-25T07:45:51.892Z</time></trkpt><trkpt lat="41.1517674" lon="-7.9018978"><ele>404.0</ele><time>2026-04-25T07:45:52.89Z</time></trkpt><trkpt lat="41.1517102" lon="-7.9019521"><ele>403.99999999999994</ele><time>2026-04-25T07:45:53.895Z</time></trkpt><trkpt lat="41.1516607" lon="-7.9020265"><ele>404.0</ele><time>2026-04-25T07:45:54.888Z</time></trkpt><trkpt lat="41.1516285" lon="-7.9021109"><ele>404.0</ele><time>2026-04-25T07:45:55.892Z</time></trkpt><trkpt lat="41.1516052" lon="-7.9022048"><ele>404.0</ele><time>2026-04-25T07:45:56.888Z</time></trkpt><trkpt lat="41.1515943" lon="-7.9023136"><ele>403.99999999999994</ele><time>2026-04-25T07:45:57.893Z</time></trkpt><trkpt lat="41.151576" lon="-7.902424"><ele>404.0</ele><time>2026-04-25T07:45:58.901Z</time></trkpt><trkpt lat="41.1515392" lon="-7.9025285"><ele>411.0</ele><time>2026-04-25T07:45:59.897Z</time></trkpt><trkpt lat="41.151496" lon="-7.9026434"><ele>418.0</ele><time>2026-04-25T07:46:00.9Z</time></trkpt><trkpt lat="41.1514377" lon="-7.9027417"><ele>425.0</ele><time>2026-04-25T07:46:01.898Z</time></trkpt><trkpt lat="41.151361" lon="-7.9028239"><ele>432.0</ele><time>2026-04-25T07:46:02.888Z</time></trkpt><trkpt lat="41.1512791" lon="-7.9028953"><ele>439.0</ele><time>2026-04-25T07:46:03.894Z</time></trkpt><trkpt lat="41.151203" lon="-7.9029757"><ele>439.0</ele><time>2026-04-25T07:46:04.894Z</time></trkpt><trkpt lat="41.1511287" lon="-7.903066"><ele>439.0</ele><time>2026-04-25T07:46:05.889Z</time></trkpt><trkpt lat="41.1510706" lon="-7.9031728"><ele>439.0</ele><time>2026-04-25T07:46:06.896Z</time></trkpt><trkpt lat="41.1510359" lon="-7.9032907"><ele>439.0</ele><time>2026-04-25T07:46:07.893Z</time></trkpt><trkpt lat="41.1510326" lon="-7.9034441"><ele>439.0</ele><time>2026-04-25T07:46:08.894Z</time></trkpt><trkpt lat="41.1510394" lon="-7.9036131"><ele>437.0</ele><time>2026-04-25T07:46:09.902Z</time></trkpt><trkpt lat="41.151043" lon="-7.9037836"><ele>435.0</ele><time>2026-04-25T07:46:10.892Z</time></trkpt><trkpt lat="41.1510049" lon="-7.904054"><ele>433.0</ele><time>2026-04-25T07:46:12.896Z</time></trkpt><trkpt lat="41.1509505" lon="-7.9041648"><ele>431.0</ele><time>2026-04-25T07:46:13.893Z</time></trkpt><trkpt lat="41.1508828" lon="-7.9042715"><ele>429.0</ele><time>2026-04-25T07:46:14.897Z</time></trkpt><trkpt lat="41.1508228" lon="-7.9043827"><ele>427.0</ele><time>2026-04-25T07:46:15.894Z</time></trkpt><trkpt lat="41.1507694" lon="-7.9045038"><ele>425.0</ele><time>2026-04-25T07:46:16.892Z</time></trkpt><trkpt lat="41.1507373" lon="-7.9046171"><ele>423.0</ele><time>2026-04-25T07:46:17.897Z</time></trkpt><trkpt lat="41.1507162" lon="-7.9046972"><ele>421.0</ele><time>2026-04-25T07:46:18.889Z</time></trkpt><trkpt lat="41.1506451" lon="-7.9047787"><ele>421.0</ele><time>2026-04-25T07:46:20.893Z</time></trkpt><trkpt lat="41.1505281" lon="-7.9048416"><ele>421.0</ele><time>2026-04-25T07:46:22.892Z</time></trkpt><trkpt lat="41.1504466" lon="-7.9048534"><ele>421.0</ele><time>2026-04-25T07:46:23.896Z</time></trkpt><trkpt lat="41.1503603" lon="-7.904856"><ele>421.0</ele><time>2026-04-25T07:46:24.889Z</time></trkpt><trkpt lat="41.1502699" lon="-7.9048545"><ele>421.0</ele><time>2026-04-25T07:46:25.89Z</time></trkpt><trkpt lat="41.150179" lon="-7.9048456"><ele>421.0</ele><time>2026-04-25T07:46:26.896Z</time></trkpt><trkpt lat="41.1500889" lon="-7.9048288"><ele>421.0</ele><time>2026-04-25T07:46:27.89Z</time></trkpt><trkpt lat="41.1500003" lon="-7.9048046"><ele>421.0</ele><time>2026-04-25T07:46:28.9Z</time></trkpt><trkpt lat="41.1499069" lon="-7.904785"><ele>421.0</ele><time>2026-04-25T07:46:29.893Z</time></trkpt><trkpt lat="41.1498094" lon="-7.9047655"><ele>421.0</ele><time>2026-04-25T07:46:30.891Z</time></trkpt><trkpt lat="41.1497117" lon="-7.9047458"><ele>420.25</ele><time>2026-04-25T07:46:31.889Z</time></trkpt><trkpt lat="41.1495163" lon="-7.9046949"><ele>419.5</ele><time>2026-04-25T07:46:33.888Z</time></trkpt><trkpt lat="41.1494317" lon="-7.9046699"><ele>418.75</ele><time>2026-04-25T07:46:34.894Z</time></trkpt><trkpt lat="41.1493522" lon="-7.9046292"><ele>418.0</ele><time>2026-04-25T07:46:35.891Z</time></trkpt><trkpt lat="41.1492724" lon="-7.9045775"><ele>418.0</ele><time>2026-04-25T07:46:36.897Z</time></trkpt><trkpt lat="41.1491885" lon="-7.9045258"><ele>418.0</ele><time>2026-04-25T07:46:37.889Z</time></trkpt><trkpt lat="41.1491016" lon="-7.9044793"><ele>418.0</ele><time>2026-04-25T07:46:38.89Z</time></trkpt><trkpt lat="41.1490135" lon="-7.9044333"><ele>418.0</ele><time>2026-04-25T07:46:39.89Z</time></trkpt><trkpt lat="41.1489226" lon="-7.9043856"><ele>418.0</ele><time>2026-04-25T07:46:40.896Z</time></trkpt><trkpt lat="41.1488305" lon="-7.9043387"><ele>416.4</ele><time>2026-04-25T07:46:41.898Z</time></trkpt><trkpt lat="41.1487453" lon="-7.9042942"><ele>414.79999999999995</ele><time>2026-04-25T07:46:42.899Z</time></trkpt><trkpt lat="41.1486637" lon="-7.9042513"><ele>413.2</ele><time>2026-04-25T07:46:43.893Z</time></trkpt><trkpt lat="41.1485817" lon="-7.9042002"><ele>411.6</ele><time>2026-04-25T07:46:44.893Z</time></trkpt><trkpt lat="41.1484919" lon="-7.9041542"><ele>410.0</ele><time>2026-04-25T07:46:45.897Z</time></trkpt><trkpt lat="41.1483958" lon="-7.9041091"><ele>415.8</ele><time>2026-04-25T07:46:46.892Z</time></trkpt><trkpt lat="41.1482958" lon="-7.9040619"><ele>421.6</ele><time>2026-04-25T07:46:47.894Z</time></trkpt><trkpt lat="41.1481943" lon="-7.9040137"><ele>427.4</ele><time>2026-04-25T07:46:48.891Z</time></trkpt><trkpt lat="41.148089" lon="-7.9039729"><ele>433.2</ele><time>2026-04-25T07:46:49.898Z</time></trkpt><trkpt lat="41.1479823" lon="-7.903939"><ele>439.0</ele><time>2026-04-25T07:46:50.899Z</time></trkpt><trkpt lat="41.1478818" lon="-7.9039134"><ele>439.0</ele><time>2026-04-25T07:46:51.888Z</time></trkpt><trkpt lat="41.1477824" lon="-7.9038926"><ele>439.0</ele><time>2026-04-25T07:46:52.885Z</time></trkpt><trkpt lat="41.1475868" lon="-7.9038695"><ele>439.0</ele><time>2026-04-25T07:46:54.891Z</time></trkpt><trkpt lat="41.1474874" lon="-7.903876"><ele>439.0</ele><time>2026-04-25T07:46:55.889Z</time></trkpt><trkpt lat="41.147387" lon="-7.9038863"><ele>438.0</ele><time>2026-04-25T07:46:56.893Z</time></trkpt><trkpt lat="41.1472851" lon="-7.9038921"><ele>437.0</ele><time>2026-04-25T07:46:57.888Z</time></trkpt><trkpt lat="41.1471826" lon="-7.9039011"><ele>436.0</ele><time>2026-04-25T07:46:58.894Z</time></trkpt><trkpt lat="41.1470825" lon="-7.90392"><ele>435.0</ele><time>2026-04-25T07:46:59.898Z</time></trkpt><trkpt lat="41.1469844" lon="-7.903954"><ele>434.0</ele><time>2026-04-25T07:47:00.891Z</time></trkpt><trkpt lat="41.1468948" lon="-7.9039869"><ele>434.0</ele><time>2026-04-25T07:47:01.89Z</time></trkpt><trkpt lat="41.1468132" lon="-7.9040109"><ele>434.0</ele><time>2026-04-25T07:47:02.909Z</time></trkpt><trkpt lat="41.1467242" lon="-7.9040253"><ele>434.0</ele><time>2026-04-25T07:47:03.89Z</time></trkpt><trkpt lat="41.1466259" lon="-7.9040271"><ele>434.0</ele><time>2026-04-25T07:47:04.89Z</time></trkpt><trkpt lat="41.1465339" lon="-7.9040067"><ele>434.0</ele><time>2026-04-25T07:47:05.895Z</time></trkpt><trkpt lat="41.1464439" lon="-7.9039714"><ele>433.49999999999994</ele><time>2026-04-25T07:47:06.889Z</time></trkpt><trkpt lat="41.1463629" lon="-7.9039328"><ele>433.0</ele><time>2026-04-25T07:47:07.9Z</time></trkpt><trkpt lat="41.1462993" lon="-7.9038945"><ele>432.5</ele><time>2026-04-25T07:47:08.89Z</time></trkpt><trkpt lat="41.1461906" lon="-7.903833"><ele>432.0</ele><time>2026-04-25T07:47:10.896Z</time></trkpt><trkpt lat="41.1461261" lon="-7.903822"><ele>431.49999999999994</ele><time>2026-04-25T07:47:11.89Z</time></trkpt><trkpt lat="41.146048" lon="-7.9038272"><ele>431.0</ele><time>2026-04-25T07:47:12.895Z</time></trkpt><trkpt lat="41.1459652" lon="-7.9038386"><ele>431.0</ele><time>2026-04-25T07:47:13.894Z</time></trkpt><trkpt lat="41.1457935" lon="-7.9038744"><ele>431.0</ele><time>2026-04-25T07:47:15.888Z</time></trkpt><trkpt lat="41.1457146" lon="-7.9039072"><ele>431.0</ele><time>2026-04-25T07:47:16.888Z</time></trkpt><trkpt lat="41.1456436" lon="-7.9039569"><ele>431.0</ele><time>2026-04-25T07:47:17.896Z</time></trkpt><trkpt lat="41.1455842" lon="-7.904028"><ele>431.0</ele><time>2026-04-25T07:47:18.897Z</time></trkpt><trkpt lat="41.1455334" lon="-7.9041243"><ele>429.20000000000005</ele><time>2026-04-25T07:47:19.891Z</time></trkpt><trkpt lat="41.1454847" lon="-7.9042311"><ele>427.40000000000003</ele><time>2026-04-25T07:47:20.893Z</time></trkpt><trkpt lat="41.1454394" lon="-7.9043439"><ele>425.6</ele><time>2026-04-25T07:47:21.892Z</time></trkpt><trkpt lat="41.1453845" lon="-7.904456"><ele>423.8</ele><time>2026-04-25T07:47:22.89Z</time></trkpt><trkpt lat="41.1453312" lon="-7.9045673"><ele>422.0</ele><time>2026-04-25T07:47:23.893Z</time></trkpt><trkpt lat="41.1452746" lon="-7.9046845"><ele>422.0</ele><time>2026-04-25T07:47:24.898Z</time></trkpt><trkpt lat="41.14522" lon="-7.9048062"><ele>422.0</ele><time>2026-04-25T07:47:25.891Z</time></trkpt><trkpt lat="41.1451602" lon="-7.9049336"><ele>422.0</ele><time>2026-04-25T07:47:26.894Z</time></trkpt><trkpt lat="41.1451041" lon="-7.905054"><ele>422.0</ele><time>2026-04-25T07:47:27.899Z</time></trkpt><trkpt lat="41.1450435" lon="-7.9051556"><ele>422.0</ele><time>2026-04-25T07:47:28.889Z</time></trkpt><trkpt lat="41.1449728" lon="-7.9052568"><ele>421.8</ele><time>2026-04-25T07:47:29.898Z</time></trkpt><trkpt lat="41.1448944" lon="-7.9053577"><ele>421.6</ele><time>2026-04-25T07:47:30.904Z</time></trkpt><trkpt lat="41.1448144" lon="-7.9054546"><ele>421.40000000000003</ele><time>2026-04-25T07:47:31.887Z</time></trkpt><trkpt lat="41.1447374" lon="-7.905559"><ele>421.20000000000005</ele><time>2026-04-25T07:47:32.892Z</time></trkpt><trkpt lat="41.1446678" lon="-7.9056712"><ele>421.0</ele><time>2026-04-25T07:47:33.889Z</time></trkpt><trkpt lat="41.144606" lon="-7.9057785"><ele>422.0</ele><time>2026-04-25T07:47:34.892Z</time></trkpt><trkpt lat="41.1444774" lon="-7.905978"><ele>423.0</ele><time>2026-04-25T07:47:36.892Z</time></trkpt><trkpt lat="41.1444082" lon="-7.9060788"><ele>424.0</ele><time>2026-04-25T07:47:37.893Z</time></trkpt><trkpt lat="41.1443381" lon="-7.9061825"><ele>425.0</ele><time>2026-04-25T07:47:38.898Z</time></trkpt><trkpt lat="41.1442657" lon="-7.9062908"><ele>425.0</ele><time>2026-04-25T07:47:39.893Z</time></trkpt><trkpt lat="41.1441928" lon="-7.906399"><ele>425.0</ele><time>2026-04-25T07:47:40.898Z</time></trkpt><trkpt lat="41.1441211" lon="-7.9065126"><ele>425.0</ele><time>2026-04-25T07:47:41.894Z</time></trkpt><trkpt lat="41.1440564" lon="-7.9066277"><ele>425.0</ele><time>2026-04-25T07:47:42.892Z</time></trkpt><trkpt lat="41.1439944" lon="-7.9067422"><ele>425.0</ele><time>2026-04-25T07:47:43.897Z</time></trkpt><trkpt lat="41.1439308" lon="-7.9068459"><ele>424.8</ele><time>2026-04-25T07:47:44.9Z</time></trkpt><trkpt lat="41.1438637" lon="-7.9069419"><ele>424.6</ele><time>2026-04-25T07:47:45.895Z</time></trkpt><trkpt lat="41.1437921" lon="-7.9070405"><ele>424.4</ele><time>2026-04-25T07:47:46.894Z</time></trkpt><trkpt lat="41.1437208" lon="-7.9071396"><ele>424.2</ele><time>2026-04-25T07:47:47.896Z</time></trkpt><trkpt lat="41.1436515" lon="-7.9072365"><ele>424.0</ele><time>2026-04-25T07:47:48.893Z</time></trkpt><trkpt lat="41.1435864" lon="-7.9073335"><ele>424.00000000000006</ele><time>2026-04-25T07:47:49.893Z</time></trkpt><trkpt lat="41.1435273" lon="-7.9074254"><ele>424.0</ele><time>2026-04-25T07:47:50.896Z</time></trkpt><trkpt lat="41.143478" lon="-7.9075133"><ele>424.0</ele><time>2026-04-25T07:47:51.894Z</time></trkpt><trkpt lat="41.1434312" lon="-7.9076017"><ele>424.0</ele><time>2026-04-25T07:47:52.894Z</time></trkpt><trkpt lat="41.1433839" lon="-7.9076875"><ele>424.00000000000006</ele><time>2026-04-25T07:47:53.901Z</time></trkpt><trkpt lat="41.143331" lon="-7.9077792"><ele>424.0</ele><time>2026-04-25T07:47:54.902Z</time></trkpt><trkpt lat="41.1432715" lon="-7.907873"><ele>422.79999999999995</ele><time>2026-04-25T07:47:55.89Z</time></trkpt><trkpt lat="41.1431512" lon="-7.9080575"><ele>421.59999999999997</ele><time>2026-04-25T07:47:57.897Z</time></trkpt><trkpt lat="41.1430948" lon="-7.9081475"><ele>420.4</ele><time>2026-04-25T07:47:58.891Z</time></trkpt><trkpt lat="41.1430511" lon="-7.9082403"><ele>419.2</ele><time>2026-04-25T07:47:59.892Z</time></trkpt><trkpt lat="41.1430046" lon="-7.9083321"><ele>418.0</ele><time>2026-04-25T07:48:00.908Z</time></trkpt><trkpt lat="41.142953" lon="-7.9084153"><ele>417.83333333333337</ele><time>2026-04-25T07:48:01.895Z</time></trkpt><trkpt lat="41.1428937" lon="-7.9084993"><ele>417.6666666666667</ele><time>2026-04-25T07:48:02.891Z</time></trkpt><trkpt lat="41.1428351" lon="-7.9085882"><ele>417.5</ele><time>2026-04-25T07:48:03.891Z</time></trkpt><trkpt lat="41.1427798" lon="-7.9086773"><ele>417.33333333333337</ele><time>2026-04-25T07:48:04.898Z</time></trkpt><trkpt lat="41.1427276" lon="-7.9087662"><ele>417.1666666666667</ele><time>2026-04-25T07:48:05.889Z</time></trkpt><trkpt lat="41.1426715" lon="-7.9088477"><ele>417.0</ele><time>2026-04-25T07:48:06.889Z</time></trkpt><trkpt lat="41.1426235" lon="-7.908918"><ele>417.0</ele><time>2026-04-25T07:48:07.9Z</time></trkpt><trkpt lat="41.1425291" lon="-7.9090198"><ele>417.0</ele><time>2026-04-25T07:48:09.892Z</time></trkpt><trkpt lat="41.1424083" lon="-7.9091039"><ele>417.0</ele><time>2026-04-25T07:48:11.893Z</time></trkpt><trkpt lat="41.1423363" lon="-7.9091508"><ele>417.0</ele><time>2026-04-25T07:48:12.889Z</time></trkpt><trkpt lat="41.1422621" lon="-7.9091972"><ele>417.0</ele><time>2026-04-25T07:48:13.9Z</time></trkpt><trkpt lat="41.1421836" lon="-7.9092387"><ele>416.6</ele><time>2026-04-25T07:48:14.892Z</time></trkpt><trkpt lat="41.1421074" lon="-7.9092739"><ele>416.20000000000005</ele><time>2026-04-25T07:48:15.891Z</time></trkpt><trkpt lat="41.1420282" lon="-7.9093076"><ele>415.8</ele><time>2026-04-25T07:48:16.894Z</time></trkpt><trkpt lat="41.1418591" lon="-7.909378"><ele>415.4</ele><time>2026-04-25T07:48:18.894Z</time></trkpt><trkpt lat="41.1417718" lon="-7.9094221"><ele>415.0</ele><time>2026-04-25T07:48:19.894Z</time></trkpt><trkpt lat="41.1416846" lon="-7.9094742"><ele>415.00000000000006</ele><time>2026-04-25T07:48:20.892Z</time></trkpt><trkpt lat="41.1415987" lon="-7.9095306"><ele>415.0</ele><time>2026-04-25T07:48:21.891Z</time></trkpt><trkpt lat="41.1415146" lon="-7.9095894"><ele>415.0</ele><time>2026-04-25T07:48:22.896Z</time></trkpt><trkpt lat="41.1414361" lon="-7.9096492"><ele>415.0</ele><time>2026-04-25T07:48:23.905Z</time></trkpt><trkpt lat="41.1413723" lon="-7.9097042"><ele>415.00000000000006</ele><time>2026-04-25T07:48:24.888Z</time></trkpt><trkpt lat="41.1413186" lon="-7.9097601"><ele>415.0</ele><time>2026-04-25T07:48:25.898Z</time></trkpt><trkpt lat="41.1412677" lon="-7.9098203"><ele>415.1666666666667</ele><time>2026-04-25T07:48:26.897Z</time></trkpt><trkpt lat="41.14122" lon="-7.9098806"><ele>415.33333333333337</ele><time>2026-04-25T07:48:27.89Z</time></trkpt><trkpt lat="41.1411598" lon="-7.9099451"><ele>415.5</ele><time>2026-04-25T07:48:28.891Z</time></trkpt><trkpt lat="41.1410904" lon="-7.9100067"><ele>415.66666666666663</ele><time>2026-04-25T07:48:29.893Z</time></trkpt><trkpt lat="41.1410223" lon="-7.9100641"><ele>415.8333333333333</ele><time>2026-04-25T07:48:30.89Z</time></trkpt><trkpt lat="41.1409601" lon="-7.9101284"><ele>416.0</ele><time>2026-04-25T07:48:31.891Z</time></trkpt><trkpt lat="41.1409112" lon="-7.9101948"><ele>416.0</ele><time>2026-04-25T07:48:32.89Z</time></trkpt><trkpt lat="41.1408436" lon="-7.9103229"><ele>416.0</ele><time>2026-04-25T07:48:34.893Z</time></trkpt><trkpt lat="41.1407592" lon="-7.910403"><ele>416.0</ele><time>2026-04-25T07:48:36.893Z</time></trkpt><trkpt lat="41.1406507" lon="-7.9104607"><ele>416.0</ele><time>2026-04-25T07:48:38.889Z</time></trkpt><trkpt lat="41.1404685" lon="-7.9106081"><ele>413.8333333333333</ele><time>2026-04-25T07:48:42.896Z</time></trkpt><trkpt lat="41.1403984" lon="-7.9107225"><ele>411.66666666666663</ele><time>2026-04-25T07:48:44.893Z</time></trkpt><trkpt lat="41.1403468" lon="-7.9107921"><ele>409.5</ele><time>2026-04-25T07:48:45.894Z</time></trkpt><trkpt lat="41.1402994" lon="-7.9108631"><ele>407.33333333333337</ele><time>2026-04-25T07:48:46.891Z</time></trkpt><trkpt lat="41.1402584" lon="-7.9109381"><ele>405.1666666666667</ele><time>2026-04-25T07:48:47.892Z</time></trkpt><trkpt lat="41.1402217" lon="-7.911016"><ele>403.0</ele><time>2026-04-25T07:48:48.903Z</time></trkpt><trkpt lat="41.1401879" lon="-7.9110874"><ele>402.42857142857144</ele><time>2026-04-25T07:48:49.888Z</time></trkpt><trkpt lat="41.1401517" lon="-7.9111629"><ele>401.85714285714283</ele><time>2026-04-25T07:48:50.894Z</time></trkpt><trkpt lat="41.1401103" lon="-7.9112364"><ele>401.2857142857143</ele><time>2026-04-25T07:48:51.898Z</time></trkpt><trkpt lat="41.1400597" lon="-7.911307"><ele>400.7142857142857</ele><time>2026-04-25T07:48:52.895Z</time></trkpt><trkpt lat="41.1400036" lon="-7.9113728"><ele>400.1428571428571</ele><time>2026-04-25T07:48:53.891Z</time></trkpt><trkpt lat="41.1399427" lon="-7.9114367"><ele>399.57142857142856</ele><time>2026-04-25T07:48:54.9Z</time></trkpt><trkpt lat="41.1398808" lon="-7.9114907"><ele>399.0</ele><time>2026-04-25T07:48:55.896Z</time></trkpt><trkpt lat="41.1398202" lon="-7.9115365"><ele>398.6666666666667</ele><time>2026-04-25T07:48:56.893Z</time></trkpt><trkpt lat="41.1397627" lon="-7.911577"><ele>398.33333333333337</ele><time>2026-04-25T07:48:57.897Z</time></trkpt><trkpt lat="41.1397064" lon="-7.9116187"><ele>398.0</ele><time>2026-04-25T07:48:58.897Z</time></trkpt><trkpt lat="41.139649" lon="-7.9116569"><ele>397.6666666666667</ele><time>2026-04-25T07:48:59.89Z</time></trkpt><trkpt lat="41.1395194" lon="-7.9117238"><ele>397.33333333333337</ele><time>2026-04-25T07:49:01.89Z</time></trkpt><trkpt lat="41.1394444" lon="-7.9117595"><ele>397.0</ele><time>2026-04-25T07:49:02.899Z</time></trkpt><trkpt lat="41.13937" lon="-7.9117866"><ele>396.83333333333337</ele><time>2026-04-25T07:49:03.899Z</time></trkpt><trkpt lat="41.1392929" lon="-7.9118055"><ele>396.6666666666667</ele><time>2026-04-25T07:49:04.895Z</time></trkpt><trkpt lat="41.1392138" lon="-7.9118226"><ele>396.5</ele><time>2026-04-25T07:49:05.898Z</time></trkpt><trkpt lat="41.1391371" lon="-7.9118436"><ele>396.33333333333337</ele><time>2026-04-25T07:49:06.887Z</time></trkpt><trkpt lat="41.1390657" lon="-7.9118623"><ele>396.1666666666667</ele><time>2026-04-25T07:49:07.895Z</time></trkpt><trkpt lat="41.1389994" lon="-7.9118875"><ele>396.0</ele><time>2026-04-25T07:49:08.89Z</time></trkpt><trkpt lat="41.1389336" lon="-7.9119291"><ele>396.0</ele><time>2026-04-25T07:49:09.893Z</time></trkpt><trkpt lat="41.1388668" lon="-7.9119845"><ele>396.0</ele><time>2026-04-25T07:49:10.892Z</time></trkpt><trkpt lat="41.1387998" lon="-7.9120513"><ele>396.0</ele><time>2026-04-25T07:49:11.89Z</time></trkpt><trkpt lat="41.1387352" lon="-7.9121252"><ele>396.0</ele><time>2026-04-25T07:49:12.891Z</time></trkpt><trkpt lat="41.138675" lon="-7.9122025"><ele>396.0</ele><time>2026-04-25T07:49:13.896Z</time></trkpt><trkpt lat="41.138615" lon="-7.9122811"><ele>396.0</ele><time>2026-04-25T07:49:14.889Z</time></trkpt><trkpt lat="41.1385599" lon="-7.9123549"><ele>396.0</ele><time>2026-04-25T07:49:15.896Z</time></trkpt><trkpt lat="41.1385075" lon="-7.9124231"><ele>396.0</ele><time>2026-04-25T07:49:16.896Z</time></trkpt><trkpt lat="41.1384493" lon="-7.9124695"><ele>396.0</ele><time>2026-04-25T07:49:17.905Z</time></trkpt><trkpt lat="41.1383831" lon="-7.9124903"><ele>396.0</ele><time>2026-04-25T07:49:18.896Z</time></trkpt><trkpt lat="41.1383117" lon="-7.9125009"><ele>396.0</ele><time>2026-04-25T07:49:19.894Z</time></trkpt><trkpt lat="41.1382369" lon="-7.9125018"><ele>396.0</ele><time>2026-04-25T07:49:20.891Z</time></trkpt><trkpt lat="41.1380898" lon="-7.9125067"><ele>395.8333333333333</ele><time>2026-04-25T07:49:22.892Z</time></trkpt><trkpt lat="41.1380081" lon="-7.9125142"><ele>395.66666666666663</ele><time>2026-04-25T07:49:23.89Z</time></trkpt><trkpt lat="41.1379258" lon="-7.9125289"><ele>395.5</ele><time>2026-04-25T07:49:24.891Z</time></trkpt><trkpt lat="41.1378491" lon="-7.9125471"><ele>395.3333333333333</ele><time>2026-04-25T07:49:25.889Z</time></trkpt><trkpt lat="41.1377762" lon="-7.9125601"><ele>395.16666666666663</ele><time>2026-04-25T07:49:26.886Z</time></trkpt><trkpt lat="41.1377037" lon="-7.9125737"><ele>395.0</ele><time>2026-04-25T07:49:27.891Z</time></trkpt><trkpt lat="41.1375938" lon="-7.9126117"><ele>394.66666666666663</ele><time>2026-04-25T07:49:29.891Z</time></trkpt><trkpt lat="41.1375314" lon="-7.9126785"><ele>394.3333333333333</ele><time>2026-04-25T07:49:31.892Z</time></trkpt><trkpt lat="41.1375528" lon="-7.9128032"><ele>394.0</ele><time>2026-04-25T07:49:33.893Z</time></trkpt><trkpt lat="41.1375887" lon="-7.9128819"><ele>393.66666666666663</ele><time>2026-04-25T07:49:34.894Z</time></trkpt><trkpt lat="41.1376279" lon="-7.912972"><ele>393.3333333333333</ele><time>2026-04-25T07:49:35.889Z</time></trkpt><trkpt lat="41.1376622" lon="-7.9130702"><ele>393.0</ele><time>2026-04-25T07:49:36.892Z</time></trkpt><trkpt lat="41.1376828" lon="-7.9131668"><ele>393.0</ele><time>2026-04-25T07:49:37.904Z</time></trkpt><trkpt lat="41.1376828" lon="-7.9132561"><ele>393.0</ele><time>2026-04-25T07:49:38.89Z</time></trkpt><trkpt lat="41.1376659" lon="-7.913349"><ele>393.0</ele><time>2026-04-25T07:49:39.891Z</time></trkpt><trkpt lat="41.1376484" lon="-7.9134546"><ele>393.0</ele><time>2026-04-25T07:49:40.896Z</time></trkpt><trkpt lat="41.1376352" lon="-7.9135729"><ele>393.0</ele><time>2026-04-25T07:49:41.889Z</time></trkpt><trkpt lat="41.1375991" lon="-7.9138172"><ele>391.3333333333333</ele><time>2026-04-25T07:49:43.895Z</time></trkpt><trkpt lat="41.1375624" lon="-7.9139263"><ele>389.6666666666667</ele><time>2026-04-25T07:49:44.889Z</time></trkpt><trkpt lat="41.1375184" lon="-7.9140241"><ele>388.0</ele><time>2026-04-25T07:49:45.893Z</time></trkpt><trkpt lat="41.1374686" lon="-7.9141114"><ele>386.33333333333337</ele><time>2026-04-25T07:49:46.903Z</time></trkpt><trkpt lat="41.1374144" lon="-7.9141932"><ele>384.6666666666667</ele><time>2026-04-25T07:49:47.891Z</time></trkpt><trkpt lat="41.1373623" lon="-7.9142832"><ele>383.0</ele><time>2026-04-25T07:49:48.888Z</time></trkpt><trkpt lat="41.1373091" lon="-7.9143786"><ele>383.0</ele><time>2026-04-25T07:49:49.901Z</time></trkpt><trkpt lat="41.1372559" lon="-7.9144669"><ele>383.0</ele><time>2026-04-25T07:49:50.892Z</time></trkpt><trkpt lat="41.137207" lon="-7.9145372"><ele>383.0</ele><time>2026-04-25T07:49:51.892Z</time></trkpt><trkpt lat="41.1371591" lon="-7.9146016"><ele>383.0</ele><time>2026-04-25T07:49:52.895Z</time></trkpt><trkpt lat="41.1371039" lon="-7.9146658"><ele>383.0</ele><time>2026-04-25T07:49:53.889Z</time></trkpt><trkpt lat="41.1370368" lon="-7.914725"><ele>383.0</ele><time>2026-04-25T07:49:54.894Z</time></trkpt><trkpt lat="41.1369603" lon="-7.914782"><ele>383.0</ele><time>2026-04-25T07:49:55.895Z</time></trkpt><trkpt lat="41.1368774" lon="-7.9148404"><ele>383.0</ele><time>2026-04-25T07:49:56.892Z</time></trkpt><trkpt lat="41.1368017" lon="-7.9149042"><ele>383.0</ele><time>2026-04-25T07:49:57.889Z</time></trkpt><trkpt lat="41.1367334" lon="-7.9149696"><ele>383.0</ele><time>2026-04-25T07:49:58.899Z</time></trkpt><trkpt lat="41.1366653" lon="-7.9150379"><ele>383.0</ele><time>2026-04-25T07:49:59.89Z</time></trkpt><trkpt lat="41.1365929" lon="-7.9151057"><ele>383.0</ele><time>2026-04-25T07:50:00.891Z</time></trkpt><trkpt lat="41.1365158" lon="-7.915178"><ele>382.79999999999995</ele><time>2026-04-25T07:50:01.895Z</time></trkpt><trkpt lat="41.13644" lon="-7.9152438"><ele>382.6</ele><time>2026-04-25T07:50:02.892Z</time></trkpt><trkpt lat="41.1362957" lon="-7.9153766"><ele>382.4</ele><time>2026-04-25T07:50:04.893Z</time></trkpt><trkpt lat="41.1362369" lon="-7.9154486"><ele>382.20000000000005</ele><time>2026-04-25T07:50:05.89Z</time></trkpt><trkpt lat="41.1361818" lon="-7.9155249"><ele>382.0</ele><time>2026-04-25T07:50:06.898Z</time></trkpt><trkpt lat="41.1361245" lon="-7.9156025"><ele>382.0</ele><time>2026-04-25T07:50:07.891Z</time></trkpt><trkpt lat="41.1360555" lon="-7.915687"><ele>382.0</ele><time>2026-04-25T07:50:08.891Z</time></trkpt><trkpt lat="41.1359838" lon="-7.9157705"><ele>382.0</ele><time>2026-04-25T07:50:09.899Z</time></trkpt><trkpt lat="41.1359107" lon="-7.9158572"><ele>382.0</ele><time>2026-04-25T07:50:10.898Z</time></trkpt><trkpt lat="41.1358341" lon="-7.91594"><ele>382.0</ele><time>2026-04-25T07:50:11.889Z</time></trkpt><trkpt lat="41.1357527" lon="-7.9160187"><ele>382.66666666666663</ele><time>2026-04-25T07:50:12.892Z</time></trkpt><trkpt lat="41.1356736" lon="-7.9160993"><ele>383.3333333333333</ele><time>2026-04-25T07:50:13.893Z</time></trkpt><trkpt lat="41.1356092" lon="-7.9161857"><ele>384.0</ele><time>2026-04-25T07:50:14.896Z</time></trkpt><trkpt lat="41.1355615" lon="-7.9162736"><ele>384.66666666666663</ele><time>2026-04-25T07:50:15.889Z</time></trkpt><trkpt lat="41.1355163" lon="-7.9163574"><ele>385.3333333333333</ele><time>2026-04-25T07:50:16.893Z</time></trkpt><trkpt lat="41.1354675" lon="-7.916429"><ele>386.0</ele><time>2026-04-25T07:50:17.895Z</time></trkpt><trkpt lat="41.1354024" lon="-7.9164996"><ele>386.0</ele><time>2026-04-25T07:50:18.895Z</time></trkpt><trkpt lat="41.1353262" lon="-7.916561"><ele>386.0</ele><time>2026-04-25T07:50:19.891Z</time></trkpt><trkpt lat="41.135243" lon="-7.9166159"><ele>386.0</ele><time>2026-04-25T07:50:20.891Z</time></trkpt><trkpt lat="41.1351509" lon="-7.916675"><ele>386.0</ele><time>2026-04-25T07:50:21.891Z</time></trkpt><trkpt lat="41.1350603" lon="-7.9167395"><ele>386.0</ele><time>2026-04-25T07:50:22.889Z</time></trkpt><trkpt lat="41.1349786" lon="-7.916816"><ele>385.0</ele><time>2026-04-25T07:50:23.903Z</time></trkpt><trkpt lat="41.1348227" lon="-7.9169492"><ele>384.0</ele><time>2026-04-25T07:50:25.891Z</time></trkpt><trkpt lat="41.1347428" lon="-7.9169902"><ele>383.0</ele><time>2026-04-25T07:50:26.891Z</time></trkpt><trkpt lat="41.1346592" lon="-7.9170348"><ele>382.0</ele><time>2026-04-25T07:50:27.891Z</time></trkpt><trkpt lat="41.1345738" lon="-7.9170748"><ele>382.0</ele><time>2026-04-25T07:50:28.89Z</time></trkpt><trkpt lat="41.1344908" lon="-7.9171139"><ele>382.0</ele><time>2026-04-25T07:50:29.893Z</time></trkpt><trkpt lat="41.1344092" lon="-7.9171579"><ele>382.0</ele><time>2026-04-25T07:50:30.891Z</time></trkpt><trkpt lat="41.1343347" lon="-7.9172111"><ele>382.0</ele><time>2026-04-25T07:50:31.89Z</time></trkpt><trkpt lat="41.1342614" lon="-7.9172809"><ele>382.0</ele><time>2026-04-25T07:50:32.888Z</time></trkpt><trkpt lat="41.1341927" lon="-7.9173716"><ele>382.0</ele><time>2026-04-25T07:50:33.893Z</time></trkpt><trkpt lat="41.1341317" lon="-7.9174602"><ele>382.0</ele><time>2026-04-25T07:50:34.892Z</time></trkpt><trkpt lat="41.13407" lon="-7.9175524"><ele>382.0</ele><time>2026-04-25T07:50:35.899Z</time></trkpt><trkpt lat="41.1340127" lon="-7.9176352"><ele>382.0</ele><time>2026-04-25T07:50:36.897Z</time></trkpt><trkpt lat="41.1339671" lon="-7.9177152"><ele>382.0</ele><time>2026-04-25T07:50:37.893Z</time></trkpt><trkpt lat="41.1339409" lon="-7.9178108"><ele>382.0</ele><time>2026-04-25T07:50:38.893Z</time></trkpt><trkpt lat="41.1339435" lon="-7.9179342"><ele>382.0</ele><time>2026-04-25T07:50:39.889Z</time></trkpt><trkpt lat="41.1339618" lon="-7.9180559"><ele>383.20000000000005</ele><time>2026-04-25T07:50:40.9Z</time></trkpt><trkpt lat="41.1339857" lon="-7.9181857"><ele>384.4</ele><time>2026-04-25T07:50:41.888Z</time></trkpt><trkpt lat="41.1340058" lon="-7.9183039"><ele>385.6</ele><time>2026-04-25T07:50:42.891Z</time></trkpt><trkpt lat="41.1340098" lon="-7.918408"><ele>386.79999999999995</ele><time>2026-04-25T07:50:43.895Z</time></trkpt><trkpt lat="41.1340007" lon="-7.918508"><ele>388.0</ele><time>2026-04-25T07:50:44.89Z</time></trkpt><trkpt lat="41.1339612" lon="-7.9187065"><ele>388.0</ele><time>2026-04-25T07:50:46.892Z</time></trkpt><trkpt lat="41.1339288" lon="-7.9188238"><ele>388.0</ele><time>2026-04-25T07:50:47.892Z</time></trkpt><trkpt lat="41.133896" lon="-7.9189488"><ele>388.0</ele><time>2026-04-25T07:50:48.893Z</time></trkpt><trkpt lat="41.1338574" lon="-7.9190766"><ele>388.0</ele><time>2026-04-25T07:50:49.889Z</time></trkpt><trkpt lat="41.1338111" lon="-7.9192022"><ele>388.0</ele><time>2026-04-25T07:50:50.895Z</time></trkpt><trkpt lat="41.1337638" lon="-7.9193164"><ele>385.00000000000006</ele><time>2026-04-25T07:50:51.893Z</time></trkpt><trkpt lat="41.133718" lon="-7.9194248"><ele>382.0</ele><time>2026-04-25T07:50:52.896Z</time></trkpt><trkpt lat="41.1336732" lon="-7.9195232"><ele>379.0</ele><time>2026-04-25T07:50:53.893Z</time></trkpt><trkpt lat="41.1336323" lon="-7.9196167"><ele>376.0</ele><time>2026-04-25T07:50:54.892Z</time></trkpt><trkpt lat="41.1335982" lon="-7.9197113"><ele>373.0</ele><time>2026-04-25T07:50:55.89Z</time></trkpt><trkpt lat="41.1335688" lon="-7.9198002"><ele>370.0</ele><time>2026-04-25T07:50:56.893Z</time></trkpt><trkpt lat="41.1335402" lon="-7.9198784"><ele>369.99999999999994</ele><time>2026-04-25T07:50:57.894Z</time></trkpt><trkpt lat="41.1335103" lon="-7.9199539"><ele>370.0</ele><time>2026-04-25T07:50:58.899Z</time></trkpt><trkpt lat="41.133476" lon="-7.9200297"><ele>370.0</ele><time>2026-04-25T07:50:59.893Z</time></trkpt><trkpt lat="41.1334344" lon="-7.9201056"><ele>370.0</ele><time>2026-04-25T07:51:00.889Z</time></trkpt><trkpt lat="41.1333886" lon="-7.9201813"><ele>370.0</ele><time>2026-04-25T07:51:01.893Z</time></trkpt><trkpt lat="41.1333394" lon="-7.9202531"><ele>369.99999999999994</ele><time>2026-04-25T07:51:02.893Z</time></trkpt><trkpt lat="41.1332863" lon="-7.920316"><ele>370.0</ele><time>2026-04-25T07:51:03.894Z</time></trkpt><trkpt lat="41.1332291" lon="-7.9203645"><ele>368.0</ele><time>2026-04-25T07:51:04.897Z</time></trkpt><trkpt lat="41.1331648" lon="-7.9204047"><ele>366.0</ele><time>2026-04-25T07:51:05.893Z</time></trkpt><trkpt lat="41.1329876" lon="-7.9206344"><ele>364.0</ele><time>2026-04-25T07:51:09.895Z</time></trkpt><trkpt lat="41.1329398" lon="-7.9207014"><ele>362.0</ele><time>2026-04-25T07:51:10.892Z</time></trkpt><trkpt lat="41.1328949" lon="-7.9207616"><ele>362.0</ele><time>2026-04-25T07:51:11.894Z</time></trkpt><trkpt lat="41.1328305" lon="-7.9208774"><ele>362.0</ele><time>2026-04-25T07:51:13.892Z</time></trkpt><trkpt lat="41.1327873" lon="-7.9210315"><ele>362.0</ele><time>2026-04-25T07:51:15.892Z</time></trkpt><trkpt lat="41.1327421" lon="-7.9211924"><ele>362.0</ele><time>2026-04-25T07:51:17.893Z</time></trkpt><trkpt lat="41.1327206" lon="-7.9212806"><ele>362.0</ele><time>2026-04-25T07:51:18.89Z</time></trkpt><trkpt lat="41.132695" lon="-7.921381"><ele>358.6</ele><time>2026-04-25T07:51:19.887Z</time></trkpt><trkpt lat="41.132668" lon="-7.9214861"><ele>355.20000000000005</ele><time>2026-04-25T07:51:20.892Z</time></trkpt><trkpt lat="41.1326418" lon="-7.9215857"><ele>351.8</ele><time>2026-04-25T07:51:21.891Z</time></trkpt><trkpt lat="41.132618" lon="-7.9216771"><ele>348.4</ele><time>2026-04-25T07:51:22.896Z</time></trkpt><trkpt lat="41.1325647" lon="-7.9218199"><ele>345.0</ele><time>2026-04-25T07:51:24.901Z</time></trkpt><trkpt lat="41.1324621" lon="-7.9219172"><ele>340.4</ele><time>2026-04-25T07:51:26.895Z</time></trkpt><trkpt lat="41.1323451" lon="-7.922016"><ele>335.8</ele><time>2026-04-25T07:51:28.895Z</time></trkpt><trkpt lat="41.1322926" lon="-7.9220874"><ele>331.20000000000005</ele><time>2026-04-25T07:51:29.89Z</time></trkpt><trkpt lat="41.1322409" lon="-7.9221689"><ele>326.6</ele><time>2026-04-25T07:51:30.9Z</time></trkpt><trkpt lat="41.1321885" lon="-7.9222501"><ele>322.0</ele><time>2026-04-25T07:51:31.891Z</time></trkpt><trkpt lat="41.1321299" lon="-7.922328"><ele>322.0</ele><time>2026-04-25T07:51:32.891Z</time></trkpt><trkpt lat="41.1320673" lon="-7.9223799"><ele>322.0</ele><time>2026-04-25T07:51:33.894Z</time></trkpt><trkpt lat="41.1319998" lon="-7.9224184"><ele>322.0</ele><time>2026-04-25T07:51:34.888Z</time></trkpt><trkpt lat="41.1319299" lon="-7.9224454"><ele>322.0</ele><time>2026-04-25T07:51:35.89Z</time></trkpt><trkpt lat="41.131855" lon="-7.9224616"><ele>322.0</ele><time>2026-04-25T07:51:36.901Z</time></trkpt><trkpt lat="41.1317737" lon="-7.9224754"><ele>322.0</ele><time>2026-04-25T07:51:37.888Z</time></trkpt><trkpt lat="41.1316796" lon="-7.9224948"><ele>322.0</ele><time>2026-04-25T07:51:38.902Z</time></trkpt><trkpt lat="41.1315614" lon="-7.9225253"><ele>322.0</ele><time>2026-04-25T07:51:39.891Z</time></trkpt><trkpt lat="41.1314348" lon="-7.9225545"><ele>322.0</ele><time>2026-04-25T07:51:40.893Z</time></trkpt><trkpt lat="41.1313147" lon="-7.9225793"><ele>322.0</ele><time>2026-04-25T07:51:41.898Z</time></trkpt><trkpt lat="41.1312018" lon="-7.9225971"><ele>318.0</ele><time>2026-04-25T07:51:42.889Z</time></trkpt><trkpt lat="41.1310924" lon="-7.9226242"><ele>314.0</ele><time>2026-04-25T07:51:43.896Z</time></trkpt><trkpt lat="41.1309933" lon="-7.9226607"><ele>310.0</ele><time>2026-04-25T07:51:44.889Z</time></trkpt><trkpt lat="41.1309044" lon="-7.9227052"><ele>306.0</ele><time>2026-04-25T07:51:45.889Z</time></trkpt><trkpt lat="41.13082" lon="-7.9227576"><ele>302.0</ele><time>2026-04-25T07:51:46.892Z</time></trkpt><trkpt lat="41.1307419" lon="-7.9228129"><ele>303.4</ele><time>2026-04-25T07:51:47.898Z</time></trkpt><trkpt lat="41.1306045" lon="-7.9228824"><ele>304.79999999999995</ele><time>2026-04-25T07:51:49.891Z</time></trkpt><trkpt lat="41.1305425" lon="-7.9229007"><ele>306.2</ele><time>2026-04-25T07:51:50.887Z</time></trkpt><trkpt lat="41.1304808" lon="-7.9229228"><ele>307.59999999999997</ele><time>2026-04-25T07:51:51.891Z</time></trkpt><trkpt lat="41.1303792" lon="-7.9229891"><ele>309.0</ele><time>2026-04-25T07:51:53.894Z</time></trkpt><trkpt lat="41.1302948" lon="-7.9231049"><ele>309.00000000000006</ele><time>2026-04-25T07:51:55.89Z</time></trkpt><trkpt lat="41.1302607" lon="-7.9231774"><ele>309.0</ele><time>2026-04-25T07:51:56.896Z</time></trkpt><trkpt lat="41.1302111" lon="-7.9232451"><ele>309.0</ele><time>2026-04-25T07:51:57.893Z</time></trkpt><trkpt lat="41.1301524" lon="-7.9232997"><ele>309.0</ele><time>2026-04-25T07:51:58.891Z</time></trkpt><trkpt lat="41.130081" lon="-7.9233417"><ele>309.0</ele><time>2026-04-25T07:51:59.889Z</time></trkpt><trkpt lat="41.1300016" lon="-7.9233785"><ele>309.00000000000006</ele><time>2026-04-25T07:52:00.89Z</time></trkpt><trkpt lat="41.1299237" lon="-7.9233982"><ele>309.0</ele><time>2026-04-25T07:52:01.889Z</time></trkpt><trkpt lat="41.1298555" lon="-7.9234085"><ele>304.0</ele><time>2026-04-25T07:52:02.889Z</time></trkpt><trkpt lat="41.1297915" lon="-7.9234111"><ele>299.0</ele><time>2026-04-25T07:52:03.888Z</time></trkpt><trkpt lat="41.1296779" lon="-7.9234328"><ele>294.0</ele><time>2026-04-25T07:52:05.889Z</time></trkpt><trkpt lat="41.1295632" lon="-7.9234904"><ele>289.0</ele><time>2026-04-25T07:52:07.895Z</time></trkpt><trkpt lat="41.1295087" lon="-7.923536"><ele>284.0</ele><time>2026-04-25T07:52:08.888Z</time></trkpt><trkpt lat="41.1293909" lon="-7.923622"><ele>284.0</ele><time>2026-04-25T07:52:10.893Z</time></trkpt><trkpt lat="41.1293266" lon="-7.9236515"><ele>284.0</ele><time>2026-04-25T07:52:11.892Z</time></trkpt><trkpt lat="41.1292645" lon="-7.9236719"><ele>284.0</ele><time>2026-04-25T07:52:12.888Z</time></trkpt><trkpt lat="41.1291405" lon="-7.9236811"><ele>284.0</ele><time>2026-04-25T07:52:14.893Z</time></trkpt><trkpt lat="41.1290708" lon="-7.9236733"><ele>284.0</ele><time>2026-04-25T07:52:15.893Z</time></trkpt><trkpt lat="41.1290004" lon="-7.9236582"><ele>284.0</ele><time>2026-04-25T07:52:16.891Z</time></trkpt><trkpt lat="41.1289281" lon="-7.9236516"><ele>284.6666666666667</ele><time>2026-04-25T07:52:17.889Z</time></trkpt><trkpt lat="41.1288563" lon="-7.9236454"><ele>285.33333333333337</ele><time>2026-04-25T07:52:18.888Z</time></trkpt><trkpt lat="41.1287857" lon="-7.9236451"><ele>286.0</ele><time>2026-04-25T07:52:19.894Z</time></trkpt><trkpt lat="41.1287158" lon="-7.9236516"><ele>286.6666666666667</ele><time>2026-04-25T07:52:20.89Z</time></trkpt><trkpt lat="41.1286086" lon="-7.923683"><ele>287.3333333333333</ele><time>2026-04-25T07:52:22.896Z</time></trkpt><trkpt lat="41.1285167" lon="-7.9237274"><ele>288.0</ele><time>2026-04-25T07:52:24.897Z</time></trkpt><trkpt lat="41.1284109" lon="-7.9238116"><ele>288.0</ele><time>2026-04-25T07:52:26.891Z</time></trkpt><trkpt lat="41.1283602" lon="-7.9238647"><ele>288.0</ele><time>2026-04-25T07:52:27.89Z</time></trkpt><trkpt lat="41.1283145" lon="-7.9239225"><ele>288.0</ele><time>2026-04-25T07:52:28.905Z</time></trkpt><trkpt lat="41.1282521" lon="-7.9240273"><ele>288.0</ele><time>2026-04-25T07:52:30.889Z</time></trkpt><trkpt lat="41.1281376" lon="-7.9241851"><ele>288.0</ele><time>2026-04-25T07:52:34.893Z</time></trkpt><trkpt lat="41.1280505" lon="-7.9242586"><ele>286.8333333333333</ele><time>2026-04-25T07:52:36.899Z</time></trkpt><trkpt lat="41.1279936" lon="-7.9242965"><ele>285.6666666666667</ele><time>2026-04-25T07:52:37.885Z</time></trkpt><trkpt lat="41.1279378" lon="-7.9243481"><ele>284.5</ele><time>2026-04-25T07:52:38.894Z</time></trkpt><trkpt lat="41.1278842" lon="-7.9244501"><ele>283.33333333333337</ele><time>2026-04-25T07:52:40.893Z</time></trkpt><trkpt lat="41.1278222" lon="-7.9245197"><ele>282.1666666666667</ele><time>2026-04-25T07:52:42.889Z</time></trkpt><trkpt lat="41.1277434" lon="-7.9245896"><ele>281.0</ele><time>2026-04-25T07:52:44.884Z</time></trkpt><trkpt lat="41.1276878" lon="-7.9246967"><ele>281.0</ele><time>2026-04-25T07:52:46.889Z</time></trkpt><trkpt lat="41.1276582" lon="-7.9248068"><ele>281.0</ele><time>2026-04-25T07:52:48.89Z</time></trkpt><trkpt lat="41.1276235" lon="-7.9249034"><ele>281.0</ele><time>2026-04-25T07:52:50.889Z</time></trkpt><trkpt lat="41.1275781" lon="-7.9249993"><ele>281.0</ele><time>2026-04-25T07:52:52.895Z</time></trkpt><trkpt lat="41.1274316" lon="-7.9250743"><ele>281.0</ele><time>2026-04-25T07:52:57.891Z</time></trkpt><trkpt lat="41.1273242" lon="-7.9250472"><ele>278.83333333333337</ele><time>2026-04-25T07:52:59.899Z</time></trkpt><trkpt lat="41.1272591" lon="-7.9250376"><ele>276.6666666666667</ele><time>2026-04-25T07:53:00.902Z</time></trkpt><trkpt lat="41.1271948" lon="-7.9250259"><ele>274.5</ele><time>2026-04-25T07:53:01.888Z</time></trkpt><trkpt lat="41.1271289" lon="-7.925019"><ele>272.3333333333333</ele><time>2026-04-25T07:53:02.898Z</time></trkpt><trkpt lat="41.1270065" lon="-7.9250065"><ele>270.16666666666663</ele><time>2026-04-25T07:53:04.891Z</time></trkpt><trkpt lat="41.1268824" lon="-7.9250103"><ele>268.0</ele><time>2026-04-25T07:53:06.89Z</time></trkpt><trkpt lat="41.1268064" lon="-7.9250136"><ele>268.0</ele><time>2026-04-25T07:53:07.89Z</time></trkpt><trkpt lat="41.1267219" lon="-7.9250254"><ele>268.0</ele><time>2026-04-25T07:53:08.893Z</time></trkpt><trkpt lat="41.1266367" lon="-7.9250399"><ele>268.0</ele><time>2026-04-25T07:53:09.897Z</time></trkpt><trkpt lat="41.1265567" lon="-7.9250536"><ele>268.0</ele><time>2026-04-25T07:53:10.893Z</time></trkpt><trkpt lat="41.1264829" lon="-7.9250657"><ele>268.0</ele><time>2026-04-25T07:53:11.896Z</time></trkpt><trkpt lat="41.1264189" lon="-7.9250809"><ele>268.0</ele><time>2026-04-25T07:53:12.888Z</time></trkpt><trkpt lat="41.1263184" lon="-7.9251179"><ele>263.25</ele><time>2026-04-25T07:53:14.893Z</time></trkpt><trkpt lat="41.1261844" lon="-7.9252223"><ele>258.5</ele><time>2026-04-25T07:53:18.89Z</time></trkpt><trkpt lat="41.1261428" lon="-7.925338"><ele>253.75</ele><time>2026-04-25T07:53:20.892Z</time></trkpt><trkpt lat="41.1261177" lon="-7.9254871"><ele>249.0</ele><time>2026-04-25T07:53:22.893Z</time></trkpt><trkpt lat="41.1261054" lon="-7.9256418"><ele>249.0</ele><time>2026-04-25T07:53:24.889Z</time></trkpt><trkpt lat="41.1260769" lon="-7.9257874"><ele>249.0</ele><time>2026-04-25T07:53:26.888Z</time></trkpt><trkpt lat="41.1260056" lon="-7.9259181"><ele>249.0</ele><time>2026-04-25T07:53:28.885Z</time></trkpt><trkpt lat="41.12596" lon="-7.9259788"><ele>249.0</ele><time>2026-04-25T07:53:29.895Z</time></trkpt><trkpt lat="41.1259054" lon="-7.9260409"><ele>249.0</ele><time>2026-04-25T07:53:30.892Z</time></trkpt><trkpt lat="41.1258459" lon="-7.9261023"><ele>249.0</ele><time>2026-04-25T07:53:31.894Z</time></trkpt><trkpt lat="41.1257909" lon="-7.9261658"><ele>248.0</ele><time>2026-04-25T07:53:32.891Z</time></trkpt><trkpt lat="41.1257429" lon="-7.9262364"><ele>247.0</ele><time>2026-04-25T07:53:33.89Z</time></trkpt><trkpt lat="41.1257013" lon="-7.9263112"><ele>246.0</ele><time>2026-04-25T07:53:34.892Z</time></trkpt><trkpt lat="41.125666" lon="-7.9263837"><ele>245.0</ele><time>2026-04-25T07:53:35.887Z</time></trkpt><trkpt lat="41.1256072" lon="-7.9265357"><ele>244.0</ele><time>2026-04-25T07:53:37.892Z</time></trkpt><trkpt lat="41.1255892" lon="-7.9266169"><ele>243.0</ele><time>2026-04-25T07:53:38.888Z</time></trkpt><trkpt lat="41.1255738" lon="-7.9267013"><ele>240.0</ele><time>2026-04-25T07:53:39.901Z</time></trkpt><trkpt lat="41.1255727" lon="-7.9268692"><ele>237.0</ele><time>2026-04-25T07:53:41.889Z</time></trkpt><trkpt lat="41.1255901" lon="-7.9269576"><ele>234.0</ele><time>2026-04-25T07:53:42.891Z</time></trkpt><trkpt lat="41.1256167" lon="-7.9270389"><ele>231.0</ele><time>2026-04-25T07:53:43.89Z</time></trkpt><trkpt lat="41.1256522" lon="-7.9271154"><ele>228.0</ele><time>2026-04-25T07:53:44.903Z</time></trkpt><trkpt lat="41.1256868" lon="-7.9271926"><ele>225.0</ele><time>2026-04-25T07:53:45.893Z</time></trkpt><trkpt lat="41.1257224" lon="-7.9272663"><ele>225.83333333333334</ele><time>2026-04-25T07:53:46.891Z</time></trkpt><trkpt lat="41.1257598" lon="-7.9273393"><ele>226.66666666666669</ele><time>2026-04-25T07:53:47.895Z</time></trkpt><trkpt lat="41.1257948" lon="-7.9274145"><ele>227.5</ele><time>2026-04-25T07:53:48.888Z</time></trkpt><trkpt lat="41.1258101" lon="-7.9275619"><ele>228.33333333333334</ele><time>2026-04-25T07:53:50.891Z</time></trkpt><trkpt lat="41.1257683" lon="-7.9276994"><ele>229.16666666666669</ele><time>2026-04-25T07:53:52.89Z</time></trkpt><trkpt lat="41.1257321" lon="-7.9277882"><ele>230.0</ele><time>2026-04-25T07:53:54.892Z</time></trkpt><trkpt lat="41.1256812" lon="-7.9278447"><ele>225.75</ele><time>2026-04-25T07:53:57.887Z</time></trkpt><trkpt lat="41.1255122" lon="-7.9278624"><ele>221.5</ele><time>2026-04-25T07:54:01.892Z</time></trkpt><trkpt lat="41.1254311" lon="-7.9278742"><ele>217.25</ele><time>2026-04-25T07:54:03.891Z</time></trkpt><trkpt lat="41.1253148" lon="-7.9278553"><ele>213.0</ele><time>2026-04-25T07:54:05.892Z</time></trkpt><trkpt lat="41.1251867" lon="-7.9278185"><ele>213.0</ele><time>2026-04-25T07:54:07.893Z</time></trkpt><trkpt lat="41.1251135" lon="-7.9278017"><ele>213.0</ele><time>2026-04-25T07:54:08.892Z</time></trkpt><trkpt lat="41.1250349" lon="-7.9277843"><ele>213.0</ele><time>2026-04-25T07:54:09.887Z</time></trkpt><trkpt lat="41.1249493" lon="-7.9277713"><ele>213.0</ele><time>2026-04-25T07:54:10.891Z</time></trkpt><trkpt lat="41.1248653" lon="-7.9277593"><ele>213.0</ele><time>2026-04-25T07:54:11.901Z</time></trkpt><trkpt lat="41.1247829" lon="-7.9277503"><ele>213.0</ele><time>2026-04-25T07:54:12.891Z</time></trkpt><trkpt lat="41.1247009" lon="-7.9277454"><ele>213.60000000000002</ele><time>2026-04-25T07:54:13.894Z</time></trkpt><trkpt lat="41.1246241" lon="-7.9277378"><ele>214.20000000000002</ele><time>2026-04-25T07:54:14.887Z</time></trkpt><trkpt lat="41.1245475" lon="-7.9277315"><ele>214.8</ele><time>2026-04-25T07:54:15.887Z</time></trkpt><trkpt lat="41.1244819" lon="-7.9277298"><ele>215.4</ele><time>2026-04-25T07:54:16.89Z</time></trkpt><trkpt lat="41.1243766" lon="-7.9277492"><ele>216.0</ele><time>2026-04-25T07:54:18.891Z</time></trkpt><trkpt lat="41.1243702" lon="-7.927954"><ele>216.0</ele><time>2026-04-25T07:54:22.893Z</time></trkpt><trkpt lat="41.1243954" lon="-7.9280934"><ele>216.0</ele><time>2026-04-25T07:54:24.888Z</time></trkpt><trkpt lat="41.1243943" lon="-7.9282535"><ele>216.0</ele><time>2026-04-25T07:54:26.895Z</time></trkpt><trkpt lat="41.1244014" lon="-7.9283443"><ele>216.0</ele><time>2026-04-25T07:54:27.886Z</time></trkpt><trkpt lat="41.1244241" lon="-7.9284335"><ele>216.0</ele><time>2026-04-25T07:54:28.89Z</time></trkpt><trkpt lat="41.1244504" lon="-7.9285157"><ele>216.0</ele><time>2026-04-25T07:54:29.893Z</time></trkpt><trkpt lat="41.1244809" lon="-7.9285958"><ele>216.0</ele><time>2026-04-25T07:54:30.891Z</time></trkpt><trkpt lat="41.1245159" lon="-7.9286761"><ele>216.00000000000003</ele><time>2026-04-25T07:54:31.892Z</time></trkpt><trkpt lat="41.1245546" lon="-7.9287467"><ele>216.00000000000003</ele><time>2026-04-25T07:54:32.889Z</time></trkpt><trkpt lat="41.1246322" lon="-7.9288571"><ele>216.0</ele><time>2026-04-25T07:54:34.895Z</time></trkpt><trkpt lat="41.1246735" lon="-7.9289767"><ele>216.0</ele><time>2026-04-25T07:54:36.895Z</time></trkpt><trkpt lat="41.124696" lon="-7.929143"><ele>214.4</ele><time>2026-04-25T07:54:38.899Z</time></trkpt><trkpt lat="41.1247084" lon="-7.9292334"><ele>212.8</ele><time>2026-04-25T07:54:39.891Z</time></trkpt><trkpt lat="41.1247502" lon="-7.9294295"><ele>211.20000000000002</ele><time>2026-04-25T07:54:41.896Z</time></trkpt><trkpt lat="41.1247749" lon="-7.9295369"><ele>209.60000000000002</ele><time>2026-04-25T07:54:42.892Z</time></trkpt><trkpt lat="41.1248053" lon="-7.9296464"><ele>208.0</ele><time>2026-04-25T07:54:43.891Z</time></trkpt><trkpt lat="41.124841" lon="-7.9297451"><ele>208.0</ele><time>2026-04-25T07:54:44.888Z</time></trkpt><trkpt lat="41.1248772" lon="-7.9298328"><ele>208.0</ele><time>2026-04-25T07:54:45.892Z</time></trkpt><trkpt lat="41.1249165" lon="-7.9299116"><ele>208.0</ele><time>2026-04-25T07:54:46.888Z</time></trkpt><trkpt lat="41.1249468" lon="-7.9299986"><ele>208.0</ele><time>2026-04-25T07:54:47.889Z</time></trkpt><trkpt lat="41.1249629" lon="-7.9300821"><ele>208.0</ele><time>2026-04-25T07:54:48.897Z</time></trkpt><trkpt lat="41.1249693" lon="-7.9301672"><ele>208.0</ele><time>2026-04-25T07:54:49.889Z</time></trkpt><trkpt lat="41.124969" lon="-7.930254"><ele>208.0</ele><time>2026-04-25T07:54:50.893Z</time></trkpt><trkpt lat="41.1249666" lon="-7.9303376"><ele>203.83333333333331</ele><time>2026-04-25T07:54:51.896Z</time></trkpt><trkpt lat="41.1249648" lon="-7.9304227"><ele>199.66666666666666</ele><time>2026-04-25T07:54:52.887Z</time></trkpt><trkpt lat="41.1249692" lon="-7.9305072"><ele>195.5</ele><time>2026-04-25T07:54:53.893Z</time></trkpt><trkpt lat="41.1249674" lon="-7.9306714"><ele>191.33333333333331</ele><time>2026-04-25T07:54:55.901Z</time></trkpt><trkpt lat="41.1249542" lon="-7.9308381"><ele>187.16666666666666</ele><time>2026-04-25T07:54:57.889Z</time></trkpt><trkpt lat="41.1249342" lon="-7.9309269"><ele>183.0</ele><time>2026-04-25T07:54:58.886Z</time></trkpt><trkpt lat="41.1249115" lon="-7.9310183"><ele>182.25</ele><time>2026-04-25T07:54:59.894Z</time></trkpt><trkpt lat="41.1248923" lon="-7.9311082"><ele>181.5</ele><time>2026-04-25T07:55:00.894Z</time></trkpt><trkpt lat="41.1248532" lon="-7.9313462"><ele>180.75</ele><time>2026-04-25T07:55:03.9Z</time></trkpt><trkpt lat="41.1247874" lon="-7.9314566"><ele>180.0</ele><time>2026-04-25T07:55:05.892Z</time></trkpt><trkpt lat="41.1247111" lon="-7.9315521"><ele>180.0</ele><time>2026-04-25T07:55:07.887Z</time></trkpt><trkpt lat="41.1246618" lon="-7.931658"><ele>180.0</ele><time>2026-04-25T07:55:09.899Z</time></trkpt><trkpt lat="41.1246572" lon="-7.9317754"><ele>180.0</ele><time>2026-04-25T07:55:11.888Z</time></trkpt><trkpt lat="41.124697" lon="-7.931923"><ele>180.0</ele><time>2026-04-25T07:55:13.892Z</time></trkpt><trkpt lat="41.1247319" lon="-7.9320091"><ele>180.0</ele><time>2026-04-25T07:55:14.886Z</time></trkpt><trkpt lat="41.1247697" lon="-7.9321089"><ele>179.5</ele><time>2026-04-25T07:55:15.887Z</time></trkpt><trkpt lat="41.1248065" lon="-7.9322069"><ele>179.0</ele><time>2026-04-25T07:55:16.889Z</time></trkpt><trkpt lat="41.1248469" lon="-7.9322919"><ele>178.5</ele><time>2026-04-25T07:55:17.89Z</time></trkpt><trkpt lat="41.1249023" lon="-7.9323587"><ele>178.0</ele><time>2026-04-25T07:55:18.896Z</time></trkpt><trkpt lat="41.1249715" lon="-7.9324055"><ele>177.5</ele><time>2026-04-25T07:55:19.897Z</time></trkpt><trkpt lat="41.1250499" lon="-7.9324391"><ele>177.0</ele><time>2026-04-25T07:55:20.889Z</time></trkpt><trkpt lat="41.1251357" lon="-7.9324703"><ele>178.8</ele><time>2026-04-25T07:55:21.9Z</time></trkpt><trkpt lat="41.1252988" lon="-7.9325346"><ele>180.6</ele><time>2026-04-25T07:55:23.891Z</time></trkpt><trkpt lat="41.1253779" lon="-7.9325689"><ele>182.4</ele><time>2026-04-25T07:55:24.897Z</time></trkpt><trkpt lat="41.1254612" lon="-7.9326025"><ele>184.20000000000002</ele><time>2026-04-25T07:55:25.89Z</time></trkpt><trkpt lat="41.1255376" lon="-7.9326461"><ele>186.0</ele><time>2026-04-25T07:55:26.888Z</time></trkpt><trkpt lat="41.1256021" lon="-7.9327091"><ele>186.33333333333334</ele><time>2026-04-25T07:55:27.898Z</time></trkpt><trkpt lat="41.1256588" lon="-7.9327828"><ele>186.66666666666666</ele><time>2026-04-25T07:55:28.887Z</time></trkpt><trkpt lat="41.1257039" lon="-7.9328742"><ele>187.0</ele><time>2026-04-25T07:55:29.886Z</time></trkpt><trkpt lat="41.1257267" lon="-7.9329866"><ele>187.33333333333331</ele><time>2026-04-25T07:55:30.893Z</time></trkpt><trkpt lat="41.125734" lon="-7.9331056"><ele>187.66666666666666</ele><time>2026-04-25T07:55:31.891Z</time></trkpt><trkpt lat="41.1257346" lon="-7.9332278"><ele>188.0</ele><time>2026-04-25T07:55:32.893Z</time></trkpt><trkpt lat="41.1257264" lon="-7.9333468"><ele>184.4</ele><time>2026-04-25T07:55:33.903Z</time></trkpt><trkpt lat="41.1257061" lon="-7.9334642"><ele>180.8</ele><time>2026-04-25T07:55:34.893Z</time></trkpt><trkpt lat="41.1256693" lon="-7.9335861"><ele>177.2</ele><time>2026-04-25T07:55:35.889Z</time></trkpt><trkpt lat="41.1256235" lon="-7.9337023"><ele>173.6</ele><time>2026-04-25T07:55:36.895Z</time></trkpt><trkpt lat="41.1255666" lon="-7.9338169"><ele>170.0</ele><time>2026-04-25T07:55:37.891Z</time></trkpt><trkpt lat="41.1255015" lon="-7.9339255"><ele>170.0</ele><time>2026-04-25T07:55:38.892Z</time></trkpt><trkpt lat="41.1254349" lon="-7.9340236"><ele>170.0</ele><time>2026-04-25T07:55:39.889Z</time></trkpt><trkpt lat="41.1253647" lon="-7.9341166"><ele>170.0</ele><time>2026-04-25T07:55:40.889Z</time></trkpt><trkpt lat="41.1252904" lon="-7.9342047"><ele>170.0</ele><time>2026-04-25T07:55:41.887Z</time></trkpt><trkpt lat="41.125209" lon="-7.9342837"><ele>170.0</ele><time>2026-04-25T07:55:42.887Z</time></trkpt><trkpt lat="41.1250103" lon="-7.9344016"><ele>167.5</ele><time>2026-04-25T07:55:44.886Z</time></trkpt><trkpt lat="41.12491" lon="-7.9344304"><ele>165.0</ele><time>2026-04-25T07:55:45.894Z</time></trkpt><trkpt lat="41.1248187" lon="-7.9344481"><ele>162.5</ele><time>2026-04-25T07:55:46.895Z</time></trkpt><trkpt lat="41.1247344" lon="-7.9344611"><ele>160.0</ele><time>2026-04-25T07:55:47.889Z</time></trkpt><trkpt lat="41.1246544" lon="-7.934481"><ele>157.5</ele><time>2026-04-25T07:55:48.891Z</time></trkpt><trkpt lat="41.1245764" lon="-7.9345146"><ele>155.0</ele><time>2026-04-25T07:55:49.897Z</time></trkpt><trkpt lat="41.1245114" lon="-7.9345543"><ele>155.0</ele><time>2026-04-25T07:55:50.895Z</time></trkpt><trkpt lat="41.1244582" lon="-7.9346488"><ele>155.0</ele><time>2026-04-25T07:55:52.89Z</time></trkpt><trkpt lat="41.1245315" lon="-7.934734"><ele>155.0</ele><time>2026-04-25T07:55:54.892Z</time></trkpt><trkpt lat="41.124662" lon="-7.9347319"><ele>155.0</ele><time>2026-04-25T07:55:56.891Z</time></trkpt><trkpt lat="41.124738" lon="-7.934728"><ele>155.0</ele><time>2026-04-25T07:55:57.889Z</time></trkpt><trkpt lat="41.1248093" lon="-7.9347427"><ele>155.0</ele><time>2026-04-25T07:55:58.894Z</time></trkpt><trkpt lat="41.1248635" lon="-7.9348003"><ele>155.0</ele><time>2026-04-25T07:55:59.897Z</time></trkpt><trkpt lat="41.1248943" lon="-7.9348899"><ele>155.0</ele><time>2026-04-25T07:56:00.887Z</time></trkpt><trkpt lat="41.1249108" lon="-7.9349929"><ele>155.0</ele><time>2026-04-25T07:56:01.889Z</time></trkpt><trkpt lat="41.1249105" lon="-7.9350978"><ele>155.0</ele><time>2026-04-25T07:56:02.888Z</time></trkpt><trkpt lat="41.1248963" lon="-7.9351983"><ele>155.0</ele><time>2026-04-25T07:56:03.893Z</time></trkpt><trkpt lat="41.1247965" lon="-7.9353675"><ele>152.0</ele><time>2026-04-25T07:56:05.903Z</time></trkpt><trkpt lat="41.1247117" lon="-7.9354496"><ele>149.0</ele><time>2026-04-25T07:56:06.886Z</time></trkpt><trkpt lat="41.1246252" lon="-7.9355385"><ele>146.0</ele><time>2026-04-25T07:56:07.892Z</time></trkpt><trkpt lat="41.1245392" lon="-7.9356299"><ele>143.0</ele><time>2026-04-25T07:56:08.895Z</time></trkpt><trkpt lat="41.1244585" lon="-7.9357353"><ele>140.0</ele><time>2026-04-25T07:56:09.888Z</time></trkpt><trkpt lat="41.1243884" lon="-7.9358558"><ele>137.5</ele><time>2026-04-25T07:56:10.888Z</time></trkpt><trkpt lat="41.1243224" lon="-7.9359921"><ele>135.0</ele><time>2026-04-25T07:56:11.89Z</time></trkpt><trkpt lat="41.1242647" lon="-7.9361472"><ele>132.5</ele><time>2026-04-25T07:56:12.893Z</time></trkpt><trkpt lat="41.1242153" lon="-7.9363126"><ele>130.0</ele><time>2026-04-25T07:56:13.89Z</time></trkpt><trkpt lat="41.1241766" lon="-7.9364839"><ele>130.0</ele><time>2026-04-25T07:56:14.893Z</time></trkpt><trkpt lat="41.1241463" lon="-7.9366585"><ele>130.0</ele><time>2026-04-25T07:56:15.889Z</time></trkpt><trkpt lat="41.1241322" lon="-7.936836"><ele>130.0</ele><time>2026-04-25T07:56:16.897Z</time></trkpt><trkpt lat="41.1241433" lon="-7.9370083"><ele>130.0</ele><time>2026-04-25T07:56:17.894Z</time></trkpt><trkpt lat="41.1241656" lon="-7.9371662"><ele>130.4</ele><time>2026-04-25T07:56:18.887Z</time></trkpt><trkpt lat="41.1241892" lon="-7.9373102"><ele>130.8</ele><time>2026-04-25T07:56:19.89Z</time></trkpt><trkpt lat="41.1242031" lon="-7.9374432"><ele>131.2</ele><time>2026-04-25T07:56:20.885Z</time></trkpt><trkpt lat="41.1242009" lon="-7.9375759"><ele>131.6</ele><time>2026-04-25T07:56:21.891Z</time></trkpt><trkpt lat="41.1241852" lon="-7.9376991"><ele>132.0</ele><time>2026-04-25T07:56:22.887Z</time></trkpt><trkpt lat="41.1241649" lon="-7.937821"><ele>133.0</ele><time>2026-04-25T07:56:23.891Z</time></trkpt><trkpt lat="41.124155" lon="-7.9379365"><ele>134.0</ele><time>2026-04-25T07:56:24.894Z</time></trkpt><trkpt lat="41.1241884" lon="-7.9381552"><ele>135.0</ele><time>2026-04-25T07:56:26.888Z</time></trkpt><trkpt lat="41.1242123" lon="-7.9382666"><ele>136.0</ele><time>2026-04-25T07:56:27.891Z</time></trkpt><trkpt lat="41.1242408" lon="-7.938377"><ele>137.0</ele><time>2026-04-25T07:56:28.89Z</time></trkpt><trkpt lat="41.1242703" lon="-7.9384847"><ele>134.83333333333331</ele><time>2026-04-25T07:56:29.889Z</time></trkpt><trkpt lat="41.1242997" lon="-7.9385929"><ele>132.66666666666666</ele><time>2026-04-25T07:56:30.898Z</time></trkpt><trkpt lat="41.1243225" lon="-7.9387074"><ele>130.5</ele><time>2026-04-25T07:56:31.887Z</time></trkpt><trkpt lat="41.1243371" lon="-7.9388268"><ele>128.33333333333334</ele><time>2026-04-25T07:56:32.896Z</time></trkpt><trkpt lat="41.1243411" lon="-7.9389475"><ele>126.16666666666667</ele><time>2026-04-25T07:56:33.898Z</time></trkpt><trkpt lat="41.124339" lon="-7.9390659"><ele>124.0</ele><time>2026-04-25T07:56:34.888Z</time></trkpt><trkpt lat="41.1243339" lon="-7.9391873"><ele>121.0</ele><time>2026-04-25T07:56:35.885Z</time></trkpt><trkpt lat="41.1243252" lon="-7.9393072"><ele>118.0</ele><time>2026-04-25T07:56:36.892Z</time></trkpt><trkpt lat="41.1243159" lon="-7.9394275"><ele>115.0</ele><time>2026-04-25T07:56:37.891Z</time></trkpt><trkpt lat="41.1243027" lon="-7.9395501"><ele>112.0</ele><time>2026-04-25T07:56:38.896Z</time></trkpt><trkpt lat="41.1242825" lon="-7.9396683"><ele>109.0</ele><time>2026-04-25T07:56:39.888Z</time></trkpt><trkpt lat="41.1242461" lon="-7.939786"><ele>109.00000000000001</ele><time>2026-04-25T07:56:40.888Z</time></trkpt><trkpt lat="41.1242045" lon="-7.9398982"><ele>109.0</ele><time>2026-04-25T07:56:41.886Z</time></trkpt><trkpt lat="41.1241561" lon="-7.9399982"><ele>109.0</ele><time>2026-04-25T07:56:42.895Z</time></trkpt><trkpt lat="41.1240933" lon="-7.9400805"><ele>109.0</ele><time>2026-04-25T07:56:43.895Z</time></trkpt><trkpt lat="41.1240287" lon="-7.9401394"><ele>109.00000000000001</ele><time>2026-04-25T07:56:44.888Z</time></trkpt><trkpt lat="41.1239496" lon="-7.9401698"><ele>109.0</ele><time>2026-04-25T07:56:45.888Z</time></trkpt><trkpt lat="41.1238047" lon="-7.9401851"><ele>109.71428571428572</ele><time>2026-04-25T07:56:47.893Z</time></trkpt><trkpt lat="41.1237375" lon="-7.9401867"><ele>110.42857142857143</ele><time>2026-04-25T07:56:48.896Z</time></trkpt><trkpt lat="41.1236721" lon="-7.9401775"><ele>111.14285714285714</ele><time>2026-04-25T07:56:49.898Z</time></trkpt><trkpt lat="41.1236075" lon="-7.9401532"><ele>111.85714285714286</ele><time>2026-04-25T07:56:50.888Z</time></trkpt><trkpt lat="41.123541" lon="-7.9401179"><ele>112.57142857142856</ele><time>2026-04-25T07:56:51.887Z</time></trkpt><trkpt lat="41.1234624" lon="-7.9400841"><ele>113.28571428571428</ele><time>2026-04-25T07:56:52.89Z</time></trkpt><trkpt lat="41.1233821" lon="-7.9400571"><ele>114.0</ele><time>2026-04-25T07:56:53.892Z</time></trkpt><trkpt lat="41.1233009" lon="-7.9400489"><ele>105.33333333333333</ele><time>2026-04-25T07:56:54.889Z</time></trkpt><trkpt lat="41.1232232" lon="-7.9400556"><ele>96.66666666666667</ele><time>2026-04-25T07:56:55.889Z</time></trkpt><trkpt lat="41.1231484" lon="-7.9400658"><ele>88.0</ele><time>2026-04-25T07:56:56.889Z</time></trkpt><trkpt lat="41.1230685" lon="-7.940082"><ele>79.33333333333334</ele><time>2026-04-25T07:56:57.895Z</time></trkpt><trkpt lat="41.1229847" lon="-7.9401"><ele>70.66666666666667</ele><time>2026-04-25T07:56:58.891Z</time></trkpt><trkpt lat="41.1228988" lon="-7.9401223"><ele>62.0</ele><time>2026-04-25T07:56:59.892Z</time></trkpt><trkpt lat="41.1228161" lon="-7.940144"><ele>62.00000000000001</ele><time>2026-04-25T07:57:00.888Z</time></trkpt><trkpt lat="41.1227396" lon="-7.9401627"><ele>62.0</ele><time>2026-04-25T07:57:01.887Z</time></trkpt><trkpt lat="41.122662" lon="-7.940183"><ele>62.0</ele><time>2026-04-25T07:57:02.893Z</time></trkpt><trkpt lat="41.1225881" lon="-7.9401996"><ele>62.0</ele><time>2026-04-25T07:57:03.889Z</time></trkpt><trkpt lat="41.1225147" lon="-7.9402148"><ele>62.00000000000001</ele><time>2026-04-25T07:57:04.888Z</time></trkpt><trkpt lat="41.1224371" lon="-7.9402345"><ele>62.0</ele><time>2026-04-25T07:57:05.895Z</time></trkpt><trkpt lat="41.1223558" lon="-7.9402533"><ele>62.75</ele><time>2026-04-25T07:57:06.893Z</time></trkpt><trkpt lat="41.122176" lon="-7.9402904"><ele>63.5</ele><time>2026-04-25T07:57:08.895Z</time></trkpt><trkpt lat="41.1220883" lon="-7.9403118"><ele>64.25</ele><time>2026-04-25T07:57:09.893Z</time></trkpt><trkpt lat="41.1219945" lon="-7.9403327"><ele>65.0</ele><time>2026-04-25T07:57:10.89Z</time></trkpt><trkpt lat="41.121898" lon="-7.9403552"><ele>65.0</ele><time>2026-04-25T07:57:11.893Z</time></trkpt><trkpt lat="41.1217973" lon="-7.9403835"><ele>65.0</ele><time>2026-04-25T07:57:12.893Z</time></trkpt><trkpt lat="41.121693" lon="-7.9404141"><ele>65.0</ele><time>2026-04-25T07:57:13.893Z</time></trkpt><trkpt lat="41.1215851" lon="-7.9404458"><ele>65.0</ele><time>2026-04-25T07:57:14.889Z</time></trkpt><trkpt lat="41.1214737" lon="-7.9404728"><ele>65.0</ele><time>2026-04-25T07:57:15.892Z</time></trkpt><trkpt lat="41.1213616" lon="-7.9404984"><ele>74.4</ele><time>2026-04-25T07:57:16.891Z</time></trkpt><trkpt lat="41.121252" lon="-7.9405284"><ele>83.8</ele><time>2026-04-25T07:57:17.893Z</time></trkpt><trkpt lat="41.1211446" lon="-7.9405566"><ele>93.19999999999999</ele><time>2026-04-25T07:57:18.893Z</time></trkpt><trkpt lat="41.1210396" lon="-7.9405839"><ele>102.6</ele><time>2026-04-25T07:57:19.895Z</time></trkpt><trkpt lat="41.1209347" lon="-7.940611"><ele>112.0</ele><time>2026-04-25T07:57:20.888Z</time></trkpt><trkpt lat="41.1208321" lon="-7.9406391"><ele>115.19999999999999</ele><time>2026-04-25T07:57:21.889Z</time></trkpt><trkpt lat="41.1207263" lon="-7.9406709"><ele>118.39999999999999</ele><time>2026-04-25T07:57:22.892Z</time></trkpt><trkpt lat="41.1206194" lon="-7.940702"><ele>121.60000000000001</ele><time>2026-04-25T07:57:23.892Z</time></trkpt><trkpt lat="41.1205109" lon="-7.9407286"><ele>124.80000000000001</ele><time>2026-04-25T07:57:24.889Z</time></trkpt><trkpt lat="41.1204021" lon="-7.940754"><ele>128.0</ele><time>2026-04-25T07:57:25.889Z</time></trkpt><trkpt lat="41.1202971" lon="-7.94078"><ele>128.0</ele><time>2026-04-25T07:57:26.885Z</time></trkpt><trkpt lat="41.1201966" lon="-7.9408047"><ele>128.0</ele><time>2026-04-25T07:57:27.894Z</time></trkpt><trkpt lat="41.1199984" lon="-7.940851"><ele>128.0</ele><time>2026-04-25T07:57:29.893Z</time></trkpt><trkpt lat="41.1198947" lon="-7.9408831"><ele>128.0</ele><time>2026-04-25T07:57:30.892Z</time></trkpt><trkpt lat="41.1197909" lon="-7.9409091"><ele>137.60000000000002</ele><time>2026-04-25T07:57:31.9Z</time></trkpt><trkpt lat="41.1196874" lon="-7.9409333"><ele>147.20000000000002</ele><time>2026-04-25T07:57:32.891Z</time></trkpt><trkpt lat="41.1195859" lon="-7.9409518"><ele>156.8</ele><time>2026-04-25T07:57:33.898Z</time></trkpt><trkpt lat="41.1194857" lon="-7.9409723"><ele>166.4</ele><time>2026-04-25T07:57:34.9Z</time></trkpt><trkpt lat="41.1193891" lon="-7.9409879"><ele>176.0</ele><time>2026-04-25T07:57:35.89Z</time></trkpt><trkpt lat="41.1192976" lon="-7.9409949"><ele>176.0</ele><time>2026-04-25T07:57:36.889Z</time></trkpt><trkpt lat="41.1192046" lon="-7.9409953"><ele>176.0</ele><time>2026-04-25T07:57:37.888Z</time></trkpt><trkpt lat="41.1191075" lon="-7.9409732"><ele>176.0</ele><time>2026-04-25T07:57:38.891Z</time></trkpt><trkpt lat="41.1190066" lon="-7.9409345"><ele>176.0</ele><time>2026-04-25T07:57:39.89Z</time></trkpt><trkpt lat="41.1189123" lon="-7.9408673"><ele>176.0</ele><time>2026-04-25T07:57:40.891Z</time></trkpt><trkpt lat="41.1188326" lon="-7.9407711"><ele>175.0</ele><time>2026-04-25T07:57:41.894Z</time></trkpt><trkpt lat="41.1187696" lon="-7.9406608"><ele>174.0</ele><time>2026-04-25T07:57:42.894Z</time></trkpt><trkpt lat="41.1187256" lon="-7.9405339"><ele>173.0</ele><time>2026-04-25T07:57:43.895Z</time></trkpt><trkpt lat="41.1186968" lon="-7.9403914"><ele>172.0</ele><time>2026-04-25T07:57:44.888Z</time></trkpt><trkpt lat="41.1186795" lon="-7.9402411"><ele>171.0</ele><time>2026-04-25T07:57:45.888Z</time></trkpt><trkpt lat="41.1186687" lon="-7.9400844"><ele>166.66666666666666</ele><time>2026-04-25T07:57:46.89Z</time></trkpt><trkpt lat="41.1186792" lon="-7.939933"><ele>162.33333333333331</ele><time>2026-04-25T07:57:47.89Z</time></trkpt><trkpt lat="41.1186956" lon="-7.9397868"><ele>158.0</ele><time>2026-04-25T07:57:48.886Z</time></trkpt><trkpt lat="41.1187287" lon="-7.9394825"><ele>158.0</ele><time>2026-04-25T07:57:50.891Z</time></trkpt><trkpt lat="41.1187399" lon="-7.9393311"><ele>158.0</ele><time>2026-04-25T07:57:51.892Z</time></trkpt><trkpt lat="41.1187429" lon="-7.9391839"><ele>158.0</ele><time>2026-04-25T07:57:52.889Z</time></trkpt><trkpt lat="41.11873" lon="-7.9390485"><ele>158.0</ele><time>2026-04-25T07:57:53.888Z</time></trkpt><trkpt lat="41.1186916" lon="-7.9389347"><ele>158.0</ele><time>2026-04-25T07:57:54.896Z</time></trkpt><trkpt lat="41.11862" lon="-7.9388531"><ele>157.6</ele><time>2026-04-25T07:57:55.89Z</time></trkpt><trkpt lat="41.1185224" lon="-7.938814"><ele>157.20000000000002</ele><time>2026-04-25T07:57:56.896Z</time></trkpt><trkpt lat="41.118415" lon="-7.9388143"><ele>156.8</ele><time>2026-04-25T07:57:57.891Z</time></trkpt><trkpt lat="41.118302" lon="-7.9388416"><ele>156.4</ele><time>2026-04-25T07:57:58.893Z</time></trkpt><trkpt lat="41.1181965" lon="-7.9389004"><ele>156.0</ele><time>2026-04-25T07:57:59.888Z</time></trkpt><trkpt lat="41.1181064" lon="-7.9389929"><ele>164.0</ele><time>2026-04-25T07:58:00.889Z</time></trkpt><trkpt lat="41.1180534" lon="-7.9391252"><ele>172.0</ele><time>2026-04-25T07:58:01.89Z</time></trkpt><trkpt lat="41.1180305" lon="-7.9392758"><ele>180.0</ele><time>2026-04-25T07:58:02.895Z</time></trkpt><trkpt lat="41.118032" lon="-7.939431"><ele>188.0</ele><time>2026-04-25T07:58:03.902Z</time></trkpt><trkpt lat="41.1180513" lon="-7.9395837"><ele>189.0</ele><time>2026-04-25T07:58:04.892Z</time></trkpt><trkpt lat="41.1180766" lon="-7.9397429"><ele>190.0</ele><time>2026-04-25T07:58:05.892Z</time></trkpt><trkpt lat="41.1181011" lon="-7.9399048"><ele>191.0</ele><time>2026-04-25T07:58:06.889Z</time></trkpt><trkpt lat="41.1181325" lon="-7.9400633"><ele>192.0</ele><time>2026-04-25T07:58:07.886Z</time></trkpt><trkpt lat="41.1181732" lon="-7.9402204"><ele>196.0</ele><time>2026-04-25T07:58:08.897Z</time></trkpt><trkpt lat="41.1182126" lon="-7.9403731"><ele>200.0</ele><time>2026-04-25T07:58:09.889Z</time></trkpt><trkpt lat="41.1183087" lon="-7.9406749"><ele>204.0</ele><time>2026-04-25T07:58:11.886Z</time></trkpt><trkpt lat="41.1183667" lon="-7.9408245"><ele>200.75</ele><time>2026-04-25T07:58:12.888Z</time></trkpt><trkpt lat="41.1184227" lon="-7.9409789"><ele>197.5</ele><time>2026-04-25T07:58:13.891Z</time></trkpt><trkpt lat="41.1184813" lon="-7.9411342"><ele>194.25</ele><time>2026-04-25T07:58:14.895Z</time></trkpt><trkpt lat="41.118543" lon="-7.9412897"><ele>191.0</ele><time>2026-04-25T07:58:15.889Z</time></trkpt><trkpt lat="41.1186086" lon="-7.9414414"><ele>191.0</ele><time>2026-04-25T07:58:16.892Z</time></trkpt><trkpt lat="41.1186771" lon="-7.9415887"><ele>191.0</ele><time>2026-04-25T07:58:17.901Z</time></trkpt><trkpt lat="41.1187494" lon="-7.9417355"><ele>191.0</ele><time>2026-04-25T07:58:18.896Z</time></trkpt><trkpt lat="41.1188253" lon="-7.9418818"><ele>191.0</ele><time>2026-04-25T07:58:19.889Z</time></trkpt><trkpt lat="41.1189023" lon="-7.9420287"><ele>192.25</ele><time>2026-04-25T07:58:20.887Z</time></trkpt><trkpt lat="41.1189753" lon="-7.9421836"><ele>193.5</ele><time>2026-04-25T07:58:21.89Z</time></trkpt><trkpt lat="41.1190438" lon="-7.9423364"><ele>194.75</ele><time>2026-04-25T07:58:22.893Z</time></trkpt><trkpt lat="41.1191101" lon="-7.9424849"><ele>196.0</ele><time>2026-04-25T07:58:23.889Z</time></trkpt><trkpt lat="41.1191769" lon="-7.9426323"><ele>198.25</ele><time>2026-04-25T07:58:24.889Z</time></trkpt><trkpt lat="41.1192465" lon="-7.9427792"><ele>200.5</ele><time>2026-04-25T07:58:25.902Z</time></trkpt><trkpt lat="41.1193137" lon="-7.9429233"><ele>202.75</ele><time>2026-04-25T07:58:26.889Z</time></trkpt><trkpt lat="41.1193849" lon="-7.943064"><ele>205.0</ele><time>2026-04-25T07:58:27.893Z</time></trkpt><trkpt lat="41.1194531" lon="-7.9431993"><ele>205.0</ele><time>2026-04-25T07:58:28.89Z</time></trkpt><trkpt lat="41.1195146" lon="-7.9433358"><ele>205.0</ele><time>2026-04-25T07:58:29.897Z</time></trkpt><trkpt lat="41.1195611" lon="-7.9434761"><ele>205.0</ele><time>2026-04-25T07:58:30.89Z</time></trkpt><trkpt lat="41.1196092" lon="-7.9437647"><ele>206.0</ele><time>2026-04-25T07:58:32.89Z</time></trkpt><trkpt lat="41.1196104" lon="-7.9439146"><ele>207.0</ele><time>2026-04-25T07:58:33.892Z</time></trkpt><trkpt lat="41.1195983" lon="-7.9440683"><ele>208.0</ele><time>2026-04-25T07:58:34.89Z</time></trkpt><trkpt lat="41.119578" lon="-7.9442254"><ele>209.0</ele><time>2026-04-25T07:58:35.893Z</time></trkpt><trkpt lat="41.1195493" lon="-7.9443812"><ele>209.0</ele><time>2026-04-25T07:58:36.886Z</time></trkpt><trkpt lat="41.1195144" lon="-7.9445416"><ele>209.0</ele><time>2026-04-25T07:58:37.895Z</time></trkpt><trkpt lat="41.1194771" lon="-7.94471"><ele>209.0</ele><time>2026-04-25T07:58:38.9Z</time></trkpt><trkpt lat="41.119438" lon="-7.9448804"><ele>209.0</ele><time>2026-04-25T07:58:39.892Z</time></trkpt><trkpt lat="41.1193978" lon="-7.9450528"><ele>209.5</ele><time>2026-04-25T07:58:40.891Z</time></trkpt><trkpt lat="41.1193601" lon="-7.9452371"><ele>210.0</ele><time>2026-04-25T07:58:41.888Z</time></trkpt><trkpt lat="41.1193129" lon="-7.9454268"><ele>210.5</ele><time>2026-04-25T07:58:42.892Z</time></trkpt><trkpt lat="41.1192528" lon="-7.9456118"><ele>211.0</ele><time>2026-04-25T07:58:43.897Z</time></trkpt><trkpt lat="41.1192099" lon="-7.945812"><ele>209.75</ele><time>2026-04-25T07:58:44.891Z</time></trkpt><trkpt lat="41.1191738" lon="-7.9460047"><ele>208.5</ele><time>2026-04-25T07:58:45.891Z</time></trkpt><trkpt lat="41.1191377" lon="-7.9461933"><ele>207.25</ele><time>2026-04-25T07:58:46.894Z</time></trkpt><trkpt lat="41.1190908" lon="-7.9463852"><ele>206.0</ele><time>2026-04-25T07:58:47.896Z</time></trkpt><trkpt lat="41.1190388" lon="-7.9465682"><ele>212.0</ele><time>2026-04-25T07:58:48.891Z</time></trkpt><trkpt lat="41.1190018" lon="-7.9467306"><ele>218.0</ele><time>2026-04-25T07:58:49.889Z</time></trkpt><trkpt lat="41.1189688" lon="-7.9468827"><ele>224.0</ele><time>2026-04-25T07:58:50.89Z</time></trkpt><trkpt lat="41.1189216" lon="-7.9470186"><ele>230.0</ele><time>2026-04-25T07:58:51.889Z</time></trkpt><trkpt lat="41.1188157" lon="-7.9472709"><ele>230.0</ele><time>2026-04-25T07:58:53.89Z</time></trkpt><trkpt lat="41.1187415" lon="-7.9473858"><ele>230.0</ele><time>2026-04-25T07:58:54.889Z</time></trkpt><trkpt lat="41.1186516" lon="-7.9475051"><ele>230.0</ele><time>2026-04-25T07:58:55.894Z</time></trkpt><trkpt lat="41.1185558" lon="-7.9476049"><ele>230.0</ele><time>2026-04-25T07:58:56.889Z</time></trkpt><trkpt lat="41.1184648" lon="-7.9476894"><ele>228.4</ele><time>2026-04-25T07:58:57.9Z</time></trkpt><trkpt lat="41.1183801" lon="-7.9477556"><ele>226.8</ele><time>2026-04-25T07:58:58.892Z</time></trkpt><trkpt lat="41.1182977" lon="-7.9478029"><ele>225.2</ele><time>2026-04-25T07:58:59.891Z</time></trkpt><trkpt lat="41.1182129" lon="-7.947841"><ele>223.6</ele><time>2026-04-25T07:59:00.902Z</time></trkpt><trkpt lat="41.1181247" lon="-7.9478768"><ele>222.0</ele><time>2026-04-25T07:59:01.893Z</time></trkpt><trkpt lat="41.1180287" lon="-7.9479104"><ele>222.0</ele><time>2026-04-25T07:59:02.889Z</time></trkpt><trkpt lat="41.1179264" lon="-7.9479376"><ele>222.0</ele><time>2026-04-25T07:59:03.894Z</time></trkpt><trkpt lat="41.1178204" lon="-7.9479682"><ele>222.0</ele><time>2026-04-25T07:59:04.891Z</time></trkpt><trkpt lat="41.1177139" lon="-7.9479988"><ele>222.0</ele><time>2026-04-25T07:59:05.887Z</time></trkpt><trkpt lat="41.117612" lon="-7.9480256"><ele>222.0</ele><time>2026-04-25T07:59:06.891Z</time></trkpt><trkpt lat="41.1175147" lon="-7.9480513"><ele>222.0</ele><time>2026-04-25T07:59:07.893Z</time></trkpt><trkpt lat="41.1174164" lon="-7.9480771"><ele>222.0</ele><time>2026-04-25T07:59:08.89Z</time></trkpt><trkpt lat="41.1173151" lon="-7.9481091"><ele>222.0</ele><time>2026-04-25T07:59:09.889Z</time></trkpt><trkpt lat="41.1172099" lon="-7.9481412"><ele>222.0</ele><time>2026-04-25T07:59:10.893Z</time></trkpt><trkpt lat="41.1171048" lon="-7.9481755"><ele>222.0</ele><time>2026-04-25T07:59:11.891Z</time></trkpt><trkpt lat="41.1169972" lon="-7.9482237"><ele>228.0</ele><time>2026-04-25T07:59:12.887Z</time></trkpt><trkpt lat="41.1167815" lon="-7.9483332"><ele>234.0</ele><time>2026-04-25T07:59:14.899Z</time></trkpt><trkpt lat="41.1166773" lon="-7.9484017"><ele>240.0</ele><time>2026-04-25T07:59:15.891Z</time></trkpt><trkpt lat="41.1165844" lon="-7.9484812"><ele>248.25</ele><time>2026-04-25T07:59:16.892Z</time></trkpt><trkpt lat="41.1165054" lon="-7.94859"><ele>256.5</ele><time>2026-04-25T07:59:17.897Z</time></trkpt><trkpt lat="41.1164439" lon="-7.9487263"><ele>264.75</ele><time>2026-04-25T07:59:18.895Z</time></trkpt><trkpt lat="41.1163992" lon="-7.9488827"><ele>273.0</ele><time>2026-04-25T07:59:19.889Z</time></trkpt><trkpt lat="41.1163642" lon="-7.9490412"><ele>273.0</ele><time>2026-04-25T07:59:20.894Z</time></trkpt><trkpt lat="41.1163294" lon="-7.9492027"><ele>273.0</ele><time>2026-04-25T07:59:21.892Z</time></trkpt><trkpt lat="41.116292" lon="-7.9493657"><ele>273.0</ele><time>2026-04-25T07:59:22.892Z</time></trkpt><trkpt lat="41.116243" lon="-7.9495265"><ele>273.0</ele><time>2026-04-25T07:59:23.899Z</time></trkpt><trkpt lat="41.1161855" lon="-7.9496848"><ele>269.5</ele><time>2026-04-25T07:59:24.888Z</time></trkpt><trkpt lat="41.1161124" lon="-7.9498319"><ele>266.0</ele><time>2026-04-25T07:59:25.889Z</time></trkpt><trkpt lat="41.1160173" lon="-7.9499744"><ele>262.5</ele><time>2026-04-25T07:59:26.889Z</time></trkpt><trkpt lat="41.1159102" lon="-7.9500946"><ele>259.0</ele><time>2026-04-25T07:59:27.888Z</time></trkpt><trkpt lat="41.1157798" lon="-7.9501804"><ele>261.0</ele><time>2026-04-25T07:59:28.887Z</time></trkpt><trkpt lat="41.115617" lon="-7.9502571"><ele>263.0</ele><time>2026-04-25T07:59:29.89Z</time></trkpt><trkpt lat="41.1154529" lon="-7.9503073"><ele>265.0</ele><time>2026-04-25T07:59:30.897Z</time></trkpt><trkpt lat="41.1152854" lon="-7.9503531"><ele>265.0</ele><time>2026-04-25T07:59:31.891Z</time></trkpt><trkpt lat="41.1151282" lon="-7.9504005"><ele>265.0</ele><time>2026-04-25T07:59:32.885Z</time></trkpt><trkpt lat="41.1149886" lon="-7.9504478"><ele>265.0</ele><time>2026-04-25T07:59:33.888Z</time></trkpt><trkpt lat="41.1147352" lon="-7.9505281"><ele>266.0</ele><time>2026-04-25T07:59:35.888Z</time></trkpt><trkpt lat="41.1146221" lon="-7.9505651"><ele>267.0</ele><time>2026-04-25T07:59:36.885Z</time></trkpt><trkpt lat="41.1144999" lon="-7.9505898"><ele>268.0</ele><time>2026-04-25T07:59:37.888Z</time></trkpt><trkpt lat="41.1143679" lon="-7.9506372"><ele>269.0</ele><time>2026-04-25T07:59:38.888Z</time></trkpt><trkpt lat="41.114236" lon="-7.9506813"><ele>269.0</ele><time>2026-04-25T07:59:39.887Z</time></trkpt><trkpt lat="41.1141197" lon="-7.9507051"><ele>269.0</ele><time>2026-04-25T07:59:40.89Z</time></trkpt><trkpt lat="41.1140284" lon="-7.9507261"><ele>269.0</ele><time>2026-04-25T07:59:41.898Z</time></trkpt><trkpt lat="41.1139451" lon="-7.9507425"><ele>269.0</ele><time>2026-04-25T07:59:42.888Z</time></trkpt><trkpt lat="41.1138588" lon="-7.9507663"><ele>269.0</ele><time>2026-04-25T07:59:43.887Z</time></trkpt><trkpt lat="41.1137711" lon="-7.9507914"><ele>270.4</ele><time>2026-04-25T07:59:44.887Z</time></trkpt><trkpt lat="41.1136826" lon="-7.9508205"><ele>271.79999999999995</ele><time>2026-04-25T07:59:45.889Z</time></trkpt><trkpt lat="41.1135932" lon="-7.9508566"><ele>273.20000000000005</ele><time>2026-04-25T07:59:46.894Z</time></trkpt><trkpt lat="41.1135028" lon="-7.9508935"><ele>274.6</ele><time>2026-04-25T07:59:47.887Z</time></trkpt><trkpt lat="41.1134077" lon="-7.9509286"><ele>276.0</ele><time>2026-04-25T07:59:48.895Z</time></trkpt><trkpt lat="41.1133107" lon="-7.950961"><ele>274.8</ele><time>2026-04-25T07:59:49.894Z</time></trkpt><trkpt lat="41.1132137" lon="-7.9509895"><ele>273.6</ele><time>2026-04-25T07:59:50.888Z</time></trkpt><trkpt lat="41.1131169" lon="-7.9510199"><ele>272.4</ele><time>2026-04-25T07:59:51.891Z</time></trkpt><trkpt lat="41.1130293" lon="-7.9510531"><ele>271.2</ele><time>2026-04-25T07:59:52.891Z</time></trkpt><trkpt lat="41.1129411" lon="-7.951083"><ele>270.0</ele><time>2026-04-25T07:59:53.888Z</time></trkpt><trkpt lat="41.1128487" lon="-7.9511127"><ele>270.0</ele><time>2026-04-25T07:59:54.897Z</time></trkpt><trkpt lat="41.1126527" lon="-7.9511806"><ele>270.0</ele><time>2026-04-25T07:59:56.888Z</time></trkpt><trkpt lat="41.1125556" lon="-7.9512179"><ele>270.0</ele><time>2026-04-25T07:59:57.892Z</time></trkpt><trkpt lat="41.1124641" lon="-7.9512498"><ele>270.0</ele><time>2026-04-25T07:59:58.895Z</time></trkpt><trkpt lat="41.1123712" lon="-7.9512812"><ele>270.6</ele><time>2026-04-25T07:59:59.888Z</time></trkpt><trkpt lat="41.1122771" lon="-7.9513173"><ele>271.2</ele><time>2026-04-25T08:00:00.889Z</time></trkpt><trkpt lat="41.1121763" lon="-7.9513551"><ele>271.8</ele><time>2026-04-25T08:00:01.898Z</time></trkpt><trkpt lat="41.1120816" lon="-7.951391"><ele>272.4</ele><time>2026-04-25T08:00:02.888Z</time></trkpt><trkpt lat="41.1119811" lon="-7.9514287"><ele>273.0</ele><time>2026-04-25T08:00:03.884Z</time></trkpt><trkpt lat="41.1118768" lon="-7.9514678"><ele>273.0</ele><time>2026-04-25T08:00:04.897Z</time></trkpt><trkpt lat="41.1117676" lon="-7.9515066"><ele>273.0</ele><time>2026-04-25T08:00:05.888Z</time></trkpt><trkpt lat="41.1116566" lon="-7.9515354"><ele>273.0</ele><time>2026-04-25T08:00:06.892Z</time></trkpt><trkpt lat="41.1115459" lon="-7.9515475"><ele>273.0</ele><time>2026-04-25T08:00:07.887Z</time></trkpt><trkpt lat="41.111434" lon="-7.9515362"><ele>273.0</ele><time>2026-04-25T08:00:08.89Z</time></trkpt><trkpt lat="41.111328" lon="-7.9514934"><ele>273.0</ele><time>2026-04-25T08:00:09.888Z</time></trkpt><trkpt lat="41.1112291" lon="-7.9514175"><ele>273.0</ele><time>2026-04-25T08:00:10.896Z</time></trkpt><trkpt lat="41.1111421" lon="-7.9513242"><ele>273.0</ele><time>2026-04-25T08:00:11.892Z</time></trkpt><trkpt lat="41.1110715" lon="-7.951227"><ele>273.0</ele><time>2026-04-25T08:00:12.887Z</time></trkpt><trkpt lat="41.1110132" lon="-7.9511335"><ele>273.0</ele><time>2026-04-25T08:00:13.888Z</time></trkpt><trkpt lat="41.1109597" lon="-7.9510481"><ele>273.0</ele><time>2026-04-25T08:00:14.892Z</time></trkpt><trkpt lat="41.1109122" lon="-7.9509722"><ele>273.0</ele><time>2026-04-25T08:00:15.889Z</time></trkpt><trkpt lat="41.1107863" lon="-7.9508566"><ele>273.0</ele><time>2026-04-25T08:00:17.89Z</time></trkpt><trkpt lat="41.1107165" lon="-7.9508081"><ele>273.0</ele><time>2026-04-25T08:00:18.89Z</time></trkpt><trkpt lat="41.1106393" lon="-7.9507568"><ele>273.0</ele><time>2026-04-25T08:00:19.894Z</time></trkpt><trkpt lat="41.1105548" lon="-7.950707"><ele>274.8</ele><time>2026-04-25T08:00:20.893Z</time></trkpt><trkpt lat="41.1104671" lon="-7.9506523"><ele>276.6</ele><time>2026-04-25T08:00:21.889Z</time></trkpt><trkpt lat="41.110375" lon="-7.9505921"><ele>278.4</ele><time>2026-04-25T08:00:22.896Z</time></trkpt><trkpt lat="41.1102823" lon="-7.9505259"><ele>280.2</ele><time>2026-04-25T08:00:23.893Z</time></trkpt><trkpt lat="41.1101915" lon="-7.9504577"><ele>282.0</ele><time>2026-04-25T08:00:24.889Z</time></trkpt><trkpt lat="41.1100959" lon="-7.9503926"><ele>282.0</ele><time>2026-04-25T08:00:25.89Z</time></trkpt><trkpt lat="41.1099992" lon="-7.9503339"><ele>282.0</ele><time>2026-04-25T08:00:26.888Z</time></trkpt><trkpt lat="41.1099125" lon="-7.9502914"><ele>282.0</ele><time>2026-04-25T08:00:27.899Z</time></trkpt><trkpt lat="41.1098357" lon="-7.9502667"><ele>282.0</ele><time>2026-04-25T08:00:28.892Z</time></trkpt><trkpt lat="41.1097673" lon="-7.9502693"><ele>282.0</ele><time>2026-04-25T08:00:29.891Z</time></trkpt><trkpt lat="41.109661" lon="-7.9503263"><ele>287.0</ele><time>2026-04-25T08:00:31.889Z</time></trkpt><trkpt lat="41.1095688" lon="-7.9503824"><ele>292.0</ele><time>2026-04-25T08:00:33.889Z</time></trkpt><trkpt lat="41.1094941" lon="-7.9504835"><ele>297.0</ele><time>2026-04-25T08:00:35.901Z</time></trkpt><trkpt lat="41.1094704" lon="-7.950561"><ele>302.0</ele><time>2026-04-25T08:00:36.89Z</time></trkpt><trkpt lat="41.1094232" lon="-7.950722"><ele>307.0</ele><time>2026-04-25T08:00:38.886Z</time></trkpt><trkpt lat="41.1093546" lon="-7.9508646"><ele>305.66666666666663</ele><time>2026-04-25T08:00:40.892Z</time></trkpt><trkpt lat="41.1093182" lon="-7.9509473"><ele>304.3333333333333</ele><time>2026-04-25T08:00:41.89Z</time></trkpt><trkpt lat="41.1092806" lon="-7.9510309"><ele>303.0</ele><time>2026-04-25T08:00:42.894Z</time></trkpt><trkpt lat="41.1092417" lon="-7.9511089"><ele>301.6666666666667</ele><time>2026-04-25T08:00:43.892Z</time></trkpt><trkpt lat="41.1092124" lon="-7.9511859"><ele>300.33333333333337</ele><time>2026-04-25T08:00:44.886Z</time></trkpt><trkpt lat="41.1091866" lon="-7.9512622"><ele>299.0</ele><time>2026-04-25T08:00:45.887Z</time></trkpt><trkpt lat="41.1091357" lon="-7.9514068"><ele>299.0</ele><time>2026-04-25T08:00:47.897Z</time></trkpt><trkpt lat="41.1090779" lon="-7.951545"><ele>299.0</ele><time>2026-04-25T08:00:49.884Z</time></trkpt><trkpt lat="41.1089928" lon="-7.9516425"><ele>299.0</ele><time>2026-04-25T08:00:51.901Z</time></trkpt><trkpt lat="41.108904" lon="-7.9517147"><ele>299.0</ele><time>2026-04-25T08:00:53.886Z</time></trkpt><trkpt lat="41.1087927" lon="-7.9517687"><ele>298.59999999999997</ele><time>2026-04-25T08:00:55.888Z</time></trkpt><trkpt lat="41.1087288" lon="-7.9517952"><ele>298.2</ele><time>2026-04-25T08:00:56.888Z</time></trkpt><trkpt lat="41.1086627" lon="-7.9518197"><ele>297.79999999999995</ele><time>2026-04-25T08:00:57.89Z</time></trkpt><trkpt lat="41.1084805" lon="-7.9518618"><ele>297.4</ele><time>2026-04-25T08:01:00.894Z</time></trkpt><trkpt lat="41.1083727" lon="-7.951891"><ele>297.0</ele><time>2026-04-25T08:01:02.89Z</time></trkpt><trkpt lat="41.1082569" lon="-7.9519127"><ele>298.5</ele><time>2026-04-25T08:01:04.889Z</time></trkpt><trkpt lat="41.1081494" lon="-7.9518858"><ele>300.0</ele><time>2026-04-25T08:01:06.9Z</time></trkpt><trkpt lat="41.1080535" lon="-7.9518536"><ele>301.5</ele><time>2026-04-25T08:01:08.896Z</time></trkpt><trkpt lat="41.1079785" lon="-7.9518905"><ele>303.0</ele><time>2026-04-25T08:01:11.891Z</time></trkpt><trkpt lat="41.1078936" lon="-7.9518879"><ele>304.5</ele><time>2026-04-25T08:01:13.89Z</time></trkpt><trkpt lat="41.1078225" lon="-7.9518626"><ele>306.0</ele><time>2026-04-25T08:01:14.886Z</time></trkpt><trkpt lat="41.1077512" lon="-7.9518377"><ele>306.0</ele><time>2026-04-25T08:01:15.894Z</time></trkpt><trkpt lat="41.1076805" lon="-7.9518275"><ele>306.0</ele><time>2026-04-25T08:01:16.893Z</time></trkpt><trkpt lat="41.107566" lon="-7.9518371"><ele>306.0</ele><time>2026-04-25T08:01:18.897Z</time></trkpt><trkpt lat="41.1073405" lon="-7.9518505"><ele>306.0</ele><time>2026-04-25T08:01:22.89Z</time></trkpt><trkpt lat="41.1072776" lon="-7.9518059"><ele>307.0</ele><time>2026-04-25T08:01:23.889Z</time></trkpt><trkpt lat="41.1072201" lon="-7.9517458"><ele>308.0</ele><time>2026-04-25T08:01:24.888Z</time></trkpt><trkpt lat="41.1071696" lon="-7.9516826"><ele>309.0</ele><time>2026-04-25T08:01:25.893Z</time></trkpt><trkpt lat="41.1071293" lon="-7.9516162"><ele>310.0</ele><time>2026-04-25T08:01:26.894Z</time></trkpt><trkpt lat="41.1070955" lon="-7.9515428"><ele>311.0</ele><time>2026-04-25T08:01:27.889Z</time></trkpt><trkpt lat="41.1070603" lon="-7.9514649"><ele>312.0</ele><time>2026-04-25T08:01:28.894Z</time></trkpt><trkpt lat="41.1070257" lon="-7.9513821"><ele>313.0</ele><time>2026-04-25T08:01:29.895Z</time></trkpt><trkpt lat="41.1069877" lon="-7.9513089"><ele>315.2</ele><time>2026-04-25T08:01:30.891Z</time></trkpt><trkpt lat="41.1069502" lon="-7.9512408"><ele>317.4</ele><time>2026-04-25T08:01:31.891Z</time></trkpt><trkpt lat="41.106894" lon="-7.9511011"><ele>319.59999999999997</ele><time>2026-04-25T08:01:33.889Z</time></trkpt><trkpt lat="41.1068843" lon="-7.9509479"><ele>321.8</ele><time>2026-04-25T08:01:35.89Z</time></trkpt><trkpt lat="41.1069574" lon="-7.95081"><ele>324.0</ele><time>2026-04-25T08:01:37.888Z</time></trkpt><trkpt lat="41.1070361" lon="-7.9507691"><ele>326.4</ele><time>2026-04-25T08:01:38.893Z</time></trkpt><trkpt lat="41.1071168" lon="-7.9507292"><ele>328.79999999999995</ele><time>2026-04-25T08:01:39.891Z</time></trkpt><trkpt lat="41.1072694" lon="-7.9506359"><ele>331.20000000000005</ele><time>2026-04-25T08:01:41.884Z</time></trkpt><trkpt lat="41.1073308" lon="-7.9505777"><ele>333.6</ele><time>2026-04-25T08:01:42.887Z</time></trkpt><trkpt lat="41.1073884" lon="-7.9505167"><ele>336.0</ele><time>2026-04-25T08:01:43.89Z</time></trkpt><trkpt lat="41.1074342" lon="-7.950448"><ele>336.0</ele><time>2026-04-25T08:01:44.892Z</time></trkpt><trkpt lat="41.1074648" lon="-7.9503727"><ele>336.0</ele><time>2026-04-25T08:01:45.894Z</time></trkpt><trkpt lat="41.1074848" lon="-7.9502931"><ele>336.0</ele><time>2026-04-25T08:01:46.887Z</time></trkpt><trkpt lat="41.1074908" lon="-7.9501392"><ele>336.0</ele><time>2026-04-25T08:01:48.894Z</time></trkpt><trkpt lat="41.1074574" lon="-7.9499976"><ele>336.0</ele><time>2026-04-25T08:01:50.894Z</time></trkpt><trkpt lat="41.1073966" lon="-7.9498827"><ele>341.20000000000005</ele><time>2026-04-25T08:01:52.885Z</time></trkpt><trkpt lat="41.1072749" lon="-7.9498377"><ele>346.40000000000003</ele><time>2026-04-25T08:01:54.897Z</time></trkpt><trkpt lat="41.1072048" lon="-7.9498109"><ele>351.6</ele><time>2026-04-25T08:01:55.889Z</time></trkpt><trkpt lat="41.1071421" lon="-7.949774"><ele>356.8</ele><time>2026-04-25T08:01:56.888Z</time></trkpt><trkpt lat="41.1070638" lon="-7.9496859"><ele>362.0</ele><time>2026-04-25T08:01:58.887Z</time></trkpt><trkpt lat="41.1070145" lon="-7.9495936"><ele>362.0</ele><time>2026-04-25T08:02:00.895Z</time></trkpt><trkpt lat="41.1069736" lon="-7.9493744"><ele>362.0</ele><time>2026-04-25T08:02:03.89Z</time></trkpt><trkpt lat="41.1069523" lon="-7.9492139"><ele>362.0</ele><time>2026-04-25T08:02:05.89Z</time></trkpt><trkpt lat="41.1069701" lon="-7.9490504"><ele>362.0</ele><time>2026-04-25T08:02:07.897Z</time></trkpt><trkpt lat="41.1069975" lon="-7.9489641"><ele>363.5</ele><time>2026-04-25T08:02:08.889Z</time></trkpt><trkpt lat="41.1070378" lon="-7.9488765"><ele>365.0</ele><time>2026-04-25T08:02:09.9Z</time></trkpt><trkpt lat="41.1070742" lon="-7.9487906"><ele>366.5</ele><time>2026-04-25T08:02:10.89Z</time></trkpt><trkpt lat="41.1071035" lon="-7.9487061"><ele>368.0</ele><time>2026-04-25T08:02:11.904Z</time></trkpt><trkpt lat="41.107117" lon="-7.9486221"><ele>369.5</ele><time>2026-04-25T08:02:12.889Z</time></trkpt><trkpt lat="41.1071099" lon="-7.9484589"><ele>371.0</ele><time>2026-04-25T08:02:14.887Z</time></trkpt><trkpt lat="41.1070864" lon="-7.9483775"><ele>373.8</ele><time>2026-04-25T08:02:15.892Z</time></trkpt><trkpt lat="41.1070571" lon="-7.9483012"><ele>376.6</ele><time>2026-04-25T08:02:16.885Z</time></trkpt><trkpt lat="41.107022" lon="-7.9482309"><ele>379.4</ele><time>2026-04-25T08:02:17.89Z</time></trkpt><trkpt lat="41.1069483" lon="-7.9481209"><ele>382.2</ele><time>2026-04-25T08:02:19.893Z</time></trkpt><trkpt lat="41.1068636" lon="-7.9480368"><ele>385.0</ele><time>2026-04-25T08:02:21.89Z</time></trkpt><trkpt lat="41.1066909" lon="-7.9479401"><ele>385.0</ele><time>2026-04-25T08:02:24.891Z</time></trkpt><trkpt lat="41.1066273" lon="-7.9479232"><ele>385.0</ele><time>2026-04-25T08:02:25.896Z</time></trkpt><trkpt lat="41.1065611" lon="-7.9479102"><ele>385.0</ele><time>2026-04-25T08:02:26.889Z</time></trkpt><trkpt lat="41.1064897" lon="-7.947911"><ele>385.0</ele><time>2026-04-25T08:02:27.892Z</time></trkpt><trkpt lat="41.1064128" lon="-7.9479237"><ele>385.0</ele><time>2026-04-25T08:02:28.899Z</time></trkpt><trkpt lat="41.1063361" lon="-7.9479465"><ele>385.0</ele><time>2026-04-25T08:02:29.904Z</time></trkpt><trkpt lat="41.1062595" lon="-7.9479748"><ele>385.0</ele><time>2026-04-25T08:02:30.89Z</time></trkpt><trkpt lat="41.1061882" lon="-7.9480028"><ele>386.00000000000006</ele><time>2026-04-25T08:02:31.888Z</time></trkpt><trkpt lat="41.106117" lon="-7.9480278"><ele>387.0</ele><time>2026-04-25T08:02:32.884Z</time></trkpt><trkpt lat="41.1060536" lon="-7.9480425"><ele>388.0</ele><time>2026-04-25T08:02:33.888Z</time></trkpt><trkpt lat="41.1059561" lon="-7.9479957"><ele>389.0</ele><time>2026-04-25T08:02:35.892Z</time></trkpt><trkpt lat="41.1059294" lon="-7.9478809"><ele>390.00000000000006</ele><time>2026-04-25T08:02:37.888Z</time></trkpt><trkpt lat="41.1059088" lon="-7.9477913"><ele>391.0</ele><time>2026-04-25T08:02:39.886Z</time></trkpt><trkpt lat="41.1058369" lon="-7.9477639"><ele>390.5</ele><time>2026-04-25T08:02:42.892Z</time></trkpt><trkpt lat="41.105663" lon="-7.9477828"><ele>390.0</ele><time>2026-04-25T08:02:46.891Z</time></trkpt><trkpt lat="41.1055554" lon="-7.9477553"><ele>389.5</ele><time>2026-04-25T08:02:48.886Z</time></trkpt><trkpt lat="41.1054584" lon="-7.9477089"><ele>389.0</ele><time>2026-04-25T08:02:50.883Z</time></trkpt><trkpt lat="41.1053954" lon="-7.9476394"><ele>388.99999999999994</ele><time>2026-04-25T08:02:52.888Z</time></trkpt><trkpt lat="41.105314" lon="-7.9475951"><ele>389.0</ele><time>2026-04-25T08:02:54.894Z</time></trkpt><trkpt lat="41.1052374" lon="-7.9475396"><ele>389.0</ele><time>2026-04-25T08:02:56.891Z</time></trkpt><trkpt lat="41.1051814" lon="-7.947478"><ele>389.0</ele><time>2026-04-25T08:02:58.89Z</time></trkpt><trkpt lat="41.1051328" lon="-7.9474206"><ele>388.99999999999994</ele><time>2026-04-25T08:03:00.885Z</time></trkpt><trkpt lat="41.105048" lon="-7.9473757"><ele>389.0</ele><time>2026-04-25T08:03:03.903Z</time></trkpt><trkpt lat="41.1049501" lon="-7.9475503"><ele>389.0</ele><time>2026-04-25T08:03:07.888Z</time></trkpt><trkpt lat="41.1049252" lon="-7.9476474"><ele>389.0</ele><time>2026-04-25T08:03:09.894Z</time></trkpt><trkpt lat="41.104888" lon="-7.9477633"><ele>389.0</ele><time>2026-04-25T08:03:11.89Z</time></trkpt><trkpt lat="41.1048462" lon="-7.9478959"><ele>389.0</ele><time>2026-04-25T08:03:13.889Z</time></trkpt><trkpt lat="41.1048007" lon="-7.9480436"><ele>389.0</ele><time>2026-04-25T08:03:15.889Z</time></trkpt><trkpt lat="41.1047809" lon="-7.9481694"><ele>389.99999999999994</ele><time>2026-04-25T08:03:17.891Z</time></trkpt><trkpt lat="41.1047501" lon="-7.9482507"><ele>391.0</ele><time>2026-04-25T08:03:20.895Z</time></trkpt><trkpt lat="41.1046842" lon="-7.9482386"><ele>392.0</ele><time>2026-04-25T08:03:28.891Z</time></trkpt><trkpt lat="41.1046162" lon="-7.9483927"><ele>393.0</ele><time>2026-04-25T08:03:34.901Z</time></trkpt><trkpt lat="41.1045448" lon="-7.948459"><ele>393.99999999999994</ele><time>2026-04-25T08:03:37.886Z</time></trkpt><trkpt lat="41.1044755" lon="-7.9484769"><ele>395.0</ele><time>2026-04-25T08:03:39.889Z</time></trkpt><trkpt lat="41.1044043" lon="-7.9484883"><ele>395.0</ele><time>2026-04-25T08:03:41.889Z</time></trkpt><trkpt lat="41.1043218" lon="-7.948445"><ele>395.0</ele><time>2026-04-25T08:03:44.891Z</time></trkpt><trkpt lat="41.1042624" lon="-7.948407"><ele>395.0</ele><time>2026-04-25T08:03:46.892Z</time></trkpt><trkpt lat="41.1041706" lon="-7.9483646"><ele>395.0</ele><time>2026-04-25T08:03:49.895Z</time></trkpt><trkpt lat="41.1040416" lon="-7.9483026"><ele>395.0</ele><time>2026-04-25T08:03:53.899Z</time></trkpt><trkpt lat="41.1039576" lon="-7.9482744"><ele>393.8</ele><time>2026-04-25T08:03:55.887Z</time></trkpt><trkpt lat="41.1038718" lon="-7.9482644"><ele>392.6</ele><time>2026-04-25T08:03:57.896Z</time></trkpt><trkpt lat="41.1038009" lon="-7.9482798"><ele>391.4</ele><time>2026-04-25T08:04:01.889Z</time></trkpt><trkpt lat="41.1037181" lon="-7.9483007"><ele>390.2</ele><time>2026-04-25T08:04:05.903Z</time></trkpt><trkpt lat="41.1036558" lon="-7.9483483"><ele>389.0</ele><time>2026-04-25T08:04:11.893Z</time></trkpt><trkpt lat="41.1035042" lon="-7.9483882"><ele>389.0</ele><time>2026-04-25T08:04:20.892Z</time></trkpt><trkpt lat="41.1034197" lon="-7.9484096"><ele>389.0</ele><time>2026-04-25T08:04:23.892Z</time></trkpt><trkpt lat="41.1033532" lon="-7.9484269"><ele>389.0</ele><time>2026-04-25T08:04:26.904Z</time></trkpt><trkpt lat="41.1032921" lon="-7.9484928"><ele>389.0</ele><time>2026-04-25T08:04:30.886Z</time></trkpt><trkpt lat="41.1032425" lon="-7.9485495"><ele>389.0</ele><time>2026-04-25T08:04:34.887Z</time></trkpt><trkpt lat="41.1031252" lon="-7.948681"><ele>392.4</ele><time>2026-04-25T08:04:41.897Z</time></trkpt><trkpt lat="41.1030839" lon="-7.9487762"><ele>395.79999999999995</ele><time>2026-04-25T08:04:45.887Z</time></trkpt><trkpt lat="41.1030262" lon="-7.9488119"><ele>399.20000000000005</ele><time>2026-04-25T08:04:56.893Z</time></trkpt><trkpt lat="41.102902" lon="-7.9489197"><ele>402.6</ele><time>2026-04-25T08:05:00.892Z</time></trkpt><trkpt lat="41.1028282" lon="-7.9489924"><ele>406.0</ele><time>2026-04-25T08:05:02.887Z</time></trkpt><trkpt lat="41.1027301" lon="-7.9490756"><ele>406.0</ele><time>2026-04-25T08:05:04.885Z</time></trkpt><trkpt lat="41.1026193" lon="-7.949131"><ele>406.0</ele><time>2026-04-25T08:05:06.891Z</time></trkpt><trkpt lat="41.102496" lon="-7.949167"><ele>406.0</ele><time>2026-04-25T08:05:08.886Z</time></trkpt><trkpt lat="41.1023705" lon="-7.9491958"><ele>406.0</ele><time>2026-04-25T08:05:10.9Z</time></trkpt><trkpt lat="41.1023006" lon="-7.9492118"><ele>406.0</ele><time>2026-04-25T08:05:11.889Z</time></trkpt><trkpt lat="41.1022288" lon="-7.9492208"><ele>406.1666666666667</ele><time>2026-04-25T08:05:12.893Z</time></trkpt><trkpt lat="41.1021545" lon="-7.9492254"><ele>406.33333333333337</ele><time>2026-04-25T08:05:13.881Z</time></trkpt><trkpt lat="41.1020864" lon="-7.949228"><ele>406.5</ele><time>2026-04-25T08:05:14.89Z</time></trkpt><trkpt lat="41.1020228" lon="-7.9492299"><ele>406.66666666666663</ele><time>2026-04-25T08:05:15.889Z</time></trkpt><trkpt lat="41.1019575" lon="-7.9492265"><ele>406.8333333333333</ele><time>2026-04-25T08:05:16.889Z</time></trkpt><trkpt lat="41.1018907" lon="-7.9492241"><ele>407.0</ele><time>2026-04-25T08:05:17.892Z</time></trkpt><trkpt lat="41.1017554" lon="-7.9492342"><ele>406.99999999999994</ele><time>2026-04-25T08:05:19.889Z</time></trkpt><trkpt lat="41.1016813" lon="-7.9492378"><ele>407.0</ele><time>2026-04-25T08:05:20.893Z</time></trkpt><trkpt lat="41.1016083" lon="-7.949234"><ele>407.0</ele><time>2026-04-25T08:05:21.892Z</time></trkpt><trkpt lat="41.1015345" lon="-7.9492302"><ele>407.0</ele><time>2026-04-25T08:05:22.889Z</time></trkpt><trkpt lat="41.1014689" lon="-7.9492314"><ele>406.99999999999994</ele><time>2026-04-25T08:05:23.887Z</time></trkpt><trkpt lat="41.1013362" lon="-7.9492271"><ele>407.0</ele><time>2026-04-25T08:05:25.886Z</time></trkpt><trkpt lat="41.1012673" lon="-7.9492277"><ele>409.5714285714286</ele><time>2026-04-25T08:05:26.896Z</time></trkpt><trkpt lat="41.101202" lon="-7.9492293"><ele>412.14285714285717</ele><time>2026-04-25T08:05:27.889Z</time></trkpt><trkpt lat="41.1011344" lon="-7.9492319"><ele>414.7142857142857</ele><time>2026-04-25T08:05:28.885Z</time></trkpt><trkpt lat="41.1010648" lon="-7.9492371"><ele>417.28571428571433</ele><time>2026-04-25T08:05:29.891Z</time></trkpt><trkpt lat="41.1009955" lon="-7.9492519"><ele>419.85714285714283</ele><time>2026-04-25T08:05:30.888Z</time></trkpt><trkpt lat="41.1009289" lon="-7.9492753"><ele>422.42857142857144</ele><time>2026-04-25T08:05:31.888Z</time></trkpt><trkpt lat="41.1008645" lon="-7.9493125"><ele>425.0</ele><time>2026-04-25T08:05:32.889Z</time></trkpt><trkpt lat="41.1008036" lon="-7.9493514"><ele>427.8</ele><time>2026-04-25T08:05:33.892Z</time></trkpt><trkpt lat="41.1007419" lon="-7.9493951"><ele>430.6</ele><time>2026-04-25T08:05:34.885Z</time></trkpt><trkpt lat="41.100686" lon="-7.9494377"><ele>433.4</ele><time>2026-04-25T08:05:35.887Z</time></trkpt><trkpt lat="41.1005938" lon="-7.9495369"><ele>436.2</ele><time>2026-04-25T08:05:37.888Z</time></trkpt><trkpt lat="41.100531" lon="-7.9496832"><ele>439.0</ele><time>2026-04-25T08:05:39.899Z</time></trkpt><trkpt lat="41.1005395" lon="-7.9498605"><ele>439.00000000000006</ele><time>2026-04-25T08:05:41.888Z</time></trkpt><trkpt lat="41.1005624" lon="-7.9499455"><ele>439.0</ele><time>2026-04-25T08:05:42.885Z</time></trkpt><trkpt lat="41.100595" lon="-7.9500308"><ele>439.0</ele><time>2026-04-25T08:05:43.892Z</time></trkpt><trkpt lat="41.1006316" lon="-7.950128"><ele>439.0</ele><time>2026-04-25T08:05:44.904Z</time></trkpt><trkpt lat="41.1006661" lon="-7.9502178"><ele>439.00000000000006</ele><time>2026-04-25T08:05:45.889Z</time></trkpt><trkpt lat="41.1007035" lon="-7.9502915"><ele>439.0</ele><time>2026-04-25T08:05:46.892Z</time></trkpt><trkpt lat="41.1007625" lon="-7.9503947"><ele>437.1666666666667</ele><time>2026-04-25T08:05:48.887Z</time></trkpt><trkpt lat="41.1007995" lon="-7.9504674"><ele>435.33333333333337</ele><time>2026-04-25T08:05:50.907Z</time></trkpt><trkpt lat="41.1007547" lon="-7.950558"><ele>433.5</ele><time>2026-04-25T08:05:54.894Z</time></trkpt><trkpt lat="41.1006909" lon="-7.9505412"><ele>431.66666666666663</ele><time>2026-04-25T08:05:56.886Z</time></trkpt><trkpt lat="41.100638" lon="-7.9504767"><ele>429.8333333333333</ele><time>2026-04-25T08:05:58.889Z</time></trkpt><trkpt lat="41.100549" lon="-7.9503608"><ele>428.0</ele><time>2026-04-25T08:06:00.89Z</time></trkpt><trkpt lat="41.1004098" lon="-7.9501674"><ele>428.0</ele><time>2026-04-25T08:06:02.899Z</time></trkpt><trkpt lat="41.1003292" lon="-7.9500463"><ele>427.99999999999994</ele><time>2026-04-25T08:06:03.889Z</time></trkpt><trkpt lat="41.1002671" lon="-7.9499227"><ele>427.99999999999994</ele><time>2026-04-25T08:06:04.894Z</time></trkpt><trkpt lat="41.100228" lon="-7.9498112"><ele>428.0</ele><time>2026-04-25T08:06:05.897Z</time></trkpt><trkpt lat="41.1001905" lon="-7.9497068"><ele>428.0</ele><time>2026-04-25T08:06:06.892Z</time></trkpt><trkpt lat="41.1001478" lon="-7.9496151"><ele>429.66666666666663</ele><time>2026-04-25T08:06:07.893Z</time></trkpt><trkpt lat="41.1000916" lon="-7.9495435"><ele>431.3333333333333</ele><time>2026-04-25T08:06:08.886Z</time></trkpt><trkpt lat="41.1000253" lon="-7.9494968"><ele>433.0</ele><time>2026-04-25T08:06:09.886Z</time></trkpt><trkpt lat="41.0999496" lon="-7.9494818"><ele>434.66666666666663</ele><time>2026-04-25T08:06:10.89Z</time></trkpt><trkpt lat="41.0998726" lon="-7.9494885"><ele>436.3333333333333</ele><time>2026-04-25T08:06:11.887Z</time></trkpt><trkpt lat="41.0997952" lon="-7.9494984"><ele>438.0</ele><time>2026-04-25T08:06:12.89Z</time></trkpt><trkpt lat="41.0997107" lon="-7.9494959"><ele>438.0</ele><time>2026-04-25T08:06:13.895Z</time></trkpt><trkpt lat="41.0996346" lon="-7.9494611"><ele>438.0</ele><time>2026-04-25T08:06:14.887Z</time></trkpt><trkpt lat="41.0995711" lon="-7.9493878"><ele>438.0</ele><time>2026-04-25T08:06:15.893Z</time></trkpt><trkpt lat="41.0995093" lon="-7.9493041"><ele>438.0</ele><time>2026-04-25T08:06:16.893Z</time></trkpt><trkpt lat="41.0994463" lon="-7.9492228"><ele>438.0</ele><time>2026-04-25T08:06:17.887Z</time></trkpt><trkpt lat="41.0993754" lon="-7.9491518"><ele>438.0</ele><time>2026-04-25T08:06:18.892Z</time></trkpt><trkpt lat="41.0992977" lon="-7.9490934"><ele>441.5</ele><time>2026-04-25T08:06:19.886Z</time></trkpt><trkpt lat="41.0992067" lon="-7.9490478"><ele>445.0</ele><time>2026-04-25T08:06:20.895Z</time></trkpt><trkpt lat="41.0991029" lon="-7.9490088"><ele>448.5</ele><time>2026-04-25T08:06:21.885Z</time></trkpt><trkpt lat="41.0988906" lon="-7.9489659"><ele>452.0</ele><time>2026-04-25T08:06:23.891Z</time></trkpt><trkpt lat="41.098782" lon="-7.9489467"><ele>452.8</ele><time>2026-04-25T08:06:24.885Z</time></trkpt><trkpt lat="41.098676" lon="-7.948928"><ele>453.6</ele><time>2026-04-25T08:06:25.892Z</time></trkpt><trkpt lat="41.0985767" lon="-7.9488978"><ele>454.40000000000003</ele><time>2026-04-25T08:06:26.897Z</time></trkpt><trkpt lat="41.098484" lon="-7.9488531"><ele>455.20000000000005</ele><time>2026-04-25T08:06:27.889Z</time></trkpt><trkpt lat="41.0983954" lon="-7.9487901"><ele>456.0</ele><time>2026-04-25T08:06:28.887Z</time></trkpt><trkpt lat="41.0983166" lon="-7.9487086"><ele>455.8</ele><time>2026-04-25T08:06:29.888Z</time></trkpt><trkpt lat="41.098239" lon="-7.9486143"><ele>455.6</ele><time>2026-04-25T08:06:30.892Z</time></trkpt><trkpt lat="41.0981671" lon="-7.9485273"><ele>455.4</ele><time>2026-04-25T08:06:31.885Z</time></trkpt><trkpt lat="41.0980868" lon="-7.9484528"><ele>455.2</ele><time>2026-04-25T08:06:32.891Z</time></trkpt><trkpt lat="41.0979938" lon="-7.9483821"><ele>455.0</ele><time>2026-04-25T08:06:33.889Z</time></trkpt><trkpt lat="41.0978993" lon="-7.9483271"><ele>458.0</ele><time>2026-04-25T08:06:34.893Z</time></trkpt><trkpt lat="41.0977994" lon="-7.9482887"><ele>461.0</ele><time>2026-04-25T08:06:35.891Z</time></trkpt><trkpt lat="41.0976966" lon="-7.9482677"><ele>464.0</ele><time>2026-04-25T08:06:36.89Z</time></trkpt><trkpt lat="41.097594" lon="-7.9482577"><ele>467.0</ele><time>2026-04-25T08:06:37.885Z</time></trkpt><trkpt lat="41.0974847" lon="-7.9482465"><ele>470.0</ele><time>2026-04-25T08:06:38.888Z</time></trkpt><trkpt lat="41.0973885" lon="-7.9482178"><ele>473.8</ele><time>2026-04-25T08:06:39.889Z</time></trkpt><trkpt lat="41.0973033" lon="-7.948174"><ele>477.6</ele><time>2026-04-25T08:06:40.885Z</time></trkpt><trkpt lat="41.0972219" lon="-7.9481319"><ele>481.4</ele><time>2026-04-25T08:06:41.891Z</time></trkpt><trkpt lat="41.0971402" lon="-7.9481185"><ele>485.2</ele><time>2026-04-25T08:06:42.888Z</time></trkpt><trkpt lat="41.0969988" lon="-7.9482343"><ele>489.0</ele><time>2026-04-25T08:06:44.892Z</time></trkpt><trkpt lat="41.0969375" lon="-7.9483415"><ele>486.4</ele><time>2026-04-25T08:06:45.888Z</time></trkpt><trkpt lat="41.0968776" lon="-7.9484599"><ele>483.79999999999995</ele><time>2026-04-25T08:06:46.885Z</time></trkpt><trkpt lat="41.0968209" lon="-7.948585"><ele>481.20000000000005</ele><time>2026-04-25T08:06:47.887Z</time></trkpt><trkpt lat="41.0967685" lon="-7.9487193"><ele>478.6</ele><time>2026-04-25T08:06:48.888Z</time></trkpt><trkpt lat="41.0967076" lon="-7.9488482"><ele>476.0</ele><time>2026-04-25T08:06:49.886Z</time></trkpt><trkpt lat="41.0966394" lon="-7.9489678"><ele>475.5</ele><time>2026-04-25T08:06:50.889Z</time></trkpt><trkpt lat="41.0965629" lon="-7.9490769"><ele>475.0</ele><time>2026-04-25T08:06:51.888Z</time></trkpt><trkpt lat="41.0964732" lon="-7.9491802"><ele>474.5</ele><time>2026-04-25T08:06:52.887Z</time></trkpt><trkpt lat="41.0963742" lon="-7.9492607"><ele>474.0</ele><time>2026-04-25T08:06:53.896Z</time></trkpt><trkpt lat="41.0962736" lon="-7.9493128"><ele>474.0</ele><time>2026-04-25T08:06:54.894Z</time></trkpt><trkpt lat="41.0961795" lon="-7.9493352"><ele>474.0</ele><time>2026-04-25T08:06:55.891Z</time></trkpt><trkpt lat="41.0960907" lon="-7.9493352"><ele>474.0</ele><time>2026-04-25T08:06:56.894Z</time></trkpt><trkpt lat="41.0960059" lon="-7.9493034"><ele>474.0</ele><time>2026-04-25T08:06:57.884Z</time></trkpt><trkpt lat="41.0959317" lon="-7.9492466"><ele>474.0</ele><time>2026-04-25T08:06:58.893Z</time></trkpt><trkpt lat="41.0958801" lon="-7.949174"><ele>474.0</ele><time>2026-04-25T08:06:59.887Z</time></trkpt><trkpt lat="41.0958447" lon="-7.9491037"><ele>476.6</ele><time>2026-04-25T08:07:00.884Z</time></trkpt><trkpt lat="41.0958257" lon="-7.9489429"><ele>479.2</ele><time>2026-04-25T08:07:02.891Z</time></trkpt><trkpt lat="41.095833" lon="-7.9488568"><ele>481.80000000000007</ele><time>2026-04-25T08:07:03.89Z</time></trkpt><trkpt lat="41.0958569" lon="-7.9486783"><ele>484.40000000000003</ele><time>2026-04-25T08:07:05.892Z</time></trkpt><trkpt lat="41.0958676" lon="-7.9485812"><ele>487.0</ele><time>2026-04-25T08:07:06.893Z</time></trkpt><trkpt lat="41.0958689" lon="-7.948479"><ele>489.00000000000006</ele><time>2026-04-25T08:07:07.886Z</time></trkpt><trkpt lat="41.0958648" lon="-7.9483748"><ele>491.0</ele><time>2026-04-25T08:07:08.893Z</time></trkpt><trkpt lat="41.0958527" lon="-7.9482747"><ele>493.0</ele><time>2026-04-25T08:07:09.892Z</time></trkpt><trkpt lat="41.0958409" lon="-7.9481679"><ele>495.0</ele><time>2026-04-25T08:07:10.884Z</time></trkpt><trkpt lat="41.0958285" lon="-7.9480546"><ele>497.00000000000006</ele><time>2026-04-25T08:07:11.892Z</time></trkpt><trkpt lat="41.095815" lon="-7.9479435"><ele>499.0</ele><time>2026-04-25T08:07:12.886Z</time></trkpt><trkpt lat="41.0958062" lon="-7.9478348"><ele>499.0</ele><time>2026-04-25T08:07:13.891Z</time></trkpt><trkpt lat="41.0958061" lon="-7.9477188"><ele>499.0</ele><time>2026-04-25T08:07:14.894Z</time></trkpt><trkpt lat="41.095806" lon="-7.9475927"><ele>499.0</ele><time>2026-04-25T08:07:15.89Z</time></trkpt><trkpt lat="41.0957928" lon="-7.9474661"><ele>499.0</ele><time>2026-04-25T08:07:16.897Z</time></trkpt><trkpt lat="41.0957675" lon="-7.9473453"><ele>499.0</ele><time>2026-04-25T08:07:17.888Z</time></trkpt><trkpt lat="41.0957341" lon="-7.9472289"><ele>499.1666666666667</ele><time>2026-04-25T08:07:18.884Z</time></trkpt><trkpt lat="41.0956998" lon="-7.9471159"><ele>499.33333333333337</ele><time>2026-04-25T08:07:19.897Z</time></trkpt><trkpt lat="41.0956701" lon="-7.947007"><ele>499.5</ele><time>2026-04-25T08:07:20.885Z</time></trkpt><trkpt lat="41.0956458" lon="-7.9469008"><ele>499.66666666666663</ele><time>2026-04-25T08:07:21.895Z</time></trkpt><trkpt lat="41.0956268" lon="-7.9467944"><ele>499.8333333333333</ele><time>2026-04-25T08:07:22.893Z</time></trkpt><trkpt lat="41.0956084" lon="-7.9466851"><ele>500.0</ele><time>2026-04-25T08:07:23.886Z</time></trkpt><trkpt lat="41.095593" lon="-7.9465738"><ele>502.8</ele><time>2026-04-25T08:07:24.895Z</time></trkpt><trkpt lat="41.0955725" lon="-7.9463684"><ele>505.6</ele><time>2026-04-25T08:07:26.891Z</time></trkpt><trkpt lat="41.095567" lon="-7.946268"><ele>508.4</ele><time>2026-04-25T08:07:27.888Z</time></trkpt><trkpt lat="41.0955713" lon="-7.9461618"><ele>511.2</ele><time>2026-04-25T08:07:28.885Z</time></trkpt><trkpt lat="41.095581" lon="-7.9460443"><ele>514.0</ele><time>2026-04-25T08:07:29.893Z</time></trkpt><trkpt lat="41.095595" lon="-7.9459251"><ele>515.6666666666667</ele><time>2026-04-25T08:07:30.885Z</time></trkpt><trkpt lat="41.0956043" lon="-7.9458022"><ele>517.3333333333334</ele><time>2026-04-25T08:07:31.887Z</time></trkpt><trkpt lat="41.0956166" lon="-7.945682"><ele>519.0</ele><time>2026-04-25T08:07:32.888Z</time></trkpt><trkpt lat="41.095629" lon="-7.9455645"><ele>520.6666666666666</ele><time>2026-04-25T08:07:33.889Z</time></trkpt><trkpt lat="41.0956382" lon="-7.9454619"><ele>522.3333333333333</ele><time>2026-04-25T08:07:34.885Z</time></trkpt><trkpt lat="41.0956536" lon="-7.9453714"><ele>524.0</ele><time>2026-04-25T08:07:35.889Z</time></trkpt><trkpt lat="41.0956825" lon="-7.9452897"><ele>524.0</ele><time>2026-04-25T08:07:36.895Z</time></trkpt><trkpt lat="41.0957189" lon="-7.9452181"><ele>524.0</ele><time>2026-04-25T08:07:37.886Z</time></trkpt><trkpt lat="41.0957684" lon="-7.9451563"><ele>524.0</ele><time>2026-04-25T08:07:38.889Z</time></trkpt><trkpt lat="41.0958325" lon="-7.9451106"><ele>524.0</ele><time>2026-04-25T08:07:39.892Z</time></trkpt><trkpt lat="41.0959066" lon="-7.9450561"><ele>524.0</ele><time>2026-04-25T08:07:40.893Z</time></trkpt><trkpt lat="41.0959775" lon="-7.9449846"><ele>524.0</ele><time>2026-04-25T08:07:41.891Z</time></trkpt><trkpt lat="41.0960412" lon="-7.9449024"><ele>528.0</ele><time>2026-04-25T08:07:42.886Z</time></trkpt><trkpt lat="41.0960932" lon="-7.9448094"><ele>532.0</ele><time>2026-04-25T08:07:43.89Z</time></trkpt><trkpt lat="41.0961397" lon="-7.9447118"><ele>536.0</ele><time>2026-04-25T08:07:44.897Z</time></trkpt><trkpt lat="41.0961898" lon="-7.9446137"><ele>540.0</ele><time>2026-04-25T08:07:45.89Z</time></trkpt><trkpt lat="41.0962945" lon="-7.9444421"><ele>544.0</ele><time>2026-04-25T08:07:47.894Z</time></trkpt><trkpt lat="41.0963455" lon="-7.9443098"><ele>544.0</ele><time>2026-04-25T08:07:49.891Z</time></trkpt><trkpt lat="41.0963074" lon="-7.9442388"><ele>544.0</ele><time>2026-04-25T08:07:51.887Z</time></trkpt><trkpt lat="41.0962542" lon="-7.9441657"><ele>544.0</ele><time>2026-04-25T08:07:59.892Z</time></trkpt><trkpt lat="41.0962945" lon="-7.9441014"><ele>544.0</ele><time>2026-04-25T08:08:02.889Z</time></trkpt><trkpt lat="41.0962713" lon="-7.9440002"><ele>544.0</ele><time>2026-04-25T08:08:07.898Z</time></trkpt><trkpt lat="41.0961474" lon="-7.9439355"><ele>544.0</ele><time>2026-04-25T08:08:11.891Z</time></trkpt><trkpt lat="41.0960966" lon="-7.9438822"><ele>546.3333333333334</ele><time>2026-04-25T08:08:13.888Z</time></trkpt><trkpt lat="41.0960604" lon="-7.9437864"><ele>548.6666666666667</ele><time>2026-04-25T08:08:15.894Z</time></trkpt><trkpt lat="41.0960278" lon="-7.9436852"><ele>551.0</ele><time>2026-04-25T08:08:17.9Z</time></trkpt><trkpt lat="41.0959894" lon="-7.9435861"><ele>553.3333333333334</ele><time>2026-04-25T08:08:19.888Z</time></trkpt><trkpt lat="41.0959781" lon="-7.9434887"><ele>555.6666666666666</ele><time>2026-04-25T08:08:21.891Z</time></trkpt><trkpt lat="41.0960006" lon="-7.9433893"><ele>558.0</ele><time>2026-04-25T08:08:23.892Z</time></trkpt><trkpt lat="41.0960323" lon="-7.9433051"><ele>560.3333333333334</ele><time>2026-04-25T08:08:25.887Z</time></trkpt><trkpt lat="41.0960467" lon="-7.9432166"><ele>562.6666666666666</ele><time>2026-04-25T08:08:27.887Z</time></trkpt><trkpt lat="41.0960605" lon="-7.943131"><ele>565.0</ele><time>2026-04-25T08:08:29.893Z</time></trkpt><trkpt lat="41.0960895" lon="-7.9429499"><ele>567.3333333333333</ele><time>2026-04-25T08:08:33.888Z</time></trkpt><trkpt lat="41.0960936" lon="-7.9428274"><ele>569.6666666666666</ele><time>2026-04-25T08:08:36.896Z</time></trkpt><trkpt lat="41.0960869" lon="-7.9427237"><ele>572.0</ele><time>2026-04-25T08:08:38.884Z</time></trkpt><trkpt lat="41.0960815" lon="-7.9425999"><ele>574.4</ele><time>2026-04-25T08:08:40.891Z</time></trkpt><trkpt lat="41.0960839" lon="-7.9424711"><ele>576.8000000000001</ele><time>2026-04-25T08:08:42.887Z</time></trkpt><trkpt lat="41.0960751" lon="-7.942351"><ele>579.2</ele><time>2026-04-25T08:08:44.893Z</time></trkpt><trkpt lat="41.0960717" lon="-7.9422236"><ele>581.6</ele><time>2026-04-25T08:08:46.891Z</time></trkpt><trkpt lat="41.0960605" lon="-7.9420942"><ele>584.0</ele><time>2026-04-25T08:08:48.886Z</time></trkpt><trkpt lat="41.0960498" lon="-7.9419649"><ele>585.5</ele><time>2026-04-25T08:08:50.885Z</time></trkpt><trkpt lat="41.0959985" lon="-7.9416788"><ele>587.0</ele><time>2026-04-25T08:08:54.89Z</time></trkpt><trkpt lat="41.0959945" lon="-7.9415074"><ele>588.5</ele><time>2026-04-25T08:08:56.89Z</time></trkpt><trkpt lat="41.0959991" lon="-7.9414133"><ele>590.0</ele><time>2026-04-25T08:08:57.887Z</time></trkpt><trkpt lat="41.0960062" lon="-7.9413192"><ele>590.0</ele><time>2026-04-25T08:08:58.895Z</time></trkpt><trkpt lat="41.0959849" lon="-7.9411534"><ele>590.0</ele><time>2026-04-25T08:09:00.886Z</time></trkpt><trkpt lat="41.0959547" lon="-7.9410709"><ele>590.0</ele><time>2026-04-25T08:09:01.887Z</time></trkpt><trkpt lat="41.095932" lon="-7.9409859"><ele>590.0</ele><time>2026-04-25T08:09:02.885Z</time></trkpt><trkpt lat="41.0959056" lon="-7.9408273"><ele>590.0</ele><time>2026-04-25T08:09:04.89Z</time></trkpt><trkpt lat="41.095882" lon="-7.940704"><ele>590.5</ele><time>2026-04-25T08:09:06.892Z</time></trkpt><trkpt lat="41.0958481" lon="-7.9406218"><ele>591.0</ele><time>2026-04-25T08:09:08.886Z</time></trkpt><trkpt lat="41.0958042" lon="-7.94056"><ele>591.5</ele><time>2026-04-25T08:09:15.886Z</time></trkpt><trkpt lat="41.0956466" lon="-7.9405094"><ele>592.0</ele><time>2026-04-25T08:09:23.888Z</time></trkpt><trkpt lat="41.0955766" lon="-7.9405027"><ele>592.5</ele><time>2026-04-25T08:09:25.885Z</time></trkpt><trkpt lat="41.0954993" lon="-7.9404818"><ele>593.0</ele><time>2026-04-25T08:09:27.896Z</time></trkpt><trkpt lat="41.0954197" lon="-7.9404408"><ele>593.0</ele><time>2026-04-25T08:09:30.895Z</time></trkpt><trkpt lat="41.0953681" lon="-7.9403822"><ele>593.0</ele><time>2026-04-25T08:09:32.889Z</time></trkpt><trkpt lat="41.0953005" lon="-7.9403091"><ele>593.0</ele><time>2026-04-25T08:09:35.894Z</time></trkpt><trkpt lat="41.0952595" lon="-7.9402326"><ele>593.0</ele><time>2026-04-25T08:09:39.886Z</time></trkpt><trkpt lat="41.0951456" lon="-7.9400619"><ele>593.0</ele><time>2026-04-25T08:09:54.893Z</time></trkpt><trkpt lat="41.0950959" lon="-7.9399838"><ele>593.0</ele><time>2026-04-25T08:09:56.9Z</time></trkpt><trkpt lat="41.0950423" lon="-7.9399124"><ele>593.0</ele><time>2026-04-25T08:09:58.892Z</time></trkpt><trkpt lat="41.0949959" lon="-7.9398369"><ele>593.0</ele><time>2026-04-25T08:10:00.89Z</time></trkpt><trkpt lat="41.0949014" lon="-7.9396985"><ele>593.0</ele><time>2026-04-25T08:10:07.887Z</time></trkpt><trkpt lat="41.0948375" lon="-7.9396123"><ele>593.0</ele><time>2026-04-25T08:10:10.892Z</time></trkpt><trkpt lat="41.0947803" lon="-7.9395542"><ele>593.0</ele><time>2026-04-25T08:10:14.889Z</time></trkpt><trkpt lat="41.094689" lon="-7.9394922"><ele>593.0</ele><time>2026-04-25T08:10:17.891Z</time></trkpt><trkpt lat="41.0946308" lon="-7.9394368"><ele>593.0</ele><time>2026-04-25T08:10:19.889Z</time></trkpt><trkpt lat="41.0945844" lon="-7.939333"><ele>593.0</ele><time>2026-04-25T08:10:22.888Z</time></trkpt><trkpt lat="41.0945344" lon="-7.9391655"><ele>593.0</ele><time>2026-04-25T08:10:26.889Z</time></trkpt><trkpt lat="41.0944782" lon="-7.9390698"><ele>595.6</ele><time>2026-04-25T08:10:28.887Z</time></trkpt><trkpt lat="41.0944326" lon="-7.9389451"><ele>598.1999999999999</ele><time>2026-04-25T08:10:30.892Z</time></trkpt><trkpt lat="41.0943976" lon="-7.9388394"><ele>600.8</ele><time>2026-04-25T08:10:32.89Z</time></trkpt><trkpt lat="41.0943855" lon="-7.9387528"><ele>603.4</ele><time>2026-04-25T08:14:42.888Z</time></trkpt><trkpt lat="41.0943485" lon="-7.9385201"><ele>606.0</ele><time>2026-04-25T08:14:47.889Z</time></trkpt><trkpt lat="41.0943254" lon="-7.9384181"><ele>605.1666666666666</ele><time>2026-04-25T08:14:49.883Z</time></trkpt><trkpt lat="41.0943047" lon="-7.9383115"><ele>604.3333333333334</ele><time>2026-04-25T08:14:51.89Z</time></trkpt><trkpt lat="41.0942839" lon="-7.9381988"><ele>603.5</ele><time>2026-04-25T08:14:53.885Z</time></trkpt><trkpt lat="41.0942458" lon="-7.9381074"><ele>602.6666666666667</ele><time>2026-04-25T08:14:55.893Z</time></trkpt><trkpt lat="41.0941865" lon="-7.9380364"><ele>601.8333333333334</ele><time>2026-04-25T08:14:58.884Z</time></trkpt><trkpt lat="41.0941178" lon="-7.9379824"><ele>601.0</ele><time>2026-04-25T08:15:01.884Z</time></trkpt><trkpt lat="41.0940737" lon="-7.9378693"><ele>601.0</ele><time>2026-04-25T08:15:04.887Z</time></trkpt><trkpt lat="41.0940305" lon="-7.9376999"><ele>601.0</ele><time>2026-04-25T08:15:08.886Z</time></trkpt><trkpt lat="41.0940097" lon="-7.9375876"><ele>601.0</ele><time>2026-04-25T08:15:10.883Z</time></trkpt><trkpt lat="41.0939812" lon="-7.9374454"><ele>601.0</ele><time>2026-04-25T08:15:12.887Z</time></trkpt><trkpt lat="41.0939454" lon="-7.9373008"><ele>601.0</ele><time>2026-04-25T08:15:14.884Z</time></trkpt><trkpt lat="41.093903" lon="-7.9371645"><ele>602.0</ele><time>2026-04-25T08:15:16.888Z</time></trkpt><trkpt lat="41.0938596" lon="-7.9370438"><ele>603.0</ele><time>2026-04-25T08:15:18.893Z</time></trkpt><trkpt lat="41.0938146" lon="-7.9369478"><ele>604.0</ele><time>2026-04-25T08:15:20.884Z</time></trkpt><trkpt lat="41.0937764" lon="-7.9368753"><ele>605.0</ele><time>2026-04-25T08:15:22.884Z</time></trkpt><trkpt lat="41.0937108" lon="-7.936783"><ele>606.0</ele><time>2026-04-25T08:15:25.885Z</time></trkpt><trkpt lat="41.0936361" lon="-7.9366173"><ele>606.8571428571429</ele><time>2026-04-25T08:15:29.886Z</time></trkpt><trkpt lat="41.0936048" lon="-7.9365351"><ele>607.7142857142857</ele><time>2026-04-25T08:15:31.885Z</time></trkpt><trkpt lat="41.0935918" lon="-7.9364419"><ele>608.5714285714286</ele><time>2026-04-25T08:15:33.889Z</time></trkpt><trkpt lat="41.0935795" lon="-7.9363401"><ele>609.4285714285714</ele><time>2026-04-25T08:15:35.883Z</time></trkpt><trkpt lat="41.0935697" lon="-7.9362362"><ele>610.2857142857143</ele><time>2026-04-25T08:15:37.884Z</time></trkpt><trkpt lat="41.093552" lon="-7.9361418"><ele>611.1428571428571</ele><time>2026-04-25T08:15:39.889Z</time></trkpt><trkpt lat="41.0935112" lon="-7.9360645"><ele>612.0</ele><time>2026-04-25T08:15:41.884Z</time></trkpt><trkpt lat="41.0934444" lon="-7.9360263"><ele>612.0</ele><time>2026-04-25T08:15:43.893Z</time></trkpt><trkpt lat="41.0933831" lon="-7.9359797"><ele>612.0</ele><time>2026-04-25T08:15:45.891Z</time></trkpt><trkpt lat="41.0933242" lon="-7.9359323"><ele>612.0</ele><time>2026-04-25T08:15:47.887Z</time></trkpt><trkpt lat="41.0931779" lon="-7.9358847"><ele>612.0</ele><time>2026-04-25T08:15:51.895Z</time></trkpt><trkpt lat="41.0931031" lon="-7.935834"><ele>612.0</ele><time>2026-04-25T08:15:53.882Z</time></trkpt><trkpt lat="41.0930399" lon="-7.9357691"><ele>612.5</ele><time>2026-04-25T08:15:55.883Z</time></trkpt><trkpt lat="41.0929879" lon="-7.9356993"><ele>613.0</ele><time>2026-04-25T08:15:57.891Z</time></trkpt><trkpt lat="41.0929369" lon="-7.9356419"><ele>613.5</ele><time>2026-04-25T08:15:59.886Z</time></trkpt><trkpt lat="41.0928691" lon="-7.9355982"><ele>614.0</ele><time>2026-04-25T08:16:01.885Z</time></trkpt><trkpt lat="41.0927809" lon="-7.935527"><ele>614.5</ele><time>2026-04-25T08:16:03.893Z</time></trkpt><trkpt lat="41.0927361" lon="-7.9354642"><ele>615.0</ele><time>2026-04-25T08:16:04.885Z</time></trkpt><trkpt lat="41.0926956" lon="-7.9353939"><ele>615.0</ele><time>2026-04-25T08:16:05.885Z</time></trkpt><trkpt lat="41.0926555" lon="-7.9353126"><ele>615.0</ele><time>2026-04-25T08:16:06.883Z</time></trkpt><trkpt lat="41.092622" lon="-7.9352229"><ele>615.0</ele><time>2026-04-25T08:16:07.885Z</time></trkpt><trkpt lat="41.0925968" lon="-7.9351186"><ele>615.0</ele><time>2026-04-25T08:16:08.888Z</time></trkpt><trkpt lat="41.0925409" lon="-7.9348964"><ele>615.0</ele><time>2026-04-25T08:16:10.886Z</time></trkpt><trkpt lat="41.0925052" lon="-7.9347939"><ele>615.3333333333334</ele><time>2026-04-25T08:16:11.884Z</time></trkpt><trkpt lat="41.0924625" lon="-7.9346946"><ele>615.6666666666666</ele><time>2026-04-25T08:16:12.888Z</time></trkpt><trkpt lat="41.0924114" lon="-7.9346034"><ele>616.0</ele><time>2026-04-25T08:16:13.885Z</time></trkpt><trkpt lat="41.0923527" lon="-7.9345218"><ele>616.3333333333333</ele><time>2026-04-25T08:16:14.885Z</time></trkpt><trkpt lat="41.0922829" lon="-7.9344561"><ele>616.6666666666666</ele><time>2026-04-25T08:16:15.893Z</time></trkpt><trkpt lat="41.0922024" lon="-7.9344056"><ele>617.0</ele><time>2026-04-25T08:16:16.886Z</time></trkpt><trkpt lat="41.0921171" lon="-7.9343513"><ele>617.8000000000001</ele><time>2026-04-25T08:16:17.888Z</time></trkpt><trkpt lat="41.0920295" lon="-7.9342933"><ele>618.6</ele><time>2026-04-25T08:16:18.884Z</time></trkpt><trkpt lat="41.0919318" lon="-7.934244"><ele>619.4000000000001</ele><time>2026-04-25T08:16:19.889Z</time></trkpt><trkpt lat="41.0918273" lon="-7.9342113"><ele>620.2</ele><time>2026-04-25T08:16:20.888Z</time></trkpt><trkpt lat="41.0917243" lon="-7.9341937"><ele>621.0</ele><time>2026-04-25T08:16:21.887Z</time></trkpt><trkpt lat="41.0916199" lon="-7.9341932"><ele>623.8</ele><time>2026-04-25T08:16:22.891Z</time></trkpt><trkpt lat="41.0915194" lon="-7.9342007"><ele>626.6</ele><time>2026-04-25T08:16:23.896Z</time></trkpt><trkpt lat="41.0914203" lon="-7.934213"><ele>629.4</ele><time>2026-04-25T08:16:24.884Z</time></trkpt><trkpt lat="41.0913228" lon="-7.9342181"><ele>632.2</ele><time>2026-04-25T08:16:25.888Z</time></trkpt><trkpt lat="41.0912299" lon="-7.9342183"><ele>635.0</ele><time>2026-04-25T08:16:26.887Z</time></trkpt><trkpt lat="41.0911358" lon="-7.9342135"><ele>635.0</ele><time>2026-04-25T08:16:27.888Z</time></trkpt><trkpt lat="41.091037" lon="-7.9342011"><ele>635.0</ele><time>2026-04-25T08:16:28.881Z</time></trkpt><trkpt lat="41.090937" lon="-7.9341622"><ele>635.0</ele><time>2026-04-25T08:16:29.886Z</time></trkpt><trkpt lat="41.0907604" lon="-7.9340452"><ele>635.0</ele><time>2026-04-25T08:16:31.893Z</time></trkpt><trkpt lat="41.0906794" lon="-7.9339777"><ele>635.0</ele><time>2026-04-25T08:16:32.884Z</time></trkpt><trkpt lat="41.0905969" lon="-7.9339151"><ele>635.0</ele><time>2026-04-25T08:16:33.887Z</time></trkpt><trkpt lat="41.0905124" lon="-7.9338561"><ele>635.0</ele><time>2026-04-25T08:16:34.889Z</time></trkpt><trkpt lat="41.0904205" lon="-7.9337958"><ele>635.0</ele><time>2026-04-25T08:16:35.891Z</time></trkpt><trkpt lat="41.0903244" lon="-7.9337371"><ele>635.0</ele><time>2026-04-25T08:16:36.887Z</time></trkpt><trkpt lat="41.0902207" lon="-7.9336795"><ele>635.0</ele><time>2026-04-25T08:16:37.889Z</time></trkpt><trkpt lat="41.0901164" lon="-7.9336207"><ele>635.0</ele><time>2026-04-25T08:16:38.893Z</time></trkpt><trkpt lat="41.09001" lon="-7.9335718"><ele>635.0</ele><time>2026-04-25T08:16:39.884Z</time></trkpt><trkpt lat="41.0899009" lon="-7.9335274"><ele>635.0</ele><time>2026-04-25T08:16:40.887Z</time></trkpt><trkpt lat="41.0897943" lon="-7.93349"><ele>635.6</ele><time>2026-04-25T08:16:41.883Z</time></trkpt><trkpt lat="41.0896924" lon="-7.9334542"><ele>636.2</ele><time>2026-04-25T08:16:42.889Z</time></trkpt><trkpt lat="41.0895885" lon="-7.9334298"><ele>636.8</ele><time>2026-04-25T08:16:43.886Z</time></trkpt><trkpt lat="41.0894828" lon="-7.9334217"><ele>637.4</ele><time>2026-04-25T08:16:44.887Z</time></trkpt><trkpt lat="41.0893747" lon="-7.9334309"><ele>638.0</ele><time>2026-04-25T08:16:45.879Z</time></trkpt><trkpt lat="41.0892645" lon="-7.9334509"><ele>638.0</ele><time>2026-04-25T08:16:46.892Z</time></trkpt><trkpt lat="41.0891564" lon="-7.9334763"><ele>638.0</ele><time>2026-04-25T08:16:47.884Z</time></trkpt><trkpt lat="41.0890512" lon="-7.9334964"><ele>638.0</ele><time>2026-04-25T08:16:48.884Z</time></trkpt><trkpt lat="41.0889472" lon="-7.9335132"><ele>638.0</ele><time>2026-04-25T08:16:49.884Z</time></trkpt><trkpt lat="41.0888419" lon="-7.9335252"><ele>638.0</ele><time>2026-04-25T08:16:50.898Z</time></trkpt><trkpt lat="41.0886284" lon="-7.9335235"><ele>637.75</ele><time>2026-04-25T08:16:52.888Z</time></trkpt><trkpt lat="41.0885141" lon="-7.9335136"><ele>637.5</ele><time>2026-04-25T08:16:53.884Z</time></trkpt><trkpt lat="41.0883953" lon="-7.9335047"><ele>637.25</ele><time>2026-04-25T08:16:54.885Z</time></trkpt><trkpt lat="41.0882825" lon="-7.933493"><ele>637.0</ele><time>2026-04-25T08:16:55.892Z</time></trkpt><trkpt lat="41.0881726" lon="-7.9334755"><ele>637.0</ele><time>2026-04-25T08:16:56.887Z</time></trkpt><trkpt lat="41.0880664" lon="-7.9334426"><ele>637.0</ele><time>2026-04-25T08:16:57.889Z</time></trkpt><trkpt lat="41.0879662" lon="-7.9333909"><ele>637.0</ele><time>2026-04-25T08:16:58.889Z</time></trkpt><trkpt lat="41.0878589" lon="-7.9333194"><ele>637.0</ele><time>2026-04-25T08:16:59.887Z</time></trkpt><trkpt lat="41.0877515" lon="-7.9332363"><ele>639.75</ele><time>2026-04-25T08:17:00.884Z</time></trkpt><trkpt lat="41.0876513" lon="-7.9331425"><ele>642.5</ele><time>2026-04-25T08:17:01.894Z</time></trkpt><trkpt lat="41.0875504" lon="-7.9330469"><ele>645.25</ele><time>2026-04-25T08:17:02.884Z</time></trkpt><trkpt lat="41.0874465" lon="-7.932942"><ele>648.0</ele><time>2026-04-25T08:17:03.892Z</time></trkpt><trkpt lat="41.0873405" lon="-7.9328374"><ele>648.0</ele><time>2026-04-25T08:17:04.889Z</time></trkpt><trkpt lat="41.0872321" lon="-7.9327317"><ele>648.0</ele><time>2026-04-25T08:17:05.884Z</time></trkpt><trkpt lat="41.0871357" lon="-7.9326294"><ele>648.0</ele><time>2026-04-25T08:17:06.89Z</time></trkpt><trkpt lat="41.0870428" lon="-7.9325475"><ele>648.0</ele><time>2026-04-25T08:17:07.881Z</time></trkpt><trkpt lat="41.0869414" lon="-7.9324871"><ele>648.0</ele><time>2026-04-25T08:17:08.885Z</time></trkpt><trkpt lat="41.0868325" lon="-7.9324874"><ele>648.0</ele><time>2026-04-25T08:17:09.884Z</time></trkpt><trkpt lat="41.0867307" lon="-7.9325576"><ele>648.0</ele><time>2026-04-25T08:17:10.898Z</time></trkpt><trkpt lat="41.0866356" lon="-7.9326529"><ele>648.0</ele><time>2026-04-25T08:17:11.886Z</time></trkpt><trkpt lat="41.086443" lon="-7.9328494"><ele>649.2</ele><time>2026-04-25T08:17:13.895Z</time></trkpt><trkpt lat="41.0863496" lon="-7.9329353"><ele>650.4</ele><time>2026-04-25T08:17:14.882Z</time></trkpt><trkpt lat="41.0862575" lon="-7.9330096"><ele>651.6</ele><time>2026-04-25T08:17:15.889Z</time></trkpt><trkpt lat="41.0861714" lon="-7.9330633"><ele>652.8000000000001</ele><time>2026-04-25T08:17:16.899Z</time></trkpt><trkpt lat="41.0860828" lon="-7.9330979"><ele>654.0</ele><time>2026-04-25T08:17:17.886Z</time></trkpt><trkpt lat="41.0859876" lon="-7.9331071"><ele>654.0</ele><time>2026-04-25T08:17:18.884Z</time></trkpt><trkpt lat="41.0858772" lon="-7.9330958"><ele>654.0</ele><time>2026-04-25T08:17:19.891Z</time></trkpt><trkpt lat="41.0857633" lon="-7.9330656"><ele>654.0</ele><time>2026-04-25T08:17:20.891Z</time></trkpt><trkpt lat="41.0856519" lon="-7.9330239"><ele>654.0</ele><time>2026-04-25T08:17:21.889Z</time></trkpt><trkpt lat="41.0855419" lon="-7.9329729"><ele>653.5</ele><time>2026-04-25T08:17:22.888Z</time></trkpt><trkpt lat="41.0854291" lon="-7.9329186"><ele>653.0</ele><time>2026-04-25T08:17:23.883Z</time></trkpt><trkpt lat="41.0853163" lon="-7.932867"><ele>652.5</ele><time>2026-04-25T08:17:24.884Z</time></trkpt><trkpt lat="41.0851956" lon="-7.9328133"><ele>652.0</ele><time>2026-04-25T08:17:25.88Z</time></trkpt><trkpt lat="41.0850707" lon="-7.9327508"><ele>652.0</ele><time>2026-04-25T08:17:26.891Z</time></trkpt><trkpt lat="41.0849464" lon="-7.9326787"><ele>652.0</ele><time>2026-04-25T08:17:27.889Z</time></trkpt><trkpt lat="41.0848183" lon="-7.9326058"><ele>652.0</ele><time>2026-04-25T08:17:28.883Z</time></trkpt><trkpt lat="41.0846869" lon="-7.9325381"><ele>652.0</ele><time>2026-04-25T08:17:29.879Z</time></trkpt><trkpt lat="41.084558" lon="-7.9324847"><ele>661.3333333333334</ele><time>2026-04-25T08:17:30.886Z</time></trkpt><trkpt lat="41.0844327" lon="-7.9324521"><ele>670.6666666666666</ele><time>2026-04-25T08:17:31.888Z</time></trkpt><trkpt lat="41.0843057" lon="-7.9324494"><ele>680.0</ele><time>2026-04-25T08:17:32.884Z</time></trkpt><trkpt lat="41.084052" lon="-7.9325035"><ele>680.25</ele><time>2026-04-25T08:17:34.891Z</time></trkpt><trkpt lat="41.0839358" lon="-7.9325282"><ele>680.5</ele><time>2026-04-25T08:17:35.889Z</time></trkpt><trkpt lat="41.0838215" lon="-7.9325419"><ele>680.75</ele><time>2026-04-25T08:17:36.883Z</time></trkpt><trkpt lat="41.0837049" lon="-7.9325266"><ele>681.0</ele><time>2026-04-25T08:17:37.883Z</time></trkpt><trkpt lat="41.0835918" lon="-7.9324893"><ele>681.0</ele><time>2026-04-25T08:17:38.89Z</time></trkpt><trkpt lat="41.0834923" lon="-7.9324332"><ele>681.0</ele><time>2026-04-25T08:17:39.883Z</time></trkpt><trkpt lat="41.0834056" lon="-7.932352"><ele>681.0</ele><time>2026-04-25T08:17:40.887Z</time></trkpt><trkpt lat="41.0833355" lon="-7.9322477"><ele>681.0</ele><time>2026-04-25T08:17:41.884Z</time></trkpt><trkpt lat="41.0832731" lon="-7.9321196"><ele>681.0</ele><time>2026-04-25T08:17:42.888Z</time></trkpt><trkpt lat="41.0832181" lon="-7.9319807"><ele>680.0</ele><time>2026-04-25T08:17:43.88Z</time></trkpt><trkpt lat="41.0831684" lon="-7.9318426"><ele>679.0</ele><time>2026-04-25T08:17:44.9Z</time></trkpt><trkpt lat="41.0831172" lon="-7.9317134"><ele>678.0</ele><time>2026-04-25T08:17:45.891Z</time></trkpt><trkpt lat="41.0830559" lon="-7.9315979"><ele>677.0</ele><time>2026-04-25T08:17:46.888Z</time></trkpt><trkpt lat="41.0829888" lon="-7.9314955"><ele>676.0</ele><time>2026-04-25T08:17:47.895Z</time></trkpt><trkpt lat="41.0829198" lon="-7.9314034"><ele>680.1999999999999</ele><time>2026-04-25T08:17:48.883Z</time></trkpt><trkpt lat="41.0828334" lon="-7.9313402"><ele>684.4</ele><time>2026-04-25T08:17:49.884Z</time></trkpt><trkpt lat="41.0827422" lon="-7.9313032"><ele>688.6</ele><time>2026-04-25T08:17:50.882Z</time></trkpt><trkpt lat="41.0826581" lon="-7.9312833"><ele>692.8</ele><time>2026-04-25T08:17:51.883Z</time></trkpt><trkpt lat="41.0825834" lon="-7.9312746"><ele>697.0</ele><time>2026-04-25T08:17:52.884Z</time></trkpt><trkpt lat="41.082479" lon="-7.9312806"><ele>697.0</ele><time>2026-04-25T08:17:54.887Z</time></trkpt><trkpt lat="41.082583" lon="-7.9311279"><ele>697.0</ele><time>2026-04-25T08:17:59.894Z</time></trkpt><trkpt lat="41.0826552" lon="-7.9310739"><ele>697.0</ele><time>2026-04-25T08:18:00.882Z</time></trkpt><trkpt lat="41.0827229" lon="-7.9310192"><ele>697.0</ele><time>2026-04-25T08:18:01.886Z</time></trkpt><trkpt lat="41.0827801" lon="-7.9309557"><ele>697.0</ele><time>2026-04-25T08:18:02.878Z</time></trkpt><trkpt lat="41.0827773" lon="-7.930819"><ele>700.1666666666667</ele><time>2026-04-25T08:18:04.894Z</time></trkpt><trkpt lat="41.0827024" lon="-7.9307167"><ele>703.3333333333334</ele><time>2026-04-25T08:18:06.885Z</time></trkpt><trkpt lat="41.0826545" lon="-7.9305926"><ele>706.5</ele><time>2026-04-25T08:18:08.882Z</time></trkpt><trkpt lat="41.0826801" lon="-7.9305038"><ele>709.6666666666666</ele><time>2026-04-25T08:18:09.886Z</time></trkpt><trkpt lat="41.082708" lon="-7.9304041"><ele>712.8333333333333</ele><time>2026-04-25T08:18:10.883Z</time></trkpt><trkpt lat="41.0827261" lon="-7.9302979"><ele>716.0</ele><time>2026-04-25T08:18:11.886Z</time></trkpt><trkpt lat="41.0827352" lon="-7.9301909"><ele>716.0</ele><time>2026-04-25T08:18:12.884Z</time></trkpt><trkpt lat="41.0827368" lon="-7.9300869"><ele>716.0</ele><time>2026-04-25T08:18:13.884Z</time></trkpt><trkpt lat="41.082734" lon="-7.9299907"><ele>716.0</ele><time>2026-04-25T08:18:14.89Z</time></trkpt><trkpt lat="41.0827272" lon="-7.9299032"><ele>716.0</ele><time>2026-04-25T08:18:15.892Z</time></trkpt><trkpt lat="41.0828028" lon="-7.929638"><ele>716.0</ele><time>2026-04-25T08:18:19.886Z</time></trkpt><trkpt lat="41.0829038" lon="-7.9295707"><ele>719.0</ele><time>2026-04-25T08:18:21.887Z</time></trkpt><trkpt lat="41.0830288" lon="-7.9295892"><ele>722.0</ele><time>2026-04-25T08:18:23.885Z</time></trkpt><trkpt lat="41.0831046" lon="-7.9296406"><ele>725.0</ele><time>2026-04-25T08:18:24.888Z</time></trkpt><trkpt lat="41.0831819" lon="-7.9297046"><ele>728.0</ele><time>2026-04-25T08:18:25.887Z</time></trkpt><trkpt lat="41.0832555" lon="-7.9297644"><ele>731.0</ele><time>2026-04-25T08:18:26.887Z</time></trkpt><trkpt lat="41.0833114" lon="-7.9298163"><ele>732.3333333333333</ele><time>2026-04-25T08:18:27.896Z</time></trkpt><trkpt lat="41.0833724" lon="-7.9298666"><ele>733.6666666666666</ele><time>2026-04-25T08:18:29.886Z</time></trkpt><trkpt lat="41.0834278" lon="-7.9297871"><ele>735.0</ele><time>2026-04-25T08:18:32.89Z</time></trkpt><trkpt lat="41.0833813" lon="-7.9296713"><ele>736.3333333333334</ele><time>2026-04-25T08:18:34.892Z</time></trkpt><trkpt lat="41.0833433" lon="-7.9296034"><ele>737.6666666666667</ele><time>2026-04-25T08:18:35.894Z</time></trkpt><trkpt lat="41.0833102" lon="-7.9295254"><ele>739.0</ele><time>2026-04-25T08:18:36.883Z</time></trkpt><trkpt lat="41.0832807" lon="-7.9293585"><ele>739.0</ele><time>2026-04-25T08:18:38.885Z</time></trkpt><trkpt lat="41.0832753" lon="-7.9292654"><ele>739.0</ele><time>2026-04-25T08:18:39.891Z</time></trkpt><trkpt lat="41.0832891" lon="-7.9291723"><ele>739.0</ele><time>2026-04-25T08:18:40.881Z</time></trkpt><trkpt lat="41.0833059" lon="-7.9290753"><ele>739.0</ele><time>2026-04-25T08:18:41.882Z</time></trkpt><trkpt lat="41.0833151" lon="-7.9289776"><ele>739.0</ele><time>2026-04-25T08:18:42.89Z</time></trkpt><trkpt lat="41.0833221" lon="-7.9288798"><ele>739.0</ele><time>2026-04-25T08:18:43.886Z</time></trkpt><trkpt lat="41.0833186" lon="-7.9287847"><ele>739.0</ele><time>2026-04-25T08:18:44.887Z</time></trkpt><trkpt lat="41.0833072" lon="-7.928689"><ele>740.6666666666667</ele><time>2026-04-25T08:18:45.896Z</time></trkpt><trkpt lat="41.0832939" lon="-7.9286065"><ele>742.3333333333334</ele><time>2026-04-25T08:18:46.882Z</time></trkpt><trkpt lat="41.0832654" lon="-7.9284857"><ele>744.0</ele><time>2026-04-25T08:18:48.888Z</time></trkpt><trkpt lat="41.0832333" lon="-7.9283782"><ele>745.6666666666666</ele><time>2026-04-25T08:18:51.887Z</time></trkpt><trkpt lat="41.0832156" lon="-7.9282775"><ele>747.3333333333333</ele><time>2026-04-25T08:18:55.889Z</time></trkpt><trkpt lat="41.083163" lon="-7.928206"><ele>749.0</ele><time>2026-04-25T08:18:58.891Z</time></trkpt><trkpt lat="41.0829897" lon="-7.9280931"><ele>750.1666666666666</ele><time>2026-04-25T08:19:02.888Z</time></trkpt><trkpt lat="41.0829268" lon="-7.9280679"><ele>751.3333333333333</ele><time>2026-04-25T08:19:03.895Z</time></trkpt><trkpt lat="41.0828641" lon="-7.9280422"><ele>752.5</ele><time>2026-04-25T08:19:04.885Z</time></trkpt><trkpt lat="41.0828021" lon="-7.928025"><ele>753.6666666666666</ele><time>2026-04-25T08:19:05.884Z</time></trkpt><trkpt lat="41.0826927" lon="-7.9280151"><ele>754.8333333333334</ele><time>2026-04-25T08:19:07.891Z</time></trkpt><trkpt lat="41.0826314" lon="-7.9279433"><ele>756.0</ele><time>2026-04-25T08:19:10.884Z</time></trkpt><trkpt lat="41.0826529" lon="-7.9278298"><ele>756.0</ele><time>2026-04-25T08:19:12.884Z</time></trkpt><trkpt lat="41.0827031" lon="-7.9277229"><ele>756.0</ele><time>2026-04-25T08:19:14.883Z</time></trkpt><trkpt lat="41.082758" lon="-7.9276098"><ele>756.0</ele><time>2026-04-25T08:19:16.885Z</time></trkpt><trkpt lat="41.0828024" lon="-7.9275146"><ele>756.0</ele><time>2026-04-25T08:19:18.886Z</time></trkpt><trkpt lat="41.0827971" lon="-7.9274256"><ele>756.0</ele><time>2026-04-25T08:19:20.885Z</time></trkpt><trkpt lat="41.0826875" lon="-7.9272052"><ele>758.1999999999999</ele><time>2026-04-25T08:19:24.883Z</time></trkpt><trkpt lat="41.0826127" lon="-7.92709"><ele>760.4</ele><time>2026-04-25T08:19:26.882Z</time></trkpt><trkpt lat="41.0825292" lon="-7.9269805"><ele>762.6</ele><time>2026-04-25T08:19:28.883Z</time></trkpt><trkpt lat="41.0824464" lon="-7.9268848"><ele>764.8</ele><time>2026-04-25T08:19:30.883Z</time></trkpt><trkpt lat="41.0823834" lon="-7.9267923"><ele>767.0</ele><time>2026-04-25T08:19:32.899Z</time></trkpt><trkpt lat="41.0823312" lon="-7.9266858"><ele>771.4000000000001</ele><time>2026-04-25T08:19:34.882Z</time></trkpt><trkpt lat="41.0822555" lon="-7.9265979"><ele>775.8000000000001</ele><time>2026-04-25T08:19:36.882Z</time></trkpt><trkpt lat="41.0821524" lon="-7.9265288"><ele>780.2</ele><time>2026-04-25T08:19:38.901Z</time></trkpt><trkpt lat="41.0820502" lon="-7.9264684"><ele>784.6</ele><time>2026-04-25T08:19:40.89Z</time></trkpt><trkpt lat="41.0819424" lon="-7.926429"><ele>789.0</ele><time>2026-04-25T08:19:42.889Z</time></trkpt><trkpt lat="41.0817583" lon="-7.9264175"><ele>789.0</ele><time>2026-04-25T08:19:45.897Z</time></trkpt><trkpt lat="41.0816403" lon="-7.9263894"><ele>789.0</ele><time>2026-04-25T08:19:47.88Z</time></trkpt><trkpt lat="41.0815377" lon="-7.9263467"><ele>789.0</ele><time>2026-04-25T08:19:49.884Z</time></trkpt><trkpt lat="41.0814383" lon="-7.926285"><ele>789.0</ele><time>2026-04-25T08:19:51.893Z</time></trkpt><trkpt lat="41.0813254" lon="-7.926233"><ele>788.1666666666666</ele><time>2026-04-25T08:19:53.883Z</time></trkpt><trkpt lat="41.081268" lon="-7.9261962"><ele>787.3333333333333</ele><time>2026-04-25T08:19:54.892Z</time></trkpt><trkpt lat="41.0811789" lon="-7.9261083"><ele>786.5</ele><time>2026-04-25T08:19:56.88Z</time></trkpt><trkpt lat="41.0811451" lon="-7.9260049"><ele>785.6666666666666</ele><time>2026-04-25T08:19:58.882Z</time></trkpt><trkpt lat="41.0811881" lon="-7.9259324"><ele>784.8333333333333</ele><time>2026-04-25T08:20:00.882Z</time></trkpt><trkpt lat="41.0812622" lon="-7.9259036"><ele>784.0</ele><time>2026-04-25T08:20:02.887Z</time></trkpt><trkpt lat="41.0812708" lon="-7.9258115"><ele>788.6</ele><time>2026-04-25T08:20:05.891Z</time></trkpt><trkpt lat="41.0811081" lon="-7.9257509"><ele>793.2</ele><time>2026-04-25T08:20:09.882Z</time></trkpt><trkpt lat="41.0810271" lon="-7.9257146"><ele>797.8000000000001</ele><time>2026-04-25T08:20:11.88Z</time></trkpt><trkpt lat="41.0809636" lon="-7.925693"><ele>802.4000000000001</ele><time>2026-04-25T08:20:13.89Z</time></trkpt><trkpt lat="41.0808953" lon="-7.9256681"><ele>807.0</ele><time>2026-04-25T08:20:15.886Z</time></trkpt><trkpt lat="41.0808138" lon="-7.9256472"><ele>805.2</ele><time>2026-04-25T08:20:17.895Z</time></trkpt><trkpt lat="41.0807205" lon="-7.9256243"><ele>803.4000000000001</ele><time>2026-04-25T08:20:19.883Z</time></trkpt><trkpt lat="41.0806178" lon="-7.9256128"><ele>801.5999999999999</ele><time>2026-04-25T08:20:21.883Z</time></trkpt><trkpt lat="41.0805162" lon="-7.9255672"><ele>799.8</ele><time>2026-04-25T08:20:23.882Z</time></trkpt><trkpt lat="41.0804315" lon="-7.9254745"><ele>798.0</ele><time>2026-04-25T08:20:25.89Z</time></trkpt><trkpt lat="41.0803575" lon="-7.9253651"><ele>798.0</ele><time>2026-04-25T08:20:27.884Z</time></trkpt><trkpt lat="41.0802199" lon="-7.9250958"><ele>798.0</ele><time>2026-04-25T08:20:31.887Z</time></trkpt><trkpt lat="41.080171" lon="-7.9250198"><ele>798.0</ele><time>2026-04-25T08:20:32.888Z</time></trkpt><trkpt lat="41.0801138" lon="-7.9249503"><ele>798.0</ele><time>2026-04-25T08:20:33.893Z</time></trkpt><trkpt lat="41.0800434" lon="-7.9248968"><ele>800.5</ele><time>2026-04-25T08:20:34.886Z</time></trkpt><trkpt lat="41.0799674" lon="-7.924849"><ele>803.0</ele><time>2026-04-25T08:20:35.887Z</time></trkpt><trkpt lat="41.0798877" lon="-7.9248111"><ele>805.5</ele><time>2026-04-25T08:20:36.894Z</time></trkpt><trkpt lat="41.0798136" lon="-7.9247814"><ele>808.0</ele><time>2026-04-25T08:20:37.883Z</time></trkpt><trkpt lat="41.0797372" lon="-7.9247688"><ele>810.5</ele><time>2026-04-25T08:20:38.884Z</time></trkpt><trkpt lat="41.0796583" lon="-7.9247799"><ele>813.0</ele><time>2026-04-25T08:20:39.894Z</time></trkpt><trkpt lat="41.0795817" lon="-7.9248087"><ele>813.5</ele><time>2026-04-25T08:20:40.889Z</time></trkpt><trkpt lat="41.0795096" lon="-7.9248389"><ele>814.0</ele><time>2026-04-25T08:20:41.881Z</time></trkpt><trkpt lat="41.0794401" lon="-7.9248604"><ele>814.5</ele><time>2026-04-25T08:20:42.88Z</time></trkpt><trkpt lat="41.0793686" lon="-7.9248849"><ele>815.0</ele><time>2026-04-25T08:20:43.891Z</time></trkpt><trkpt lat="41.0792895" lon="-7.9249079"><ele>815.5</ele><time>2026-04-25T08:20:44.882Z</time></trkpt><trkpt lat="41.0792073" lon="-7.9249182"><ele>816.0</ele><time>2026-04-25T08:20:45.885Z</time></trkpt><trkpt lat="41.079126" lon="-7.9249214"><ele>818.1999999999999</ele><time>2026-04-25T08:20:46.887Z</time></trkpt><trkpt lat="41.0790461" lon="-7.9249239"><ele>820.4</ele><time>2026-04-25T08:20:47.89Z</time></trkpt><trkpt lat="41.0789686" lon="-7.9249277"><ele>822.6</ele><time>2026-04-25T08:20:48.883Z</time></trkpt><trkpt lat="41.0788232" lon="-7.9249568"><ele>824.8</ele><time>2026-04-25T08:20:50.882Z</time></trkpt><trkpt lat="41.07876" lon="-7.924978"><ele>827.0</ele><time>2026-04-25T08:20:51.883Z</time></trkpt><trkpt lat="41.078637" lon="-7.925019"><ele>825.5</ele><time>2026-04-25T08:20:53.882Z</time></trkpt><trkpt lat="41.0785297" lon="-7.9250813"><ele>824.0</ele><time>2026-04-25T08:20:55.887Z</time></trkpt><trkpt lat="41.0784544" lon="-7.9251872"><ele>822.5</ele><time>2026-04-25T08:20:57.882Z</time></trkpt><trkpt lat="41.0783973" lon="-7.9253139"><ele>821.0</ele><time>2026-04-25T08:20:59.888Z</time></trkpt><trkpt lat="41.0783228" lon="-7.9254389"><ele>820.1999999999999</ele><time>2026-04-25T08:21:01.887Z</time></trkpt><trkpt lat="41.0782214" lon="-7.9255149"><ele>819.4</ele><time>2026-04-25T08:21:03.883Z</time></trkpt><trkpt lat="41.0781144" lon="-7.9255056"><ele>818.6</ele><time>2026-04-25T08:21:05.884Z</time></trkpt><trkpt lat="41.0779964" lon="-7.9254419"><ele>817.8</ele><time>2026-04-25T08:21:07.886Z</time></trkpt><trkpt lat="41.0779398" lon="-7.9254013"><ele>817.0</ele><time>2026-04-25T08:21:08.884Z</time></trkpt><trkpt lat="41.0778324" lon="-7.9253267"><ele>817.0</ele><time>2026-04-25T08:21:10.885Z</time></trkpt><trkpt lat="41.0776328" lon="-7.9251633"><ele>817.0</ele><time>2026-04-25T08:21:14.887Z</time></trkpt><trkpt lat="41.0775802" lon="-7.925104"><ele>817.0</ele><time>2026-04-25T08:21:15.889Z</time></trkpt><trkpt lat="41.0775235" lon="-7.9250454"><ele>817.0</ele><time>2026-04-25T08:21:16.888Z</time></trkpt><trkpt lat="41.0774715" lon="-7.9249927"><ele>817.0</ele><time>2026-04-25T08:21:17.885Z</time></trkpt><trkpt lat="41.0774163" lon="-7.9249444"><ele>816.8333333333333</ele><time>2026-04-25T08:21:18.89Z</time></trkpt><trkpt lat="41.0773633" lon="-7.9248976"><ele>816.6666666666666</ele><time>2026-04-25T08:21:19.882Z</time></trkpt><trkpt lat="41.0772663" lon="-7.9248054"><ele>816.5</ele><time>2026-04-25T08:21:21.888Z</time></trkpt><trkpt lat="41.077172" lon="-7.9247073"><ele>816.3333333333333</ele><time>2026-04-25T08:21:23.884Z</time></trkpt><trkpt lat="41.0771202" lon="-7.9246584"><ele>816.1666666666666</ele><time>2026-04-25T08:21:24.906Z</time></trkpt><trkpt lat="41.077064" lon="-7.924613"><ele>816.0</ele><time>2026-04-25T08:21:25.884Z</time></trkpt><trkpt lat="41.0770003" lon="-7.9245666"><ele>816.0</ele><time>2026-04-25T08:21:26.885Z</time></trkpt><trkpt lat="41.0769335" lon="-7.9245216"><ele>816.0</ele><time>2026-04-25T08:21:27.885Z</time></trkpt><trkpt lat="41.0768666" lon="-7.9244808"><ele>816.0</ele><time>2026-04-25T08:21:28.896Z</time></trkpt><trkpt lat="41.0768037" lon="-7.9244468"><ele>816.0</ele><time>2026-04-25T08:21:29.886Z</time></trkpt><trkpt lat="41.076738" lon="-7.9244232"><ele>816.0</ele><time>2026-04-25T08:21:30.883Z</time></trkpt><trkpt lat="41.0766652" lon="-7.9244079"><ele>816.0</ele><time>2026-04-25T08:21:31.888Z</time></trkpt><trkpt lat="41.0765178" lon="-7.9243949"><ele>816.4285714285714</ele><time>2026-04-25T08:21:33.884Z</time></trkpt><trkpt lat="41.0764439" lon="-7.9243859"><ele>816.8571428571429</ele><time>2026-04-25T08:21:34.888Z</time></trkpt><trkpt lat="41.0763714" lon="-7.9243652"><ele>817.2857142857142</ele><time>2026-04-25T08:21:35.884Z</time></trkpt><trkpt lat="41.0763006" lon="-7.9243353"><ele>817.7142857142858</ele><time>2026-04-25T08:21:36.884Z</time></trkpt><trkpt lat="41.0762412" lon="-7.9242977"><ele>818.1428571428571</ele><time>2026-04-25T08:21:37.889Z</time></trkpt><trkpt lat="41.0761879" lon="-7.9242526"><ele>818.5714285714286</ele><time>2026-04-25T08:21:38.884Z</time></trkpt><trkpt lat="41.07613" lon="-7.9242056"><ele>819.0</ele><time>2026-04-25T08:21:39.885Z</time></trkpt><trkpt lat="41.0760708" lon="-7.924154"><ele>819.0</ele><time>2026-04-25T08:21:40.884Z</time></trkpt><trkpt lat="41.0760146" lon="-7.9240959"><ele>819.0</ele><time>2026-04-25T08:21:41.884Z</time></trkpt><trkpt lat="41.0759536" lon="-7.9240372"><ele>819.0</ele><time>2026-04-25T08:21:42.891Z</time></trkpt><trkpt lat="41.0758924" lon="-7.9239764"><ele>819.0</ele><time>2026-04-25T08:21:43.906Z</time></trkpt><trkpt lat="41.0758306" lon="-7.9239125"><ele>819.0</ele><time>2026-04-25T08:21:44.881Z</time></trkpt><trkpt lat="41.0757736" lon="-7.9238398"><ele>819.0</ele><time>2026-04-25T08:21:45.888Z</time></trkpt><trkpt lat="41.0757314" lon="-7.9237578"><ele>818.8333333333334</ele><time>2026-04-25T08:21:46.889Z</time></trkpt><trkpt lat="41.0756934" lon="-7.92367"><ele>818.6666666666667</ele><time>2026-04-25T08:21:47.887Z</time></trkpt><trkpt lat="41.075652" lon="-7.9235836"><ele>818.5</ele><time>2026-04-25T08:21:48.887Z</time></trkpt><trkpt lat="41.0756041" lon="-7.9234956"><ele>818.3333333333334</ele><time>2026-04-25T08:21:49.884Z</time></trkpt><trkpt lat="41.0755422" lon="-7.9234066"><ele>818.1666666666667</ele><time>2026-04-25T08:21:50.882Z</time></trkpt><trkpt lat="41.0754787" lon="-7.9233088"><ele>818.0</ele><time>2026-04-25T08:21:51.889Z</time></trkpt><trkpt lat="41.0754141" lon="-7.9231959"><ele>818.0</ele><time>2026-04-25T08:21:52.883Z</time></trkpt><trkpt lat="41.0752998" lon="-7.9229551"><ele>818.0</ele><time>2026-04-25T08:21:54.887Z</time></trkpt><trkpt lat="41.07525" lon="-7.9228419"><ele>818.0</ele><time>2026-04-25T08:21:55.885Z</time></trkpt><trkpt lat="41.075195" lon="-7.922733"><ele>818.0</ele><time>2026-04-25T08:21:56.884Z</time></trkpt><trkpt lat="41.0751343" lon="-7.9226301"><ele>819.4</ele><time>2026-04-25T08:21:57.894Z</time></trkpt><trkpt lat="41.0750643" lon="-7.9225344"><ele>820.8</ele><time>2026-04-25T08:21:58.89Z</time></trkpt><trkpt lat="41.0749891" lon="-7.9224495"><ele>822.2</ele><time>2026-04-25T08:21:59.889Z</time></trkpt><trkpt lat="41.0749094" lon="-7.9223749"><ele>823.6</ele><time>2026-04-25T08:22:00.89Z</time></trkpt><trkpt lat="41.0748295" lon="-7.9223182"><ele>825.0</ele><time>2026-04-25T08:22:01.898Z</time></trkpt><trkpt lat="41.0747582" lon="-7.9222764"><ele>825.2</ele><time>2026-04-25T08:22:02.887Z</time></trkpt><trkpt lat="41.0746627" lon="-7.9221891"><ele>825.4</ele><time>2026-04-25T08:22:04.882Z</time></trkpt><trkpt lat="41.0746042" lon="-7.922057"><ele>825.5999999999999</ele><time>2026-04-25T08:22:06.883Z</time></trkpt><trkpt lat="41.0745595" lon="-7.9219504"><ele>825.8</ele><time>2026-04-25T08:22:08.881Z</time></trkpt><trkpt lat="41.074511" lon="-7.9218971"><ele>826.0</ele><time>2026-04-25T08:22:10.889Z</time></trkpt><trkpt lat="41.0744371" lon="-7.9219564"><ele>826.0</ele><time>2026-04-25T08:22:12.887Z</time></trkpt><trkpt lat="41.0743456" lon="-7.9220435"><ele>826.0</ele><time>2026-04-25T08:22:14.885Z</time></trkpt><trkpt lat="41.0742172" lon="-7.9221478"><ele>826.0</ele><time>2026-04-25T08:22:16.886Z</time></trkpt><trkpt lat="41.0741436" lon="-7.922205"><ele>826.0</ele><time>2026-04-25T08:22:17.884Z</time></trkpt><trkpt lat="41.0740684" lon="-7.9222613"><ele>826.0</ele><time>2026-04-25T08:22:18.886Z</time></trkpt><trkpt lat="41.0739895" lon="-7.9223106"><ele>826.8</ele><time>2026-04-25T08:22:19.897Z</time></trkpt><trkpt lat="41.0739057" lon="-7.9223575"><ele>827.5999999999999</ele><time>2026-04-25T08:22:20.89Z</time></trkpt><trkpt lat="41.0738193" lon="-7.9223986"><ele>828.4</ele><time>2026-04-25T08:22:21.882Z</time></trkpt><trkpt lat="41.0737274" lon="-7.9224288"><ele>829.2</ele><time>2026-04-25T08:22:22.896Z</time></trkpt><trkpt lat="41.0736383" lon="-7.9224545"><ele>830.0</ele><time>2026-04-25T08:22:23.88Z</time></trkpt><trkpt lat="41.0735418" lon="-7.9224816"><ele>830.0</ele><time>2026-04-25T08:22:24.887Z</time></trkpt><trkpt lat="41.0734365" lon="-7.922509"><ele>830.0</ele><time>2026-04-25T08:22:25.888Z</time></trkpt><trkpt lat="41.0733303" lon="-7.9225384"><ele>830.0</ele><time>2026-04-25T08:22:26.882Z</time></trkpt><trkpt lat="41.0732287" lon="-7.9225666"><ele>830.0</ele><time>2026-04-25T08:22:27.889Z</time></trkpt><trkpt lat="41.0731349" lon="-7.9225959"><ele>830.0</ele><time>2026-04-25T08:22:28.903Z</time></trkpt><trkpt lat="41.0730513" lon="-7.9226338"><ele>830.8333333333334</ele><time>2026-04-25T08:22:29.891Z</time></trkpt><trkpt lat="41.0729814" lon="-7.9226866"><ele>831.6666666666667</ele><time>2026-04-25T08:22:30.886Z</time></trkpt><trkpt lat="41.072929" lon="-7.9227648"><ele>832.5</ele><time>2026-04-25T08:22:31.885Z</time></trkpt><trkpt lat="41.0728882" lon="-7.9228601"><ele>833.3333333333333</ele><time>2026-04-25T08:22:32.89Z</time></trkpt><trkpt lat="41.0728516" lon="-7.9229652"><ele>834.1666666666666</ele><time>2026-04-25T08:22:33.885Z</time></trkpt><trkpt lat="41.0728149" lon="-7.9230763"><ele>835.0</ele><time>2026-04-25T08:22:34.882Z</time></trkpt><trkpt lat="41.0727759" lon="-7.9231879"><ele>833.75</ele><time>2026-04-25T08:22:35.886Z</time></trkpt><trkpt lat="41.0726955" lon="-7.923402"><ele>832.5</ele><time>2026-04-25T08:22:37.881Z</time></trkpt><trkpt lat="41.0726458" lon="-7.9235115"><ele>831.25</ele><time>2026-04-25T08:22:38.881Z</time></trkpt><trkpt lat="41.0725926" lon="-7.9236244"><ele>830.0</ele><time>2026-04-25T08:22:39.882Z</time></trkpt><trkpt lat="41.072537" lon="-7.9237451"><ele>830.0</ele><time>2026-04-25T08:22:40.884Z</time></trkpt><trkpt lat="41.0724755" lon="-7.9238684"><ele>830.0</ele><time>2026-04-25T08:22:41.883Z</time></trkpt><trkpt lat="41.0724185" lon="-7.9239926"><ele>830.0</ele><time>2026-04-25T08:22:42.882Z</time></trkpt><trkpt lat="41.0723635" lon="-7.9241182"><ele>830.0</ele><time>2026-04-25T08:22:43.883Z</time></trkpt><trkpt lat="41.0723056" lon="-7.9242349"><ele>830.0</ele><time>2026-04-25T08:22:44.89Z</time></trkpt><trkpt lat="41.0722499" lon="-7.924352"><ele>831.8</ele><time>2026-04-25T08:22:45.881Z</time></trkpt><trkpt lat="41.072196" lon="-7.9244729"><ele>833.6</ele><time>2026-04-25T08:22:46.903Z</time></trkpt><trkpt lat="41.0721407" lon="-7.9245916"><ele>835.4000000000001</ele><time>2026-04-25T08:22:47.882Z</time></trkpt><trkpt lat="41.0720887" lon="-7.9247103"><ele>837.2</ele><time>2026-04-25T08:22:48.889Z</time></trkpt><trkpt lat="41.0720368" lon="-7.9248242"><ele>839.0</ele><time>2026-04-25T08:22:49.891Z</time></trkpt><trkpt lat="41.0719818" lon="-7.9249328"><ele>839.0</ele><time>2026-04-25T08:22:50.886Z</time></trkpt><trkpt lat="41.0719156" lon="-7.9250289"><ele>839.0</ele><time>2026-04-25T08:22:51.886Z</time></trkpt><trkpt lat="41.0718432" lon="-7.9251182"><ele>839.0</ele><time>2026-04-25T08:22:52.884Z</time></trkpt><trkpt lat="41.0717734" lon="-7.9252034"><ele>839.0</ele><time>2026-04-25T08:22:53.887Z</time></trkpt><trkpt lat="41.0717045" lon="-7.9252844"><ele>839.0</ele><time>2026-04-25T08:22:54.887Z</time></trkpt><trkpt lat="41.0716396" lon="-7.925362"><ele>839.2</ele><time>2026-04-25T08:22:55.891Z</time></trkpt><trkpt lat="41.0715777" lon="-7.9254349"><ele>839.4000000000001</ele><time>2026-04-25T08:22:56.88Z</time></trkpt><trkpt lat="41.0714472" lon="-7.9255819"><ele>839.6</ele><time>2026-04-25T08:22:58.889Z</time></trkpt><trkpt lat="41.0713845" lon="-7.9256642"><ele>839.8</ele><time>2026-04-25T08:22:59.888Z</time></trkpt><trkpt lat="41.0713276" lon="-7.9257607"><ele>840.0</ele><time>2026-04-25T08:23:00.896Z</time></trkpt><trkpt lat="41.0712769" lon="-7.9258607"><ele>838.4</ele><time>2026-04-25T08:23:01.894Z</time></trkpt><trkpt lat="41.0712357" lon="-7.9259713"><ele>836.8</ele><time>2026-04-25T08:23:02.886Z</time></trkpt><trkpt lat="41.0712174" lon="-7.9261009"><ele>835.2</ele><time>2026-04-25T08:23:03.887Z</time></trkpt><trkpt lat="41.0712387" lon="-7.9262369"><ele>833.6</ele><time>2026-04-25T08:23:04.889Z</time></trkpt><trkpt lat="41.0712791" lon="-7.9263738"><ele>832.0</ele><time>2026-04-25T08:23:05.882Z</time></trkpt><trkpt lat="41.0713245" lon="-7.9265103"><ele>832.0</ele><time>2026-04-25T08:23:06.884Z</time></trkpt><trkpt lat="41.0713679" lon="-7.9266526"><ele>832.0</ele><time>2026-04-25T08:23:07.891Z</time></trkpt><trkpt lat="41.0714047" lon="-7.9267968"><ele>832.0</ele><time>2026-04-25T08:23:08.887Z</time></trkpt><trkpt lat="41.071437" lon="-7.9269337"><ele>832.0</ele><time>2026-04-25T08:23:09.885Z</time></trkpt><trkpt lat="41.0714707" lon="-7.9270645"><ele>832.0</ele><time>2026-04-25T08:23:10.886Z</time></trkpt><trkpt lat="41.0715063" lon="-7.9271956"><ele>830.0</ele><time>2026-04-25T08:23:11.881Z</time></trkpt><trkpt lat="41.0715456" lon="-7.9273232"><ele>828.0</ele><time>2026-04-25T08:23:12.884Z</time></trkpt><trkpt lat="41.0715825" lon="-7.9274464"><ele>826.0</ele><time>2026-04-25T08:23:13.884Z</time></trkpt><trkpt lat="41.0716223" lon="-7.9275712"><ele>824.0</ele><time>2026-04-25T08:23:14.883Z</time></trkpt><trkpt lat="41.0716665" lon="-7.9276971"><ele>822.0</ele><time>2026-04-25T08:23:15.885Z</time></trkpt><trkpt lat="41.0717181" lon="-7.9278257"><ele>819.0</ele><time>2026-04-25T08:23:16.886Z</time></trkpt><trkpt lat="41.071777" lon="-7.9279564"><ele>816.0</ele><time>2026-04-25T08:23:17.884Z</time></trkpt><trkpt lat="41.0718934" lon="-7.9281904"><ele>813.0</ele><time>2026-04-25T08:23:19.884Z</time></trkpt><trkpt lat="41.0719491" lon="-7.9282924"><ele>810.0</ele><time>2026-04-25T08:23:20.881Z</time></trkpt><trkpt lat="41.0719951" lon="-7.9283646"><ele>810.0</ele><time>2026-04-25T08:23:21.883Z</time></trkpt><trkpt lat="41.0720518" lon="-7.9284365"><ele>810.0</ele><time>2026-04-25T08:23:23.883Z</time></trkpt><trkpt lat="41.0720096" lon="-7.9285055"><ele>810.0</ele><time>2026-04-25T08:23:27.882Z</time></trkpt><trkpt lat="41.0719185" lon="-7.9284934"><ele>810.0</ele><time>2026-04-25T08:23:29.88Z</time></trkpt><trkpt lat="41.071826" lon="-7.9284666"><ele>810.0</ele><time>2026-04-25T08:23:31.879Z</time></trkpt><trkpt lat="41.0717285" lon="-7.9283652"><ele>810.0</ele><time>2026-04-25T08:23:33.896Z</time></trkpt><trkpt lat="41.07168" lon="-7.9282804"><ele>810.0</ele><time>2026-04-25T08:23:34.881Z</time></trkpt><trkpt lat="41.0716239" lon="-7.9281782"><ele>810.0</ele><time>2026-04-25T08:23:35.889Z</time></trkpt><trkpt lat="41.0715702" lon="-7.9280872"><ele>810.0</ele><time>2026-04-25T08:23:36.893Z</time></trkpt><trkpt lat="41.0715192" lon="-7.9280072"><ele>810.0</ele><time>2026-04-25T08:23:37.889Z</time></trkpt><trkpt lat="41.0714611" lon="-7.927937"><ele>810.0</ele><time>2026-04-25T08:23:38.888Z</time></trkpt><trkpt lat="41.0713294" lon="-7.9278485"><ele>810.6666666666666</ele><time>2026-04-25T08:23:40.879Z</time></trkpt><trkpt lat="41.0712596" lon="-7.927804"><ele>811.3333333333333</ele><time>2026-04-25T08:23:41.888Z</time></trkpt><trkpt lat="41.0711829" lon="-7.9277556"><ele>812.0</ele><time>2026-04-25T08:23:42.886Z</time></trkpt><trkpt lat="41.0711031" lon="-7.9277098"><ele>812.6666666666666</ele><time>2026-04-25T08:23:43.884Z</time></trkpt><trkpt lat="41.0710272" lon="-7.9276694"><ele>813.3333333333333</ele><time>2026-04-25T08:23:44.893Z</time></trkpt><trkpt lat="41.0709544" lon="-7.9276437"><ele>814.0</ele><time>2026-04-25T08:23:45.884Z</time></trkpt><trkpt lat="41.0708866" lon="-7.9276357"><ele>814.0000000000001</ele><time>2026-04-25T08:23:46.881Z</time></trkpt><trkpt lat="41.0708227" lon="-7.9276379"><ele>814.0</ele><time>2026-04-25T08:23:47.877Z</time></trkpt><trkpt lat="41.0707564" lon="-7.9276591"><ele>814.0</ele><time>2026-04-25T08:23:48.881Z</time></trkpt><trkpt lat="41.0706875" lon="-7.9276929"><ele>814.0</ele><time>2026-04-25T08:23:49.898Z</time></trkpt><trkpt lat="41.0706161" lon="-7.9277344"><ele>814.0</ele><time>2026-04-25T08:23:50.885Z</time></trkpt><trkpt lat="41.0705455" lon="-7.927771"><ele>814.0000000000001</ele><time>2026-04-25T08:23:51.882Z</time></trkpt><trkpt lat="41.0704723" lon="-7.9278023"><ele>814.0</ele><time>2026-04-25T08:23:52.883Z</time></trkpt><trkpt lat="41.0703994" lon="-7.9278397"><ele>815.4285714285714</ele><time>2026-04-25T08:23:53.89Z</time></trkpt><trkpt lat="41.070327" lon="-7.9278788"><ele>816.8571428571429</ele><time>2026-04-25T08:23:54.885Z</time></trkpt><trkpt lat="41.0702545" lon="-7.927913"><ele>818.2857142857142</ele><time>2026-04-25T08:23:55.88Z</time></trkpt><trkpt lat="41.0701839" lon="-7.9279546"><ele>819.7142857142858</ele><time>2026-04-25T08:23:56.89Z</time></trkpt><trkpt lat="41.0701224" lon="-7.928"><ele>821.1428571428571</ele><time>2026-04-25T08:23:57.881Z</time></trkpt><trkpt lat="41.0700649" lon="-7.9280525"><ele>822.5714285714286</ele><time>2026-04-25T08:23:58.884Z</time></trkpt><trkpt lat="41.0700111" lon="-7.9280981"><ele>824.0</ele><time>2026-04-25T08:23:59.889Z</time></trkpt><trkpt lat="41.0698238" lon="-7.9280507"><ele>827.25</ele><time>2026-04-25T08:24:03.884Z</time></trkpt><trkpt lat="41.0697302" lon="-7.9280562"><ele>830.5</ele><time>2026-04-25T08:24:05.882Z</time></trkpt><trkpt lat="41.0696376" lon="-7.9281353"><ele>833.75</ele><time>2026-04-25T08:24:07.887Z</time></trkpt><trkpt lat="41.0695519" lon="-7.9282468"><ele>837.0</ele><time>2026-04-25T08:24:09.882Z</time></trkpt><trkpt lat="41.0694515" lon="-7.9283536"><ele>836.6666666666666</ele><time>2026-04-25T08:24:11.88Z</time></trkpt><trkpt lat="41.0693873" lon="-7.9284018"><ele>836.3333333333333</ele><time>2026-04-25T08:24:12.891Z</time></trkpt><trkpt lat="41.0693239" lon="-7.9284402"><ele>836.0</ele><time>2026-04-25T08:24:13.888Z</time></trkpt><trkpt lat="41.0692558" lon="-7.9284757"><ele>835.6666666666666</ele><time>2026-04-25T08:24:14.881Z</time></trkpt><trkpt lat="41.0691907" lon="-7.9285024"><ele>835.3333333333333</ele><time>2026-04-25T08:24:15.881Z</time></trkpt><trkpt lat="41.0691099" lon="-7.9285753"><ele>835.0</ele><time>2026-04-25T08:24:17.879Z</time></trkpt><trkpt lat="41.0690882" lon="-7.9287169"><ele>835.0</ele><time>2026-04-25T08:24:19.89Z</time></trkpt><trkpt lat="41.0690451" lon="-7.9288625"><ele>835.0</ele><time>2026-04-25T08:24:21.886Z</time></trkpt><trkpt lat="41.0689025" lon="-7.9290211"><ele>835.0</ele><time>2026-04-25T08:24:24.883Z</time></trkpt><trkpt lat="41.0688095" lon="-7.9291151"><ele>835.0</ele><time>2026-04-25T08:24:26.884Z</time></trkpt><trkpt lat="41.0687245" lon="-7.9292202"><ele>834.3333333333333</ele><time>2026-04-25T08:24:28.886Z</time></trkpt><trkpt lat="41.0686477" lon="-7.929355"><ele>833.6666666666666</ele><time>2026-04-25T08:24:30.888Z</time></trkpt><trkpt lat="41.0686097" lon="-7.9294344"><ele>833.0</ele><time>2026-04-25T08:24:31.884Z</time></trkpt><trkpt lat="41.0685708" lon="-7.9295175"><ele>832.3333333333333</ele><time>2026-04-25T08:24:32.896Z</time></trkpt><trkpt lat="41.0685282" lon="-7.9295916"><ele>831.6666666666666</ele><time>2026-04-25T08:24:33.883Z</time></trkpt><trkpt lat="41.0684759" lon="-7.9296539"><ele>831.0</ele><time>2026-04-25T08:24:34.883Z</time></trkpt><trkpt lat="41.0684218" lon="-7.9297037"><ele>831.0</ele><time>2026-04-25T08:24:35.877Z</time></trkpt><trkpt lat="41.0683391" lon="-7.9298074"><ele>831.0</ele><time>2026-04-25T08:24:37.884Z</time></trkpt><trkpt lat="41.0682775" lon="-7.9299024"><ele>831.0</ele><time>2026-04-25T08:24:39.891Z</time></trkpt><trkpt lat="41.0682105" lon="-7.92992"><ele>831.0</ele><time>2026-04-25T08:24:41.885Z</time></trkpt><trkpt lat="41.0681632" lon="-7.9298356"><ele>831.0</ele><time>2026-04-25T08:24:43.881Z</time></trkpt><trkpt lat="41.0681392" lon="-7.9296009"><ele>831.3333333333334</ele><time>2026-04-25T08:24:46.883Z</time></trkpt><trkpt lat="41.0681286" lon="-7.929497"><ele>831.6666666666667</ele><time>2026-04-25T08:24:47.886Z</time></trkpt><trkpt lat="41.0681122" lon="-7.9293976"><ele>832.0</ele><time>2026-04-25T08:24:48.887Z</time></trkpt><trkpt lat="41.0680911" lon="-7.9292982"><ele>832.3333333333334</ele><time>2026-04-25T08:24:49.881Z</time></trkpt><trkpt lat="41.0680703" lon="-7.9291997"><ele>832.6666666666667</ele><time>2026-04-25T08:24:50.884Z</time></trkpt><trkpt lat="41.0680502" lon="-7.9291019"><ele>833.0</ele><time>2026-04-25T08:24:51.881Z</time></trkpt><trkpt lat="41.0680347" lon="-7.9290053"><ele>834.0</ele><time>2026-04-25T08:24:52.883Z</time></trkpt><trkpt lat="41.0680211" lon="-7.9289132"><ele>835.0</ele><time>2026-04-25T08:24:53.882Z</time></trkpt><trkpt lat="41.0680023" lon="-7.9288208"><ele>836.0</ele><time>2026-04-25T08:24:54.892Z</time></trkpt><trkpt lat="41.0679853" lon="-7.9287277"><ele>837.0</ele><time>2026-04-25T08:24:55.891Z</time></trkpt><trkpt lat="41.0679677" lon="-7.9286332"><ele>838.0</ele><time>2026-04-25T08:24:56.884Z</time></trkpt><trkpt lat="41.0679462" lon="-7.9285364"><ele>839.0</ele><time>2026-04-25T08:24:57.885Z</time></trkpt><trkpt lat="41.0679195" lon="-7.9284425"><ele>840.0</ele><time>2026-04-25T08:24:58.882Z</time></trkpt><trkpt lat="41.0678844" lon="-7.9283519"><ele>840.8333333333334</ele><time>2026-04-25T08:24:59.891Z</time></trkpt><trkpt lat="41.0678472" lon="-7.9282698"><ele>841.6666666666667</ele><time>2026-04-25T08:25:00.896Z</time></trkpt><trkpt lat="41.0678008" lon="-7.9281981"><ele>842.5</ele><time>2026-04-25T08:25:01.883Z</time></trkpt><trkpt lat="41.0677446" lon="-7.928146"><ele>843.3333333333334</ele><time>2026-04-25T08:25:02.886Z</time></trkpt><trkpt lat="41.0676854" lon="-7.9281122"><ele>844.1666666666667</ele><time>2026-04-25T08:25:03.884Z</time></trkpt><trkpt lat="41.0675822" lon="-7.9280705"><ele>845.0</ele><time>2026-04-25T08:25:05.882Z</time></trkpt><trkpt lat="41.067427" lon="-7.9280368"><ele>845.0000000000001</ele><time>2026-04-25T08:25:10.888Z</time></trkpt><trkpt lat="41.0674041" lon="-7.928133"><ele>845.0</ele><time>2026-04-25T08:25:14.89Z</time></trkpt><trkpt lat="41.0673847" lon="-7.9282306"><ele>845.0</ele><time>2026-04-25T08:25:16.888Z</time></trkpt><trkpt lat="41.0673387" lon="-7.9283158"><ele>845.0</ele><time>2026-04-25T08:25:19.889Z</time></trkpt><trkpt lat="41.0672806" lon="-7.9283728"><ele>845.0000000000001</ele><time>2026-04-25T08:25:23.881Z</time></trkpt><trkpt lat="41.0672286" lon="-7.9284449"><ele>845.0</ele><time>2026-04-25T08:25:26.881Z</time></trkpt><trkpt lat="41.0670956" lon="-7.9285062"><ele>845.0000000000001</ele><time>2026-04-25T08:25:31.889Z</time></trkpt><trkpt lat="41.0670188" lon="-7.9285119"><ele>845.0</ele><time>2026-04-25T08:25:33.884Z</time></trkpt><trkpt lat="41.0669498" lon="-7.928511"><ele>845.0</ele><time>2026-04-25T08:25:35.885Z</time></trkpt><trkpt lat="41.0668821" lon="-7.9285091"><ele>845.0</ele><time>2026-04-25T08:25:37.881Z</time></trkpt><trkpt lat="41.0668123" lon="-7.928479"><ele>845.0000000000001</ele><time>2026-04-25T08:25:39.89Z</time></trkpt><trkpt lat="41.0667373" lon="-7.9284186"><ele>845.0</ele><time>2026-04-25T08:25:41.894Z</time></trkpt><trkpt lat="41.0666829" lon="-7.9283465"><ele>846.2</ele><time>2026-04-25T08:25:43.886Z</time></trkpt><trkpt lat="41.0666153" lon="-7.928319"><ele>847.4</ele><time>2026-04-25T08:25:46.892Z</time></trkpt><trkpt lat="41.0665446" lon="-7.9283734"><ele>848.5999999999999</ele><time>2026-04-25T08:26:33.881Z</time></trkpt><trkpt lat="41.0663958" lon="-7.928377"><ele>849.8</ele><time>2026-04-25T08:26:37.9Z</time></trkpt><trkpt lat="41.0663108" lon="-7.9283607"><ele>851.0</ele><time>2026-04-25T08:26:39.891Z</time></trkpt><trkpt lat="41.0662403" lon="-7.9283449"><ele>853.0000000000001</ele><time>2026-04-25T08:26:42.887Z</time></trkpt><trkpt lat="41.0661716" lon="-7.9283266"><ele>855.0</ele><time>2026-04-25T08:26:44.879Z</time></trkpt><trkpt lat="41.0660831" lon="-7.9283045"><ele>857.0</ele><time>2026-04-25T08:26:46.889Z</time></trkpt><trkpt lat="41.0659586" lon="-7.928276"><ele>859.0</ele><time>2026-04-25T08:26:48.885Z</time></trkpt><trkpt lat="41.0658974" lon="-7.9282526"><ele>861.0000000000001</ele><time>2026-04-25T08:26:49.882Z</time></trkpt><trkpt lat="41.065804" lon="-7.928233"><ele>863.0</ele><time>2026-04-25T08:26:51.881Z</time></trkpt><trkpt lat="41.0657158" lon="-7.9282821"><ele>865.0</ele><time>2026-04-25T08:26:53.883Z</time></trkpt><trkpt lat="41.0656296" lon="-7.9283186"><ele>867.0</ele><time>2026-04-25T08:26:55.878Z</time></trkpt><trkpt lat="41.0654039" lon="-7.9282669"><ele>869.0</ele><time>2026-04-25T08:26:59.884Z</time></trkpt><trkpt lat="41.0653037" lon="-7.9282229"><ele>871.0</ele><time>2026-04-25T08:27:01.88Z</time></trkpt><trkpt lat="41.0652052" lon="-7.9281666"><ele>871.0</ele><time>2026-04-25T08:27:03.891Z</time></trkpt><trkpt lat="41.0650982" lon="-7.9280966"><ele>870.9999999999999</ele><time>2026-04-25T08:27:05.888Z</time></trkpt><trkpt lat="41.0650017" lon="-7.9280186"><ele>870.9999999999999</ele><time>2026-04-25T08:27:07.882Z</time></trkpt><trkpt lat="41.0648939" lon="-7.9279921"><ele>871.0</ele><time>2026-04-25T08:27:09.897Z</time></trkpt><trkpt lat="41.0648003" lon="-7.9280389"><ele>871.0</ele><time>2026-04-25T08:27:11.889Z</time></trkpt><trkpt lat="41.0647166" lon="-7.9281116"><ele>872.0</ele><time>2026-04-25T08:27:13.881Z</time></trkpt><trkpt lat="41.064628" lon="-7.9281992"><ele>872.9999999999999</ele><time>2026-04-25T08:27:15.885Z</time></trkpt><trkpt lat="41.0645622" lon="-7.9282629"><ele>873.9999999999999</ele><time>2026-04-25T08:27:17.889Z</time></trkpt><trkpt lat="41.0644318" lon="-7.928364"><ele>875.0</ele><time>2026-04-25T08:27:23.883Z</time></trkpt><trkpt lat="41.0643687" lon="-7.9283325"><ele>876.0</ele><time>2026-04-25T08:27:25.888Z</time></trkpt><trkpt lat="41.0643018" lon="-7.9282594"><ele>876.0</ele><time>2026-04-25T08:27:28.887Z</time></trkpt><trkpt lat="41.0642262" lon="-7.9282068"><ele>876.0</ele><time>2026-04-25T08:27:30.886Z</time></trkpt><trkpt lat="41.0641693" lon="-7.928132"><ele>876.0</ele><time>2026-04-25T08:27:32.884Z</time></trkpt><trkpt lat="41.0641124" lon="-7.9280575"><ele>876.0</ele><time>2026-04-25T08:27:34.89Z</time></trkpt><trkpt lat="41.0640478" lon="-7.9280116"><ele>876.0</ele><time>2026-04-25T08:27:36.884Z</time></trkpt><trkpt lat="41.0639838" lon="-7.9279761"><ele>876.0</ele><time>2026-04-25T08:27:38.888Z</time></trkpt><trkpt lat="41.0638374" lon="-7.9279199"><ele>877.5</ele><time>2026-04-25T08:27:42.885Z</time></trkpt><trkpt lat="41.0637716" lon="-7.9278785"><ele>879.0</ele><time>2026-04-25T08:27:44.885Z</time></trkpt><trkpt lat="41.0637011" lon="-7.927794"><ele>880.5</ele><time>2026-04-25T08:27:47.892Z</time></trkpt><trkpt lat="41.0636503" lon="-7.9277254"><ele>882.0</ele><time>2026-04-25T08:27:49.881Z</time></trkpt><trkpt lat="41.0636026" lon="-7.9276413"><ele>883.5</ele><time>2026-04-25T08:27:51.88Z</time></trkpt><trkpt lat="41.0635475" lon="-7.927556"><ele>885.0</ele><time>2026-04-25T08:27:53.882Z</time></trkpt><trkpt lat="41.0634825" lon="-7.9274893"><ele>885.8</ele><time>2026-04-25T08:27:55.883Z</time></trkpt><trkpt lat="41.0634013" lon="-7.9274328"><ele>886.6</ele><time>2026-04-25T08:27:57.884Z</time></trkpt><trkpt lat="41.063318" lon="-7.9273978"><ele>887.4000000000001</ele><time>2026-04-25T08:27:59.883Z</time></trkpt><trkpt lat="41.0631793" lon="-7.9274224"><ele>888.2</ele><time>2026-04-25T08:28:03.886Z</time></trkpt><trkpt lat="41.063114" lon="-7.9274524"><ele>889.0</ele><time>2026-04-25T08:28:05.881Z</time></trkpt><trkpt lat="41.0630469" lon="-7.9274812"><ele>891.2</ele><time>2026-04-25T08:28:07.894Z</time></trkpt><trkpt lat="41.0629785" lon="-7.9275386"><ele>893.4000000000001</ele><time>2026-04-25T08:28:09.888Z</time></trkpt><trkpt lat="41.0629015" lon="-7.9275847"><ele>895.6</ele><time>2026-04-25T08:28:11.884Z</time></trkpt><trkpt lat="41.0628127" lon="-7.9275897"><ele>897.8</ele><time>2026-04-25T08:28:13.884Z</time></trkpt><trkpt lat="41.0627184" lon="-7.9275403"><ele>900.0</ele><time>2026-04-25T08:28:15.879Z</time></trkpt><trkpt lat="41.0626256" lon="-7.9274855"><ele>900.2</ele><time>2026-04-25T08:28:17.888Z</time></trkpt><trkpt lat="41.0625332" lon="-7.9274567"><ele>900.4</ele><time>2026-04-25T08:28:19.885Z</time></trkpt><trkpt lat="41.0624476" lon="-7.9274454"><ele>900.5999999999999</ele><time>2026-04-25T08:28:21.885Z</time></trkpt><trkpt lat="41.0623019" lon="-7.9273417"><ele>900.8</ele><time>2026-04-25T08:28:25.883Z</time></trkpt><trkpt lat="41.0622349" lon="-7.927302"><ele>901.0</ele><time>2026-04-25T08:28:27.886Z</time></trkpt><trkpt lat="41.0621678" lon="-7.9272441"><ele>902.4999999999999</ele><time>2026-04-25T08:28:29.887Z</time></trkpt><trkpt lat="41.0621055" lon="-7.9271472"><ele>904.0</ele><time>2026-04-25T08:28:31.88Z</time></trkpt><trkpt lat="41.0620649" lon="-7.9270394"><ele>905.5</ele><time>2026-04-25T08:28:33.889Z</time></trkpt><trkpt lat="41.0620228" lon="-7.9269509"><ele>907.0</ele><time>2026-04-25T08:28:35.886Z</time></trkpt><trkpt lat="41.061968" lon="-7.9268781"><ele>908.4999999999999</ele><time>2026-04-25T08:28:37.887Z</time></trkpt><trkpt lat="41.0618883" lon="-7.9268563"><ele>910.0</ele><time>2026-04-25T08:28:39.88Z</time></trkpt><trkpt lat="41.0617743" lon="-7.9268471"><ele>910.0</ele><time>2026-04-25T08:28:41.877Z</time></trkpt><trkpt lat="41.0616712" lon="-7.9268372"><ele>910.0</ele><time>2026-04-25T08:28:43.881Z</time></trkpt><trkpt lat="41.0615019" lon="-7.9267822"><ele>910.0</ele><time>2026-04-25T08:28:47.885Z</time></trkpt><trkpt lat="41.0614141" lon="-7.9267747"><ele>910.0</ele><time>2026-04-25T08:28:49.885Z</time></trkpt><trkpt lat="41.0613177" lon="-7.9267667"><ele>911.1666666666666</ele><time>2026-04-25T08:28:51.885Z</time></trkpt><trkpt lat="41.0612111" lon="-7.9267554"><ele>912.3333333333333</ele><time>2026-04-25T08:28:53.883Z</time></trkpt><trkpt lat="41.0611074" lon="-7.9267623"><ele>913.5</ele><time>2026-04-25T08:28:55.881Z</time></trkpt><trkpt lat="41.0610413" lon="-7.926768"><ele>914.6666666666667</ele><time>2026-04-25T08:28:57.887Z</time></trkpt><trkpt lat="41.0609739" lon="-7.9267336"><ele>915.8333333333334</ele><time>2026-04-25T08:29:00.883Z</time></trkpt><trkpt lat="41.0608765" lon="-7.9267153"><ele>917.0</ele><time>2026-04-25T08:29:03.88Z</time></trkpt><trkpt lat="41.0608" lon="-7.9266864"><ele>918.8333333333334</ele><time>2026-04-25T08:29:05.889Z</time></trkpt><trkpt lat="41.0606562" lon="-7.9267167"><ele>920.6666666666667</ele><time>2026-04-25T08:29:09.883Z</time></trkpt><trkpt lat="41.0605869" lon="-7.9267653"><ele>922.5</ele><time>2026-04-25T08:29:11.883Z</time></trkpt><trkpt lat="41.0605153" lon="-7.9267941"><ele>924.3333333333333</ele><time>2026-04-25T08:29:13.881Z</time></trkpt><trkpt lat="41.0604553" lon="-7.9267641"><ele>926.1666666666666</ele><time>2026-04-25T08:29:15.893Z</time></trkpt><trkpt lat="41.0603778" lon="-7.9267436"><ele>928.0</ele><time>2026-04-25T08:29:17.882Z</time></trkpt><trkpt lat="41.0603133" lon="-7.9267741"><ele>928.5999999999999</ele><time>2026-04-25T08:29:19.886Z</time></trkpt><trkpt lat="41.060252" lon="-7.9268338"><ele>929.1999999999999</ele><time>2026-04-25T08:29:21.881Z</time></trkpt><trkpt lat="41.0601884" lon="-7.9268721"><ele>929.8</ele><time>2026-04-25T08:29:23.879Z</time></trkpt><trkpt lat="41.0601233" lon="-7.9268661"><ele>930.4</ele><time>2026-04-25T08:29:25.88Z</time></trkpt><trkpt lat="41.0600238" lon="-7.9268852"><ele>931.0</ele><time>2026-04-25T08:29:28.886Z</time></trkpt><trkpt lat="41.0598897" lon="-7.9269297"><ele>933.1666666666666</ele><time>2026-04-25T08:29:32.882Z</time></trkpt><trkpt lat="41.0598232" lon="-7.9269176"><ele>935.3333333333333</ele><time>2026-04-25T08:29:34.881Z</time></trkpt><trkpt lat="41.0597383" lon="-7.9269287"><ele>937.5</ele><time>2026-04-25T08:29:37.881Z</time></trkpt><trkpt lat="41.0596746" lon="-7.9269273"><ele>939.6666666666667</ele><time>2026-04-25T08:29:39.887Z</time></trkpt><trkpt lat="41.059599" lon="-7.9269555"><ele>941.8333333333334</ele><time>2026-04-25T08:29:42.886Z</time></trkpt><trkpt lat="41.0595113" lon="-7.9269927"><ele>944.0</ele><time>2026-04-25T08:29:45.891Z</time></trkpt><trkpt lat="41.0594384" lon="-7.9270172"><ele>944.0000000000001</ele><time>2026-04-25T08:29:47.88Z</time></trkpt><trkpt lat="41.0593564" lon="-7.9270277"><ele>944.0</ele><time>2026-04-25T08:29:50.886Z</time></trkpt><trkpt lat="41.0591898" lon="-7.9270608"><ele>944.0</ele><time>2026-04-25T08:29:55.879Z</time></trkpt><trkpt lat="41.0591225" lon="-7.9270649"><ele>944.0</ele><time>2026-04-25T08:29:57.891Z</time></trkpt><trkpt lat="41.0590547" lon="-7.9270685"><ele>944.0000000000001</ele><time>2026-04-25T08:29:59.888Z</time></trkpt><trkpt lat="41.0589917" lon="-7.9270775"><ele>944.0</ele><time>2026-04-25T08:30:01.884Z</time></trkpt><trkpt lat="41.0589281" lon="-7.9270887"><ele>947.8000000000001</ele><time>2026-04-25T08:30:03.881Z</time></trkpt><trkpt lat="41.0588427" lon="-7.927099"><ele>951.6000000000001</ele><time>2026-04-25T08:30:06.881Z</time></trkpt><trkpt lat="41.0587556" lon="-7.9270729"><ele>955.4</ele><time>2026-04-25T08:30:08.881Z</time></trkpt><trkpt lat="41.0586824" lon="-7.9270422"><ele>959.2</ele><time>2026-04-25T08:30:10.883Z</time></trkpt><trkpt lat="41.0586181" lon="-7.9269731"><ele>963.0</ele><time>2026-04-25T08:30:12.885Z</time></trkpt><trkpt lat="41.0584687" lon="-7.9268576"><ele>963.0</ele><time>2026-04-25T08:30:16.893Z</time></trkpt><trkpt lat="41.0583979" lon="-7.9268389"><ele>963.0</ele><time>2026-04-25T08:30:18.881Z</time></trkpt><trkpt lat="41.0583192" lon="-7.9268196"><ele>963.0</ele><time>2026-04-25T08:30:20.884Z</time></trkpt><trkpt lat="41.0582385" lon="-7.9267913"><ele>963.0</ele><time>2026-04-25T08:30:22.882Z</time></trkpt><trkpt lat="41.0581476" lon="-7.9267716"><ele>963.0</ele><time>2026-04-25T08:30:24.889Z</time></trkpt><trkpt lat="41.0580739" lon="-7.9267546"><ele>963.0</ele><time>2026-04-25T08:30:26.882Z</time></trkpt><trkpt lat="41.0579791" lon="-7.9267353"><ele>965.5</ele><time>2026-04-25T08:30:29.889Z</time></trkpt><trkpt lat="41.0578987" lon="-7.9266976"><ele>968.0</ele><time>2026-04-25T08:30:31.882Z</time></trkpt><trkpt lat="41.0578244" lon="-7.9266582"><ele>970.5</ele><time>2026-04-25T08:30:33.886Z</time></trkpt><trkpt lat="41.057773" lon="-7.9266917"><ele>973.0</ele><time>2026-04-25T08:31:16.883Z</time></trkpt><trkpt lat="41.0576406" lon="-7.9266882"><ele>975.5</ele><time>2026-04-25T08:31:21.884Z</time></trkpt><trkpt lat="41.0575601" lon="-7.926658"><ele>978.0</ele><time>2026-04-25T08:31:23.885Z</time></trkpt><trkpt lat="41.0574566" lon="-7.9266486"><ele>980.0</ele><time>2026-04-25T08:31:25.882Z</time></trkpt><trkpt lat="41.0573721" lon="-7.9266453"><ele>982.0</ele><time>2026-04-25T08:31:27.884Z</time></trkpt><trkpt lat="41.0572912" lon="-7.9266604"><ele>984.0</ele><time>2026-04-25T08:31:29.885Z</time></trkpt><trkpt lat="41.0572197" lon="-7.9266836"><ele>986.0</ele><time>2026-04-25T08:31:31.885Z</time></trkpt><trkpt lat="41.0571513" lon="-7.9267105"><ele>988.0</ele><time>2026-04-25T08:31:33.883Z</time></trkpt><trkpt lat="41.0570811" lon="-7.9267374"><ele>990.0</ele><time>2026-04-25T08:31:35.899Z</time></trkpt><trkpt lat="41.0570126" lon="-7.9267624"><ele>992.3333333333334</ele><time>2026-04-25T08:31:37.897Z</time></trkpt><trkpt lat="41.0569769" lon="-7.9269289"><ele>994.6666666666667</ele><time>2026-04-25T08:31:43.881Z</time></trkpt><trkpt lat="41.0570071" lon="-7.9270325"><ele>997.0</ele><time>2026-04-25T08:31:45.891Z</time></trkpt><trkpt lat="41.0570024" lon="-7.9271313"><ele>999.3333333333334</ele><time>2026-04-25T08:31:47.881Z</time></trkpt><trkpt lat="41.0569644" lon="-7.9272183"><ele>1001.6666666666667</ele><time>2026-04-25T08:31:49.886Z</time></trkpt><trkpt lat="41.056911" lon="-7.9273039"><ele>1004.0</ele><time>2026-04-25T08:31:51.89Z</time></trkpt><trkpt lat="41.056835" lon="-7.927377"><ele>1004.0</ele><time>2026-04-25T08:31:53.886Z</time></trkpt><trkpt lat="41.0567626" lon="-7.9274291"><ele>1004.0000000000001</ele><time>2026-04-25T08:31:55.879Z</time></trkpt><trkpt lat="41.0566878" lon="-7.9274725"><ele>1004.0000000000001</ele><time>2026-04-25T08:31:57.879Z</time></trkpt><trkpt lat="41.0566123" lon="-7.9275168"><ele>1004.0</ele><time>2026-04-25T08:31:59.882Z</time></trkpt><trkpt lat="41.0564594" lon="-7.927611"><ele>1004.0</ele><time>2026-04-25T08:32:03.881Z</time></trkpt><trkpt lat="41.0563746" lon="-7.9276681"><ele>1008.6</ele><time>2026-04-25T08:32:05.884Z</time></trkpt><trkpt lat="41.0562896" lon="-7.9277207"><ele>1013.2</ele><time>2026-04-25T08:32:07.878Z</time></trkpt><trkpt lat="41.0561992" lon="-7.9277935"><ele>1017.8000000000001</ele><time>2026-04-25T08:32:09.88Z</time></trkpt><trkpt lat="41.0561026" lon="-7.927866"><ele>1022.4000000000001</ele><time>2026-04-25T08:32:11.878Z</time></trkpt><trkpt lat="41.0560153" lon="-7.9278746"><ele>1027.0</ele><time>2026-04-25T08:32:13.881Z</time></trkpt><trkpt lat="41.055928" lon="-7.9278452"><ele>1027.0</ele><time>2026-04-25T08:32:15.889Z</time></trkpt><trkpt lat="41.0558515" lon="-7.9278217"><ele>1027.0</ele><time>2026-04-25T08:32:17.879Z</time></trkpt><trkpt lat="41.0557794" lon="-7.9278318"><ele>1027.0</ele><time>2026-04-25T08:32:19.878Z</time></trkpt><trkpt lat="41.055709" lon="-7.9278921"><ele>1027.0</ele><time>2026-04-25T08:32:21.887Z</time></trkpt><trkpt lat="41.0555827" lon="-7.9279891"><ele>1027.0</ele><time>2026-04-25T08:32:25.897Z</time></trkpt><trkpt lat="41.0554998" lon="-7.9280468"><ele>1030.1666666666665</ele><time>2026-04-25T08:32:27.883Z</time></trkpt><trkpt lat="41.055411" lon="-7.9281187"><ele>1033.3333333333333</ele><time>2026-04-25T08:32:29.879Z</time></trkpt><trkpt lat="41.0553394" lon="-7.9281843"><ele>1036.5</ele><time>2026-04-25T08:32:31.881Z</time></trkpt><trkpt lat="41.05529" lon="-7.9282368"><ele>1039.6666666666667</ele><time>2026-04-25T08:32:33.887Z</time></trkpt><trkpt lat="41.055213" lon="-7.9283108"><ele>1042.8333333333335</ele><time>2026-04-25T08:32:36.885Z</time></trkpt><trkpt lat="41.0551188" lon="-7.9283176"><ele>1046.0</ele><time>2026-04-25T08:32:38.883Z</time></trkpt><trkpt lat="41.0550438" lon="-7.9283211"><ele>1046.0</ele><time>2026-04-25T08:32:40.885Z</time></trkpt><trkpt lat="41.0549759" lon="-7.9283636"><ele>1046.0</ele><time>2026-04-25T08:32:42.885Z</time></trkpt><trkpt lat="41.0548246" lon="-7.9284551"><ele>1046.0</ele><time>2026-04-25T08:32:46.881Z</time></trkpt><trkpt lat="41.0547576" lon="-7.928485"><ele>1046.0</ele><time>2026-04-25T08:32:48.888Z</time></trkpt><trkpt lat="41.05469" lon="-7.9285165"><ele>1046.0</ele><time>2026-04-25T08:32:50.884Z</time></trkpt><trkpt lat="41.0546236" lon="-7.9285626"><ele>1050.7142857142856</ele><time>2026-04-25T08:32:52.881Z</time></trkpt><trkpt lat="41.0545639" lon="-7.9286045"><ele>1055.4285714285713</ele><time>2026-04-25T08:32:54.884Z</time></trkpt><trkpt lat="41.0544993" lon="-7.9286375"><ele>1060.142857142857</ele><time>2026-04-25T08:32:56.882Z</time></trkpt><trkpt lat="41.0544306" lon="-7.9286742"><ele>1064.8571428571427</ele><time>2026-04-25T08:32:58.891Z</time></trkpt><trkpt lat="41.0543628" lon="-7.9287238"><ele>1069.5714285714284</ele><time>2026-04-25T08:33:00.882Z</time></trkpt><trkpt lat="41.0542951" lon="-7.928774"><ele>1074.2857142857142</ele><time>2026-04-25T08:33:02.885Z</time></trkpt><trkpt lat="41.0542373" lon="-7.9288097"><ele>1079.0</ele><time>2026-04-25T08:33:04.886Z</time></trkpt><trkpt lat="41.0540759" lon="-7.9289101"><ele>1084.4</ele><time>2026-04-25T08:33:10.881Z</time></trkpt><trkpt lat="41.0540101" lon="-7.9289406"><ele>1089.8000000000002</ele><time>2026-04-25T08:33:12.889Z</time></trkpt><trkpt lat="41.0539237" lon="-7.928971"><ele>1095.1999999999998</ele><time>2026-04-25T08:33:14.884Z</time></trkpt><trkpt lat="41.0538234" lon="-7.9290144"><ele>1100.6</ele><time>2026-04-25T08:33:16.884Z</time></trkpt><trkpt lat="41.0537288" lon="-7.9290715"><ele>1106.0</ele><time>2026-04-25T08:33:18.882Z</time></trkpt><trkpt lat="41.0536284" lon="-7.9291208"><ele>1106.0</ele><time>2026-04-25T08:33:20.881Z</time></trkpt><trkpt lat="41.0535225" lon="-7.9291525"><ele>1106.0</ele><time>2026-04-25T08:33:22.88Z</time></trkpt><trkpt lat="41.0534266" lon="-7.929181"><ele>1106.0</ele><time>2026-04-25T08:33:24.886Z</time></trkpt><trkpt lat="41.0533522" lon="-7.9292083"><ele>1106.0</ele><time>2026-04-25T08:33:26.884Z</time></trkpt><trkpt lat="41.0532054" lon="-7.9292072"><ele>1106.0</ele><time>2026-04-25T08:33:30.887Z</time></trkpt><trkpt lat="41.0531247" lon="-7.9291906"><ele>1110.3999999999999</ele><time>2026-04-25T08:33:32.881Z</time></trkpt><trkpt lat="41.0530432" lon="-7.9291841"><ele>1114.8</ele><time>2026-04-25T08:33:34.88Z</time></trkpt><trkpt lat="41.0529476" lon="-7.9291609"><ele>1119.1999999999998</ele><time>2026-04-25T08:33:36.882Z</time></trkpt><trkpt lat="41.0528201" lon="-7.9291218"><ele>1123.6</ele><time>2026-04-25T08:33:38.884Z</time></trkpt><trkpt lat="41.0527487" lon="-7.9291038"><ele>1128.0</ele><time>2026-04-25T08:33:39.886Z</time></trkpt><trkpt lat="41.0526816" lon="-7.9290882"><ele>1128.0</ele><time>2026-04-25T08:33:40.886Z</time></trkpt><trkpt lat="41.05261" lon="-7.9290721"><ele>1128.0</ele><time>2026-04-25T08:33:41.884Z</time></trkpt><trkpt lat="41.0525211" lon="-7.9290547"><ele>1128.0</ele><time>2026-04-25T08:33:42.883Z</time></trkpt><trkpt lat="41.0524266" lon="-7.9290352"><ele>1128.0</ele><time>2026-04-25T08:33:43.889Z</time></trkpt><trkpt lat="41.0523374" lon="-7.9290169"><ele>1128.0</ele><time>2026-04-25T08:33:44.88Z</time></trkpt><trkpt lat="41.0522522" lon="-7.9290007"><ele>1128.0</ele><time>2026-04-25T08:33:45.886Z</time></trkpt><trkpt lat="41.0521839" lon="-7.9289882"><ele>1128.6</ele><time>2026-04-25T08:33:46.892Z</time></trkpt><trkpt lat="41.0521118" lon="-7.929023"><ele>1129.1999999999998</ele><time>2026-04-25T08:35:05.886Z</time></trkpt><trkpt lat="41.0519961" lon="-7.9288864"><ele>1129.8</ele><time>2026-04-25T08:35:11.891Z</time></trkpt><trkpt lat="41.0519316" lon="-7.9288368"><ele>1130.3999999999999</ele><time>2026-04-25T08:35:13.881Z</time></trkpt><trkpt lat="41.0518632" lon="-7.9288222"><ele>1131.0</ele><time>2026-04-25T08:35:15.876Z</time></trkpt><trkpt lat="41.0517764" lon="-7.9288278"><ele>1131.0</ele><time>2026-04-25T08:35:18.879Z</time></trkpt><trkpt lat="41.0518484" lon="-7.9287671"><ele>1131.0</ele><time>2026-04-25T08:35:23.891Z</time></trkpt><trkpt lat="41.0519382" lon="-7.9287623"><ele>1131.0</ele><time>2026-04-25T08:35:26.88Z</time></trkpt></trkseg><trkseg><trkpt lat="41.0522072" lon="-7.9289152"><ele>1131.0</ele><time>2026-04-25T08:47:28.822Z</time></trkpt><trkpt lat="41.0521341" lon="-7.9287675"><ele>1131.0</ele><time>2026-04-25T08:47:34.826Z</time></trkpt><trkpt lat="41.0520796" lon="-7.928715"><ele>1131.0</ele><time>2026-04-25T08:47:38.823Z</time></trkpt><trkpt lat="41.0520174" lon="-7.9287708"><ele>1131.0</ele><time>2026-04-25T08:47:41.825Z</time></trkpt><trkpt lat="41.0520097" lon="-7.928665"><ele>1131.0</ele><time>2026-04-25T08:47:45.824Z</time></trkpt><trkpt lat="41.0520727" lon="-7.9286888"><ele>1131.0</ele><time>2026-04-25T08:47:49.824Z</time></trkpt><trkpt lat="41.0521246" lon="-7.928861"><ele>1131.0</ele><time>2026-04-25T08:47:57.823Z</time></trkpt><trkpt lat="41.0520496" lon="-7.9289322"><ele>1131.0</ele><time>2026-04-25T08:48:00.824Z</time></trkpt><trkpt lat="41.0519882" lon="-7.9288739"><ele>1131.0</ele><time>2026-04-25T08:48:03.833Z</time></trkpt><trkpt lat="41.0519158" lon="-7.9288234"><ele>1131.0</ele><time>2026-04-25T08:48:06.826Z</time></trkpt><trkpt lat="41.0518305" lon="-7.9288037"><ele>1131.0</ele><time>2026-04-25T08:48:09.834Z</time></trkpt><trkpt lat="41.0517583" lon="-7.928771"><ele>1131.0</ele><time>2026-04-25T08:48:12.823Z</time></trkpt><trkpt lat="41.0515641" lon="-7.928782"><ele>1131.3999999999999</ele><time>2026-04-25T08:48:16.828Z</time></trkpt><trkpt lat="41.0514464" lon="-7.9287872"><ele>1131.8</ele><time>2026-04-25T08:48:18.824Z</time></trkpt><trkpt lat="41.0513409" lon="-7.9287659"><ele>1132.1999999999998</ele><time>2026-04-25T08:48:20.829Z</time></trkpt><trkpt lat="41.0512475" lon="-7.9287763"><ele>1132.6</ele><time>2026-04-25T08:48:22.821Z</time></trkpt><trkpt lat="41.0511614" lon="-7.9287832"><ele>1133.0</ele><time>2026-04-25T08:48:24.824Z</time></trkpt><trkpt lat="41.0510775" lon="-7.9287862"><ele>1133.0</ele><time>2026-04-25T08:48:26.823Z</time></trkpt><trkpt lat="41.0509953" lon="-7.9287745"><ele>1133.0</ele><time>2026-04-25T08:48:28.832Z</time></trkpt><trkpt lat="41.05091" lon="-7.9287688"><ele>1133.0</ele><time>2026-04-25T08:48:30.83Z</time></trkpt><trkpt lat="41.0508203" lon="-7.9287672"><ele>1133.0</ele><time>2026-04-25T08:48:32.824Z</time></trkpt><trkpt lat="41.0507218" lon="-7.9287679"><ele>1133.0</ele><time>2026-04-25T08:48:34.826Z</time></trkpt><trkpt lat="41.0505608" lon="-7.9287007"><ele>1133.2</ele><time>2026-04-25T08:48:38.825Z</time></trkpt><trkpt lat="41.0504779" lon="-7.9286508"><ele>1133.4</ele><time>2026-04-25T08:48:40.825Z</time></trkpt><trkpt lat="41.0503733" lon="-7.9285582"><ele>1133.6000000000001</ele><time>2026-04-25T08:48:42.827Z</time></trkpt><trkpt lat="41.0502763" lon="-7.9284495"><ele>1133.8</ele><time>2026-04-25T08:48:44.823Z</time></trkpt><trkpt lat="41.0502208" lon="-7.9283963"><ele>1134.0</ele><time>2026-04-25T08:48:45.823Z</time></trkpt><trkpt lat="41.050165" lon="-7.9283487"><ele>1133.3333333333333</ele><time>2026-04-25T08:48:46.821Z</time></trkpt><trkpt lat="41.0500558" lon="-7.9282631"><ele>1132.6666666666667</ele><time>2026-04-25T08:48:48.822Z</time></trkpt><trkpt lat="41.0500012" lon="-7.9282165"><ele>1132.0</ele><time>2026-04-25T08:48:49.822Z</time></trkpt><trkpt lat="41.0499445" lon="-7.928174"><ele>1131.3333333333335</ele><time>2026-04-25T08:48:50.833Z</time></trkpt><trkpt lat="41.0498877" lon="-7.9281362"><ele>1130.6666666666667</ele><time>2026-04-25T08:48:51.831Z</time></trkpt><trkpt lat="41.0497781" lon="-7.9280526"><ele>1130.0</ele><time>2026-04-25T08:48:53.831Z</time></trkpt><trkpt lat="41.0496767" lon="-7.9279821"><ele>1130.0</ele><time>2026-04-25T08:48:55.821Z</time></trkpt><trkpt lat="41.0496126" lon="-7.927823"><ele>1130.0</ele><time>2026-04-25T08:48:59.829Z</time></trkpt><trkpt lat="41.0495656" lon="-7.9277287"><ele>1130.0</ele><time>2026-04-25T08:49:01.824Z</time></trkpt><trkpt lat="41.049487" lon="-7.9277194"><ele>1130.0</ele><time>2026-04-25T08:49:03.825Z</time></trkpt><trkpt lat="41.0494125" lon="-7.9277771"><ele>1130.0</ele><time>2026-04-25T08:49:05.821Z</time></trkpt><trkpt lat="41.0493171" lon="-7.9278842"><ele>1130.0</ele><time>2026-04-25T08:49:07.829Z</time></trkpt><trkpt lat="41.0492455" lon="-7.9279475"><ele>1130.0</ele><time>2026-04-25T08:49:08.821Z</time></trkpt><trkpt lat="41.0491745" lon="-7.9280031"><ele>1130.0</ele><time>2026-04-25T08:49:09.822Z</time></trkpt><trkpt lat="41.0491038" lon="-7.9280498"><ele>1130.0</ele><time>2026-04-25T08:49:10.84Z</time></trkpt><trkpt lat="41.0490215" lon="-7.9280908"><ele>1130.0</ele><time>2026-04-25T08:49:11.827Z</time></trkpt><trkpt lat="41.0489239" lon="-7.9281301"><ele>1130.0</ele><time>2026-04-25T08:49:12.827Z</time></trkpt><trkpt lat="41.0488118" lon="-7.9281505"><ele>1129.25</ele><time>2026-04-25T08:49:13.83Z</time></trkpt><trkpt lat="41.0486939" lon="-7.9281408"><ele>1128.5</ele><time>2026-04-25T08:49:14.823Z</time></trkpt><trkpt lat="41.0485858" lon="-7.9281258"><ele>1127.75</ele><time>2026-04-25T08:49:15.823Z</time></trkpt><trkpt lat="41.0484858" lon="-7.9281033"><ele>1127.0</ele><time>2026-04-25T08:49:16.819Z</time></trkpt><trkpt lat="41.0483016" lon="-7.9280404"><ele>1125.7142857142858</ele><time>2026-04-25T08:49:18.828Z</time></trkpt><trkpt lat="41.0482226" lon="-7.9280079"><ele>1124.4285714285716</ele><time>2026-04-25T08:49:19.822Z</time></trkpt><trkpt lat="41.048152" lon="-7.9279782"><ele>1123.142857142857</ele><time>2026-04-25T08:49:20.824Z</time></trkpt><trkpt lat="41.0480909" lon="-7.9279461"><ele>1121.857142857143</ele><time>2026-04-25T08:49:21.829Z</time></trkpt><trkpt lat="41.0480326" lon="-7.927901"><ele>1120.5714285714287</ele><time>2026-04-25T08:49:22.83Z</time></trkpt><trkpt lat="41.0479805" lon="-7.9278325"><ele>1119.2857142857142</ele><time>2026-04-25T08:49:23.822Z</time></trkpt><trkpt lat="41.0479281" lon="-7.9277575"><ele>1118.0</ele><time>2026-04-25T08:49:24.824Z</time></trkpt><trkpt lat="41.0478613" lon="-7.9276531"><ele>1118.0</ele><time>2026-04-25T08:49:25.829Z</time></trkpt><trkpt lat="41.0477767" lon="-7.9275202"><ele>1118.0</ele><time>2026-04-25T08:49:26.826Z</time></trkpt><trkpt lat="41.0476869" lon="-7.9273821"><ele>1118.0</ele><time>2026-04-25T08:49:27.822Z</time></trkpt><trkpt lat="41.0476058" lon="-7.9272337"><ele>1118.0</ele><time>2026-04-25T08:49:28.829Z</time></trkpt><trkpt lat="41.0475298" lon="-7.9270984"><ele>1115.2</ele><time>2026-04-25T08:49:29.824Z</time></trkpt><trkpt lat="41.047457" lon="-7.9269707"><ele>1112.4</ele><time>2026-04-25T08:49:30.825Z</time></trkpt><trkpt lat="41.0473961" lon="-7.9268518"><ele>1109.6000000000001</ele><time>2026-04-25T08:49:31.831Z</time></trkpt><trkpt lat="41.0473365" lon="-7.926748"><ele>1106.8</ele><time>2026-04-25T08:49:32.823Z</time></trkpt><trkpt lat="41.047287" lon="-7.9266418"><ele>1104.0</ele><time>2026-04-25T08:49:33.822Z</time></trkpt><trkpt lat="41.0472442" lon="-7.9265329"><ele>1103.75</ele><time>2026-04-25T08:49:34.822Z</time></trkpt><trkpt lat="41.0472129" lon="-7.9264184"><ele>1103.5</ele><time>2026-04-25T08:49:35.828Z</time></trkpt><trkpt lat="41.0471962" lon="-7.9262958"><ele>1103.25</ele><time>2026-04-25T08:49:36.822Z</time></trkpt><trkpt lat="41.0471851" lon="-7.9261746"><ele>1103.0</ele><time>2026-04-25T08:49:37.826Z</time></trkpt><trkpt lat="41.0471565" lon="-7.9259478"><ele>1103.0</ele><time>2026-04-25T08:49:39.829Z</time></trkpt><trkpt lat="41.0471384" lon="-7.9258276"><ele>1103.0</ele><time>2026-04-25T08:49:40.833Z</time></trkpt><trkpt lat="41.0471169" lon="-7.9257043"><ele>1103.0</ele><time>2026-04-25T08:49:41.822Z</time></trkpt><trkpt lat="41.0470922" lon="-7.9255822"><ele>1103.0</ele><time>2026-04-25T08:49:42.825Z</time></trkpt><trkpt lat="41.0470626" lon="-7.9254636"><ele>1103.0</ele><time>2026-04-25T08:49:43.825Z</time></trkpt><trkpt lat="41.0470264" lon="-7.9253479"><ele>1103.0</ele><time>2026-04-25T08:49:44.825Z</time></trkpt><trkpt lat="41.0469817" lon="-7.9252383"><ele>1103.0</ele><time>2026-04-25T08:49:45.824Z</time></trkpt><trkpt lat="41.0469288" lon="-7.9251554"><ele>1103.0</ele><time>2026-04-25T08:49:46.826Z</time></trkpt><trkpt lat="41.046888" lon="-7.925088"><ele>1103.0</ele><time>2026-04-25T08:49:47.83Z</time></trkpt><trkpt lat="41.0468125" lon="-7.9249934"><ele>1103.0</ele><time>2026-04-25T08:49:49.823Z</time></trkpt><trkpt lat="41.0467534" lon="-7.924937"><ele>1103.0</ele><time>2026-04-25T08:49:52.82Z</time></trkpt><trkpt lat="41.0466996" lon="-7.9250238"><ele>1102.2</ele><time>2026-04-25T08:50:12.826Z</time></trkpt><trkpt lat="41.0465531" lon="-7.925161"><ele>1101.4</ele><time>2026-04-25T08:50:15.825Z</time></trkpt><trkpt lat="41.0464877" lon="-7.9252068"><ele>1100.6000000000001</ele><time>2026-04-25T08:50:16.82Z</time></trkpt><trkpt lat="41.0464296" lon="-7.9252482"><ele>1099.8</ele><time>2026-04-25T08:50:17.825Z</time></trkpt><trkpt lat="41.0463474" lon="-7.9253041"><ele>1099.0</ele><time>2026-04-25T08:50:19.828Z</time></trkpt><trkpt lat="41.0462947" lon="-7.9253903"><ele>1099.0</ele><time>2026-04-25T08:50:21.824Z</time></trkpt><trkpt lat="41.0462546" lon="-7.9254573"><ele>1099.0</ele><time>2026-04-25T08:50:23.83Z</time></trkpt><trkpt lat="41.0461995" lon="-7.9254995"><ele>1099.0</ele><time>2026-04-25T08:50:42.829Z</time></trkpt><trkpt lat="41.0462661" lon="-7.9256599"><ele>1099.0</ele><time>2026-04-25T08:50:51.826Z</time></trkpt><trkpt lat="41.0462649" lon="-7.9257783"><ele>1099.0</ele><time>2026-04-25T08:50:54.831Z</time></trkpt><trkpt lat="41.0462433" lon="-7.9258739"><ele>1099.0</ele><time>2026-04-25T08:50:59.817Z</time></trkpt><trkpt lat="41.0462481" lon="-7.9259597"><ele>1100.3333333333333</ele><time>2026-04-25T08:51:03.825Z</time></trkpt><trkpt lat="41.0463216" lon="-7.9261172"><ele>1101.6666666666665</ele><time>2026-04-25T08:51:08.823Z</time></trkpt><trkpt lat="41.0463767" lon="-7.9261868"><ele>1103.0</ele><time>2026-04-25T08:51:11.824Z</time></trkpt><trkpt lat="41.0463984" lon="-7.9263082"><ele>1104.3333333333333</ele><time>2026-04-25T08:51:14.823Z</time></trkpt><trkpt lat="41.0464277" lon="-7.9263917"><ele>1105.6666666666667</ele><time>2026-04-25T08:51:17.825Z</time></trkpt><trkpt lat="41.0464463" lon="-7.9264795"><ele>1107.0</ele><time>2026-04-25T08:51:58.827Z</time></trkpt><trkpt lat="41.046573" lon="-7.9265535"><ele>1106.2</ele><time>2026-04-25T08:52:05.833Z</time></trkpt><trkpt lat="41.0466514" lon="-7.9265738"><ele>1105.4</ele><time>2026-04-25T08:52:20.821Z</time></trkpt><trkpt lat="41.0467938" lon="-7.9266043"><ele>1104.6</ele><time>2026-04-25T08:52:26.834Z</time></trkpt><trkpt lat="41.0468635" lon="-7.9265772"><ele>1103.8</ele><time>2026-04-25T08:52:30.826Z</time></trkpt><trkpt lat="41.0469426" lon="-7.926538"><ele>1103.0</ele><time>2026-04-25T08:52:34.824Z</time></trkpt><trkpt lat="41.0470126" lon="-7.9265038"><ele>1103.0</ele><time>2026-04-25T08:52:37.823Z</time></trkpt><trkpt lat="41.0470772" lon="-7.9264638"><ele>1103.0</ele><time>2026-04-25T08:52:41.82Z</time></trkpt><trkpt lat="41.0472281" lon="-7.9263715"><ele>1103.0</ele><time>2026-04-25T08:52:48.821Z</time></trkpt><trkpt lat="41.0472853" lon="-7.9263208"><ele>1103.0</ele><time>2026-04-25T08:52:51.821Z</time></trkpt><trkpt lat="41.0473121" lon="-7.9264089"><ele>1103.0</ele><time>2026-04-25T08:53:09.823Z</time></trkpt><trkpt lat="41.047325" lon="-7.9266058"><ele>1103.0</ele><time>2026-04-25T08:53:16.819Z</time></trkpt><trkpt lat="41.0473471" lon="-7.9266869"><ele>1103.0</ele><time>2026-04-25T08:53:28.826Z</time></trkpt><trkpt lat="41.0473308" lon="-7.926576"><ele>1103.0</ele><time>2026-04-25T08:53:33.83Z</time></trkpt><trkpt lat="41.0472757" lon="-7.9263752"><ele>1103.0</ele><time>2026-04-25T08:53:37.825Z</time></trkpt><trkpt lat="41.0472505" lon="-7.9262366"><ele>1103.0</ele><time>2026-04-25T08:53:39.829Z</time></trkpt><trkpt lat="41.0472245" lon="-7.9260891"><ele>1103.0</ele><time>2026-04-25T08:53:41.822Z</time></trkpt><trkpt lat="41.0471964" lon="-7.9259556"><ele>1103.0</ele><time>2026-04-25T08:53:43.822Z</time></trkpt><trkpt lat="41.0471695" lon="-7.9258398"><ele>1103.0</ele><time>2026-04-25T08:53:45.82Z</time></trkpt><trkpt lat="41.0471346" lon="-7.9257105"><ele>1103.0</ele><time>2026-04-25T08:53:47.823Z</time></trkpt><trkpt lat="41.0471011" lon="-7.9255695"><ele>1103.0</ele><time>2026-04-25T08:53:49.822Z</time></trkpt><trkpt lat="41.0470686" lon="-7.9254305"><ele>1103.0</ele><time>2026-04-25T08:53:51.821Z</time></trkpt><trkpt lat="41.047015" lon="-7.9253166"><ele>1103.0</ele><time>2026-04-25T08:53:53.823Z</time></trkpt><trkpt lat="41.046942" lon="-7.9252255"><ele>1103.0</ele><time>2026-04-25T08:53:55.82Z</time></trkpt><trkpt lat="41.0467786" lon="-7.9250172"><ele>1103.0</ele><time>2026-04-25T08:53:59.824Z</time></trkpt><trkpt lat="41.0467029" lon="-7.9249806"><ele>1102.2</ele><time>2026-04-25T08:54:01.825Z</time></trkpt><trkpt lat="41.0466042" lon="-7.9250719"><ele>1101.4</ele><time>2026-04-25T08:54:03.825Z</time></trkpt><trkpt lat="41.0465449" lon="-7.9251316"><ele>1100.6000000000001</ele><time>2026-04-25T08:54:04.819Z</time></trkpt><trkpt lat="41.0464809" lon="-7.92519"><ele>1099.8</ele><time>2026-04-25T08:54:05.828Z</time></trkpt><trkpt lat="41.0463789" lon="-7.9252656"><ele>1099.0</ele><time>2026-04-25T08:54:07.824Z</time></trkpt><trkpt lat="41.0462952" lon="-7.9253484"><ele>1099.0</ele><time>2026-04-25T08:54:09.82Z</time></trkpt><trkpt lat="41.0462142" lon="-7.9254396"><ele>1099.0</ele><time>2026-04-25T08:54:11.82Z</time></trkpt><trkpt lat="41.0461401" lon="-7.9254867"><ele>1099.0</ele><time>2026-04-25T08:54:13.823Z</time></trkpt><trkpt lat="41.0460723" lon="-7.9255099"><ele>1099.0</ele><time>2026-04-25T08:54:17.82Z</time></trkpt><trkpt lat="41.0459317" lon="-7.925599"><ele>1099.0</ele><time>2026-04-25T08:54:39.842Z</time></trkpt><trkpt lat="41.0457289" lon="-7.9255275"><ele>1100.25</ele><time>2026-04-25T08:55:35.824Z</time></trkpt><trkpt lat="41.0456601" lon="-7.9255618"><ele>1101.5</ele><time>2026-04-25T08:55:42.821Z</time></trkpt><trkpt lat="41.0456246" lon="-7.9256698"><ele>1102.75</ele><time>2026-04-25T08:55:45.821Z</time></trkpt><trkpt lat="41.0456245" lon="-7.9258243"><ele>1104.0</ele><time>2026-04-25T08:55:47.821Z</time></trkpt><trkpt lat="41.0455615" lon="-7.9260501"><ele>1106.0</ele><time>2026-04-25T08:55:51.834Z</time></trkpt><trkpt lat="41.0454961" lon="-7.9261565"><ele>1108.0</ele><time>2026-04-25T08:55:53.823Z</time></trkpt><trkpt lat="41.0454469" lon="-7.9262111"><ele>1110.0</ele><time>2026-04-25T08:55:54.827Z</time></trkpt><trkpt lat="41.0453879" lon="-7.9262735"><ele>1112.0</ele><time>2026-04-25T08:55:55.823Z</time></trkpt><trkpt lat="41.0453251" lon="-7.9263323"><ele>1114.0</ele><time>2026-04-25T08:55:56.821Z</time></trkpt><trkpt lat="41.0452629" lon="-7.9264137"><ele>1116.0</ele><time>2026-04-25T08:55:57.83Z</time></trkpt><trkpt lat="41.0451978" lon="-7.9264984"><ele>1116.0</ele><time>2026-04-25T08:55:58.822Z</time></trkpt><trkpt lat="41.0451364" lon="-7.9265733"><ele>1116.0</ele><time>2026-04-25T08:55:59.824Z</time></trkpt><trkpt lat="41.045078" lon="-7.9266523"><ele>1116.0</ele><time>2026-04-25T08:56:00.817Z</time></trkpt><trkpt lat="41.0450187" lon="-7.9267183"><ele>1116.0</ele><time>2026-04-25T08:56:01.82Z</time></trkpt><trkpt lat="41.0449539" lon="-7.9267846"><ele>1116.0</ele><time>2026-04-25T08:56:02.827Z</time></trkpt><trkpt lat="41.0448894" lon="-7.9268439"><ele>1116.0</ele><time>2026-04-25T08:56:03.824Z</time></trkpt><trkpt lat="41.0448358" lon="-7.9268947"><ele>1119.0</ele><time>2026-04-25T08:56:04.82Z</time></trkpt><trkpt lat="41.0447587" lon="-7.9269898"><ele>1122.0</ele><time>2026-04-25T08:56:06.828Z</time></trkpt><trkpt lat="41.0446992" lon="-7.9271104"><ele>1125.0</ele><time>2026-04-25T08:56:08.823Z</time></trkpt><trkpt lat="41.0445594" lon="-7.9273571"><ele>1128.0</ele><time>2026-04-25T08:56:12.827Z</time></trkpt><trkpt lat="41.0444809" lon="-7.9274446"><ele>1128.0</ele><time>2026-04-25T08:56:14.819Z</time></trkpt><trkpt lat="41.0444227" lon="-7.9275246"><ele>1128.0</ele><time>2026-04-25T08:56:16.826Z</time></trkpt><trkpt lat="41.0443764" lon="-7.9276064"><ele>1128.0</ele><time>2026-04-25T08:56:18.821Z</time></trkpt><trkpt lat="41.0443229" lon="-7.9276777"><ele>1128.0</ele><time>2026-04-25T08:56:21.82Z</time></trkpt><trkpt lat="41.044281" lon="-7.9277424"><ele>1128.0</ele><time>2026-04-25T08:56:25.82Z</time></trkpt><trkpt lat="41.0442413" lon="-7.9278093"><ele>1128.0</ele><time>2026-04-25T08:56:28.823Z</time></trkpt><trkpt lat="41.0441943" lon="-7.9278651"><ele>1128.0</ele><time>2026-04-25T08:56:31.82Z</time></trkpt><trkpt lat="41.0440531" lon="-7.9279529"><ele>1130.1666666666667</ele><time>2026-04-25T08:56:37.833Z</time></trkpt><trkpt lat="41.0439831" lon="-7.9279649"><ele>1132.3333333333333</ele><time>2026-04-25T08:56:40.821Z</time></trkpt><trkpt lat="41.0439033" lon="-7.9279952"><ele>1134.5</ele><time>2026-04-25T08:56:43.838Z</time></trkpt><trkpt lat="41.0438352" lon="-7.9280196"><ele>1136.6666666666665</ele><time>2026-04-25T08:56:45.822Z</time></trkpt><trkpt lat="41.043746" lon="-7.9280446"><ele>1138.8333333333333</ele><time>2026-04-25T08:56:48.825Z</time></trkpt><trkpt lat="41.0436574" lon="-7.9280705"><ele>1141.0</ele><time>2026-04-25T08:56:51.822Z</time></trkpt><trkpt lat="41.043579" lon="-7.9280911"><ele>1141.0</ele><time>2026-04-25T08:56:54.826Z</time></trkpt><trkpt lat="41.043443" lon="-7.9280782"><ele>1141.0</ele><time>2026-04-25T08:57:00.82Z</time></trkpt><trkpt lat="41.0435281" lon="-7.9280908"><ele>1141.0</ele><time>2026-04-25T08:57:13.819Z</time></trkpt><trkpt lat="41.0436179" lon="-7.9280541"><ele>1141.0</ele><time>2026-04-25T08:57:15.828Z</time></trkpt><trkpt lat="41.0437726" lon="-7.9280215"><ele>1141.0</ele><time>2026-04-25T08:57:19.82Z</time></trkpt><trkpt lat="41.0438506" lon="-7.9279809"><ele>1141.0</ele><time>2026-04-25T08:57:21.827Z</time></trkpt><trkpt lat="41.0439429" lon="-7.9279404"><ele>1141.0</ele><time>2026-04-25T08:57:23.823Z</time></trkpt><trkpt lat="41.0440578" lon="-7.9279204"><ele>1141.0</ele><time>2026-04-25T08:57:25.822Z</time></trkpt><trkpt lat="41.0441212" lon="-7.9279057"><ele>1141.0</ele><time>2026-04-25T08:57:26.823Z</time></trkpt><trkpt lat="41.0441848" lon="-7.9278747"><ele>1141.0</ele><time>2026-04-25T08:57:27.824Z</time></trkpt><trkpt lat="41.0442453" lon="-7.9278252"><ele>1140.0</ele><time>2026-04-25T08:57:28.828Z</time></trkpt><trkpt lat="41.0443065" lon="-7.9277593"><ele>1139.0</ele><time>2026-04-25T08:57:29.826Z</time></trkpt><trkpt lat="41.0443646" lon="-7.9276846"><ele>1138.0</ele><time>2026-04-25T08:57:30.821Z</time></trkpt><trkpt lat="41.0444123" lon="-7.927608"><ele>1137.0</ele><time>2026-04-25T08:57:31.82Z</time></trkpt><trkpt lat="41.0444548" lon="-7.9275363"><ele>1136.0</ele><time>2026-04-25T08:57:32.821Z</time></trkpt><trkpt lat="41.0445256" lon="-7.927418"><ele>1135.0</ele><time>2026-04-25T08:57:34.828Z</time></trkpt><trkpt lat="41.0445806" lon="-7.9273155"><ele>1133.6</ele><time>2026-04-25T08:57:36.819Z</time></trkpt><trkpt lat="41.0446747" lon="-7.9271455"><ele>1132.2</ele><time>2026-04-25T08:57:40.827Z</time></trkpt><trkpt lat="41.0447047" lon="-7.9270713"><ele>1130.8</ele><time>2026-04-25T08:57:43.817Z</time></trkpt><trkpt lat="41.0447628" lon="-7.9270018"><ele>1129.4</ele><time>2026-04-25T08:57:46.823Z</time></trkpt><trkpt lat="41.0448265" lon="-7.9269079"><ele>1128.0</ele><time>2026-04-25T08:57:48.82Z</time></trkpt><trkpt lat="41.0449004" lon="-7.9268156"><ele>1126.6</ele><time>2026-04-25T08:57:50.826Z</time></trkpt><trkpt lat="41.044975" lon="-7.9267441"><ele>1125.1999999999998</ele><time>2026-04-25T08:57:52.821Z</time></trkpt><trkpt lat="41.0450361" lon="-7.9266819"><ele>1123.8</ele><time>2026-04-25T08:57:54.823Z</time></trkpt><trkpt lat="41.0450542" lon="-7.9265984"><ele>1122.3999999999999</ele><time>2026-04-25T08:57:57.82Z</time></trkpt><trkpt lat="41.0449025" lon="-7.926497"><ele>1121.0</ele><time>2026-04-25T08:58:02.823Z</time></trkpt><trkpt lat="41.0448183" lon="-7.9264831"><ele>1120.6666666666667</ele><time>2026-04-25T08:58:04.828Z</time></trkpt><trkpt lat="41.0447465" lon="-7.9264796"><ele>1120.3333333333335</ele><time>2026-04-25T08:58:06.818Z</time></trkpt><trkpt lat="41.0446721" lon="-7.9265032"><ele>1120.0</ele><time>2026-04-25T08:58:08.82Z</time></trkpt><trkpt lat="41.0445747" lon="-7.9265291"><ele>1119.6666666666667</ele><time>2026-04-25T08:58:10.823Z</time></trkpt><trkpt lat="41.0444902" lon="-7.9265535"><ele>1119.3333333333333</ele><time>2026-04-25T08:58:12.82Z</time></trkpt><trkpt lat="41.0444056" lon="-7.9265809"><ele>1119.0</ele><time>2026-04-25T08:58:15.819Z</time></trkpt><trkpt lat="41.0443197" lon="-7.9265901"><ele>1122.75</ele><time>2026-04-25T08:58:22.83Z</time></trkpt><trkpt lat="41.0441125" lon="-7.9266233"><ele>1126.5</ele><time>2026-04-25T08:58:27.827Z</time></trkpt><trkpt lat="41.0439944" lon="-7.9266158"><ele>1130.25</ele><time>2026-04-25T08:58:29.822Z</time></trkpt><trkpt lat="41.0439189" lon="-7.9266006"><ele>1134.0</ele><time>2026-04-25T08:58:30.821Z</time></trkpt><trkpt lat="41.0438482" lon="-7.9265952"><ele>1134.0</ele><time>2026-04-25T08:58:31.823Z</time></trkpt><trkpt lat="41.0437725" lon="-7.9266025"><ele>1134.0</ele><time>2026-04-25T08:58:32.821Z</time></trkpt><trkpt lat="41.0436963" lon="-7.9266239"><ele>1134.0</ele><time>2026-04-25T08:58:33.819Z</time></trkpt><trkpt lat="41.0436293" lon="-7.9266639"><ele>1134.0</ele><time>2026-04-25T08:58:34.823Z</time></trkpt><trkpt lat="41.0435587" lon="-7.9266988"><ele>1134.0</ele><time>2026-04-25T08:58:35.822Z</time></trkpt><trkpt lat="41.0434857" lon="-7.926716"><ele>1134.0</ele><time>2026-04-25T08:58:36.822Z</time></trkpt><trkpt lat="41.0434136" lon="-7.9267232"><ele>1134.0</ele><time>2026-04-25T08:58:37.831Z</time></trkpt><trkpt lat="41.0433401" lon="-7.9267316"><ele>1136.2</ele><time>2026-04-25T08:58:38.826Z</time></trkpt><trkpt lat="41.0432701" lon="-7.9267453"><ele>1138.4</ele><time>2026-04-25T08:58:39.825Z</time></trkpt><trkpt lat="41.0432029" lon="-7.9267587"><ele>1140.6</ele><time>2026-04-25T08:58:40.823Z</time></trkpt><trkpt lat="41.0431369" lon="-7.9267666"><ele>1142.8</ele><time>2026-04-25T08:58:41.825Z</time></trkpt><trkpt lat="41.0430217" lon="-7.9267396"><ele>1145.0</ele><time>2026-04-25T08:58:43.824Z</time></trkpt><trkpt lat="41.0428975" lon="-7.9266476"><ele>1145.8333333333335</ele><time>2026-04-25T08:58:45.819Z</time></trkpt><trkpt lat="41.0428338" lon="-7.92658"><ele>1146.6666666666667</ele><time>2026-04-25T08:58:46.827Z</time></trkpt><trkpt lat="41.0427675" lon="-7.9265079"><ele>1147.5</ele><time>2026-04-25T08:58:47.822Z</time></trkpt><trkpt lat="41.0427067" lon="-7.9264367"><ele>1148.3333333333333</ele><time>2026-04-25T08:58:48.826Z</time></trkpt><trkpt lat="41.042643" lon="-7.9263662"><ele>1149.1666666666665</ele><time>2026-04-25T08:58:49.83Z</time></trkpt><trkpt lat="41.0425907" lon="-7.9263046"><ele>1150.0</ele><time>2026-04-25T08:58:50.82Z</time></trkpt><trkpt lat="41.0425447" lon="-7.9262329"><ele>1150.0</ele><time>2026-04-25T08:58:51.822Z</time></trkpt><trkpt lat="41.0424965" lon="-7.9261514"><ele>1150.0</ele><time>2026-04-25T08:58:52.83Z</time></trkpt><trkpt lat="41.0424505" lon="-7.926072"><ele>1150.0</ele><time>2026-04-25T08:58:53.823Z</time></trkpt><trkpt lat="41.0424016" lon="-7.9259949"><ele>1150.0</ele><time>2026-04-25T08:58:54.821Z</time></trkpt><trkpt lat="41.0423475" lon="-7.9259247"><ele>1150.0</ele><time>2026-04-25T08:58:55.831Z</time></trkpt><trkpt lat="41.0422886" lon="-7.9258662"><ele>1150.0</ele><time>2026-04-25T08:58:56.821Z</time></trkpt><trkpt lat="41.0422263" lon="-7.9258153"><ele>1152.142857142857</ele><time>2026-04-25T08:58:57.823Z</time></trkpt><trkpt lat="41.0421681" lon="-7.9257767"><ele>1154.2857142857142</ele><time>2026-04-25T08:58:58.822Z</time></trkpt><trkpt lat="41.0421132" lon="-7.9257352"><ele>1156.4285714285713</ele><time>2026-04-25T08:58:59.827Z</time></trkpt><trkpt lat="41.0420586" lon="-7.9256853"><ele>1158.5714285714284</ele><time>2026-04-25T08:59:00.821Z</time></trkpt><trkpt lat="41.0420058" lon="-7.9256256"><ele>1160.7142857142858</ele><time>2026-04-25T08:59:01.828Z</time></trkpt><trkpt lat="41.0419579" lon="-7.9255624"><ele>1162.8571428571427</ele><time>2026-04-25T08:59:02.821Z</time></trkpt><trkpt lat="41.0419091" lon="-7.9255054"><ele>1165.0</ele><time>2026-04-25T08:59:03.822Z</time></trkpt><trkpt lat="41.0418593" lon="-7.9254523"><ele>1165.0</ele><time>2026-04-25T08:59:04.833Z</time></trkpt><trkpt lat="41.0417099" lon="-7.9252954"><ele>1165.0</ele><time>2026-04-25T08:59:08.824Z</time></trkpt><trkpt lat="41.0416802" lon="-7.9251879"><ele>1165.0</ele><time>2026-04-25T08:59:11.821Z</time></trkpt><trkpt lat="41.0416598" lon="-7.9250911"><ele>1165.0</ele><time>2026-04-25T08:59:13.831Z</time></trkpt><trkpt lat="41.0416354" lon="-7.9250121"><ele>1165.0</ele><time>2026-04-25T08:59:15.82Z</time></trkpt><trkpt lat="41.0415979" lon="-7.9249138"><ele>1164.3333333333333</ele><time>2026-04-25T08:59:18.821Z</time></trkpt><trkpt lat="41.04157" lon="-7.9248387"><ele>1163.6666666666665</ele><time>2026-04-25T08:59:20.828Z</time></trkpt><trkpt lat="41.0415596" lon="-7.9247398"><ele>1163.0</ele><time>2026-04-25T08:59:23.823Z</time></trkpt><trkpt lat="41.0415853" lon="-7.9246536"><ele>1162.3333333333333</ele><time>2026-04-25T08:59:27.834Z</time></trkpt><trkpt lat="41.0416398" lon="-7.924483"><ele>1161.6666666666667</ele><time>2026-04-25T08:59:31.819Z</time></trkpt><trkpt lat="41.0415646" lon="-7.9244042"><ele>1161.0</ele><time>2026-04-25T08:59:33.814Z</time></trkpt><trkpt lat="41.0415018" lon="-7.9243505"><ele>1161.0</ele><time>2026-04-25T08:59:35.83Z</time></trkpt><trkpt lat="41.0414813" lon="-7.9242468"><ele>1161.0</ele><time>2026-04-25T08:59:38.825Z</time></trkpt><trkpt lat="41.0415237" lon="-7.9241271"><ele>1161.0</ele><time>2026-04-25T08:59:41.822Z</time></trkpt><trkpt lat="41.0415307" lon="-7.9240208"><ele>1161.0</ele><time>2026-04-25T08:59:43.826Z</time></trkpt><trkpt lat="41.041556" lon="-7.923873"><ele>1161.0</ele><time>2026-04-25T08:59:45.82Z</time></trkpt><trkpt lat="41.0416157" lon="-7.9237416"><ele>1162.0</ele><time>2026-04-25T08:59:47.821Z</time></trkpt><trkpt lat="41.0416745" lon="-7.9236744"><ele>1163.0</ele><time>2026-04-25T08:59:49.833Z</time></trkpt><trkpt lat="41.0417013" lon="-7.9233563"><ele>1164.0</ele><time>2026-04-25T09:01:21.82Z</time></trkpt><trkpt lat="41.0416727" lon="-7.9232051"><ele>1165.0</ele><time>2026-04-25T09:01:23.819Z</time></trkpt><trkpt lat="41.0416564" lon="-7.9231208"><ele>1165.0</ele><time>2026-04-25T09:01:24.82Z</time></trkpt><trkpt lat="41.0416416" lon="-7.9230326"><ele>1165.0</ele><time>2026-04-25T09:01:25.821Z</time></trkpt><trkpt lat="41.0416253" lon="-7.922945"><ele>1165.0</ele><time>2026-04-25T09:01:26.821Z</time></trkpt><trkpt lat="41.0416138" lon="-7.9228598"><ele>1165.0</ele><time>2026-04-25T09:01:27.826Z</time></trkpt><trkpt lat="41.0415964" lon="-7.922705"><ele>1165.0</ele><time>2026-04-25T09:01:29.821Z</time></trkpt><trkpt lat="41.0415764" lon="-7.9225679"><ele>1165.0</ele><time>2026-04-25T09:01:31.827Z</time></trkpt><trkpt lat="41.0415512" lon="-7.9224543"><ele>1160.0</ele><time>2026-04-25T09:01:33.833Z</time></trkpt><trkpt lat="41.0415221" lon="-7.9223168"><ele>1155.0</ele><time>2026-04-25T09:01:35.822Z</time></trkpt><trkpt lat="41.0414961" lon="-7.9221977"><ele>1150.0</ele><time>2026-04-25T09:01:37.819Z</time></trkpt><trkpt lat="41.0414695" lon="-7.9221086"><ele>1145.0</ele><time>2026-04-25T09:01:39.825Z</time></trkpt><trkpt lat="41.0414175" lon="-7.9219468"><ele>1140.0</ele><time>2026-04-25T09:01:43.823Z</time></trkpt><trkpt lat="41.0413874" lon="-7.9218573"><ele>1140.0</ele><time>2026-04-25T09:01:45.817Z</time></trkpt><trkpt lat="41.0413518" lon="-7.9217751"><ele>1140.0</ele><time>2026-04-25T09:01:47.835Z</time></trkpt><trkpt lat="41.0413121" lon="-7.9216952"><ele>1140.0</ele><time>2026-04-25T09:01:49.823Z</time></trkpt><trkpt lat="41.0412832" lon="-7.9215743"><ele>1140.0</ele><time>2026-04-25T09:01:51.825Z</time></trkpt><trkpt lat="41.0412775" lon="-7.9214501"><ele>1140.0</ele><time>2026-04-25T09:01:53.817Z</time></trkpt><trkpt lat="41.0412813" lon="-7.9213497"><ele>1140.0</ele><time>2026-04-25T09:01:55.82Z</time></trkpt><trkpt lat="41.0412907" lon="-7.9212575"><ele>1137.6</ele><time>2026-04-25T09:02:03.822Z</time></trkpt><trkpt lat="41.0412757" lon="-7.9210781"><ele>1135.2</ele><time>2026-04-25T09:02:19.82Z</time></trkpt><trkpt lat="41.0412555" lon="-7.9209819"><ele>1132.8</ele><time>2026-04-25T09:02:25.819Z</time></trkpt><trkpt lat="41.0411948" lon="-7.9208334"><ele>1130.4</ele><time>2026-04-25T09:02:35.819Z</time></trkpt><trkpt lat="41.0411534" lon="-7.9207392"><ele>1128.0</ele><time>2026-04-25T09:02:38.823Z</time></trkpt><trkpt lat="41.0411051" lon="-7.9206762"><ele>1124.4</ele><time>2026-04-25T09:02:40.826Z</time></trkpt><trkpt lat="41.041062" lon="-7.9205985"><ele>1120.8</ele><time>2026-04-25T09:02:42.819Z</time></trkpt><trkpt lat="41.0410217" lon="-7.9205108"><ele>1117.2</ele><time>2026-04-25T09:02:46.829Z</time></trkpt><trkpt lat="41.0409251" lon="-7.9202516"><ele>1113.6</ele><time>2026-04-25T09:04:18.823Z</time></trkpt><trkpt lat="41.0408837" lon="-7.92016"><ele>1110.0</ele><time>2026-04-25T09:04:21.824Z</time></trkpt><trkpt lat="41.0408244" lon="-7.9200572"><ele>1104.2</ele><time>2026-04-25T09:04:24.816Z</time></trkpt><trkpt lat="41.0407802" lon="-7.9199594"><ele>1098.4</ele><time>2026-04-25T09:04:26.829Z</time></trkpt><trkpt lat="41.0407513" lon="-7.9198642"><ele>1092.6</ele><time>2026-04-25T09:04:28.823Z</time></trkpt><trkpt lat="41.0407484" lon="-7.9197522"><ele>1086.8</ele><time>2026-04-25T09:04:30.823Z</time></trkpt><trkpt lat="41.0407525" lon="-7.9196159"><ele>1081.0</ele><time>2026-04-25T09:04:32.827Z</time></trkpt><trkpt lat="41.0407335" lon="-7.9193957"><ele>1081.0</ele><time>2026-04-25T09:04:41.834Z</time></trkpt><trkpt lat="41.0406748" lon="-7.9193465"><ele>1081.0</ele><time>2026-04-25T09:04:43.822Z</time></trkpt><trkpt lat="41.040605" lon="-7.919314"><ele>1081.0</ele><time>2026-04-25T09:04:45.82Z</time></trkpt><trkpt lat="41.0405157" lon="-7.9192896"><ele>1081.0</ele><time>2026-04-25T09:04:47.82Z</time></trkpt><trkpt lat="41.0403982" lon="-7.9192303"><ele>1081.0</ele><time>2026-04-25T09:04:49.821Z</time></trkpt><trkpt lat="41.0403082" lon="-7.9191465"><ele>1078.75</ele><time>2026-04-25T09:04:51.821Z</time></trkpt><trkpt lat="41.0402299" lon="-7.919106"><ele>1076.5</ele><time>2026-04-25T09:04:53.825Z</time></trkpt><trkpt lat="41.04003" lon="-7.9190444"><ele>1074.25</ele><time>2026-04-25T09:04:57.821Z</time></trkpt><trkpt lat="41.0399362" lon="-7.9189757"><ele>1072.0</ele><time>2026-04-25T09:04:59.815Z</time></trkpt><trkpt lat="41.0398738" lon="-7.918862"><ele>1070.8</ele><time>2026-04-25T09:05:01.812Z</time></trkpt><trkpt lat="41.0398784" lon="-7.9186987"><ele>1069.6</ele><time>2026-04-25T09:05:03.825Z</time></trkpt><trkpt lat="41.0399021" lon="-7.9185998"><ele>1068.3999999999999</ele><time>2026-04-25T09:05:04.819Z</time></trkpt><trkpt lat="41.039932" lon="-7.9184929"><ele>1067.2</ele><time>2026-04-25T09:05:05.823Z</time></trkpt><trkpt lat="41.0399605" lon="-7.9183814"><ele>1066.0</ele><time>2026-04-25T09:05:06.821Z</time></trkpt><trkpt lat="41.0399762" lon="-7.9182626"><ele>1063.8</ele><time>2026-04-25T09:05:07.818Z</time></trkpt><trkpt lat="41.03996" lon="-7.9181396"><ele>1061.6</ele><time>2026-04-25T09:05:08.84Z</time></trkpt><trkpt lat="41.0399296" lon="-7.9180162"><ele>1059.4</ele><time>2026-04-25T09:05:09.822Z</time></trkpt><trkpt lat="41.0398827" lon="-7.9178901"><ele>1057.2</ele><time>2026-04-25T09:05:10.819Z</time></trkpt><trkpt lat="41.0398238" lon="-7.9177688"><ele>1055.0</ele><time>2026-04-25T09:05:11.818Z</time></trkpt><trkpt lat="41.0397576" lon="-7.9176472"><ele>1051.6666666666667</ele><time>2026-04-25T09:05:12.821Z</time></trkpt><trkpt lat="41.0396957" lon="-7.917516"><ele>1048.3333333333333</ele><time>2026-04-25T09:05:13.819Z</time></trkpt><trkpt lat="41.0396457" lon="-7.9173741"><ele>1045.0</ele><time>2026-04-25T09:05:14.817Z</time></trkpt><trkpt lat="41.0395613" lon="-7.9170618"><ele>1045.0</ele><time>2026-04-25T09:05:16.819Z</time></trkpt><trkpt lat="41.0395301" lon="-7.9168964"><ele>1045.0</ele><time>2026-04-25T09:05:17.815Z</time></trkpt><trkpt lat="41.0394998" lon="-7.9167253"><ele>1045.0</ele><time>2026-04-25T09:05:18.819Z</time></trkpt><trkpt lat="41.039467" lon="-7.9165556"><ele>1045.0</ele><time>2026-04-25T09:05:19.821Z</time></trkpt><trkpt lat="41.0394355" lon="-7.916389"><ele>1043.25</ele><time>2026-04-25T09:05:20.819Z</time></trkpt><trkpt lat="41.0394039" lon="-7.9162281"><ele>1041.5</ele><time>2026-04-25T09:05:21.819Z</time></trkpt><trkpt lat="41.039375" lon="-7.9160713"><ele>1039.75</ele><time>2026-04-25T09:05:22.817Z</time></trkpt><trkpt lat="41.0393401" lon="-7.9159216"><ele>1038.0</ele><time>2026-04-25T09:05:23.818Z</time></trkpt><trkpt lat="41.0392975" lon="-7.915784"><ele>1038.0</ele><time>2026-04-25T09:05:24.826Z</time></trkpt><trkpt lat="41.0392441" lon="-7.9156577"><ele>1038.0</ele><time>2026-04-25T09:05:25.825Z</time></trkpt><trkpt lat="41.0391803" lon="-7.9155476"><ele>1038.0</ele><time>2026-04-25T09:05:26.819Z</time></trkpt><trkpt lat="41.039108" lon="-7.9154591"><ele>1038.0</ele><time>2026-04-25T09:05:27.816Z</time></trkpt><trkpt lat="41.0390233" lon="-7.9153951"><ele>1038.0</ele><time>2026-04-25T09:05:28.824Z</time></trkpt><trkpt lat="41.038937" lon="-7.9153467"><ele>1037.4</ele><time>2026-04-25T09:05:29.816Z</time></trkpt><trkpt lat="41.03885" lon="-7.9153001"><ele>1036.8</ele><time>2026-04-25T09:05:30.817Z</time></trkpt><trkpt lat="41.0387688" lon="-7.9152407"><ele>1036.2</ele><time>2026-04-25T09:05:31.822Z</time></trkpt><trkpt lat="41.0387011" lon="-7.9151542"><ele>1035.6</ele><time>2026-04-25T09:05:32.822Z</time></trkpt><trkpt lat="41.0386523" lon="-7.9150458"><ele>1035.0</ele><time>2026-04-25T09:05:33.82Z</time></trkpt><trkpt lat="41.038628" lon="-7.9149308"><ele>1035.0</ele><time>2026-04-25T09:05:34.821Z</time></trkpt><trkpt lat="41.0386229" lon="-7.9148133"><ele>1035.0</ele><time>2026-04-25T09:05:35.822Z</time></trkpt><trkpt lat="41.0386388" lon="-7.9145668"><ele>1035.0</ele><time>2026-04-25T09:05:37.823Z</time></trkpt><trkpt lat="41.0386565" lon="-7.9144281"><ele>1035.0</ele><time>2026-04-25T09:05:38.815Z</time></trkpt><trkpt lat="41.0386791" lon="-7.9142837"><ele>1034.8</ele><time>2026-04-25T09:05:39.817Z</time></trkpt><trkpt lat="41.0387105" lon="-7.9141434"><ele>1034.6</ele><time>2026-04-25T09:05:40.822Z</time></trkpt><trkpt lat="41.0387557" lon="-7.9140087"><ele>1034.4</ele><time>2026-04-25T09:05:41.822Z</time></trkpt><trkpt lat="41.0388137" lon="-7.9138823"><ele>1034.2</ele><time>2026-04-25T09:05:42.821Z</time></trkpt><trkpt lat="41.0388744" lon="-7.9137558"><ele>1034.0</ele><time>2026-04-25T09:05:43.82Z</time></trkpt><trkpt lat="41.0389264" lon="-7.9136277"><ele>1034.0</ele><time>2026-04-25T09:05:44.818Z</time></trkpt><trkpt lat="41.038974" lon="-7.9135044"><ele>1034.0</ele><time>2026-04-25T09:05:45.819Z</time></trkpt><trkpt lat="41.0390201" lon="-7.9133787"><ele>1034.0</ele><time>2026-04-25T09:05:46.817Z</time></trkpt><trkpt lat="41.0390572" lon="-7.9132398"><ele>1034.0</ele><time>2026-04-25T09:05:47.82Z</time></trkpt><trkpt lat="41.0390808" lon="-7.9130958"><ele>1034.0</ele><time>2026-04-25T09:05:48.818Z</time></trkpt><trkpt lat="41.0390922" lon="-7.9129437"><ele>1034.0</ele><time>2026-04-25T09:05:49.818Z</time></trkpt><trkpt lat="41.0390964" lon="-7.9127887"><ele>1034.0</ele><time>2026-04-25T09:05:50.82Z</time></trkpt><trkpt lat="41.0391077" lon="-7.9126391"><ele>1034.0</ele><time>2026-04-25T09:05:51.817Z</time></trkpt><trkpt lat="41.0391224" lon="-7.912488"><ele>1034.0</ele><time>2026-04-25T09:05:52.821Z</time></trkpt><trkpt lat="41.0391379" lon="-7.9123383"><ele>1034.0</ele><time>2026-04-25T09:05:53.819Z</time></trkpt><trkpt lat="41.0391596" lon="-7.912195"><ele>1034.0</ele><time>2026-04-25T09:05:54.822Z</time></trkpt><trkpt lat="41.0391785" lon="-7.9120581"><ele>1034.0</ele><time>2026-04-25T09:05:55.816Z</time></trkpt><trkpt lat="41.0391974" lon="-7.9119396"><ele>1034.0</ele><time>2026-04-25T09:05:56.82Z</time></trkpt><trkpt lat="41.0392555" lon="-7.9117647"><ele>1034.0</ele><time>2026-04-25T09:05:59.816Z</time></trkpt><trkpt lat="41.0393231" lon="-7.911758"><ele>1034.0</ele><time>2026-04-25T09:06:01.824Z</time></trkpt><trkpt lat="41.0394157" lon="-7.9117631"><ele>1034.0</ele><time>2026-04-25T09:06:03.826Z</time></trkpt><trkpt lat="41.03955" lon="-7.9117717"><ele>1034.0</ele><time>2026-04-25T09:06:05.822Z</time></trkpt><trkpt lat="41.0396327" lon="-7.9117612"><ele>1034.0</ele><time>2026-04-25T09:06:06.818Z</time></trkpt><trkpt lat="41.0397218" lon="-7.9117427"><ele>1034.2</ele><time>2026-04-25T09:06:07.815Z</time></trkpt><trkpt lat="41.0398181" lon="-7.9117294"><ele>1034.4</ele><time>2026-04-25T09:06:08.824Z</time></trkpt><trkpt lat="41.0399134" lon="-7.9117269"><ele>1034.6</ele><time>2026-04-25T09:06:09.823Z</time></trkpt><trkpt lat="41.0400042" lon="-7.9117436"><ele>1034.8</ele><time>2026-04-25T09:06:10.818Z</time></trkpt><trkpt lat="41.0400932" lon="-7.9117715"><ele>1035.0</ele><time>2026-04-25T09:06:11.821Z</time></trkpt><trkpt lat="41.0401796" lon="-7.9118109"><ele>1033.8333333333333</ele><time>2026-04-25T09:06:12.816Z</time></trkpt><trkpt lat="41.0402709" lon="-7.9118533"><ele>1032.6666666666667</ele><time>2026-04-25T09:06:13.823Z</time></trkpt><trkpt lat="41.0403615" lon="-7.9118812"><ele>1031.5</ele><time>2026-04-25T09:06:14.827Z</time></trkpt><trkpt lat="41.0404452" lon="-7.9118849"><ele>1030.3333333333335</ele><time>2026-04-25T09:06:15.819Z</time></trkpt><trkpt lat="41.0405285" lon="-7.9118709"><ele>1029.1666666666667</ele><time>2026-04-25T09:06:16.821Z</time></trkpt><trkpt lat="41.040614" lon="-7.9118486"><ele>1028.0</ele><time>2026-04-25T09:06:17.816Z</time></trkpt><trkpt lat="41.0407826" lon="-7.9118036"><ele>1027.3333333333335</ele><time>2026-04-25T09:06:19.816Z</time></trkpt><trkpt lat="41.0408606" lon="-7.9117684"><ele>1026.6666666666667</ele><time>2026-04-25T09:06:20.83Z</time></trkpt><trkpt lat="41.0409345" lon="-7.9117222"><ele>1026.0</ele><time>2026-04-25T09:06:21.819Z</time></trkpt><trkpt lat="41.0410127" lon="-7.9116613"><ele>1025.3333333333333</ele><time>2026-04-25T09:06:22.818Z</time></trkpt><trkpt lat="41.0410837" lon="-7.9115916"><ele>1024.6666666666665</ele><time>2026-04-25T09:06:23.819Z</time></trkpt><trkpt lat="41.0411551" lon="-7.9115164"><ele>1024.0</ele><time>2026-04-25T09:06:24.816Z</time></trkpt><trkpt lat="41.0412248" lon="-7.9114333"><ele>1023.9999999999999</ele><time>2026-04-25T09:06:25.818Z</time></trkpt><trkpt lat="41.0412907" lon="-7.911346"><ele>1024.0</ele><time>2026-04-25T09:06:26.816Z</time></trkpt><trkpt lat="41.0413494" lon="-7.9112623"><ele>1024.0</ele><time>2026-04-25T09:06:27.825Z</time></trkpt><trkpt lat="41.041405" lon="-7.9111775"><ele>1024.0</ele><time>2026-04-25T09:06:28.822Z</time></trkpt><trkpt lat="41.0414601" lon="-7.91109"><ele>1023.9999999999999</ele><time>2026-04-25T09:06:29.823Z</time></trkpt><trkpt lat="41.041515" lon="-7.9109995"><ele>1024.0</ele><time>2026-04-25T09:06:30.816Z</time></trkpt><trkpt lat="41.0415691" lon="-7.91091"><ele>1023.1666666666666</ele><time>2026-04-25T09:06:31.821Z</time></trkpt><trkpt lat="41.0416241" lon="-7.9108224"><ele>1022.3333333333333</ele><time>2026-04-25T09:06:32.813Z</time></trkpt><trkpt lat="41.0416858" lon="-7.9107402"><ele>1021.5</ele><time>2026-04-25T09:06:33.836Z</time></trkpt><trkpt lat="41.0417535" lon="-7.9106739"><ele>1020.6666666666667</ele><time>2026-04-25T09:06:34.817Z</time></trkpt><trkpt lat="41.0418225" lon="-7.9106362"><ele>1019.8333333333334</ele><time>2026-04-25T09:06:35.822Z</time></trkpt><trkpt lat="41.0418915" lon="-7.9106208"><ele>1019.0</ele><time>2026-04-25T09:06:36.814Z</time></trkpt><trkpt lat="41.0419659" lon="-7.9106111"><ele>1019.0</ele><time>2026-04-25T09:06:37.816Z</time></trkpt><trkpt lat="41.0420416" lon="-7.9106066"><ele>1019.0000000000001</ele><time>2026-04-25T09:06:38.82Z</time></trkpt><trkpt lat="41.0421972" lon="-7.9105759"><ele>1019.0000000000001</ele><time>2026-04-25T09:06:40.826Z</time></trkpt><trkpt lat="41.0422705" lon="-7.9105498"><ele>1019.0</ele><time>2026-04-25T09:06:41.82Z</time></trkpt><trkpt lat="41.0423424" lon="-7.9105281"><ele>1019.0</ele><time>2026-04-25T09:06:42.817Z</time></trkpt><trkpt lat="41.0424118" lon="-7.9105075"><ele>1017.3333333333334</ele><time>2026-04-25T09:06:43.817Z</time></trkpt><trkpt lat="41.0424743" lon="-7.9104928"><ele>1015.6666666666667</ele><time>2026-04-25T09:06:44.817Z</time></trkpt><trkpt lat="41.0425904" lon="-7.9104759"><ele>1014.0</ele><time>2026-04-25T09:06:46.829Z</time></trkpt><trkpt lat="41.0427118" lon="-7.910449"><ele>1012.3333333333333</ele><time>2026-04-25T09:06:48.827Z</time></trkpt><trkpt lat="41.0427727" lon="-7.9104271"><ele>1010.6666666666666</ele><time>2026-04-25T09:06:49.82Z</time></trkpt><trkpt lat="41.0428379" lon="-7.9104049"><ele>1009.0</ele><time>2026-04-25T09:06:50.818Z</time></trkpt><trkpt lat="41.0429082" lon="-7.9103822"><ele>1008.9999999999999</ele><time>2026-04-25T09:06:51.826Z</time></trkpt><trkpt lat="41.0429817" lon="-7.9103614"><ele>1009.0</ele><time>2026-04-25T09:06:52.822Z</time></trkpt><trkpt lat="41.0430575" lon="-7.910347"><ele>1009.0</ele><time>2026-04-25T09:06:53.822Z</time></trkpt><trkpt lat="41.043135" lon="-7.9103392"><ele>1009.0</ele><time>2026-04-25T09:06:54.817Z</time></trkpt><trkpt lat="41.0432127" lon="-7.9103319"><ele>1008.9999999999999</ele><time>2026-04-25T09:06:55.824Z</time></trkpt><trkpt lat="41.0432933" lon="-7.9103119"><ele>1009.0</ele><time>2026-04-25T09:06:56.816Z</time></trkpt><trkpt lat="41.0433756" lon="-7.9102842"><ele>1006.4000000000001</ele><time>2026-04-25T09:06:57.824Z</time></trkpt><trkpt lat="41.0434561" lon="-7.9102537"><ele>1003.8000000000001</ele><time>2026-04-25T09:06:58.824Z</time></trkpt><trkpt lat="41.0435352" lon="-7.910224"><ele>1001.1999999999999</ele><time>2026-04-25T09:06:59.82Z</time></trkpt><trkpt lat="41.0436876" lon="-7.910184"><ele>998.5999999999999</ele><time>2026-04-25T09:07:01.82Z</time></trkpt><trkpt lat="41.0437549" lon="-7.9101778"><ele>996.0</ele><time>2026-04-25T09:07:02.825Z</time></trkpt><trkpt lat="41.0438767" lon="-7.9101625"><ele>996.0</ele><time>2026-04-25T09:07:04.821Z</time></trkpt><trkpt lat="41.0439422" lon="-7.9101465"><ele>996.0</ele><time>2026-04-25T09:07:05.818Z</time></trkpt><trkpt lat="41.044009" lon="-7.9101291"><ele>996.0</ele><time>2026-04-25T09:07:06.816Z</time></trkpt><trkpt lat="41.0440786" lon="-7.9101125"><ele>996.0</ele><time>2026-04-25T09:07:07.828Z</time></trkpt><trkpt lat="41.0441483" lon="-7.9100989"><ele>996.0</ele><time>2026-04-25T09:07:08.817Z</time></trkpt><trkpt lat="41.0442134" lon="-7.9100933"><ele>996.0</ele><time>2026-04-25T09:07:09.817Z</time></trkpt><trkpt lat="41.0443385" lon="-7.9100897"><ele>996.3333333333334</ele><time>2026-04-25T09:07:11.825Z</time></trkpt><trkpt lat="41.0444022" lon="-7.9100871"><ele>996.6666666666667</ele><time>2026-04-25T09:07:12.815Z</time></trkpt><trkpt lat="41.0444656" lon="-7.9100833"><ele>997.0</ele><time>2026-04-25T09:07:13.823Z</time></trkpt><trkpt lat="41.0445288" lon="-7.9100768"><ele>997.3333333333334</ele><time>2026-04-25T09:07:14.817Z</time></trkpt><trkpt lat="41.0446511" lon="-7.91006"><ele>997.6666666666667</ele><time>2026-04-25T09:07:16.819Z</time></trkpt><trkpt lat="41.0447672" lon="-7.9100329"><ele>998.0</ele><time>2026-04-25T09:07:18.83Z</time></trkpt><trkpt lat="41.0448706" lon="-7.9100135"><ele>994.25</ele><time>2026-04-25T09:07:20.821Z</time></trkpt><trkpt lat="41.0451014" lon="-7.9100035"><ele>990.5</ele><time>2026-04-25T09:07:24.821Z</time></trkpt><trkpt lat="41.0451651" lon="-7.9100026"><ele>986.75</ele><time>2026-04-25T09:07:25.821Z</time></trkpt><trkpt lat="41.0452846" lon="-7.9100247"><ele>983.0</ele><time>2026-04-25T09:07:27.83Z</time></trkpt><trkpt lat="41.0453982" lon="-7.9100462"><ele>983.0</ele><time>2026-04-25T09:07:29.823Z</time></trkpt><trkpt lat="41.0454962" lon="-7.9100363"><ele>983.0</ele><time>2026-04-25T09:07:31.818Z</time></trkpt><trkpt lat="41.0455908" lon="-7.910011"><ele>983.0</ele><time>2026-04-25T09:07:33.82Z</time></trkpt><trkpt lat="41.0456847" lon="-7.9099741"><ele>983.0</ele><time>2026-04-25T09:07:35.827Z</time></trkpt><trkpt lat="41.0457768" lon="-7.9099031"><ele>983.0</ele><time>2026-04-25T09:07:37.821Z</time></trkpt><trkpt lat="41.0458264" lon="-7.9098454"><ele>980.0000000000001</ele><time>2026-04-25T09:07:38.827Z</time></trkpt><trkpt lat="41.045875" lon="-7.9097753"><ele>977.0</ele><time>2026-04-25T09:07:39.816Z</time></trkpt><trkpt lat="41.0459232" lon="-7.909697"><ele>974.0</ele><time>2026-04-25T09:07:40.82Z</time></trkpt><trkpt lat="41.0459725" lon="-7.9096209"><ele>971.0</ele><time>2026-04-25T09:07:41.817Z</time></trkpt><trkpt lat="41.0460668" lon="-7.9094841"><ele>968.0000000000001</ele><time>2026-04-25T09:07:43.816Z</time></trkpt><trkpt lat="41.0461143" lon="-7.9094271"><ele>965.0</ele><time>2026-04-25T09:07:44.815Z</time></trkpt><trkpt lat="41.0461685" lon="-7.9093698"><ele>965.0000000000001</ele><time>2026-04-25T09:07:45.823Z</time></trkpt><trkpt lat="41.0462262" lon="-7.9093076"><ele>965.0</ele><time>2026-04-25T09:07:46.813Z</time></trkpt><trkpt lat="41.0462869" lon="-7.9092424"><ele>965.0</ele><time>2026-04-25T09:07:47.833Z</time></trkpt><trkpt lat="41.0463483" lon="-7.9091788"><ele>965.0</ele><time>2026-04-25T09:07:48.821Z</time></trkpt><trkpt lat="41.0464109" lon="-7.9091169"><ele>965.0000000000001</ele><time>2026-04-25T09:07:49.833Z</time></trkpt><trkpt lat="41.04648" lon="-7.9090574"><ele>965.0</ele><time>2026-04-25T09:07:50.819Z</time></trkpt><trkpt lat="41.0465518" lon="-7.9090009"><ele>963.1666666666667</ele><time>2026-04-25T09:07:51.822Z</time></trkpt><trkpt lat="41.0466226" lon="-7.9089571"><ele>961.3333333333334</ele><time>2026-04-25T09:07:52.819Z</time></trkpt><trkpt lat="41.0466924" lon="-7.9089159"><ele>959.5</ele><time>2026-04-25T09:07:53.82Z</time></trkpt><trkpt lat="41.046761" lon="-7.9088768"><ele>957.6666666666667</ele><time>2026-04-25T09:07:54.82Z</time></trkpt><trkpt lat="41.0468317" lon="-7.9088373"><ele>955.8333333333334</ele><time>2026-04-25T09:07:55.817Z</time></trkpt><trkpt lat="41.0469061" lon="-7.9088007"><ele>954.0</ele><time>2026-04-25T09:07:56.821Z</time></trkpt><trkpt lat="41.0469794" lon="-7.9087662"><ele>954.0</ele><time>2026-04-25T09:07:57.82Z</time></trkpt><trkpt lat="41.047057" lon="-7.9087369"><ele>954.0</ele><time>2026-04-25T09:07:58.817Z</time></trkpt><trkpt lat="41.0471362" lon="-7.9087022"><ele>954.0</ele><time>2026-04-25T09:07:59.817Z</time></trkpt><trkpt lat="41.0472126" lon="-7.9086748"><ele>954.0</ele><time>2026-04-25T09:08:00.824Z</time></trkpt><trkpt lat="41.0472855" lon="-7.9086614"><ele>954.0</ele><time>2026-04-25T09:08:01.817Z</time></trkpt><trkpt lat="41.0473552" lon="-7.9086507"><ele>954.0</ele><time>2026-04-25T09:08:02.82Z</time></trkpt><trkpt lat="41.0474857" lon="-7.908629"><ele>955.2</ele><time>2026-04-25T09:08:04.82Z</time></trkpt><trkpt lat="41.0475465" lon="-7.9086044"><ele>956.4000000000001</ele><time>2026-04-25T09:08:05.821Z</time></trkpt><trkpt lat="41.0476531" lon="-7.9085321"><ele>957.6</ele><time>2026-04-25T09:08:07.817Z</time></trkpt><trkpt lat="41.0477484" lon="-7.9084509"><ele>958.8</ele><time>2026-04-25T09:08:09.824Z</time></trkpt><trkpt lat="41.0478587" lon="-7.9083945"><ele>960.0</ele><time>2026-04-25T09:08:11.825Z</time></trkpt><trkpt lat="41.0479213" lon="-7.9083824"><ele>960.0</ele><time>2026-04-25T09:08:12.822Z</time></trkpt><trkpt lat="41.047993" lon="-7.9083811"><ele>960.0</ele><time>2026-04-25T09:08:13.817Z</time></trkpt><trkpt lat="41.04807" lon="-7.9083893"><ele>960.0</ele><time>2026-04-25T09:08:14.817Z</time></trkpt><trkpt lat="41.0481537" lon="-7.908404"><ele>960.0</ele><time>2026-04-25T09:08:15.822Z</time></trkpt><trkpt lat="41.0482375" lon="-7.908427"><ele>960.0</ele><time>2026-04-25T09:08:16.815Z</time></trkpt><trkpt lat="41.0483195" lon="-7.9084581"><ele>960.0</ele><time>2026-04-25T09:08:17.818Z</time></trkpt><trkpt lat="41.048398" lon="-7.9085017"><ele>954.3333333333334</ele><time>2026-04-25T09:08:18.824Z</time></trkpt><trkpt lat="41.0484764" lon="-7.908557"><ele>948.6666666666667</ele><time>2026-04-25T09:08:19.819Z</time></trkpt><trkpt lat="41.0485453" lon="-7.9086149"><ele>943.0</ele><time>2026-04-25T09:08:20.817Z</time></trkpt><trkpt lat="41.0486054" lon="-7.9086712"><ele>937.3333333333334</ele><time>2026-04-25T09:08:21.817Z</time></trkpt><trkpt lat="41.0486593" lon="-7.9087265"><ele>931.6666666666667</ele><time>2026-04-25T09:08:22.82Z</time></trkpt><trkpt lat="41.0487108" lon="-7.9087764"><ele>926.0</ele><time>2026-04-25T09:08:23.821Z</time></trkpt><trkpt lat="41.0488378" lon="-7.9088711"><ele>926.0000000000001</ele><time>2026-04-25T09:08:25.816Z</time></trkpt><trkpt lat="41.0489038" lon="-7.9089005"><ele>926.0</ele><time>2026-04-25T09:08:26.816Z</time></trkpt><trkpt lat="41.0489774" lon="-7.9089012"><ele>926.0</ele><time>2026-04-25T09:08:27.818Z</time></trkpt><trkpt lat="41.0490547" lon="-7.9088691"><ele>926.0</ele><time>2026-04-25T09:08:28.815Z</time></trkpt><trkpt lat="41.0491286" lon="-7.9088172"><ele>926.0000000000001</ele><time>2026-04-25T09:08:29.819Z</time></trkpt><trkpt lat="41.049199" lon="-7.9087604"><ele>926.0</ele><time>2026-04-25T09:08:30.811Z</time></trkpt><trkpt lat="41.0492681" lon="-7.9087065"><ele>925.5714285714286</ele><time>2026-04-25T09:08:31.816Z</time></trkpt><trkpt lat="41.0493364" lon="-7.9086555"><ele>925.1428571428571</ele><time>2026-04-25T09:08:32.818Z</time></trkpt><trkpt lat="41.0494011" lon="-7.9085995"><ele>924.7142857142857</ele><time>2026-04-25T09:08:33.814Z</time></trkpt><trkpt lat="41.049462" lon="-7.9085451"><ele>924.2857142857142</ele><time>2026-04-25T09:08:34.822Z</time></trkpt><trkpt lat="41.0495221" lon="-7.9085001"><ele>923.8571428571429</ele><time>2026-04-25T09:08:35.824Z</time></trkpt><trkpt lat="41.0495812" lon="-7.9084592"><ele>923.4285714285713</ele><time>2026-04-25T09:08:36.817Z</time></trkpt><trkpt lat="41.0496421" lon="-7.9084042"><ele>923.0</ele><time>2026-04-25T09:08:37.815Z</time></trkpt><trkpt lat="41.0497028" lon="-7.9083406"><ele>921.7142857142857</ele><time>2026-04-25T09:08:38.816Z</time></trkpt><trkpt lat="41.0497632" lon="-7.9082742"><ele>920.4285714285716</ele><time>2026-04-25T09:08:39.821Z</time></trkpt><trkpt lat="41.0498194" lon="-7.9082042"><ele>919.1428571428572</ele><time>2026-04-25T09:08:40.818Z</time></trkpt><trkpt lat="41.0498705" lon="-7.9081318"><ele>917.8571428571429</ele><time>2026-04-25T09:08:41.822Z</time></trkpt><trkpt lat="41.0499146" lon="-7.9080593"><ele>916.5714285714287</ele><time>2026-04-25T09:08:42.824Z</time></trkpt><trkpt lat="41.049954" lon="-7.9079893"><ele>915.2857142857144</ele><time>2026-04-25T09:08:43.822Z</time></trkpt><trkpt lat="41.0499942" lon="-7.9079204"><ele>914.0000000000001</ele><time>2026-04-25T09:08:44.818Z</time></trkpt><trkpt lat="41.0500691" lon="-7.9077776"><ele>914.0000000000001</ele><time>2026-04-25T09:08:46.818Z</time></trkpt><trkpt lat="41.0501073" lon="-7.9077026"><ele>914.0</ele><time>2026-04-25T09:08:47.821Z</time></trkpt><trkpt lat="41.0501535" lon="-7.9076301"><ele>914.0</ele><time>2026-04-25T09:08:48.82Z</time></trkpt><trkpt lat="41.0502129" lon="-7.9075697"><ele>914.0</ele><time>2026-04-25T09:08:49.816Z</time></trkpt><trkpt lat="41.0502846" lon="-7.9075226"><ele>914.0000000000001</ele><time>2026-04-25T09:08:50.82Z</time></trkpt><trkpt lat="41.0503622" lon="-7.9074876"><ele>914.0</ele><time>2026-04-25T09:08:51.829Z</time></trkpt><trkpt lat="41.0504358" lon="-7.9074657"><ele>914.4285714285716</ele><time>2026-04-25T09:08:52.818Z</time></trkpt><trkpt lat="41.0505077" lon="-7.9074446"><ele>914.8571428571429</ele><time>2026-04-25T09:08:53.816Z</time></trkpt><trkpt lat="41.0505833" lon="-7.9074335"><ele>915.2857142857143</ele><time>2026-04-25T09:08:54.82Z</time></trkpt><trkpt lat="41.050657" lon="-7.9074245"><ele>915.7142857142858</ele><time>2026-04-25T09:08:55.817Z</time></trkpt><trkpt lat="41.0507292" lon="-7.9074189"><ele>916.1428571428571</ele><time>2026-04-25T09:08:56.817Z</time></trkpt><trkpt lat="41.0508003" lon="-7.907407"><ele>916.5714285714286</ele><time>2026-04-25T09:08:57.835Z</time></trkpt><trkpt lat="41.0508669" lon="-7.9073889"><ele>917.0</ele><time>2026-04-25T09:08:58.818Z</time></trkpt><trkpt lat="41.0509772" lon="-7.9073639"><ele>917.0</ele><time>2026-04-25T09:09:00.82Z</time></trkpt><trkpt lat="41.051077" lon="-7.9073615"><ele>917.0</ele><time>2026-04-25T09:09:02.821Z</time></trkpt><trkpt lat="41.0511701" lon="-7.9073648"><ele>917.0</ele><time>2026-04-25T09:09:04.824Z</time></trkpt><trkpt lat="41.0512962" lon="-7.9073688"><ele>917.0</ele><time>2026-04-25T09:09:06.816Z</time></trkpt><trkpt lat="41.051452" lon="-7.9073677"><ele>917.0000000000001</ele><time>2026-04-25T09:09:08.82Z</time></trkpt><trkpt lat="41.051537" lon="-7.9073724"><ele>917.0</ele><time>2026-04-25T09:09:09.818Z</time></trkpt><trkpt lat="41.0516224" lon="-7.9073646"><ele>917.0</ele><time>2026-04-25T09:09:10.815Z</time></trkpt><trkpt lat="41.0516994" lon="-7.9073311"><ele>917.0</ele><time>2026-04-25T09:09:11.817Z</time></trkpt><trkpt lat="41.0517711" lon="-7.9072818"><ele>917.0000000000001</ele><time>2026-04-25T09:09:12.832Z</time></trkpt><trkpt lat="41.0518299" lon="-7.9072217"><ele>917.0</ele><time>2026-04-25T09:09:13.827Z</time></trkpt><trkpt lat="41.0518837" lon="-7.9071538"><ele>917.0000000000001</ele><time>2026-04-25T09:09:14.816Z</time></trkpt><trkpt lat="41.0519337" lon="-7.9070784"><ele>917.0</ele><time>2026-04-25T09:09:15.827Z</time></trkpt><trkpt lat="41.0519707" lon="-7.9070056"><ele>917.0</ele><time>2026-04-25T09:09:16.827Z</time></trkpt><trkpt lat="41.0520457" lon="-7.9069001"><ele>917.0</ele><time>2026-04-25T09:09:18.815Z</time></trkpt><trkpt lat="41.0521397" lon="-7.9068075"><ele>917.0000000000001</ele><time>2026-04-25T09:09:20.819Z</time></trkpt><trkpt lat="41.0521941" lon="-7.9067504"><ele>917.0</ele><time>2026-04-25T09:09:21.822Z</time></trkpt><trkpt lat="41.052251" lon="-7.9066879"><ele>917.0</ele><time>2026-04-25T09:09:22.82Z</time></trkpt><trkpt lat="41.0523131" lon="-7.9066256"><ele>917.0</ele><time>2026-04-25T09:09:23.823Z</time></trkpt><trkpt lat="41.0523732" lon="-7.906566"><ele>917.0</ele><time>2026-04-25T09:09:24.815Z</time></trkpt><trkpt lat="41.0524279" lon="-7.9065092"><ele>917.0</ele><time>2026-04-25T09:09:25.817Z</time></trkpt><trkpt lat="41.052535" lon="-7.9064662"><ele>917.0</ele><time>2026-04-25T09:09:27.816Z</time></trkpt><trkpt lat="41.0526684" lon="-7.9065186"><ele>913.2857142857143</ele><time>2026-04-25T09:09:29.819Z</time></trkpt><trkpt lat="41.0527293" lon="-7.9065497"><ele>909.5714285714286</ele><time>2026-04-25T09:09:30.813Z</time></trkpt><trkpt lat="41.0527875" lon="-7.906582"><ele>905.8571428571429</ele><time>2026-04-25T09:09:31.82Z</time></trkpt><trkpt lat="41.0528925" lon="-7.9066504"><ele>902.1428571428571</ele><time>2026-04-25T09:09:33.816Z</time></trkpt><trkpt lat="41.0529431" lon="-7.9067012"><ele>898.4285714285714</ele><time>2026-04-25T09:09:34.82Z</time></trkpt><trkpt lat="41.0529929" lon="-7.9067632"><ele>894.7142857142858</ele><time>2026-04-25T09:09:35.816Z</time></trkpt><trkpt lat="41.0530368" lon="-7.9068368"><ele>891.0</ele><time>2026-04-25T09:09:36.818Z</time></trkpt><trkpt lat="41.0530865" lon="-7.9069123"><ele>888.5714285714287</ele><time>2026-04-25T09:09:37.822Z</time></trkpt><trkpt lat="41.0531404" lon="-7.9069858"><ele>886.1428571428571</ele><time>2026-04-25T09:09:38.817Z</time></trkpt><trkpt lat="41.053192" lon="-7.907062"><ele>883.7142857142858</ele><time>2026-04-25T09:09:39.818Z</time></trkpt><trkpt lat="41.0532347" lon="-7.9071397"><ele>881.2857142857143</ele><time>2026-04-25T09:09:40.825Z</time></trkpt><trkpt lat="41.0532763" lon="-7.9072128"><ele>878.8571428571429</ele><time>2026-04-25T09:09:41.821Z</time></trkpt><trkpt lat="41.0533186" lon="-7.9072913"><ele>876.4285714285714</ele><time>2026-04-25T09:09:42.824Z</time></trkpt><trkpt lat="41.0533586" lon="-7.9073777"><ele>874.0</ele><time>2026-04-25T09:09:43.819Z</time></trkpt><trkpt lat="41.0533973" lon="-7.9074719"><ele>873.4000000000001</ele><time>2026-04-25T09:09:44.815Z</time></trkpt><trkpt lat="41.053432" lon="-7.9075702"><ele>872.8000000000001</ele><time>2026-04-25T09:09:45.815Z</time></trkpt><trkpt lat="41.0534583" lon="-7.9076749"><ele>872.1999999999999</ele><time>2026-04-25T09:09:46.818Z</time></trkpt><trkpt lat="41.0534915" lon="-7.9077734"><ele>871.5999999999999</ele><time>2026-04-25T09:09:47.819Z</time></trkpt><trkpt lat="41.0535355" lon="-7.9078717"><ele>871.0</ele><time>2026-04-25T09:09:48.817Z</time></trkpt><trkpt lat="41.0536395" lon="-7.9080572"><ele>866.4999999999999</ele><time>2026-04-25T09:09:50.818Z</time></trkpt><trkpt lat="41.0536946" lon="-7.9081308"><ele>862.0</ele><time>2026-04-25T09:09:51.824Z</time></trkpt><trkpt lat="41.0537573" lon="-7.9081873"><ele>857.5</ele><time>2026-04-25T09:09:52.82Z</time></trkpt><trkpt lat="41.0538283" lon="-7.9082159"><ele>853.0</ele><time>2026-04-25T09:09:53.814Z</time></trkpt><trkpt lat="41.0539052" lon="-7.9082114"><ele>848.4999999999999</ele><time>2026-04-25T09:09:54.816Z</time></trkpt><trkpt lat="41.053979" lon="-7.9081713"><ele>844.0</ele><time>2026-04-25T09:09:55.814Z</time></trkpt><trkpt lat="41.0540502" lon="-7.9080993"><ele>843.9999999999999</ele><time>2026-04-25T09:09:56.817Z</time></trkpt><trkpt lat="41.054109" lon="-7.9080085"><ele>844.0</ele><time>2026-04-25T09:09:57.816Z</time></trkpt><trkpt lat="41.0541602" lon="-7.9079161"><ele>844.0</ele><time>2026-04-25T09:09:58.817Z</time></trkpt><trkpt lat="41.0542039" lon="-7.9078161"><ele>844.0</ele><time>2026-04-25T09:09:59.823Z</time></trkpt><trkpt lat="41.054254" lon="-7.9077282"><ele>843.9999999999999</ele><time>2026-04-25T09:10:00.821Z</time></trkpt><trkpt lat="41.0543064" lon="-7.9076403"><ele>844.0</ele><time>2026-04-25T09:10:01.82Z</time></trkpt><trkpt lat="41.0543565" lon="-7.9075546"><ele>847.1666666666666</ele><time>2026-04-25T09:10:02.814Z</time></trkpt><trkpt lat="41.0544157" lon="-7.9074719"><ele>850.3333333333333</ele><time>2026-04-25T09:10:03.821Z</time></trkpt><trkpt lat="41.0544708" lon="-7.9073897"><ele>853.5</ele><time>2026-04-25T09:10:04.817Z</time></trkpt><trkpt lat="41.0545303" lon="-7.9073127"><ele>856.6666666666667</ele><time>2026-04-25T09:10:05.815Z</time></trkpt><trkpt lat="41.0545979" lon="-7.9072383"><ele>859.8333333333334</ele><time>2026-04-25T09:10:06.825Z</time></trkpt><trkpt lat="41.0546663" lon="-7.9071704"><ele>863.0</ele><time>2026-04-25T09:10:07.814Z</time></trkpt><trkpt lat="41.0547357" lon="-7.9071076"><ele>863.0</ele><time>2026-04-25T09:10:08.816Z</time></trkpt><trkpt lat="41.0548036" lon="-7.9070443"><ele>863.0</ele><time>2026-04-25T09:10:09.811Z</time></trkpt><trkpt lat="41.0549391" lon="-7.9069148"><ele>863.0</ele><time>2026-04-25T09:10:11.816Z</time></trkpt><trkpt lat="41.0550097" lon="-7.9068507"><ele>863.0</ele><time>2026-04-25T09:10:12.818Z</time></trkpt><trkpt lat="41.0550794" lon="-7.9067858"><ele>863.0</ele><time>2026-04-25T09:10:13.815Z</time></trkpt><trkpt lat="41.0551493" lon="-7.9067301"><ele>861.1666666666667</ele><time>2026-04-25T09:10:14.824Z</time></trkpt><trkpt lat="41.0552233" lon="-7.9066783"><ele>859.3333333333334</ele><time>2026-04-25T09:10:15.815Z</time></trkpt><trkpt lat="41.0552951" lon="-7.9066394"><ele>857.5</ele><time>2026-04-25T09:10:16.821Z</time></trkpt><trkpt lat="41.0553643" lon="-7.9066139"><ele>855.6666666666667</ele><time>2026-04-25T09:10:17.827Z</time></trkpt><trkpt lat="41.0554294" lon="-7.9065909"><ele>853.8333333333334</ele><time>2026-04-25T09:10:18.815Z</time></trkpt><trkpt lat="41.0555606" lon="-7.9065699"><ele>852.0</ele><time>2026-04-25T09:10:20.816Z</time></trkpt><trkpt lat="41.0556403" lon="-7.9065821"><ele>852.0</ele><time>2026-04-25T09:10:21.817Z</time></trkpt><trkpt lat="41.0557227" lon="-7.90662"><ele>852.0</ele><time>2026-04-25T09:10:22.816Z</time></trkpt><trkpt lat="41.0558042" lon="-7.906679"><ele>852.0</ele><time>2026-04-25T09:10:23.817Z</time></trkpt><trkpt lat="41.0558769" lon="-7.9067463"><ele>852.0</ele><time>2026-04-25T09:10:24.811Z</time></trkpt><trkpt lat="41.0559463" lon="-7.9068248"><ele>852.0</ele><time>2026-04-25T09:10:25.813Z</time></trkpt><trkpt lat="41.0560104" lon="-7.906908"><ele>843.8</ele><time>2026-04-25T09:10:26.818Z</time></trkpt><trkpt lat="41.0560679" lon="-7.9069937"><ele>835.6</ele><time>2026-04-25T09:10:27.814Z</time></trkpt><trkpt lat="41.0561235" lon="-7.9070741"><ele>827.4</ele><time>2026-04-25T09:10:28.818Z</time></trkpt><trkpt lat="41.0561789" lon="-7.9071386"><ele>819.1999999999999</ele><time>2026-04-25T09:10:29.824Z</time></trkpt><trkpt lat="41.0562347" lon="-7.9071923"><ele>811.0</ele><time>2026-04-25T09:10:30.816Z</time></trkpt><trkpt lat="41.0563529" lon="-7.9073038"><ele>810.9999999999999</ele><time>2026-04-25T09:10:32.821Z</time></trkpt><trkpt lat="41.0564069" lon="-7.9073672"><ele>811.0</ele><time>2026-04-25T09:10:33.816Z</time></trkpt><trkpt lat="41.0564654" lon="-7.9074395"><ele>811.0</ele><time>2026-04-25T09:10:34.825Z</time></trkpt><trkpt lat="41.0565241" lon="-7.9075025"><ele>811.0</ele><time>2026-04-25T09:10:35.824Z</time></trkpt><trkpt lat="41.0565896" lon="-7.9075485"><ele>810.9999999999999</ele><time>2026-04-25T09:10:36.815Z</time></trkpt><trkpt lat="41.0566614" lon="-7.9075767"><ele>811.0</ele><time>2026-04-25T09:10:37.815Z</time></trkpt><trkpt lat="41.0567392" lon="-7.9075904"><ele>807.8</ele><time>2026-04-25T09:10:38.817Z</time></trkpt><trkpt lat="41.0568272" lon="-7.9076021"><ele>804.5999999999999</ele><time>2026-04-25T09:10:39.815Z</time></trkpt><trkpt lat="41.0569177" lon="-7.9076146"><ele>801.4</ele><time>2026-04-25T09:10:40.818Z</time></trkpt><trkpt lat="41.0570129" lon="-7.9076419"><ele>798.2</ele><time>2026-04-25T09:10:41.82Z</time></trkpt><trkpt lat="41.0571109" lon="-7.9076813"><ele>795.0</ele><time>2026-04-25T09:10:42.818Z</time></trkpt><trkpt lat="41.0572056" lon="-7.9077298"><ele>795.0</ele><time>2026-04-25T09:10:43.82Z</time></trkpt><trkpt lat="41.0572987" lon="-7.9077758"><ele>795.0</ele><time>2026-04-25T09:10:44.821Z</time></trkpt><trkpt lat="41.0573943" lon="-7.9078236"><ele>795.0</ele><time>2026-04-25T09:10:45.816Z</time></trkpt><trkpt lat="41.0574911" lon="-7.9078613"><ele>795.0</ele><time>2026-04-25T09:10:46.815Z</time></trkpt><trkpt lat="41.0575905" lon="-7.9078913"><ele>795.0</ele><time>2026-04-25T09:10:47.828Z</time></trkpt><trkpt lat="41.0576924" lon="-7.9079216"><ele>793.75</ele><time>2026-04-25T09:10:48.813Z</time></trkpt><trkpt lat="41.0577985" lon="-7.9079537"><ele>792.5</ele><time>2026-04-25T09:10:49.817Z</time></trkpt><trkpt lat="41.0579013" lon="-7.9079939"><ele>791.25</ele><time>2026-04-25T09:10:50.824Z</time></trkpt><trkpt lat="41.0580039" lon="-7.9080249"><ele>790.0</ele><time>2026-04-25T09:10:51.816Z</time></trkpt><trkpt lat="41.05822" lon="-7.9080316"><ele>787.75</ele><time>2026-04-25T09:10:53.818Z</time></trkpt><trkpt lat="41.0583348" lon="-7.908014"><ele>785.5</ele><time>2026-04-25T09:10:54.82Z</time></trkpt><trkpt lat="41.0584478" lon="-7.9079795"><ele>783.25</ele><time>2026-04-25T09:10:55.815Z</time></trkpt><trkpt lat="41.0585625" lon="-7.9079444"><ele>781.0</ele><time>2026-04-25T09:10:56.818Z</time></trkpt><trkpt lat="41.0586694" lon="-7.9078993"><ele>781.0</ele><time>2026-04-25T09:10:57.818Z</time></trkpt><trkpt lat="41.0587672" lon="-7.907855"><ele>781.0</ele><time>2026-04-25T09:10:58.815Z</time></trkpt><trkpt lat="41.0588548" lon="-7.9078015"><ele>781.0</ele><time>2026-04-25T09:10:59.817Z</time></trkpt><trkpt lat="41.0589383" lon="-7.9077396"><ele>781.0</ele><time>2026-04-25T09:11:00.818Z</time></trkpt><trkpt lat="41.0590099" lon="-7.9076716"><ele>781.0</ele><time>2026-04-25T09:11:01.811Z</time></trkpt><trkpt lat="41.059073" lon="-7.9075978"><ele>780.1666666666666</ele><time>2026-04-25T09:11:02.815Z</time></trkpt><trkpt lat="41.0591259" lon="-7.9075324"><ele>779.3333333333333</ele><time>2026-04-25T09:11:03.814Z</time></trkpt><trkpt lat="41.0592024" lon="-7.9074643"><ele>778.5</ele><time>2026-04-25T09:11:05.816Z</time></trkpt><trkpt lat="41.0592441" lon="-7.9075654"><ele>777.6666666666667</ele><time>2026-04-25T09:11:07.816Z</time></trkpt><trkpt lat="41.0592288" lon="-7.9076542"><ele>776.8333333333334</ele><time>2026-04-25T09:11:08.813Z</time></trkpt><trkpt lat="41.0591938" lon="-7.9077516"><ele>776.0</ele><time>2026-04-25T09:11:09.819Z</time></trkpt><trkpt lat="41.0591587" lon="-7.9078364"><ele>776.0000000000001</ele><time>2026-04-25T09:11:10.817Z</time></trkpt><trkpt lat="41.0591099" lon="-7.9079549"><ele>776.0</ele><time>2026-04-25T09:11:12.813Z</time></trkpt><trkpt lat="41.059156" lon="-7.9079572"><ele>776.0</ele><time>2026-04-25T09:11:21.815Z</time></trkpt><trkpt lat="41.0591965" lon="-7.9078697"><ele>776.0</ele><time>2026-04-25T09:11:23.839Z</time></trkpt><trkpt lat="41.0592509" lon="-7.907781"><ele>776.0000000000001</ele><time>2026-04-25T09:11:25.817Z</time></trkpt><trkpt lat="41.0593223" lon="-7.9076507"><ele>776.0</ele><time>2026-04-25T09:11:27.823Z</time></trkpt><trkpt lat="41.0593557" lon="-7.9075671"><ele>776.0</ele><time>2026-04-25T09:11:28.82Z</time></trkpt><trkpt lat="41.0593836" lon="-7.9074714"><ele>776.0</ele><time>2026-04-25T09:11:29.818Z</time></trkpt><trkpt lat="41.0594147" lon="-7.9073816"><ele>776.0</ele><time>2026-04-25T09:11:30.818Z</time></trkpt><trkpt lat="41.0594479" lon="-7.9073019"><ele>776.0</ele><time>2026-04-25T09:11:31.817Z</time></trkpt><trkpt lat="41.0594847" lon="-7.9071601"><ele>776.0</ele><time>2026-04-25T09:11:33.821Z</time></trkpt><trkpt lat="41.059542" lon="-7.9069204"><ele>776.0000000000001</ele><time>2026-04-25T09:11:36.817Z</time></trkpt><trkpt lat="41.0595694" lon="-7.9068316"><ele>776.0</ele><time>2026-04-25T09:11:37.815Z</time></trkpt><trkpt lat="41.0595947" lon="-7.9067424"><ele>776.0</ele><time>2026-04-25T09:11:38.817Z</time></trkpt><trkpt lat="41.0596156" lon="-7.9066555"><ele>776.0</ele><time>2026-04-25T09:11:39.824Z</time></trkpt><trkpt lat="41.0596297" lon="-7.9065709"><ele>776.0000000000001</ele><time>2026-04-25T09:11:40.82Z</time></trkpt><trkpt lat="41.0596209" lon="-7.906425"><ele>776.0</ele><time>2026-04-25T09:11:42.817Z</time></trkpt><trkpt lat="41.0595665" lon="-7.906287"><ele>778.1666666666667</ele><time>2026-04-25T09:11:44.817Z</time></trkpt><trkpt lat="41.0595229" lon="-7.9061957"><ele>780.3333333333334</ele><time>2026-04-25T09:11:45.817Z</time></trkpt><trkpt lat="41.0594847" lon="-7.9060951"><ele>782.5</ele><time>2026-04-25T09:11:46.814Z</time></trkpt><trkpt lat="41.0594469" lon="-7.9059915"><ele>784.6666666666667</ele><time>2026-04-25T09:11:47.817Z</time></trkpt><trkpt lat="41.0594057" lon="-7.9058821"><ele>786.8333333333334</ele><time>2026-04-25T09:11:48.822Z</time></trkpt><trkpt lat="41.0593508" lon="-7.9057822"><ele>789.0</ele><time>2026-04-25T09:11:49.819Z</time></trkpt><trkpt lat="41.0592821" lon="-7.90569"><ele>789.0</ele><time>2026-04-25T09:11:50.816Z</time></trkpt><trkpt lat="41.059212" lon="-7.9056036"><ele>789.0</ele><time>2026-04-25T09:11:51.818Z</time></trkpt><trkpt lat="41.0591439" lon="-7.9055249"><ele>789.0</ele><time>2026-04-25T09:11:52.814Z</time></trkpt><trkpt lat="41.0590753" lon="-7.9054544"><ele>789.0</ele><time>2026-04-25T09:11:53.817Z</time></trkpt><trkpt lat="41.0590071" lon="-7.905382"><ele>789.0</ele><time>2026-04-25T09:11:54.821Z</time></trkpt><trkpt lat="41.0588994" lon="-7.9052148"><ele>794.0</ele><time>2026-04-25T09:11:56.816Z</time></trkpt><trkpt lat="41.058854" lon="-7.9051268"><ele>799.0</ele><time>2026-04-25T09:11:57.825Z</time></trkpt><trkpt lat="41.0588174" lon="-7.9050359"><ele>804.0</ele><time>2026-04-25T09:11:58.819Z</time></trkpt><trkpt lat="41.0588059" lon="-7.9049362"><ele>809.0</ele><time>2026-04-25T09:11:59.814Z</time></trkpt><trkpt lat="41.0588161" lon="-7.9048311"><ele>814.0</ele><time>2026-04-25T09:12:00.816Z</time></trkpt><trkpt lat="41.0588445" lon="-7.9047324"><ele>819.0</ele><time>2026-04-25T09:12:01.813Z</time></trkpt><trkpt lat="41.0588837" lon="-7.9046399"><ele>819.0</ele><time>2026-04-25T09:12:02.82Z</time></trkpt><trkpt lat="41.0589316" lon="-7.9045498"><ele>819.0</ele><time>2026-04-25T09:12:03.818Z</time></trkpt><trkpt lat="41.0589891" lon="-7.9044668"><ele>819.0</ele><time>2026-04-25T09:12:04.815Z</time></trkpt><trkpt lat="41.0590544" lon="-7.9043941"><ele>819.0</ele><time>2026-04-25T09:12:05.818Z</time></trkpt><trkpt lat="41.0591192" lon="-7.9043318"><ele>819.0</ele><time>2026-04-25T09:12:06.816Z</time></trkpt><trkpt lat="41.059186" lon="-7.9042839"><ele>819.0</ele><time>2026-04-25T09:12:07.814Z</time></trkpt><trkpt lat="41.0592549" lon="-7.9042401"><ele>815.6666666666666</ele><time>2026-04-25T09:12:08.816Z</time></trkpt><trkpt lat="41.0593221" lon="-7.9041896"><ele>812.3333333333333</ele><time>2026-04-25T09:12:09.823Z</time></trkpt><trkpt lat="41.0593917" lon="-7.9041383"><ele>809.0</ele><time>2026-04-25T09:12:10.813Z</time></trkpt><trkpt lat="41.0594553" lon="-7.9040818"><ele>805.6666666666666</ele><time>2026-04-25T09:12:11.822Z</time></trkpt><trkpt lat="41.0595173" lon="-7.9040251"><ele>802.3333333333333</ele><time>2026-04-25T09:12:12.819Z</time></trkpt><trkpt lat="41.0595734" lon="-7.9039562"><ele>799.0</ele><time>2026-04-25T09:12:13.823Z</time></trkpt><trkpt lat="41.0596197" lon="-7.9038841"><ele>799.0</ele><time>2026-04-25T09:12:14.814Z</time></trkpt><trkpt lat="41.0596531" lon="-7.9038133"><ele>799.0</ele><time>2026-04-25T09:12:15.821Z</time></trkpt><trkpt lat="41.059638" lon="-7.903554"><ele>799.0</ele><time>2026-04-25T09:12:19.823Z</time></trkpt><trkpt lat="41.0596382" lon="-7.9034545"><ele>799.0</ele><time>2026-04-25T09:12:21.826Z</time></trkpt><trkpt lat="41.0596771" lon="-7.9033799"><ele>799.0</ele><time>2026-04-25T09:12:23.814Z</time></trkpt><trkpt lat="41.0597267" lon="-7.9033047"><ele>803.2</ele><time>2026-04-25T09:12:25.814Z</time></trkpt><trkpt lat="41.0597772" lon="-7.9032071"><ele>807.4000000000001</ele><time>2026-04-25T09:12:27.818Z</time></trkpt><trkpt lat="41.059834" lon="-7.9030934"><ele>811.6</ele><time>2026-04-25T09:12:29.817Z</time></trkpt><trkpt lat="41.0598613" lon="-7.9029665"><ele>815.8</ele><time>2026-04-25T09:12:31.815Z</time></trkpt><trkpt lat="41.059874" lon="-7.9028257"><ele>820.0</ele><time>2026-04-25T09:12:33.821Z</time></trkpt><trkpt lat="41.0598768" lon="-7.9026565"><ele>822.9999999999999</ele><time>2026-04-25T09:12:35.816Z</time></trkpt><trkpt lat="41.0598761" lon="-7.9025674"><ele>826.0</ele><time>2026-04-25T09:12:36.828Z</time></trkpt><trkpt lat="41.0598767" lon="-7.9023875"><ele>829.0</ele><time>2026-04-25T09:12:38.816Z</time></trkpt><trkpt lat="41.0598802" lon="-7.9023024"><ele>832.0</ele><time>2026-04-25T09:12:39.813Z</time></trkpt><trkpt lat="41.0598786" lon="-7.9022187"><ele>834.9999999999999</ele><time>2026-04-25T09:12:40.817Z</time></trkpt><trkpt lat="41.0599013" lon="-7.9020819"><ele>838.0</ele><time>2026-04-25T09:12:42.821Z</time></trkpt><trkpt lat="41.0599355" lon="-7.9020118"><ele>835.6666666666666</ele><time>2026-04-25T09:12:43.815Z</time></trkpt><trkpt lat="41.0599819" lon="-7.9019452"><ele>833.3333333333333</ele><time>2026-04-25T09:12:44.817Z</time></trkpt><trkpt lat="41.0600399" lon="-7.9018832"><ele>831.0</ele><time>2026-04-25T09:12:45.818Z</time></trkpt><trkpt lat="41.0601035" lon="-7.9018179"><ele>828.6666666666667</ele><time>2026-04-25T09:12:46.819Z</time></trkpt><trkpt lat="41.060173" lon="-7.9017495"><ele>826.3333333333334</ele><time>2026-04-25T09:12:47.819Z</time></trkpt><trkpt lat="41.0602559" lon="-7.9016864"><ele>824.0</ele><time>2026-04-25T09:12:48.814Z</time></trkpt><trkpt lat="41.0603478" lon="-7.9016215"><ele>824.0</ele><time>2026-04-25T09:12:49.824Z</time></trkpt><trkpt lat="41.060434" lon="-7.9015468"><ele>824.0</ele><time>2026-04-25T09:12:50.815Z</time></trkpt><trkpt lat="41.0605187" lon="-7.9014654"><ele>824.0</ele><time>2026-04-25T09:12:51.816Z</time></trkpt><trkpt lat="41.0605961" lon="-7.9013784"><ele>824.0</ele><time>2026-04-25T09:12:52.816Z</time></trkpt><trkpt lat="41.0606571" lon="-7.9012904"><ele>824.0</ele><time>2026-04-25T09:12:53.82Z</time></trkpt><trkpt lat="41.0607176" lon="-7.9012038"><ele>824.0</ele><time>2026-04-25T09:12:54.816Z</time></trkpt><trkpt lat="41.0607814" lon="-7.9011274"><ele>824.0</ele><time>2026-04-25T09:12:55.812Z</time></trkpt><trkpt lat="41.0608444" lon="-7.90107"><ele>824.0</ele><time>2026-04-25T09:12:56.815Z</time></trkpt><trkpt lat="41.0608954" lon="-7.9010181"><ele>824.0</ele><time>2026-04-25T09:12:57.812Z</time></trkpt><trkpt lat="41.0610748" lon="-7.9008378"><ele>826.2857142857142</ele><time>2026-04-25T09:13:01.82Z</time></trkpt><trkpt lat="41.0611252" lon="-7.900781"><ele>828.5714285714286</ele><time>2026-04-25T09:13:02.814Z</time></trkpt><trkpt lat="41.0611772" lon="-7.9007158"><ele>830.8571428571429</ele><time>2026-04-25T09:13:03.819Z</time></trkpt><trkpt lat="41.061224" lon="-7.9006438"><ele>833.1428571428571</ele><time>2026-04-25T09:13:04.817Z</time></trkpt><trkpt lat="41.061269" lon="-7.9005672"><ele>835.4285714285714</ele><time>2026-04-25T09:13:05.82Z</time></trkpt><trkpt lat="41.0613108" lon="-7.9004876"><ele>837.7142857142857</ele><time>2026-04-25T09:13:06.815Z</time></trkpt><trkpt lat="41.0613564" lon="-7.9004027"><ele>840.0</ele><time>2026-04-25T09:13:07.823Z</time></trkpt><trkpt lat="41.0613961" lon="-7.9003192"><ele>840.0</ele><time>2026-04-25T09:13:08.816Z</time></trkpt><trkpt lat="41.0614302" lon="-7.9002343"><ele>840.0</ele><time>2026-04-25T09:13:09.816Z</time></trkpt><trkpt lat="41.0614657" lon="-7.9001497"><ele>840.0</ele><time>2026-04-25T09:13:10.815Z</time></trkpt><trkpt lat="41.0614975" lon="-7.9000618"><ele>840.0</ele><time>2026-04-25T09:13:11.815Z</time></trkpt><trkpt lat="41.0615359" lon="-7.8999779"><ele>840.0</ele><time>2026-04-25T09:13:12.814Z</time></trkpt><trkpt lat="41.0615735" lon="-7.8998937"><ele>840.0</ele><time>2026-04-25T09:13:13.815Z</time></trkpt><trkpt lat="41.0616095" lon="-7.8998087"><ele>840.0</ele><time>2026-04-25T09:13:14.818Z</time></trkpt><trkpt lat="41.0616408" lon="-7.8997278"><ele>840.2</ele><time>2026-04-25T09:13:15.817Z</time></trkpt><trkpt lat="41.0616718" lon="-7.899644"><ele>840.4</ele><time>2026-04-25T09:13:16.824Z</time></trkpt><trkpt lat="41.0617076" lon="-7.8995587"><ele>840.5999999999999</ele><time>2026-04-25T09:13:17.815Z</time></trkpt><trkpt lat="41.0617475" lon="-7.8994686"><ele>840.8</ele><time>2026-04-25T09:13:18.816Z</time></trkpt><trkpt lat="41.0618419" lon="-7.8992994"><ele>841.0</ele><time>2026-04-25T09:13:20.815Z</time></trkpt><trkpt lat="41.0618962" lon="-7.8992219"><ele>840.9999999999999</ele><time>2026-04-25T09:13:21.816Z</time></trkpt><trkpt lat="41.0619506" lon="-7.8991549"><ele>841.0</ele><time>2026-04-25T09:13:22.821Z</time></trkpt><trkpt lat="41.0620032" lon="-7.8990965"><ele>841.0</ele><time>2026-04-25T09:13:23.815Z</time></trkpt><trkpt lat="41.0620605" lon="-7.899042"><ele>841.0</ele><time>2026-04-25T09:13:24.816Z</time></trkpt><trkpt lat="41.0621167" lon="-7.8989941"><ele>840.9999999999999</ele><time>2026-04-25T09:13:25.824Z</time></trkpt><trkpt lat="41.0622124" lon="-7.8989208"><ele>841.0</ele><time>2026-04-25T09:13:27.817Z</time></trkpt><trkpt lat="41.0623036" lon="-7.8988528"><ele>841.0</ele><time>2026-04-25T09:13:29.819Z</time></trkpt><trkpt lat="41.0624077" lon="-7.8987956"><ele>841.0</ele><time>2026-04-25T09:13:31.823Z</time></trkpt><trkpt lat="41.0625162" lon="-7.8987853"><ele>841.0</ele><time>2026-04-25T09:13:33.815Z</time></trkpt><trkpt lat="41.0626322" lon="-7.8988103"><ele>841.0</ele><time>2026-04-25T09:13:35.815Z</time></trkpt><trkpt lat="41.0627472" lon="-7.8988482"><ele>834.3333333333333</ele><time>2026-04-25T09:13:37.816Z</time></trkpt><trkpt lat="41.0628574" lon="-7.8988711"><ele>827.6666666666667</ele><time>2026-04-25T09:13:39.814Z</time></trkpt><trkpt lat="41.0630809" lon="-7.8989381"><ele>821.0</ele><time>2026-04-25T09:13:43.815Z</time></trkpt><trkpt lat="41.063192" lon="-7.8989055"><ele>819.0000000000001</ele><time>2026-04-25T09:13:45.815Z</time></trkpt><trkpt lat="41.0632831" lon="-7.8988487"><ele>817.0</ele><time>2026-04-25T09:13:47.81Z</time></trkpt><trkpt lat="41.063349" lon="-7.8988096"><ele>815.0</ele><time>2026-04-25T09:13:49.814Z</time></trkpt><trkpt lat="41.0634185" lon="-7.8987627"><ele>813.0</ele><time>2026-04-25T09:13:51.818Z</time></trkpt><trkpt lat="41.0634856" lon="-7.8987016"><ele>811.0000000000001</ele><time>2026-04-25T09:13:54.815Z</time></trkpt><trkpt lat="41.0635408" lon="-7.8986572"><ele>809.0</ele><time>2026-04-25T09:13:57.817Z</time></trkpt><trkpt lat="41.0636154" lon="-7.8985636"><ele>814.75</ele><time>2026-04-25T09:14:00.818Z</time></trkpt><trkpt lat="41.0637905" lon="-7.8983624"><ele>820.5</ele><time>2026-04-25T09:14:03.819Z</time></trkpt><trkpt lat="41.0638709" lon="-7.8982739"><ele>826.25</ele><time>2026-04-25T09:14:04.816Z</time></trkpt><trkpt lat="41.0639389" lon="-7.8981936"><ele>832.0</ele><time>2026-04-25T09:14:05.815Z</time></trkpt><trkpt lat="41.0639925" lon="-7.8981189"><ele>831.9999999999999</ele><time>2026-04-25T09:14:06.814Z</time></trkpt><trkpt lat="41.0640318" lon="-7.8980492"><ele>832.0</ele><time>2026-04-25T09:14:07.825Z</time></trkpt><trkpt lat="41.0640657" lon="-7.8979709"><ele>832.0</ele><time>2026-04-25T09:14:08.815Z</time></trkpt><trkpt lat="41.0640981" lon="-7.8978865"><ele>832.0</ele><time>2026-04-25T09:14:09.816Z</time></trkpt><trkpt lat="41.0641276" lon="-7.8977985"><ele>831.9999999999999</ele><time>2026-04-25T09:14:10.817Z</time></trkpt><trkpt lat="41.064151" lon="-7.8977102"><ele>832.0</ele><time>2026-04-25T09:14:11.824Z</time></trkpt><trkpt lat="41.0641789" lon="-7.8975581"><ele>828.8</ele><time>2026-04-25T09:14:13.816Z</time></trkpt><trkpt lat="41.0641993" lon="-7.8974276"><ele>825.6</ele><time>2026-04-25T09:14:15.816Z</time></trkpt><trkpt lat="41.0642546" lon="-7.8973282"><ele>822.4</ele><time>2026-04-25T09:14:17.816Z</time></trkpt><trkpt lat="41.0643157" lon="-7.8972566"><ele>819.1999999999999</ele><time>2026-04-25T09:14:19.824Z</time></trkpt><trkpt lat="41.0643829" lon="-7.8972075"><ele>816.0</ele><time>2026-04-25T09:14:22.815Z</time></trkpt><trkpt lat="41.0645151" lon="-7.897097"><ele>816.0</ele><time>2026-04-25T09:14:27.822Z</time></trkpt><trkpt lat="41.0645891" lon="-7.8970422"><ele>816.0</ele><time>2026-04-25T09:14:30.816Z</time></trkpt><trkpt lat="41.0645458" lon="-7.8971135"><ele>816.0</ele><time>2026-04-25T09:14:49.817Z</time></trkpt><trkpt lat="41.0644069" lon="-7.8972204"><ele>816.0</ele><time>2026-04-25T09:14:53.822Z</time></trkpt><trkpt lat="41.0644756" lon="-7.8972392"><ele>816.0</ele><time>2026-04-25T09:14:59.816Z</time></trkpt><trkpt lat="41.0645867" lon="-7.8971934"><ele>816.0</ele><time>2026-04-25T09:15:01.815Z</time></trkpt><trkpt lat="41.0646638" lon="-7.8971611"><ele>816.0</ele><time>2026-04-25T09:15:02.817Z</time></trkpt><trkpt lat="41.0647516" lon="-7.8971389"><ele>816.0</ele><time>2026-04-25T09:15:03.818Z</time></trkpt><trkpt lat="41.0648425" lon="-7.8971274"><ele>816.0</ele><time>2026-04-25T09:15:04.816Z</time></trkpt><trkpt lat="41.0649279" lon="-7.8971372"><ele>816.0</ele><time>2026-04-25T09:15:05.824Z</time></trkpt><trkpt lat="41.0650024" lon="-7.8971446"><ele>816.0</ele><time>2026-04-25T09:15:06.82Z</time></trkpt><trkpt lat="41.0650747" lon="-7.8971267"><ele>810.1999999999999</ele><time>2026-04-25T09:15:07.812Z</time></trkpt><trkpt lat="41.0651466" lon="-7.8970963"><ele>804.4</ele><time>2026-04-25T09:15:08.827Z</time></trkpt><trkpt lat="41.06522" lon="-7.8970679"><ele>798.6</ele><time>2026-04-25T09:15:09.82Z</time></trkpt><trkpt lat="41.0652945" lon="-7.8970464"><ele>792.8</ele><time>2026-04-25T09:15:10.821Z</time></trkpt><trkpt lat="41.0654281" lon="-7.8970219"><ele>787.0</ele><time>2026-04-25T09:15:12.815Z</time></trkpt><trkpt lat="41.0655305" lon="-7.8970303"><ele>786.9999999999999</ele><time>2026-04-25T09:15:14.822Z</time></trkpt><trkpt lat="41.0656145" lon="-7.8970522"><ele>787.0</ele><time>2026-04-25T09:15:16.815Z</time></trkpt><trkpt lat="41.0657138" lon="-7.897092"><ele>787.0</ele><time>2026-04-25T09:15:18.823Z</time></trkpt><trkpt lat="41.065779" lon="-7.8971226"><ele>787.0</ele><time>2026-04-25T09:15:19.812Z</time></trkpt><trkpt lat="41.0658473" lon="-7.897162"><ele>786.9999999999999</ele><time>2026-04-25T09:15:20.821Z</time></trkpt><trkpt lat="41.0659135" lon="-7.897202"><ele>787.0</ele><time>2026-04-25T09:15:21.819Z</time></trkpt><trkpt lat="41.0659789" lon="-7.8972433"><ele>784.6666666666666</ele><time>2026-04-25T09:15:22.821Z</time></trkpt><trkpt lat="41.0660403" lon="-7.8972751"><ele>782.3333333333333</ele><time>2026-04-25T09:15:23.814Z</time></trkpt><trkpt lat="41.0661345" lon="-7.8972891"><ele>780.0</ele><time>2026-04-25T09:15:25.812Z</time></trkpt><trkpt lat="41.0661917" lon="-7.8972457"><ele>777.6666666666667</ele><time>2026-04-25T09:15:27.815Z</time></trkpt><trkpt lat="41.066249" lon="-7.8971952"><ele>775.3333333333334</ele><time>2026-04-25T09:15:29.816Z</time></trkpt><trkpt lat="41.066315" lon="-7.8971693"><ele>773.0</ele><time>2026-04-25T09:15:31.82Z</time></trkpt><trkpt lat="41.0664638" lon="-7.897023"><ele>773.0</ele><time>2026-04-25T09:15:35.813Z</time></trkpt><trkpt lat="41.066549" lon="-7.8969322"><ele>773.0</ele><time>2026-04-25T09:15:37.824Z</time></trkpt><trkpt lat="41.0666214" lon="-7.8968768"><ele>773.0</ele><time>2026-04-25T09:15:39.815Z</time></trkpt><trkpt lat="41.0666894" lon="-7.8968241"><ele>773.0</ele><time>2026-04-25T09:15:41.816Z</time></trkpt><trkpt lat="41.0667578" lon="-7.896732"><ele>773.0</ele><time>2026-04-25T09:15:43.812Z</time></trkpt><trkpt lat="41.0668414" lon="-7.8966238"><ele>773.4</ele><time>2026-04-25T09:15:45.814Z</time></trkpt><trkpt lat="41.0668964" lon="-7.8965367"><ele>773.8</ele><time>2026-04-25T09:15:47.819Z</time></trkpt><trkpt lat="41.0669263" lon="-7.8964484"><ele>774.2</ele><time>2026-04-25T09:15:55.814Z</time></trkpt><trkpt lat="41.0669295" lon="-7.8962681"><ele>774.6</ele><time>2026-04-25T09:15:59.814Z</time></trkpt><trkpt lat="41.0669483" lon="-7.8961731"><ele>775.0</ele><time>2026-04-25T09:16:01.819Z</time></trkpt><trkpt lat="41.0669898" lon="-7.8960672"><ele>774.9999999999999</ele><time>2026-04-25T09:16:03.816Z</time></trkpt><trkpt lat="41.0670053" lon="-7.8959678"><ele>775.0</ele><time>2026-04-25T09:16:05.813Z</time></trkpt><trkpt lat="41.0670118" lon="-7.8958519"><ele>775.0</ele><time>2026-04-25T09:16:07.815Z</time></trkpt><trkpt lat="41.0670213" lon="-7.8957496"><ele>775.0</ele><time>2026-04-25T09:16:09.813Z</time></trkpt><trkpt lat="41.0670427" lon="-7.8956538"><ele>774.9999999999999</ele><time>2026-04-25T09:16:15.818Z</time></trkpt><trkpt lat="41.0670631" lon="-7.8955591"><ele>775.0</ele><time>2026-04-25T09:16:17.814Z</time></trkpt><trkpt lat="41.0671195" lon="-7.8953761"><ele>778.3333333333333</ele><time>2026-04-25T09:16:21.816Z</time></trkpt><trkpt lat="41.0671244" lon="-7.8952832"><ele>781.6666666666666</ele><time>2026-04-25T09:16:23.818Z</time></trkpt><trkpt lat="41.0671279" lon="-7.895182"><ele>785.0</ele><time>2026-04-25T09:16:25.823Z</time></trkpt><trkpt lat="41.0671441" lon="-7.8950807"><ele>788.3333333333333</ele><time>2026-04-25T09:16:27.812Z</time></trkpt><trkpt lat="41.0671739" lon="-7.8949636"><ele>791.6666666666666</ele><time>2026-04-25T09:16:30.812Z</time></trkpt><trkpt lat="41.0671775" lon="-7.8948679"><ele>795.0</ele><time>2026-04-25T09:16:32.823Z</time></trkpt><trkpt lat="41.0671841" lon="-7.8947291"><ele>799.8</ele><time>2026-04-25T09:16:34.817Z</time></trkpt><trkpt lat="41.0671962" lon="-7.8946227"><ele>804.6</ele><time>2026-04-25T09:16:36.818Z</time></trkpt><trkpt lat="41.0671991" lon="-7.8945382"><ele>809.4000000000001</ele><time>2026-04-25T09:16:38.815Z</time></trkpt><trkpt lat="41.0670738" lon="-7.8944259"><ele>814.2</ele><time>2026-04-25T09:16:54.81Z</time></trkpt><trkpt lat="41.067063" lon="-7.8943131"><ele>819.0</ele><time>2026-04-25T09:17:41.822Z</time></trkpt><trkpt lat="41.0670269" lon="-7.8940908"><ele>823.75</ele><time>2026-04-25T09:17:45.815Z</time></trkpt><trkpt lat="41.0669941" lon="-7.8940154"><ele>828.5</ele><time>2026-04-25T09:17:46.814Z</time></trkpt><trkpt lat="41.0669522" lon="-7.8938818"><ele>833.25</ele><time>2026-04-25T09:17:48.813Z</time></trkpt><trkpt lat="41.0669326" lon="-7.89376"><ele>838.0</ele><time>2026-04-25T09:18:32.825Z</time></trkpt><trkpt lat="41.0668844" lon="-7.8934881"><ele>840.8</ele><time>2026-04-25T09:18:36.816Z</time></trkpt><trkpt lat="41.0668792" lon="-7.8934017"><ele>843.5999999999999</ele><time>2026-04-25T09:18:37.809Z</time></trkpt><trkpt lat="41.0668815" lon="-7.8933078"><ele>846.4000000000001</ele><time>2026-04-25T09:18:38.816Z</time></trkpt><trkpt lat="41.0668787" lon="-7.8931498"><ele>849.2</ele><time>2026-04-25T09:18:40.813Z</time></trkpt><trkpt lat="41.0668464" lon="-7.8930085"><ele>852.0</ele><time>2026-04-25T09:18:42.813Z</time></trkpt><trkpt lat="41.0668072" lon="-7.8928934"><ele>852.0</ele><time>2026-04-25T09:18:44.809Z</time></trkpt><trkpt lat="41.0667718" lon="-7.8928135"><ele>852.0</ele><time>2026-04-25T09:18:46.814Z</time></trkpt><trkpt lat="41.0668138" lon="-7.8927426"><ele>852.0</ele><time>2026-04-25T09:18:49.815Z</time></trkpt><trkpt lat="41.0669094" lon="-7.8927206"><ele>852.0</ele><time>2026-04-25T09:18:51.817Z</time></trkpt><trkpt lat="41.067023" lon="-7.8927157"><ele>852.0</ele><time>2026-04-25T09:18:53.816Z</time></trkpt><trkpt lat="41.0672166" lon="-7.8926517"><ele>851.4000000000001</ele><time>2026-04-25T09:18:57.82Z</time></trkpt><trkpt lat="41.067297" lon="-7.8925623"><ele>850.8000000000001</ele><time>2026-04-25T09:18:59.812Z</time></trkpt><trkpt lat="41.0673637" lon="-7.8924552"><ele>850.2</ele><time>2026-04-25T09:19:01.812Z</time></trkpt><trkpt lat="41.0674158" lon="-7.8923643"><ele>849.6</ele><time>2026-04-25T09:19:03.823Z</time></trkpt><trkpt lat="41.0675064" lon="-7.8922735"><ele>849.0</ele><time>2026-04-25T09:19:05.822Z</time></trkpt><trkpt lat="41.0676089" lon="-7.8921804"><ele>849.0</ele><time>2026-04-25T09:19:07.815Z</time></trkpt><trkpt lat="41.067713" lon="-7.8920986"><ele>849.0</ele><time>2026-04-25T09:19:09.812Z</time></trkpt><trkpt lat="41.0678195" lon="-7.8920401"><ele>849.0</ele><time>2026-04-25T09:19:11.816Z</time></trkpt><trkpt lat="41.0679072" lon="-7.8919713"><ele>849.0</ele><time>2026-04-25T09:19:13.821Z</time></trkpt><trkpt lat="41.0679643" lon="-7.891854"><ele>849.0</ele><time>2026-04-25T09:19:15.812Z</time></trkpt><trkpt lat="41.0680502" lon="-7.8916114"><ele>853.1666666666666</ele><time>2026-04-25T09:19:19.815Z</time></trkpt><trkpt lat="41.068061" lon="-7.891498"><ele>857.3333333333333</ele><time>2026-04-25T09:19:21.816Z</time></trkpt><trkpt lat="41.068032" lon="-7.891422"><ele>861.5</ele><time>2026-04-25T09:19:23.811Z</time></trkpt><trkpt lat="41.0679502" lon="-7.8914312"><ele>865.6666666666666</ele><time>2026-04-25T09:19:25.812Z</time></trkpt><trkpt lat="41.067848" lon="-7.8914631"><ele>869.8333333333333</ele><time>2026-04-25T09:19:27.813Z</time></trkpt><trkpt lat="41.0677852" lon="-7.8914748"><ele>874.0</ele><time>2026-04-25T09:19:28.813Z</time></trkpt><trkpt lat="41.0677124" lon="-7.8914879"><ele>874.0</ele><time>2026-04-25T09:19:29.819Z</time></trkpt><trkpt lat="41.0676398" lon="-7.8915049"><ele>874.0000000000001</ele><time>2026-04-25T09:19:30.826Z</time></trkpt><trkpt lat="41.0675783" lon="-7.8915234"><ele>874.0000000000001</ele><time>2026-04-25T09:19:31.821Z</time></trkpt><trkpt lat="41.0674771" lon="-7.8915797"><ele>874.0</ele><time>2026-04-25T09:19:33.815Z</time></trkpt><trkpt lat="41.0673826" lon="-7.8916551"><ele>874.0</ele><time>2026-04-25T09:19:35.818Z</time></trkpt><trkpt lat="41.0672597" lon="-7.8917253"><ele>875.6</ele><time>2026-04-25T09:19:37.812Z</time></trkpt><trkpt lat="41.0671223" lon="-7.8917951"><ele>877.2</ele><time>2026-04-25T09:19:39.821Z</time></trkpt><trkpt lat="41.0670202" lon="-7.8918147"><ele>878.8000000000001</ele><time>2026-04-25T09:19:41.821Z</time></trkpt><trkpt lat="41.0669554" lon="-7.891788"><ele>880.4000000000001</ele><time>2026-04-25T09:19:43.809Z</time></trkpt><trkpt lat="41.066944" lon="-7.8916912"><ele>882.0</ele><time>2026-04-25T09:19:48.812Z</time></trkpt><trkpt lat="41.0669433" lon="-7.8915856"><ele>882.0</ele><time>2026-04-25T09:19:51.811Z</time></trkpt><trkpt lat="41.0668836" lon="-7.8915551"><ele>882.0</ele><time>2026-04-25T09:19:53.825Z</time></trkpt><trkpt lat="41.0668076" lon="-7.8915713"><ele>882.0</ele><time>2026-04-25T09:19:54.813Z</time></trkpt><trkpt lat="41.0667202" lon="-7.8915793"><ele>882.0</ele><time>2026-04-25T09:19:55.819Z</time></trkpt><trkpt lat="41.0666316" lon="-7.8915602"><ele>882.0</ele><time>2026-04-25T09:19:56.818Z</time></trkpt><trkpt lat="41.0665599" lon="-7.8915231"><ele>882.0</ele><time>2026-04-25T09:19:57.815Z</time></trkpt><trkpt lat="41.0664775" lon="-7.8914317"><ele>886.75</ele><time>2026-04-25T09:19:59.815Z</time></trkpt><trkpt lat="41.0663058" lon="-7.8912564"><ele>891.5</ele><time>2026-04-25T09:20:03.819Z</time></trkpt><trkpt lat="41.0663252" lon="-7.8911654"><ele>896.25</ele><time>2026-04-25T09:20:05.817Z</time></trkpt><trkpt lat="41.0664325" lon="-7.8910877"><ele>901.0</ele><time>2026-04-25T09:20:07.818Z</time></trkpt><trkpt lat="41.0664997" lon="-7.8910473"><ele>900.9999999999999</ele><time>2026-04-25T09:20:08.813Z</time></trkpt><trkpt lat="41.0665746" lon="-7.8909935"><ele>901.0</ele><time>2026-04-25T09:20:09.815Z</time></trkpt><trkpt lat="41.0666466" lon="-7.8909335"><ele>901.0</ele><time>2026-04-25T09:20:10.82Z</time></trkpt><trkpt lat="41.0667119" lon="-7.8908704"><ele>901.0</ele><time>2026-04-25T09:20:11.815Z</time></trkpt><trkpt lat="41.066762" lon="-7.8908084"><ele>900.9999999999999</ele><time>2026-04-25T09:20:12.813Z</time></trkpt><trkpt lat="41.066786" lon="-7.8906986"><ele>901.0</ele><time>2026-04-25T09:20:14.82Z</time></trkpt><trkpt lat="41.0667247" lon="-7.8906387"><ele>902.0</ele><time>2026-04-25T09:20:16.817Z</time></trkpt><trkpt lat="41.0666154" lon="-7.8906241"><ele>902.9999999999999</ele><time>2026-04-25T09:20:18.816Z</time></trkpt><trkpt lat="41.0665204" lon="-7.8906491"><ele>903.9999999999999</ele><time>2026-04-25T09:20:20.816Z</time></trkpt><trkpt lat="41.0663763" lon="-7.8906492"><ele>905.0</ele><time>2026-04-25T09:20:24.818Z</time></trkpt><trkpt lat="41.066307" lon="-7.8906121"><ele>906.0</ele><time>2026-04-25T09:20:26.814Z</time></trkpt><trkpt lat="41.0662156" lon="-7.890567"><ele>908.1666666666666</ele><time>2026-04-25T09:20:28.815Z</time></trkpt><trkpt lat="41.0661145" lon="-7.8905007"><ele>910.3333333333333</ele><time>2026-04-25T09:20:30.811Z</time></trkpt><trkpt lat="41.0660454" lon="-7.8904343"><ele>912.5</ele><time>2026-04-25T09:20:32.816Z</time></trkpt><trkpt lat="41.0661013" lon="-7.8903541"><ele>914.6666666666666</ele><time>2026-04-25T09:20:36.813Z</time></trkpt><trkpt lat="41.0661895" lon="-7.8902926"><ele>916.8333333333333</ele><time>2026-04-25T09:20:38.812Z</time></trkpt><trkpt lat="41.066242" lon="-7.8902454"><ele>919.0</ele><time>2026-04-25T09:20:39.817Z</time></trkpt><trkpt lat="41.0662992" lon="-7.8901946"><ele>918.9999999999999</ele><time>2026-04-25T09:20:40.819Z</time></trkpt><trkpt lat="41.0663558" lon="-7.8901484"><ele>919.0</ele><time>2026-04-25T09:20:41.815Z</time></trkpt><trkpt lat="41.066355" lon="-7.8899862"><ele>919.0</ele><time>2026-04-25T09:20:46.819Z</time></trkpt><trkpt lat="41.0662917" lon="-7.8899686"><ele>919.0</ele><time>2026-04-25T09:20:47.819Z</time></trkpt><trkpt lat="41.0662064" lon="-7.8899408"><ele>918.9999999999999</ele><time>2026-04-25T09:20:48.817Z</time></trkpt><trkpt lat="41.066118" lon="-7.8899091"><ele>919.0</ele><time>2026-04-25T09:20:49.813Z</time></trkpt><trkpt lat="41.0660316" lon="-7.8898975"><ele>923.1666666666666</ele><time>2026-04-25T09:20:50.815Z</time></trkpt><trkpt lat="41.0659569" lon="-7.8898785"><ele>927.3333333333333</ele><time>2026-04-25T09:20:51.816Z</time></trkpt><trkpt lat="41.0658872" lon="-7.8898627"><ele>931.5</ele><time>2026-04-25T09:20:52.813Z</time></trkpt><trkpt lat="41.0658231" lon="-7.8898547"><ele>935.6666666666667</ele><time>2026-04-25T09:20:53.81Z</time></trkpt><trkpt lat="41.0657294" lon="-7.8898538"><ele>939.8333333333334</ele><time>2026-04-25T09:20:55.812Z</time></trkpt><trkpt lat="41.0658251" lon="-7.8898353"><ele>944.0</ele><time>2026-04-25T09:21:03.822Z</time></trkpt><trkpt lat="41.0659566" lon="-7.8898183"><ele>944.0</ele><time>2026-04-25T09:21:41.815Z</time></trkpt><trkpt lat="41.0660794" lon="-7.8897507"><ele>944.0000000000001</ele><time>2026-04-25T09:21:45.812Z</time></trkpt><trkpt lat="41.0661508" lon="-7.8896181"><ele>944.0000000000001</ele><time>2026-04-25T09:21:47.818Z</time></trkpt><trkpt lat="41.0662039" lon="-7.8895337"><ele>944.0</ele><time>2026-04-25T09:21:48.81Z</time></trkpt><trkpt lat="41.0662652" lon="-7.8894638"><ele>944.0</ele><time>2026-04-25T09:21:49.81Z</time></trkpt><trkpt lat="41.0663323" lon="-7.889409"><ele>944.0000000000001</ele><time>2026-04-25T09:21:50.821Z</time></trkpt><trkpt lat="41.0663825" lon="-7.889338"><ele>944.0</ele><time>2026-04-25T09:21:51.812Z</time></trkpt><trkpt lat="41.0664206" lon="-7.889262"><ele>944.0</ele><time>2026-04-25T09:21:52.814Z</time></trkpt><trkpt lat="41.0664518" lon="-7.8891713"><ele>944.0</ele><time>2026-04-25T09:21:53.814Z</time></trkpt><trkpt lat="41.0664804" lon="-7.8890797"><ele>944.0000000000001</ele><time>2026-04-25T09:21:54.812Z</time></trkpt><trkpt lat="41.0665244" lon="-7.888982"><ele>944.0</ele><time>2026-04-25T09:21:55.809Z</time></trkpt><trkpt lat="41.0665896" lon="-7.888874"><ele>946.0</ele><time>2026-04-25T09:21:56.814Z</time></trkpt><trkpt lat="41.066667" lon="-7.8887775"><ele>948.0000000000001</ele><time>2026-04-25T09:21:57.817Z</time></trkpt><trkpt lat="41.0667527" lon="-7.8887077"><ele>950.0000000000001</ele><time>2026-04-25T09:21:58.827Z</time></trkpt><trkpt lat="41.0668528" lon="-7.8886682"><ele>952.0</ele><time>2026-04-25T09:21:59.814Z</time></trkpt><trkpt lat="41.0669813" lon="-7.8886364"><ele>954.0</ele><time>2026-04-25T09:22:00.814Z</time></trkpt><trkpt lat="41.0670997" lon="-7.8886201"><ele>954.0</ele><time>2026-04-25T09:22:01.813Z</time></trkpt><trkpt lat="41.0671841" lon="-7.8886126"><ele>954.0000000000001</ele><time>2026-04-25T09:22:02.811Z</time></trkpt><trkpt lat="41.0673555" lon="-7.8885017"><ele>954.0000000000001</ele><time>2026-04-25T09:22:05.82Z</time></trkpt><trkpt lat="41.0674071" lon="-7.888434"><ele>954.0</ele><time>2026-04-25T09:22:06.813Z</time></trkpt><trkpt lat="41.0674579" lon="-7.888364"><ele>954.0</ele><time>2026-04-25T09:22:07.814Z</time></trkpt><trkpt lat="41.0675091" lon="-7.8882898"><ele>956.1666666666666</ele><time>2026-04-25T09:22:08.818Z</time></trkpt><trkpt lat="41.0675479" lon="-7.8882129"><ele>958.3333333333333</ele><time>2026-04-25T09:22:09.817Z</time></trkpt><trkpt lat="41.0675795" lon="-7.8881281"><ele>960.5</ele><time>2026-04-25T09:22:10.815Z</time></trkpt><trkpt lat="41.0676171" lon="-7.8880329"><ele>962.6666666666666</ele><time>2026-04-25T09:22:11.821Z</time></trkpt><trkpt lat="41.0676615" lon="-7.8879366"><ele>964.8333333333333</ele><time>2026-04-25T09:22:12.814Z</time></trkpt><trkpt lat="41.0677157" lon="-7.8878404"><ele>967.0</ele><time>2026-04-25T09:22:13.815Z</time></trkpt><trkpt lat="41.0677901" lon="-7.887754"><ele>967.0</ele><time>2026-04-25T09:22:14.806Z</time></trkpt><trkpt lat="41.0678911" lon="-7.8876721"><ele>967.0</ele><time>2026-04-25T09:22:15.811Z</time></trkpt><trkpt lat="41.0680139" lon="-7.8875748"><ele>967.0</ele><time>2026-04-25T09:22:16.812Z</time></trkpt><trkpt lat="41.068143" lon="-7.8874635"><ele>967.0</ele><time>2026-04-25T09:22:17.818Z</time></trkpt><trkpt lat="41.0682629" lon="-7.8873602"><ele>967.6</ele><time>2026-04-25T09:22:18.816Z</time></trkpt><trkpt lat="41.0683671" lon="-7.8872664"><ele>968.2</ele><time>2026-04-25T09:22:19.813Z</time></trkpt><trkpt lat="41.0684492" lon="-7.8871804"><ele>968.8</ele><time>2026-04-25T09:22:20.829Z</time></trkpt><trkpt lat="41.0685222" lon="-7.8870948"><ele>969.4</ele><time>2026-04-25T09:22:21.813Z</time></trkpt><trkpt lat="41.0685997" lon="-7.8870074"><ele>970.0</ele><time>2026-04-25T09:22:22.811Z</time></trkpt><trkpt lat="41.0686898" lon="-7.886927"><ele>970.0</ele><time>2026-04-25T09:22:23.812Z</time></trkpt><trkpt lat="41.0688838" lon="-7.8867611"><ele>970.0</ele><time>2026-04-25T09:22:25.821Z</time></trkpt><trkpt lat="41.068971" lon="-7.886674"><ele>970.0</ele><time>2026-04-25T09:22:26.816Z</time></trkpt><trkpt lat="41.0690524" lon="-7.8865816"><ele>970.0</ele><time>2026-04-25T09:22:27.813Z</time></trkpt><trkpt lat="41.0691299" lon="-7.8864907"><ele>971.0</ele><time>2026-04-25T09:22:28.811Z</time></trkpt><trkpt lat="41.0692043" lon="-7.886398"><ele>972.0</ele><time>2026-04-25T09:22:29.813Z</time></trkpt><trkpt lat="41.0692808" lon="-7.8862938"><ele>973.0</ele><time>2026-04-25T09:22:30.812Z</time></trkpt><trkpt lat="41.0693662" lon="-7.886179"><ele>974.0</ele><time>2026-04-25T09:22:31.809Z</time></trkpt><trkpt lat="41.0694516" lon="-7.886071"><ele>974.0000000000001</ele><time>2026-04-25T09:22:32.815Z</time></trkpt><trkpt lat="41.0695281" lon="-7.8859726"><ele>974.0</ele><time>2026-04-25T09:22:33.811Z</time></trkpt><trkpt lat="41.0695948" lon="-7.8858829"><ele>974.0</ele><time>2026-04-25T09:22:34.818Z</time></trkpt><trkpt lat="41.0696504" lon="-7.8858118"><ele>974.0</ele><time>2026-04-25T09:22:35.81Z</time></trkpt><trkpt lat="41.0696987" lon="-7.8857524"><ele>974.0000000000001</ele><time>2026-04-25T09:22:36.811Z</time></trkpt><trkpt lat="41.0697467" lon="-7.8856958"><ele>974.0</ele><time>2026-04-25T09:22:37.819Z</time></trkpt><trkpt lat="41.0697971" lon="-7.885642"><ele>975.4285714285714</ele><time>2026-04-25T09:22:38.819Z</time></trkpt><trkpt lat="41.0698531" lon="-7.8855895"><ele>976.8571428571429</ele><time>2026-04-25T09:22:39.811Z</time></trkpt><trkpt lat="41.0699151" lon="-7.8855413"><ele>978.2857142857143</ele><time>2026-04-25T09:22:40.829Z</time></trkpt><trkpt lat="41.069977" lon="-7.8854972"><ele>979.7142857142858</ele><time>2026-04-25T09:22:41.816Z</time></trkpt><trkpt lat="41.0700385" lon="-7.8854624"><ele>981.1428571428571</ele><time>2026-04-25T09:22:42.813Z</time></trkpt><trkpt lat="41.0701039" lon="-7.885447"><ele>982.5714285714287</ele><time>2026-04-25T09:22:43.818Z</time></trkpt><trkpt lat="41.0701724" lon="-7.8854497"><ele>984.0000000000001</ele><time>2026-04-25T09:22:44.815Z</time></trkpt><trkpt lat="41.0703199" lon="-7.8854784"><ele>984.0</ele><time>2026-04-25T09:22:46.819Z</time></trkpt><trkpt lat="41.0703919" lon="-7.8854851"><ele>984.0</ele><time>2026-04-25T09:22:47.81Z</time></trkpt><trkpt lat="41.0704691" lon="-7.8854849"><ele>984.0</ele><time>2026-04-25T09:22:48.81Z</time></trkpt><trkpt lat="41.0705473" lon="-7.8854873"><ele>984.0</ele><time>2026-04-25T09:22:49.82Z</time></trkpt><trkpt lat="41.0706251" lon="-7.8854852"><ele>984.0</ele><time>2026-04-25T09:22:50.813Z</time></trkpt><trkpt lat="41.0706989" lon="-7.8854715"><ele>984.0</ele><time>2026-04-25T09:22:51.813Z</time></trkpt><trkpt lat="41.0707703" lon="-7.885451"><ele>983.1666666666666</ele><time>2026-04-25T09:22:52.817Z</time></trkpt><trkpt lat="41.0708414" lon="-7.8854187"><ele>982.3333333333333</ele><time>2026-04-25T09:22:53.812Z</time></trkpt><trkpt lat="41.0709144" lon="-7.8853763"><ele>981.5</ele><time>2026-04-25T09:22:54.812Z</time></trkpt><trkpt lat="41.0709898" lon="-7.8853314"><ele>980.6666666666666</ele><time>2026-04-25T09:22:55.815Z</time></trkpt><trkpt lat="41.0710704" lon="-7.8852919"><ele>979.8333333333333</ele><time>2026-04-25T09:22:56.82Z</time></trkpt><trkpt lat="41.0711544" lon="-7.8852581"><ele>979.0</ele><time>2026-04-25T09:22:57.811Z</time></trkpt><trkpt lat="41.07124" lon="-7.885226"><ele>978.9999999999999</ele><time>2026-04-25T09:22:58.811Z</time></trkpt><trkpt lat="41.0713263" lon="-7.8851989"><ele>979.0</ele><time>2026-04-25T09:22:59.821Z</time></trkpt><trkpt lat="41.0714043" lon="-7.8851714"><ele>979.0</ele><time>2026-04-25T09:23:00.815Z</time></trkpt><trkpt lat="41.071476" lon="-7.8851303"><ele>979.0</ele><time>2026-04-25T09:23:01.818Z</time></trkpt><trkpt lat="41.0715485" lon="-7.8850793"><ele>978.9999999999999</ele><time>2026-04-25T09:23:02.813Z</time></trkpt><trkpt lat="41.0716261" lon="-7.8850214"><ele>979.0</ele><time>2026-04-25T09:23:03.812Z</time></trkpt><trkpt lat="41.071706" lon="-7.8849619"><ele>984.5</ele><time>2026-04-25T09:23:04.811Z</time></trkpt><trkpt lat="41.0717894" lon="-7.8848999"><ele>990.0</ele><time>2026-04-25T09:23:05.819Z</time></trkpt><trkpt lat="41.0719653" lon="-7.8847805"><ele>995.5</ele><time>2026-04-25T09:23:07.812Z</time></trkpt><trkpt lat="41.0720476" lon="-7.8847148"><ele>1001.0</ele><time>2026-04-25T09:23:08.818Z</time></trkpt><trkpt lat="41.0721262" lon="-7.8846422"><ele>1001.0</ele><time>2026-04-25T09:23:09.813Z</time></trkpt><trkpt lat="41.0722049" lon="-7.8845588"><ele>1000.9999999999999</ele><time>2026-04-25T09:23:10.813Z</time></trkpt><trkpt lat="41.0722761" lon="-7.8844596"><ele>1000.9999999999999</ele><time>2026-04-25T09:23:11.824Z</time></trkpt><trkpt lat="41.0723383" lon="-7.884351"><ele>1001.0</ele><time>2026-04-25T09:23:12.812Z</time></trkpt><trkpt lat="41.0724031" lon="-7.8842389"><ele>1001.0</ele><time>2026-04-25T09:23:13.816Z</time></trkpt><trkpt lat="41.0724676" lon="-7.884131"><ele>1001.5000000000001</ele><time>2026-04-25T09:23:14.811Z</time></trkpt><trkpt lat="41.0725311" lon="-7.8840214"><ele>1002.0</ele><time>2026-04-25T09:23:15.813Z</time></trkpt><trkpt lat="41.072591" lon="-7.8839166"><ele>1002.5</ele><time>2026-04-25T09:23:16.816Z</time></trkpt><trkpt lat="41.072645" lon="-7.8838265"><ele>1003.0</ele><time>2026-04-25T09:23:17.812Z</time></trkpt><trkpt lat="41.0726923" lon="-7.883747"><ele>1003.5000000000001</ele><time>2026-04-25T09:23:18.814Z</time></trkpt><trkpt lat="41.0727263" lon="-7.8836752"><ele>1004.0</ele><time>2026-04-25T09:23:19.817Z</time></trkpt><trkpt lat="41.0727639" lon="-7.8835339"><ele>1008.5</ele><time>2026-04-25T09:23:21.809Z</time></trkpt><trkpt lat="41.0727931" lon="-7.8833932"><ele>1013.0</ele><time>2026-04-25T09:23:23.812Z</time></trkpt><trkpt lat="41.0728171" lon="-7.8832446"><ele>1017.5</ele><time>2026-04-25T09:23:25.81Z</time></trkpt><trkpt lat="41.0728308" lon="-7.8830872"><ele>1022.0</ele><time>2026-04-25T09:23:27.82Z</time></trkpt><trkpt lat="41.072857" lon="-7.8829088"><ele>1022.0000000000001</ele><time>2026-04-25T09:23:29.812Z</time></trkpt><trkpt lat="41.0728787" lon="-7.8828106"><ele>1022.0</ele><time>2026-04-25T09:23:30.817Z</time></trkpt><trkpt lat="41.0729087" lon="-7.8827088"><ele>1022.0</ele><time>2026-04-25T09:23:31.813Z</time></trkpt><trkpt lat="41.0729458" lon="-7.8826069"><ele>1022.0</ele><time>2026-04-25T09:23:32.812Z</time></trkpt><trkpt lat="41.0729929" lon="-7.8825073"><ele>1022.0000000000001</ele><time>2026-04-25T09:23:33.813Z</time></trkpt><trkpt lat="41.0730424" lon="-7.8824107"><ele>1022.0</ele><time>2026-04-25T09:23:34.819Z</time></trkpt><trkpt lat="41.0730915" lon="-7.8823145"><ele>1022.2</ele><time>2026-04-25T09:23:35.815Z</time></trkpt><trkpt lat="41.0731402" lon="-7.8822073"><ele>1022.4000000000001</ele><time>2026-04-25T09:23:36.816Z</time></trkpt><trkpt lat="41.0731928" lon="-7.8820958"><ele>1022.5999999999999</ele><time>2026-04-25T09:23:37.812Z</time></trkpt><trkpt lat="41.0732487" lon="-7.8819817"><ele>1022.8</ele><time>2026-04-25T09:23:38.813Z</time></trkpt><trkpt lat="41.0733101" lon="-7.8818656"><ele>1023.0</ele><time>2026-04-25T09:23:39.811Z</time></trkpt><trkpt lat="41.0733774" lon="-7.881743"><ele>1025.6</ele><time>2026-04-25T09:23:40.814Z</time></trkpt><trkpt lat="41.0734476" lon="-7.8816232"><ele>1028.1999999999998</ele><time>2026-04-25T09:23:41.812Z</time></trkpt><trkpt lat="41.0735156" lon="-7.8815115"><ele>1030.8</ele><time>2026-04-25T09:23:42.818Z</time></trkpt><trkpt lat="41.0735778" lon="-7.8814197"><ele>1033.3999999999999</ele><time>2026-04-25T09:23:43.817Z</time></trkpt><trkpt lat="41.0736375" lon="-7.881341"><ele>1036.0</ele><time>2026-04-25T09:23:44.819Z</time></trkpt><trkpt lat="41.0736973" lon="-7.8812796"><ele>1036.0</ele><time>2026-04-25T09:23:45.818Z</time></trkpt><trkpt lat="41.0737597" lon="-7.8812489"><ele>1036.0</ele><time>2026-04-25T09:23:46.812Z</time></trkpt><trkpt lat="41.0738693" lon="-7.88121"><ele>1036.0</ele><time>2026-04-25T09:23:48.812Z</time></trkpt><trkpt lat="41.0739932" lon="-7.8810432"><ele>1036.0</ele><time>2026-04-25T09:23:52.814Z</time></trkpt><trkpt lat="41.0740503" lon="-7.8809474"><ele>1036.0</ele><time>2026-04-25T09:23:54.815Z</time></trkpt><trkpt lat="41.0741305" lon="-7.8808421"><ele>1036.3999999999999</ele><time>2026-04-25T09:23:56.811Z</time></trkpt><trkpt lat="41.0742186" lon="-7.880741"><ele>1036.8</ele><time>2026-04-25T09:23:58.811Z</time></trkpt><trkpt lat="41.0742954" lon="-7.8806489"><ele>1037.1999999999998</ele><time>2026-04-25T09:24:00.816Z</time></trkpt><trkpt lat="41.0743602" lon="-7.8805611"><ele>1037.6</ele><time>2026-04-25T09:24:02.813Z</time></trkpt><trkpt lat="41.0744275" lon="-7.8804549"><ele>1038.0</ele><time>2026-04-25T09:24:04.818Z</time></trkpt><trkpt lat="41.0745119" lon="-7.8803571"><ele>1038.0</ele><time>2026-04-25T09:24:06.818Z</time></trkpt><trkpt lat="41.0745922" lon="-7.880254"><ele>1038.0</ele><time>2026-04-25T09:24:08.813Z</time></trkpt><trkpt lat="41.074685" lon="-7.8801396"><ele>1038.0</ele><time>2026-04-25T09:24:10.813Z</time></trkpt><trkpt lat="41.0747808" lon="-7.8800162"><ele>1038.0</ele><time>2026-04-25T09:24:12.814Z</time></trkpt><trkpt lat="41.0748282" lon="-7.8799556"><ele>1038.0</ele><time>2026-04-25T09:24:13.818Z</time></trkpt><trkpt lat="41.0748782" lon="-7.8799005"><ele>1037.3333333333333</ele><time>2026-04-25T09:24:14.815Z</time></trkpt><trkpt lat="41.0749272" lon="-7.8798471"><ele>1036.6666666666667</ele><time>2026-04-25T09:24:15.812Z</time></trkpt><trkpt lat="41.0750034" lon="-7.8797633"><ele>1036.0</ele><time>2026-04-25T09:24:17.815Z</time></trkpt><trkpt lat="41.0750681" lon="-7.8797015"><ele>1035.3333333333335</ele><time>2026-04-25T09:24:19.815Z</time></trkpt><trkpt lat="41.0751692" lon="-7.8796253"><ele>1034.6666666666667</ele><time>2026-04-25T09:24:21.812Z</time></trkpt><trkpt lat="41.0752419" lon="-7.879593"><ele>1034.0</ele><time>2026-04-25T09:24:22.807Z</time></trkpt><trkpt lat="41.0753239" lon="-7.8795618"><ele>1034.0</ele><time>2026-04-25T09:24:23.816Z</time></trkpt><trkpt lat="41.0754089" lon="-7.8795275"><ele>1034.0</ele><time>2026-04-25T09:24:24.814Z</time></trkpt><trkpt lat="41.0754952" lon="-7.8794921"><ele>1034.0</ele><time>2026-04-25T09:24:25.819Z</time></trkpt><trkpt lat="41.0755825" lon="-7.8794592"><ele>1034.0</ele><time>2026-04-25T09:24:26.814Z</time></trkpt><trkpt lat="41.0756698" lon="-7.8794291"><ele>1034.0</ele><time>2026-04-25T09:24:27.811Z</time></trkpt><trkpt lat="41.0757666" lon="-7.8793939"><ele>1033.75</ele><time>2026-04-25T09:24:28.812Z</time></trkpt><trkpt lat="41.0758649" lon="-7.8793602"><ele>1033.5</ele><time>2026-04-25T09:24:29.812Z</time></trkpt><trkpt lat="41.0759634" lon="-7.8793295"><ele>1033.25</ele><time>2026-04-25T09:24:30.812Z</time></trkpt><trkpt lat="41.0760628" lon="-7.879299"><ele>1033.0</ele><time>2026-04-25T09:24:31.815Z</time></trkpt><trkpt lat="41.0762558" lon="-7.8792259"><ele>1033.0</ele><time>2026-04-25T09:24:33.81Z</time></trkpt><trkpt lat="41.0763459" lon="-7.8791777"><ele>1033.0</ele><time>2026-04-25T09:24:34.812Z</time></trkpt><trkpt lat="41.076434" lon="-7.8791096"><ele>1033.0</ele><time>2026-04-25T09:24:35.807Z</time></trkpt><trkpt lat="41.0765217" lon="-7.8790304"><ele>1033.0</ele><time>2026-04-25T09:24:36.808Z</time></trkpt><trkpt lat="41.0766093" lon="-7.8789377"><ele>1033.0</ele><time>2026-04-25T09:24:37.812Z</time></trkpt><trkpt lat="41.0766984" lon="-7.8788416"><ele>1033.0</ele><time>2026-04-25T09:24:38.814Z</time></trkpt><trkpt lat="41.0767931" lon="-7.8787486"><ele>1033.0</ele><time>2026-04-25T09:24:39.811Z</time></trkpt><trkpt lat="41.0768881" lon="-7.8786492"><ele>1033.0</ele><time>2026-04-25T09:24:40.816Z</time></trkpt><trkpt lat="41.0769843" lon="-7.878542"><ele>1033.0</ele><time>2026-04-25T09:24:41.809Z</time></trkpt><trkpt lat="41.0770779" lon="-7.8784296"><ele>1031.5</ele><time>2026-04-25T09:24:42.813Z</time></trkpt><trkpt lat="41.0771657" lon="-7.8783129"><ele>1030.0</ele><time>2026-04-25T09:24:43.81Z</time></trkpt><trkpt lat="41.0772471" lon="-7.8781878"><ele>1028.5</ele><time>2026-04-25T09:24:44.817Z</time></trkpt><trkpt lat="41.0773241" lon="-7.8780568"><ele>1027.0</ele><time>2026-04-25T09:24:45.81Z</time></trkpt><trkpt lat="41.0773969" lon="-7.8779165"><ele>1028.75</ele><time>2026-04-25T09:24:46.812Z</time></trkpt><trkpt lat="41.0774715" lon="-7.877787"><ele>1030.5</ele><time>2026-04-25T09:24:47.812Z</time></trkpt><trkpt lat="41.0775471" lon="-7.8776611"><ele>1032.25</ele><time>2026-04-25T09:24:48.821Z</time></trkpt><trkpt lat="41.0776216" lon="-7.8775457"><ele>1034.0</ele><time>2026-04-25T09:24:49.818Z</time></trkpt><trkpt lat="41.0776959" lon="-7.8774387"><ele>1034.0</ele><time>2026-04-25T09:24:50.818Z</time></trkpt><trkpt lat="41.0777668" lon="-7.8773487"><ele>1034.0</ele><time>2026-04-25T09:24:51.821Z</time></trkpt><trkpt lat="41.0778344" lon="-7.8772757"><ele>1034.0</ele><time>2026-04-25T09:24:52.817Z</time></trkpt><trkpt lat="41.0780174" lon="-7.8772213"><ele>1034.0</ele><time>2026-04-25T09:24:54.814Z</time></trkpt><trkpt lat="41.0781427" lon="-7.8772352"><ele>1035.25</ele><time>2026-04-25T09:24:55.811Z</time></trkpt><trkpt lat="41.0782703" lon="-7.877257"><ele>1036.5</ele><time>2026-04-25T09:24:56.814Z</time></trkpt><trkpt lat="41.0783968" lon="-7.8772853"><ele>1037.75</ele><time>2026-04-25T09:24:57.817Z</time></trkpt><trkpt lat="41.0785187" lon="-7.8773251"><ele>1039.0</ele><time>2026-04-25T09:24:58.809Z</time></trkpt><trkpt lat="41.0786362" lon="-7.8773683"><ele>1039.0</ele><time>2026-04-25T09:24:59.815Z</time></trkpt><trkpt lat="41.0787525" lon="-7.8774132"><ele>1039.0</ele><time>2026-04-25T09:25:00.819Z</time></trkpt><trkpt lat="41.0788635" lon="-7.8774326"><ele>1039.0</ele><time>2026-04-25T09:25:01.811Z</time></trkpt><trkpt lat="41.0789752" lon="-7.8774495"><ele>1039.0</ele><time>2026-04-25T09:25:02.816Z</time></trkpt><trkpt lat="41.0790843" lon="-7.8774607"><ele>1038.8</ele><time>2026-04-25T09:25:03.809Z</time></trkpt><trkpt lat="41.0791948" lon="-7.8774702"><ele>1038.6000000000001</ele><time>2026-04-25T09:25:04.811Z</time></trkpt><trkpt lat="41.0793015" lon="-7.8774691"><ele>1038.4</ele><time>2026-04-25T09:25:05.816Z</time></trkpt><trkpt lat="41.0794019" lon="-7.8774521"><ele>1038.2</ele><time>2026-04-25T09:25:06.809Z</time></trkpt><trkpt lat="41.0794978" lon="-7.8774151"><ele>1038.0</ele><time>2026-04-25T09:25:07.812Z</time></trkpt><trkpt lat="41.0795957" lon="-7.877337"><ele>1038.0</ele><time>2026-04-25T09:25:08.813Z</time></trkpt><trkpt lat="41.0796965" lon="-7.8772321"><ele>1038.0</ele><time>2026-04-25T09:25:09.817Z</time></trkpt><trkpt lat="41.0797906" lon="-7.877112"><ele>1038.0</ele><time>2026-04-25T09:25:10.817Z</time></trkpt><trkpt lat="41.0798852" lon="-7.8769753"><ele>1038.0</ele><time>2026-04-25T09:25:11.817Z</time></trkpt><trkpt lat="41.0799834" lon="-7.8768364"><ele>1035.0</ele><time>2026-04-25T09:25:12.823Z</time></trkpt><trkpt lat="41.0800858" lon="-7.8767115"><ele>1032.0</ele><time>2026-04-25T09:25:13.813Z</time></trkpt><trkpt lat="41.0802906" lon="-7.8764781"><ele>1029.0</ele><time>2026-04-25T09:25:15.82Z</time></trkpt><trkpt lat="41.0803815" lon="-7.8763709"><ele>1029.0</ele><time>2026-04-25T09:25:16.81Z</time></trkpt><trkpt lat="41.0804716" lon="-7.8762713"><ele>1029.0</ele><time>2026-04-25T09:25:17.811Z</time></trkpt><trkpt lat="41.0805667" lon="-7.8761688"><ele>1029.0</ele><time>2026-04-25T09:25:18.823Z</time></trkpt><trkpt lat="41.0806704" lon="-7.8760668"><ele>1029.0</ele><time>2026-04-25T09:25:19.81Z</time></trkpt><trkpt lat="41.0807747" lon="-7.8759562"><ele>1027.0</ele><time>2026-04-25T09:25:20.817Z</time></trkpt><trkpt lat="41.0808894" lon="-7.8758487"><ele>1025.0</ele><time>2026-04-25T09:25:21.808Z</time></trkpt><trkpt lat="41.0810087" lon="-7.875739"><ele>1023.0</ele><time>2026-04-25T09:25:22.813Z</time></trkpt><trkpt lat="41.0811213" lon="-7.8756345"><ele>1021.0</ele><time>2026-04-25T09:25:23.818Z</time></trkpt><trkpt lat="41.0812185" lon="-7.8755348"><ele>1021.0</ele><time>2026-04-25T09:25:24.812Z</time></trkpt><trkpt lat="41.0813124" lon="-7.8754387"><ele>1021.0</ele><time>2026-04-25T09:25:25.81Z</time></trkpt><trkpt lat="41.0814093" lon="-7.875327"><ele>1021.0</ele><time>2026-04-25T09:25:26.808Z</time></trkpt><trkpt lat="41.0815109" lon="-7.8752054"><ele>1021.0</ele><time>2026-04-25T09:25:27.812Z</time></trkpt><trkpt lat="41.0816203" lon="-7.8750872"><ele>1022.0</ele><time>2026-04-25T09:25:28.81Z</time></trkpt><trkpt lat="41.0817306" lon="-7.8749774"><ele>1023.0</ele><time>2026-04-25T09:25:29.813Z</time></trkpt><trkpt lat="41.0818431" lon="-7.8748776"><ele>1024.0</ele><time>2026-04-25T09:25:30.814Z</time></trkpt><trkpt lat="41.081956" lon="-7.8747769"><ele>1025.0</ele><time>2026-04-25T09:25:31.814Z</time></trkpt><trkpt lat="41.0820645" lon="-7.8746744"><ele>1025.0</ele><time>2026-04-25T09:25:32.811Z</time></trkpt><trkpt lat="41.0821674" lon="-7.8745701"><ele>1025.0</ele><time>2026-04-25T09:25:33.812Z</time></trkpt><trkpt lat="41.0822679" lon="-7.8744672"><ele>1025.0</ele><time>2026-04-25T09:25:34.812Z</time></trkpt><trkpt lat="41.0824755" lon="-7.8742536"><ele>1025.0</ele><time>2026-04-25T09:25:36.816Z</time></trkpt><trkpt lat="41.0825892" lon="-7.8741369"><ele>1025.0</ele><time>2026-04-25T09:25:37.813Z</time></trkpt><trkpt lat="41.0827044" lon="-7.8740237"><ele>1025.0</ele><time>2026-04-25T09:25:38.814Z</time></trkpt><trkpt lat="41.0828115" lon="-7.8739132"><ele>1025.0</ele><time>2026-04-25T09:25:39.819Z</time></trkpt><trkpt lat="41.0829172" lon="-7.8737996"><ele>1025.0</ele><time>2026-04-25T09:25:40.819Z</time></trkpt><trkpt lat="41.0830061" lon="-7.8736755"><ele>1025.0</ele><time>2026-04-25T09:25:41.81Z</time></trkpt><trkpt lat="41.0830861" lon="-7.8735462"><ele>1025.0</ele><time>2026-04-25T09:25:42.812Z</time></trkpt><trkpt lat="41.083157" lon="-7.8734089"><ele>1025.0</ele><time>2026-04-25T09:25:43.812Z</time></trkpt><trkpt lat="41.08323" lon="-7.8732794"><ele>1027.0</ele><time>2026-04-25T09:25:44.817Z</time></trkpt><trkpt lat="41.0833079" lon="-7.8731561"><ele>1029.0</ele><time>2026-04-25T09:25:45.811Z</time></trkpt><trkpt lat="41.0833887" lon="-7.873025"><ele>1031.0</ele><time>2026-04-25T09:25:46.808Z</time></trkpt><trkpt lat="41.0834712" lon="-7.8728972"><ele>1033.0</ele><time>2026-04-25T09:25:47.82Z</time></trkpt><trkpt lat="41.0835568" lon="-7.8727724"><ele>1033.0</ele><time>2026-04-25T09:25:48.809Z</time></trkpt><trkpt lat="41.0836447" lon="-7.872643"><ele>1033.0</ele><time>2026-04-25T09:25:49.812Z</time></trkpt><trkpt lat="41.083732" lon="-7.8725149"><ele>1033.0</ele><time>2026-04-25T09:25:50.821Z</time></trkpt><trkpt lat="41.0838213" lon="-7.8723944"><ele>1033.0</ele><time>2026-04-25T09:25:51.82Z</time></trkpt><trkpt lat="41.0839186" lon="-7.87228"><ele>1034.0</ele><time>2026-04-25T09:25:52.815Z</time></trkpt><trkpt lat="41.0840274" lon="-7.872174"><ele>1035.0</ele><time>2026-04-25T09:25:53.815Z</time></trkpt><trkpt lat="41.0841448" lon="-7.8720734"><ele>1036.0</ele><time>2026-04-25T09:25:54.817Z</time></trkpt><trkpt lat="41.0842659" lon="-7.8719839"><ele>1037.0</ele><time>2026-04-25T09:25:55.81Z</time></trkpt><trkpt lat="41.0845114" lon="-7.8718101"><ele>1038.75</ele><time>2026-04-25T09:25:57.809Z</time></trkpt><trkpt lat="41.0846294" lon="-7.871723"><ele>1040.5</ele><time>2026-04-25T09:25:58.808Z</time></trkpt><trkpt lat="41.0847442" lon="-7.8716422"><ele>1042.25</ele><time>2026-04-25T09:25:59.815Z</time></trkpt><trkpt lat="41.084856" lon="-7.8715573"><ele>1044.0</ele><time>2026-04-25T09:26:00.815Z</time></trkpt><trkpt lat="41.0849672" lon="-7.8714711"><ele>1044.75</ele><time>2026-04-25T09:26:01.812Z</time></trkpt><trkpt lat="41.0850877" lon="-7.8713903"><ele>1045.5</ele><time>2026-04-25T09:26:02.814Z</time></trkpt><trkpt lat="41.0852177" lon="-7.8713178"><ele>1046.25</ele><time>2026-04-25T09:26:03.819Z</time></trkpt><trkpt lat="41.0853561" lon="-7.8712599"><ele>1047.0</ele><time>2026-04-25T09:26:04.808Z</time></trkpt><trkpt lat="41.0855036" lon="-7.8712127"><ele>1047.0</ele><time>2026-04-25T09:26:05.813Z</time></trkpt><trkpt lat="41.0856325" lon="-7.8711721"><ele>1047.0</ele><time>2026-04-25T09:26:06.813Z</time></trkpt><trkpt lat="41.085752" lon="-7.8711437"><ele>1047.0</ele><time>2026-04-25T09:26:07.808Z</time></trkpt><trkpt lat="41.0858536" lon="-7.8711288"><ele>1047.0</ele><time>2026-04-25T09:26:08.813Z</time></trkpt><trkpt lat="41.0859471" lon="-7.871103"><ele>1046.8</ele><time>2026-04-25T09:26:09.81Z</time></trkpt><trkpt lat="41.0860384" lon="-7.8710721"><ele>1046.6</ele><time>2026-04-25T09:26:10.813Z</time></trkpt><trkpt lat="41.0861376" lon="-7.8710322"><ele>1046.3999999999999</ele><time>2026-04-25T09:26:11.826Z</time></trkpt><trkpt lat="41.0862381" lon="-7.8709965"><ele>1046.2</ele><time>2026-04-25T09:26:12.809Z</time></trkpt><trkpt lat="41.0863391" lon="-7.8709585"><ele>1046.0</ele><time>2026-04-25T09:26:13.814Z</time></trkpt><trkpt lat="41.0864409" lon="-7.870918"><ele>1047.0</ele><time>2026-04-25T09:26:14.814Z</time></trkpt><trkpt lat="41.0865372" lon="-7.870879"><ele>1048.0</ele><time>2026-04-25T09:26:15.817Z</time></trkpt><trkpt lat="41.0866301" lon="-7.8708423"><ele>1049.0</ele><time>2026-04-25T09:26:16.812Z</time></trkpt><trkpt lat="41.0868122" lon="-7.8707689"><ele>1050.0</ele><time>2026-04-25T09:26:18.827Z</time></trkpt><trkpt lat="41.0869075" lon="-7.8707263"><ele>1050.0</ele><time>2026-04-25T09:26:19.818Z</time></trkpt><trkpt lat="41.0870115" lon="-7.8706806"><ele>1050.0</ele><time>2026-04-25T09:26:20.814Z</time></trkpt><trkpt lat="41.087123" lon="-7.8706369"><ele>1050.0</ele><time>2026-04-25T09:26:21.813Z</time></trkpt><trkpt lat="41.0872366" lon="-7.8705964"><ele>1050.0</ele><time>2026-04-25T09:26:22.811Z</time></trkpt><trkpt lat="41.0873479" lon="-7.870552"><ele>1049.75</ele><time>2026-04-25T09:26:23.815Z</time></trkpt><trkpt lat="41.0874597" lon="-7.8705107"><ele>1049.5</ele><time>2026-04-25T09:26:24.819Z</time></trkpt><trkpt lat="41.0875707" lon="-7.8704646"><ele>1049.25</ele><time>2026-04-25T09:26:25.816Z</time></trkpt><trkpt lat="41.0876809" lon="-7.8704101"><ele>1049.0</ele><time>2026-04-25T09:26:26.817Z</time></trkpt><trkpt lat="41.0877908" lon="-7.8703452"><ele>1049.0</ele><time>2026-04-25T09:26:27.812Z</time></trkpt><trkpt lat="41.0879041" lon="-7.8702793"><ele>1049.0</ele><time>2026-04-25T09:26:28.812Z</time></trkpt><trkpt lat="41.0880195" lon="-7.8702164"><ele>1049.0</ele><time>2026-04-25T09:26:29.812Z</time></trkpt><trkpt lat="41.0881326" lon="-7.8701524"><ele>1049.0</ele><time>2026-04-25T09:26:30.807Z</time></trkpt><trkpt lat="41.088239" lon="-7.8700793"><ele>1049.5</ele><time>2026-04-25T09:26:31.816Z</time></trkpt><trkpt lat="41.0883418" lon="-7.8700066"><ele>1050.0</ele><time>2026-04-25T09:26:32.806Z</time></trkpt><trkpt lat="41.0884421" lon="-7.8699284"><ele>1050.5</ele><time>2026-04-25T09:26:33.82Z</time></trkpt><trkpt lat="41.0885477" lon="-7.8698466"><ele>1051.0</ele><time>2026-04-25T09:26:34.81Z</time></trkpt><trkpt lat="41.088653" lon="-7.8697569"><ele>1051.0</ele><time>2026-04-25T09:26:35.808Z</time></trkpt><trkpt lat="41.0887649" lon="-7.8696621"><ele>1051.0</ele><time>2026-04-25T09:26:36.819Z</time></trkpt><trkpt lat="41.0888855" lon="-7.8695729"><ele>1051.0</ele><time>2026-04-25T09:26:37.81Z</time></trkpt><trkpt lat="41.0891308" lon="-7.8693847"><ele>1050.0</ele><time>2026-04-25T09:26:39.82Z</time></trkpt><trkpt lat="41.0892533" lon="-7.8692807"><ele>1049.0</ele><time>2026-04-25T09:26:40.81Z</time></trkpt><trkpt lat="41.0893775" lon="-7.8691961"><ele>1048.0</ele><time>2026-04-25T09:26:41.815Z</time></trkpt><trkpt lat="41.0894941" lon="-7.8690984"><ele>1047.0</ele><time>2026-04-25T09:26:42.81Z</time></trkpt><trkpt lat="41.0896057" lon="-7.8690074"><ele>1047.0</ele><time>2026-04-25T09:26:43.815Z</time></trkpt><trkpt lat="41.0897186" lon="-7.8689223"><ele>1047.0</ele><time>2026-04-25T09:26:44.816Z</time></trkpt><trkpt lat="41.0898493" lon="-7.8688389"><ele>1047.0</ele><time>2026-04-25T09:26:45.811Z</time></trkpt><trkpt lat="41.0899895" lon="-7.8687852"><ele>1047.0</ele><time>2026-04-25T09:26:46.82Z</time></trkpt><trkpt lat="41.0901339" lon="-7.8687329"><ele>1047.75</ele><time>2026-04-25T09:26:47.814Z</time></trkpt><trkpt lat="41.09027" lon="-7.8686653"><ele>1048.5</ele><time>2026-04-25T09:26:48.812Z</time></trkpt><trkpt lat="41.0903901" lon="-7.8686073"><ele>1049.25</ele><time>2026-04-25T09:26:49.81Z</time></trkpt><trkpt lat="41.090513" lon="-7.8685617"><ele>1050.0</ele><time>2026-04-25T09:26:50.817Z</time></trkpt><trkpt lat="41.090642" lon="-7.8685088"><ele>1050.25</ele><time>2026-04-25T09:26:51.818Z</time></trkpt><trkpt lat="41.0907812" lon="-7.8684485"><ele>1050.5</ele><time>2026-04-25T09:26:52.818Z</time></trkpt><trkpt lat="41.0909254" lon="-7.868385"><ele>1050.75</ele><time>2026-04-25T09:26:53.816Z</time></trkpt><trkpt lat="41.0910702" lon="-7.8683365"><ele>1051.0</ele><time>2026-04-25T09:26:54.822Z</time></trkpt><trkpt lat="41.0912027" lon="-7.8682939"><ele>1050.5</ele><time>2026-04-25T09:26:55.818Z</time></trkpt><trkpt lat="41.0913272" lon="-7.8682589"><ele>1050.0</ele><time>2026-04-25T09:26:56.812Z</time></trkpt><trkpt lat="41.0914425" lon="-7.8682277"><ele>1049.5</ele><time>2026-04-25T09:26:57.816Z</time></trkpt><trkpt lat="41.0915556" lon="-7.8681961"><ele>1049.0</ele><time>2026-04-25T09:26:58.81Z</time></trkpt><trkpt lat="41.0917888" lon="-7.8680748"><ele>1050.0</ele><time>2026-04-25T09:27:00.812Z</time></trkpt><trkpt lat="41.0919133" lon="-7.868019"><ele>1051.0</ele><time>2026-04-25T09:27:01.826Z</time></trkpt><trkpt lat="41.0920299" lon="-7.8679663"><ele>1052.0</ele><time>2026-04-25T09:27:02.817Z</time></trkpt><trkpt lat="41.0921419" lon="-7.8679251"><ele>1053.0</ele><time>2026-04-25T09:27:03.817Z</time></trkpt><trkpt lat="41.0922537" lon="-7.8678964"><ele>1053.0</ele><time>2026-04-25T09:27:04.813Z</time></trkpt><trkpt lat="41.0923642" lon="-7.8678825"><ele>1053.0</ele><time>2026-04-25T09:27:05.815Z</time></trkpt><trkpt lat="41.0924769" lon="-7.8678879"><ele>1053.0</ele><time>2026-04-25T09:27:06.815Z</time></trkpt><trkpt lat="41.0925865" lon="-7.8679083"><ele>1053.0</ele><time>2026-04-25T09:27:07.815Z</time></trkpt><trkpt lat="41.0926975" lon="-7.8679362"><ele>1053.0</ele><time>2026-04-25T09:27:08.807Z</time></trkpt><trkpt lat="41.0928092" lon="-7.8679611"><ele>1053.75</ele><time>2026-04-25T09:27:09.814Z</time></trkpt><trkpt lat="41.0929227" lon="-7.8679858"><ele>1054.5</ele><time>2026-04-25T09:27:10.809Z</time></trkpt><trkpt lat="41.0930448" lon="-7.8680168"><ele>1055.25</ele><time>2026-04-25T09:27:11.815Z</time></trkpt><trkpt lat="41.093166" lon="-7.8680442"><ele>1056.0</ele><time>2026-04-25T09:27:12.811Z</time></trkpt><trkpt lat="41.0932943" lon="-7.8680697"><ele>1056.25</ele><time>2026-04-25T09:27:13.816Z</time></trkpt><trkpt lat="41.0934257" lon="-7.8681183"><ele>1056.5</ele><time>2026-04-25T09:27:14.811Z</time></trkpt><trkpt lat="41.0935622" lon="-7.8681585"><ele>1056.75</ele><time>2026-04-25T09:27:15.82Z</time></trkpt><trkpt lat="41.093715" lon="-7.8682158"><ele>1057.0</ele><time>2026-04-25T09:27:16.816Z</time></trkpt><trkpt lat="41.0938987" lon="-7.8682579"><ele>1057.0</ele><time>2026-04-25T09:27:17.811Z</time></trkpt><trkpt lat="41.0940513" lon="-7.8682884"><ele>1057.0</ele><time>2026-04-25T09:27:18.817Z</time></trkpt><trkpt lat="41.0941971" lon="-7.8683017"><ele>1057.0</ele><time>2026-04-25T09:27:19.823Z</time></trkpt><trkpt lat="41.0944927" lon="-7.8683723"><ele>1058.0</ele><time>2026-04-25T09:27:21.816Z</time></trkpt><trkpt lat="41.0946402" lon="-7.8683864"><ele>1059.0</ele><time>2026-04-25T09:27:22.817Z</time></trkpt><trkpt lat="41.0947547" lon="-7.8683927"><ele>1060.0</ele><time>2026-04-25T09:27:23.811Z</time></trkpt><trkpt lat="41.0948536" lon="-7.8683933"><ele>1061.0</ele><time>2026-04-25T09:27:24.813Z</time></trkpt><trkpt lat="41.0949505" lon="-7.8683893"><ele>1062.0</ele><time>2026-04-25T09:27:25.809Z</time></trkpt><trkpt lat="41.0950427" lon="-7.8683785"><ele>1063.0</ele><time>2026-04-25T09:27:26.813Z</time></trkpt><trkpt lat="41.0951331" lon="-7.8683703"><ele>1064.0</ele><time>2026-04-25T09:27:27.809Z</time></trkpt><trkpt lat="41.0952318" lon="-7.8683647"><ele>1065.0</ele><time>2026-04-25T09:27:28.811Z</time></trkpt><trkpt lat="41.0953305" lon="-7.8683279"><ele>1066.0</ele><time>2026-04-25T09:27:29.81Z</time></trkpt><trkpt lat="41.095419" lon="-7.8682772"><ele>1066.0</ele><time>2026-04-25T09:27:30.809Z</time></trkpt><trkpt lat="41.0954949" lon="-7.8681942"><ele>1066.0</ele><time>2026-04-25T09:27:31.823Z</time></trkpt><trkpt lat="41.0955508" lon="-7.8680948"><ele>1066.0</ele><time>2026-04-25T09:27:32.812Z</time></trkpt><trkpt lat="41.0956022" lon="-7.8679689"><ele>1066.0</ele><time>2026-04-25T09:27:33.811Z</time></trkpt><trkpt lat="41.0956448" lon="-7.8678151"><ele>1066.0</ele><time>2026-04-25T09:27:34.808Z</time></trkpt><trkpt lat="41.0956895" lon="-7.8676562"><ele>1065.5</ele><time>2026-04-25T09:27:35.811Z</time></trkpt><trkpt lat="41.0957392" lon="-7.8675"><ele>1065.0</ele><time>2026-04-25T09:27:36.816Z</time></trkpt><trkpt lat="41.0957964" lon="-7.86736"><ele>1064.5</ele><time>2026-04-25T09:27:37.809Z</time></trkpt><trkpt lat="41.0958603" lon="-7.8672234"><ele>1064.0</ele><time>2026-04-25T09:27:38.811Z</time></trkpt><trkpt lat="41.0959319" lon="-7.8670905"><ele>1065.0</ele><time>2026-04-25T09:27:39.813Z</time></trkpt><trkpt lat="41.096008" lon="-7.8669685"><ele>1066.0</ele><time>2026-04-25T09:27:40.81Z</time></trkpt><trkpt lat="41.0962185" lon="-7.8667323"><ele>1067.0</ele><time>2026-04-25T09:27:42.817Z</time></trkpt><trkpt lat="41.0963736" lon="-7.8665985"><ele>1067.0</ele><time>2026-04-25T09:27:43.812Z</time></trkpt><trkpt lat="41.0965187" lon="-7.8664738"><ele>1067.0</ele><time>2026-04-25T09:27:44.812Z</time></trkpt><trkpt lat="41.0966361" lon="-7.8663793"><ele>1067.0</ele><time>2026-04-25T09:27:45.82Z</time></trkpt><trkpt lat="41.0967372" lon="-7.8663016"><ele>1067.0</ele><time>2026-04-25T09:27:46.812Z</time></trkpt><trkpt lat="41.0968068" lon="-7.8662183"><ele>1068.3333333333335</ele><time>2026-04-25T09:27:47.809Z</time></trkpt><trkpt lat="41.0968536" lon="-7.8661277"><ele>1069.6666666666667</ele><time>2026-04-25T09:27:48.808Z</time></trkpt><trkpt lat="41.0968929" lon="-7.8660483"><ele>1071.0</ele><time>2026-04-25T09:27:49.814Z</time></trkpt><trkpt lat="41.0969257" lon="-7.865937"><ele>1072.3333333333333</ele><time>2026-04-25T09:27:50.817Z</time></trkpt><trkpt lat="41.0969492" lon="-7.8658245"><ele>1073.6666666666665</ele><time>2026-04-25T09:27:51.822Z</time></trkpt><trkpt lat="41.0969637" lon="-7.8657152"><ele>1075.0</ele><time>2026-04-25T09:27:52.808Z</time></trkpt><trkpt lat="41.0969748" lon="-7.8656045"><ele>1075.0</ele><time>2026-04-25T09:27:53.807Z</time></trkpt><trkpt lat="41.0969866" lon="-7.865494"><ele>1075.0</ele><time>2026-04-25T09:27:54.81Z</time></trkpt><trkpt lat="41.09699" lon="-7.8653834"><ele>1075.0</ele><time>2026-04-25T09:27:55.81Z</time></trkpt><trkpt lat="41.0969858" lon="-7.8652823"><ele>1075.0</ele><time>2026-04-25T09:27:56.811Z</time></trkpt><trkpt lat="41.0969763" lon="-7.8651963"><ele>1075.0</ele><time>2026-04-25T09:27:57.819Z</time></trkpt><trkpt lat="41.096964" lon="-7.8650553"><ele>1075.0</ele><time>2026-04-25T09:27:59.81Z</time></trkpt><trkpt lat="41.0969619" lon="-7.8649703"><ele>1076.2</ele><time>2026-04-25T09:28:00.815Z</time></trkpt><trkpt lat="41.0969733" lon="-7.8648805"><ele>1077.4</ele><time>2026-04-25T09:28:01.816Z</time></trkpt><trkpt lat="41.0970219" lon="-7.8646975"><ele>1078.6</ele><time>2026-04-25T09:28:03.806Z</time></trkpt><trkpt lat="41.0970542" lon="-7.864595"><ele>1079.8</ele><time>2026-04-25T09:28:04.817Z</time></trkpt><trkpt lat="41.0970827" lon="-7.8644889"><ele>1081.0</ele><time>2026-04-25T09:28:05.822Z</time></trkpt><trkpt lat="41.0971143" lon="-7.8643841"><ele>1082.3999999999999</ele><time>2026-04-25T09:28:06.81Z</time></trkpt><trkpt lat="41.0971507" lon="-7.864274"><ele>1083.8</ele><time>2026-04-25T09:28:07.819Z</time></trkpt><trkpt lat="41.0971967" lon="-7.8641595"><ele>1085.1999999999998</ele><time>2026-04-25T09:28:08.82Z</time></trkpt><trkpt lat="41.0972543" lon="-7.8640286"><ele>1086.6</ele><time>2026-04-25T09:28:09.81Z</time></trkpt><trkpt lat="41.0973106" lon="-7.8638938"><ele>1088.0</ele><time>2026-04-25T09:28:10.809Z</time></trkpt><trkpt lat="41.0973641" lon="-7.8637761"><ele>1088.0</ele><time>2026-04-25T09:28:11.811Z</time></trkpt><trkpt lat="41.0974081" lon="-7.86367"><ele>1088.0</ele><time>2026-04-25T09:28:12.813Z</time></trkpt><trkpt lat="41.0974464" lon="-7.8635679"><ele>1088.0</ele><time>2026-04-25T09:28:13.81Z</time></trkpt><trkpt lat="41.0974866" lon="-7.8634771"><ele>1088.0</ele><time>2026-04-25T09:28:14.809Z</time></trkpt><trkpt lat="41.0975286" lon="-7.8634132"><ele>1088.0</ele><time>2026-04-25T09:28:15.813Z</time></trkpt><trkpt lat="41.0975859" lon="-7.8633762"><ele>1088.0</ele><time>2026-04-25T09:28:16.817Z</time></trkpt><trkpt lat="41.0976896" lon="-7.863368"><ele>1088.75</ele><time>2026-04-25T09:28:18.812Z</time></trkpt><trkpt lat="41.0977895" lon="-7.863427"><ele>1089.5</ele><time>2026-04-25T09:28:20.812Z</time></trkpt><trkpt lat="41.0978511" lon="-7.8634826"><ele>1090.25</ele><time>2026-04-25T09:28:21.813Z</time></trkpt><trkpt lat="41.0979228" lon="-7.8635554"><ele>1091.0</ele><time>2026-04-25T09:28:22.821Z</time></trkpt><trkpt lat="41.0980729" lon="-7.8637301"><ele>1091.0</ele><time>2026-04-25T09:28:24.817Z</time></trkpt><trkpt lat="41.0981447" lon="-7.8638089"><ele>1091.0</ele><time>2026-04-25T09:28:25.813Z</time></trkpt><trkpt lat="41.098214" lon="-7.8638762"><ele>1091.0</ele><time>2026-04-25T09:28:26.811Z</time></trkpt><trkpt lat="41.0982862" lon="-7.8639376"><ele>1091.0</ele><time>2026-04-25T09:28:27.816Z</time></trkpt><trkpt lat="41.0983587" lon="-7.8639934"><ele>1091.0</ele><time>2026-04-25T09:28:28.816Z</time></trkpt><trkpt lat="41.09843" lon="-7.8640319"><ele>1091.0</ele><time>2026-04-25T09:28:29.812Z</time></trkpt><trkpt lat="41.0984931" lon="-7.8640368"><ele>1092.2</ele><time>2026-04-25T09:28:30.81Z</time></trkpt><trkpt lat="41.0986061" lon="-7.8639457"><ele>1093.3999999999999</ele><time>2026-04-25T09:28:32.81Z</time></trkpt><trkpt lat="41.0986618" lon="-7.8638519"><ele>1094.6</ele><time>2026-04-25T09:28:33.81Z</time></trkpt><trkpt lat="41.0987165" lon="-7.8637359"><ele>1095.8</ele><time>2026-04-25T09:28:34.811Z</time></trkpt><trkpt lat="41.0987742" lon="-7.8636057"><ele>1097.0</ele><time>2026-04-25T09:28:35.81Z</time></trkpt><trkpt lat="41.0988365" lon="-7.863466"><ele>1096.75</ele><time>2026-04-25T09:28:36.815Z</time></trkpt><trkpt lat="41.0989061" lon="-7.863328"><ele>1096.5</ele><time>2026-04-25T09:28:37.812Z</time></trkpt><trkpt lat="41.0989777" lon="-7.8631918"><ele>1096.25</ele><time>2026-04-25T09:28:38.815Z</time></trkpt><trkpt lat="41.0990381" lon="-7.8630558"><ele>1096.0</ele><time>2026-04-25T09:28:39.812Z</time></trkpt><trkpt lat="41.0990926" lon="-7.8629351"><ele>1098.5</ele><time>2026-04-25T09:28:40.806Z</time></trkpt><trkpt lat="41.0991481" lon="-7.8628219"><ele>1101.0</ele><time>2026-04-25T09:28:41.812Z</time></trkpt><trkpt lat="41.0992026" lon="-7.8627157"><ele>1103.5</ele><time>2026-04-25T09:28:42.812Z</time></trkpt><trkpt lat="41.0992649" lon="-7.8626164"><ele>1106.0</ele><time>2026-04-25T09:28:43.813Z</time></trkpt><trkpt lat="41.0994144" lon="-7.8624733"><ele>1106.0</ele><time>2026-04-25T09:28:45.812Z</time></trkpt><trkpt lat="41.0995103" lon="-7.8624206"><ele>1106.0</ele><time>2026-04-25T09:28:46.814Z</time></trkpt><trkpt lat="41.0996081" lon="-7.8623759"><ele>1106.0</ele><time>2026-04-25T09:28:47.824Z</time></trkpt><trkpt lat="41.0997097" lon="-7.8623391"><ele>1106.0</ele><time>2026-04-25T09:28:48.812Z</time></trkpt><trkpt lat="41.0998105" lon="-7.8623186"><ele>1106.0</ele><time>2026-04-25T09:28:49.809Z</time></trkpt><trkpt lat="41.0999063" lon="-7.862322"><ele>1107.3999999999999</ele><time>2026-04-25T09:28:50.811Z</time></trkpt><trkpt lat="41.1000012" lon="-7.8623398"><ele>1108.8</ele><time>2026-04-25T09:28:51.827Z</time></trkpt><trkpt lat="41.1000936" lon="-7.8623706"><ele>1110.1999999999998</ele><time>2026-04-25T09:28:52.812Z</time></trkpt><trkpt lat="41.1001941" lon="-7.8623931"><ele>1111.6</ele><time>2026-04-25T09:28:53.809Z</time></trkpt><trkpt lat="41.1002976" lon="-7.8624078"><ele>1113.0</ele><time>2026-04-25T09:28:54.811Z</time></trkpt><trkpt lat="41.1003972" lon="-7.862403"><ele>1113.0</ele><time>2026-04-25T09:28:55.809Z</time></trkpt><trkpt lat="41.1004853" lon="-7.8623824"><ele>1113.0</ele><time>2026-04-25T09:28:56.813Z</time></trkpt><trkpt lat="41.1005607" lon="-7.862349"><ele>1113.0</ele><time>2026-04-25T09:28:57.813Z</time></trkpt><trkpt lat="41.1006345" lon="-7.8622785"><ele>1113.0</ele><time>2026-04-25T09:28:58.81Z</time></trkpt><trkpt lat="41.1007142" lon="-7.8621675"><ele>1113.0</ele><time>2026-04-25T09:28:59.81Z</time></trkpt><trkpt lat="41.1007912" lon="-7.8620446"><ele>1113.0</ele><time>2026-04-25T09:29:00.818Z</time></trkpt><trkpt lat="41.1008625" lon="-7.8619331"><ele>1113.0</ele><time>2026-04-25T09:29:01.808Z</time></trkpt><trkpt lat="41.1009332" lon="-7.8618337"><ele>1113.0</ele><time>2026-04-25T09:29:02.817Z</time></trkpt><trkpt lat="41.1009979" lon="-7.8617364"><ele>1113.0</ele><time>2026-04-25T09:29:03.806Z</time></trkpt><trkpt lat="41.1010561" lon="-7.8616485"><ele>1113.0</ele><time>2026-04-25T09:29:04.811Z</time></trkpt><trkpt lat="41.1011901" lon="-7.8615175"><ele>1113.0</ele><time>2026-04-25T09:29:06.82Z</time></trkpt><trkpt lat="41.1012674" lon="-7.8614587"><ele>1113.0</ele><time>2026-04-25T09:29:07.813Z</time></trkpt><trkpt lat="41.1013469" lon="-7.8613984"><ele>1113.0</ele><time>2026-04-25T09:29:08.812Z</time></trkpt><trkpt lat="41.1014333" lon="-7.8613382"><ele>1113.0</ele><time>2026-04-25T09:29:09.818Z</time></trkpt><trkpt lat="41.1015262" lon="-7.8612725"><ele>1113.0</ele><time>2026-04-25T09:29:10.809Z</time></trkpt><trkpt lat="41.1016175" lon="-7.8612015"><ele>1112.6</ele><time>2026-04-25T09:29:11.81Z</time></trkpt><trkpt lat="41.1017053" lon="-7.8611308"><ele>1112.1999999999998</ele><time>2026-04-25T09:29:12.808Z</time></trkpt><trkpt lat="41.1017814" lon="-7.8610648"><ele>1111.8</ele><time>2026-04-25T09:29:13.814Z</time></trkpt><trkpt lat="41.1018578" lon="-7.8610001"><ele>1111.3999999999999</ele><time>2026-04-25T09:29:14.811Z</time></trkpt><trkpt lat="41.1019354" lon="-7.8609272"><ele>1111.0</ele><time>2026-04-25T09:29:15.814Z</time></trkpt><trkpt lat="41.1020149" lon="-7.8608506"><ele>1111.0</ele><time>2026-04-25T09:29:16.807Z</time></trkpt><trkpt lat="41.1020982" lon="-7.8607754"><ele>1111.0</ele><time>2026-04-25T09:29:17.809Z</time></trkpt><trkpt lat="41.102191" lon="-7.8607087"><ele>1111.0</ele><time>2026-04-25T09:29:18.814Z</time></trkpt><trkpt lat="41.102289" lon="-7.8606562"><ele>1111.0</ele><time>2026-04-25T09:29:19.813Z</time></trkpt><trkpt lat="41.1023886" lon="-7.8606199"><ele>1111.0</ele><time>2026-04-25T09:29:20.81Z</time></trkpt><trkpt lat="41.1024817" lon="-7.8606014"><ele>1111.0</ele><time>2026-04-25T09:29:21.808Z</time></trkpt><trkpt lat="41.1025702" lon="-7.8606011"><ele>1111.0</ele><time>2026-04-25T09:29:22.81Z</time></trkpt><trkpt lat="41.1026564" lon="-7.8606243"><ele>1111.0</ele><time>2026-04-25T09:29:23.809Z</time></trkpt><trkpt lat="41.1027435" lon="-7.8606697"><ele>1111.0</ele><time>2026-04-25T09:29:24.815Z</time></trkpt><trkpt lat="41.1028314" lon="-7.8607092"><ele>1111.0</ele><time>2026-04-25T09:29:25.809Z</time></trkpt><trkpt lat="41.1030035" lon="-7.8607918"><ele>1111.0</ele><time>2026-04-25T09:29:27.821Z</time></trkpt><trkpt lat="41.1030913" lon="-7.860838"><ele>1111.0</ele><time>2026-04-25T09:29:28.811Z</time></trkpt><trkpt lat="41.1031757" lon="-7.8608772"><ele>1111.0</ele><time>2026-04-25T09:29:29.813Z</time></trkpt><trkpt lat="41.1032527" lon="-7.8609059"><ele>1111.0</ele><time>2026-04-25T09:29:30.81Z</time></trkpt><trkpt lat="41.1033279" lon="-7.8609264"><ele>1111.0</ele><time>2026-04-25T09:29:31.812Z</time></trkpt><trkpt lat="41.1033985" lon="-7.8609296"><ele>1111.0</ele><time>2026-04-25T09:29:32.812Z</time></trkpt><trkpt lat="41.1034688" lon="-7.8608915"><ele>1110.8</ele><time>2026-04-25T09:29:33.811Z</time></trkpt><trkpt lat="41.103537" lon="-7.8608299"><ele>1110.6</ele><time>2026-04-25T09:29:34.825Z</time></trkpt><trkpt lat="41.1036086" lon="-7.8607625"><ele>1110.4</ele><time>2026-04-25T09:29:35.808Z</time></trkpt><trkpt lat="41.1036785" lon="-7.8606812"><ele>1110.2</ele><time>2026-04-25T09:29:36.804Z</time></trkpt><trkpt lat="41.1037401" lon="-7.8605857"><ele>1110.0</ele><time>2026-04-25T09:29:37.82Z</time></trkpt><trkpt lat="41.1038047" lon="-7.8604909"><ele>1110.0000000000002</ele><time>2026-04-25T09:29:38.808Z</time></trkpt><trkpt lat="41.103863" lon="-7.8604091"><ele>1110.0</ele><time>2026-04-25T09:29:39.813Z</time></trkpt><trkpt lat="41.1039156" lon="-7.8603372"><ele>1110.0</ele><time>2026-04-25T09:29:40.809Z</time></trkpt><trkpt lat="41.1039728" lon="-7.8602781"><ele>1110.0</ele><time>2026-04-25T09:29:41.81Z</time></trkpt><trkpt lat="41.1040339" lon="-7.8602323"><ele>1110.0</ele><time>2026-04-25T09:29:42.825Z</time></trkpt><trkpt lat="41.1040985" lon="-7.8602063"><ele>1110.0000000000002</ele><time>2026-04-25T09:29:43.81Z</time></trkpt><trkpt lat="41.1041743" lon="-7.8602017"><ele>1110.0</ele><time>2026-04-25T09:29:44.81Z</time></trkpt><trkpt lat="41.1042512" lon="-7.8601983"><ele>1109.1666666666667</ele><time>2026-04-25T09:29:45.814Z</time></trkpt><trkpt lat="41.1043237" lon="-7.8601867"><ele>1108.3333333333333</ele><time>2026-04-25T09:29:46.822Z</time></trkpt><trkpt lat="41.1044587" lon="-7.8601596"><ele>1107.5</ele><time>2026-04-25T09:29:48.809Z</time></trkpt><trkpt lat="41.1045292" lon="-7.8601381"><ele>1106.6666666666665</ele><time>2026-04-25T09:29:49.814Z</time></trkpt><trkpt lat="41.1046012" lon="-7.8601175"><ele>1105.8333333333333</ele><time>2026-04-25T09:29:50.814Z</time></trkpt><trkpt lat="41.1046817" lon="-7.8600983"><ele>1105.0</ele><time>2026-04-25T09:29:51.818Z</time></trkpt><trkpt lat="41.1047662" lon="-7.8600846"><ele>1105.0</ele><time>2026-04-25T09:29:52.817Z</time></trkpt><trkpt lat="41.1048507" lon="-7.8600659"><ele>1105.0</ele><time>2026-04-25T09:29:53.814Z</time></trkpt><trkpt lat="41.1049315" lon="-7.8600474"><ele>1105.0</ele><time>2026-04-25T09:29:54.812Z</time></trkpt><trkpt lat="41.105002" lon="-7.8600245"><ele>1105.0</ele><time>2026-04-25T09:29:55.811Z</time></trkpt><trkpt lat="41.1050654" lon="-7.8600197"><ele>1105.0</ele><time>2026-04-25T09:29:56.812Z</time></trkpt><trkpt lat="41.105134" lon="-7.8600144"><ele>1105.0</ele><time>2026-04-25T09:29:57.809Z</time></trkpt><trkpt lat="41.1051989" lon="-7.8600116"><ele>1105.0</ele><time>2026-04-25T09:29:58.812Z</time></trkpt><trkpt lat="41.1052677" lon="-7.8600204"><ele>1103.6666666666665</ele><time>2026-04-25T09:29:59.809Z</time></trkpt><trkpt lat="41.1053316" lon="-7.8600477"><ele>1102.3333333333333</ele><time>2026-04-25T09:30:00.815Z</time></trkpt><trkpt lat="41.1054021" lon="-7.8600941"><ele>1101.0</ele><time>2026-04-25T09:30:01.813Z</time></trkpt><trkpt lat="41.1054789" lon="-7.8601529"><ele>1099.6666666666667</ele><time>2026-04-25T09:30:02.819Z</time></trkpt><trkpt lat="41.1055546" lon="-7.8602208"><ele>1098.3333333333335</ele><time>2026-04-25T09:30:03.809Z</time></trkpt><trkpt lat="41.1056233" lon="-7.8602758"><ele>1097.0</ele><time>2026-04-25T09:30:04.809Z</time></trkpt><trkpt lat="41.1056915" lon="-7.8603259"><ele>1093.4</ele><time>2026-04-25T09:30:05.82Z</time></trkpt><trkpt lat="41.1057634" lon="-7.8603642"><ele>1089.8000000000002</ele><time>2026-04-25T09:30:06.809Z</time></trkpt><trkpt lat="41.1058411" lon="-7.8603768"><ele>1086.2</ele><time>2026-04-25T09:30:07.812Z</time></trkpt><trkpt lat="41.1059945" lon="-7.8603569"><ele>1082.6000000000001</ele><time>2026-04-25T09:30:09.807Z</time></trkpt><trkpt lat="41.1060594" lon="-7.8603081"><ele>1079.0</ele><time>2026-04-25T09:30:10.82Z</time></trkpt><trkpt lat="41.1061045" lon="-7.8602421"><ele>1079.0</ele><time>2026-04-25T09:30:11.81Z</time></trkpt><trkpt lat="41.1061459" lon="-7.8601332"><ele>1079.0</ele><time>2026-04-25T09:30:13.813Z</time></trkpt><trkpt lat="41.1061046" lon="-7.8600597"><ele>1079.0</ele><time>2026-04-25T09:31:34.814Z</time></trkpt><trkpt lat="41.1060719" lon="-7.8597912"><ele>1079.0</ele><time>2026-04-25T09:31:39.81Z</time></trkpt><trkpt lat="41.1060575" lon="-7.8596981"><ele>1079.0</ele><time>2026-04-25T09:31:40.81Z</time></trkpt><trkpt lat="41.1060423" lon="-7.8596059"><ele>1079.857142857143</ele><time>2026-04-25T09:31:41.819Z</time></trkpt><trkpt lat="41.1060182" lon="-7.8595115"><ele>1080.7142857142858</ele><time>2026-04-25T09:31:42.809Z</time></trkpt><trkpt lat="41.1059986" lon="-7.85943"><ele>1081.5714285714284</ele><time>2026-04-25T09:31:43.808Z</time></trkpt><trkpt lat="41.1059916" lon="-7.8593464"><ele>1082.4285714285716</ele><time>2026-04-25T09:31:44.811Z</time></trkpt><trkpt lat="41.1060047" lon="-7.8592529"><ele>1083.2857142857142</ele><time>2026-04-25T09:31:45.81Z</time></trkpt><trkpt lat="41.1060091" lon="-7.8591599"><ele>1084.142857142857</ele><time>2026-04-25T09:31:46.813Z</time></trkpt><trkpt lat="41.1060368" lon="-7.8590537"><ele>1085.0</ele><time>2026-04-25T09:31:47.805Z</time></trkpt><trkpt lat="41.106075" lon="-7.858953"><ele>1085.0</ele><time>2026-04-25T09:31:48.816Z</time></trkpt><trkpt lat="41.1061138" lon="-7.8588607"><ele>1085.0</ele><time>2026-04-25T09:31:49.814Z</time></trkpt><trkpt lat="41.1061584" lon="-7.8587817"><ele>1085.0</ele><time>2026-04-25T09:31:50.812Z</time></trkpt><trkpt lat="41.1062041" lon="-7.8587124"><ele>1085.0</ele><time>2026-04-25T09:31:51.809Z</time></trkpt><trkpt lat="41.1062491" lon="-7.8586519"><ele>1085.0</ele><time>2026-04-25T09:31:52.809Z</time></trkpt><trkpt lat="41.1062947" lon="-7.8585933"><ele>1085.0</ele><time>2026-04-25T09:31:53.812Z</time></trkpt><trkpt lat="41.1063686" lon="-7.8584926"><ele>1083.3333333333335</ele><time>2026-04-25T09:31:55.81Z</time></trkpt><trkpt lat="41.1065176" lon="-7.8582647"><ele>1081.6666666666667</ele><time>2026-04-25T09:31:59.809Z</time></trkpt><trkpt lat="41.1066057" lon="-7.8581555"><ele>1080.0</ele><time>2026-04-25T09:32:01.822Z</time></trkpt><trkpt lat="41.1066744" lon="-7.8580393"><ele>1079.4</ele><time>2026-04-25T09:32:03.809Z</time></trkpt><trkpt lat="41.1067582" lon="-7.8579053"><ele>1078.8</ele><time>2026-04-25T09:32:05.805Z</time></trkpt><trkpt lat="41.106806" lon="-7.8578417"><ele>1078.2</ele><time>2026-04-25T09:32:06.813Z</time></trkpt><trkpt lat="41.1068534" lon="-7.8577778"><ele>1077.6</ele><time>2026-04-25T09:32:07.811Z</time></trkpt><trkpt lat="41.1069505" lon="-7.8576792"><ele>1077.0</ele><time>2026-04-25T09:32:09.814Z</time></trkpt><trkpt lat="41.1070412" lon="-7.8575819"><ele>1076.8</ele><time>2026-04-25T09:32:11.809Z</time></trkpt><trkpt lat="41.1071166" lon="-7.8574619"><ele>1076.6</ele><time>2026-04-25T09:32:13.818Z</time></trkpt><trkpt lat="41.10715" lon="-7.8573818"><ele>1076.3999999999999</ele><time>2026-04-25T09:32:14.81Z</time></trkpt><trkpt lat="41.1071828" lon="-7.8572984"><ele>1076.2</ele><time>2026-04-25T09:32:15.81Z</time></trkpt><trkpt lat="41.1072103" lon="-7.8572154"><ele>1076.0</ele><time>2026-04-25T09:32:16.812Z</time></trkpt><trkpt lat="41.1072423" lon="-7.8570294"><ele>1076.0</ele><time>2026-04-25T09:32:18.81Z</time></trkpt><trkpt lat="41.1072438" lon="-7.8569219"><ele>1076.0</ele><time>2026-04-25T09:32:19.809Z</time></trkpt><trkpt lat="41.1072397" lon="-7.8568143"><ele>1076.0</ele><time>2026-04-25T09:32:20.816Z</time></trkpt><trkpt lat="41.1072308" lon="-7.8566965"><ele>1076.0</ele><time>2026-04-25T09:32:21.814Z</time></trkpt><trkpt lat="41.1072185" lon="-7.856573"><ele>1076.0</ele><time>2026-04-25T09:32:22.814Z</time></trkpt><trkpt lat="41.1072035" lon="-7.8564467"><ele>1076.0</ele><time>2026-04-25T09:32:23.807Z</time></trkpt><trkpt lat="41.1071885" lon="-7.8563186"><ele>1075.2</ele><time>2026-04-25T09:32:24.809Z</time></trkpt><trkpt lat="41.1071699" lon="-7.8561966"><ele>1074.3999999999999</ele><time>2026-04-25T09:32:25.805Z</time></trkpt><trkpt lat="41.1071556" lon="-7.856079"><ele>1073.6</ele><time>2026-04-25T09:32:26.807Z</time></trkpt><trkpt lat="41.1071363" lon="-7.8559551"><ele>1072.8</ele><time>2026-04-25T09:32:27.812Z</time></trkpt><trkpt lat="41.1071119" lon="-7.8558204"><ele>1072.0</ele><time>2026-04-25T09:32:28.812Z</time></trkpt><trkpt lat="41.1070825" lon="-7.855693"><ele>1070.0</ele><time>2026-04-25T09:32:29.815Z</time></trkpt><trkpt lat="41.1070564" lon="-7.8555519"><ele>1068.0</ele><time>2026-04-25T09:32:30.81Z</time></trkpt><trkpt lat="41.1070291" lon="-7.855419"><ele>1066.0</ele><time>2026-04-25T09:32:31.814Z</time></trkpt><trkpt lat="41.1070083" lon="-7.8552862"><ele>1064.0</ele><time>2026-04-25T09:32:32.809Z</time></trkpt><trkpt lat="41.1069911" lon="-7.8551616"><ele>1062.0</ele><time>2026-04-25T09:32:33.806Z</time></trkpt><trkpt lat="41.1069795" lon="-7.8550471"><ele>1060.5</ele><time>2026-04-25T09:32:34.818Z</time></trkpt><trkpt lat="41.1069706" lon="-7.8549325"><ele>1059.0</ele><time>2026-04-25T09:32:35.815Z</time></trkpt><trkpt lat="41.1069613" lon="-7.8548121"><ele>1057.5</ele><time>2026-04-25T09:32:36.812Z</time></trkpt><trkpt lat="41.1069475" lon="-7.8546956"><ele>1056.0</ele><time>2026-04-25T09:32:37.81Z</time></trkpt><trkpt lat="41.1069408" lon="-7.85444"><ele>1056.0</ele><time>2026-04-25T09:32:39.808Z</time></trkpt><trkpt lat="41.1069459" lon="-7.8543052"><ele>1056.0</ele><time>2026-04-25T09:32:40.813Z</time></trkpt><trkpt lat="41.1069572" lon="-7.8541696"><ele>1056.0</ele><time>2026-04-25T09:32:41.808Z</time></trkpt><trkpt lat="41.1069788" lon="-7.8540428"><ele>1056.0</ele><time>2026-04-25T09:32:42.809Z</time></trkpt><trkpt lat="41.1070034" lon="-7.8539227"><ele>1056.0</ele><time>2026-04-25T09:32:43.816Z</time></trkpt><trkpt lat="41.1070306" lon="-7.8538108"><ele>1054.3333333333333</ele><time>2026-04-25T09:32:44.81Z</time></trkpt><trkpt lat="41.1070524" lon="-7.8537081"><ele>1052.6666666666667</ele><time>2026-04-25T09:32:45.807Z</time></trkpt><trkpt lat="41.1070793" lon="-7.8536146"><ele>1051.0</ele><time>2026-04-25T09:32:46.812Z</time></trkpt><trkpt lat="41.1071242" lon="-7.8535224"><ele>1049.3333333333335</ele><time>2026-04-25T09:32:47.806Z</time></trkpt><trkpt lat="41.107186" lon="-7.8534285"><ele>1047.6666666666667</ele><time>2026-04-25T09:32:48.809Z</time></trkpt><trkpt lat="41.107265" lon="-7.8533392"><ele>1046.0</ele><time>2026-04-25T09:32:49.814Z</time></trkpt><trkpt lat="41.1073564" lon="-7.8532641"><ele>1044.2</ele><time>2026-04-25T09:32:50.812Z</time></trkpt><trkpt lat="41.107455" lon="-7.8531967"><ele>1042.3999999999999</ele><time>2026-04-25T09:32:51.809Z</time></trkpt><trkpt lat="41.107552" lon="-7.8531306"><ele>1040.6</ele><time>2026-04-25T09:32:52.807Z</time></trkpt><trkpt lat="41.1076443" lon="-7.8530662"><ele>1038.8</ele><time>2026-04-25T09:32:53.806Z</time></trkpt><trkpt lat="41.1077327" lon="-7.8530113"><ele>1037.0</ele><time>2026-04-25T09:32:54.809Z</time></trkpt><trkpt lat="41.107817" lon="-7.8529646"><ele>1037.0</ele><time>2026-04-25T09:32:55.811Z</time></trkpt><trkpt lat="41.1079" lon="-7.8529298"><ele>1037.0</ele><time>2026-04-25T09:32:56.809Z</time></trkpt><trkpt lat="41.1079825" lon="-7.8529089"><ele>1037.0</ele><time>2026-04-25T09:32:57.804Z</time></trkpt><trkpt lat="41.1080626" lon="-7.8528993"><ele>1037.0</ele><time>2026-04-25T09:32:58.818Z</time></trkpt><trkpt lat="41.1082292" lon="-7.8529195"><ele>1037.0</ele><time>2026-04-25T09:33:00.808Z</time></trkpt><trkpt lat="41.1083138" lon="-7.852939"><ele>1037.0</ele><time>2026-04-25T09:33:01.809Z</time></trkpt><trkpt lat="41.1083944" lon="-7.852958"><ele>1037.0</ele><time>2026-04-25T09:33:02.809Z</time></trkpt><trkpt lat="41.1084723" lon="-7.8529855"><ele>1037.0</ele><time>2026-04-25T09:33:03.809Z</time></trkpt><trkpt lat="41.1085505" lon="-7.8530165"><ele>1037.0</ele><time>2026-04-25T09:33:04.807Z</time></trkpt><trkpt lat="41.1086218" lon="-7.8530394"><ele>1037.0</ele><time>2026-04-25T09:33:05.81Z</time></trkpt><trkpt lat="41.108696" lon="-7.8530574"><ele>1037.0</ele><time>2026-04-25T09:33:06.81Z</time></trkpt><trkpt lat="41.1087738" lon="-7.8530812"><ele>1037.0</ele><time>2026-04-25T09:33:07.81Z</time></trkpt><trkpt lat="41.1088551" lon="-7.8531056"><ele>1037.0</ele><time>2026-04-25T09:33:08.81Z</time></trkpt><trkpt lat="41.1089376" lon="-7.853129"><ele>1037.0</ele><time>2026-04-25T09:33:09.81Z</time></trkpt><trkpt lat="41.1090244" lon="-7.8531569"><ele>1037.0</ele><time>2026-04-25T09:33:10.813Z</time></trkpt><trkpt lat="41.1091157" lon="-7.8531974"><ele>1037.0</ele><time>2026-04-25T09:33:11.814Z</time></trkpt><trkpt lat="41.1092096" lon="-7.8532484"><ele>1038.25</ele><time>2026-04-25T09:33:12.809Z</time></trkpt><trkpt lat="41.1093016" lon="-7.8533132"><ele>1039.5</ele><time>2026-04-25T09:33:13.817Z</time></trkpt><trkpt lat="41.109399" lon="-7.853386"><ele>1040.75</ele><time>2026-04-25T09:33:14.809Z</time></trkpt><trkpt lat="41.1095034" lon="-7.8534587"><ele>1042.0</ele><time>2026-04-25T09:33:15.807Z</time></trkpt><trkpt lat="41.1096095" lon="-7.8535305"><ele>1042.0</ele><time>2026-04-25T09:33:16.808Z</time></trkpt><trkpt lat="41.1097226" lon="-7.8536023"><ele>1042.0</ele><time>2026-04-25T09:33:17.812Z</time></trkpt><trkpt lat="41.109837" lon="-7.8536679"><ele>1042.0</ele><time>2026-04-25T09:33:18.818Z</time></trkpt><trkpt lat="41.1099447" lon="-7.8537224"><ele>1042.0</ele><time>2026-04-25T09:33:19.811Z</time></trkpt><trkpt lat="41.1101319" lon="-7.8538221"><ele>1039.2</ele><time>2026-04-25T09:33:21.818Z</time></trkpt><trkpt lat="41.1102193" lon="-7.8538695"><ele>1036.4</ele><time>2026-04-25T09:33:22.807Z</time></trkpt><trkpt lat="41.1103059" lon="-7.8539154"><ele>1033.6</ele><time>2026-04-25T09:33:23.816Z</time></trkpt><trkpt lat="41.1103914" lon="-7.8539685"><ele>1030.8</ele><time>2026-04-25T09:33:24.817Z</time></trkpt><trkpt lat="41.1104739" lon="-7.8540192"><ele>1028.0</ele><time>2026-04-25T09:33:25.81Z</time></trkpt><trkpt lat="41.110553" lon="-7.8540666"><ele>1028.0</ele><time>2026-04-25T09:33:26.806Z</time></trkpt><trkpt lat="41.1106212" lon="-7.8541186"><ele>1028.0</ele><time>2026-04-25T09:33:27.818Z</time></trkpt><trkpt lat="41.1106725" lon="-7.8541801"><ele>1028.0</ele><time>2026-04-25T09:33:28.805Z</time></trkpt><trkpt lat="41.1107503" lon="-7.8542855"><ele>1028.0</ele><time>2026-04-25T09:33:30.811Z</time></trkpt><trkpt lat="41.1108025" lon="-7.8543537"><ele>1028.0</ele><time>2026-04-25T09:33:32.809Z</time></trkpt><trkpt lat="41.1108717" lon="-7.8543527"><ele>1028.0</ele><time>2026-04-25T09:33:35.81Z</time></trkpt><trkpt lat="41.1109571" lon="-7.8542888"><ele>1024.75</ele><time>2026-04-25T09:33:38.82Z</time></trkpt><trkpt lat="41.1110478" lon="-7.8542494"><ele>1021.5</ele><time>2026-04-25T09:33:40.814Z</time></trkpt><trkpt lat="41.1112558" lon="-7.8542752"><ele>1018.25</ele><time>2026-04-25T09:33:43.811Z</time></trkpt><trkpt lat="41.1113698" lon="-7.8542818"><ele>1015.0</ele><time>2026-04-25T09:33:45.813Z</time></trkpt><trkpt lat="41.1114953" lon="-7.854299"><ele>1012.4</ele><time>2026-04-25T09:33:47.813Z</time></trkpt><trkpt lat="41.1116173" lon="-7.8543152"><ele>1009.8</ele><time>2026-04-25T09:33:49.811Z</time></trkpt><trkpt lat="41.1117157" lon="-7.8543332"><ele>1007.2</ele><time>2026-04-25T09:33:51.816Z</time></trkpt><trkpt lat="41.1117859" lon="-7.854334"><ele>1004.6</ele><time>2026-04-25T09:33:53.811Z</time></trkpt><trkpt lat="41.1118841" lon="-7.8543362"><ele>1002.0</ele><time>2026-04-25T09:33:56.807Z</time></trkpt><trkpt lat="41.1119645" lon="-7.8543359"><ele>1002.0</ele><time>2026-04-25T09:33:58.813Z</time></trkpt><trkpt lat="41.1120306" lon="-7.8543183"><ele>1002.0</ele><time>2026-04-25T09:34:00.807Z</time></trkpt><trkpt lat="41.1120408" lon="-7.8542287"><ele>1002.0</ele><time>2026-04-25T09:34:03.808Z</time></trkpt><trkpt lat="41.1120869" lon="-7.8539891"><ele>1002.0</ele><time>2026-04-25T09:34:07.807Z</time></trkpt><trkpt lat="41.1121192" lon="-7.8538357"><ele>1002.0</ele><time>2026-04-25T09:34:09.809Z</time></trkpt><trkpt lat="41.1121452" lon="-7.8536832"><ele>1000.1666666666666</ele><time>2026-04-25T09:34:11.816Z</time></trkpt><trkpt lat="41.1121779" lon="-7.8535357"><ele>998.3333333333333</ele><time>2026-04-25T09:34:13.813Z</time></trkpt><trkpt lat="41.1121977" lon="-7.8534159"><ele>996.5</ele><time>2026-04-25T09:34:15.807Z</time></trkpt><trkpt lat="41.112148" lon="-7.853304"><ele>994.6666666666666</ele><time>2026-04-25T09:34:17.809Z</time></trkpt><trkpt lat="41.1121007" lon="-7.8532372"><ele>992.8333333333333</ele><time>2026-04-25T09:34:18.808Z</time></trkpt><trkpt lat="41.1120538" lon="-7.8531757"><ele>991.0</ele><time>2026-04-25T09:34:19.809Z</time></trkpt><trkpt lat="41.1120116" lon="-7.8531071"><ele>990.1999999999999</ele><time>2026-04-25T09:34:20.819Z</time></trkpt><trkpt lat="41.1119725" lon="-7.8530336"><ele>989.3999999999999</ele><time>2026-04-25T09:34:21.807Z</time></trkpt><trkpt lat="41.1119385" lon="-7.8529606"><ele>988.6</ele><time>2026-04-25T09:34:22.818Z</time></trkpt><trkpt lat="41.1118926" lon="-7.8528196"><ele>987.8</ele><time>2026-04-25T09:34:24.81Z</time></trkpt><trkpt lat="41.1118454" lon="-7.8526499"><ele>987.0</ele><time>2026-04-25T09:34:26.804Z</time></trkpt><trkpt lat="41.1118107" lon="-7.8525727"><ele>986.7142857142858</ele><time>2026-04-25T09:34:27.81Z</time></trkpt><trkpt lat="41.1117926" lon="-7.8524838"><ele>986.4285714285714</ele><time>2026-04-25T09:34:28.809Z</time></trkpt><trkpt lat="41.1117933" lon="-7.8523812"><ele>986.1428571428571</ele><time>2026-04-25T09:34:29.813Z</time></trkpt><trkpt lat="41.1118103" lon="-7.8522801"><ele>985.8571428571429</ele><time>2026-04-25T09:34:30.812Z</time></trkpt><trkpt lat="41.1118296" lon="-7.8521818"><ele>985.5714285714287</ele><time>2026-04-25T09:34:31.814Z</time></trkpt><trkpt lat="41.1118449" lon="-7.8520899"><ele>985.2857142857143</ele><time>2026-04-25T09:34:32.814Z</time></trkpt><trkpt lat="41.1118558" lon="-7.8520029"><ele>985.0</ele><time>2026-04-25T09:34:33.81Z</time></trkpt><trkpt lat="41.1118686" lon="-7.8519154"><ele>984.9999999999999</ele><time>2026-04-25T09:34:34.823Z</time></trkpt><trkpt lat="41.1118848" lon="-7.8518194"><ele>985.0</ele><time>2026-04-25T09:34:35.815Z</time></trkpt><trkpt lat="41.1119077" lon="-7.8517367"><ele>985.0</ele><time>2026-04-25T09:34:36.809Z</time></trkpt><trkpt lat="41.1119564" lon="-7.8516587"><ele>985.0</ele><time>2026-04-25T09:34:37.815Z</time></trkpt><trkpt lat="41.1120174" lon="-7.8515755"><ele>984.9999999999999</ele><time>2026-04-25T09:34:38.817Z</time></trkpt><trkpt lat="41.1120861" lon="-7.8514906"><ele>985.0</ele><time>2026-04-25T09:34:39.811Z</time></trkpt><trkpt lat="41.1121498" lon="-7.8514052"><ele>985.1666666666666</ele><time>2026-04-25T09:34:40.812Z</time></trkpt><trkpt lat="41.1122052" lon="-7.8513181"><ele>985.3333333333333</ele><time>2026-04-25T09:34:41.809Z</time></trkpt><trkpt lat="41.112252" lon="-7.8512245"><ele>985.5</ele><time>2026-04-25T09:34:42.814Z</time></trkpt><trkpt lat="41.1122827" lon="-7.8511204"><ele>985.6666666666667</ele><time>2026-04-25T09:34:43.807Z</time></trkpt><trkpt lat="41.1122913" lon="-7.8510135"><ele>985.8333333333334</ele><time>2026-04-25T09:34:44.813Z</time></trkpt><trkpt lat="41.112289" lon="-7.8509034"><ele>986.0</ele><time>2026-04-25T09:34:45.812Z</time></trkpt><trkpt lat="41.1122731" lon="-7.8506876"><ele>986.4285714285713</ele><time>2026-04-25T09:34:47.808Z</time></trkpt><trkpt lat="41.112263" lon="-7.850588"><ele>986.8571428571429</ele><time>2026-04-25T09:34:48.812Z</time></trkpt><trkpt lat="41.1122438" lon="-7.8504911"><ele>987.2857142857142</ele><time>2026-04-25T09:34:49.809Z</time></trkpt><trkpt lat="41.1122051" lon="-7.8504042"><ele>987.7142857142857</ele><time>2026-04-25T09:34:50.808Z</time></trkpt><trkpt lat="41.112155" lon="-7.8503385"><ele>988.1428571428571</ele><time>2026-04-25T09:34:51.807Z</time></trkpt><trkpt lat="41.1121057" lon="-7.8502702"><ele>988.5714285714286</ele><time>2026-04-25T09:34:52.808Z</time></trkpt><trkpt lat="41.1120559" lon="-7.8502091"><ele>989.0</ele><time>2026-04-25T09:34:53.808Z</time></trkpt><trkpt lat="41.1119982" lon="-7.8501493"><ele>987.4000000000001</ele><time>2026-04-25T09:34:54.812Z</time></trkpt><trkpt lat="41.1119487" lon="-7.8500884"><ele>985.8000000000001</ele><time>2026-04-25T09:34:55.805Z</time></trkpt><trkpt lat="41.1119159" lon="-7.8499542"><ele>984.1999999999999</ele><time>2026-04-25T09:34:57.816Z</time></trkpt><trkpt lat="41.1119775" lon="-7.8498604"><ele>982.5999999999999</ele><time>2026-04-25T09:34:59.806Z</time></trkpt><trkpt lat="41.1120756" lon="-7.8497969"><ele>981.0</ele><time>2026-04-25T09:35:01.816Z</time></trkpt><trkpt lat="41.1121766" lon="-7.8497554"><ele>981.0</ele><time>2026-04-25T09:35:03.811Z</time></trkpt><trkpt lat="41.1122525" lon="-7.8497109"><ele>981.0</ele><time>2026-04-25T09:35:05.813Z</time></trkpt><trkpt lat="41.1123231" lon="-7.849667"><ele>981.0</ele><time>2026-04-25T09:35:07.807Z</time></trkpt><trkpt lat="41.1124315" lon="-7.84955"><ele>981.0</ele><time>2026-04-25T09:35:11.81Z</time></trkpt><trkpt lat="41.1124582" lon="-7.8494664"><ele>981.0</ele><time>2026-04-25T09:35:14.807Z</time></trkpt><trkpt lat="41.1124792" lon="-7.849373"><ele>981.0</ele><time>2026-04-25T09:35:18.812Z</time></trkpt><trkpt lat="41.1125102" lon="-7.8492904"><ele>976.0</ele><time>2026-04-25T09:35:23.812Z</time></trkpt><trkpt lat="41.1125542" lon="-7.8492087"><ele>970.9999999999999</ele><time>2026-04-25T09:35:27.813Z</time></trkpt><trkpt lat="41.1126141" lon="-7.8491164"><ele>965.9999999999999</ele><time>2026-04-25T09:35:31.812Z</time></trkpt><trkpt lat="41.1127249" lon="-7.8489632"><ele>961.0</ele><time>2026-04-25T09:35:37.815Z</time></trkpt><trkpt lat="41.1127903" lon="-7.8488804"><ele>956.0</ele><time>2026-04-25T09:35:41.811Z</time></trkpt><trkpt lat="41.1128272" lon="-7.8488109"><ele>956.0</ele><time>2026-04-25T09:35:43.807Z</time></trkpt><trkpt lat="41.1128256" lon="-7.8487095"><ele>955.9999999999999</ele><time>2026-04-25T09:35:46.808Z</time></trkpt><trkpt lat="41.1128465" lon="-7.8486044"><ele>955.9999999999999</ele><time>2026-04-25T09:37:01.811Z</time></trkpt><trkpt lat="41.112801" lon="-7.8484404"><ele>956.0</ele><time>2026-04-25T09:37:07.818Z</time></trkpt><trkpt lat="41.1126999" lon="-7.848419"><ele>956.0</ele><time>2026-04-25T09:37:09.811Z</time></trkpt><trkpt lat="41.1126329" lon="-7.8484104"><ele>955.1999999999999</ele><time>2026-04-25T09:37:10.804Z</time></trkpt><trkpt lat="41.1125327" lon="-7.8483915"><ele>954.3999999999999</ele><time>2026-04-25T09:37:12.81Z</time></trkpt><trkpt lat="41.1124438" lon="-7.8483866"><ele>953.6</ele><time>2026-04-25T09:37:14.812Z</time></trkpt><trkpt lat="41.1123637" lon="-7.8483633"><ele>952.8</ele><time>2026-04-25T09:37:16.824Z</time></trkpt><trkpt lat="41.1123755" lon="-7.8482697"><ele>952.0</ele><time>2026-04-25T09:37:19.809Z</time></trkpt><trkpt lat="41.1124792" lon="-7.8482169"><ele>952.0</ele><time>2026-04-25T09:37:21.807Z</time></trkpt><trkpt lat="41.1125599" lon="-7.848206"><ele>952.0</ele><time>2026-04-25T09:37:22.82Z</time></trkpt><trkpt lat="41.1127588" lon="-7.8481718"><ele>952.0</ele><time>2026-04-25T09:37:24.81Z</time></trkpt><trkpt lat="41.1128537" lon="-7.8481576"><ele>952.0</ele><time>2026-04-25T09:37:25.808Z</time></trkpt><trkpt lat="41.1129453" lon="-7.8481511"><ele>952.0</ele><time>2026-04-25T09:37:26.814Z</time></trkpt><trkpt lat="41.1130369" lon="-7.8481359"><ele>952.0</ele><time>2026-04-25T09:37:27.814Z</time></trkpt><trkpt lat="41.1131272" lon="-7.8481199"><ele>952.0</ele><time>2026-04-25T09:37:28.805Z</time></trkpt><trkpt lat="41.1132185" lon="-7.8481079"><ele>952.0</ele><time>2026-04-25T09:37:29.807Z</time></trkpt><trkpt lat="41.1133094" lon="-7.8481038"><ele>952.0</ele><time>2026-04-25T09:37:30.817Z</time></trkpt><trkpt lat="41.1133978" lon="-7.8481004"><ele>952.6666666666666</ele><time>2026-04-25T09:37:31.807Z</time></trkpt><trkpt lat="41.1134869" lon="-7.8480991"><ele>953.3333333333333</ele><time>2026-04-25T09:37:32.809Z</time></trkpt><trkpt lat="41.1135759" lon="-7.8480951"><ele>954.0</ele><time>2026-04-25T09:37:33.803Z</time></trkpt><trkpt lat="41.1136639" lon="-7.8480965"><ele>954.6666666666667</ele><time>2026-04-25T09:37:34.814Z</time></trkpt><trkpt lat="41.1137545" lon="-7.8480905"><ele>955.3333333333334</ele><time>2026-04-25T09:37:35.811Z</time></trkpt><trkpt lat="41.1138458" lon="-7.848086"><ele>956.0</ele><time>2026-04-25T09:37:36.809Z</time></trkpt><trkpt lat="41.1139372" lon="-7.8480781"><ele>956.0</ele><time>2026-04-25T09:37:37.808Z</time></trkpt><trkpt lat="41.1140261" lon="-7.8480653"><ele>955.9999999999999</ele><time>2026-04-25T09:37:38.818Z</time></trkpt><trkpt lat="41.1141184" lon="-7.8480437"><ele>955.9999999999999</ele><time>2026-04-25T09:37:39.812Z</time></trkpt><trkpt lat="41.1142118" lon="-7.8480046"><ele>956.0</ele><time>2026-04-25T09:37:40.811Z</time></trkpt><trkpt lat="41.1143036" lon="-7.8479553"><ele>956.0</ele><time>2026-04-25T09:37:41.81Z</time></trkpt><trkpt lat="41.1143892" lon="-7.8478991"><ele>956.75</ele><time>2026-04-25T09:37:42.807Z</time></trkpt><trkpt lat="41.1144744" lon="-7.8478217"><ele>957.5</ele><time>2026-04-25T09:37:43.811Z</time></trkpt><trkpt lat="41.1146255" lon="-7.8476427"><ele>958.25</ele><time>2026-04-25T09:37:45.809Z</time></trkpt><trkpt lat="41.114696" lon="-7.8475427"><ele>959.0</ele><time>2026-04-25T09:37:46.814Z</time></trkpt><trkpt lat="41.1147601" lon="-7.8474383"><ele>961.0</ele><time>2026-04-25T09:37:47.806Z</time></trkpt><trkpt lat="41.1148206" lon="-7.8473182"><ele>963.0</ele><time>2026-04-25T09:37:48.806Z</time></trkpt><trkpt lat="41.1148804" lon="-7.8471854"><ele>965.0</ele><time>2026-04-25T09:37:49.812Z</time></trkpt><trkpt lat="41.1149393" lon="-7.8470419"><ele>967.0</ele><time>2026-04-25T09:37:50.807Z</time></trkpt><trkpt lat="41.1149885" lon="-7.8468976"><ele>968.3333333333333</ele><time>2026-04-25T09:37:51.813Z</time></trkpt><trkpt lat="41.1150369" lon="-7.8467339"><ele>969.6666666666667</ele><time>2026-04-25T09:37:52.817Z</time></trkpt><trkpt lat="41.1150868" lon="-7.8465392"><ele>971.0</ele><time>2026-04-25T09:37:53.81Z</time></trkpt><trkpt lat="41.115128" lon="-7.8462615"><ele>971.0</ele><time>2026-04-25T09:37:54.807Z</time></trkpt><trkpt lat="41.1151735" lon="-7.8460142"><ele>971.0</ele><time>2026-04-25T09:37:55.812Z</time></trkpt><trkpt lat="41.1152251" lon="-7.8458179"><ele>971.0</ele><time>2026-04-25T09:37:56.807Z</time></trkpt><trkpt lat="41.1152752" lon="-7.8456547"><ele>971.5000000000001</ele><time>2026-04-25T09:37:57.812Z</time></trkpt><trkpt lat="41.1153107" lon="-7.8455306"><ele>972.0</ele><time>2026-04-25T09:37:58.805Z</time></trkpt><trkpt lat="41.1153217" lon="-7.845409"><ele>972.5</ele><time>2026-04-25T09:37:59.804Z</time></trkpt><trkpt lat="41.1153097" lon="-7.8453144"><ele>973.0</ele><time>2026-04-25T09:38:00.809Z</time></trkpt><trkpt lat="41.1152823" lon="-7.8452147"><ele>973.5000000000001</ele><time>2026-04-25T09:38:01.809Z</time></trkpt><trkpt lat="41.1152537" lon="-7.8451158"><ele>974.0</ele><time>2026-04-25T09:38:02.808Z</time></trkpt><trkpt lat="41.1152227" lon="-7.8450182"><ele>975.0</ele><time>2026-04-25T09:38:03.811Z</time></trkpt><trkpt lat="41.1151845" lon="-7.8449061"><ele>976.0</ele><time>2026-04-25T09:38:04.807Z</time></trkpt><trkpt lat="41.1150998" lon="-7.8446627"><ele>977.0</ele><time>2026-04-25T09:38:06.805Z</time></trkpt><trkpt lat="41.1150489" lon="-7.8445456"><ele>978.0</ele><time>2026-04-25T09:38:07.809Z</time></trkpt><trkpt lat="41.1149924" lon="-7.8444445"><ele>978.0</ele><time>2026-04-25T09:38:08.82Z</time></trkpt><trkpt lat="41.1149343" lon="-7.8443632"><ele>978.0</ele><time>2026-04-25T09:38:09.806Z</time></trkpt><trkpt lat="41.1148774" lon="-7.8443091"><ele>978.0</ele><time>2026-04-25T09:38:10.813Z</time></trkpt><trkpt lat="41.1148174" lon="-7.8442725"><ele>978.0</ele><time>2026-04-25T09:38:11.814Z</time></trkpt><trkpt lat="41.1147022" lon="-7.8442602"><ele>978.0</ele><time>2026-04-25T09:38:13.808Z</time></trkpt><trkpt lat="41.114576" lon="-7.8442796"><ele>979.5999999999999</ele><time>2026-04-25T09:38:15.814Z</time></trkpt><trkpt lat="41.1144988" lon="-7.8442963"><ele>981.1999999999999</ele><time>2026-04-25T09:38:16.824Z</time></trkpt><trkpt lat="41.1144094" lon="-7.8443232"><ele>982.8</ele><time>2026-04-25T09:38:17.817Z</time></trkpt><trkpt lat="41.1143139" lon="-7.8443516"><ele>984.4</ele><time>2026-04-25T09:38:18.808Z</time></trkpt><trkpt lat="41.1142187" lon="-7.8443699"><ele>986.0</ele><time>2026-04-25T09:38:19.806Z</time></trkpt><trkpt lat="41.1141068" lon="-7.8443958"><ele>986.5999999999999</ele><time>2026-04-25T09:38:20.809Z</time></trkpt><trkpt lat="41.1139852" lon="-7.8444218"><ele>987.1999999999999</ele><time>2026-04-25T09:38:21.805Z</time></trkpt><trkpt lat="41.113889" lon="-7.8444445"><ele>987.8000000000001</ele><time>2026-04-25T09:38:22.805Z</time></trkpt><trkpt lat="41.113822" lon="-7.8444542"><ele>988.4000000000001</ele><time>2026-04-25T09:38:23.81Z</time></trkpt><trkpt lat="41.1137345" lon="-7.8444314"><ele>989.0</ele><time>2026-04-25T09:38:25.807Z</time></trkpt><trkpt lat="41.1137164" lon="-7.8442396"><ele>989.0</ele><time>2026-04-25T09:38:29.813Z</time></trkpt><trkpt lat="41.1137561" lon="-7.8441393"><ele>989.0000000000001</ele><time>2026-04-25T09:38:31.815Z</time></trkpt><trkpt lat="41.1138039" lon="-7.8440159"><ele>989.0000000000001</ele><time>2026-04-25T09:38:33.804Z</time></trkpt><trkpt lat="41.1138513" lon="-7.8438707"><ele>989.0</ele><time>2026-04-25T09:38:35.802Z</time></trkpt><trkpt lat="41.1138951" lon="-7.8437293"><ele>989.0</ele><time>2026-04-25T09:38:37.81Z</time></trkpt><trkpt lat="41.1139497" lon="-7.8436038"><ele>989.0</ele><time>2026-04-25T09:38:39.804Z</time></trkpt><trkpt lat="41.1140341" lon="-7.8435667"><ele>989.0000000000001</ele><time>2026-04-25T09:38:41.808Z</time></trkpt><trkpt lat="41.114071" lon="-7.843642"><ele>989.0000000000001</ele><time>2026-04-25T09:50:53.802Z</time></trkpt><trkpt lat="41.1140874" lon="-7.8438324"><ele>989.0</ele><time>2026-04-25T09:51:00.806Z</time></trkpt><trkpt lat="41.1140262" lon="-7.8439002"><ele>989.0</ele><time>2026-04-25T09:51:03.807Z</time></trkpt><trkpt lat="41.1140291" lon="-7.8438079"><ele>989.0</ele><time>2026-04-25T09:51:15.807Z</time></trkpt><trkpt lat="41.1138931" lon="-7.8439036"><ele>989.0000000000001</ele><time>2026-04-25T09:51:23.799Z</time></trkpt><trkpt lat="41.113836" lon="-7.8439551"><ele>989.0000000000001</ele><time>2026-04-25T09:51:26.802Z</time></trkpt><trkpt lat="41.1138544" lon="-7.8438546"><ele>989.0</ele><time>2026-04-25T09:51:32.803Z</time></trkpt><trkpt lat="41.113902" lon="-7.8437937"><ele>989.0</ele><time>2026-04-25T09:51:36.802Z</time></trkpt><trkpt lat="41.1140432" lon="-7.8438034"><ele>989.0</ele><time>2026-04-25T09:51:44.803Z</time></trkpt><trkpt lat="41.1141063" lon="-7.843845"><ele>989.0000000000001</ele><time>2026-04-25T09:51:50.797Z</time></trkpt><trkpt lat="41.1140486" lon="-7.8439223"><ele>989.0000000000001</ele><time>2026-04-25T09:51:54.802Z</time></trkpt><trkpt lat="41.1139878" lon="-7.8438946"><ele>989.0</ele><time>2026-04-25T09:51:58.804Z</time></trkpt><trkpt lat="41.1138086" lon="-7.8440459"><ele>989.0</ele><time>2026-04-25T09:52:35.802Z</time></trkpt><trkpt lat="41.1137894" lon="-7.8441856"><ele>989.4000000000001</ele><time>2026-04-25T09:52:36.806Z</time></trkpt><trkpt lat="41.1137695" lon="-7.8443173"><ele>989.8000000000001</ele><time>2026-04-25T09:52:37.802Z</time></trkpt><trkpt lat="41.1137777" lon="-7.8444331"><ele>990.1999999999999</ele><time>2026-04-25T09:52:39.803Z</time></trkpt><trkpt lat="41.1138643" lon="-7.8444665"><ele>990.5999999999999</ele><time>2026-04-25T09:52:41.799Z</time></trkpt><trkpt lat="41.1139756" lon="-7.8444895"><ele>991.0</ele><time>2026-04-25T09:52:43.813Z</time></trkpt><trkpt lat="41.1140783" lon="-7.8444888"><ele>991.0</ele><time>2026-04-25T09:52:44.805Z</time></trkpt><trkpt lat="41.1142128" lon="-7.8444769"><ele>991.0</ele><time>2026-04-25T09:52:45.797Z</time></trkpt><trkpt lat="41.1143373" lon="-7.8444576"><ele>991.0</ele><time>2026-04-25T09:52:46.799Z</time></trkpt><trkpt lat="41.1144437" lon="-7.8444339"><ele>991.0</ele><time>2026-04-25T09:52:47.806Z</time></trkpt><trkpt lat="41.1145449" lon="-7.8444087"><ele>991.0</ele><time>2026-04-25T09:52:48.803Z</time></trkpt><trkpt lat="41.1146361" lon="-7.8443788"><ele>990.9999999999999</ele><time>2026-04-25T09:52:49.802Z</time></trkpt><trkpt lat="41.114791" lon="-7.844337"><ele>990.9999999999999</ele><time>2026-04-25T09:52:51.8Z</time></trkpt><trkpt lat="41.1148572" lon="-7.8443402"><ele>991.0</ele><time>2026-04-25T09:52:52.802Z</time></trkpt><trkpt lat="41.1149738" lon="-7.8443873"><ele>991.0</ele><time>2026-04-25T09:52:54.803Z</time></trkpt><trkpt lat="41.1150613" lon="-7.8444951"><ele>988.4</ele><time>2026-04-25T09:52:56.805Z</time></trkpt><trkpt lat="41.1150997" lon="-7.8445667"><ele>985.8</ele><time>2026-04-25T09:52:57.805Z</time></trkpt><trkpt lat="41.115154" lon="-7.8447067"><ele>983.1999999999999</ele><time>2026-04-25T09:52:59.796Z</time></trkpt><trkpt lat="41.1152" lon="-7.8448711"><ele>980.5999999999999</ele><time>2026-04-25T09:53:01.8Z</time></trkpt><trkpt lat="41.1152224" lon="-7.8449538"><ele>978.0</ele><time>2026-04-25T09:53:02.8Z</time></trkpt><trkpt lat="41.115248" lon="-7.8450398"><ele>978.0</ele><time>2026-04-25T09:53:03.799Z</time></trkpt><trkpt lat="41.1152755" lon="-7.8451192"><ele>978.0</ele><time>2026-04-25T09:53:04.803Z</time></trkpt><trkpt lat="41.1153027" lon="-7.8451964"><ele>978.0</ele><time>2026-04-25T09:53:05.805Z</time></trkpt><trkpt lat="41.1153424" lon="-7.8453338"><ele>978.0</ele><time>2026-04-25T09:53:07.804Z</time></trkpt><trkpt lat="41.1153764" lon="-7.8454585"><ele>978.0</ele><time>2026-04-25T09:53:09.808Z</time></trkpt><trkpt lat="41.1154363" lon="-7.8455639"><ele>978.0</ele><time>2026-04-25T09:53:11.812Z</time></trkpt><trkpt lat="41.1156413" lon="-7.8455887"><ele>977.4285714285714</ele><time>2026-04-25T09:53:15.799Z</time></trkpt><trkpt lat="41.1157025" lon="-7.8455633"><ele>976.8571428571429</ele><time>2026-04-25T09:53:16.799Z</time></trkpt><trkpt lat="41.1157613" lon="-7.8455289"><ele>976.2857142857143</ele><time>2026-04-25T09:53:17.809Z</time></trkpt><trkpt lat="41.1158296" lon="-7.845496"><ele>975.7142857142858</ele><time>2026-04-25T09:53:18.801Z</time></trkpt><trkpt lat="41.1158941" lon="-7.8454374"><ele>975.1428571428571</ele><time>2026-04-25T09:53:19.802Z</time></trkpt><trkpt lat="41.1159589" lon="-7.8453745"><ele>974.5714285714287</ele><time>2026-04-25T09:53:20.805Z</time></trkpt><trkpt lat="41.1160297" lon="-7.8453049"><ele>974.0</ele><time>2026-04-25T09:53:21.807Z</time></trkpt><trkpt lat="41.1161085" lon="-7.8452335"><ele>972.1666666666667</ele><time>2026-04-25T09:53:22.802Z</time></trkpt><trkpt lat="41.1161925" lon="-7.8451687"><ele>970.3333333333334</ele><time>2026-04-25T09:53:23.809Z</time></trkpt><trkpt lat="41.1162767" lon="-7.8451073"><ele>968.5</ele><time>2026-04-25T09:53:24.801Z</time></trkpt><trkpt lat="41.116356" lon="-7.8450574"><ele>966.6666666666667</ele><time>2026-04-25T09:53:25.808Z</time></trkpt><trkpt lat="41.1164315" lon="-7.8450252"><ele>964.8333333333334</ele><time>2026-04-25T09:53:26.81Z</time></trkpt><trkpt lat="41.1165045" lon="-7.845017"><ele>963.0</ele><time>2026-04-25T09:53:27.811Z</time></trkpt><trkpt lat="41.1165738" lon="-7.8450277"><ele>960.0</ele><time>2026-04-25T09:53:28.802Z</time></trkpt><trkpt lat="41.1166462" lon="-7.8450601"><ele>957.0</ele><time>2026-04-25T09:53:29.797Z</time></trkpt><trkpt lat="41.1167146" lon="-7.8451082"><ele>954.0</ele><time>2026-04-25T09:53:30.799Z</time></trkpt><trkpt lat="41.1167779" lon="-7.8451705"><ele>951.0</ele><time>2026-04-25T09:53:31.8Z</time></trkpt><trkpt lat="41.1168379" lon="-7.8452405"><ele>948.0</ele><time>2026-04-25T09:53:32.798Z</time></trkpt><trkpt lat="41.1169415" lon="-7.8453938"><ele>947.1666666666666</ele><time>2026-04-25T09:53:34.806Z</time></trkpt><trkpt lat="41.1169884" lon="-7.8454703"><ele>946.3333333333333</ele><time>2026-04-25T09:53:35.802Z</time></trkpt><trkpt lat="41.117035" lon="-7.8455524"><ele>945.5</ele><time>2026-04-25T09:53:36.8Z</time></trkpt><trkpt lat="41.1170885" lon="-7.8456357"><ele>944.6666666666666</ele><time>2026-04-25T09:53:37.802Z</time></trkpt><trkpt lat="41.1171442" lon="-7.8457242"><ele>943.8333333333333</ele><time>2026-04-25T09:53:38.8Z</time></trkpt><trkpt lat="41.1172073" lon="-7.845811"><ele>943.0</ele><time>2026-04-25T09:53:39.804Z</time></trkpt><trkpt lat="41.1172716" lon="-7.8458987"><ele>942.2</ele><time>2026-04-25T09:53:40.805Z</time></trkpt><trkpt lat="41.1173319" lon="-7.8459898"><ele>941.4</ele><time>2026-04-25T09:53:41.8Z</time></trkpt><trkpt lat="41.1173942" lon="-7.8460797"><ele>940.6000000000001</ele><time>2026-04-25T09:53:42.8Z</time></trkpt><trkpt lat="41.1174641" lon="-7.8461675"><ele>939.8000000000001</ele><time>2026-04-25T09:53:43.802Z</time></trkpt><trkpt lat="41.1175421" lon="-7.8462554"><ele>939.0</ele><time>2026-04-25T09:53:44.802Z</time></trkpt><trkpt lat="41.1176333" lon="-7.8463447"><ele>936.6</ele><time>2026-04-25T09:53:45.802Z</time></trkpt><trkpt lat="41.1177284" lon="-7.8464382"><ele>934.2</ele><time>2026-04-25T09:53:46.8Z</time></trkpt><trkpt lat="41.117817" lon="-7.8465181"><ele>931.8000000000001</ele><time>2026-04-25T09:53:47.802Z</time></trkpt><trkpt lat="41.1179133" lon="-7.8465908"><ele>929.4000000000001</ele><time>2026-04-25T09:53:48.806Z</time></trkpt><trkpt lat="41.1180126" lon="-7.8466591"><ele>927.0</ele><time>2026-04-25T09:53:49.801Z</time></trkpt><trkpt lat="41.1181079" lon="-7.8467266"><ele>924.75</ele><time>2026-04-25T09:53:50.805Z</time></trkpt><trkpt lat="41.1182006" lon="-7.8467957"><ele>922.5</ele><time>2026-04-25T09:53:51.802Z</time></trkpt><trkpt lat="41.1182947" lon="-7.8468733"><ele>920.25</ele><time>2026-04-25T09:53:52.804Z</time></trkpt><trkpt lat="41.1183821" lon="-7.846949"><ele>918.0</ele><time>2026-04-25T09:53:53.803Z</time></trkpt><trkpt lat="41.1185464" lon="-7.8470927"><ele>916.8</ele><time>2026-04-25T09:53:55.8Z</time></trkpt><trkpt lat="41.1186351" lon="-7.8471535"><ele>915.5999999999999</ele><time>2026-04-25T09:53:56.807Z</time></trkpt><trkpt lat="41.1187201" lon="-7.8472184"><ele>914.4000000000001</ele><time>2026-04-25T09:53:57.8Z</time></trkpt><trkpt lat="41.1187988" lon="-7.8472821"><ele>913.2</ele><time>2026-04-25T09:53:58.801Z</time></trkpt><trkpt lat="41.118881" lon="-7.8473417"><ele>912.0</ele><time>2026-04-25T09:53:59.798Z</time></trkpt><trkpt lat="41.1189575" lon="-7.8474068"><ele>912.0</ele><time>2026-04-25T09:54:00.803Z</time></trkpt><trkpt lat="41.1190304" lon="-7.847466"><ele>912.0</ele><time>2026-04-25T09:54:01.796Z</time></trkpt><trkpt lat="41.1191011" lon="-7.8475194"><ele>912.0</ele><time>2026-04-25T09:54:02.805Z</time></trkpt><trkpt lat="41.1191752" lon="-7.8475735"><ele>912.0</ele><time>2026-04-25T09:54:03.803Z</time></trkpt><trkpt lat="41.1192587" lon="-7.8476269"><ele>912.0</ele><time>2026-04-25T09:54:04.798Z</time></trkpt><trkpt lat="41.1193489" lon="-7.8476847"><ele>912.0</ele><time>2026-04-25T09:54:05.801Z</time></trkpt><trkpt lat="41.1194447" lon="-7.8477414"><ele>910.6</ele><time>2026-04-25T09:54:06.808Z</time></trkpt><trkpt lat="41.1195355" lon="-7.8477942"><ele>909.2</ele><time>2026-04-25T09:54:07.804Z</time></trkpt><trkpt lat="41.1196321" lon="-7.8478506"><ele>907.8</ele><time>2026-04-25T09:54:08.802Z</time></trkpt><trkpt lat="41.1197272" lon="-7.8479124"><ele>906.4</ele><time>2026-04-25T09:54:09.81Z</time></trkpt><trkpt lat="41.1198177" lon="-7.8479802"><ele>905.0</ele><time>2026-04-25T09:54:10.801Z</time></trkpt><trkpt lat="41.1199069" lon="-7.8480442"><ele>905.0</ele><time>2026-04-25T09:54:11.8Z</time></trkpt><trkpt lat="41.1200003" lon="-7.8480985"><ele>905.0</ele><time>2026-04-25T09:54:12.805Z</time></trkpt><trkpt lat="41.1200935" lon="-7.8481504"><ele>905.0</ele><time>2026-04-25T09:54:13.802Z</time></trkpt><trkpt lat="41.1201829" lon="-7.8481971"><ele>905.0</ele><time>2026-04-25T09:54:14.804Z</time></trkpt><trkpt lat="41.1203636" lon="-7.8483005"><ele>905.0</ele><time>2026-04-25T09:54:16.799Z</time></trkpt><trkpt lat="41.1204746" lon="-7.848365"><ele>905.0</ele><time>2026-04-25T09:54:17.8Z</time></trkpt><trkpt lat="41.1205946" lon="-7.8484457"><ele>905.0</ele><time>2026-04-25T09:54:18.803Z</time></trkpt><trkpt lat="41.1207158" lon="-7.8485295"><ele>905.0</ele><time>2026-04-25T09:54:19.806Z</time></trkpt><trkpt lat="41.1208394" lon="-7.8486056"><ele>902.5</ele><time>2026-04-25T09:54:20.803Z</time></trkpt><trkpt lat="41.1209552" lon="-7.8486769"><ele>900.0</ele><time>2026-04-25T09:54:21.811Z</time></trkpt><trkpt lat="41.1210671" lon="-7.8487426"><ele>897.5</ele><time>2026-04-25T09:54:22.814Z</time></trkpt><trkpt lat="41.1211694" lon="-7.8487976"><ele>895.0</ele><time>2026-04-25T09:54:23.799Z</time></trkpt><trkpt lat="41.1212642" lon="-7.8488437"><ele>895.0</ele><time>2026-04-25T09:54:24.799Z</time></trkpt><trkpt lat="41.1213561" lon="-7.848879"><ele>895.0</ele><time>2026-04-25T09:54:25.802Z</time></trkpt><trkpt lat="41.1214509" lon="-7.8488887"><ele>895.0</ele><time>2026-04-25T09:54:26.801Z</time></trkpt><trkpt lat="41.1215491" lon="-7.8488809"><ele>895.0</ele><time>2026-04-25T09:54:27.8Z</time></trkpt><trkpt lat="41.121642" lon="-7.8488642"><ele>895.0</ele><time>2026-04-25T09:54:28.801Z</time></trkpt><trkpt lat="41.121729" lon="-7.8488432"><ele>894.4</ele><time>2026-04-25T09:54:29.804Z</time></trkpt><trkpt lat="41.1218107" lon="-7.8488205"><ele>893.8</ele><time>2026-04-25T09:54:30.807Z</time></trkpt><trkpt lat="41.1218892" lon="-7.8487976"><ele>893.2</ele><time>2026-04-25T09:54:31.799Z</time></trkpt><trkpt lat="41.1219792" lon="-7.8487754"><ele>892.6</ele><time>2026-04-25T09:54:33.8Z</time></trkpt><trkpt lat="41.1220572" lon="-7.8487475"><ele>892.0</ele><time>2026-04-25T09:54:36.81Z</time></trkpt><trkpt lat="41.1221849" lon="-7.8486742"><ele>892.0</ele><time>2026-04-25T09:54:46.801Z</time></trkpt><trkpt lat="41.1222616" lon="-7.8486195"><ele>892.0</ele><time>2026-04-25T09:54:50.809Z</time></trkpt><trkpt lat="41.1223374" lon="-7.8485515"><ele>892.0</ele><time>2026-04-25T09:54:52.8Z</time></trkpt><trkpt lat="41.1224316" lon="-7.8484464"><ele>892.0</ele><time>2026-04-25T09:54:54.797Z</time></trkpt><trkpt lat="41.1225207" lon="-7.8483485"><ele>892.0</ele><time>2026-04-25T09:54:56.801Z</time></trkpt><trkpt lat="41.1225979" lon="-7.8483196"><ele>889.6</ele><time>2026-04-25T09:54:58.807Z</time></trkpt><trkpt lat="41.1227438" lon="-7.8483994"><ele>887.2</ele><time>2026-04-25T09:55:02.799Z</time></trkpt><trkpt lat="41.1227779" lon="-7.8485084"><ele>884.8</ele><time>2026-04-25T09:55:04.796Z</time></trkpt><trkpt lat="41.1228034" lon="-7.8486185"><ele>882.4</ele><time>2026-04-25T09:55:06.81Z</time></trkpt><trkpt lat="41.1228355" lon="-7.8487197"><ele>880.0</ele><time>2026-04-25T09:55:08.804Z</time></trkpt><trkpt lat="41.1228817" lon="-7.8488615"><ele>879.9999999999999</ele><time>2026-04-25T09:55:10.804Z</time></trkpt><trkpt lat="41.1229084" lon="-7.8489515"><ele>880.0</ele><time>2026-04-25T09:55:11.798Z</time></trkpt><trkpt lat="41.1229411" lon="-7.8490411"><ele>880.0</ele><time>2026-04-25T09:55:12.798Z</time></trkpt><trkpt lat="41.1229777" lon="-7.8491161"><ele>880.0</ele><time>2026-04-25T09:55:13.8Z</time></trkpt><trkpt lat="41.1230188" lon="-7.8491906"><ele>879.9999999999999</ele><time>2026-04-25T09:55:14.802Z</time></trkpt><trkpt lat="41.1230944" lon="-7.8493279"><ele>880.0</ele><time>2026-04-25T09:55:16.801Z</time></trkpt><trkpt lat="41.1231386" lon="-7.849398"><ele>878.6</ele><time>2026-04-25T09:55:17.8Z</time></trkpt><trkpt lat="41.1231895" lon="-7.8494679"><ele>877.2</ele><time>2026-04-25T09:55:18.805Z</time></trkpt><trkpt lat="41.1232453" lon="-7.8495387"><ele>875.8</ele><time>2026-04-25T09:55:19.807Z</time></trkpt><trkpt lat="41.1233417" lon="-7.8496781"><ele>874.4</ele><time>2026-04-25T09:55:21.808Z</time></trkpt><trkpt lat="41.1233825" lon="-7.8497461"><ele>873.0</ele><time>2026-04-25T09:55:22.801Z</time></trkpt><trkpt lat="41.1234304" lon="-7.8498883"><ele>869.8</ele><time>2026-04-25T09:55:24.809Z</time></trkpt><trkpt lat="41.1234511" lon="-7.8500454"><ele>866.5999999999999</ele><time>2026-04-25T09:55:26.804Z</time></trkpt><trkpt lat="41.1234833" lon="-7.8501826"><ele>863.4000000000001</ele><time>2026-04-25T09:55:28.803Z</time></trkpt><trkpt lat="41.1235376" lon="-7.8502967"><ele>860.2</ele><time>2026-04-25T09:55:30.804Z</time></trkpt><trkpt lat="41.1235914" lon="-7.8504042"><ele>857.0</ele><time>2026-04-25T09:55:32.807Z</time></trkpt><trkpt lat="41.1236608" lon="-7.8505138"><ele>856.5000000000001</ele><time>2026-04-25T09:55:34.805Z</time></trkpt><trkpt lat="41.1237585" lon="-7.8506237"><ele>856.0</ele><time>2026-04-25T09:55:36.8Z</time></trkpt><trkpt lat="41.1238105" lon="-7.8506833"><ele>855.5</ele><time>2026-04-25T09:55:37.799Z</time></trkpt><trkpt lat="41.1238619" lon="-7.8507474"><ele>855.0</ele><time>2026-04-25T09:55:38.801Z</time></trkpt><trkpt lat="41.1239121" lon="-7.8508113"><ele>854.5000000000001</ele><time>2026-04-25T09:55:39.802Z</time></trkpt><trkpt lat="41.1239651" lon="-7.8508712"><ele>854.0</ele><time>2026-04-25T09:55:40.804Z</time></trkpt><trkpt lat="41.1240683" lon="-7.850996"><ele>851.2857142857143</ele><time>2026-04-25T09:55:42.801Z</time></trkpt><trkpt lat="41.1241211" lon="-7.8510672"><ele>848.5714285714286</ele><time>2026-04-25T09:55:43.8Z</time></trkpt><trkpt lat="41.1241755" lon="-7.8511286"><ele>845.8571428571429</ele><time>2026-04-25T09:55:44.812Z</time></trkpt><trkpt lat="41.1242299" lon="-7.8511772"><ele>843.1428571428571</ele><time>2026-04-25T09:55:45.806Z</time></trkpt><trkpt lat="41.1242913" lon="-7.8512169"><ele>840.4285714285714</ele><time>2026-04-25T09:55:46.801Z</time></trkpt><trkpt lat="41.1243556" lon="-7.8512598"><ele>837.7142857142858</ele><time>2026-04-25T09:55:47.8Z</time></trkpt><trkpt lat="41.1244166" lon="-7.8513059"><ele>835.0</ele><time>2026-04-25T09:55:48.801Z</time></trkpt><trkpt lat="41.1244737" lon="-7.8513548"><ele>835.0000000000001</ele><time>2026-04-25T09:55:49.802Z</time></trkpt><trkpt lat="41.124533" lon="-7.8514039"><ele>835.0</ele><time>2026-04-25T09:55:50.801Z</time></trkpt><trkpt lat="41.1245896" lon="-7.8514606"><ele>835.0</ele><time>2026-04-25T09:55:51.802Z</time></trkpt><trkpt lat="41.1246489" lon="-7.8515226"><ele>835.0</ele><time>2026-04-25T09:55:52.805Z</time></trkpt><trkpt lat="41.1247062" lon="-7.8515854"><ele>835.0</ele><time>2026-04-25T09:55:53.804Z</time></trkpt><trkpt lat="41.124764" lon="-7.8516503"><ele>835.0000000000001</ele><time>2026-04-25T09:55:54.808Z</time></trkpt><trkpt lat="41.1248206" lon="-7.8517076"><ele>835.0</ele><time>2026-04-25T09:55:55.801Z</time></trkpt><trkpt lat="41.1248776" lon="-7.8517607"><ele>832.1666666666666</ele><time>2026-04-25T09:55:56.802Z</time></trkpt><trkpt lat="41.1249375" lon="-7.8518031"><ele>829.3333333333333</ele><time>2026-04-25T09:55:57.8Z</time></trkpt><trkpt lat="41.125002" lon="-7.8518409"><ele>826.5</ele><time>2026-04-25T09:55:58.804Z</time></trkpt><trkpt lat="41.1250682" lon="-7.8518718"><ele>823.6666666666667</ele><time>2026-04-25T09:55:59.799Z</time></trkpt><trkpt lat="41.125132" lon="-7.8518931"><ele>820.8333333333334</ele><time>2026-04-25T09:56:00.806Z</time></trkpt><trkpt lat="41.1252487" lon="-7.851913"><ele>818.0</ele><time>2026-04-25T09:56:02.799Z</time></trkpt><trkpt lat="41.1254569" lon="-7.8519576"><ele>818.0</ele><time>2026-04-25T09:56:06.817Z</time></trkpt><trkpt lat="41.1255571" lon="-7.8519792"><ele>818.0</ele><time>2026-04-25T09:56:08.8Z</time></trkpt><trkpt lat="41.1256607" lon="-7.851993"><ele>818.0</ele><time>2026-04-25T09:56:10.809Z</time></trkpt><trkpt lat="41.1257666" lon="-7.8519838"><ele>818.0</ele><time>2026-04-25T09:56:12.799Z</time></trkpt><trkpt lat="41.1258702" lon="-7.8519677"><ele>818.0</ele><time>2026-04-25T09:56:14.807Z</time></trkpt><trkpt lat="41.1259749" lon="-7.8519907"><ele>813.8</ele><time>2026-04-25T09:56:16.8Z</time></trkpt><trkpt lat="41.1260695" lon="-7.8520738"><ele>809.5999999999999</ele><time>2026-04-25T09:56:18.797Z</time></trkpt><trkpt lat="41.1261415" lon="-7.8522068"><ele>805.4000000000001</ele><time>2026-04-25T09:56:20.804Z</time></trkpt><trkpt lat="41.1261762" lon="-7.852278"><ele>801.2</ele><time>2026-04-25T09:56:21.797Z</time></trkpt><trkpt lat="41.1262403" lon="-7.8524042"><ele>797.0</ele><time>2026-04-25T09:56:23.805Z</time></trkpt><trkpt lat="41.1263306" lon="-7.8526217"><ele>797.0</ele><time>2026-04-25T09:56:27.808Z</time></trkpt><trkpt lat="41.1263798" lon="-7.8526852"><ele>797.0</ele><time>2026-04-25T09:56:29.804Z</time></trkpt><trkpt lat="41.1264293" lon="-7.8527376"><ele>797.0</ele><time>2026-04-25T09:56:31.802Z</time></trkpt><trkpt lat="41.1264891" lon="-7.8527728"><ele>797.0</ele><time>2026-04-25T09:56:33.8Z</time></trkpt><trkpt lat="41.1265452" lon="-7.8527252"><ele>797.0</ele><time>2026-04-25T09:56:37.801Z</time></trkpt><trkpt lat="41.126549" lon="-7.8526175"><ele>797.0</ele><time>2026-04-25T09:56:40.8Z</time></trkpt><trkpt lat="41.1265387" lon="-7.8525328"><ele>797.0</ele><time>2026-04-25T09:56:42.805Z</time></trkpt><trkpt lat="41.1265118" lon="-7.8523878"><ele>797.0</ele><time>2026-04-25T09:56:44.805Z</time></trkpt><trkpt lat="41.1264214" lon="-7.8520855"><ele>797.0</ele><time>2026-04-25T09:56:48.8Z</time></trkpt><trkpt lat="41.1263882" lon="-7.8519213"><ele>797.0</ele><time>2026-04-25T09:56:50.8Z</time></trkpt><trkpt lat="41.126369" lon="-7.8518323"><ele>797.0</ele><time>2026-04-25T09:56:51.805Z</time></trkpt><trkpt lat="41.126347" lon="-7.8517408"><ele>795.5714285714286</ele><time>2026-04-25T09:56:52.804Z</time></trkpt><trkpt lat="41.1263248" lon="-7.8516484"><ele>794.1428571428572</ele><time>2026-04-25T09:56:53.802Z</time></trkpt><trkpt lat="41.126307" lon="-7.8515575"><ele>792.7142857142858</ele><time>2026-04-25T09:56:54.8Z</time></trkpt><trkpt lat="41.1262883" lon="-7.8514647"><ele>791.2857142857142</ele><time>2026-04-25T09:56:55.815Z</time></trkpt><trkpt lat="41.1262617" lon="-7.8513794"><ele>789.8571428571429</ele><time>2026-04-25T09:56:56.8Z</time></trkpt><trkpt lat="41.1262215" lon="-7.8513022"><ele>788.4285714285714</ele><time>2026-04-25T09:56:57.803Z</time></trkpt><trkpt lat="41.1261742" lon="-7.8512357"><ele>787.0</ele><time>2026-04-25T09:56:58.799Z</time></trkpt><trkpt lat="41.1261153" lon="-7.8511708"><ele>786.9999999999999</ele><time>2026-04-25T09:56:59.804Z</time></trkpt><trkpt lat="41.1260552" lon="-7.8511025"><ele>787.0</ele><time>2026-04-25T09:57:00.801Z</time></trkpt><trkpt lat="41.1259869" lon="-7.8510416"><ele>787.0</ele><time>2026-04-25T09:57:01.802Z</time></trkpt><trkpt lat="41.1259187" lon="-7.8509922"><ele>787.0</ele><time>2026-04-25T09:57:02.805Z</time></trkpt><trkpt lat="41.125863" lon="-7.8509422"><ele>786.9999999999999</ele><time>2026-04-25T09:57:03.804Z</time></trkpt><trkpt lat="41.1257864" lon="-7.8508367"><ele>787.0</ele><time>2026-04-25T09:57:05.803Z</time></trkpt><trkpt lat="41.1258855" lon="-7.8506483"><ele>784.8333333333333</ele><time>2026-04-25T09:57:09.798Z</time></trkpt><trkpt lat="41.1259453" lon="-7.8505914"><ele>782.6666666666666</ele><time>2026-04-25T09:57:10.805Z</time></trkpt><trkpt lat="41.1260107" lon="-7.8505365"><ele>780.5</ele><time>2026-04-25T09:57:11.803Z</time></trkpt><trkpt lat="41.1260873" lon="-7.8504823"><ele>778.3333333333333</ele><time>2026-04-25T09:57:12.798Z</time></trkpt><trkpt lat="41.1261698" lon="-7.850424"><ele>776.1666666666666</ele><time>2026-04-25T09:57:13.802Z</time></trkpt><trkpt lat="41.1262499" lon="-7.8503637"><ele>774.0</ele><time>2026-04-25T09:57:14.8Z</time></trkpt><trkpt lat="41.1263265" lon="-7.8503078"><ele>774.0</ele><time>2026-04-25T09:57:15.803Z</time></trkpt><trkpt lat="41.1263986" lon="-7.8502534"><ele>774.0</ele><time>2026-04-25T09:57:16.799Z</time></trkpt><trkpt lat="41.1264721" lon="-7.8501913"><ele>774.0</ele><time>2026-04-25T09:57:17.801Z</time></trkpt><trkpt lat="41.126547" lon="-7.8501225"><ele>774.0</ele><time>2026-04-25T09:57:18.801Z</time></trkpt><trkpt lat="41.1266155" lon="-7.8500441"><ele>774.0</ele><time>2026-04-25T09:57:19.813Z</time></trkpt><trkpt lat="41.1266806" lon="-7.849961"><ele>774.0</ele><time>2026-04-25T09:57:20.799Z</time></trkpt><trkpt lat="41.1267439" lon="-7.8498725"><ele>772.8333333333334</ele><time>2026-04-25T09:57:21.805Z</time></trkpt><trkpt lat="41.1268019" lon="-7.8497831"><ele>771.6666666666666</ele><time>2026-04-25T09:57:22.796Z</time></trkpt><trkpt lat="41.1268608" lon="-7.8496987"><ele>770.5</ele><time>2026-04-25T09:57:23.8Z</time></trkpt><trkpt lat="41.1269222" lon="-7.8496178"><ele>769.3333333333333</ele><time>2026-04-25T09:57:24.803Z</time></trkpt><trkpt lat="41.126983" lon="-7.8495321"><ele>768.1666666666666</ele><time>2026-04-25T09:57:25.812Z</time></trkpt><trkpt lat="41.127045" lon="-7.849442"><ele>767.0</ele><time>2026-04-25T09:57:26.801Z</time></trkpt><trkpt lat="41.1271595" lon="-7.8492544"><ele>767.0</ele><time>2026-04-25T09:57:28.804Z</time></trkpt><trkpt lat="41.1272029" lon="-7.8491524"><ele>767.0</ele><time>2026-04-25T09:57:29.799Z</time></trkpt><trkpt lat="41.1272424" lon="-7.8490453"><ele>767.0</ele><time>2026-04-25T09:57:30.798Z</time></trkpt><trkpt lat="41.1272817" lon="-7.8489472"><ele>767.0</ele><time>2026-04-25T09:57:31.808Z</time></trkpt><trkpt lat="41.1273171" lon="-7.8488549"><ele>767.0</ele><time>2026-04-25T09:57:32.801Z</time></trkpt><trkpt lat="41.1273485" lon="-7.8487627"><ele>767.0</ele><time>2026-04-25T09:57:33.799Z</time></trkpt><trkpt lat="41.1273755" lon="-7.8486658"><ele>764.5</ele><time>2026-04-25T09:57:34.797Z</time></trkpt><trkpt lat="41.1274085" lon="-7.848568"><ele>762.0</ele><time>2026-04-25T09:57:35.797Z</time></trkpt><trkpt lat="41.1274441" lon="-7.8484708"><ele>759.5</ele><time>2026-04-25T09:57:36.801Z</time></trkpt><trkpt lat="41.1274848" lon="-7.8483766"><ele>757.0</ele><time>2026-04-25T09:57:37.81Z</time></trkpt><trkpt lat="41.1275286" lon="-7.8482909"><ele>754.5</ele><time>2026-04-25T09:57:38.808Z</time></trkpt><trkpt lat="41.1275798" lon="-7.8482203"><ele>752.0</ele><time>2026-04-25T09:57:39.797Z</time></trkpt><trkpt lat="41.1276332" lon="-7.8481616"><ele>752.0</ele><time>2026-04-25T09:57:40.808Z</time></trkpt><trkpt lat="41.12774" lon="-7.8480941"><ele>752.0</ele><time>2026-04-25T09:57:42.799Z</time></trkpt><trkpt lat="41.1278615" lon="-7.8481185"><ele>752.0</ele><time>2026-04-25T09:57:44.802Z</time></trkpt><trkpt lat="41.1279261" lon="-7.8481608"><ele>752.0</ele><time>2026-04-25T09:57:45.802Z</time></trkpt><trkpt lat="41.1279919" lon="-7.8482199"><ele>752.0</ele><time>2026-04-25T09:57:46.808Z</time></trkpt><trkpt lat="41.1280584" lon="-7.8482801"><ele>752.0</ele><time>2026-04-25T09:57:47.801Z</time></trkpt><trkpt lat="41.1281936" lon="-7.8484056"><ele>752.0</ele><time>2026-04-25T09:57:49.797Z</time></trkpt><trkpt lat="41.1282634" lon="-7.8484651"><ele>752.0</ele><time>2026-04-25T09:57:50.799Z</time></trkpt><trkpt lat="41.128336" lon="-7.8485116"><ele>752.0</ele><time>2026-04-25T09:57:51.809Z</time></trkpt><trkpt lat="41.1284174" lon="-7.8485489"><ele>752.0</ele><time>2026-04-25T09:57:52.804Z</time></trkpt><trkpt lat="41.1285029" lon="-7.8485735"><ele>748.8333333333333</ele><time>2026-04-25T09:57:53.806Z</time></trkpt><trkpt lat="41.1285858" lon="-7.8485946"><ele>745.6666666666666</ele><time>2026-04-25T09:57:54.803Z</time></trkpt><trkpt lat="41.1286665" lon="-7.8486121"><ele>742.5</ele><time>2026-04-25T09:57:55.797Z</time></trkpt><trkpt lat="41.1287457" lon="-7.8486287"><ele>739.3333333333334</ele><time>2026-04-25T09:57:56.804Z</time></trkpt><trkpt lat="41.1288269" lon="-7.8486474"><ele>736.1666666666667</ele><time>2026-04-25T09:57:57.797Z</time></trkpt><trkpt lat="41.1289136" lon="-7.8486669"><ele>733.0</ele><time>2026-04-25T09:57:58.8Z</time></trkpt><trkpt lat="41.1289998" lon="-7.8486885"><ele>731.1428571428571</ele><time>2026-04-25T09:57:59.808Z</time></trkpt><trkpt lat="41.1290817" lon="-7.8487086"><ele>729.2857142857142</ele><time>2026-04-25T09:58:00.801Z</time></trkpt><trkpt lat="41.1291601" lon="-7.8487253"><ele>727.4285714285713</ele><time>2026-04-25T09:58:01.8Z</time></trkpt><trkpt lat="41.1292367" lon="-7.8487464"><ele>725.5714285714286</ele><time>2026-04-25T09:58:02.81Z</time></trkpt><trkpt lat="41.1293072" lon="-7.8487708"><ele>723.7142857142858</ele><time>2026-04-25T09:58:03.802Z</time></trkpt><trkpt lat="41.1293737" lon="-7.8487924"><ele>721.8571428571428</ele><time>2026-04-25T09:58:04.801Z</time></trkpt><trkpt lat="41.1294371" lon="-7.8488152"><ele>720.0</ele><time>2026-04-25T09:58:05.8Z</time></trkpt><trkpt lat="41.1295444" lon="-7.848815"><ele>720.0</ele><time>2026-04-25T09:58:07.798Z</time></trkpt><trkpt lat="41.1296059" lon="-7.8487855"><ele>720.0</ele><time>2026-04-25T09:58:09.799Z</time></trkpt><trkpt lat="41.1296206" lon="-7.8489304"><ele>720.0</ele><time>2026-04-25T09:58:14.805Z</time></trkpt><trkpt lat="41.1295743" lon="-7.8490305"><ele>720.0</ele><time>2026-04-25T09:58:15.804Z</time></trkpt><trkpt lat="41.1295288" lon="-7.8491426"><ele>720.0</ele><time>2026-04-25T09:58:16.802Z</time></trkpt><trkpt lat="41.1294961" lon="-7.84926"><ele>719.2</ele><time>2026-04-25T09:58:17.805Z</time></trkpt><trkpt lat="41.1294622" lon="-7.8493826"><ele>718.4</ele><time>2026-04-25T09:58:18.795Z</time></trkpt><trkpt lat="41.1294251" lon="-7.8495094"><ele>717.5999999999999</ele><time>2026-04-25T09:58:19.803Z</time></trkpt><trkpt lat="41.1293914" lon="-7.8496367"><ele>716.8</ele><time>2026-04-25T09:58:20.809Z</time></trkpt><trkpt lat="41.1293568" lon="-7.8497646"><ele>716.0</ele><time>2026-04-25T09:58:21.797Z</time></trkpt><trkpt lat="41.1293243" lon="-7.8499022"><ele>716.0</ele><time>2026-04-25T09:58:22.798Z</time></trkpt><trkpt lat="41.1292898" lon="-7.8500487"><ele>716.0</ele><time>2026-04-25T09:58:23.801Z</time></trkpt><trkpt lat="41.1292511" lon="-7.8502002"><ele>716.0</ele><time>2026-04-25T09:58:24.799Z</time></trkpt><trkpt lat="41.129209" lon="-7.8503502"><ele>716.0</ele><time>2026-04-25T09:58:25.802Z</time></trkpt><trkpt lat="41.1291675" lon="-7.8504956"><ele>715.4</ele><time>2026-04-25T09:58:26.8Z</time></trkpt><trkpt lat="41.1291315" lon="-7.8506321"><ele>714.8</ele><time>2026-04-25T09:58:27.797Z</time></trkpt><trkpt lat="41.1290958" lon="-7.8507651"><ele>714.1999999999999</ele><time>2026-04-25T09:58:28.8Z</time></trkpt><trkpt lat="41.1290543" lon="-7.8508914"><ele>713.5999999999999</ele><time>2026-04-25T09:58:29.8Z</time></trkpt><trkpt lat="41.129009" lon="-7.8510097"><ele>713.0</ele><time>2026-04-25T09:58:30.801Z</time></trkpt><trkpt lat="41.1289079" lon="-7.851233"><ele>712.8333333333333</ele><time>2026-04-25T09:58:32.798Z</time></trkpt><trkpt lat="41.1288518" lon="-7.8513323"><ele>712.6666666666666</ele><time>2026-04-25T09:58:33.805Z</time></trkpt><trkpt lat="41.1288008" lon="-7.851422"><ele>712.5</ele><time>2026-04-25T09:58:34.808Z</time></trkpt><trkpt lat="41.1287566" lon="-7.8515033"><ele>712.3333333333334</ele><time>2026-04-25T09:58:35.801Z</time></trkpt><trkpt lat="41.1287008" lon="-7.8516093"><ele>712.1666666666667</ele><time>2026-04-25T09:58:37.796Z</time></trkpt><trkpt lat="41.1287625" lon="-7.8516819"><ele>712.0</ele><time>2026-04-25T09:58:46.799Z</time></trkpt><trkpt lat="41.1288153" lon="-7.8517276"><ele>712.0</ele><time>2026-04-25T09:58:49.8Z</time></trkpt><trkpt lat="41.1288869" lon="-7.8517699"><ele>712.0</ele><time>2026-04-25T09:58:54.799Z</time></trkpt><trkpt lat="41.1290025" lon="-7.8518681"><ele>712.0</ele><time>2026-04-25T09:59:39.799Z</time></trkpt><trkpt lat="41.1291584" lon="-7.8520147"><ele>712.0</ele><time>2026-04-25T09:59:43.803Z</time></trkpt><trkpt lat="41.1292585" lon="-7.8520811"><ele>710.2</ele><time>2026-04-25T09:59:45.799Z</time></trkpt><trkpt lat="41.1293494" lon="-7.8521723"><ele>708.4000000000001</ele><time>2026-04-25T09:59:47.798Z</time></trkpt><trkpt lat="41.1294215" lon="-7.8522639"><ele>706.5999999999999</ele><time>2026-04-25T09:59:49.798Z</time></trkpt><trkpt lat="41.129471" lon="-7.8523614"><ele>704.8</ele><time>2026-04-25T09:59:51.804Z</time></trkpt><trkpt lat="41.1294925" lon="-7.8524529"><ele>703.0</ele><time>2026-04-25T09:59:53.797Z</time></trkpt><trkpt lat="41.1294906" lon="-7.8525628"><ele>701.0</ele><time>2026-04-25T09:59:55.807Z</time></trkpt><trkpt lat="41.1294885" lon="-7.8526874"><ele>699.0</ele><time>2026-04-25T09:59:57.799Z</time></trkpt><trkpt lat="41.1294907" lon="-7.8528225"><ele>697.0</ele><time>2026-04-25T09:59:59.8Z</time></trkpt><trkpt lat="41.1294887" lon="-7.8529621"><ele>695.0</ele><time>2026-04-25T10:00:01.799Z</time></trkpt><trkpt lat="41.1294918" lon="-7.8532169"><ele>695.0</ele><time>2026-04-25T10:00:05.799Z</time></trkpt><trkpt lat="41.1295321" lon="-7.853337"><ele>695.0</ele><time>2026-04-25T10:00:07.796Z</time></trkpt><trkpt lat="41.1295974" lon="-7.853406"><ele>695.0</ele><time>2026-04-25T10:00:09.795Z</time></trkpt><trkpt lat="41.129674" lon="-7.8534299"><ele>695.0</ele><time>2026-04-25T10:00:11.804Z</time></trkpt><trkpt lat="41.129742" lon="-7.8534722"><ele>695.0</ele><time>2026-04-25T10:00:13.797Z</time></trkpt><trkpt lat="41.1297883" lon="-7.8535464"><ele>695.0</ele><time>2026-04-25T10:00:15.797Z</time></trkpt><trkpt lat="41.1297977" lon="-7.8536474"><ele>692.0</ele><time>2026-04-25T10:00:17.796Z</time></trkpt><trkpt lat="41.1298066" lon="-7.8537488"><ele>689.0</ele><time>2026-04-25T10:00:19.797Z</time></trkpt><trkpt lat="41.1298151" lon="-7.8538655"><ele>686.0</ele><time>2026-04-25T10:00:21.797Z</time></trkpt><trkpt lat="41.1298387" lon="-7.8539962"><ele>683.0</ele><time>2026-04-25T10:00:23.797Z</time></trkpt><trkpt lat="41.1299443" lon="-7.8542217"><ele>681.6666666666666</ele><time>2026-04-25T10:00:27.801Z</time></trkpt><trkpt lat="41.130022" lon="-7.8542741"><ele>680.3333333333333</ele><time>2026-04-25T10:00:29.802Z</time></trkpt><trkpt lat="41.130091" lon="-7.8543172"><ele>679.0</ele><time>2026-04-25T10:00:31.809Z</time></trkpt><trkpt lat="41.1301486" lon="-7.8543749"><ele>677.6666666666666</ele><time>2026-04-25T10:00:33.804Z</time></trkpt><trkpt lat="41.1301848" lon="-7.8544691"><ele>676.3333333333334</ele><time>2026-04-25T10:00:36.797Z</time></trkpt><trkpt lat="41.1301604" lon="-7.8545792"><ele>675.0</ele><time>2026-04-25T10:00:39.797Z</time></trkpt><trkpt lat="41.130107" lon="-7.8546237"><ele>676.4</ele><time>2026-04-25T10:00:41.799Z</time></trkpt><trkpt lat="41.1300392" lon="-7.854612"><ele>677.8</ele><time>2026-04-25T10:00:43.799Z</time></trkpt><trkpt lat="41.1299571" lon="-7.8545824"><ele>679.2</ele><time>2026-04-25T10:00:45.797Z</time></trkpt><trkpt lat="41.1297307" lon="-7.854571"><ele>680.6</ele><time>2026-04-25T10:00:49.798Z</time></trkpt><trkpt lat="41.1296683" lon="-7.8545956"><ele>682.0</ele><time>2026-04-25T10:00:51.802Z</time></trkpt><trkpt lat="41.1296893" lon="-7.8546756"><ele>682.0</ele><time>2026-04-25T10:00:55.81Z</time></trkpt><trkpt lat="41.129764" lon="-7.8547677"><ele>682.0</ele><time>2026-04-25T10:00:57.8Z</time></trkpt><trkpt lat="41.1298097" lon="-7.854837"><ele>682.0</ele><time>2026-04-25T10:00:58.793Z</time></trkpt><trkpt lat="41.1298532" lon="-7.8549166"><ele>682.0</ele><time>2026-04-25T10:00:59.797Z</time></trkpt><trkpt lat="41.1299011" lon="-7.8549923"><ele>682.0</ele><time>2026-04-25T10:01:00.796Z</time></trkpt><trkpt lat="41.1299482" lon="-7.8550504"><ele>682.0</ele><time>2026-04-25T10:01:01.796Z</time></trkpt><trkpt lat="41.1300291" lon="-7.855143"><ele>668.6666666666667</ele><time>2026-04-25T10:01:03.798Z</time></trkpt><trkpt lat="41.1301087" lon="-7.8552575"><ele>655.3333333333334</ele><time>2026-04-25T10:01:05.8Z</time></trkpt><trkpt lat="41.1301737" lon="-7.8553889"><ele>642.0</ele><time>2026-04-25T10:01:07.799Z</time></trkpt><trkpt lat="41.1302836" lon="-7.8556328"><ele>642.0</ele><time>2026-04-25T10:01:11.797Z</time></trkpt><trkpt lat="41.1303306" lon="-7.8557477"><ele>642.0</ele><time>2026-04-25T10:01:13.797Z</time></trkpt><trkpt lat="41.1303781" lon="-7.8558542"><ele>642.0</ele><time>2026-04-25T10:01:15.8Z</time></trkpt><trkpt lat="41.1304256" lon="-7.855941"><ele>642.0</ele><time>2026-04-25T10:01:17.796Z</time></trkpt><trkpt lat="41.1304831" lon="-7.8559846"><ele>642.0</ele><time>2026-04-25T10:01:19.803Z</time></trkpt><trkpt lat="41.1305682" lon="-7.8559989"><ele>642.0</ele><time>2026-04-25T10:01:21.797Z</time></trkpt><trkpt lat="41.1306672" lon="-7.8559949"><ele>638.0</ele><time>2026-04-25T10:01:23.8Z</time></trkpt><trkpt lat="41.1307503" lon="-7.8559949"><ele>634.0</ele><time>2026-04-25T10:01:25.809Z</time></trkpt><trkpt lat="41.1308227" lon="-7.8559869"><ele>630.0</ele><time>2026-04-25T10:01:27.815Z</time></trkpt><trkpt lat="41.1308313" lon="-7.8560884"><ele>626.0</ele><time>2026-04-25T10:01:31.804Z</time></trkpt><trkpt lat="41.1307324" lon="-7.8562378"><ele>622.0</ele><time>2026-04-25T10:01:35.799Z</time></trkpt><trkpt lat="41.1306806" lon="-7.8563117"><ele>622.0</ele><time>2026-04-25T10:01:37.798Z</time></trkpt><trkpt lat="41.1306783" lon="-7.8563982"><ele>622.0</ele><time>2026-04-25T10:01:39.797Z</time></trkpt><trkpt lat="41.1307666" lon="-7.8564478"><ele>622.0</ele><time>2026-04-25T10:01:42.798Z</time></trkpt><trkpt lat="41.1308828" lon="-7.8564201"><ele>622.0</ele><time>2026-04-25T10:01:44.797Z</time></trkpt><trkpt lat="41.1309456" lon="-7.8564092"><ele>622.0</ele><time>2026-04-25T10:01:45.8Z</time></trkpt><trkpt lat="41.1310612" lon="-7.8563972"><ele>616.75</ele><time>2026-04-25T10:01:47.801Z</time></trkpt><trkpt lat="41.131152" lon="-7.8563926"><ele>611.5</ele><time>2026-04-25T10:01:49.799Z</time></trkpt><trkpt lat="41.1312148" lon="-7.8564477"><ele>606.25</ele><time>2026-04-25T10:01:52.798Z</time></trkpt><trkpt lat="41.1311331" lon="-7.8566776"><ele>601.0</ele><time>2026-04-25T10:01:57.797Z</time></trkpt><trkpt lat="41.131087" lon="-7.856799"><ele>595.8333333333334</ele><time>2026-04-25T10:01:59.798Z</time></trkpt><trkpt lat="41.1310459" lon="-7.8569086"><ele>590.6666666666667</ele><time>2026-04-25T10:02:01.793Z</time></trkpt><trkpt lat="41.131011" lon="-7.8570109"><ele>585.5</ele><time>2026-04-25T10:02:03.799Z</time></trkpt><trkpt lat="41.130966" lon="-7.8571084"><ele>580.3333333333334</ele><time>2026-04-25T10:02:05.799Z</time></trkpt><trkpt lat="41.1309073" lon="-7.8572017"><ele>575.1666666666666</ele><time>2026-04-25T10:02:07.802Z</time></trkpt><trkpt lat="41.1308526" lon="-7.8572556"><ele>570.0</ele><time>2026-04-25T10:02:09.804Z</time></trkpt><trkpt lat="41.1308682" lon="-7.8573422"><ele>570.0</ele><time>2026-04-25T10:02:16.799Z</time></trkpt><trkpt lat="41.1310703" lon="-7.8573762"><ele>570.0</ele><time>2026-04-25T10:02:20.797Z</time></trkpt><trkpt lat="41.1311664" lon="-7.8573789"><ele>570.0</ele><time>2026-04-25T10:02:22.797Z</time></trkpt><trkpt lat="41.1312556" lon="-7.8573752"><ele>570.0</ele><time>2026-04-25T10:02:24.796Z</time></trkpt><trkpt lat="41.1313408" lon="-7.8573672"><ele>570.0</ele><time>2026-04-25T10:02:26.799Z</time></trkpt><trkpt lat="41.1314202" lon="-7.8573507"><ele>570.0</ele><time>2026-04-25T10:02:28.799Z</time></trkpt><trkpt lat="41.1315152" lon="-7.857325"><ele>570.0</ele><time>2026-04-25T10:02:30.799Z</time></trkpt><trkpt lat="41.1316134" lon="-7.8573084"><ele>570.0</ele><time>2026-04-25T10:02:32.797Z</time></trkpt><trkpt lat="41.1317135" lon="-7.8572826"><ele>570.0</ele><time>2026-04-25T10:02:34.803Z</time></trkpt><trkpt lat="41.1318025" lon="-7.8572349"><ele>565.0</ele><time>2026-04-25T10:02:36.798Z</time></trkpt><trkpt lat="41.131884" lon="-7.857169"><ele>560.0</ele><time>2026-04-25T10:02:38.805Z</time></trkpt><trkpt lat="41.1320422" lon="-7.8570203"><ele>555.0</ele><time>2026-04-25T10:02:42.797Z</time></trkpt><trkpt lat="41.1321029" lon="-7.8569295"><ele>550.0</ele><time>2026-04-25T10:02:44.796Z</time></trkpt><trkpt lat="41.1321554" lon="-7.8568485"><ele>553.8333333333334</ele><time>2026-04-25T10:02:46.801Z</time></trkpt><trkpt lat="41.1321944" lon="-7.8567473"><ele>557.6666666666667</ele><time>2026-04-25T10:02:49.796Z</time></trkpt><trkpt lat="41.1321917" lon="-7.8566601"><ele>561.5</ele><time>2026-04-25T10:02:52.798Z</time></trkpt><trkpt lat="41.1322149" lon="-7.8565437"><ele>565.3333333333334</ele><time>2026-04-25T10:02:55.797Z</time></trkpt><trkpt lat="41.1322247" lon="-7.8564496"><ele>569.1666666666666</ele><time>2026-04-25T10:02:57.798Z</time></trkpt><trkpt lat="41.1322398" lon="-7.8563239"><ele>573.0</ele><time>2026-04-25T10:03:00.801Z</time></trkpt><trkpt lat="41.1322847" lon="-7.8561155"><ele>573.0</ele><time>2026-04-25T10:03:04.795Z</time></trkpt><trkpt lat="41.1323118" lon="-7.8560282"><ele>573.0</ele><time>2026-04-25T10:03:06.799Z</time></trkpt><trkpt lat="41.1323494" lon="-7.8558887"><ele>573.0</ele><time>2026-04-25T10:03:08.804Z</time></trkpt><trkpt lat="41.1323648" lon="-7.8558071"><ele>573.0</ele><time>2026-04-25T10:03:09.798Z</time></trkpt><trkpt lat="41.1323871" lon="-7.8557255"><ele>573.0</ele><time>2026-04-25T10:03:10.797Z</time></trkpt><trkpt lat="41.1324104" lon="-7.855637"><ele>573.0</ele><time>2026-04-25T10:03:11.807Z</time></trkpt><trkpt lat="41.1324285" lon="-7.8555404"><ele>569.5</ele><time>2026-04-25T10:03:12.8Z</time></trkpt><trkpt lat="41.1324478" lon="-7.8554421"><ele>566.0</ele><time>2026-04-25T10:03:13.8Z</time></trkpt><trkpt lat="41.1324701" lon="-7.8553451"><ele>562.5</ele><time>2026-04-25T10:03:14.803Z</time></trkpt><trkpt lat="41.1324849" lon="-7.8552411"><ele>559.0</ele><time>2026-04-25T10:03:15.794Z</time></trkpt><trkpt lat="41.1324969" lon="-7.8551341"><ele>555.5</ele><time>2026-04-25T10:03:16.797Z</time></trkpt><trkpt lat="41.1325041" lon="-7.8550235"><ele>552.0</ele><time>2026-04-25T10:03:17.794Z</time></trkpt><trkpt lat="41.1325143" lon="-7.8549124"><ele>552.0</ele><time>2026-04-25T10:03:18.797Z</time></trkpt><trkpt lat="41.1325258" lon="-7.8547993"><ele>552.0</ele><time>2026-04-25T10:03:19.801Z</time></trkpt><trkpt lat="41.1325397" lon="-7.8546932"><ele>552.0</ele><time>2026-04-25T10:03:20.798Z</time></trkpt><trkpt lat="41.1325601" lon="-7.8545907"><ele>552.0</ele><time>2026-04-25T10:03:21.805Z</time></trkpt><trkpt lat="41.1326377" lon="-7.8544284"><ele>552.0</ele><time>2026-04-25T10:03:23.801Z</time></trkpt><trkpt lat="41.1326786" lon="-7.8543486"><ele>555.0</ele><time>2026-04-25T10:03:24.798Z</time></trkpt><trkpt lat="41.1327128" lon="-7.8542608"><ele>558.0</ele><time>2026-04-25T10:03:25.797Z</time></trkpt><trkpt lat="41.1327353" lon="-7.8541696"><ele>561.0</ele><time>2026-04-25T10:03:26.798Z</time></trkpt><trkpt lat="41.1327499" lon="-7.8540839"><ele>564.0</ele><time>2026-04-25T10:03:27.806Z</time></trkpt><trkpt lat="41.1327975" lon="-7.8539362"><ele>567.0</ele><time>2026-04-25T10:03:29.797Z</time></trkpt><trkpt lat="41.1329031" lon="-7.8538515"><ele>567.0</ele><time>2026-04-25T10:03:31.795Z</time></trkpt><trkpt lat="41.1329772" lon="-7.8538295"><ele>567.0</ele><time>2026-04-25T10:03:32.795Z</time></trkpt><trkpt lat="41.1330604" lon="-7.8538096"><ele>567.0</ele><time>2026-04-25T10:03:33.8Z</time></trkpt><trkpt lat="41.1331451" lon="-7.8537884"><ele>567.0</ele><time>2026-04-25T10:03:34.803Z</time></trkpt><trkpt lat="41.1332314" lon="-7.853763"><ele>567.0</ele><time>2026-04-25T10:03:35.801Z</time></trkpt><trkpt lat="41.133315" lon="-7.8537264"><ele>567.0</ele><time>2026-04-25T10:03:36.803Z</time></trkpt><trkpt lat="41.1333887" lon="-7.8536852"><ele>565.6</ele><time>2026-04-25T10:03:37.799Z</time></trkpt><trkpt lat="41.1334514" lon="-7.8536417"><ele>564.2</ele><time>2026-04-25T10:03:38.796Z</time></trkpt><trkpt lat="41.1335019" lon="-7.8535903"><ele>562.8</ele><time>2026-04-25T10:03:39.803Z</time></trkpt><trkpt lat="41.1335631" lon="-7.8534489"><ele>561.4</ele><time>2026-04-25T10:03:41.798Z</time></trkpt><trkpt lat="41.1335828" lon="-7.8533618"><ele>560.0</ele><time>2026-04-25T10:03:42.798Z</time></trkpt><trkpt lat="41.1336022" lon="-7.8531778"><ele>560.0</ele><time>2026-04-25T10:03:44.798Z</time></trkpt><trkpt lat="41.1336" lon="-7.8530906"><ele>560.0</ele><time>2026-04-25T10:03:45.803Z</time></trkpt><trkpt lat="41.1335973" lon="-7.853006"><ele>560.0</ele><time>2026-04-25T10:03:46.795Z</time></trkpt><trkpt lat="41.1335931" lon="-7.8528524"><ele>560.0</ele><time>2026-04-25T10:03:48.797Z</time></trkpt><trkpt lat="41.1335871" lon="-7.8526944"><ele>560.0</ele><time>2026-04-25T10:03:50.8Z</time></trkpt><trkpt lat="41.1335898" lon="-7.8526099"><ele>560.0</ele><time>2026-04-25T10:03:51.798Z</time></trkpt><trkpt lat="41.1336055" lon="-7.8525275"><ele>561.4285714285714</ele><time>2026-04-25T10:03:52.806Z</time></trkpt><trkpt lat="41.133632" lon="-7.8524475"><ele>562.8571428571429</ele><time>2026-04-25T10:03:53.794Z</time></trkpt><trkpt lat="41.1336722" lon="-7.8523755"><ele>564.2857142857142</ele><time>2026-04-25T10:03:54.801Z</time></trkpt><trkpt lat="41.1337168" lon="-7.8523145"><ele>565.7142857142858</ele><time>2026-04-25T10:03:55.807Z</time></trkpt><trkpt lat="41.1337689" lon="-7.8522545"><ele>567.1428571428571</ele><time>2026-04-25T10:03:56.795Z</time></trkpt><trkpt lat="41.1338233" lon="-7.8521904"><ele>568.5714285714286</ele><time>2026-04-25T10:03:57.798Z</time></trkpt><trkpt lat="41.1338776" lon="-7.8521213"><ele>570.0</ele><time>2026-04-25T10:03:58.797Z</time></trkpt><trkpt lat="41.1339348" lon="-7.8520498"><ele>570.0</ele><time>2026-04-25T10:03:59.796Z</time></trkpt><trkpt lat="41.1339919" lon="-7.8519798"><ele>570.0</ele><time>2026-04-25T10:04:00.798Z</time></trkpt><trkpt lat="41.1340443" lon="-7.8519155"><ele>570.0</ele><time>2026-04-25T10:04:01.796Z</time></trkpt><trkpt lat="41.1341395" lon="-7.8518259"><ele>570.0</ele><time>2026-04-25T10:04:03.805Z</time></trkpt><trkpt lat="41.1343609" lon="-7.8518805"><ele>560.4</ele><time>2026-04-25T10:04:07.796Z</time></trkpt><trkpt lat="41.1344084" lon="-7.8519442"><ele>550.8</ele><time>2026-04-25T10:04:08.794Z</time></trkpt><trkpt lat="41.1344598" lon="-7.8519959"><ele>541.2</ele><time>2026-04-25T10:04:09.806Z</time></trkpt><trkpt lat="41.1345713" lon="-7.8520775"><ele>531.6</ele><time>2026-04-25T10:04:11.801Z</time></trkpt><trkpt lat="41.1346935" lon="-7.8521208"><ele>522.0</ele><time>2026-04-25T10:04:13.794Z</time></trkpt><trkpt lat="41.1347649" lon="-7.8521326"><ele>522.0</ele><time>2026-04-25T10:04:14.794Z</time></trkpt><trkpt lat="41.1348336" lon="-7.8521268"><ele>522.0</ele><time>2026-04-25T10:04:15.795Z</time></trkpt><trkpt lat="41.1349071" lon="-7.852118"><ele>522.0</ele><time>2026-04-25T10:04:16.797Z</time></trkpt><trkpt lat="41.134978" lon="-7.8521146"><ele>522.0</ele><time>2026-04-25T10:04:17.799Z</time></trkpt><trkpt lat="41.1350502" lon="-7.8521206"><ele>522.0</ele><time>2026-04-25T10:04:18.796Z</time></trkpt><trkpt lat="41.1351245" lon="-7.8521268"><ele>522.0</ele><time>2026-04-25T10:04:19.802Z</time></trkpt><trkpt lat="41.1351957" lon="-7.8521248"><ele>522.0</ele><time>2026-04-25T10:04:20.802Z</time></trkpt><trkpt lat="41.1352715" lon="-7.852124"><ele>518.8000000000001</ele><time>2026-04-25T10:04:21.794Z</time></trkpt><trkpt lat="41.1353472" lon="-7.8521339"><ele>515.6</ele><time>2026-04-25T10:04:22.792Z</time></trkpt><trkpt lat="41.1354249" lon="-7.8521451"><ele>512.4000000000001</ele><time>2026-04-25T10:04:23.798Z</time></trkpt><trkpt lat="41.1355006" lon="-7.8521478"><ele>509.20000000000005</ele><time>2026-04-25T10:04:24.806Z</time></trkpt><trkpt lat="41.1356634" lon="-7.8521549"><ele>506.0</ele><time>2026-04-25T10:04:26.799Z</time></trkpt><trkpt lat="41.1357475" lon="-7.852162"><ele>504.57142857142867</ele><time>2026-04-25T10:04:27.794Z</time></trkpt><trkpt lat="41.1358321" lon="-7.8521654"><ele>503.14285714285717</ele><time>2026-04-25T10:04:28.8Z</time></trkpt><trkpt lat="41.1359078" lon="-7.8521709"><ele>501.7142857142858</ele><time>2026-04-25T10:04:29.802Z</time></trkpt><trkpt lat="41.1359846" lon="-7.852174"><ele>500.28571428571433</ele><time>2026-04-25T10:04:30.796Z</time></trkpt><trkpt lat="41.1360558" lon="-7.8521657"><ele>498.8571428571429</ele><time>2026-04-25T10:04:31.805Z</time></trkpt><trkpt lat="41.1361206" lon="-7.8521481"><ele>497.42857142857144</ele><time>2026-04-25T10:04:32.794Z</time></trkpt><trkpt lat="41.136183" lon="-7.8521175"><ele>496.0</ele><time>2026-04-25T10:04:33.803Z</time></trkpt><trkpt lat="41.1362425" lon="-7.8520782"><ele>496.0</ele><time>2026-04-25T10:04:34.804Z</time></trkpt><trkpt lat="41.1363033" lon="-7.8520317"><ele>496.00000000000006</ele><time>2026-04-25T10:04:35.797Z</time></trkpt><trkpt lat="41.1363647" lon="-7.8519877"><ele>496.0</ele><time>2026-04-25T10:04:36.796Z</time></trkpt><trkpt lat="41.1364256" lon="-7.8519424"><ele>496.0</ele><time>2026-04-25T10:04:37.793Z</time></trkpt><trkpt lat="41.1364879" lon="-7.8518959"><ele>496.00000000000006</ele><time>2026-04-25T10:04:38.799Z</time></trkpt><trkpt lat="41.1365512" lon="-7.8518445"><ele>496.0</ele><time>2026-04-25T10:04:39.795Z</time></trkpt><trkpt lat="41.1366127" lon="-7.8517843"><ele>496.0</ele><time>2026-04-25T10:04:40.8Z</time></trkpt><trkpt lat="41.1366692" lon="-7.8517144"><ele>497.8</ele><time>2026-04-25T10:04:41.797Z</time></trkpt><trkpt lat="41.1367223" lon="-7.8516319"><ele>499.6</ele><time>2026-04-25T10:04:42.8Z</time></trkpt><trkpt lat="41.1367722" lon="-7.8515488"><ele>501.4</ele><time>2026-04-25T10:04:43.794Z</time></trkpt><trkpt lat="41.1368149" lon="-7.8514645"><ele>503.2</ele><time>2026-04-25T10:04:44.798Z</time></trkpt><trkpt lat="41.1368436" lon="-7.8513801"><ele>505.0</ele><time>2026-04-25T10:04:45.794Z</time></trkpt><trkpt lat="41.1368663" lon="-7.8511375"><ele>505.0</ele><time>2026-04-25T10:04:48.795Z</time></trkpt><trkpt lat="41.1368587" lon="-7.8510477"><ele>504.99999999999994</ele><time>2026-04-25T10:04:49.793Z</time></trkpt><trkpt lat="41.136855" lon="-7.8509539"><ele>505.0</ele><time>2026-04-25T10:04:50.802Z</time></trkpt><trkpt lat="41.1368612" lon="-7.8508641"><ele>505.0</ele><time>2026-04-25T10:04:51.803Z</time></trkpt><trkpt lat="41.1368813" lon="-7.8507746"><ele>504.99999999999994</ele><time>2026-04-25T10:04:52.799Z</time></trkpt><trkpt lat="41.1369088" lon="-7.8506907"><ele>505.0</ele><time>2026-04-25T10:04:53.794Z</time></trkpt><trkpt lat="41.1369405" lon="-7.8506145"><ele>505.0</ele><time>2026-04-25T10:04:54.813Z</time></trkpt><trkpt lat="41.1370409" lon="-7.850504"><ele>505.57142857142856</ele><time>2026-04-25T10:04:56.796Z</time></trkpt><trkpt lat="41.1371092" lon="-7.8504611"><ele>506.1428571428571</ele><time>2026-04-25T10:04:57.801Z</time></trkpt><trkpt lat="41.137173" lon="-7.8504238"><ele>506.71428571428567</ele><time>2026-04-25T10:04:58.795Z</time></trkpt><trkpt lat="41.137242" lon="-7.8503921"><ele>507.2857142857142</ele><time>2026-04-25T10:04:59.794Z</time></trkpt><trkpt lat="41.1373168" lon="-7.8503669"><ele>507.85714285714283</ele><time>2026-04-25T10:05:00.792Z</time></trkpt><trkpt lat="41.1373922" lon="-7.8503446"><ele>508.42857142857133</ele><time>2026-04-25T10:05:01.795Z</time></trkpt><trkpt lat="41.1374629" lon="-7.8503186"><ele>508.99999999999994</ele><time>2026-04-25T10:05:02.802Z</time></trkpt><trkpt lat="41.1375247" lon="-7.8502914"><ele>509.0</ele><time>2026-04-25T10:05:03.8Z</time></trkpt><trkpt lat="41.1376218" lon="-7.85021"><ele>509.0</ele><time>2026-04-25T10:05:05.795Z</time></trkpt><trkpt lat="41.1376937" lon="-7.8500804"><ele>509.0</ele><time>2026-04-25T10:05:07.797Z</time></trkpt><trkpt lat="41.1377521" lon="-7.8499297"><ele>509.0</ele><time>2026-04-25T10:05:09.806Z</time></trkpt><trkpt lat="41.1377754" lon="-7.8498492"><ele>509.0</ele><time>2026-04-25T10:05:10.799Z</time></trkpt><trkpt lat="41.1378015" lon="-7.8497667"><ele>512.3333333333333</ele><time>2026-04-25T10:05:11.795Z</time></trkpt><trkpt lat="41.1378351" lon="-7.8496113"><ele>515.6666666666666</ele><time>2026-04-25T10:05:13.796Z</time></trkpt><trkpt lat="41.1378552" lon="-7.8495277"><ele>519.0</ele><time>2026-04-25T10:05:14.797Z</time></trkpt><trkpt lat="41.1378789" lon="-7.8494315"><ele>522.3333333333334</ele><time>2026-04-25T10:05:15.802Z</time></trkpt><trkpt lat="41.1378991" lon="-7.8493253"><ele>525.6666666666667</ele><time>2026-04-25T10:05:16.794Z</time></trkpt><trkpt lat="41.1379121" lon="-7.8492169"><ele>529.0</ele><time>2026-04-25T10:05:17.795Z</time></trkpt><trkpt lat="41.1379171" lon="-7.8491114"><ele>531.6666666666667</ele><time>2026-04-25T10:05:18.798Z</time></trkpt><trkpt lat="41.1379193" lon="-7.8490017"><ele>534.3333333333334</ele><time>2026-04-25T10:05:19.799Z</time></trkpt><trkpt lat="41.1379214" lon="-7.8488974"><ele>537.0</ele><time>2026-04-25T10:05:20.8Z</time></trkpt><trkpt lat="41.1379265" lon="-7.8487968"><ele>539.6666666666666</ele><time>2026-04-25T10:05:21.793Z</time></trkpt><trkpt lat="41.1379287" lon="-7.8486929"><ele>542.3333333333333</ele><time>2026-04-25T10:05:22.797Z</time></trkpt><trkpt lat="41.1379422" lon="-7.8485839"><ele>545.0</ele><time>2026-04-25T10:05:23.8Z</time></trkpt><trkpt lat="41.137962" lon="-7.848476"><ele>546.6</ele><time>2026-04-25T10:05:24.803Z</time></trkpt><trkpt lat="41.1379836" lon="-7.8483743"><ele>548.2</ele><time>2026-04-25T10:05:25.796Z</time></trkpt><trkpt lat="41.1380111" lon="-7.8482738"><ele>549.8</ele><time>2026-04-25T10:05:26.8Z</time></trkpt><trkpt lat="41.1380425" lon="-7.848179"><ele>551.4</ele><time>2026-04-25T10:05:27.802Z</time></trkpt><trkpt lat="41.1380774" lon="-7.8480822"><ele>553.0</ele><time>2026-04-25T10:05:28.801Z</time></trkpt><trkpt lat="41.1381403" lon="-7.8478915"><ele>553.0</ele><time>2026-04-25T10:05:30.802Z</time></trkpt><trkpt lat="41.1381707" lon="-7.8478017"><ele>553.0</ele><time>2026-04-25T10:05:31.794Z</time></trkpt><trkpt lat="41.1382013" lon="-7.847713"><ele>553.0</ele><time>2026-04-25T10:05:32.801Z</time></trkpt><trkpt lat="41.1382334" lon="-7.8476232"><ele>553.0</ele><time>2026-04-25T10:05:33.797Z</time></trkpt><trkpt lat="41.1382639" lon="-7.8475386"><ele>553.0</ele><time>2026-04-25T10:05:34.796Z</time></trkpt><trkpt lat="41.1382898" lon="-7.847459"><ele>553.0</ele><time>2026-04-25T10:05:35.796Z</time></trkpt><trkpt lat="41.1383331" lon="-7.84732"><ele>550.3333333333334</ele><time>2026-04-25T10:05:37.796Z</time></trkpt><trkpt lat="41.1383713" lon="-7.8472099"><ele>547.6666666666667</ele><time>2026-04-25T10:05:39.81Z</time></trkpt><trkpt lat="41.1383807" lon="-7.8471139"><ele>545.0</ele><time>2026-04-25T10:05:41.795Z</time></trkpt><trkpt lat="41.1383502" lon="-7.8470004"><ele>542.3333333333334</ele><time>2026-04-25T10:05:44.797Z</time></trkpt><trkpt lat="41.1383802" lon="-7.8469035"><ele>539.6666666666666</ele><time>2026-04-25T10:05:48.791Z</time></trkpt><trkpt lat="41.1384789" lon="-7.8468657"><ele>537.0</ele><time>2026-04-25T10:05:51.8Z</time></trkpt><trkpt lat="41.138662" lon="-7.8468543"><ele>537.0</ele><time>2026-04-25T10:05:55.811Z</time></trkpt><trkpt lat="41.1387285" lon="-7.8468262"><ele>537.0</ele><time>2026-04-25T10:05:57.797Z</time></trkpt><trkpt lat="41.138802" lon="-7.8467847"><ele>537.0</ele><time>2026-04-25T10:05:59.799Z</time></trkpt><trkpt lat="41.1388845" lon="-7.8467305"><ele>537.0</ele><time>2026-04-25T10:06:01.798Z</time></trkpt><trkpt lat="41.1389672" lon="-7.846654"><ele>537.0</ele><time>2026-04-25T10:06:03.808Z</time></trkpt><trkpt lat="41.1390427" lon="-7.8465513"><ele>535.4285714285713</ele><time>2026-04-25T10:06:05.798Z</time></trkpt><trkpt lat="41.1390863" lon="-7.8464793"><ele>533.8571428571429</ele><time>2026-04-25T10:06:06.802Z</time></trkpt><trkpt lat="41.1391285" lon="-7.8463981"><ele>532.2857142857142</ele><time>2026-04-25T10:06:07.804Z</time></trkpt><trkpt lat="41.1391768" lon="-7.8463227"><ele>530.7142857142857</ele><time>2026-04-25T10:06:08.795Z</time></trkpt><trkpt lat="41.1392265" lon="-7.8462489"><ele>529.1428571428571</ele><time>2026-04-25T10:06:09.805Z</time></trkpt><trkpt lat="41.1392768" lon="-7.846177"><ele>527.5714285714286</ele><time>2026-04-25T10:06:10.801Z</time></trkpt><trkpt lat="41.1393253" lon="-7.846109"><ele>526.0</ele><time>2026-04-25T10:06:11.798Z</time></trkpt><trkpt lat="41.1393774" lon="-7.8460429"><ele>526.6666666666667</ele><time>2026-04-25T10:06:12.798Z</time></trkpt><trkpt lat="41.1394882" lon="-7.8458944"><ele>527.3333333333334</ele><time>2026-04-25T10:06:14.797Z</time></trkpt><trkpt lat="41.1395371" lon="-7.8458236"><ele>528.0</ele><time>2026-04-25T10:06:15.798Z</time></trkpt><trkpt lat="41.1395934" lon="-7.845769"><ele>528.6666666666666</ele><time>2026-04-25T10:06:16.796Z</time></trkpt><trkpt lat="41.1396552" lon="-7.8457369"><ele>529.3333333333333</ele><time>2026-04-25T10:06:17.795Z</time></trkpt><trkpt lat="41.1397173" lon="-7.8457121"><ele>530.0</ele><time>2026-04-25T10:06:18.802Z</time></trkpt><trkpt lat="41.1397831" lon="-7.8456939"><ele>530.0</ele><time>2026-04-25T10:06:19.793Z</time></trkpt><trkpt lat="41.1398497" lon="-7.8456831"><ele>530.0</ele><time>2026-04-25T10:06:20.795Z</time></trkpt><trkpt lat="41.1399706" lon="-7.8456783"><ele>530.0</ele><time>2026-04-25T10:06:22.798Z</time></trkpt><trkpt lat="41.1400802" lon="-7.8456827"><ele>530.0</ele><time>2026-04-25T10:06:24.797Z</time></trkpt><trkpt lat="41.1401963" lon="-7.8457137"><ele>530.0</ele><time>2026-04-25T10:06:26.794Z</time></trkpt><trkpt lat="41.1403064" lon="-7.8457577"><ele>526.6</ele><time>2026-04-25T10:06:28.8Z</time></trkpt><trkpt lat="41.1404001" lon="-7.8458068"><ele>523.2</ele><time>2026-04-25T10:06:30.798Z</time></trkpt><trkpt lat="41.1404824" lon="-7.8458343"><ele>519.8</ele><time>2026-04-25T10:06:32.804Z</time></trkpt><trkpt lat="41.140578" lon="-7.845808"><ele>516.4</ele><time>2026-04-25T10:06:34.799Z</time></trkpt><trkpt lat="41.1406867" lon="-7.8457035"><ele>513.0</ele><time>2026-04-25T10:06:36.791Z</time></trkpt><trkpt lat="41.1407545" lon="-7.8456156"><ele>510.8333333333333</ele><time>2026-04-25T10:06:38.795Z</time></trkpt><trkpt lat="41.140801" lon="-7.8455305"><ele>508.66666666666663</ele><time>2026-04-25T10:06:40.8Z</time></trkpt><trkpt lat="41.1408324" lon="-7.84543"><ele>506.5</ele><time>2026-04-25T10:06:42.796Z</time></trkpt><trkpt lat="41.1408645" lon="-7.8453261"><ele>504.3333333333333</ele><time>2026-04-25T10:06:44.799Z</time></trkpt><trkpt lat="41.1409015" lon="-7.8452209"><ele>502.16666666666663</ele><time>2026-04-25T10:06:46.804Z</time></trkpt><trkpt lat="41.1409442" lon="-7.8450981"><ele>500.0</ele><time>2026-04-25T10:06:48.799Z</time></trkpt><trkpt lat="41.1410189" lon="-7.8449787"><ele>499.99999999999994</ele><time>2026-04-25T10:06:50.797Z</time></trkpt><trkpt lat="41.1410749" lon="-7.8449264"><ele>500.0</ele><time>2026-04-25T10:06:51.796Z</time></trkpt><trkpt lat="41.1411339" lon="-7.8448726"><ele>500.0</ele><time>2026-04-25T10:06:52.804Z</time></trkpt><trkpt lat="41.1411904" lon="-7.8448172"><ele>500.0</ele><time>2026-04-25T10:06:53.796Z</time></trkpt><trkpt lat="41.141247" lon="-7.8447657"><ele>499.99999999999994</ele><time>2026-04-25T10:06:54.799Z</time></trkpt><trkpt lat="41.1413014" lon="-7.8447124"><ele>500.0</ele><time>2026-04-25T10:06:55.802Z</time></trkpt><trkpt lat="41.1414669" lon="-7.8444934"><ele>499.99999999999994</ele><time>2026-04-25T10:06:59.792Z</time></trkpt><trkpt lat="41.1415451" lon="-7.8443765"><ele>500.0</ele><time>2026-04-25T10:07:01.795Z</time></trkpt><trkpt lat="41.1415968" lon="-7.8443209"><ele>500.0</ele><time>2026-04-25T10:07:02.801Z</time></trkpt><trkpt lat="41.1416521" lon="-7.8442695"><ele>500.0</ele><time>2026-04-25T10:07:03.8Z</time></trkpt><trkpt lat="41.1417098" lon="-7.8442133"><ele>499.99999999999994</ele><time>2026-04-25T10:07:04.795Z</time></trkpt><trkpt lat="41.1417663" lon="-7.8441513"><ele>500.0</ele><time>2026-04-25T10:07:05.793Z</time></trkpt><trkpt lat="41.1418219" lon="-7.8440847"><ele>497.16666666666663</ele><time>2026-04-25T10:07:06.796Z</time></trkpt><trkpt lat="41.1418778" lon="-7.8440184"><ele>494.3333333333333</ele><time>2026-04-25T10:07:07.791Z</time></trkpt><trkpt lat="41.1419319" lon="-7.8439503"><ele>491.5</ele><time>2026-04-25T10:07:08.794Z</time></trkpt><trkpt lat="41.1419816" lon="-7.8438773"><ele>488.66666666666663</ele><time>2026-04-25T10:07:09.794Z</time></trkpt><trkpt lat="41.1420303" lon="-7.8437984"><ele>485.8333333333333</ele><time>2026-04-25T10:07:10.799Z</time></trkpt><trkpt lat="41.1420802" lon="-7.843725"><ele>483.0</ele><time>2026-04-25T10:07:11.796Z</time></trkpt><trkpt lat="41.1421325" lon="-7.843654"><ele>483.0</ele><time>2026-04-25T10:07:12.798Z</time></trkpt><trkpt lat="41.1421797" lon="-7.843583"><ele>482.99999999999994</ele><time>2026-04-25T10:07:13.799Z</time></trkpt><trkpt lat="41.1422236" lon="-7.8435135"><ele>482.99999999999994</ele><time>2026-04-25T10:07:14.802Z</time></trkpt><trkpt lat="41.1422722" lon="-7.843451"><ele>483.0</ele><time>2026-04-25T10:07:15.799Z</time></trkpt><trkpt lat="41.1423177" lon="-7.8433909"><ele>483.0</ele><time>2026-04-25T10:07:16.797Z</time></trkpt><trkpt lat="41.1424414" lon="-7.8431407"><ele>479.4</ele><time>2026-04-25T10:07:20.796Z</time></trkpt><trkpt lat="41.1424622" lon="-7.8430138"><ele>475.79999999999995</ele><time>2026-04-25T10:07:22.798Z</time></trkpt><trkpt lat="41.1424558" lon="-7.8428937"><ele>472.2</ele><time>2026-04-25T10:07:24.79Z</time></trkpt><trkpt lat="41.1424347" lon="-7.8428144"><ele>468.6</ele><time>2026-04-25T10:07:27.795Z</time></trkpt><trkpt lat="41.1425134" lon="-7.842867"><ele>465.0</ele><time>2026-04-25T10:11:10.797Z</time></trkpt><trkpt lat="41.1426847" lon="-7.8428575"><ele>465.0</ele><time>2026-04-25T10:11:13.798Z</time></trkpt><trkpt lat="41.1427544" lon="-7.8428733"><ele>465.0</ele><time>2026-04-25T10:11:14.793Z</time></trkpt><trkpt lat="41.1428217" lon="-7.8428904"><ele>465.0</ele><time>2026-04-25T10:11:15.799Z</time></trkpt><trkpt lat="41.1428891" lon="-7.842899"><ele>465.0</ele><time>2026-04-25T10:11:16.799Z</time></trkpt><trkpt lat="41.1429565" lon="-7.8429174"><ele>465.0</ele><time>2026-04-25T10:11:17.793Z</time></trkpt><trkpt lat="41.1430777" lon="-7.8429382"><ele>465.0</ele><time>2026-04-25T10:11:19.791Z</time></trkpt><trkpt lat="41.1431922" lon="-7.8429497"><ele>462.2</ele><time>2026-04-25T10:11:21.792Z</time></trkpt><trkpt lat="41.1433191" lon="-7.8429701"><ele>459.4</ele><time>2026-04-25T10:11:23.795Z</time></trkpt><trkpt lat="41.1433821" lon="-7.8429797"><ele>456.6</ele><time>2026-04-25T10:11:24.795Z</time></trkpt><trkpt lat="41.1435023" lon="-7.8430163"><ele>453.8</ele><time>2026-04-25T10:11:26.796Z</time></trkpt><trkpt lat="41.1436212" lon="-7.8430345"><ele>451.0</ele><time>2026-04-25T10:11:28.794Z</time></trkpt><trkpt lat="41.143746" lon="-7.8430447"><ele>451.0</ele><time>2026-04-25T10:11:30.801Z</time></trkpt><trkpt lat="41.1438107" lon="-7.8430525"><ele>451.0</ele><time>2026-04-25T10:11:31.797Z</time></trkpt><trkpt lat="41.1439936" lon="-7.8430998"><ele>451.0</ele><time>2026-04-25T10:11:34.792Z</time></trkpt><trkpt lat="41.1441099" lon="-7.8431493"><ele>451.0</ele><time>2026-04-25T10:11:36.793Z</time></trkpt><trkpt lat="41.144227" lon="-7.8431995"><ele>447.20000000000005</ele><time>2026-04-25T10:11:38.793Z</time></trkpt><trkpt lat="41.1443277" lon="-7.8432825"><ele>443.40000000000003</ele><time>2026-04-25T10:11:40.799Z</time></trkpt><trkpt lat="41.1444156" lon="-7.8433529"><ele>439.6</ele><time>2026-04-25T10:11:42.793Z</time></trkpt><trkpt lat="41.1444891" lon="-7.8434177"><ele>435.8</ele><time>2026-04-25T10:11:44.797Z</time></trkpt><trkpt lat="41.1445589" lon="-7.8434827"><ele>432.0</ele><time>2026-04-25T10:11:46.792Z</time></trkpt><trkpt lat="41.14463" lon="-7.8435544"><ele>432.0</ele><time>2026-04-25T10:11:48.797Z</time></trkpt><trkpt lat="41.1446913" lon="-7.8436084"><ele>432.0</ele><time>2026-04-25T10:11:50.794Z</time></trkpt><trkpt lat="41.1447464" lon="-7.8436524"><ele>432.0</ele><time>2026-04-25T10:11:52.806Z</time></trkpt><trkpt lat="41.1447838" lon="-7.843428"><ele>432.0</ele><time>2026-04-25T10:12:13.791Z</time></trkpt><trkpt lat="41.1447774" lon="-7.8432345"><ele>432.0</ele><time>2026-04-25T10:12:17.794Z</time></trkpt><trkpt lat="41.1448132" lon="-7.843144"><ele>432.0</ele><time>2026-04-25T10:12:19.794Z</time></trkpt><trkpt lat="41.1448743" lon="-7.8430819"><ele>432.0</ele><time>2026-04-25T10:12:21.789Z</time></trkpt><trkpt lat="41.1449097" lon="-7.8430008"><ele>432.0</ele><time>2026-04-25T10:12:23.796Z</time></trkpt><trkpt lat="41.1449258" lon="-7.8429149"><ele>432.0</ele><time>2026-04-25T10:12:25.791Z</time></trkpt><trkpt lat="41.1448963" lon="-7.8428234"><ele>432.0</ele><time>2026-04-25T10:12:27.789Z</time></trkpt><trkpt lat="41.1448526" lon="-7.8427284"><ele>432.0</ele><time>2026-04-25T10:12:29.796Z</time></trkpt><trkpt lat="41.1447991" lon="-7.8426528"><ele>432.00000000000006</ele><time>2026-04-25T10:12:31.795Z</time></trkpt><trkpt lat="41.1447367" lon="-7.8425878"><ele>432.00000000000006</ele><time>2026-04-25T10:12:33.794Z</time></trkpt><trkpt lat="41.1446677" lon="-7.8425235"><ele>432.0</ele><time>2026-04-25T10:12:35.791Z</time></trkpt><trkpt lat="41.1445355" lon="-7.8423989"><ele>432.0</ele><time>2026-04-25T10:12:39.799Z</time></trkpt><trkpt lat="41.144468" lon="-7.8423152"><ele>427.6</ele><time>2026-04-25T10:12:41.796Z</time></trkpt><trkpt lat="41.1443893" lon="-7.8422272"><ele>423.20000000000005</ele><time>2026-04-25T10:12:43.792Z</time></trkpt><trkpt lat="41.1443106" lon="-7.8421308"><ele>418.8</ele><time>2026-04-25T10:12:45.804Z</time></trkpt><trkpt lat="41.1442408" lon="-7.8420561"><ele>414.4</ele><time>2026-04-25T10:12:47.79Z</time></trkpt><trkpt lat="41.1441662" lon="-7.8419641"><ele>410.0</ele><time>2026-04-25T10:12:49.795Z</time></trkpt><trkpt lat="41.1441228" lon="-7.8418573"><ele>405.6</ele><time>2026-04-25T10:12:51.794Z</time></trkpt><trkpt lat="41.1441036" lon="-7.8417545"><ele>401.2</ele><time>2026-04-25T10:12:53.791Z</time></trkpt><trkpt lat="41.144115" lon="-7.8416358"><ele>396.79999999999995</ele><time>2026-04-25T10:12:56.796Z</time></trkpt><trkpt lat="41.1441838" lon="-7.841456"><ele>392.4</ele><time>2026-04-25T10:13:02.793Z</time></trkpt><trkpt lat="41.1442301" lon="-7.8413579"><ele>388.0</ele><time>2026-04-25T10:13:05.791Z</time></trkpt><trkpt lat="41.1442496" lon="-7.8412769"><ele>388.0</ele><time>2026-04-25T10:13:07.793Z</time></trkpt><trkpt lat="41.1442464" lon="-7.8411414"><ele>388.0</ele><time>2026-04-25T10:13:10.792Z</time></trkpt><trkpt lat="41.1442496" lon="-7.8410231"><ele>388.0</ele><time>2026-04-25T10:13:13.79Z</time></trkpt><trkpt lat="41.1442736" lon="-7.8409339"><ele>388.0</ele><time>2026-04-25T10:13:15.801Z</time></trkpt><trkpt lat="41.1442985" lon="-7.840849"><ele>388.0</ele><time>2026-04-25T10:13:17.794Z</time></trkpt><trkpt lat="41.1443325" lon="-7.8406747"><ele>386.1666666666667</ele><time>2026-04-25T10:13:21.792Z</time></trkpt><trkpt lat="41.1443395" lon="-7.8405546"><ele>384.33333333333337</ele><time>2026-04-25T10:13:24.793Z</time></trkpt><trkpt lat="41.1443448" lon="-7.8404661"><ele>382.5</ele><time>2026-04-25T10:13:26.794Z</time></trkpt><trkpt lat="41.1443726" lon="-7.8403585"><ele>380.6666666666667</ele><time>2026-04-25T10:13:29.79Z</time></trkpt><trkpt lat="41.1444216" lon="-7.8402694"><ele>378.83333333333337</ele><time>2026-04-25T10:13:32.79Z</time></trkpt><trkpt lat="41.1444723" lon="-7.8401715"><ele>377.0</ele><time>2026-04-25T10:13:35.792Z</time></trkpt><trkpt lat="41.1444895" lon="-7.8400567"><ele>374.0</ele><time>2026-04-25T10:13:38.79Z</time></trkpt><trkpt lat="41.1444861" lon="-7.839845"><ele>371.0</ele><time>2026-04-25T10:13:43.79Z</time></trkpt><trkpt lat="41.1444895" lon="-7.8397462"><ele>368.0</ele><time>2026-04-25T10:13:45.795Z</time></trkpt><trkpt lat="41.1445025" lon="-7.8396626"><ele>365.0</ele><time>2026-04-25T10:13:47.792Z</time></trkpt><trkpt lat="41.1445055" lon="-7.839543"><ele>362.0</ele><time>2026-04-25T10:13:50.792Z</time></trkpt><trkpt lat="41.1444795" lon="-7.8394412"><ele>362.0</ele><time>2026-04-25T10:13:53.798Z</time></trkpt><trkpt lat="41.1444941" lon="-7.8393447"><ele>362.0</ele><time>2026-04-25T10:13:57.797Z</time></trkpt><trkpt lat="41.1445636" lon="-7.839356"><ele>362.0</ele><time>2026-04-25T10:13:59.791Z</time></trkpt><trkpt lat="41.1447366" lon="-7.839393"><ele>362.0</ele><time>2026-04-25T10:14:03.795Z</time></trkpt><trkpt lat="41.1448255" lon="-7.8394392"><ele>362.0</ele><time>2026-04-25T10:14:05.792Z</time></trkpt><trkpt lat="41.144889" lon="-7.8394922"><ele>358.0</ele><time>2026-04-25T10:14:07.792Z</time></trkpt><trkpt lat="41.1449428" lon="-7.8395654"><ele>354.0</ele><time>2026-04-25T10:14:09.794Z</time></trkpt><trkpt lat="41.1450251" lon="-7.8396371"><ele>350.0</ele><time>2026-04-25T10:14:11.793Z</time></trkpt><trkpt lat="41.1451252" lon="-7.8396885"><ele>346.0</ele><time>2026-04-25T10:14:13.789Z</time></trkpt><trkpt lat="41.1452228" lon="-7.8397402"><ele>342.0</ele><time>2026-04-25T10:14:15.794Z</time></trkpt><trkpt lat="41.145325" lon="-7.8398038"><ele>342.0</ele><time>2026-04-25T10:14:17.796Z</time></trkpt><trkpt lat="41.1454314" lon="-7.8398558"><ele>342.0</ele><time>2026-04-25T10:14:19.792Z</time></trkpt><trkpt lat="41.1455311" lon="-7.8398994"><ele>342.0</ele><time>2026-04-25T10:14:21.791Z</time></trkpt><trkpt lat="41.1456894" lon="-7.8400004"><ele>342.0</ele><time>2026-04-25T10:14:25.793Z</time></trkpt><trkpt lat="41.1457438" lon="-7.840081"><ele>339.5</ele><time>2026-04-25T10:14:27.797Z</time></trkpt><trkpt lat="41.1457811" lon="-7.8402"><ele>337.0</ele><time>2026-04-25T10:14:29.791Z</time></trkpt><trkpt lat="41.1458357" lon="-7.8402982"><ele>334.5</ele><time>2026-04-25T10:14:31.792Z</time></trkpt><trkpt lat="41.1458836" lon="-7.8403892"><ele>332.0</ele><time>2026-04-25T10:14:33.791Z</time></trkpt><trkpt lat="41.1458854" lon="-7.8405118"><ele>329.5</ele><time>2026-04-25T10:14:36.789Z</time></trkpt><trkpt lat="41.1458945" lon="-7.8406003"><ele>327.0</ele><time>2026-04-25T10:14:38.802Z</time></trkpt><trkpt lat="41.145929" lon="-7.8406805"><ele>327.0</ele><time>2026-04-25T10:14:40.791Z</time></trkpt><trkpt lat="41.1459993" lon="-7.8407465"><ele>327.0</ele><time>2026-04-25T10:14:42.792Z</time></trkpt><trkpt lat="41.1461942" lon="-7.8408182"><ele>327.0</ele><time>2026-04-25T10:14:46.789Z</time></trkpt><trkpt lat="41.1462999" lon="-7.8408338"><ele>327.0</ele><time>2026-04-25T10:14:48.79Z</time></trkpt><trkpt lat="41.1464116" lon="-7.8408893"><ele>327.5</ele><time>2026-04-25T10:14:50.794Z</time></trkpt><trkpt lat="41.1465029" lon="-7.8409851"><ele>328.0</ele><time>2026-04-25T10:14:52.788Z</time></trkpt><trkpt lat="41.1465906" lon="-7.8410871"><ele>328.5</ele><time>2026-04-25T10:14:54.801Z</time></trkpt><trkpt lat="41.1466734" lon="-7.8411977"><ele>329.0</ele><time>2026-04-25T10:14:56.792Z</time></trkpt><trkpt lat="41.1467534" lon="-7.8412818"><ele>329.0</ele><time>2026-04-25T10:14:58.794Z</time></trkpt><trkpt lat="41.146856" lon="-7.8413066"><ele>329.0</ele><time>2026-04-25T10:15:00.79Z</time></trkpt><trkpt lat="41.1469614" lon="-7.8413255"><ele>329.0</ele><time>2026-04-25T10:15:02.79Z</time></trkpt><trkpt lat="41.14705" lon="-7.8413823"><ele>329.0</ele><time>2026-04-25T10:15:04.794Z</time></trkpt><trkpt lat="41.1471708" lon="-7.8415111"><ele>329.0</ele><time>2026-04-25T10:15:08.793Z</time></trkpt><trkpt lat="41.1472339" lon="-7.8415511"><ele>329.0</ele><time>2026-04-25T10:15:11.794Z</time></trkpt><trkpt lat="41.1472949" lon="-7.8415173"><ele>329.0</ele><time>2026-04-25T10:15:13.788Z</time></trkpt><trkpt lat="41.1473773" lon="-7.8414472"><ele>329.0</ele><time>2026-04-25T10:15:15.791Z</time></trkpt><trkpt lat="41.1474701" lon="-7.8413728"><ele>329.0</ele><time>2026-04-25T10:15:17.796Z</time></trkpt><trkpt lat="41.1475554" lon="-7.8412902"><ele>329.0</ele><time>2026-04-25T10:15:19.793Z</time></trkpt><trkpt lat="41.1476135" lon="-7.8411836"><ele>324.8</ele><time>2026-04-25T10:15:21.79Z</time></trkpt><trkpt lat="41.1476683" lon="-7.8410951"><ele>320.59999999999997</ele><time>2026-04-25T10:15:23.789Z</time></trkpt><trkpt lat="41.1477028" lon="-7.8410199"><ele>316.4</ele><time>2026-04-25T10:15:25.796Z</time></trkpt><trkpt lat="41.1478402" lon="-7.8409465"><ele>312.2</ele><time>2026-04-25T10:15:31.794Z</time></trkpt><trkpt lat="41.1479061" lon="-7.8409588"><ele>308.0</ele><time>2026-04-25T10:15:33.794Z</time></trkpt><trkpt lat="41.1479882" lon="-7.8409438"><ele>306.2</ele><time>2026-04-25T10:15:35.792Z</time></trkpt><trkpt lat="41.1480762" lon="-7.8409224"><ele>304.4</ele><time>2026-04-25T10:15:37.791Z</time></trkpt><trkpt lat="41.1481689" lon="-7.8408788"><ele>302.59999999999997</ele><time>2026-04-25T10:15:39.792Z</time></trkpt><trkpt lat="41.1482717" lon="-7.8408462"><ele>300.8</ele><time>2026-04-25T10:15:41.792Z</time></trkpt><trkpt lat="41.1483756" lon="-7.8408017"><ele>299.0</ele><time>2026-04-25T10:15:43.789Z</time></trkpt><trkpt lat="41.1484873" lon="-7.8407601"><ele>297.2</ele><time>2026-04-25T10:15:45.79Z</time></trkpt><trkpt lat="41.1485828" lon="-7.8407181"><ele>295.4</ele><time>2026-04-25T10:15:47.797Z</time></trkpt><trkpt lat="41.1487318" lon="-7.840668"><ele>293.6</ele><time>2026-04-25T10:15:51.796Z</time></trkpt><trkpt lat="41.1487935" lon="-7.8406487"><ele>291.8</ele><time>2026-04-25T10:15:53.792Z</time></trkpt><trkpt lat="41.1488141" lon="-7.8405321"><ele>290.0</ele><time>2026-04-25T10:15:59.797Z</time></trkpt><trkpt lat="41.1487989" lon="-7.8404503"><ele>290.0</ele><time>2026-04-25T10:16:00.797Z</time></trkpt><trkpt lat="41.1487737" lon="-7.8403576"><ele>290.0</ele><time>2026-04-25T10:16:01.794Z</time></trkpt><trkpt lat="41.148738" lon="-7.8402659"><ele>290.0</ele><time>2026-04-25T10:16:02.79Z</time></trkpt><trkpt lat="41.1486915" lon="-7.8401763"><ele>290.0</ele><time>2026-04-25T10:16:03.788Z</time></trkpt><trkpt lat="41.1486295" lon="-7.8400931"><ele>290.0</ele><time>2026-04-25T10:16:04.795Z</time></trkpt><trkpt lat="41.1485602" lon="-7.8400143"><ele>290.0</ele><time>2026-04-25T10:16:05.791Z</time></trkpt><trkpt lat="41.1484779" lon="-7.8399555"><ele>287.8</ele><time>2026-04-25T10:16:06.787Z</time></trkpt><trkpt lat="41.14839" lon="-7.8399082"><ele>285.6</ele><time>2026-04-25T10:16:07.813Z</time></trkpt><trkpt lat="41.1483013" lon="-7.8398707"><ele>283.4</ele><time>2026-04-25T10:16:08.789Z</time></trkpt><trkpt lat="41.1481336" lon="-7.8398101"><ele>281.2</ele><time>2026-04-25T10:16:10.79Z</time></trkpt><trkpt lat="41.1480693" lon="-7.8397807"><ele>279.0</ele><time>2026-04-25T10:16:11.791Z</time></trkpt><trkpt lat="41.1479856" lon="-7.8397255"><ele>279.0</ele><time>2026-04-25T10:16:13.794Z</time></trkpt><trkpt lat="41.1480471" lon="-7.8396407"><ele>279.0</ele><time>2026-04-25T10:16:17.793Z</time></trkpt><trkpt lat="41.1481299" lon="-7.8396258"><ele>279.0</ele><time>2026-04-25T10:16:19.789Z</time></trkpt><trkpt lat="41.1482114" lon="-7.8396049"><ele>279.0</ele><time>2026-04-25T10:16:21.798Z</time></trkpt><trkpt lat="41.148317" lon="-7.8395646"><ele>279.0</ele><time>2026-04-25T10:16:23.791Z</time></trkpt><trkpt lat="41.1483771" lon="-7.8395384"><ele>279.0</ele><time>2026-04-25T10:16:24.788Z</time></trkpt><trkpt lat="41.1484397" lon="-7.8395064"><ele>278.5</ele><time>2026-04-25T10:16:25.79Z</time></trkpt><trkpt lat="41.1485001" lon="-7.8394797"><ele>278.0</ele><time>2026-04-25T10:16:26.795Z</time></trkpt><trkpt lat="41.14862" lon="-7.8394392"><ele>277.5</ele><time>2026-04-25T10:16:28.791Z</time></trkpt><trkpt lat="41.1487386" lon="-7.8394056"><ele>277.0</ele><time>2026-04-25T10:16:30.792Z</time></trkpt><trkpt lat="41.1489043" lon="-7.8392513"><ele>272.0</ele><time>2026-04-25T10:16:34.789Z</time></trkpt><trkpt lat="41.1489777" lon="-7.8391495"><ele>267.0</ele><time>2026-04-25T10:16:36.788Z</time></trkpt><trkpt lat="41.1490638" lon="-7.8390539"><ele>262.0</ele><time>2026-04-25T10:16:38.788Z</time></trkpt><trkpt lat="41.149154" lon="-7.8389632"><ele>257.0</ele><time>2026-04-25T10:16:40.792Z</time></trkpt><trkpt lat="41.1492329" lon="-7.8388627"><ele>252.0</ele><time>2026-04-25T10:16:42.788Z</time></trkpt><trkpt lat="41.1493037" lon="-7.8387733"><ele>251.0</ele><time>2026-04-25T10:16:44.792Z</time></trkpt><trkpt lat="41.1493778" lon="-7.8386959"><ele>250.0</ele><time>2026-04-25T10:16:46.793Z</time></trkpt><trkpt lat="41.149455" lon="-7.8386419"><ele>249.0</ele><time>2026-04-25T10:16:48.793Z</time></trkpt><trkpt lat="41.1495272" lon="-7.8386061"><ele>248.0</ele><time>2026-04-25T10:16:50.787Z</time></trkpt><trkpt lat="41.1495377" lon="-7.838519"><ele>247.0</ele><time>2026-04-25T10:16:54.794Z</time></trkpt><trkpt lat="41.1493533" lon="-7.8384577"><ele>243.0</ele><time>2026-04-25T10:16:58.799Z</time></trkpt><trkpt lat="41.1492494" lon="-7.8384427"><ele>239.0</ele><time>2026-04-25T10:17:00.789Z</time></trkpt><trkpt lat="41.1491521" lon="-7.8384359"><ele>235.0</ele><time>2026-04-25T10:17:02.795Z</time></trkpt><trkpt lat="41.1490503" lon="-7.8384305"><ele>231.0</ele><time>2026-04-25T10:17:04.788Z</time></trkpt><trkpt lat="41.1489478" lon="-7.8384373"><ele>227.0</ele><time>2026-04-25T10:17:06.792Z</time></trkpt><trkpt lat="41.1488569" lon="-7.8384281"><ele>227.0</ele><time>2026-04-25T10:17:08.788Z</time></trkpt><trkpt lat="41.1487624" lon="-7.8384078"><ele>227.0</ele><time>2026-04-25T10:17:10.801Z</time></trkpt><trkpt lat="41.14866" lon="-7.8383671"><ele>227.0</ele><time>2026-04-25T10:17:12.801Z</time></trkpt><trkpt lat="41.1485471" lon="-7.8383462"><ele>227.0</ele><time>2026-04-25T10:17:14.792Z</time></trkpt><trkpt lat="41.1484462" lon="-7.8383166"><ele>227.0</ele><time>2026-04-25T10:17:16.799Z</time></trkpt><trkpt lat="41.1482918" lon="-7.8382328"><ele>227.00000000000003</ele><time>2026-04-25T10:17:21.791Z</time></trkpt><trkpt lat="41.1482422" lon="-7.8381132"><ele>227.0</ele><time>2026-04-25T10:17:24.789Z</time></trkpt><trkpt lat="41.1482164" lon="-7.8380257"><ele>227.0</ele><time>2026-04-25T10:17:26.789Z</time></trkpt><trkpt lat="41.1482078" lon="-7.8379338"><ele>227.0</ele><time>2026-04-25T10:17:28.797Z</time></trkpt><trkpt lat="41.1482051" lon="-7.8378307"><ele>227.00000000000003</ele><time>2026-04-25T10:17:30.786Z</time></trkpt><trkpt lat="41.1482039" lon="-7.8377226"><ele>227.0</ele><time>2026-04-25T10:17:32.79Z</time></trkpt><trkpt lat="41.1482137" lon="-7.8376201"><ele>225.39999999999998</ele><time>2026-04-25T10:17:34.794Z</time></trkpt><trkpt lat="41.1482375" lon="-7.8375304"><ele>223.79999999999998</ele><time>2026-04-25T10:17:36.791Z</time></trkpt><trkpt lat="41.1482583" lon="-7.8374448"><ele>222.2</ele><time>2026-04-25T10:17:38.786Z</time></trkpt><trkpt lat="41.1482996" lon="-7.8372496"><ele>220.6</ele><time>2026-04-25T10:17:44.79Z</time></trkpt><trkpt lat="41.1483183" lon="-7.8371344"><ele>219.0</ele><time>2026-04-25T10:17:47.79Z</time></trkpt><trkpt lat="41.1483072" lon="-7.8370094"><ele>219.0</ele><time>2026-04-25T10:17:50.794Z</time></trkpt><trkpt lat="41.1483066" lon="-7.8369242"><ele>219.0</ele><time>2026-04-25T10:17:52.798Z</time></trkpt><trkpt lat="41.1483152" lon="-7.8368288"><ele>219.0</ele><time>2026-04-25T10:17:54.796Z</time></trkpt><trkpt lat="41.1483304" lon="-7.8367436"><ele>219.0</ele><time>2026-04-25T10:17:56.799Z</time></trkpt><trkpt lat="41.1483548" lon="-7.8366548"><ele>219.0</ele><time>2026-04-25T10:17:58.791Z</time></trkpt><trkpt lat="41.1483896" lon="-7.8365758"><ele>219.0</ele><time>2026-04-25T10:18:00.793Z</time></trkpt><trkpt lat="41.1484923" lon="-7.8364216"><ele>218.83333333333334</ele><time>2026-04-25T10:18:05.791Z</time></trkpt><trkpt lat="41.1485283" lon="-7.836351"><ele>218.66666666666669</ele><time>2026-04-25T10:18:07.792Z</time></trkpt><trkpt lat="41.1485734" lon="-7.8362852"><ele>218.5</ele><time>2026-04-25T10:18:09.789Z</time></trkpt><trkpt lat="41.1486154" lon="-7.8361926"><ele>218.33333333333334</ele><time>2026-04-25T10:18:11.787Z</time></trkpt><trkpt lat="41.1486562" lon="-7.8360971"><ele>218.16666666666669</ele><time>2026-04-25T10:18:13.791Z</time></trkpt><trkpt lat="41.1486891" lon="-7.8359824"><ele>218.0</ele><time>2026-04-25T10:18:15.791Z</time></trkpt><trkpt lat="41.1487162" lon="-7.8358769"><ele>219.60000000000002</ele><time>2026-04-25T10:18:17.795Z</time></trkpt><trkpt lat="41.1487371" lon="-7.8357743"><ele>221.20000000000002</ele><time>2026-04-25T10:18:19.79Z</time></trkpt><trkpt lat="41.1487751" lon="-7.8356649"><ele>222.8</ele><time>2026-04-25T10:18:22.789Z</time></trkpt><trkpt lat="41.1488423" lon="-7.8354694"><ele>224.4</ele><time>2026-04-25T10:18:26.789Z</time></trkpt><trkpt lat="41.1488598" lon="-7.8353623"><ele>226.0</ele><time>2026-04-25T10:18:28.789Z</time></trkpt><trkpt lat="41.1488664" lon="-7.8352647"><ele>225.99999999999997</ele><time>2026-04-25T10:18:30.786Z</time></trkpt><trkpt lat="41.1488648" lon="-7.8351644"><ele>226.0</ele><time>2026-04-25T10:18:32.787Z</time></trkpt><trkpt lat="41.1488757" lon="-7.8350477"><ele>226.0</ele><time>2026-04-25T10:18:34.788Z</time></trkpt><trkpt lat="41.148901" lon="-7.8349292"><ele>226.0</ele><time>2026-04-25T10:18:36.789Z</time></trkpt><trkpt lat="41.1489238" lon="-7.8348341"><ele>225.99999999999997</ele><time>2026-04-25T10:18:38.792Z</time></trkpt><trkpt lat="41.1489352" lon="-7.8347404"><ele>226.0</ele><time>2026-04-25T10:18:40.787Z</time></trkpt><trkpt lat="41.1489412" lon="-7.8346296"><ele>226.25</ele><time>2026-04-25T10:18:42.802Z</time></trkpt><trkpt lat="41.1489487" lon="-7.8345021"><ele>226.5</ele><time>2026-04-25T10:18:44.794Z</time></trkpt><trkpt lat="41.1489698" lon="-7.8342757"><ele>226.75</ele><time>2026-04-25T10:18:48.789Z</time></trkpt><trkpt lat="41.148958" lon="-7.8341524"><ele>227.0</ele><time>2026-04-25T10:18:50.792Z</time></trkpt><trkpt lat="41.1489221" lon="-7.8340435"><ele>227.2</ele><time>2026-04-25T10:18:52.798Z</time></trkpt><trkpt lat="41.1488679" lon="-7.8339444"><ele>227.39999999999998</ele><time>2026-04-25T10:18:54.796Z</time></trkpt><trkpt lat="41.1488074" lon="-7.8338574"><ele>227.60000000000002</ele><time>2026-04-25T10:18:56.79Z</time></trkpt><trkpt lat="41.148742" lon="-7.833765"><ele>227.8</ele><time>2026-04-25T10:18:58.787Z</time></trkpt><trkpt lat="41.1486778" lon="-7.8336864"><ele>228.0</ele><time>2026-04-25T10:19:00.79Z</time></trkpt><trkpt lat="41.1486147" lon="-7.8335971"><ele>228.0</ele><time>2026-04-25T10:19:02.785Z</time></trkpt><trkpt lat="41.1485442" lon="-7.8335211"><ele>228.0</ele><time>2026-04-25T10:19:04.795Z</time></trkpt><trkpt lat="41.1484496" lon="-7.8334479"><ele>228.0</ele><time>2026-04-25T10:19:06.792Z</time></trkpt><trkpt lat="41.1482551" lon="-7.8333341"><ele>228.0</ele><time>2026-04-25T10:19:10.789Z</time></trkpt><trkpt lat="41.1481781" lon="-7.8332905"><ele>227.5</ele><time>2026-04-25T10:19:12.793Z</time></trkpt><trkpt lat="41.1480998" lon="-7.8332666"><ele>227.0</ele><time>2026-04-25T10:19:15.791Z</time></trkpt><trkpt lat="41.1480614" lon="-7.8331746"><ele>226.5</ele><time>2026-04-25T10:19:19.788Z</time></trkpt><trkpt lat="41.1480271" lon="-7.8330494"><ele>226.0</ele><time>2026-04-25T10:19:22.794Z</time></trkpt><trkpt lat="41.1479931" lon="-7.8329349"><ele>225.5</ele><time>2026-04-25T10:19:24.795Z</time></trkpt><trkpt lat="41.1479612" lon="-7.8328531"><ele>225.0</ele><time>2026-04-25T10:19:26.787Z</time></trkpt><trkpt lat="41.1479369" lon="-7.8327699"><ele>220.4</ele><time>2026-04-25T10:19:28.79Z</time></trkpt><trkpt lat="41.1478198" lon="-7.832623"><ele>215.8</ele><time>2026-04-25T10:19:33.788Z</time></trkpt><trkpt lat="41.1478319" lon="-7.8324961"><ele>211.2</ele><time>2026-04-25T10:19:36.788Z</time></trkpt><trkpt lat="41.1478684" lon="-7.8323976"><ele>206.6</ele><time>2026-04-25T10:19:38.787Z</time></trkpt><trkpt lat="41.1479063" lon="-7.8322952"><ele>202.0</ele><time>2026-04-25T10:19:40.791Z</time></trkpt><trkpt lat="41.1479558" lon="-7.8321903"><ele>202.0</ele><time>2026-04-25T10:19:42.791Z</time></trkpt><trkpt lat="41.1480054" lon="-7.8320932"><ele>202.0</ele><time>2026-04-25T10:19:44.791Z</time></trkpt><trkpt lat="41.1480664" lon="-7.8320505"><ele>202.0</ele><time>2026-04-25T10:19:46.788Z</time></trkpt><trkpt lat="41.1481433" lon="-7.8320964"><ele>202.0</ele><time>2026-04-25T10:19:49.789Z</time></trkpt><trkpt lat="41.148276" lon="-7.8322153"><ele>202.0</ele><time>2026-04-25T10:19:53.789Z</time></trkpt><trkpt lat="41.1483251" lon="-7.8322791"><ele>200.33333333333331</ele><time>2026-04-25T10:19:55.79Z</time></trkpt><trkpt lat="41.1483871" lon="-7.8322256"><ele>198.66666666666666</ele><time>2026-04-25T10:20:05.787Z</time></trkpt><trkpt lat="41.14842" lon="-7.8321342"><ele>197.0</ele><time>2026-04-25T10:20:08.793Z</time></trkpt><trkpt lat="41.1484506" lon="-7.8320568"><ele>195.33333333333331</ele><time>2026-04-25T10:20:11.788Z</time></trkpt><trkpt lat="41.148489" lon="-7.8318835"><ele>193.66666666666666</ele><time>2026-04-25T10:20:22.792Z</time></trkpt><trkpt lat="41.1485045" lon="-7.8317972"><ele>192.0</ele><time>2026-04-25T10:20:29.786Z</time></trkpt><trkpt lat="41.148513" lon="-7.8317015"><ele>190.16666666666666</ele><time>2026-04-25T10:20:32.79Z</time></trkpt><trkpt lat="41.1485119" lon="-7.8315147"><ele>188.33333333333334</ele><time>2026-04-25T10:20:42.79Z</time></trkpt><trkpt lat="41.1485048" lon="-7.8314259"><ele>186.5</ele><time>2026-04-25T10:20:45.793Z</time></trkpt><trkpt lat="41.1485029" lon="-7.8313179"><ele>184.66666666666669</ele><time>2026-04-25T10:20:49.789Z</time></trkpt><trkpt lat="41.1484924" lon="-7.8312328"><ele>182.83333333333334</ele><time>2026-04-25T10:20:52.787Z</time></trkpt><trkpt lat="41.1484655" lon="-7.83113"><ele>181.0</ele><time>2026-04-25T10:20:56.789Z</time></trkpt><trkpt lat="41.148423" lon="-7.8309532"><ele>177.66666666666669</ele><time>2026-04-25T10:21:02.791Z</time></trkpt><trkpt lat="41.1484" lon="-7.8308493"><ele>174.33333333333334</ele><time>2026-04-25T10:21:06.787Z</time></trkpt><trkpt lat="41.1484114" lon="-7.8307334"><ele>171.0</ele><time>2026-04-25T10:21:10.786Z</time></trkpt><trkpt lat="41.1484582" lon="-7.8306182"><ele>167.66666666666666</ele><time>2026-04-25T10:21:13.79Z</time></trkpt><trkpt lat="41.1484896" lon="-7.8305277"><ele>164.33333333333331</ele><time>2026-04-25T10:21:15.797Z</time></trkpt><trkpt lat="41.1485062" lon="-7.8304292"><ele>161.0</ele><time>2026-04-25T10:21:17.795Z</time></trkpt><trkpt lat="41.1485332" lon="-7.8302447"><ele>161.0</ele><time>2026-04-25T10:21:21.794Z</time></trkpt><trkpt lat="41.1485129" lon="-7.8301497"><ele>161.0</ele><time>2026-04-25T10:21:24.784Z</time></trkpt><trkpt lat="41.1484921" lon="-7.8300502"><ele>161.0</ele><time>2026-04-25T10:21:27.789Z</time></trkpt><trkpt lat="41.1484816" lon="-7.8299531"><ele>161.0</ele><time>2026-04-25T10:21:30.795Z</time></trkpt><trkpt lat="41.1485003" lon="-7.8298595"><ele>161.0</ele><time>2026-04-25T10:21:33.796Z</time></trkpt><trkpt lat="41.1485322" lon="-7.8297611"><ele>161.0</ele><time>2026-04-25T10:21:36.801Z</time></trkpt><trkpt lat="41.1485653" lon="-7.8296592"><ele>158.0</ele><time>2026-04-25T10:21:39.805Z</time></trkpt><trkpt lat="41.1486574" lon="-7.8294998"><ele>155.0</ele><time>2026-04-25T10:21:44.796Z</time></trkpt><trkpt lat="41.1487053" lon="-7.8294306"><ele>152.0</ele><time>2026-04-25T10:21:46.788Z</time></trkpt><trkpt lat="41.1487547" lon="-7.8293532"><ele>149.0</ele><time>2026-04-25T10:21:48.791Z</time></trkpt><trkpt lat="41.1488065" lon="-7.8293005"><ele>146.0</ele><time>2026-04-25T10:21:50.79Z</time></trkpt><trkpt lat="41.1488579" lon="-7.829241"><ele>143.0</ele><time>2026-04-25T10:21:52.788Z</time></trkpt><trkpt lat="41.1489106" lon="-7.8291882"><ele>139.8</ele><time>2026-04-25T10:21:54.787Z</time></trkpt><trkpt lat="41.1489657" lon="-7.8291236"><ele>136.60000000000002</ele><time>2026-04-25T10:21:56.799Z</time></trkpt><trkpt lat="41.1490236" lon="-7.8290666"><ele>133.39999999999998</ele><time>2026-04-25T10:21:58.788Z</time></trkpt><trkpt lat="41.1490841" lon="-7.8289903"><ele>130.2</ele><time>2026-04-25T10:22:01.789Z</time></trkpt><trkpt lat="41.1491682" lon="-7.8288264"><ele>127.0</ele><time>2026-04-25T10:22:07.785Z</time></trkpt><trkpt lat="41.1491714" lon="-7.8287238"><ele>126.6</ele><time>2026-04-25T10:22:09.792Z</time></trkpt><trkpt lat="41.1491634" lon="-7.8286234"><ele>126.19999999999999</ele><time>2026-04-25T10:22:11.788Z</time></trkpt><trkpt lat="41.1491408" lon="-7.8285187"><ele>125.8</ele><time>2026-04-25T10:22:13.794Z</time></trkpt><trkpt lat="41.1491062" lon="-7.8284017"><ele>125.4</ele><time>2026-04-25T10:22:15.793Z</time></trkpt><trkpt lat="41.1490442" lon="-7.8282667"><ele>125.0</ele><time>2026-04-25T10:22:17.786Z</time></trkpt><trkpt lat="41.1489887" lon="-7.8281449"><ele>121.4</ele><time>2026-04-25T10:22:19.789Z</time></trkpt><trkpt lat="41.1489584" lon="-7.8280368"><ele>117.8</ele><time>2026-04-25T10:22:21.785Z</time></trkpt><trkpt lat="41.1489327" lon="-7.8279463"><ele>114.19999999999999</ele><time>2026-04-25T10:22:23.793Z</time></trkpt><trkpt lat="41.1489264" lon="-7.8277665"><ele>110.6</ele><time>2026-04-25T10:22:27.792Z</time></trkpt><trkpt lat="41.148993" lon="-7.8276987"><ele>107.0</ele><time>2026-04-25T10:22:29.788Z</time></trkpt><trkpt lat="41.14906" lon="-7.8276344"><ele>104.0</ele><time>2026-04-25T10:22:31.786Z</time></trkpt><trkpt lat="41.1490457" lon="-7.8275114"><ele>100.99999999999999</ele><time>2026-04-25T10:22:34.786Z</time></trkpt><trkpt lat="41.1489658" lon="-7.8274723"><ele>98.0</ele><time>2026-04-25T10:22:37.796Z</time></trkpt><trkpt lat="41.148888" lon="-7.8275103"><ele>95.0</ele><time>2026-04-25T10:22:40.789Z</time></trkpt><trkpt lat="41.1488968" lon="-7.8274191"><ele>92.0</ele><time>2026-04-25T10:22:50.79Z</time></trkpt><trkpt lat="41.1490463" lon="-7.8273931"><ele>91.33333333333334</ele><time>2026-04-25T10:22:57.787Z</time></trkpt><trkpt lat="41.1491137" lon="-7.8273937"><ele>90.66666666666667</ele><time>2026-04-25T10:23:00.787Z</time></trkpt><trkpt lat="41.149182" lon="-7.8274187"><ele>90.0</ele><time>2026-04-25T10:23:03.786Z</time></trkpt><trkpt lat="41.1492492" lon="-7.8274353"><ele>89.33333333333333</ele><time>2026-04-25T10:23:06.788Z</time></trkpt><trkpt lat="41.1493237" lon="-7.8274269"><ele>88.66666666666666</ele><time>2026-04-25T10:23:09.791Z</time></trkpt><trkpt lat="41.1493984" lon="-7.8274617"><ele>88.0</ele><time>2026-04-25T10:23:12.783Z</time></trkpt><trkpt lat="41.1495484" lon="-7.8275339"><ele>88.0</ele><time>2026-04-25T10:23:17.799Z</time></trkpt><trkpt lat="41.14961" lon="-7.8274881"><ele>88.0</ele><time>2026-04-25T10:23:19.788Z</time></trkpt><trkpt lat="41.1496329" lon="-7.8273844"><ele>88.0</ele><time>2026-04-25T10:23:22.788Z</time></trkpt><trkpt lat="41.1496156" lon="-7.8272999"><ele>88.0</ele><time>2026-04-25T10:23:25.794Z</time></trkpt><trkpt lat="41.1496023" lon="-7.8272142"><ele>88.0</ele><time>2026-04-25T10:23:29.789Z</time></trkpt><trkpt lat="41.1496216" lon="-7.8271176"><ele>88.0</ele><time>2026-04-25T10:23:32.788Z</time></trkpt><trkpt lat="41.1496255" lon="-7.8270279"><ele>88.0</ele><time>2026-04-25T10:23:34.793Z</time></trkpt><trkpt lat="41.1494735" lon="-7.8268804"><ele>88.0</ele><time>2026-04-25T10:23:38.788Z</time></trkpt><trkpt lat="41.1494161" lon="-7.8268162"><ele>88.0</ele><time>2026-04-25T10:23:40.793Z</time></trkpt><trkpt lat="41.1494142" lon="-7.8266756"><ele>88.0</ele><time>2026-04-25T10:23:42.787Z</time></trkpt><trkpt lat="41.1494323" lon="-7.8265567"><ele>88.0</ele><time>2026-04-25T10:23:44.787Z</time></trkpt><trkpt lat="41.1494997" lon="-7.8264381"><ele>88.0</ele><time>2026-04-25T10:23:46.793Z</time></trkpt><trkpt lat="41.1495466" lon="-7.8263791"><ele>88.0</ele><time>2026-04-25T10:23:47.801Z</time></trkpt><trkpt lat="41.1496323" lon="-7.8262655"><ele>84.60000000000001</ele><time>2026-04-25T10:23:49.79Z</time></trkpt><trkpt lat="41.149714" lon="-7.8261524"><ele>81.2</ele><time>2026-04-25T10:23:51.787Z</time></trkpt><trkpt lat="41.1497523" lon="-7.8260232"><ele>77.8</ele><time>2026-04-25T10:23:53.795Z</time></trkpt><trkpt lat="41.1497739" lon="-7.8258952"><ele>74.4</ele><time>2026-04-25T10:23:55.792Z</time></trkpt><trkpt lat="41.1497345" lon="-7.8257502"><ele>71.0</ele><time>2026-04-25T10:24:00.788Z</time></trkpt><trkpt lat="41.1496651" lon="-7.8256985"><ele>69.0</ele><time>2026-04-25T10:24:02.788Z</time></trkpt><trkpt lat="41.1495997" lon="-7.8256385"><ele>67.0</ele><time>2026-04-25T10:24:04.785Z</time></trkpt><trkpt lat="41.1495412" lon="-7.8255581"><ele>65.0</ele><time>2026-04-25T10:24:06.794Z</time></trkpt><trkpt lat="41.1494826" lon="-7.8254611"><ele>63.0</ele><time>2026-04-25T10:24:08.786Z</time></trkpt><trkpt lat="41.1494038" lon="-7.8253701"><ele>61.0</ele><time>2026-04-25T10:24:10.793Z</time></trkpt><trkpt lat="41.149321" lon="-7.8252769"><ele>61.0</ele><time>2026-04-25T10:24:12.789Z</time></trkpt><trkpt lat="41.1492252" lon="-7.8251898"><ele>60.99999999999999</ele><time>2026-04-25T10:24:14.785Z</time></trkpt><trkpt lat="41.1491761" lon="-7.8251357"><ele>60.99999999999999</ele><time>2026-04-25T10:24:15.797Z</time></trkpt><trkpt lat="41.1491044" lon="-7.8250305"><ele>61.0</ele><time>2026-04-25T10:24:17.785Z</time></trkpt><trkpt lat="41.14903" lon="-7.8248814"><ele>61.0</ele><time>2026-04-25T10:29:27.784Z</time></trkpt><trkpt lat="41.1488785" lon="-7.8246999"><ele>60.8</ele><time>2026-04-25T10:29:32.788Z</time></trkpt><trkpt lat="41.1488054" lon="-7.8246266"><ele>60.599999999999994</ele><time>2026-04-25T10:29:34.783Z</time></trkpt><trkpt lat="41.1487333" lon="-7.8245485"><ele>60.4</ele><time>2026-04-25T10:29:36.787Z</time></trkpt><trkpt lat="41.1486639" lon="-7.8244471"><ele>60.2</ele><time>2026-04-25T10:29:38.784Z</time></trkpt><trkpt lat="41.1486064" lon="-7.8243363"><ele>60.0</ele><time>2026-04-25T10:29:40.783Z</time></trkpt><trkpt lat="41.1485319" lon="-7.8242341"><ele>60.0</ele><time>2026-04-25T10:29:42.779Z</time></trkpt><trkpt lat="41.1484515" lon="-7.82413"><ele>60.0</ele><time>2026-04-25T10:29:44.785Z</time></trkpt><trkpt lat="41.1483851" lon="-7.8240103"><ele>60.0</ele><time>2026-04-25T10:29:46.784Z</time></trkpt><trkpt lat="41.1483239" lon="-7.8238855"><ele>60.0</ele><time>2026-04-25T10:29:48.789Z</time></trkpt><trkpt lat="41.1482014" lon="-7.823644"><ele>63.75</ele><time>2026-04-25T10:29:52.783Z</time></trkpt><trkpt lat="41.148138" lon="-7.8235145"><ele>67.5</ele><time>2026-04-25T10:29:54.781Z</time></trkpt><trkpt lat="41.1480665" lon="-7.8233849"><ele>71.25</ele><time>2026-04-25T10:29:56.787Z</time></trkpt><trkpt lat="41.1479801" lon="-7.8232642"><ele>75.0</ele><time>2026-04-25T10:29:58.786Z</time></trkpt><trkpt lat="41.1478887" lon="-7.8231541"><ele>75.0</ele><time>2026-04-25T10:30:00.787Z</time></trkpt><trkpt lat="41.1478063" lon="-7.8230225"><ele>75.0</ele><time>2026-04-25T10:30:02.785Z</time></trkpt><trkpt lat="41.147764" lon="-7.8229496"><ele>75.0</ele><time>2026-04-25T10:30:03.786Z</time></trkpt><trkpt lat="41.1477262" lon="-7.8228755"><ele>75.0</ele><time>2026-04-25T10:30:04.793Z</time></trkpt><trkpt lat="41.1476881" lon="-7.8228073"><ele>75.0</ele><time>2026-04-25T10:30:05.785Z</time></trkpt><trkpt lat="41.1476194" lon="-7.8226844"><ele>75.0</ele><time>2026-04-25T10:30:07.78Z</time></trkpt><trkpt lat="41.1475687" lon="-7.822584"><ele>71.25</ele><time>2026-04-25T10:30:09.789Z</time></trkpt><trkpt lat="41.1474748" lon="-7.8223823"><ele>67.5</ele><time>2026-04-25T10:30:13.789Z</time></trkpt><trkpt lat="41.1474159" lon="-7.8222691"><ele>63.75</ele><time>2026-04-25T10:30:15.792Z</time></trkpt><trkpt lat="41.1473731" lon="-7.8221572"><ele>60.0</ele><time>2026-04-25T10:30:17.783Z</time></trkpt><trkpt lat="41.1473214" lon="-7.8220164"><ele>63.333333333333336</ele><time>2026-04-25T10:30:19.783Z</time></trkpt><trkpt lat="41.1472893" lon="-7.821935"><ele>66.66666666666667</ele><time>2026-04-25T10:30:20.791Z</time></trkpt><trkpt lat="41.1472574" lon="-7.8218518"><ele>70.0</ele><time>2026-04-25T10:30:21.799Z</time></trkpt><trkpt lat="41.1472237" lon="-7.8217777"><ele>73.33333333333334</ele><time>2026-04-25T10:30:22.786Z</time></trkpt><trkpt lat="41.1471641" lon="-7.8216473"><ele>76.66666666666667</ele><time>2026-04-25T10:30:24.789Z</time></trkpt><trkpt lat="41.1471081" lon="-7.8215495"><ele>80.0</ele><time>2026-04-25T10:30:26.782Z</time></trkpt><trkpt lat="41.147045" lon="-7.8214529"><ele>80.0</ele><time>2026-04-25T10:30:28.783Z</time></trkpt><trkpt lat="41.1469771" lon="-7.8213348"><ele>80.0</ele><time>2026-04-25T10:30:30.781Z</time></trkpt><trkpt lat="41.1468534" lon="-7.8211311"><ele>80.0</ele><time>2026-04-25T10:30:34.779Z</time></trkpt><trkpt lat="41.1468175" lon="-7.8210291"><ele>80.0</ele><time>2026-04-25T10:30:36.787Z</time></trkpt><trkpt lat="41.1467929" lon="-7.8208969"><ele>75.8</ele><time>2026-04-25T10:30:38.782Z</time></trkpt><trkpt lat="41.1467762" lon="-7.8207804"><ele>71.6</ele><time>2026-04-25T10:30:40.783Z</time></trkpt><trkpt lat="41.146748" lon="-7.8206666"><ele>67.4</ele><time>2026-04-25T10:30:42.786Z</time></trkpt><trkpt lat="41.1467316" lon="-7.8205399"><ele>63.2</ele><time>2026-04-25T10:30:44.789Z</time></trkpt><trkpt lat="41.146712" lon="-7.8204099"><ele>59.0</ele><time>2026-04-25T10:30:46.782Z</time></trkpt><trkpt lat="41.1466737" lon="-7.8202934"><ele>59.0</ele><time>2026-04-25T10:30:48.785Z</time></trkpt><trkpt lat="41.1466262" lon="-7.8201904"><ele>59.0</ele><time>2026-04-25T10:30:50.782Z</time></trkpt><trkpt lat="41.1465867" lon="-7.820079"><ele>59.0</ele><time>2026-04-25T10:30:52.784Z</time></trkpt><trkpt lat="41.1465397" lon="-7.8198253"><ele>59.0</ele><time>2026-04-25T10:30:56.784Z</time></trkpt><trkpt lat="41.1464982" lon="-7.8196966"><ele>60.800000000000004</ele><time>2026-04-25T10:30:58.787Z</time></trkpt><trkpt lat="41.1464476" lon="-7.8195785"><ele>62.60000000000001</ele><time>2026-04-25T10:31:00.785Z</time></trkpt><trkpt lat="41.146388" lon="-7.8194391"><ele>64.4</ele><time>2026-04-25T10:31:02.782Z</time></trkpt><trkpt lat="41.1463225" lon="-7.8192935"><ele>66.2</ele><time>2026-04-25T10:31:04.795Z</time></trkpt><trkpt lat="41.1462885" lon="-7.819223"><ele>68.0</ele><time>2026-04-25T10:31:05.782Z</time></trkpt><trkpt lat="41.1462308" lon="-7.8190911"><ele>68.0</ele><time>2026-04-25T10:31:07.788Z</time></trkpt><trkpt lat="41.1461679" lon="-7.8189634"><ele>68.0</ele><time>2026-04-25T10:31:09.786Z</time></trkpt><trkpt lat="41.1461052" lon="-7.8188187"><ele>68.0</ele><time>2026-04-25T10:31:11.788Z</time></trkpt><trkpt lat="41.1460717" lon="-7.8187432"><ele>68.0</ele><time>2026-04-25T10:31:12.785Z</time></trkpt><trkpt lat="41.1460344" lon="-7.8186702"><ele>68.0</ele><time>2026-04-25T10:31:13.789Z</time></trkpt><trkpt lat="41.1459269" lon="-7.8184743"><ele>66.4</ele><time>2026-04-25T10:31:16.787Z</time></trkpt><trkpt lat="41.1458816" lon="-7.8183544"><ele>64.8</ele><time>2026-04-25T10:31:18.782Z</time></trkpt><trkpt lat="41.1458398" lon="-7.8182072"><ele>63.2</ele><time>2026-04-25T10:31:20.784Z</time></trkpt><trkpt lat="41.145815" lon="-7.8181301"><ele>61.6</ele><time>2026-04-25T10:31:21.783Z</time></trkpt><trkpt lat="41.145754" lon="-7.8179925"><ele>60.0</ele><time>2026-04-25T10:31:23.783Z</time></trkpt><trkpt lat="41.1457024" lon="-7.8178756"><ele>64.5</ele><time>2026-04-25T10:31:25.78Z</time></trkpt><trkpt lat="41.1456581" lon="-7.8177777"><ele>69.0</ele><time>2026-04-25T10:31:27.793Z</time></trkpt><trkpt lat="41.1456153" lon="-7.8176737"><ele>73.5</ele><time>2026-04-25T10:31:29.788Z</time></trkpt><trkpt lat="41.1455756" lon="-7.8175646"><ele>78.0</ele><time>2026-04-25T10:31:31.784Z</time></trkpt><trkpt lat="41.1455425" lon="-7.8174554"><ele>82.5</ele><time>2026-04-25T10:31:33.779Z</time></trkpt><trkpt lat="41.1455104" lon="-7.8173478"><ele>87.0</ele><time>2026-04-25T10:31:35.782Z</time></trkpt><trkpt lat="41.1454254" lon="-7.8170792"><ele>87.0</ele><time>2026-04-25T10:31:39.786Z</time></trkpt><trkpt lat="41.1453892" lon="-7.8169338"><ele>87.0</ele><time>2026-04-25T10:31:41.784Z</time></trkpt><trkpt lat="41.1453739" lon="-7.816777"><ele>87.0</ele><time>2026-04-25T10:31:43.787Z</time></trkpt><trkpt lat="41.1453693" lon="-7.8166916"><ele>87.0</ele><time>2026-04-25T10:31:44.784Z</time></trkpt><trkpt lat="41.1453608" lon="-7.8165285"><ele>87.0</ele><time>2026-04-25T10:31:46.795Z</time></trkpt><trkpt lat="41.1453446" lon="-7.8163752"><ele>85.19999999999999</ele><time>2026-04-25T10:31:48.782Z</time></trkpt><trkpt lat="41.1453284" lon="-7.8162287"><ele>83.39999999999999</ele><time>2026-04-25T10:31:50.786Z</time></trkpt><trkpt lat="41.1453043" lon="-7.8160712"><ele>81.6</ele><time>2026-04-25T10:31:52.784Z</time></trkpt><trkpt lat="41.1452902" lon="-7.8159804"><ele>79.8</ele><time>2026-04-25T10:31:53.786Z</time></trkpt><trkpt lat="41.145271" lon="-7.81588"><ele>78.0</ele><time>2026-04-25T10:31:54.785Z</time></trkpt><trkpt lat="41.1452458" lon="-7.8157764"><ele>78.0</ele><time>2026-04-25T10:31:55.789Z</time></trkpt><trkpt lat="41.1452174" lon="-7.8156749"><ele>78.0</ele><time>2026-04-25T10:31:56.781Z</time></trkpt><trkpt lat="41.1451866" lon="-7.8154705"><ele>78.0</ele><time>2026-04-25T10:31:58.792Z</time></trkpt><trkpt lat="41.1451662" lon="-7.8153635"><ele>78.0</ele><time>2026-04-25T10:31:59.784Z</time></trkpt><trkpt lat="41.1451524" lon="-7.8152485"><ele>78.0</ele><time>2026-04-25T10:32:00.783Z</time></trkpt><trkpt lat="41.145138" lon="-7.8151252"><ele>78.0</ele><time>2026-04-25T10:32:01.786Z</time></trkpt><trkpt lat="41.1451221" lon="-7.8150014"><ele>78.0</ele><time>2026-04-25T10:32:02.782Z</time></trkpt><trkpt lat="41.1451102" lon="-7.8148854"><ele>78.0</ele><time>2026-04-25T10:32:03.785Z</time></trkpt><trkpt lat="41.1451044" lon="-7.8147797"><ele>78.0</ele><time>2026-04-25T10:32:04.788Z</time></trkpt><trkpt lat="41.1451004" lon="-7.8146733"><ele>78.0</ele><time>2026-04-25T10:32:05.788Z</time></trkpt><trkpt lat="41.1450984" lon="-7.8145661"><ele>78.0</ele><time>2026-04-25T10:32:06.782Z</time></trkpt><trkpt lat="41.1451042" lon="-7.8144582"><ele>78.0</ele><time>2026-04-25T10:32:07.782Z</time></trkpt><trkpt lat="41.145115" lon="-7.8143559"><ele>78.0</ele><time>2026-04-25T10:32:08.792Z</time></trkpt><trkpt lat="41.1451255" lon="-7.8142577"><ele>78.0</ele><time>2026-04-25T10:32:09.782Z</time></trkpt><trkpt lat="41.1451335" lon="-7.8141616"><ele>78.0</ele><time>2026-04-25T10:32:10.781Z</time></trkpt><trkpt lat="41.1451336" lon="-7.8140635"><ele>78.0</ele><time>2026-04-25T10:32:11.789Z</time></trkpt><trkpt lat="41.1451318" lon="-7.8139736"><ele>78.0</ele><time>2026-04-25T10:32:12.79Z</time></trkpt><trkpt lat="41.145131" lon="-7.813863"><ele>77.2</ele><time>2026-04-25T10:32:14.789Z</time></trkpt><trkpt lat="41.1450828" lon="-7.813921"><ele>76.4</ele><time>2026-04-25T10:41:07.781Z</time></trkpt><trkpt lat="41.1450062" lon="-7.813919"><ele>75.60000000000001</ele><time>2026-04-25T10:43:03.78Z</time></trkpt><trkpt lat="41.1450758" lon="-7.8138493"><ele>74.8</ele><time>2026-04-25T10:43:24.777Z</time></trkpt><trkpt lat="41.1450857" lon="-7.8136305"><ele>74.0</ele><time>2026-04-25T10:43:28.78Z</time></trkpt><trkpt lat="41.1451008" lon="-7.8135433"><ele>73.2</ele><time>2026-04-25T10:43:29.776Z</time></trkpt><trkpt lat="41.1451021" lon="-7.8134489"><ele>72.4</ele><time>2026-04-25T10:43:30.789Z</time></trkpt><trkpt lat="41.1451089" lon="-7.8133043"><ele>71.6</ele><time>2026-04-25T10:43:32.777Z</time></trkpt><trkpt lat="41.1450665" lon="-7.813162"><ele>70.8</ele><time>2026-04-25T10:43:34.781Z</time></trkpt><trkpt lat="41.1450541" lon="-7.8130004"><ele>70.0</ele><time>2026-04-25T10:43:36.777Z</time></trkpt><trkpt lat="41.1450448" lon="-7.8129145"><ele>70.0</ele><time>2026-04-25T10:43:37.779Z</time></trkpt><trkpt lat="41.1450211" lon="-7.8128337"><ele>70.0</ele><time>2026-04-25T10:43:38.778Z</time></trkpt><trkpt lat="41.1449944" lon="-7.8127535"><ele>70.0</ele><time>2026-04-25T10:43:39.777Z</time></trkpt><trkpt lat="41.1449452" lon="-7.8126127"><ele>70.0</ele><time>2026-04-25T10:43:41.776Z</time></trkpt><trkpt lat="41.1448937" lon="-7.8124687"><ele>70.0</ele><time>2026-04-25T10:43:43.776Z</time></trkpt><trkpt lat="41.1448653" lon="-7.8123862"><ele>70.0</ele><time>2026-04-25T10:43:44.781Z</time></trkpt><trkpt lat="41.1448356" lon="-7.8123002"><ele>70.66666666666666</ele><time>2026-04-25T10:43:45.779Z</time></trkpt><trkpt lat="41.1447776" lon="-7.8121169"><ele>71.33333333333333</ele><time>2026-04-25T10:43:47.779Z</time></trkpt><trkpt lat="41.1447471" lon="-7.8120336"><ele>72.0</ele><time>2026-04-25T10:43:48.778Z</time></trkpt><trkpt lat="41.1447189" lon="-7.8119511"><ele>72.66666666666667</ele><time>2026-04-25T10:43:49.777Z</time></trkpt><trkpt lat="41.1446932" lon="-7.8118682"><ele>73.33333333333334</ele><time>2026-04-25T10:43:50.775Z</time></trkpt><trkpt lat="41.1446726" lon="-7.8117776"><ele>74.0</ele><time>2026-04-25T10:43:51.778Z</time></trkpt><trkpt lat="41.1446531" lon="-7.8116832"><ele>74.0</ele><time>2026-04-25T10:43:52.775Z</time></trkpt><trkpt lat="41.1446343" lon="-7.8115858"><ele>74.0</ele><time>2026-04-25T10:43:53.777Z</time></trkpt><trkpt lat="41.1446171" lon="-7.8114892"><ele>74.0</ele><time>2026-04-25T10:43:54.777Z</time></trkpt><trkpt lat="41.1446056" lon="-7.8113949"><ele>74.0</ele><time>2026-04-25T10:43:55.778Z</time></trkpt><trkpt lat="41.1445913" lon="-7.8113051"><ele>74.0</ele><time>2026-04-25T10:43:56.787Z</time></trkpt><trkpt lat="41.1445338" lon="-7.8111845"><ele>74.0</ele><time>2026-04-25T10:43:58.78Z</time></trkpt><trkpt lat="41.1444236" lon="-7.811131"><ele>74.0</ele><time>2026-04-25T10:44:00.792Z</time></trkpt><trkpt lat="41.1443005" lon="-7.8110994"><ele>74.0</ele><time>2026-04-25T10:44:02.779Z</time></trkpt><trkpt lat="41.1441942" lon="-7.8110587"><ele>74.0</ele><time>2026-04-25T10:44:04.776Z</time></trkpt><trkpt lat="41.1441029" lon="-7.8110347"><ele>74.0</ele><time>2026-04-25T10:44:06.782Z</time></trkpt><trkpt lat="41.143907" lon="-7.8110107"><ele>74.60000000000001</ele><time>2026-04-25T10:44:10.779Z</time></trkpt><trkpt lat="41.1437888" lon="-7.8109672"><ele>75.2</ele><time>2026-04-25T10:44:12.778Z</time></trkpt><trkpt lat="41.1437276" lon="-7.8109393"><ele>75.80000000000001</ele><time>2026-04-25T10:44:13.789Z</time></trkpt><trkpt lat="41.1436179" lon="-7.8109207"><ele>76.4</ele><time>2026-04-25T10:44:15.781Z</time></trkpt><trkpt lat="41.143554" lon="-7.8109131"><ele>77.0</ele><time>2026-04-25T10:44:17.777Z</time></trkpt><trkpt lat="41.143559" lon="-7.8107878"><ele>77.0</ele><time>2026-04-25T10:44:20.776Z</time></trkpt><trkpt lat="41.1435838" lon="-7.8106632"><ele>77.0</ele><time>2026-04-25T10:44:22.778Z</time></trkpt><trkpt lat="41.1435935" lon="-7.8105209"><ele>77.0</ele><time>2026-04-25T10:44:24.787Z</time></trkpt><trkpt lat="41.1436024" lon="-7.8104344"><ele>77.0</ele><time>2026-04-25T10:44:25.79Z</time></trkpt><trkpt lat="41.1436217" lon="-7.8103472"><ele>77.0</ele><time>2026-04-25T10:44:26.776Z</time></trkpt><trkpt lat="41.1436538" lon="-7.8102607"><ele>77.0</ele><time>2026-04-25T10:44:27.776Z</time></trkpt><trkpt lat="41.1437391" lon="-7.8100812"><ele>78.66666666666667</ele><time>2026-04-25T10:44:29.79Z</time></trkpt><trkpt lat="41.1437906" lon="-7.8099893"><ele>80.33333333333334</ele><time>2026-04-25T10:44:30.773Z</time></trkpt><trkpt lat="41.1438436" lon="-7.8099056"><ele>82.0</ele><time>2026-04-25T10:44:31.779Z</time></trkpt><trkpt lat="41.1439015" lon="-7.8098273"><ele>83.66666666666667</ele><time>2026-04-25T10:44:32.774Z</time></trkpt><trkpt lat="41.1439627" lon="-7.8097522"><ele>85.33333333333333</ele><time>2026-04-25T10:44:33.773Z</time></trkpt><trkpt lat="41.1440195" lon="-7.8096758"><ele>87.0</ele><time>2026-04-25T10:44:34.78Z</time></trkpt><trkpt lat="41.1440698" lon="-7.8095943"><ele>84.83333333333333</ele><time>2026-04-25T10:44:35.781Z</time></trkpt><trkpt lat="41.1441141" lon="-7.8095068"><ele>82.66666666666667</ele><time>2026-04-25T10:44:36.79Z</time></trkpt><trkpt lat="41.1441633" lon="-7.8094193"><ele>80.5</ele><time>2026-04-25T10:44:37.784Z</time></trkpt><trkpt lat="41.1442162" lon="-7.8093321"><ele>78.33333333333334</ele><time>2026-04-25T10:44:38.777Z</time></trkpt><trkpt lat="41.1442685" lon="-7.8092513"><ele>76.16666666666667</ele><time>2026-04-25T10:44:39.794Z</time></trkpt><trkpt lat="41.144322" lon="-7.8091812"><ele>74.0</ele><time>2026-04-25T10:44:40.778Z</time></trkpt><trkpt lat="41.1443768" lon="-7.8091121"><ele>74.0</ele><time>2026-04-25T10:44:41.773Z</time></trkpt><trkpt lat="41.1444314" lon="-7.8090425"><ele>74.0</ele><time>2026-04-25T10:44:42.774Z</time></trkpt><trkpt lat="41.1444852" lon="-7.8089684"><ele>74.0</ele><time>2026-04-25T10:44:43.786Z</time></trkpt><trkpt lat="41.1445338" lon="-7.8088909"><ele>74.0</ele><time>2026-04-25T10:44:44.777Z</time></trkpt><trkpt lat="41.1445842" lon="-7.8088105"><ele>74.0</ele><time>2026-04-25T10:44:45.777Z</time></trkpt><trkpt lat="41.1446324" lon="-7.8087288"><ele>74.0</ele><time>2026-04-25T10:44:46.774Z</time></trkpt><trkpt lat="41.1446697" lon="-7.8086459"><ele>74.0</ele><time>2026-04-25T10:44:47.778Z</time></trkpt><trkpt lat="41.1447001" lon="-7.8085637"><ele>74.0</ele><time>2026-04-25T10:44:48.775Z</time></trkpt><trkpt lat="41.1447325" lon="-7.8083892"><ele>74.0</ele><time>2026-04-25T10:44:50.776Z</time></trkpt><trkpt lat="41.1447382" lon="-7.8082957"><ele>74.0</ele><time>2026-04-25T10:44:51.775Z</time></trkpt><trkpt lat="41.1447479" lon="-7.8082066"><ele>74.0</ele><time>2026-04-25T10:44:52.775Z</time></trkpt><trkpt lat="41.1447631" lon="-7.8081164"><ele>74.0</ele><time>2026-04-25T10:44:53.785Z</time></trkpt><trkpt lat="41.1447927" lon="-7.8080321"><ele>74.57142857142857</ele><time>2026-04-25T10:44:54.78Z</time></trkpt><trkpt lat="41.1448348" lon="-7.8079536"><ele>75.14285714285714</ele><time>2026-04-25T10:44:55.778Z</time></trkpt><trkpt lat="41.1448794" lon="-7.8078826"><ele>75.71428571428572</ele><time>2026-04-25T10:44:56.788Z</time></trkpt><trkpt lat="41.1449275" lon="-7.8078245"><ele>76.28571428571428</ele><time>2026-04-25T10:44:57.778Z</time></trkpt><trkpt lat="41.1449817" lon="-7.8077799"><ele>76.85714285714285</ele><time>2026-04-25T10:44:58.775Z</time></trkpt><trkpt lat="41.1450441" lon="-7.8077559"><ele>77.42857142857143</ele><time>2026-04-25T10:44:59.782Z</time></trkpt><trkpt lat="41.1451565" lon="-7.8077506"><ele>78.0</ele><time>2026-04-25T10:45:01.775Z</time></trkpt><trkpt lat="41.1452878" lon="-7.8077296"><ele>76.5</ele><time>2026-04-25T10:45:03.785Z</time></trkpt><trkpt lat="41.1454094" lon="-7.8077088"><ele>75.0</ele><time>2026-04-25T10:45:05.775Z</time></trkpt><trkpt lat="41.1455253" lon="-7.8076758"><ele>73.5</ele><time>2026-04-25T10:45:07.777Z</time></trkpt><trkpt lat="41.1456345" lon="-7.8076465"><ele>72.0</ele><time>2026-04-25T10:45:09.794Z</time></trkpt><trkpt lat="41.1458597" lon="-7.8075498"><ele>70.2</ele><time>2026-04-25T10:45:13.78Z</time></trkpt><trkpt lat="41.1459476" lon="-7.8074908"><ele>68.4</ele><time>2026-04-25T10:45:15.788Z</time></trkpt><trkpt lat="41.1460307" lon="-7.8074122"><ele>66.6</ele><time>2026-04-25T10:45:17.778Z</time></trkpt><trkpt lat="41.1461058" lon="-7.8073116"><ele>64.8</ele><time>2026-04-25T10:45:19.777Z</time></trkpt><trkpt lat="41.1461733" lon="-7.8072069"><ele>63.0</ele><time>2026-04-25T10:45:21.775Z</time></trkpt><trkpt lat="41.1462396" lon="-7.8071197"><ele>63.0</ele><time>2026-04-25T10:45:23.777Z</time></trkpt><trkpt lat="41.1463077" lon="-7.8070242"><ele>63.0</ele><time>2026-04-25T10:45:25.777Z</time></trkpt><trkpt lat="41.1463721" lon="-7.8069077"><ele>63.0</ele><time>2026-04-25T10:45:27.779Z</time></trkpt><trkpt lat="41.1464381" lon="-7.8067961"><ele>63.0</ele><time>2026-04-25T10:45:29.777Z</time></trkpt><trkpt lat="41.1464884" lon="-7.8067166"><ele>63.0</ele><time>2026-04-25T10:45:31.772Z</time></trkpt><trkpt lat="41.1465547" lon="-7.806514"><ele>64.0</ele><time>2026-04-25T10:45:37.78Z</time></trkpt><trkpt lat="41.146527" lon="-7.8064262"><ele>65.0</ele><time>2026-04-25T10:45:39.777Z</time></trkpt><trkpt lat="41.1464659" lon="-7.8063449"><ele>66.0</ele><time>2026-04-25T10:45:41.78Z</time></trkpt><trkpt lat="41.1464247" lon="-7.8062422"><ele>67.0</ele><time>2026-04-25T10:45:43.778Z</time></trkpt><trkpt lat="41.1464164" lon="-7.8061304"><ele>68.0</ele><time>2026-04-25T10:45:45.781Z</time></trkpt><trkpt lat="41.14643" lon="-7.8060167"><ele>69.0</ele><time>2026-04-25T10:45:47.777Z</time></trkpt><trkpt lat="41.1464561" lon="-7.8059078"><ele>67.0</ele><time>2026-04-25T10:45:49.776Z</time></trkpt><trkpt lat="41.1464655" lon="-7.8057763"><ele>65.0</ele><time>2026-04-25T10:45:51.777Z</time></trkpt><trkpt lat="41.1464798" lon="-7.8056286"><ele>63.0</ele><time>2026-04-25T10:45:53.778Z</time></trkpt><trkpt lat="41.1465282" lon="-7.805352"><ele>61.0</ele><time>2026-04-25T10:45:57.784Z</time></trkpt><trkpt lat="41.1465655" lon="-7.8052325"><ele>61.599999999999994</ele><time>2026-04-25T10:45:59.777Z</time></trkpt><trkpt lat="41.1466148" lon="-7.8050995"><ele>62.199999999999996</ele><time>2026-04-25T10:46:01.785Z</time></trkpt><trkpt lat="41.1466528" lon="-7.8049644"><ele>62.800000000000004</ele><time>2026-04-25T10:46:03.782Z</time></trkpt><trkpt lat="41.1466781" lon="-7.8048356"><ele>63.400000000000006</ele><time>2026-04-25T10:46:05.784Z</time></trkpt><trkpt lat="41.1467061" lon="-7.8047059"><ele>64.0</ele><time>2026-04-25T10:46:07.774Z</time></trkpt><trkpt lat="41.1467404" lon="-7.8045713"><ele>64.0</ele><time>2026-04-25T10:46:09.778Z</time></trkpt><trkpt lat="41.1467845" lon="-7.8044425"><ele>64.0</ele><time>2026-04-25T10:46:11.78Z</time></trkpt><trkpt lat="41.1468125" lon="-7.8043308"><ele>64.0</ele><time>2026-04-25T10:46:13.774Z</time></trkpt><trkpt lat="41.1468139" lon="-7.8042399"><ele>64.0</ele><time>2026-04-25T10:46:15.778Z</time></trkpt><trkpt lat="41.1468611" lon="-7.8040819"><ele>64.0</ele><time>2026-04-25T10:46:19.775Z</time></trkpt><trkpt lat="41.1469063" lon="-7.8040072"><ele>65.33333333333333</ele><time>2026-04-25T10:46:21.779Z</time></trkpt><trkpt lat="41.1469469" lon="-7.8039332"><ele>66.66666666666666</ele><time>2026-04-25T10:46:23.776Z</time></trkpt><trkpt lat="41.1470011" lon="-7.8038337"><ele>68.0</ele><time>2026-04-25T10:46:25.779Z</time></trkpt><trkpt lat="41.1470741" lon="-7.8037089"><ele>69.33333333333333</ele><time>2026-04-25T10:46:27.776Z</time></trkpt><trkpt lat="41.147116" lon="-7.8036452"><ele>70.66666666666667</ele><time>2026-04-25T10:46:28.778Z</time></trkpt><trkpt lat="41.1471577" lon="-7.8035808"><ele>72.0</ele><time>2026-04-25T10:46:29.78Z</time></trkpt><trkpt lat="41.1472373" lon="-7.8034699"><ele>70.2</ele><time>2026-04-25T10:46:31.776Z</time></trkpt><trkpt lat="41.147315" lon="-7.8033474"><ele>68.4</ele><time>2026-04-25T10:46:33.776Z</time></trkpt><trkpt lat="41.1474032" lon="-7.8032322"><ele>66.6</ele><time>2026-04-25T10:46:35.78Z</time></trkpt><trkpt lat="41.1474533" lon="-7.8031756"><ele>64.8</ele><time>2026-04-25T10:46:36.772Z</time></trkpt><trkpt lat="41.1475601" lon="-7.8030701"><ele>63.0</ele><time>2026-04-25T10:46:38.779Z</time></trkpt><trkpt lat="41.1476131" lon="-7.8030242"><ele>63.0</ele><time>2026-04-25T10:46:39.777Z</time></trkpt><trkpt lat="41.147664" lon="-7.8029738"><ele>63.0</ele><time>2026-04-25T10:46:40.785Z</time></trkpt><trkpt lat="41.1477123" lon="-7.8029175"><ele>63.0</ele><time>2026-04-25T10:46:41.781Z</time></trkpt><trkpt lat="41.1477559" lon="-7.8028514"><ele>63.0</ele><time>2026-04-25T10:46:42.78Z</time></trkpt><trkpt lat="41.1477959" lon="-7.8027765"><ele>63.0</ele><time>2026-04-25T10:46:43.776Z</time></trkpt><trkpt lat="41.1478392" lon="-7.802696"><ele>63.0</ele><time>2026-04-25T10:46:44.787Z</time></trkpt><trkpt lat="41.1478815" lon="-7.8026196"><ele>63.0</ele><time>2026-04-25T10:46:45.777Z</time></trkpt><trkpt lat="41.1479218" lon="-7.8025483"><ele>63.14285714285714</ele><time>2026-04-25T10:46:46.775Z</time></trkpt><trkpt lat="41.1479629" lon="-7.8024835"><ele>63.285714285714285</ele><time>2026-04-25T10:46:47.778Z</time></trkpt><trkpt lat="41.1480076" lon="-7.8024241"><ele>63.42857142857143</ele><time>2026-04-25T10:46:48.774Z</time></trkpt><trkpt lat="41.1480595" lon="-7.802363"><ele>63.57142857142857</ele><time>2026-04-25T10:46:49.776Z</time></trkpt><trkpt lat="41.148115" lon="-7.8022967"><ele>63.71428571428571</ele><time>2026-04-25T10:46:50.783Z</time></trkpt><trkpt lat="41.1481769" lon="-7.8022292"><ele>63.857142857142854</ele><time>2026-04-25T10:46:51.775Z</time></trkpt><trkpt lat="41.1482377" lon="-7.8021607"><ele>64.0</ele><time>2026-04-25T10:46:52.776Z</time></trkpt><trkpt lat="41.1483022" lon="-7.802096"><ele>64.0</ele><time>2026-04-25T10:46:53.775Z</time></trkpt><trkpt lat="41.1483659" lon="-7.8020308"><ele>64.0</ele><time>2026-04-25T10:46:54.774Z</time></trkpt><trkpt lat="41.1484248" lon="-7.8019767"><ele>64.0</ele><time>2026-04-25T10:46:55.796Z</time></trkpt><trkpt lat="41.1485258" lon="-7.8018883"><ele>64.0</ele><time>2026-04-25T10:46:57.776Z</time></trkpt><trkpt lat="41.1486735" lon="-7.8017294"><ele>64.33333333333333</ele><time>2026-04-25T10:47:01.777Z</time></trkpt><trkpt lat="41.1486849" lon="-7.8016336"><ele>64.66666666666666</ele><time>2026-04-25T10:47:03.782Z</time></trkpt><trkpt lat="41.1486261" lon="-7.8015546"><ele>65.0</ele><time>2026-04-25T10:47:05.777Z</time></trkpt><trkpt lat="41.1485602" lon="-7.8015088"><ele>65.33333333333333</ele><time>2026-04-25T10:47:07.783Z</time></trkpt><trkpt lat="41.1484974" lon="-7.8014502"><ele>65.66666666666667</ele><time>2026-04-25T10:47:10.777Z</time></trkpt><trkpt lat="41.1484615" lon="-7.8013779"><ele>66.0</ele><time>2026-04-25T10:47:13.786Z</time></trkpt><trkpt lat="41.1484696" lon="-7.8012758"><ele>66.0</ele><time>2026-04-25T10:47:15.777Z</time></trkpt><trkpt lat="41.1485134" lon="-7.8011941"><ele>66.0</ele><time>2026-04-25T10:47:16.774Z</time></trkpt><trkpt lat="41.1485671" lon="-7.8010973"><ele>66.0</ele><time>2026-04-25T10:47:17.781Z</time></trkpt><trkpt lat="41.1486246" lon="-7.8009869"><ele>66.0</ele><time>2026-04-25T10:47:18.78Z</time></trkpt><trkpt lat="41.1487301" lon="-7.8007518"><ele>66.39999999999999</ele><time>2026-04-25T10:47:20.782Z</time></trkpt><trkpt lat="41.1487779" lon="-7.8006472"><ele>66.8</ele><time>2026-04-25T10:47:21.774Z</time></trkpt><trkpt lat="41.1488252" lon="-7.8005416"><ele>67.19999999999999</ele><time>2026-04-25T10:47:22.776Z</time></trkpt><trkpt lat="41.1488752" lon="-7.8004338"><ele>67.6</ele><time>2026-04-25T10:47:23.779Z</time></trkpt><trkpt lat="41.1489299" lon="-7.8003222"><ele>68.0</ele><time>2026-04-25T10:47:24.776Z</time></trkpt><trkpt lat="41.1489884" lon="-7.8002062"><ele>69.4</ele><time>2026-04-25T10:47:25.778Z</time></trkpt><trkpt lat="41.1490485" lon="-7.8000884"><ele>70.8</ele><time>2026-04-25T10:47:26.779Z</time></trkpt><trkpt lat="41.1491113" lon="-7.799969"><ele>72.2</ele><time>2026-04-25T10:47:27.776Z</time></trkpt><trkpt lat="41.1491713" lon="-7.7998488"><ele>73.6</ele><time>2026-04-25T10:47:28.775Z</time></trkpt><trkpt lat="41.1492249" lon="-7.7997364"><ele>75.0</ele><time>2026-04-25T10:47:29.782Z</time></trkpt><trkpt lat="41.1492718" lon="-7.7996258"><ele>75.0</ele><time>2026-04-25T10:47:30.778Z</time></trkpt><trkpt lat="41.1493176" lon="-7.7995103"><ele>75.0</ele><time>2026-04-25T10:47:31.775Z</time></trkpt><trkpt lat="41.1493672" lon="-7.7993856"><ele>75.0</ele><time>2026-04-25T10:47:32.776Z</time></trkpt><trkpt lat="41.1494229" lon="-7.7992525"><ele>75.0</ele><time>2026-04-25T10:47:33.781Z</time></trkpt><trkpt lat="41.1494831" lon="-7.7991199"><ele>75.0</ele><time>2026-04-25T10:47:34.777Z</time></trkpt><trkpt lat="41.1495479" lon="-7.7989889"><ele>76.2</ele><time>2026-04-25T10:47:35.775Z</time></trkpt><trkpt lat="41.1496123" lon="-7.7988577"><ele>77.4</ele><time>2026-04-25T10:47:36.782Z</time></trkpt><trkpt lat="41.1496734" lon="-7.7987335"><ele>78.6</ele><time>2026-04-25T10:47:37.776Z</time></trkpt><trkpt lat="41.1497358" lon="-7.7986179"><ele>79.8</ele><time>2026-04-25T10:47:38.777Z</time></trkpt><trkpt lat="41.1498021" lon="-7.7985052"><ele>81.0</ele><time>2026-04-25T10:47:39.785Z</time></trkpt><trkpt lat="41.1499379" lon="-7.7982594"><ele>81.5</ele><time>2026-04-25T10:47:41.774Z</time></trkpt><trkpt lat="41.1500057" lon="-7.7981243"><ele>82.0</ele><time>2026-04-25T10:47:42.781Z</time></trkpt><trkpt lat="41.1500755" lon="-7.7979876"><ele>82.5</ele><time>2026-04-25T10:47:43.776Z</time></trkpt><trkpt lat="41.1501507" lon="-7.7978482"><ele>83.0</ele><time>2026-04-25T10:47:44.779Z</time></trkpt><trkpt lat="41.1502324" lon="-7.7977108"><ele>84.0</ele><time>2026-04-25T10:47:45.78Z</time></trkpt><trkpt lat="41.1503172" lon="-7.7975836"><ele>85.0</ele><time>2026-04-25T10:47:46.774Z</time></trkpt><trkpt lat="41.1504094" lon="-7.7974622"><ele>86.0</ele><time>2026-04-25T10:47:47.776Z</time></trkpt><trkpt lat="41.1505046" lon="-7.7973398"><ele>87.0</ele><time>2026-04-25T10:47:48.779Z</time></trkpt><trkpt lat="41.1506027" lon="-7.7972201"><ele>87.0</ele><time>2026-04-25T10:47:49.777Z</time></trkpt><trkpt lat="41.1507058" lon="-7.7971065"><ele>87.0</ele><time>2026-04-25T10:47:50.782Z</time></trkpt><trkpt lat="41.1508159" lon="-7.7970039"><ele>87.0</ele><time>2026-04-25T10:47:51.778Z</time></trkpt><trkpt lat="41.1509306" lon="-7.7969013"><ele>87.0</ele><time>2026-04-25T10:47:52.778Z</time></trkpt><trkpt lat="41.1510485" lon="-7.7968076"><ele>87.25</ele><time>2026-04-25T10:47:53.775Z</time></trkpt><trkpt lat="41.1511655" lon="-7.7967274"><ele>87.5</ele><time>2026-04-25T10:47:54.774Z</time></trkpt><trkpt lat="41.1512823" lon="-7.7966577"><ele>87.75</ele><time>2026-04-25T10:47:55.775Z</time></trkpt><trkpt lat="41.1513954" lon="-7.796593"><ele>88.0</ele><time>2026-04-25T10:47:56.778Z</time></trkpt><trkpt lat="41.1515049" lon="-7.7965301"><ele>89.5</ele><time>2026-04-25T10:47:57.775Z</time></trkpt><trkpt lat="41.1516106" lon="-7.7964625"><ele>91.0</ele><time>2026-04-25T10:47:58.78Z</time></trkpt><trkpt lat="41.1517116" lon="-7.796382"><ele>92.5</ele><time>2026-04-25T10:47:59.774Z</time></trkpt><trkpt lat="41.1518149" lon="-7.7962906"><ele>94.0</ele><time>2026-04-25T10:48:00.774Z</time></trkpt><trkpt lat="41.1520053" lon="-7.7960814"><ele>94.0</ele><time>2026-04-25T10:48:02.774Z</time></trkpt><trkpt lat="41.1520882" lon="-7.7959713"><ele>94.0</ele><time>2026-04-25T10:48:03.776Z</time></trkpt><trkpt lat="41.1521633" lon="-7.7958567"><ele>94.0</ele><time>2026-04-25T10:48:04.779Z</time></trkpt><trkpt lat="41.1522334" lon="-7.7957287"><ele>94.0</ele><time>2026-04-25T10:48:05.774Z</time></trkpt><trkpt lat="41.1522984" lon="-7.7955852"><ele>94.0</ele><time>2026-04-25T10:48:06.776Z</time></trkpt><trkpt lat="41.1523582" lon="-7.7954341"><ele>94.0</ele><time>2026-04-25T10:48:07.778Z</time></trkpt><trkpt lat="41.1524076" lon="-7.7952768"><ele>94.0</ele><time>2026-04-25T10:48:08.774Z</time></trkpt><trkpt lat="41.1524543" lon="-7.7951243"><ele>94.0</ele><time>2026-04-25T10:48:09.776Z</time></trkpt><trkpt lat="41.1525001" lon="-7.7949772"><ele>95.6</ele><time>2026-04-25T10:48:10.773Z</time></trkpt><trkpt lat="41.1525462" lon="-7.7948419"><ele>97.2</ele><time>2026-04-25T10:48:11.782Z</time></trkpt><trkpt lat="41.1525897" lon="-7.794715"><ele>98.8</ele><time>2026-04-25T10:48:12.776Z</time></trkpt><trkpt lat="41.1526309" lon="-7.7945881"><ele>100.39999999999999</ele><time>2026-04-25T10:48:13.776Z</time></trkpt><trkpt lat="41.1526721" lon="-7.794454"><ele>102.0</ele><time>2026-04-25T10:48:14.774Z</time></trkpt><trkpt lat="41.1527168" lon="-7.7943126"><ele>103.25</ele><time>2026-04-25T10:48:15.78Z</time></trkpt><trkpt lat="41.1527687" lon="-7.7941665"><ele>104.5</ele><time>2026-04-25T10:48:16.776Z</time></trkpt><trkpt lat="41.1528215" lon="-7.7940194"><ele>105.75</ele><time>2026-04-25T10:48:17.775Z</time></trkpt><trkpt lat="41.1528784" lon="-7.7938693"><ele>107.0</ele><time>2026-04-25T10:48:18.776Z</time></trkpt><trkpt lat="41.1529381" lon="-7.7937168"><ele>107.0</ele><time>2026-04-25T10:48:19.775Z</time></trkpt><trkpt lat="41.1529904" lon="-7.7935702"><ele>107.0</ele><time>2026-04-25T10:48:20.793Z</time></trkpt><trkpt lat="41.1530374" lon="-7.7934256"><ele>107.0</ele><time>2026-04-25T10:48:21.779Z</time></trkpt><trkpt lat="41.1531257" lon="-7.7931342"><ele>107.25</ele><time>2026-04-25T10:48:23.781Z</time></trkpt><trkpt lat="41.1531707" lon="-7.7929849"><ele>107.5</ele><time>2026-04-25T10:48:24.774Z</time></trkpt><trkpt lat="41.1532179" lon="-7.7928316"><ele>107.75</ele><time>2026-04-25T10:48:25.778Z</time></trkpt><trkpt lat="41.1532697" lon="-7.7926823"><ele>108.0</ele><time>2026-04-25T10:48:26.776Z</time></trkpt><trkpt lat="41.1533196" lon="-7.7925339"><ele>105.75</ele><time>2026-04-25T10:48:27.772Z</time></trkpt><trkpt lat="41.1533667" lon="-7.7923922"><ele>103.5</ele><time>2026-04-25T10:48:28.779Z</time></trkpt><trkpt lat="41.1534113" lon="-7.7922549"><ele>101.25</ele><time>2026-04-25T10:48:29.775Z</time></trkpt><trkpt lat="41.1534556" lon="-7.7921155"><ele>99.0</ele><time>2026-04-25T10:48:30.781Z</time></trkpt><trkpt lat="41.1535019" lon="-7.7919757"><ele>100.5</ele><time>2026-04-25T10:48:31.778Z</time></trkpt><trkpt lat="41.1535487" lon="-7.791831"><ele>102.0</ele><time>2026-04-25T10:48:32.778Z</time></trkpt><trkpt lat="41.1535992" lon="-7.7916844"><ele>103.5</ele><time>2026-04-25T10:48:33.776Z</time></trkpt><trkpt lat="41.1536552" lon="-7.7915363"><ele>105.0</ele><time>2026-04-25T10:48:34.772Z</time></trkpt><trkpt lat="41.1537127" lon="-7.791387"><ele>105.0</ele><time>2026-04-25T10:48:35.778Z</time></trkpt><trkpt lat="41.1537733" lon="-7.7912478"><ele>105.0</ele><time>2026-04-25T10:48:36.777Z</time></trkpt><trkpt lat="41.1538334" lon="-7.7911166"><ele>105.0</ele><time>2026-04-25T10:48:37.773Z</time></trkpt><trkpt lat="41.1538898" lon="-7.7909894"><ele>105.0</ele><time>2026-04-25T10:48:38.772Z</time></trkpt><trkpt lat="41.153954" lon="-7.7908648"><ele>102.25</ele><time>2026-04-25T10:48:39.78Z</time></trkpt><trkpt lat="41.1540209" lon="-7.7907446"><ele>99.5</ele><time>2026-04-25T10:48:40.773Z</time></trkpt><trkpt lat="41.1540994" lon="-7.7906305"><ele>96.75</ele><time>2026-04-25T10:48:41.775Z</time></trkpt><trkpt lat="41.1541871" lon="-7.7905185"><ele>94.0</ele><time>2026-04-25T10:48:42.782Z</time></trkpt><trkpt lat="41.1543793" lon="-7.7903114"><ele>94.0</ele><time>2026-04-25T10:48:44.776Z</time></trkpt><trkpt lat="41.1544841" lon="-7.7902319"><ele>94.0</ele><time>2026-04-25T10:48:45.775Z</time></trkpt><trkpt lat="41.1545861" lon="-7.7901639"><ele>94.0</ele><time>2026-04-25T10:48:46.774Z</time></trkpt><trkpt lat="41.1546886" lon="-7.7901025"><ele>94.0</ele><time>2026-04-25T10:48:47.779Z</time></trkpt><trkpt lat="41.1547916" lon="-7.7900459"><ele>90.75</ele><time>2026-04-25T10:48:48.775Z</time></trkpt><trkpt lat="41.1548935" lon="-7.7899875"><ele>87.5</ele><time>2026-04-25T10:48:49.776Z</time></trkpt><trkpt lat="41.1549938" lon="-7.7899188"><ele>84.25</ele><time>2026-04-25T10:48:50.78Z</time></trkpt><trkpt lat="41.1551001" lon="-7.7898456"><ele>81.0</ele><time>2026-04-25T10:48:51.78Z</time></trkpt><trkpt lat="41.1552079" lon="-7.789773"><ele>81.0</ele><time>2026-04-25T10:48:52.78Z</time></trkpt><trkpt lat="41.155311" lon="-7.7897033"><ele>81.0</ele><time>2026-04-25T10:48:53.775Z</time></trkpt><trkpt lat="41.1554019" lon="-7.7896363"><ele>81.0</ele><time>2026-04-25T10:48:54.774Z</time></trkpt><trkpt lat="41.1554786" lon="-7.7895567"><ele>81.0</ele><time>2026-04-25T10:48:55.775Z</time></trkpt><trkpt lat="41.1555398" lon="-7.7894465"><ele>81.0</ele><time>2026-04-25T10:48:56.774Z</time></trkpt><trkpt lat="41.1555875" lon="-7.7893193"><ele>83.0</ele><time>2026-04-25T10:48:57.781Z</time></trkpt><trkpt lat="41.1556276" lon="-7.7891877"><ele>85.0</ele><time>2026-04-25T10:48:58.779Z</time></trkpt><trkpt lat="41.1556453" lon="-7.7890401"><ele>87.0</ele><time>2026-04-25T10:48:59.777Z</time></trkpt><trkpt lat="41.1556461" lon="-7.788884"><ele>89.0</ele><time>2026-04-25T10:49:00.774Z</time></trkpt><trkpt lat="41.1556307" lon="-7.7887262"><ele>89.0</ele><time>2026-04-25T10:49:01.783Z</time></trkpt><trkpt lat="41.155598" lon="-7.7885757"><ele>89.0</ele><time>2026-04-25T10:49:02.78Z</time></trkpt><trkpt lat="41.1555536" lon="-7.7884319"><ele>89.0</ele><time>2026-04-25T10:49:03.775Z</time></trkpt><trkpt lat="41.1554291" lon="-7.7881634"><ele>88.0</ele><time>2026-04-25T10:49:05.775Z</time></trkpt><trkpt lat="41.1553616" lon="-7.7880367"><ele>87.0</ele><time>2026-04-25T10:49:06.781Z</time></trkpt><trkpt lat="41.1552929" lon="-7.7879101"><ele>86.0</ele><time>2026-04-25T10:49:07.779Z</time></trkpt><trkpt lat="41.1552302" lon="-7.7877809"><ele>85.0</ele><time>2026-04-25T10:49:08.773Z</time></trkpt><trkpt lat="41.1551757" lon="-7.7876499"><ele>86.4</ele><time>2026-04-25T10:49:09.782Z</time></trkpt><trkpt lat="41.1551194" lon="-7.7875223"><ele>87.8</ele><time>2026-04-25T10:49:10.775Z</time></trkpt><trkpt lat="41.1550584" lon="-7.7874016"><ele>89.19999999999999</ele><time>2026-04-25T10:49:11.775Z</time></trkpt><trkpt lat="41.1549938" lon="-7.7872824"><ele>90.6</ele><time>2026-04-25T10:49:12.778Z</time></trkpt><trkpt lat="41.1549255" lon="-7.7871593"><ele>92.0</ele><time>2026-04-25T10:49:13.776Z</time></trkpt><trkpt lat="41.1548589" lon="-7.7870329"><ele>92.0</ele><time>2026-04-25T10:49:14.776Z</time></trkpt><trkpt lat="41.1547995" lon="-7.7869017"><ele>92.0</ele><time>2026-04-25T10:49:15.771Z</time></trkpt><trkpt lat="41.1547429" lon="-7.78677"><ele>92.0</ele><time>2026-04-25T10:49:16.776Z</time></trkpt><trkpt lat="41.1546889" lon="-7.7866402"><ele>92.0</ele><time>2026-04-25T10:49:17.771Z</time></trkpt><trkpt lat="41.1546267" lon="-7.7865123"><ele>89.0</ele><time>2026-04-25T10:49:18.776Z</time></trkpt><trkpt lat="41.1545652" lon="-7.786401"><ele>86.0</ele><time>2026-04-25T10:49:19.775Z</time></trkpt><trkpt lat="41.1544947" lon="-7.7862992"><ele>83.0</ele><time>2026-04-25T10:49:20.774Z</time></trkpt><trkpt lat="41.1544116" lon="-7.7861969"><ele>80.0</ele><time>2026-04-25T10:49:21.78Z</time></trkpt><trkpt lat="41.1543265" lon="-7.7860961"><ele>77.0</ele><time>2026-04-25T10:49:22.779Z</time></trkpt><trkpt lat="41.1542454" lon="-7.7859963"><ele>74.75</ele><time>2026-04-25T10:49:23.774Z</time></trkpt><trkpt lat="41.1541677" lon="-7.78589"><ele>72.5</ele><time>2026-04-25T10:49:24.791Z</time></trkpt><trkpt lat="41.1540303" lon="-7.7856722"><ele>70.25</ele><time>2026-04-25T10:49:26.772Z</time></trkpt><trkpt lat="41.1539563" lon="-7.7855696"><ele>68.0</ele><time>2026-04-25T10:49:27.774Z</time></trkpt><trkpt lat="41.1538825" lon="-7.7854719"><ele>69.0</ele><time>2026-04-25T10:49:28.774Z</time></trkpt><trkpt lat="41.1538067" lon="-7.7853765"><ele>70.0</ele><time>2026-04-25T10:49:29.772Z</time></trkpt><trkpt lat="41.153729" lon="-7.7852763"><ele>71.0</ele><time>2026-04-25T10:49:30.776Z</time></trkpt><trkpt lat="41.1536543" lon="-7.7851703"><ele>72.0</ele><time>2026-04-25T10:49:31.774Z</time></trkpt><trkpt lat="41.1535782" lon="-7.7850657"><ele>73.0</ele><time>2026-04-25T10:49:32.784Z</time></trkpt><trkpt lat="41.1535005" lon="-7.7849659"><ele>73.0</ele><time>2026-04-25T10:49:33.778Z</time></trkpt><trkpt lat="41.1534212" lon="-7.7848722"><ele>73.0</ele><time>2026-04-25T10:49:34.773Z</time></trkpt><trkpt lat="41.1533375" lon="-7.7847877"><ele>73.0</ele><time>2026-04-25T10:49:35.775Z</time></trkpt><trkpt lat="41.1532469" lon="-7.784728"><ele>73.0</ele><time>2026-04-25T10:49:36.778Z</time></trkpt><trkpt lat="41.1531507" lon="-7.7846902"><ele>73.0</ele><time>2026-04-25T10:49:37.774Z</time></trkpt><trkpt lat="41.1530501" lon="-7.7846688"><ele>75.6</ele><time>2026-04-25T10:49:38.774Z</time></trkpt><trkpt lat="41.152942" lon="-7.7846571"><ele>78.19999999999999</ele><time>2026-04-25T10:49:39.773Z</time></trkpt><trkpt lat="41.1528333" lon="-7.7846544"><ele>80.8</ele><time>2026-04-25T10:49:40.774Z</time></trkpt><trkpt lat="41.1527252" lon="-7.7846572"><ele>83.39999999999999</ele><time>2026-04-25T10:49:41.78Z</time></trkpt><trkpt lat="41.152616" lon="-7.7846572"><ele>86.0</ele><time>2026-04-25T10:49:42.775Z</time></trkpt><trkpt lat="41.1525129" lon="-7.7846589"><ele>86.0</ele><time>2026-04-25T10:49:43.772Z</time></trkpt><trkpt lat="41.1524106" lon="-7.7846548"><ele>86.0</ele><time>2026-04-25T10:49:44.77Z</time></trkpt><trkpt lat="41.1523061" lon="-7.7846558"><ele>86.0</ele><time>2026-04-25T10:49:45.775Z</time></trkpt><trkpt lat="41.152095" lon="-7.7846457"><ele>86.0</ele><time>2026-04-25T10:49:47.775Z</time></trkpt><trkpt lat="41.1519889" lon="-7.7846371"><ele>88.16666666666667</ele><time>2026-04-25T10:49:48.783Z</time></trkpt><trkpt lat="41.1518892" lon="-7.7846349"><ele>90.33333333333334</ele><time>2026-04-25T10:49:49.775Z</time></trkpt><trkpt lat="41.1517984" lon="-7.7846228"><ele>92.5</ele><time>2026-04-25T10:49:50.777Z</time></trkpt><trkpt lat="41.1517195" lon="-7.7845989"><ele>94.66666666666667</ele><time>2026-04-25T10:49:51.776Z</time></trkpt><trkpt lat="41.1516588" lon="-7.7845654"><ele>96.83333333333333</ele><time>2026-04-25T10:49:52.78Z</time></trkpt><trkpt lat="41.1515618" lon="-7.7844996"><ele>99.0</ele><time>2026-04-25T10:49:54.778Z</time></trkpt><trkpt lat="41.1515529" lon="-7.7843942"><ele>93.4</ele><time>2026-04-25T10:49:57.784Z</time></trkpt><trkpt lat="41.1516752" lon="-7.7842859"><ele>87.80000000000001</ele><time>2026-04-25T10:49:59.773Z</time></trkpt><trkpt lat="41.1517545" lon="-7.7842133"><ele>82.19999999999999</ele><time>2026-04-25T10:50:00.785Z</time></trkpt><trkpt lat="41.1518262" lon="-7.7841297"><ele>76.6</ele><time>2026-04-25T10:50:01.773Z</time></trkpt><trkpt lat="41.1518835" lon="-7.7840436"><ele>71.0</ele><time>2026-04-25T10:50:02.774Z</time></trkpt><trkpt lat="41.1519301" lon="-7.7839487"><ele>71.0</ele><time>2026-04-25T10:50:03.772Z</time></trkpt><trkpt lat="41.1519754" lon="-7.7838464"><ele>71.0</ele><time>2026-04-25T10:50:04.774Z</time></trkpt><trkpt lat="41.1520201" lon="-7.7837409"><ele>71.0</ele><time>2026-04-25T10:50:05.773Z</time></trkpt><trkpt lat="41.152072" lon="-7.7836375"><ele>71.0</ele><time>2026-04-25T10:50:06.777Z</time></trkpt><trkpt lat="41.1521792" lon="-7.7834328"><ele>67.8</ele><time>2026-04-25T10:50:08.774Z</time></trkpt><trkpt lat="41.1522369" lon="-7.783329"><ele>64.6</ele><time>2026-04-25T10:50:09.775Z</time></trkpt><trkpt lat="41.1522902" lon="-7.7832283"><ele>61.4</ele><time>2026-04-25T10:50:10.776Z</time></trkpt><trkpt lat="41.1523394" lon="-7.7831283"><ele>58.2</ele><time>2026-04-25T10:50:11.778Z</time></trkpt><trkpt lat="41.1523899" lon="-7.7830267"><ele>55.0</ele><time>2026-04-25T10:50:12.773Z</time></trkpt><trkpt lat="41.1524405" lon="-7.7829246"><ele>54.666666666666664</ele><time>2026-04-25T10:50:13.775Z</time></trkpt><trkpt lat="41.1524892" lon="-7.7828261"><ele>54.33333333333333</ele><time>2026-04-25T10:50:14.774Z</time></trkpt><trkpt lat="41.1525338" lon="-7.782733"><ele>54.0</ele><time>2026-04-25T10:50:15.78Z</time></trkpt><trkpt lat="41.1525797" lon="-7.7826416"><ele>53.66666666666667</ele><time>2026-04-25T10:50:16.772Z</time></trkpt><trkpt lat="41.1526234" lon="-7.7825435"><ele>53.333333333333336</ele><time>2026-04-25T10:50:17.776Z</time></trkpt><trkpt lat="41.1526597" lon="-7.7824493"><ele>53.0</ele><time>2026-04-25T10:50:18.783Z</time></trkpt><trkpt lat="41.1526749" lon="-7.7823506"><ele>54.66666666666667</ele><time>2026-04-25T10:50:19.775Z</time></trkpt><trkpt lat="41.1526632" lon="-7.7822488"><ele>56.333333333333336</ele><time>2026-04-25T10:50:20.779Z</time></trkpt><trkpt lat="41.1526292" lon="-7.7821549"><ele>58.0</ele><time>2026-04-25T10:50:21.782Z</time></trkpt><trkpt lat="41.1525761" lon="-7.7820708"><ele>59.66666666666667</ele><time>2026-04-25T10:50:22.772Z</time></trkpt><trkpt lat="41.1525163" lon="-7.781993"><ele>61.333333333333336</ele><time>2026-04-25T10:50:23.774Z</time></trkpt><trkpt lat="41.152447" lon="-7.781924"><ele>63.0</ele><time>2026-04-25T10:50:24.773Z</time></trkpt><trkpt lat="41.1523759" lon="-7.7818658"><ele>64.6</ele><time>2026-04-25T10:50:25.774Z</time></trkpt><trkpt lat="41.1523036" lon="-7.7818127"><ele>66.19999999999999</ele><time>2026-04-25T10:50:26.773Z</time></trkpt><trkpt lat="41.1522266" lon="-7.781775"><ele>67.8</ele><time>2026-04-25T10:50:27.773Z</time></trkpt><trkpt lat="41.1520488" lon="-7.7817246"><ele>69.39999999999999</ele><time>2026-04-25T10:50:29.775Z</time></trkpt><trkpt lat="41.1519548" lon="-7.781693"><ele>71.0</ele><time>2026-04-25T10:50:30.773Z</time></trkpt><trkpt lat="41.1518688" lon="-7.7816518"><ele>71.0</ele><time>2026-04-25T10:50:31.778Z</time></trkpt><trkpt lat="41.1518105" lon="-7.7816008"><ele>71.0</ele><time>2026-04-25T10:50:32.773Z</time></trkpt><trkpt lat="41.1518083" lon="-7.7814836"><ele>71.0</ele><time>2026-04-25T10:50:34.774Z</time></trkpt><trkpt lat="41.1518662" lon="-7.7814379"><ele>71.0</ele><time>2026-04-25T10:50:35.775Z</time></trkpt><trkpt lat="41.1519386" lon="-7.7814043"><ele>71.0</ele><time>2026-04-25T10:50:36.777Z</time></trkpt><trkpt lat="41.1520193" lon="-7.7813724"><ele>71.0</ele><time>2026-04-25T10:50:37.782Z</time></trkpt><trkpt lat="41.1521034" lon="-7.7813344"><ele>71.0</ele><time>2026-04-25T10:50:38.779Z</time></trkpt><trkpt lat="41.1521953" lon="-7.7812901"><ele>71.0</ele><time>2026-04-25T10:50:39.771Z</time></trkpt><trkpt lat="41.1522923" lon="-7.7812446"><ele>71.0</ele><time>2026-04-25T10:50:40.774Z</time></trkpt><trkpt lat="41.1523906" lon="-7.7811979"><ele>71.0</ele><time>2026-04-25T10:50:41.771Z</time></trkpt><trkpt lat="41.1524909" lon="-7.7811512"><ele>71.0</ele><time>2026-04-25T10:50:42.775Z</time></trkpt><trkpt lat="41.1525944" lon="-7.7811041"><ele>72.2</ele><time>2026-04-25T10:50:43.778Z</time></trkpt><trkpt lat="41.152701" lon="-7.7810615"><ele>73.39999999999999</ele><time>2026-04-25T10:50:44.776Z</time></trkpt><trkpt lat="41.1527978" lon="-7.7810246"><ele>74.6</ele><time>2026-04-25T10:50:45.775Z</time></trkpt><trkpt lat="41.152884" lon="-7.7809835"><ele>75.8</ele><time>2026-04-25T10:50:46.776Z</time></trkpt><trkpt lat="41.1529666" lon="-7.7809396"><ele>77.0</ele><time>2026-04-25T10:50:47.774Z</time></trkpt><trkpt lat="41.1530515" lon="-7.7808956"><ele>72.75</ele><time>2026-04-25T10:50:48.778Z</time></trkpt><trkpt lat="41.153222" lon="-7.7808043"><ele>68.5</ele><time>2026-04-25T10:50:50.772Z</time></trkpt><trkpt lat="41.1533077" lon="-7.7807576"><ele>64.25</ele><time>2026-04-25T10:50:51.78Z</time></trkpt><trkpt lat="41.1533932" lon="-7.7807164"><ele>60.0</ele><time>2026-04-25T10:50:52.781Z</time></trkpt><trkpt lat="41.1534787" lon="-7.7806787"><ele>60.0</ele><time>2026-04-25T10:50:53.777Z</time></trkpt><trkpt lat="41.1535651" lon="-7.7806402"><ele>60.0</ele><time>2026-04-25T10:50:54.775Z</time></trkpt><trkpt lat="41.1536504" lon="-7.7805963"><ele>60.0</ele><time>2026-04-25T10:50:55.779Z</time></trkpt><trkpt lat="41.1537384" lon="-7.7805532"><ele>60.0</ele><time>2026-04-25T10:50:56.776Z</time></trkpt><trkpt lat="41.1538285" lon="-7.7805066"><ele>60.0</ele><time>2026-04-25T10:50:57.773Z</time></trkpt><trkpt lat="41.1539185" lon="-7.7804552"><ele>60.0</ele><time>2026-04-25T10:50:58.781Z</time></trkpt><trkpt lat="41.154009" lon="-7.7804029"><ele>60.0</ele><time>2026-04-25T10:50:59.779Z</time></trkpt><trkpt lat="41.1540998" lon="-7.7803532"><ele>60.0</ele><time>2026-04-25T10:51:00.774Z</time></trkpt><trkpt lat="41.1541901" lon="-7.7803082"><ele>60.0</ele><time>2026-04-25T10:51:01.771Z</time></trkpt><trkpt lat="41.1542787" lon="-7.7802662"><ele>60.0</ele><time>2026-04-25T10:51:02.778Z</time></trkpt><trkpt lat="41.154368" lon="-7.7802233"><ele>58.2</ele><time>2026-04-25T10:51:03.779Z</time></trkpt><trkpt lat="41.1544579" lon="-7.7801784"><ele>56.4</ele><time>2026-04-25T10:51:04.777Z</time></trkpt><trkpt lat="41.154548" lon="-7.780135"><ele>54.599999999999994</ele><time>2026-04-25T10:51:05.777Z</time></trkpt><trkpt lat="41.1546401" lon="-7.7800846"><ele>52.8</ele><time>2026-04-25T10:51:06.773Z</time></trkpt><trkpt lat="41.1547344" lon="-7.7800309"><ele>51.0</ele><time>2026-04-25T10:51:07.776Z</time></trkpt><trkpt lat="41.1548299" lon="-7.7799776"><ele>52.25</ele><time>2026-04-25T10:51:08.774Z</time></trkpt><trkpt lat="41.1549278" lon="-7.7799296"><ele>53.5</ele><time>2026-04-25T10:51:09.783Z</time></trkpt><trkpt lat="41.1551123" lon="-7.7798393"><ele>54.75</ele><time>2026-04-25T10:51:11.773Z</time></trkpt><trkpt lat="41.1552" lon="-7.7797941"><ele>56.0</ele><time>2026-04-25T10:51:12.772Z</time></trkpt><trkpt lat="41.1552854" lon="-7.779751"><ele>56.00000000000001</ele><time>2026-04-25T10:51:13.781Z</time></trkpt><trkpt lat="41.1553695" lon="-7.7797044"><ele>56.0</ele><time>2026-04-25T10:51:14.774Z</time></trkpt><trkpt lat="41.1554555" lon="-7.7796546"><ele>56.0</ele><time>2026-04-25T10:51:15.773Z</time></trkpt><trkpt lat="41.1555384" lon="-7.7796057"><ele>56.0</ele><time>2026-04-25T10:51:16.784Z</time></trkpt><trkpt lat="41.1556213" lon="-7.7795602"><ele>56.00000000000001</ele><time>2026-04-25T10:51:17.774Z</time></trkpt><trkpt lat="41.1556997" lon="-7.7795231"><ele>56.0</ele><time>2026-04-25T10:51:18.77Z</time></trkpt><trkpt lat="41.1557754" lon="-7.7794889"><ele>57.00000000000001</ele><time>2026-04-25T10:51:19.773Z</time></trkpt><trkpt lat="41.1558477" lon="-7.7794506"><ele>58.0</ele><time>2026-04-25T10:51:20.771Z</time></trkpt><trkpt lat="41.1559135" lon="-7.7793993"><ele>59.0</ele><time>2026-04-25T10:51:21.772Z</time></trkpt><trkpt lat="41.1559736" lon="-7.7793278"><ele>60.0</ele><time>2026-04-25T10:51:22.774Z</time></trkpt><trkpt lat="41.1560276" lon="-7.7792494"><ele>61.00000000000001</ele><time>2026-04-25T10:51:23.774Z</time></trkpt><trkpt lat="41.1560857" lon="-7.7791835"><ele>62.0</ele><time>2026-04-25T10:51:24.776Z</time></trkpt><trkpt lat="41.15615" lon="-7.779155"><ele>62.00000000000001</ele><time>2026-04-25T10:51:25.778Z</time></trkpt><trkpt lat="41.1562262" lon="-7.7791746"><ele>62.0</ele><time>2026-04-25T10:51:26.776Z</time></trkpt><trkpt lat="41.1562985" lon="-7.7792395"><ele>62.0</ele><time>2026-04-25T10:51:27.779Z</time></trkpt><trkpt lat="41.1563492" lon="-7.7793376"><ele>62.0</ele><time>2026-04-25T10:51:28.78Z</time></trkpt><trkpt lat="41.156389" lon="-7.7794464"><ele>62.00000000000001</ele><time>2026-04-25T10:51:29.777Z</time></trkpt><trkpt lat="41.1564224" lon="-7.7795575"><ele>62.0</ele><time>2026-04-25T10:51:30.777Z</time></trkpt><trkpt lat="41.1564826" lon="-7.7797714"><ele>62.00000000000001</ele><time>2026-04-25T10:51:32.776Z</time></trkpt><trkpt lat="41.1565109" lon="-7.7798715"><ele>62.0</ele><time>2026-04-25T10:51:33.77Z</time></trkpt><trkpt lat="41.156545" lon="-7.7799629"><ele>62.0</ele><time>2026-04-25T10:51:34.772Z</time></trkpt><trkpt lat="41.1565752" lon="-7.7800552"><ele>62.0</ele><time>2026-04-25T10:51:35.775Z</time></trkpt><trkpt lat="41.1565989" lon="-7.7801484"><ele>62.00000000000001</ele><time>2026-04-25T10:51:36.774Z</time></trkpt><trkpt lat="41.1566218" lon="-7.7802436"><ele>62.0</ele><time>2026-04-25T10:51:37.775Z</time></trkpt><trkpt lat="41.1566464" lon="-7.7803398"><ele>63.50000000000001</ele><time>2026-04-25T10:51:38.772Z</time></trkpt><trkpt lat="41.1566831" lon="-7.7804357"><ele>65.0</ele><time>2026-04-25T10:51:39.773Z</time></trkpt><trkpt lat="41.1567281" lon="-7.7805285"><ele>66.5</ele><time>2026-04-25T10:51:40.774Z</time></trkpt><trkpt lat="41.1567806" lon="-7.7806164"><ele>68.0</ele><time>2026-04-25T10:51:41.771Z</time></trkpt><trkpt lat="41.1568296" lon="-7.7807078"><ele>69.5</ele><time>2026-04-25T10:51:42.784Z</time></trkpt><trkpt lat="41.1568721" lon="-7.780806"><ele>71.0</ele><time>2026-04-25T10:51:43.775Z</time></trkpt><trkpt lat="41.1569059" lon="-7.7809117"><ele>70.5</ele><time>2026-04-25T10:51:44.773Z</time></trkpt><trkpt lat="41.1569309" lon="-7.7810194"><ele>70.0</ele><time>2026-04-25T10:51:45.773Z</time></trkpt><trkpt lat="41.1569459" lon="-7.7811221"><ele>69.5</ele><time>2026-04-25T10:51:46.778Z</time></trkpt><trkpt lat="41.1569541" lon="-7.7812208"><ele>69.0</ele><time>2026-04-25T10:51:47.772Z</time></trkpt><trkpt lat="41.1569584" lon="-7.7813183"><ele>68.5</ele><time>2026-04-25T10:51:48.775Z</time></trkpt><trkpt lat="41.1569689" lon="-7.7814123"><ele>68.0</ele><time>2026-04-25T10:51:49.777Z</time></trkpt><trkpt lat="41.1569832" lon="-7.781501"><ele>68.0</ele><time>2026-04-25T10:51:50.773Z</time></trkpt><trkpt lat="41.1570024" lon="-7.7815899"><ele>68.0</ele><time>2026-04-25T10:51:51.773Z</time></trkpt><trkpt lat="41.1570425" lon="-7.7817838"><ele>68.0</ele><time>2026-04-25T10:51:53.774Z</time></trkpt><trkpt lat="41.1570629" lon="-7.7818826"><ele>68.0</ele><time>2026-04-25T10:51:54.778Z</time></trkpt><trkpt lat="41.1570856" lon="-7.7819827"><ele>68.0</ele><time>2026-04-25T10:51:55.778Z</time></trkpt><trkpt lat="41.1571087" lon="-7.7820857"><ele>67.83333333333334</ele><time>2026-04-25T10:51:56.783Z</time></trkpt><trkpt lat="41.1571347" lon="-7.7821818"><ele>67.66666666666667</ele><time>2026-04-25T10:51:57.77Z</time></trkpt><trkpt lat="41.1571651" lon="-7.7822777"><ele>67.5</ele><time>2026-04-25T10:51:58.776Z</time></trkpt><trkpt lat="41.1571962" lon="-7.7823662"><ele>67.33333333333333</ele><time>2026-04-25T10:51:59.778Z</time></trkpt><trkpt lat="41.1572321" lon="-7.7824571"><ele>67.16666666666666</ele><time>2026-04-25T10:52:00.773Z</time></trkpt><trkpt lat="41.1572708" lon="-7.7825473"><ele>67.0</ele><time>2026-04-25T10:52:01.775Z</time></trkpt><trkpt lat="41.1573085" lon="-7.7826362"><ele>67.33333333333333</ele><time>2026-04-25T10:52:02.773Z</time></trkpt><trkpt lat="41.1573448" lon="-7.7827187"><ele>67.66666666666666</ele><time>2026-04-25T10:52:03.774Z</time></trkpt><trkpt lat="41.1573846" lon="-7.7827945"><ele>68.0</ele><time>2026-04-25T10:52:04.77Z</time></trkpt><trkpt lat="41.1574302" lon="-7.7828687"><ele>68.33333333333333</ele><time>2026-04-25T10:52:05.773Z</time></trkpt><trkpt lat="41.1574833" lon="-7.782944"><ele>68.66666666666667</ele><time>2026-04-25T10:52:06.772Z</time></trkpt><trkpt lat="41.1575419" lon="-7.7830188"><ele>69.0</ele><time>2026-04-25T10:52:07.776Z</time></trkpt><trkpt lat="41.1576026" lon="-7.7830967"><ele>69.0</ele><time>2026-04-25T10:52:08.776Z</time></trkpt><trkpt lat="41.1576602" lon="-7.7831841"><ele>69.0</ele><time>2026-04-25T10:52:09.777Z</time></trkpt><trkpt lat="41.1577162" lon="-7.7832674"><ele>69.0</ele><time>2026-04-25T10:52:10.776Z</time></trkpt><trkpt lat="41.1577666" lon="-7.7833446"><ele>69.0</ele><time>2026-04-25T10:52:11.771Z</time></trkpt><trkpt lat="41.1578122" lon="-7.783413"><ele>69.0</ele><time>2026-04-25T10:52:12.778Z</time></trkpt><trkpt lat="41.1579412" lon="-7.7835989"><ele>69.33333333333333</ele><time>2026-04-25T10:52:16.773Z</time></trkpt><trkpt lat="41.1579812" lon="-7.783673"><ele>69.66666666666667</ele><time>2026-04-25T10:52:20.784Z</time></trkpt><trkpt lat="41.1580487" lon="-7.7837111"><ele>70.0</ele><time>2026-04-25T10:52:23.783Z</time></trkpt><trkpt lat="41.1581308" lon="-7.7837573"><ele>70.33333333333334</ele><time>2026-04-25T10:52:25.774Z</time></trkpt><trkpt lat="41.1581823" lon="-7.7838452"><ele>70.66666666666667</ele><time>2026-04-25T10:52:27.774Z</time></trkpt><trkpt lat="41.1582274" lon="-7.783919"><ele>71.0</ele><time>2026-04-25T10:52:29.782Z</time></trkpt><trkpt lat="41.1583041" lon="-7.7839926"><ele>71.0</ele><time>2026-04-25T10:52:32.774Z</time></trkpt><trkpt lat="41.1583626" lon="-7.7840509"><ele>71.0</ele><time>2026-04-25T10:52:34.776Z</time></trkpt><trkpt lat="41.1584684" lon="-7.7842115"><ele>71.0</ele><time>2026-04-25T10:52:38.771Z</time></trkpt><trkpt lat="41.1585316" lon="-7.7842783"><ele>71.0</ele><time>2026-04-25T10:52:40.775Z</time></trkpt><trkpt lat="41.1585991" lon="-7.7843515"><ele>71.0</ele><time>2026-04-25T10:52:42.774Z</time></trkpt><trkpt lat="41.1586586" lon="-7.7844485"><ele>70.6</ele><time>2026-04-25T10:52:44.774Z</time></trkpt><trkpt lat="41.1587301" lon="-7.7845162"><ele>70.19999999999999</ele><time>2026-04-25T10:52:46.773Z</time></trkpt><trkpt lat="41.1588298" lon="-7.7845423"><ele>69.80000000000001</ele><time>2026-04-25T10:52:48.776Z</time></trkpt><trkpt lat="41.1589305" lon="-7.7845833"><ele>69.4</ele><time>2026-04-25T10:52:50.778Z</time></trkpt><trkpt lat="41.1589696" lon="-7.7846763"><ele>69.0</ele><time>2026-04-25T10:52:52.775Z</time></trkpt><trkpt lat="41.1589539" lon="-7.7847875"><ele>69.0</ele><time>2026-04-25T10:52:54.78Z</time></trkpt><trkpt lat="41.1589308" lon="-7.7849284"><ele>69.0</ele><time>2026-04-25T10:52:56.771Z</time></trkpt><trkpt lat="41.1590108" lon="-7.7852165"><ele>69.0</ele><time>2026-04-25T10:53:00.777Z</time></trkpt><trkpt lat="41.1590366" lon="-7.7852935"><ele>69.0</ele><time>2026-04-25T10:53:01.779Z</time></trkpt><trkpt lat="41.1590811" lon="-7.7854389"><ele>68.4</ele><time>2026-04-25T10:53:03.772Z</time></trkpt><trkpt lat="41.1591158" lon="-7.7855965"><ele>67.80000000000001</ele><time>2026-04-25T10:53:05.773Z</time></trkpt><trkpt lat="41.1591591" lon="-7.7857245"><ele>67.19999999999999</ele><time>2026-04-25T10:53:07.777Z</time></trkpt><trkpt lat="41.1591977" lon="-7.7858368"><ele>66.6</ele><time>2026-04-25T10:53:09.773Z</time></trkpt><trkpt lat="41.1592238" lon="-7.7859545"><ele>66.0</ele><time>2026-04-25T10:53:11.779Z</time></trkpt><trkpt lat="41.1592632" lon="-7.7860796"><ele>64.5</ele><time>2026-04-25T10:53:13.773Z</time></trkpt><trkpt lat="41.1593238" lon="-7.7862175"><ele>63.0</ele><time>2026-04-25T10:53:15.776Z</time></trkpt><trkpt lat="41.1593547" lon="-7.7862919"><ele>61.5</ele><time>2026-04-25T10:53:16.775Z</time></trkpt><trkpt lat="41.1593821" lon="-7.7863704"><ele>60.0</ele><time>2026-04-25T10:53:17.777Z</time></trkpt><trkpt lat="41.1594675" lon="-7.7866531"><ele>60.0</ele><time>2026-04-25T10:53:21.773Z</time></trkpt><trkpt lat="41.1595211" lon="-7.7867643"><ele>60.0</ele><time>2026-04-25T10:53:23.776Z</time></trkpt><trkpt lat="41.1595739" lon="-7.7868843"><ele>60.0</ele><time>2026-04-25T10:53:25.775Z</time></trkpt><trkpt lat="41.1596181" lon="-7.7870058"><ele>60.0</ele><time>2026-04-25T10:53:27.769Z</time></trkpt><trkpt lat="41.1596627" lon="-7.7871392"><ele>60.0</ele><time>2026-04-25T10:53:29.775Z</time></trkpt><trkpt lat="41.1597181" lon="-7.7872798"><ele>61.4</ele><time>2026-04-25T10:53:31.775Z</time></trkpt><trkpt lat="41.1597732" lon="-7.7874291"><ele>62.8</ele><time>2026-04-25T10:53:33.782Z</time></trkpt><trkpt lat="41.1598001" lon="-7.7875083"><ele>64.2</ele><time>2026-04-25T10:53:34.773Z</time></trkpt><trkpt lat="41.1598234" lon="-7.7875894"><ele>65.6</ele><time>2026-04-25T10:53:35.786Z</time></trkpt><trkpt lat="41.1598685" lon="-7.7877472"><ele>67.0</ele><time>2026-04-25T10:53:37.773Z</time></trkpt><trkpt lat="41.159896" lon="-7.7878315"><ele>67.0</ele><time>2026-04-25T10:53:38.772Z</time></trkpt><trkpt lat="41.1599616" lon="-7.7880092"><ele>67.0</ele><time>2026-04-25T10:53:40.773Z</time></trkpt><trkpt lat="41.1599964" lon="-7.788092"><ele>67.0</ele><time>2026-04-25T10:53:41.776Z</time></trkpt><trkpt lat="41.1600362" lon="-7.7881706"><ele>67.0</ele><time>2026-04-25T10:53:42.776Z</time></trkpt><trkpt lat="41.1600738" lon="-7.7882564"><ele>67.0</ele><time>2026-04-25T10:53:43.772Z</time></trkpt><trkpt lat="41.1601084" lon="-7.788343"><ele>67.0</ele><time>2026-04-25T10:53:44.771Z</time></trkpt><trkpt lat="41.1601469" lon="-7.7884239"><ele>67.0</ele><time>2026-04-25T10:53:45.783Z</time></trkpt><trkpt lat="41.160183" lon="-7.7885088"><ele>67.0</ele><time>2026-04-25T10:53:46.772Z</time></trkpt><trkpt lat="41.1602207" lon="-7.7885913"><ele>67.0</ele><time>2026-04-25T10:53:47.771Z</time></trkpt><trkpt lat="41.1602616" lon="-7.7886752"><ele>67.0</ele><time>2026-04-25T10:53:48.769Z</time></trkpt><trkpt lat="41.1603023" lon="-7.7887622"><ele>67.0</ele><time>2026-04-25T10:53:49.773Z</time></trkpt><trkpt lat="41.1603501" lon="-7.7888467"><ele>67.0</ele><time>2026-04-25T10:53:50.777Z</time></trkpt><trkpt lat="41.1603944" lon="-7.7889328"><ele>65.16666666666666</ele><time>2026-04-25T10:53:51.772Z</time></trkpt><trkpt lat="41.1604402" lon="-7.7890185"><ele>63.33333333333333</ele><time>2026-04-25T10:53:52.773Z</time></trkpt><trkpt lat="41.1604869" lon="-7.789103"><ele>61.5</ele><time>2026-04-25T10:53:53.775Z</time></trkpt><trkpt lat="41.1605272" lon="-7.7891874"><ele>59.66666666666667</ele><time>2026-04-25T10:53:54.77Z</time></trkpt><trkpt lat="41.1605656" lon="-7.7892711"><ele>57.833333333333336</ele><time>2026-04-25T10:53:55.785Z</time></trkpt><trkpt lat="41.160611" lon="-7.7893529"><ele>56.0</ele><time>2026-04-25T10:53:56.774Z</time></trkpt><trkpt lat="41.1606586" lon="-7.7894321"><ele>56.599999999999994</ele><time>2026-04-25T10:53:57.778Z</time></trkpt><trkpt lat="41.1607125" lon="-7.7895123"><ele>57.199999999999996</ele><time>2026-04-25T10:53:58.781Z</time></trkpt><trkpt lat="41.1607622" lon="-7.7895962"><ele>57.800000000000004</ele><time>2026-04-25T10:53:59.774Z</time></trkpt><trkpt lat="41.1608436" lon="-7.789769"><ele>58.400000000000006</ele><time>2026-04-25T10:54:01.773Z</time></trkpt><trkpt lat="41.1608821" lon="-7.7898485"><ele>59.0</ele><time>2026-04-25T10:54:02.781Z</time></trkpt><trkpt lat="41.1609162" lon="-7.7899278"><ele>59.00000000000001</ele><time>2026-04-25T10:54:03.77Z</time></trkpt><trkpt lat="41.1609507" lon="-7.790002"><ele>59.0</ele><time>2026-04-25T10:54:04.777Z</time></trkpt><trkpt lat="41.1610255" lon="-7.7901341"><ele>59.0</ele><time>2026-04-25T10:54:06.771Z</time></trkpt><trkpt lat="41.1610684" lon="-7.7902089"><ele>59.0</ele><time>2026-04-25T10:54:07.776Z</time></trkpt><trkpt lat="41.1611085" lon="-7.7902883"><ele>59.00000000000001</ele><time>2026-04-25T10:54:08.771Z</time></trkpt><trkpt lat="41.1611463" lon="-7.7903662"><ele>59.0</ele><time>2026-04-25T10:54:09.776Z</time></trkpt><trkpt lat="41.1611848" lon="-7.7904418"><ele>58.50000000000001</ele><time>2026-04-25T10:54:10.772Z</time></trkpt><trkpt lat="41.1612238" lon="-7.7905158"><ele>58.0</ele><time>2026-04-25T10:54:11.774Z</time></trkpt><trkpt lat="41.1612639" lon="-7.7905901"><ele>57.5</ele><time>2026-04-25T10:54:12.789Z</time></trkpt><trkpt lat="41.1613054" lon="-7.7906591"><ele>57.0</ele><time>2026-04-25T10:54:13.769Z</time></trkpt><trkpt lat="41.1613483" lon="-7.7907255"><ele>56.50000000000001</ele><time>2026-04-25T10:54:14.771Z</time></trkpt><trkpt lat="41.1613946" lon="-7.7907926"><ele>56.0</ele><time>2026-04-25T10:54:15.776Z</time></trkpt><trkpt lat="41.1614592" lon="-7.790931"><ele>56.75</ele><time>2026-04-25T10:54:17.774Z</time></trkpt><trkpt lat="41.1615098" lon="-7.7910678"><ele>57.5</ele><time>2026-04-25T10:54:19.777Z</time></trkpt><trkpt lat="41.1615685" lon="-7.7911803"><ele>58.25</ele><time>2026-04-25T10:54:21.776Z</time></trkpt><trkpt lat="41.161717" lon="-7.7913766"><ele>59.0</ele><time>2026-04-25T10:54:25.777Z</time></trkpt><trkpt lat="41.1618084" lon="-7.7914699"><ele>59.00000000000001</ele><time>2026-04-25T10:54:27.773Z</time></trkpt><trkpt lat="41.1619144" lon="-7.7915343"><ele>59.0</ele><time>2026-04-25T10:54:29.771Z</time></trkpt><trkpt lat="41.1619752" lon="-7.7915682"><ele>59.0</ele><time>2026-04-25T10:54:30.776Z</time></trkpt><trkpt lat="41.1620409" lon="-7.7916061"><ele>59.0</ele><time>2026-04-25T10:54:31.786Z</time></trkpt><trkpt lat="41.1621014" lon="-7.7916459"><ele>59.00000000000001</ele><time>2026-04-25T10:54:32.772Z</time></trkpt><trkpt lat="41.1621612" lon="-7.7916738"><ele>59.0</ele><time>2026-04-25T10:54:33.771Z</time></trkpt><trkpt lat="41.1622809" lon="-7.7917211"><ele>59.00000000000001</ele><time>2026-04-25T10:54:35.779Z</time></trkpt><trkpt lat="41.1623437" lon="-7.7917458"><ele>59.0</ele><time>2026-04-25T10:54:36.778Z</time></trkpt><trkpt lat="41.1624042" lon="-7.7917838"><ele>59.0</ele><time>2026-04-25T10:54:37.77Z</time></trkpt><trkpt lat="41.1624739" lon="-7.791827"><ele>59.0</ele><time>2026-04-25T10:54:38.77Z</time></trkpt><trkpt lat="41.1625511" lon="-7.7918695"><ele>59.00000000000001</ele><time>2026-04-25T10:54:39.771Z</time></trkpt><trkpt lat="41.162626" lon="-7.7919061"><ele>59.0</ele><time>2026-04-25T10:54:40.772Z</time></trkpt><trkpt lat="41.1626998" lon="-7.7919453"><ele>59.66666666666667</ele><time>2026-04-25T10:54:41.78Z</time></trkpt><trkpt lat="41.1627724" lon="-7.791987"><ele>60.333333333333336</ele><time>2026-04-25T10:54:42.772Z</time></trkpt><trkpt lat="41.1629046" lon="-7.792077"><ele>61.0</ele><time>2026-04-25T10:54:44.77Z</time></trkpt><trkpt lat="41.1629663" lon="-7.7921121"><ele>61.66666666666667</ele><time>2026-04-25T10:54:45.776Z</time></trkpt><trkpt lat="41.1630266" lon="-7.7921471"><ele>62.333333333333336</ele><time>2026-04-25T10:54:46.778Z</time></trkpt><trkpt lat="41.1630939" lon="-7.7921851"><ele>63.0</ele><time>2026-04-25T10:54:47.78Z</time></trkpt><trkpt lat="41.1631609" lon="-7.7922171"><ele>63.599999999999994</ele><time>2026-04-25T10:54:48.773Z</time></trkpt><trkpt lat="41.1632287" lon="-7.7922443"><ele>64.19999999999999</ele><time>2026-04-25T10:54:49.786Z</time></trkpt><trkpt lat="41.1633364" lon="-7.7922957"><ele>64.8</ele><time>2026-04-25T10:54:51.778Z</time></trkpt><trkpt lat="41.163438" lon="-7.7923286"><ele>65.39999999999999</ele><time>2026-04-25T10:54:53.777Z</time></trkpt><trkpt lat="41.1635475" lon="-7.7923475"><ele>66.0</ele><time>2026-04-25T10:54:55.771Z</time></trkpt><trkpt lat="41.1636537" lon="-7.7923578"><ele>66.0</ele><time>2026-04-25T10:54:57.774Z</time></trkpt><trkpt lat="41.1637263" lon="-7.7923636"><ele>66.0</ele><time>2026-04-25T10:55:01.771Z</time></trkpt><trkpt lat="41.1637966" lon="-7.7923607"><ele>66.0</ele><time>2026-04-25T10:55:03.773Z</time></trkpt><trkpt lat="41.1639825" lon="-7.7923127"><ele>66.0</ele><time>2026-04-25T10:55:07.779Z</time></trkpt><trkpt lat="41.1640594" lon="-7.7923596"><ele>66.0</ele><time>2026-04-25T10:55:09.774Z</time></trkpt><trkpt lat="41.1641338" lon="-7.7924265"><ele>66.0</ele><time>2026-04-25T10:55:11.782Z</time></trkpt><trkpt lat="41.1642086" lon="-7.7925362"><ele>66.0</ele><time>2026-04-25T10:55:13.772Z</time></trkpt><trkpt lat="41.1642794" lon="-7.7926682"><ele>66.0</ele><time>2026-04-25T10:55:15.769Z</time></trkpt><trkpt lat="41.1643099" lon="-7.7927515"><ele>66.0</ele><time>2026-04-25T10:55:16.776Z</time></trkpt><trkpt lat="41.1643354" lon="-7.7928374"><ele>66.0</ele><time>2026-04-25T10:55:17.783Z</time></trkpt><trkpt lat="41.1643595" lon="-7.7929218"><ele>66.0</ele><time>2026-04-25T10:55:18.773Z</time></trkpt><trkpt lat="41.1643784" lon="-7.7930075"><ele>66.0</ele><time>2026-04-25T10:55:19.773Z</time></trkpt><trkpt lat="41.1643995" lon="-7.7930867"><ele>66.0</ele><time>2026-04-25T10:55:20.772Z</time></trkpt><trkpt lat="41.1644462" lon="-7.7932183"><ele>66.0</ele><time>2026-04-25T10:55:22.771Z</time></trkpt><trkpt lat="41.1644747" lon="-7.7933232"><ele>66.0</ele><time>2026-04-25T10:55:24.775Z</time></trkpt><trkpt lat="41.164532" lon="-7.7935276"><ele>66.0</ele><time>2026-04-25T10:55:28.777Z</time></trkpt><trkpt lat="41.1645736" lon="-7.7936401"><ele>65.39999999999999</ele><time>2026-04-25T10:55:30.768Z</time></trkpt><trkpt lat="41.1646299" lon="-7.7937665"><ele>64.8</ele><time>2026-04-25T10:55:32.771Z</time></trkpt><trkpt lat="41.1646794" lon="-7.7939122"><ele>64.19999999999999</ele><time>2026-04-25T10:55:34.774Z</time></trkpt><trkpt lat="41.1647207" lon="-7.7940714"><ele>63.599999999999994</ele><time>2026-04-25T10:55:36.774Z</time></trkpt><trkpt lat="41.1647477" lon="-7.7941497"><ele>63.0</ele><time>2026-04-25T10:55:37.773Z</time></trkpt><trkpt lat="41.1647827" lon="-7.7942303"><ele>63.0</ele><time>2026-04-25T10:55:38.776Z</time></trkpt><trkpt lat="41.1648172" lon="-7.7943122"><ele>63.0</ele><time>2026-04-25T10:55:39.779Z</time></trkpt><trkpt lat="41.164851" lon="-7.7943945"><ele>63.0</ele><time>2026-04-25T10:55:40.775Z</time></trkpt><trkpt lat="41.1648822" lon="-7.7944864"><ele>63.0</ele><time>2026-04-25T10:55:41.773Z</time></trkpt><trkpt lat="41.1649103" lon="-7.7945846"><ele>63.0</ele><time>2026-04-25T10:55:42.775Z</time></trkpt><trkpt lat="41.16494" lon="-7.7946865"><ele>63.0</ele><time>2026-04-25T10:55:43.772Z</time></trkpt><trkpt lat="41.164973" lon="-7.7947877"><ele>61.8</ele><time>2026-04-25T10:55:44.772Z</time></trkpt><trkpt lat="41.1650046" lon="-7.7948884"><ele>60.599999999999994</ele><time>2026-04-25T10:55:45.777Z</time></trkpt><trkpt lat="41.1650622" lon="-7.7950517"><ele>59.400000000000006</ele><time>2026-04-25T10:55:47.776Z</time></trkpt><trkpt lat="41.1651074" lon="-7.7951864"><ele>58.2</ele><time>2026-04-25T10:55:49.777Z</time></trkpt><trkpt lat="41.1651464" lon="-7.7953202"><ele>57.0</ele><time>2026-04-25T10:55:51.776Z</time></trkpt><trkpt lat="41.165196" lon="-7.7954375"><ele>56.833333333333336</ele><time>2026-04-25T10:55:53.787Z</time></trkpt><trkpt lat="41.1652695" lon="-7.7955084"><ele>56.66666666666667</ele><time>2026-04-25T10:55:55.773Z</time></trkpt><trkpt lat="41.165378" lon="-7.7955544"><ele>56.5</ele><time>2026-04-25T10:55:57.771Z</time></trkpt><trkpt lat="41.165441" lon="-7.7955739"><ele>56.333333333333336</ele><time>2026-04-25T10:55:58.772Z</time></trkpt><trkpt lat="41.1655072" lon="-7.7955796"><ele>56.16666666666667</ele><time>2026-04-25T10:55:59.772Z</time></trkpt><trkpt lat="41.1655769" lon="-7.7955688"><ele>56.0</ele><time>2026-04-25T10:56:00.772Z</time></trkpt><trkpt lat="41.1656523" lon="-7.7955478"><ele>56.599999999999994</ele><time>2026-04-25T10:56:01.777Z</time></trkpt><trkpt lat="41.1657342" lon="-7.7955127"><ele>57.199999999999996</ele><time>2026-04-25T10:56:02.78Z</time></trkpt><trkpt lat="41.1658157" lon="-7.7954627"><ele>57.800000000000004</ele><time>2026-04-25T10:56:03.777Z</time></trkpt><trkpt lat="41.1659042" lon="-7.7953968"><ele>58.400000000000006</ele><time>2026-04-25T10:56:04.774Z</time></trkpt><trkpt lat="41.1659951" lon="-7.7953273"><ele>59.0</ele><time>2026-04-25T10:56:05.778Z</time></trkpt><trkpt lat="41.1660801" lon="-7.7952606"><ele>59.25</ele><time>2026-04-25T10:56:06.776Z</time></trkpt><trkpt lat="41.16623" lon="-7.7951297"><ele>59.5</ele><time>2026-04-25T10:56:08.772Z</time></trkpt><trkpt lat="41.1663054" lon="-7.7950615"><ele>59.75</ele><time>2026-04-25T10:56:09.773Z</time></trkpt><trkpt lat="41.1663833" lon="-7.7949921"><ele>60.0</ele><time>2026-04-25T10:56:10.77Z</time></trkpt><trkpt lat="41.1664617" lon="-7.7949182"><ele>59.6</ele><time>2026-04-25T10:56:11.771Z</time></trkpt><trkpt lat="41.1665377" lon="-7.7948338"><ele>59.2</ele><time>2026-04-25T10:56:12.778Z</time></trkpt><trkpt lat="41.1666062" lon="-7.7947356"><ele>58.8</ele><time>2026-04-25T10:56:13.768Z</time></trkpt><trkpt lat="41.1666608" lon="-7.7946281"><ele>58.4</ele><time>2026-04-25T10:56:14.777Z</time></trkpt><trkpt lat="41.1666994" lon="-7.7945224"><ele>58.0</ele><time>2026-04-25T10:56:15.781Z</time></trkpt><trkpt lat="41.1667367" lon="-7.7944206"><ele>58.666666666666664</ele><time>2026-04-25T10:56:16.772Z</time></trkpt><trkpt lat="41.1667792" lon="-7.7943245"><ele>59.33333333333333</ele><time>2026-04-25T10:56:17.771Z</time></trkpt><trkpt lat="41.1668356" lon="-7.7942395"><ele>60.0</ele><time>2026-04-25T10:56:18.77Z</time></trkpt><trkpt lat="41.166902" lon="-7.7941801"><ele>60.66666666666667</ele><time>2026-04-25T10:56:19.772Z</time></trkpt><trkpt lat="41.1669736" lon="-7.7941554"><ele>61.333333333333336</ele><time>2026-04-25T10:56:20.779Z</time></trkpt><trkpt lat="41.1670564" lon="-7.7941725"><ele>62.0</ele><time>2026-04-25T10:56:21.773Z</time></trkpt><trkpt lat="41.1671426" lon="-7.7942297"><ele>62.0</ele><time>2026-04-25T10:56:22.774Z</time></trkpt><trkpt lat="41.167202" lon="-7.7943213"><ele>62.0</ele><time>2026-04-25T10:56:23.768Z</time></trkpt><trkpt lat="41.1672326" lon="-7.7944381"><ele>62.0</ele><time>2026-04-25T10:56:24.781Z</time></trkpt><trkpt lat="41.1672482" lon="-7.7945605"><ele>62.0</ele><time>2026-04-25T10:56:25.774Z</time></trkpt><trkpt lat="41.1672609" lon="-7.7946808"><ele>62.0</ele><time>2026-04-25T10:56:26.775Z</time></trkpt><trkpt lat="41.1672714" lon="-7.7947967"><ele>61.400000000000006</ele><time>2026-04-25T10:56:27.773Z</time></trkpt><trkpt lat="41.1673007" lon="-7.7950097"><ele>60.800000000000004</ele><time>2026-04-25T10:56:29.782Z</time></trkpt><trkpt lat="41.167325" lon="-7.7951063"><ele>60.2</ele><time>2026-04-25T10:56:30.774Z</time></trkpt><trkpt lat="41.167357" lon="-7.7952079"><ele>59.6</ele><time>2026-04-25T10:56:31.779Z</time></trkpt><trkpt lat="41.167389" lon="-7.795319"><ele>59.0</ele><time>2026-04-25T10:56:32.775Z</time></trkpt><trkpt lat="41.1674279" lon="-7.7954539"><ele>59.0</ele><time>2026-04-25T10:56:33.771Z</time></trkpt><trkpt lat="41.1674697" lon="-7.7956194"><ele>59.0</ele><time>2026-04-25T10:56:34.774Z</time></trkpt><trkpt lat="41.1675027" lon="-7.7957967"><ele>59.0</ele><time>2026-04-25T10:56:35.775Z</time></trkpt><trkpt lat="41.1675308" lon="-7.7959777"><ele>59.0</ele><time>2026-04-25T10:56:36.77Z</time></trkpt><trkpt lat="41.1675417" lon="-7.7961555"><ele>60.75</ele><time>2026-04-25T10:56:37.771Z</time></trkpt><trkpt lat="41.167548" lon="-7.796309"><ele>62.5</ele><time>2026-04-25T10:56:38.776Z</time></trkpt><trkpt lat="41.1675502" lon="-7.7964597"><ele>64.25</ele><time>2026-04-25T10:56:39.774Z</time></trkpt><trkpt lat="41.1675455" lon="-7.7966073"><ele>66.0</ele><time>2026-04-25T10:56:40.778Z</time></trkpt><trkpt lat="41.167539" lon="-7.7967536"><ele>67.39999999999999</ele><time>2026-04-25T10:56:41.773Z</time></trkpt><trkpt lat="41.1675303" lon="-7.7968958"><ele>68.8</ele><time>2026-04-25T10:56:42.774Z</time></trkpt><trkpt lat="41.1675163" lon="-7.7970259"><ele>70.19999999999999</ele><time>2026-04-25T10:56:43.781Z</time></trkpt><trkpt lat="41.1675085" lon="-7.7971367"><ele>71.6</ele><time>2026-04-25T10:56:44.774Z</time></trkpt><trkpt lat="41.1675057" lon="-7.7972327"><ele>73.0</ele><time>2026-04-25T10:56:45.774Z</time></trkpt><trkpt lat="41.1675114" lon="-7.797367"><ele>73.0</ele><time>2026-04-25T10:56:47.772Z</time></trkpt><trkpt lat="41.1675191" lon="-7.7974614"><ele>73.0</ele><time>2026-04-25T10:56:49.778Z</time></trkpt><trkpt lat="41.1674214" lon="-7.7975971"><ele>73.0</ele><time>2026-04-25T10:56:54.783Z</time></trkpt><trkpt lat="41.1673679" lon="-7.7976622"><ele>73.0</ele><time>2026-04-25T10:56:56.774Z</time></trkpt><trkpt lat="41.1673303" lon="-7.797779"><ele>73.0</ele><time>2026-04-25T10:56:58.773Z</time></trkpt><trkpt lat="41.167342" lon="-7.797863"><ele>73.0</ele><time>2026-04-25T10:56:59.78Z</time></trkpt><trkpt lat="41.1673752" lon="-7.7979515"><ele>73.66666666666666</ele><time>2026-04-25T10:57:00.774Z</time></trkpt><trkpt lat="41.1674169" lon="-7.7980429"><ele>74.33333333333333</ele><time>2026-04-25T10:57:01.769Z</time></trkpt><trkpt lat="41.1674628" lon="-7.7981355"><ele>75.0</ele><time>2026-04-25T10:57:02.775Z</time></trkpt><trkpt lat="41.1675125" lon="-7.7982205"><ele>75.66666666666667</ele><time>2026-04-25T10:57:03.78Z</time></trkpt><trkpt lat="41.1675733" lon="-7.7982909"><ele>76.33333333333334</ele><time>2026-04-25T10:57:04.778Z</time></trkpt><trkpt lat="41.1676397" lon="-7.798352"><ele>77.0</ele><time>2026-04-25T10:57:05.772Z</time></trkpt><trkpt lat="41.1677126" lon="-7.7984126"><ele>77.0</ele><time>2026-04-25T10:57:06.779Z</time></trkpt><trkpt lat="41.1677892" lon="-7.7984719"><ele>77.0</ele><time>2026-04-25T10:57:07.769Z</time></trkpt><trkpt lat="41.1678649" lon="-7.7985266"><ele>77.0</ele><time>2026-04-25T10:57:08.772Z</time></trkpt><trkpt lat="41.1679367" lon="-7.7985859"><ele>77.0</ele><time>2026-04-25T10:57:09.785Z</time></trkpt><trkpt lat="41.1679966" lon="-7.7986603"><ele>77.0</ele><time>2026-04-25T10:57:10.773Z</time></trkpt><trkpt lat="41.1680925" lon="-7.7988453"><ele>76.66666666666667</ele><time>2026-04-25T10:57:12.777Z</time></trkpt><trkpt lat="41.1681264" lon="-7.7989487"><ele>76.33333333333334</ele><time>2026-04-25T10:57:13.772Z</time></trkpt><trkpt lat="41.1681497" lon="-7.7990604"><ele>76.0</ele><time>2026-04-25T10:57:14.775Z</time></trkpt><trkpt lat="41.1681652" lon="-7.7991776"><ele>75.66666666666667</ele><time>2026-04-25T10:57:15.775Z</time></trkpt><trkpt lat="41.1681801" lon="-7.7992979"><ele>75.33333333333333</ele><time>2026-04-25T10:57:16.769Z</time></trkpt><trkpt lat="41.1681999" lon="-7.7994182"><ele>75.0</ele><time>2026-04-25T10:57:17.775Z</time></trkpt><trkpt lat="41.1682237" lon="-7.7995458"><ele>76.4</ele><time>2026-04-25T10:57:18.783Z</time></trkpt><trkpt lat="41.1682491" lon="-7.7996777"><ele>77.8</ele><time>2026-04-25T10:57:19.783Z</time></trkpt><trkpt lat="41.1682905" lon="-7.7997941"><ele>79.19999999999999</ele><time>2026-04-25T10:57:20.77Z</time></trkpt><trkpt lat="41.1683381" lon="-7.7999018"><ele>80.6</ele><time>2026-04-25T10:57:21.772Z</time></trkpt><trkpt lat="41.1683866" lon="-7.8000096"><ele>82.0</ele><time>2026-04-25T10:57:22.773Z</time></trkpt><trkpt lat="41.1684348" lon="-7.8001189"><ele>82.5</ele><time>2026-04-25T10:57:23.776Z</time></trkpt><trkpt lat="41.1684839" lon="-7.8002228"><ele>83.0</ele><time>2026-04-25T10:57:24.78Z</time></trkpt><trkpt lat="41.1685369" lon="-7.8003226"><ele>83.5</ele><time>2026-04-25T10:57:25.779Z</time></trkpt><trkpt lat="41.1685769" lon="-7.8004262"><ele>84.0</ele><time>2026-04-25T10:57:26.773Z</time></trkpt><trkpt lat="41.1686263" lon="-7.8005175"><ele>84.5</ele><time>2026-04-25T10:57:27.769Z</time></trkpt><trkpt lat="41.168683" lon="-7.8006067"><ele>85.0</ele><time>2026-04-25T10:57:28.779Z</time></trkpt><trkpt lat="41.1687304" lon="-7.8006988"><ele>85.0</ele><time>2026-04-25T10:57:29.78Z</time></trkpt><trkpt lat="41.1687733" lon="-7.8008066"><ele>85.0</ele><time>2026-04-25T10:57:30.779Z</time></trkpt><trkpt lat="41.1688216" lon="-7.8009129"><ele>85.0</ele><time>2026-04-25T10:57:31.779Z</time></trkpt><trkpt lat="41.1688955" lon="-7.8011397"><ele>85.0</ele><time>2026-04-25T10:57:33.772Z</time></trkpt><trkpt lat="41.1689378" lon="-7.8012452"><ele>85.8</ele><time>2026-04-25T10:57:34.768Z</time></trkpt><trkpt lat="41.1689913" lon="-7.8013386"><ele>86.6</ele><time>2026-04-25T10:57:35.776Z</time></trkpt><trkpt lat="41.1690562" lon="-7.8014233"><ele>87.4</ele><time>2026-04-25T10:57:36.769Z</time></trkpt><trkpt lat="41.16914" lon="-7.8014744"><ele>88.2</ele><time>2026-04-25T10:57:37.778Z</time></trkpt><trkpt lat="41.1692484" lon="-7.8014901"><ele>89.0</ele><time>2026-04-25T10:57:38.771Z</time></trkpt><trkpt lat="41.1693565" lon="-7.8015075"><ele>90.2</ele><time>2026-04-25T10:57:39.769Z</time></trkpt><trkpt lat="41.1694653" lon="-7.8015223"><ele>91.4</ele><time>2026-04-25T10:57:40.785Z</time></trkpt><trkpt lat="41.1695759" lon="-7.8015368"><ele>92.6</ele><time>2026-04-25T10:57:41.774Z</time></trkpt><trkpt lat="41.1696911" lon="-7.8015455"><ele>93.8</ele><time>2026-04-25T10:57:42.773Z</time></trkpt><trkpt lat="41.1698035" lon="-7.8015497"><ele>95.0</ele><time>2026-04-25T10:57:43.778Z</time></trkpt><trkpt lat="41.16991" lon="-7.8015618"><ele>96.0</ele><time>2026-04-25T10:57:44.781Z</time></trkpt><trkpt lat="41.170021" lon="-7.8015764"><ele>97.0</ele><time>2026-04-25T10:57:45.772Z</time></trkpt><trkpt lat="41.170129" lon="-7.8015917"><ele>98.0</ele><time>2026-04-25T10:57:46.773Z</time></trkpt><trkpt lat="41.1702401" lon="-7.8016094"><ele>99.0</ele><time>2026-04-25T10:57:47.774Z</time></trkpt><trkpt lat="41.1703339" lon="-7.8016285"><ele>100.0</ele><time>2026-04-25T10:57:48.778Z</time></trkpt><trkpt lat="41.1704219" lon="-7.8016354"><ele>100.0</ele><time>2026-04-25T10:57:49.785Z</time></trkpt><trkpt lat="41.1705046" lon="-7.8016181"><ele>100.0</ele><time>2026-04-25T10:57:50.773Z</time></trkpt><trkpt lat="41.1705946" lon="-7.801602"><ele>100.0</ele><time>2026-04-25T10:57:51.776Z</time></trkpt><trkpt lat="41.1706844" lon="-7.8016153"><ele>100.0</ele><time>2026-04-25T10:57:52.78Z</time></trkpt><trkpt lat="41.1708735" lon="-7.8017189"><ele>102.4</ele><time>2026-04-25T10:57:54.773Z</time></trkpt><trkpt lat="41.1709525" lon="-7.8018005"><ele>104.8</ele><time>2026-04-25T10:57:55.772Z</time></trkpt><trkpt lat="41.171019" lon="-7.8018889"><ele>107.19999999999999</ele><time>2026-04-25T10:57:56.781Z</time></trkpt><trkpt lat="41.1710746" lon="-7.8019864"><ele>109.6</ele><time>2026-04-25T10:57:57.774Z</time></trkpt><trkpt lat="41.1711287" lon="-7.802091"><ele>112.0</ele><time>2026-04-25T10:57:58.768Z</time></trkpt><trkpt lat="41.171181" lon="-7.8021889"><ele>112.33333333333334</ele><time>2026-04-25T10:57:59.77Z</time></trkpt><trkpt lat="41.1712314" lon="-7.8022774"><ele>112.66666666666667</ele><time>2026-04-25T10:58:00.77Z</time></trkpt><trkpt lat="41.1712829" lon="-7.802372"><ele>113.0</ele><time>2026-04-25T10:58:01.772Z</time></trkpt><trkpt lat="41.1713314" lon="-7.8024604"><ele>113.33333333333334</ele><time>2026-04-25T10:58:02.778Z</time></trkpt><trkpt lat="41.1713728" lon="-7.8025445"><ele>113.66666666666667</ele><time>2026-04-25T10:58:03.781Z</time></trkpt><trkpt lat="41.1714119" lon="-7.8026277"><ele>114.0</ele><time>2026-04-25T10:58:04.774Z</time></trkpt><trkpt lat="41.1714365" lon="-7.8027216"><ele>114.5</ele><time>2026-04-25T10:58:05.769Z</time></trkpt><trkpt lat="41.1714418" lon="-7.8028182"><ele>115.0</ele><time>2026-04-25T10:58:06.772Z</time></trkpt><trkpt lat="41.1714286" lon="-7.8029075"><ele>115.5</ele><time>2026-04-25T10:58:07.779Z</time></trkpt><trkpt lat="41.1714031" lon="-7.8029929"><ele>116.0</ele><time>2026-04-25T10:58:08.772Z</time></trkpt><trkpt lat="41.1713655" lon="-7.803085"><ele>116.5</ele><time>2026-04-25T10:58:09.773Z</time></trkpt><trkpt lat="41.17133" lon="-7.8031688"><ele>117.0</ele><time>2026-04-25T10:58:10.778Z</time></trkpt><trkpt lat="41.1713063" lon="-7.8032854"><ele>117.0</ele><time>2026-04-25T10:58:12.772Z</time></trkpt><trkpt lat="41.1713426" lon="-7.8033955"><ele>117.0</ele><time>2026-04-25T10:58:14.774Z</time></trkpt><trkpt lat="41.1714653" lon="-7.8034639"><ele>117.0</ele><time>2026-04-25T10:58:18.772Z</time></trkpt><trkpt lat="41.1715401" lon="-7.8035145"><ele>117.0</ele><time>2026-04-25T10:58:42.772Z</time></trkpt><trkpt lat="41.1717055" lon="-7.8036318"><ele>119.39999999999999</ele><time>2026-04-25T10:58:46.778Z</time></trkpt><trkpt lat="41.1717637" lon="-7.8036896"><ele>121.79999999999998</ele><time>2026-04-25T10:58:47.77Z</time></trkpt><trkpt lat="41.1718348" lon="-7.8037755"><ele>124.2</ele><time>2026-04-25T10:58:48.769Z</time></trkpt><trkpt lat="41.1719063" lon="-7.8038556"><ele>126.6</ele><time>2026-04-25T10:58:49.78Z</time></trkpt><trkpt lat="41.1719816" lon="-7.8039349"><ele>129.0</ele><time>2026-04-25T10:58:50.776Z</time></trkpt><trkpt lat="41.1720543" lon="-7.8040219"><ele>129.0</ele><time>2026-04-25T10:58:51.77Z</time></trkpt><trkpt lat="41.1721242" lon="-7.8041052"><ele>129.0</ele><time>2026-04-25T10:58:52.78Z</time></trkpt><trkpt lat="41.1721882" lon="-7.8041746"><ele>129.0</ele><time>2026-04-25T10:58:53.77Z</time></trkpt><trkpt lat="41.1722496" lon="-7.8042395"><ele>129.0</ele><time>2026-04-25T10:58:54.77Z</time></trkpt><trkpt lat="41.1723072" lon="-7.8042998"><ele>129.0</ele><time>2026-04-25T10:58:55.771Z</time></trkpt><trkpt lat="41.1723875" lon="-7.8043473"><ele>129.0</ele><time>2026-04-25T10:58:57.771Z</time></trkpt><trkpt lat="41.172461" lon="-7.8042427"><ele>132.4</ele><time>2026-04-25T10:58:59.777Z</time></trkpt><trkpt lat="41.1725082" lon="-7.8041581"><ele>135.8</ele><time>2026-04-25T10:59:00.769Z</time></trkpt><trkpt lat="41.1725644" lon="-7.8040814"><ele>139.2</ele><time>2026-04-25T10:59:01.772Z</time></trkpt><trkpt lat="41.1726306" lon="-7.8040118"><ele>142.6</ele><time>2026-04-25T10:59:02.773Z</time></trkpt><trkpt lat="41.1727095" lon="-7.8039671"><ele>146.0</ele><time>2026-04-25T10:59:03.768Z</time></trkpt><trkpt lat="41.1728567" lon="-7.8039713"><ele>146.0</ele><time>2026-04-25T10:59:05.771Z</time></trkpt><trkpt lat="41.1729345" lon="-7.8040004"><ele>146.0</ele><time>2026-04-25T10:59:06.772Z</time></trkpt><trkpt lat="41.173003" lon="-7.8040424"><ele>146.0</ele><time>2026-04-25T10:59:07.793Z</time></trkpt><trkpt lat="41.1730674" lon="-7.8040901"><ele>146.0</ele><time>2026-04-25T10:59:08.773Z</time></trkpt><trkpt lat="41.1731272" lon="-7.8041395"><ele>146.0</ele><time>2026-04-25T10:59:09.768Z</time></trkpt><trkpt lat="41.1731892" lon="-7.8041748"><ele>146.0</ele><time>2026-04-25T10:59:10.766Z</time></trkpt><trkpt lat="41.1732569" lon="-7.8042022"><ele>146.0</ele><time>2026-04-25T10:59:11.771Z</time></trkpt><trkpt lat="41.1733286" lon="-7.8042343"><ele>149.42857142857142</ele><time>2026-04-25T10:59:12.781Z</time></trkpt><trkpt lat="41.1733983" lon="-7.8042728"><ele>152.85714285714286</ele><time>2026-04-25T10:59:13.77Z</time></trkpt><trkpt lat="41.1734665" lon="-7.804312"><ele>156.28571428571428</ele><time>2026-04-25T10:59:14.768Z</time></trkpt><trkpt lat="41.1735333" lon="-7.8043469"><ele>159.71428571428572</ele><time>2026-04-25T10:59:15.771Z</time></trkpt><trkpt lat="41.1736036" lon="-7.8043799"><ele>163.14285714285714</ele><time>2026-04-25T10:59:16.774Z</time></trkpt><trkpt lat="41.1736728" lon="-7.8044181"><ele>166.57142857142858</ele><time>2026-04-25T10:59:17.766Z</time></trkpt><trkpt lat="41.1737358" lon="-7.8044496"><ele>170.0</ele><time>2026-04-25T10:59:18.772Z</time></trkpt><trkpt lat="41.173846" lon="-7.8045102"><ele>171.2</ele><time>2026-04-25T10:59:20.774Z</time></trkpt><trkpt lat="41.1739343" lon="-7.8045833"><ele>172.4</ele><time>2026-04-25T10:59:22.772Z</time></trkpt><trkpt lat="41.1740125" lon="-7.8046265"><ele>173.60000000000002</ele><time>2026-04-25T10:59:24.772Z</time></trkpt><trkpt lat="41.1741629" lon="-7.8045946"><ele>174.8</ele><time>2026-04-25T10:59:27.775Z</time></trkpt><trkpt lat="41.1742288" lon="-7.804562"><ele>176.0</ele><time>2026-04-25T10:59:28.777Z</time></trkpt><trkpt lat="41.1742989" lon="-7.804538"><ele>177.4</ele><time>2026-04-25T10:59:29.775Z</time></trkpt><trkpt lat="41.1744174" lon="-7.8044948"><ele>178.8</ele><time>2026-04-25T10:59:31.771Z</time></trkpt><trkpt lat="41.1744817" lon="-7.8044654"><ele>180.20000000000002</ele><time>2026-04-25T10:59:32.786Z</time></trkpt><trkpt lat="41.1745911" lon="-7.8043936"><ele>181.60000000000002</ele><time>2026-04-25T10:59:34.772Z</time></trkpt><trkpt lat="41.1746572" lon="-7.8043606"><ele>183.0</ele><time>2026-04-25T10:59:35.77Z</time></trkpt><trkpt lat="41.1747181" lon="-7.8043158"><ele>183.0</ele><time>2026-04-25T10:59:36.772Z</time></trkpt><trkpt lat="41.1747896" lon="-7.8042813"><ele>183.0</ele><time>2026-04-25T10:59:37.777Z</time></trkpt><trkpt lat="41.1749043" lon="-7.804241"><ele>183.0</ele><time>2026-04-25T10:59:39.769Z</time></trkpt><trkpt lat="41.1750106" lon="-7.8042111"><ele>183.0</ele><time>2026-04-25T10:59:41.771Z</time></trkpt><trkpt lat="41.1751221" lon="-7.8041908"><ele>183.0</ele><time>2026-04-25T10:59:43.777Z</time></trkpt><trkpt lat="41.1752467" lon="-7.8041671"><ele>187.0</ele><time>2026-04-25T10:59:45.768Z</time></trkpt><trkpt lat="41.1754061" lon="-7.8041012"><ele>191.0</ele><time>2026-04-25T10:59:48.786Z</time></trkpt><trkpt lat="41.1754645" lon="-7.8040664"><ele>195.0</ele><time>2026-04-25T10:59:50.771Z</time></trkpt><trkpt lat="41.1755301" lon="-7.8041184"><ele>199.0</ele><time>2026-04-25T10:59:55.772Z</time></trkpt><trkpt lat="41.1755436" lon="-7.804209"><ele>203.0</ele><time>2026-04-25T10:59:59.776Z</time></trkpt><trkpt lat="41.1756241" lon="-7.8042787"><ele>209.60000000000002</ele><time>2026-04-25T11:00:13.78Z</time></trkpt><trkpt lat="41.1758037" lon="-7.8044286"><ele>216.20000000000002</ele><time>2026-04-25T11:00:17.774Z</time></trkpt><trkpt lat="41.1758639" lon="-7.804505"><ele>222.8</ele><time>2026-04-25T11:00:18.779Z</time></trkpt><trkpt lat="41.1759302" lon="-7.8045415"><ele>229.4</ele><time>2026-04-25T11:00:19.776Z</time></trkpt><trkpt lat="41.175983" lon="-7.8046107"><ele>236.0</ele><time>2026-04-25T11:00:21.771Z</time></trkpt><trkpt lat="41.1760368" lon="-7.8046734"><ele>236.00000000000003</ele><time>2026-04-25T11:00:24.777Z</time></trkpt><trkpt lat="41.1760974" lon="-7.804706"><ele>236.0</ele><time>2026-04-25T11:00:26.769Z</time></trkpt><trkpt lat="41.1761788" lon="-7.8047105"><ele>236.0</ele><time>2026-04-25T11:00:28.773Z</time></trkpt><trkpt lat="41.1762512" lon="-7.8047256"><ele>236.0</ele><time>2026-04-25T11:00:30.77Z</time></trkpt><trkpt lat="41.1763517" lon="-7.8047208"><ele>236.00000000000003</ele><time>2026-04-25T11:00:32.77Z</time></trkpt><trkpt lat="41.1764703" lon="-7.8046811"><ele>236.0</ele><time>2026-04-25T11:00:34.771Z</time></trkpt><trkpt lat="41.1766899" lon="-7.8046148"><ele>237.33333333333334</ele><time>2026-04-25T11:00:38.774Z</time></trkpt><trkpt lat="41.1767729" lon="-7.8046107"><ele>238.66666666666669</ele><time>2026-04-25T11:00:40.771Z</time></trkpt><trkpt lat="41.1768507" lon="-7.8046436"><ele>240.0</ele><time>2026-04-25T11:00:42.778Z</time></trkpt><trkpt lat="41.1769195" lon="-7.8047468"><ele>241.33333333333331</ele><time>2026-04-25T11:00:44.775Z</time></trkpt><trkpt lat="41.1769342" lon="-7.8048372"><ele>242.66666666666666</ele><time>2026-04-25T11:00:45.768Z</time></trkpt><trkpt lat="41.1769314" lon="-7.8049426"><ele>244.0</ele><time>2026-04-25T11:00:46.779Z</time></trkpt><trkpt lat="41.1769233" lon="-7.8050399"><ele>248.79999999999998</ele><time>2026-04-25T11:00:47.772Z</time></trkpt><trkpt lat="41.1769227" lon="-7.8051859"><ele>253.59999999999997</ele><time>2026-04-25T11:00:49.771Z</time></trkpt><trkpt lat="41.1769568" lon="-7.8053011"><ele>258.4</ele><time>2026-04-25T11:00:51.772Z</time></trkpt><trkpt lat="41.1770253" lon="-7.8054204"><ele>263.2</ele><time>2026-04-25T11:00:53.768Z</time></trkpt><trkpt lat="41.1770824" lon="-7.8055511"><ele>268.0</ele><time>2026-04-25T11:00:55.772Z</time></trkpt><trkpt lat="41.1772064" lon="-7.8057166"><ele>268.0</ele><time>2026-04-25T11:00:59.77Z</time></trkpt><trkpt lat="41.1773126" lon="-7.8057571"><ele>268.0</ele><time>2026-04-25T11:01:01.764Z</time></trkpt><trkpt lat="41.1774018" lon="-7.8058492"><ele>268.0</ele><time>2026-04-25T11:01:03.781Z</time></trkpt><trkpt lat="41.1774384" lon="-7.8059195"><ele>268.0</ele><time>2026-04-25T11:01:04.769Z</time></trkpt><trkpt lat="41.1774852" lon="-7.8060441"><ele>268.0</ele><time>2026-04-25T11:01:06.77Z</time></trkpt><trkpt lat="41.1775197" lon="-7.8061658"><ele>271.4</ele><time>2026-04-25T11:01:08.767Z</time></trkpt><trkpt lat="41.1775796" lon="-7.8062677"><ele>274.8</ele><time>2026-04-25T11:01:10.772Z</time></trkpt><trkpt lat="41.1776155" lon="-7.8063813"><ele>278.2</ele><time>2026-04-25T11:01:12.771Z</time></trkpt><trkpt lat="41.1776421" lon="-7.8065228"><ele>281.6</ele><time>2026-04-25T11:01:14.769Z</time></trkpt><trkpt lat="41.1776761" lon="-7.8066657"><ele>285.0</ele><time>2026-04-25T11:01:16.77Z</time></trkpt><trkpt lat="41.1776931" lon="-7.8069304"><ele>286.8</ele><time>2026-04-25T11:01:20.773Z</time></trkpt><trkpt lat="41.1776806" lon="-7.8070602"><ele>288.6</ele><time>2026-04-25T11:01:22.772Z</time></trkpt><trkpt lat="41.1776496" lon="-7.8071775"><ele>290.4</ele><time>2026-04-25T11:01:24.77Z</time></trkpt><trkpt lat="41.1775787" lon="-7.8072902"><ele>292.2</ele><time>2026-04-25T11:01:26.768Z</time></trkpt><trkpt lat="41.1775228" lon="-7.8074166"><ele>294.0</ele><time>2026-04-25T11:01:28.772Z</time></trkpt><trkpt lat="41.1774817" lon="-7.8074947"><ele>294.0</ele><time>2026-04-25T11:01:29.769Z</time></trkpt><trkpt lat="41.1774465" lon="-7.8075716"><ele>294.0</ele><time>2026-04-25T11:01:30.781Z</time></trkpt><trkpt lat="41.1774182" lon="-7.8076889"><ele>294.0</ele><time>2026-04-25T11:01:32.777Z</time></trkpt><trkpt lat="41.1774346" lon="-7.807793"><ele>294.0</ele><time>2026-04-25T11:01:34.767Z</time></trkpt><trkpt lat="41.1774493" lon="-7.8079013"><ele>294.0</ele><time>2026-04-25T11:01:36.768Z</time></trkpt><trkpt lat="41.1774361" lon="-7.8080172"><ele>294.0</ele><time>2026-04-25T11:01:38.768Z</time></trkpt><trkpt lat="41.1774084" lon="-7.808247"><ele>295.6666666666667</ele><time>2026-04-25T11:01:42.776Z</time></trkpt><trkpt lat="41.177395" lon="-7.8083297"><ele>297.3333333333333</ele><time>2026-04-25T11:01:44.771Z</time></trkpt><trkpt lat="41.177413" lon="-7.8084209"><ele>299.0</ele><time>2026-04-25T11:01:46.767Z</time></trkpt><trkpt lat="41.1774174" lon="-7.8085163"><ele>300.66666666666663</ele><time>2026-04-25T11:01:48.767Z</time></trkpt><trkpt lat="41.1774155" lon="-7.8086398"><ele>302.3333333333333</ele><time>2026-04-25T11:01:50.773Z</time></trkpt><trkpt lat="41.1774207" lon="-7.8087912"><ele>304.0</ele><time>2026-04-25T11:01:52.768Z</time></trkpt><trkpt lat="41.1773918" lon="-7.8089496"><ele>312.25</ele><time>2026-04-25T11:01:54.769Z</time></trkpt><trkpt lat="41.1773412" lon="-7.8090871"><ele>320.5</ele><time>2026-04-25T11:01:56.775Z</time></trkpt><trkpt lat="41.1772713" lon="-7.809173"><ele>328.75</ele><time>2026-04-25T11:01:58.77Z</time></trkpt><trkpt lat="41.1771455" lon="-7.8092034"><ele>337.0</ele><time>2026-04-25T11:02:00.769Z</time></trkpt><trkpt lat="41.1768974" lon="-7.8091986"><ele>337.0</ele><time>2026-04-25T11:02:04.773Z</time></trkpt><trkpt lat="41.1768033" lon="-7.8092576"><ele>337.0</ele><time>2026-04-25T11:02:06.775Z</time></trkpt><trkpt lat="41.1767528" lon="-7.8093445"><ele>337.0</ele><time>2026-04-25T11:02:08.77Z</time></trkpt><trkpt lat="41.1767455" lon="-7.809455"><ele>337.0</ele><time>2026-04-25T11:02:10.781Z</time></trkpt><trkpt lat="41.1767491" lon="-7.8095879"><ele>337.0</ele><time>2026-04-25T11:02:12.77Z</time></trkpt><trkpt lat="41.1767543" lon="-7.8096945"><ele>338.8333333333333</ele><time>2026-04-25T11:02:14.774Z</time></trkpt><trkpt lat="41.176787" lon="-7.8098207"><ele>340.66666666666663</ele><time>2026-04-25T11:02:16.769Z</time></trkpt><trkpt lat="41.176825" lon="-7.8099637"><ele>342.5</ele><time>2026-04-25T11:02:18.763Z</time></trkpt><trkpt lat="41.1768384" lon="-7.8100518"><ele>344.3333333333333</ele><time>2026-04-25T11:02:19.77Z</time></trkpt><trkpt lat="41.176853" lon="-7.810151"><ele>346.1666666666667</ele><time>2026-04-25T11:02:20.763Z</time></trkpt><trkpt lat="41.1768602" lon="-7.810261"><ele>348.0</ele><time>2026-04-25T11:02:21.767Z</time></trkpt><trkpt lat="41.1768866" lon="-7.8104895"><ele>350.0</ele><time>2026-04-25T11:02:23.776Z</time></trkpt><trkpt lat="41.1768981" lon="-7.81061"><ele>352.0</ele><time>2026-04-25T11:02:24.769Z</time></trkpt><trkpt lat="41.1769239" lon="-7.8107187"><ele>354.0</ele><time>2026-04-25T11:02:25.768Z</time></trkpt><trkpt lat="41.1769514" lon="-7.8108245"><ele>356.0</ele><time>2026-04-25T11:02:26.773Z</time></trkpt><trkpt lat="41.1769747" lon="-7.8109292"><ele>358.0</ele><time>2026-04-25T11:02:27.768Z</time></trkpt><trkpt lat="41.1769874" lon="-7.8110403"><ele>360.0</ele><time>2026-04-25T11:02:28.768Z</time></trkpt><trkpt lat="41.176993" lon="-7.8111513"><ele>362.3333333333333</ele><time>2026-04-25T11:02:29.772Z</time></trkpt><trkpt lat="41.1769927" lon="-7.8112657"><ele>364.6666666666667</ele><time>2026-04-25T11:02:30.773Z</time></trkpt><trkpt lat="41.176988" lon="-7.8113817"><ele>367.0</ele><time>2026-04-25T11:02:31.773Z</time></trkpt><trkpt lat="41.1769828" lon="-7.8115064"><ele>369.33333333333337</ele><time>2026-04-25T11:02:32.773Z</time></trkpt><trkpt lat="41.1769867" lon="-7.8116256"><ele>371.6666666666667</ele><time>2026-04-25T11:02:33.771Z</time></trkpt><trkpt lat="41.1770014" lon="-7.81173"><ele>374.0</ele><time>2026-04-25T11:02:34.774Z</time></trkpt><trkpt lat="41.1770182" lon="-7.8118241"><ele>374.0</ele><time>2026-04-25T11:02:35.77Z</time></trkpt><trkpt lat="41.1769937" lon="-7.8119566"><ele>374.0</ele><time>2026-04-25T11:02:37.773Z</time></trkpt><trkpt lat="41.1769094" lon="-7.8119766"><ele>374.0</ele><time>2026-04-25T11:02:39.774Z</time></trkpt><trkpt lat="41.1768305" lon="-7.8118536"><ele>374.0</ele><time>2026-04-25T11:02:41.771Z</time></trkpt><trkpt lat="41.1768164" lon="-7.8117585"><ele>374.0</ele><time>2026-04-25T11:02:42.765Z</time></trkpt><trkpt lat="41.1768034" lon="-7.8115492"><ele>374.0</ele><time>2026-04-25T11:02:44.772Z</time></trkpt><trkpt lat="41.1767763" lon="-7.81145"><ele>374.0</ele><time>2026-04-25T11:02:45.769Z</time></trkpt><trkpt lat="41.1767371" lon="-7.8113586"><ele>374.0</ele><time>2026-04-25T11:02:46.769Z</time></trkpt><trkpt lat="41.1766929" lon="-7.8112788"><ele>374.0</ele><time>2026-04-25T11:02:47.765Z</time></trkpt><trkpt lat="41.1766145" lon="-7.8112993"><ele>374.0</ele><time>2026-04-25T11:02:49.777Z</time></trkpt><trkpt lat="41.1766384" lon="-7.8114257"><ele>374.0</ele><time>2026-04-25T11:02:51.769Z</time></trkpt><trkpt lat="41.1766883" lon="-7.8115614"><ele>374.0</ele><time>2026-04-25T11:02:53.77Z</time></trkpt><trkpt lat="41.1767062" lon="-7.8116461"><ele>374.0</ele><time>2026-04-25T11:02:54.771Z</time></trkpt><trkpt lat="41.1767145" lon="-7.8118049"><ele>374.0</ele><time>2026-04-25T11:02:56.77Z</time></trkpt><trkpt lat="41.1766893" lon="-7.8119714"><ele>374.0</ele><time>2026-04-25T11:02:58.768Z</time></trkpt><trkpt lat="41.176675" lon="-7.8121302"><ele>374.0</ele><time>2026-04-25T11:03:00.78Z</time></trkpt><trkpt lat="41.176653" lon="-7.812286"><ele>377.0</ele><time>2026-04-25T11:03:02.765Z</time></trkpt><trkpt lat="41.1766002" lon="-7.8124223"><ele>380.0</ele><time>2026-04-25T11:03:04.781Z</time></trkpt><trkpt lat="41.1764675" lon="-7.8125168"><ele>383.0</ele><time>2026-04-25T11:03:08.765Z</time></trkpt><trkpt lat="41.1763784" lon="-7.8124466"><ele>386.0</ele><time>2026-04-25T11:03:10.769Z</time></trkpt><trkpt lat="41.1762978" lon="-7.8124039"><ele>387.3333333333333</ele><time>2026-04-25T11:03:12.769Z</time></trkpt><trkpt lat="41.1762167" lon="-7.8124281"><ele>388.66666666666663</ele><time>2026-04-25T11:03:14.773Z</time></trkpt><trkpt lat="41.176141" lon="-7.8125345"><ele>390.0</ele><time>2026-04-25T11:03:16.768Z</time></trkpt><trkpt lat="41.1760825" lon="-7.8126107"><ele>391.33333333333337</ele><time>2026-04-25T11:03:18.78Z</time></trkpt><trkpt lat="41.1760157" lon="-7.8127014"><ele>392.6666666666667</ele><time>2026-04-25T11:03:20.768Z</time></trkpt><trkpt lat="41.1760362" lon="-7.812784"><ele>394.0</ele><time>2026-04-25T11:03:24.781Z</time></trkpt><trkpt lat="41.1760401" lon="-7.8128919"><ele>398.0</ele><time>2026-04-25T11:03:27.765Z</time></trkpt><trkpt lat="41.1759756" lon="-7.8131703"><ele>402.0</ele><time>2026-04-25T11:03:31.766Z</time></trkpt><trkpt lat="41.1759612" lon="-7.8132681"><ele>406.0</ele><time>2026-04-25T11:03:32.766Z</time></trkpt><trkpt lat="41.1759532" lon="-7.8133658"><ele>410.0</ele><time>2026-04-25T11:03:33.771Z</time></trkpt><trkpt lat="41.1759559" lon="-7.8135068"><ele>413.3333333333333</ele><time>2026-04-25T11:03:34.774Z</time></trkpt><trkpt lat="41.1759608" lon="-7.813655"><ele>416.66666666666663</ele><time>2026-04-25T11:03:35.767Z</time></trkpt><trkpt lat="41.1759418" lon="-7.8137751"><ele>420.0</ele><time>2026-04-25T11:03:36.773Z</time></trkpt><trkpt lat="41.1759209" lon="-7.813881"><ele>423.33333333333337</ele><time>2026-04-25T11:03:37.768Z</time></trkpt><trkpt lat="41.1758866" lon="-7.8139748"><ele>426.6666666666667</ele><time>2026-04-25T11:03:38.771Z</time></trkpt><trkpt lat="41.1758483" lon="-7.8140494"><ele>430.0</ele><time>2026-04-25T11:03:39.765Z</time></trkpt><trkpt lat="41.1758024" lon="-7.8141545"><ele>430.0</ele><time>2026-04-25T11:03:41.768Z</time></trkpt><trkpt lat="41.175819" lon="-7.8142591"><ele>430.0</ele><time>2026-04-25T11:03:43.775Z</time></trkpt><trkpt lat="41.1759057" lon="-7.8144038"><ele>430.0</ele><time>2026-04-25T11:03:45.773Z</time></trkpt><trkpt lat="41.1759589" lon="-7.8144847"><ele>430.0</ele><time>2026-04-25T11:03:46.765Z</time></trkpt><trkpt lat="41.1760377" lon="-7.8145892"><ele>430.0</ele><time>2026-04-25T11:03:48.77Z</time></trkpt><trkpt lat="41.1758642" lon="-7.8144897"><ele>430.00000000000006</ele><time>2026-04-25T11:03:56.772Z</time></trkpt><trkpt lat="41.175793" lon="-7.8144308"><ele>430.0</ele><time>2026-04-25T11:03:58.787Z</time></trkpt><trkpt lat="41.1757319" lon="-7.8144064"><ele>430.0</ele><time>2026-04-25T11:04:00.767Z</time></trkpt><trkpt lat="41.175666" lon="-7.8144245"><ele>430.0</ele><time>2026-04-25T11:04:02.773Z</time></trkpt><trkpt lat="41.1756014" lon="-7.8144161"><ele>430.00000000000006</ele><time>2026-04-25T11:04:05.768Z</time></trkpt><trkpt lat="41.1756328" lon="-7.8143266"><ele>430.0</ele><time>2026-04-25T11:15:21.772Z</time></trkpt><trkpt lat="41.1757556" lon="-7.8142079"><ele>430.00000000000006</ele><time>2026-04-25T11:15:26.771Z</time></trkpt><trkpt lat="41.1758047" lon="-7.8142717"><ele>430.0</ele><time>2026-04-25T11:15:29.756Z</time></trkpt><trkpt lat="41.1758641" lon="-7.8143394"><ele>430.0</ele><time>2026-04-25T11:15:33.766Z</time></trkpt><trkpt lat="41.1758189" lon="-7.8144291"><ele>430.0</ele><time>2026-04-25T11:15:38.764Z</time></trkpt><trkpt lat="41.175755" lon="-7.8144339"><ele>430.00000000000006</ele><time>2026-04-25T11:15:49.761Z</time></trkpt><trkpt lat="41.175608" lon="-7.8144421"><ele>430.0</ele><time>2026-04-25T11:15:56.765Z</time></trkpt><trkpt lat="41.1756865" lon="-7.8144894"><ele>432.33333333333337</ele><time>2026-04-25T11:16:00.763Z</time></trkpt><trkpt lat="41.1757582" lon="-7.8145118"><ele>434.6666666666667</ele><time>2026-04-25T11:16:02.768Z</time></trkpt><trkpt lat="41.175862" lon="-7.8145259"><ele>437.0</ele><time>2026-04-25T11:16:04.764Z</time></trkpt><trkpt lat="41.175926" lon="-7.8145418"><ele>439.33333333333337</ele><time>2026-04-25T11:16:05.758Z</time></trkpt><trkpt lat="41.1760276" lon="-7.8146387"><ele>441.6666666666667</ele><time>2026-04-25T11:16:07.769Z</time></trkpt><trkpt lat="41.1760641" lon="-7.8147102"><ele>444.0</ele><time>2026-04-25T11:16:08.764Z</time></trkpt><trkpt lat="41.1761183" lon="-7.8148481"><ele>444.0</ele><time>2026-04-25T11:16:10.769Z</time></trkpt><trkpt lat="41.1761538" lon="-7.8150219"><ele>444.0</ele><time>2026-04-25T11:16:12.765Z</time></trkpt><trkpt lat="41.1761693" lon="-7.8151129"><ele>444.0</ele><time>2026-04-25T11:16:13.764Z</time></trkpt><trkpt lat="41.1761729" lon="-7.815202"><ele>444.0</ele><time>2026-04-25T11:16:14.763Z</time></trkpt><trkpt lat="41.1761817" lon="-7.8152956"><ele>444.0</ele><time>2026-04-25T11:16:15.769Z</time></trkpt><trkpt lat="41.1761864" lon="-7.8153888"><ele>444.0</ele><time>2026-04-25T11:16:16.757Z</time></trkpt><trkpt lat="41.1761928" lon="-7.8154881"><ele>446.5</ele><time>2026-04-25T11:16:17.766Z</time></trkpt><trkpt lat="41.1761979" lon="-7.815589"><ele>449.0</ele><time>2026-04-25T11:16:18.763Z</time></trkpt><trkpt lat="41.1761901" lon="-7.8157526"><ele>451.5</ele><time>2026-04-25T11:16:20.774Z</time></trkpt><trkpt lat="41.1761883" lon="-7.8159135"><ele>454.0</ele><time>2026-04-25T11:16:22.778Z</time></trkpt><trkpt lat="41.1762036" lon="-7.8160892"><ele>455.8571428571429</ele><time>2026-04-25T11:16:24.77Z</time></trkpt><trkpt lat="41.1762143" lon="-7.816176"><ele>457.7142857142858</ele><time>2026-04-25T11:16:25.77Z</time></trkpt><trkpt lat="41.1762265" lon="-7.8162604"><ele>459.57142857142856</ele><time>2026-04-25T11:16:26.763Z</time></trkpt><trkpt lat="41.1762384" lon="-7.8163488"><ele>461.42857142857144</ele><time>2026-04-25T11:16:27.76Z</time></trkpt><trkpt lat="41.1762482" lon="-7.8164474"><ele>463.2857142857143</ele><time>2026-04-25T11:16:28.767Z</time></trkpt><trkpt lat="41.176254" lon="-7.8165454"><ele>465.1428571428571</ele><time>2026-04-25T11:16:29.769Z</time></trkpt><trkpt lat="41.1762566" lon="-7.816646"><ele>466.99999999999994</ele><time>2026-04-25T11:16:30.766Z</time></trkpt><trkpt lat="41.176264" lon="-7.8167384"><ele>470.40000000000003</ele><time>2026-04-25T11:16:31.76Z</time></trkpt><trkpt lat="41.17629" lon="-7.8169244"><ele>473.80000000000007</ele><time>2026-04-25T11:16:33.765Z</time></trkpt><trkpt lat="41.1762993" lon="-7.8170123"><ele>477.2</ele><time>2026-04-25T11:16:34.763Z</time></trkpt><trkpt lat="41.1762667" lon="-7.8171606"><ele>480.6</ele><time>2026-04-25T11:16:36.763Z</time></trkpt><trkpt lat="41.1762023" lon="-7.8172271"><ele>484.0</ele><time>2026-04-25T11:16:37.763Z</time></trkpt><trkpt lat="41.1761384" lon="-7.8172868"><ele>484.0</ele><time>2026-04-25T11:16:38.765Z</time></trkpt><trkpt lat="41.1760652" lon="-7.81733"><ele>483.99999999999994</ele><time>2026-04-25T11:16:39.763Z</time></trkpt><trkpt lat="41.1760058" lon="-7.8173819"><ele>484.0</ele><time>2026-04-25T11:16:40.762Z</time></trkpt><trkpt lat="41.1759609" lon="-7.8174469"><ele>484.0</ele><time>2026-04-25T11:16:41.77Z</time></trkpt><trkpt lat="41.175911" lon="-7.8175122"><ele>483.99999999999994</ele><time>2026-04-25T11:16:42.762Z</time></trkpt><trkpt lat="41.175857" lon="-7.8175752"><ele>484.0</ele><time>2026-04-25T11:16:43.763Z</time></trkpt><trkpt lat="41.1758026" lon="-7.8176334"><ele>484.0</ele><time>2026-04-25T11:16:44.758Z</time></trkpt><trkpt lat="41.1757437" lon="-7.8177018"><ele>483.83333333333337</ele><time>2026-04-25T11:16:45.763Z</time></trkpt><trkpt lat="41.1756863" lon="-7.8177663"><ele>483.6666666666667</ele><time>2026-04-25T11:16:46.76Z</time></trkpt><trkpt lat="41.1756265" lon="-7.8178321"><ele>483.5</ele><time>2026-04-25T11:16:47.762Z</time></trkpt><trkpt lat="41.1755678" lon="-7.817885"><ele>483.33333333333337</ele><time>2026-04-25T11:16:48.763Z</time></trkpt><trkpt lat="41.1755164" lon="-7.8179357"><ele>483.1666666666667</ele><time>2026-04-25T11:16:49.763Z</time></trkpt><trkpt lat="41.1754403" lon="-7.818053"><ele>483.0</ele><time>2026-04-25T11:16:51.765Z</time></trkpt><trkpt lat="41.175367" lon="-7.8182082"><ele>483.0</ele><time>2026-04-25T11:16:53.763Z</time></trkpt><trkpt lat="41.1752572" lon="-7.8183912"><ele>482.99999999999994</ele><time>2026-04-25T11:16:55.761Z</time></trkpt><trkpt lat="41.1751961" lon="-7.8184888"><ele>482.99999999999994</ele><time>2026-04-25T11:16:56.767Z</time></trkpt><trkpt lat="41.1751434" lon="-7.8185777"><ele>483.0</ele><time>2026-04-25T11:16:57.77Z</time></trkpt><trkpt lat="41.1751014" lon="-7.8186646"><ele>483.0</ele><time>2026-04-25T11:16:58.77Z</time></trkpt><trkpt lat="41.1750627" lon="-7.8187468"><ele>484.5</ele><time>2026-04-25T11:16:59.766Z</time></trkpt><trkpt lat="41.175026" lon="-7.8188209"><ele>486.0</ele><time>2026-04-25T11:17:00.757Z</time></trkpt><trkpt lat="41.1749696" lon="-7.8189552"><ele>487.5</ele><time>2026-04-25T11:17:02.765Z</time></trkpt><trkpt lat="41.1749646" lon="-7.819065"><ele>489.0</ele><time>2026-04-25T11:17:04.766Z</time></trkpt><trkpt lat="41.1750164" lon="-7.8191855"><ele>490.5</ele><time>2026-04-25T11:17:06.765Z</time></trkpt><trkpt lat="41.1750559" lon="-7.8192553"><ele>492.0</ele><time>2026-04-25T11:17:07.761Z</time></trkpt><trkpt lat="41.1750937" lon="-7.8193291"><ele>492.6666666666667</ele><time>2026-04-25T11:17:08.76Z</time></trkpt><trkpt lat="41.1751335" lon="-7.819407"><ele>493.33333333333337</ele><time>2026-04-25T11:17:09.765Z</time></trkpt><trkpt lat="41.1751726" lon="-7.8195039"><ele>494.0</ele><time>2026-04-25T11:17:10.765Z</time></trkpt><trkpt lat="41.1752133" lon="-7.819608"><ele>494.6666666666667</ele><time>2026-04-25T11:17:11.761Z</time></trkpt><trkpt lat="41.1752466" lon="-7.8196842"><ele>495.33333333333337</ele><time>2026-04-25T11:17:12.761Z</time></trkpt><trkpt lat="41.1753355" lon="-7.8198012"><ele>496.0</ele><time>2026-04-25T11:17:14.768Z</time></trkpt><trkpt lat="41.175447" lon="-7.8199027"><ele>496.0</ele><time>2026-04-25T11:17:16.763Z</time></trkpt><trkpt lat="41.1755159" lon="-7.8199533"><ele>496.0</ele><time>2026-04-25T11:17:17.761Z</time></trkpt><trkpt lat="41.1755966" lon="-7.8200152"><ele>496.0</ele><time>2026-04-25T11:17:18.765Z</time></trkpt><trkpt lat="41.1757" lon="-7.8200915"><ele>496.0</ele><time>2026-04-25T11:17:19.763Z</time></trkpt><trkpt lat="41.175823" lon="-7.8201669"><ele>496.0</ele><time>2026-04-25T11:17:20.763Z</time></trkpt><trkpt lat="41.1759382" lon="-7.8202349"><ele>496.6</ele><time>2026-04-25T11:17:21.765Z</time></trkpt><trkpt lat="41.1760438" lon="-7.82029"><ele>497.20000000000005</ele><time>2026-04-25T11:17:22.76Z</time></trkpt><trkpt lat="41.1761413" lon="-7.8203368"><ele>497.79999999999995</ele><time>2026-04-25T11:17:23.76Z</time></trkpt><trkpt lat="41.176235" lon="-7.8203817"><ele>498.4</ele><time>2026-04-25T11:17:24.768Z</time></trkpt><trkpt lat="41.1763252" lon="-7.8204189"><ele>499.0</ele><time>2026-04-25T11:17:25.765Z</time></trkpt><trkpt lat="41.176405" lon="-7.8204508"><ele>499.00000000000006</ele><time>2026-04-25T11:17:26.76Z</time></trkpt><trkpt lat="41.1764725" lon="-7.8204894"><ele>499.0</ele><time>2026-04-25T11:17:27.775Z</time></trkpt><trkpt lat="41.1765332" lon="-7.8205289"><ele>499.0</ele><time>2026-04-25T11:17:28.763Z</time></trkpt><trkpt lat="41.1766287" lon="-7.8205703"><ele>499.0</ele><time>2026-04-25T11:17:30.776Z</time></trkpt><trkpt lat="41.1767076" lon="-7.8205516"><ele>499.00000000000006</ele><time>2026-04-25T11:17:33.761Z</time></trkpt><trkpt lat="41.1767746" lon="-7.8205321"><ele>499.0</ele><time>2026-04-25T11:17:35.764Z</time></trkpt><trkpt lat="41.1769651" lon="-7.8205356"><ele>502.00000000000006</ele><time>2026-04-25T11:17:38.765Z</time></trkpt><trkpt lat="41.1770355" lon="-7.8205401"><ele>505.0</ele><time>2026-04-25T11:17:39.762Z</time></trkpt><trkpt lat="41.1771078" lon="-7.8205497"><ele>508.0</ele><time>2026-04-25T11:17:40.762Z</time></trkpt><trkpt lat="41.1771865" lon="-7.8205671"><ele>511.0</ele><time>2026-04-25T11:17:41.768Z</time></trkpt><trkpt lat="41.1772619" lon="-7.8205746"><ele>514.0</ele><time>2026-04-25T11:17:42.763Z</time></trkpt><trkpt lat="41.177329" lon="-7.8205832"><ele>517.0</ele><time>2026-04-25T11:17:43.76Z</time></trkpt><trkpt lat="41.177447" lon="-7.8205918"><ele>519.2</ele><time>2026-04-25T11:17:45.763Z</time></trkpt><trkpt lat="41.1775562" lon="-7.820591"><ele>521.4000000000001</ele><time>2026-04-25T11:17:47.767Z</time></trkpt><trkpt lat="41.1776592" lon="-7.8206281"><ele>523.5999999999999</ele><time>2026-04-25T11:17:49.758Z</time></trkpt><trkpt lat="41.1777605" lon="-7.8206766"><ele>525.8</ele><time>2026-04-25T11:17:51.758Z</time></trkpt><trkpt lat="41.1778576" lon="-7.8207351"><ele>528.0</ele><time>2026-04-25T11:17:53.762Z</time></trkpt><trkpt lat="41.1779477" lon="-7.8208379"><ele>528.0</ele><time>2026-04-25T11:17:55.764Z</time></trkpt><trkpt lat="41.178052" lon="-7.8209214"><ele>528.0</ele><time>2026-04-25T11:17:57.764Z</time></trkpt><trkpt lat="41.1781564" lon="-7.8210233"><ele>528.0</ele><time>2026-04-25T11:17:59.76Z</time></trkpt><trkpt lat="41.1782476" lon="-7.8211376"><ele>528.0</ele><time>2026-04-25T11:18:01.764Z</time></trkpt><trkpt lat="41.1782946" lon="-7.8211993"><ele>528.0</ele><time>2026-04-25T11:18:02.762Z</time></trkpt><trkpt lat="41.178382" lon="-7.8213081"><ele>529.4285714285714</ele><time>2026-04-25T11:18:04.761Z</time></trkpt><trkpt lat="41.1784347" lon="-7.821362"><ele>530.8571428571429</ele><time>2026-04-25T11:18:05.763Z</time></trkpt><trkpt lat="41.1784931" lon="-7.8214095"><ele>532.2857142857143</ele><time>2026-04-25T11:18:06.77Z</time></trkpt><trkpt lat="41.1785546" lon="-7.8214511"><ele>533.7142857142858</ele><time>2026-04-25T11:18:07.761Z</time></trkpt><trkpt lat="41.1786125" lon="-7.8214919"><ele>535.1428571428572</ele><time>2026-04-25T11:18:08.761Z</time></trkpt><trkpt lat="41.1786701" lon="-7.8215466"><ele>536.5714285714286</ele><time>2026-04-25T11:18:09.77Z</time></trkpt><trkpt lat="41.1787344" lon="-7.8215861"><ele>538.0</ele><time>2026-04-25T11:18:10.771Z</time></trkpt><trkpt lat="41.1787989" lon="-7.8216087"><ele>538.0</ele><time>2026-04-25T11:18:11.759Z</time></trkpt><trkpt lat="41.178867" lon="-7.8216232"><ele>538.0</ele><time>2026-04-25T11:18:12.759Z</time></trkpt><trkpt lat="41.1789388" lon="-7.8216266"><ele>538.0</ele><time>2026-04-25T11:18:13.759Z</time></trkpt><trkpt lat="41.1790083" lon="-7.8216296"><ele>538.0</ele><time>2026-04-25T11:18:14.766Z</time></trkpt><trkpt lat="41.179081" lon="-7.8216325"><ele>538.0</ele><time>2026-04-25T11:18:15.768Z</time></trkpt><trkpt lat="41.179152" lon="-7.8216445"><ele>538.0</ele><time>2026-04-25T11:18:16.763Z</time></trkpt><trkpt lat="41.1792255" lon="-7.8216603"><ele>538.0</ele><time>2026-04-25T11:18:17.761Z</time></trkpt><trkpt lat="41.1792941" lon="-7.8216791"><ele>539.4</ele><time>2026-04-25T11:18:18.771Z</time></trkpt><trkpt lat="41.1794982" lon="-7.8216742"><ele>540.8</ele><time>2026-04-25T11:18:21.756Z</time></trkpt><trkpt lat="41.1795753" lon="-7.8216726"><ele>542.2</ele><time>2026-04-25T11:18:22.761Z</time></trkpt><trkpt lat="41.1796517" lon="-7.8216787"><ele>543.6</ele><time>2026-04-25T11:18:23.764Z</time></trkpt><trkpt lat="41.179731" lon="-7.8216729"><ele>545.0</ele><time>2026-04-25T11:18:24.759Z</time></trkpt><trkpt lat="41.1798134" lon="-7.8216621"><ele>546.1428571428571</ele><time>2026-04-25T11:18:25.768Z</time></trkpt><trkpt lat="41.1798859" lon="-7.8216601"><ele>547.2857142857143</ele><time>2026-04-25T11:18:26.769Z</time></trkpt><trkpt lat="41.1799513" lon="-7.8216318"><ele>548.4285714285714</ele><time>2026-04-25T11:18:27.763Z</time></trkpt><trkpt lat="41.1800081" lon="-7.8215803"><ele>549.5714285714286</ele><time>2026-04-25T11:18:28.761Z</time></trkpt><trkpt lat="41.1800683" lon="-7.8215261"><ele>550.7142857142858</ele><time>2026-04-25T11:18:29.756Z</time></trkpt><trkpt lat="41.1801244" lon="-7.8214754"><ele>551.8571428571429</ele><time>2026-04-25T11:18:30.759Z</time></trkpt><trkpt lat="41.1801835" lon="-7.8214364"><ele>553.0</ele><time>2026-04-25T11:18:31.762Z</time></trkpt><trkpt lat="41.1802986" lon="-7.821417"><ele>553.0</ele><time>2026-04-25T11:18:33.76Z</time></trkpt><trkpt lat="41.1804092" lon="-7.821429"><ele>553.0</ele><time>2026-04-25T11:18:35.764Z</time></trkpt><trkpt lat="41.1805013" lon="-7.8214366"><ele>553.0</ele><time>2026-04-25T11:18:37.761Z</time></trkpt><trkpt lat="41.1805912" lon="-7.821435"><ele>553.0</ele><time>2026-04-25T11:18:39.764Z</time></trkpt><trkpt lat="41.1808038" lon="-7.8214698"><ele>555.1666666666667</ele><time>2026-04-25T11:18:43.76Z</time></trkpt><trkpt lat="41.1808942" lon="-7.8214995"><ele>557.3333333333334</ele><time>2026-04-25T11:18:45.76Z</time></trkpt><trkpt lat="41.180978" lon="-7.8215076"><ele>559.5</ele><time>2026-04-25T11:18:47.76Z</time></trkpt><trkpt lat="41.1810755" lon="-7.8215266"><ele>561.6666666666666</ele><time>2026-04-25T11:18:49.763Z</time></trkpt><trkpt lat="41.1811686" lon="-7.8215115"><ele>563.8333333333333</ele><time>2026-04-25T11:18:51.767Z</time></trkpt><trkpt lat="41.1812318" lon="-7.8214711"><ele>566.0</ele><time>2026-04-25T11:18:53.761Z</time></trkpt><trkpt lat="41.1812901" lon="-7.8214197"><ele>566.0</ele><time>2026-04-25T11:18:55.758Z</time></trkpt><trkpt lat="41.1813486" lon="-7.8214599"><ele>566.0</ele><time>2026-04-25T11:18:57.763Z</time></trkpt><trkpt lat="41.1814193" lon="-7.8215552"><ele>566.0</ele><time>2026-04-25T11:18:59.764Z</time></trkpt><trkpt lat="41.1815089" lon="-7.821678"><ele>566.0</ele><time>2026-04-25T11:19:01.758Z</time></trkpt><trkpt lat="41.181715" lon="-7.8218406"><ele>568.5</ele><time>2026-04-25T11:19:05.76Z</time></trkpt><trkpt lat="41.1817769" lon="-7.8218703"><ele>571.0</ele><time>2026-04-25T11:19:06.761Z</time></trkpt><trkpt lat="41.1818403" lon="-7.8219065"><ele>573.5</ele><time>2026-04-25T11:19:07.763Z</time></trkpt><trkpt lat="41.1819062" lon="-7.8219471"><ele>576.0</ele><time>2026-04-25T11:19:08.76Z</time></trkpt><trkpt lat="41.1819639" lon="-7.8219827"><ele>578.5</ele><time>2026-04-25T11:19:09.761Z</time></trkpt><trkpt lat="41.1820786" lon="-7.8220371"><ele>581.0</ele><time>2026-04-25T11:19:11.762Z</time></trkpt><trkpt lat="41.1822039" lon="-7.8220735"><ele>581.0</ele><time>2026-04-25T11:19:13.762Z</time></trkpt><trkpt lat="41.1822751" lon="-7.8220978"><ele>581.0</ele><time>2026-04-25T11:19:14.76Z</time></trkpt><trkpt lat="41.1823471" lon="-7.8221258"><ele>581.0</ele><time>2026-04-25T11:19:15.757Z</time></trkpt><trkpt lat="41.182421" lon="-7.8221543"><ele>581.0</ele><time>2026-04-25T11:19:16.779Z</time></trkpt><trkpt lat="41.1824881" lon="-7.8221925"><ele>581.0</ele><time>2026-04-25T11:19:17.76Z</time></trkpt><trkpt lat="41.182552" lon="-7.8222371"><ele>581.0</ele><time>2026-04-25T11:19:18.775Z</time></trkpt><trkpt lat="41.1826222" lon="-7.8222647"><ele>581.0</ele><time>2026-04-25T11:19:19.758Z</time></trkpt><trkpt lat="41.1826969" lon="-7.822289"><ele>584.0</ele><time>2026-04-25T11:19:20.762Z</time></trkpt><trkpt lat="41.1827814" lon="-7.822314"><ele>587.0</ele><time>2026-04-25T11:19:21.757Z</time></trkpt><trkpt lat="41.1828773" lon="-7.8223619"><ele>590.0</ele><time>2026-04-25T11:19:22.765Z</time></trkpt><trkpt lat="41.1830372" lon="-7.8224705"><ele>593.0</ele><time>2026-04-25T11:19:24.764Z</time></trkpt><trkpt lat="41.1830998" lon="-7.8225069"><ele>596.0</ele><time>2026-04-25T11:19:25.761Z</time></trkpt><trkpt lat="41.1832051" lon="-7.822551"><ele>598.6666666666666</ele><time>2026-04-25T11:19:27.765Z</time></trkpt><trkpt lat="41.1833327" lon="-7.8225181"><ele>601.3333333333333</ele><time>2026-04-25T11:19:29.763Z</time></trkpt><trkpt lat="41.1834078" lon="-7.8225086"><ele>604.0</ele><time>2026-04-25T11:19:30.762Z</time></trkpt><trkpt lat="41.1834854" lon="-7.8225063"><ele>606.6666666666666</ele><time>2026-04-25T11:19:31.758Z</time></trkpt><trkpt lat="41.183561" lon="-7.822506"><ele>609.3333333333334</ele><time>2026-04-25T11:19:32.762Z</time></trkpt><trkpt lat="41.1836361" lon="-7.8225102"><ele>612.0</ele><time>2026-04-25T11:19:33.762Z</time></trkpt><trkpt lat="41.1836992" lon="-7.8225339"><ele>612.0</ele><time>2026-04-25T11:19:34.767Z</time></trkpt><trkpt lat="41.1837787" lon="-7.8225656"><ele>612.0</ele><time>2026-04-25T11:19:35.761Z</time></trkpt><trkpt lat="41.1838742" lon="-7.8225994"><ele>612.0</ele><time>2026-04-25T11:19:36.76Z</time></trkpt><trkpt lat="41.1839581" lon="-7.8226321"><ele>612.0</ele><time>2026-04-25T11:19:37.766Z</time></trkpt><trkpt lat="41.1840248" lon="-7.8226563"><ele>612.0</ele><time>2026-04-25T11:19:38.76Z</time></trkpt><trkpt lat="41.1841105" lon="-7.8226798"><ele>612.0</ele><time>2026-04-25T11:19:39.762Z</time></trkpt><trkpt lat="41.1842008" lon="-7.8227057"><ele>615.2</ele><time>2026-04-25T11:19:40.762Z</time></trkpt><trkpt lat="41.1842774" lon="-7.8227197"><ele>618.4000000000001</ele><time>2026-04-25T11:19:41.767Z</time></trkpt><trkpt lat="41.1843557" lon="-7.8227227"><ele>621.5999999999999</ele><time>2026-04-25T11:19:46.765Z</time></trkpt><trkpt lat="41.184529" lon="-7.8226629"><ele>624.8</ele><time>2026-04-25T11:19:53.76Z</time></trkpt><trkpt lat="41.1845975" lon="-7.8226429"><ele>628.0</ele><time>2026-04-25T11:19:54.772Z</time></trkpt><trkpt lat="41.1846775" lon="-7.8225781"><ele>628.0</ele><time>2026-04-25T11:19:55.76Z</time></trkpt><trkpt lat="41.1847934" lon="-7.8225412"><ele>628.0</ele><time>2026-04-25T11:19:56.761Z</time></trkpt><trkpt lat="41.1849282" lon="-7.8224995"><ele>628.0</ele><time>2026-04-25T11:19:57.759Z</time></trkpt><trkpt lat="41.1850472" lon="-7.8224455"><ele>628.0</ele><time>2026-04-25T11:19:58.76Z</time></trkpt><trkpt lat="41.1851519" lon="-7.8223838"><ele>629.4</ele><time>2026-04-25T11:19:59.762Z</time></trkpt><trkpt lat="41.1852306" lon="-7.8223353"><ele>630.8</ele><time>2026-04-25T11:20:00.758Z</time></trkpt><trkpt lat="41.1853121" lon="-7.8222928"><ele>632.2</ele><time>2026-04-25T11:20:01.761Z</time></trkpt><trkpt lat="41.1853952" lon="-7.8222527"><ele>633.6</ele><time>2026-04-25T11:20:02.773Z</time></trkpt><trkpt lat="41.1854906" lon="-7.8222138"><ele>635.0</ele><time>2026-04-25T11:20:03.759Z</time></trkpt><trkpt lat="41.1855867" lon="-7.8221854"><ele>637.25</ele><time>2026-04-25T11:20:04.757Z</time></trkpt><trkpt lat="41.1856838" lon="-7.822168"><ele>639.5</ele><time>2026-04-25T11:20:05.76Z</time></trkpt><trkpt lat="41.1857789" lon="-7.8221574"><ele>641.75</ele><time>2026-04-25T11:20:06.759Z</time></trkpt><trkpt lat="41.1858685" lon="-7.8221658"><ele>644.0</ele><time>2026-04-25T11:20:07.762Z</time></trkpt><trkpt lat="41.1860429" lon="-7.8222268"><ele>644.0</ele><time>2026-04-25T11:20:09.761Z</time></trkpt><trkpt lat="41.1861218" lon="-7.8222766"><ele>644.0</ele><time>2026-04-25T11:20:10.764Z</time></trkpt><trkpt lat="41.1861992" lon="-7.8223266"><ele>644.0</ele><time>2026-04-25T11:20:11.767Z</time></trkpt><trkpt lat="41.1862849" lon="-7.8223749"><ele>644.0</ele><time>2026-04-25T11:20:12.76Z</time></trkpt><trkpt lat="41.1863704" lon="-7.8224237"><ele>644.0</ele><time>2026-04-25T11:20:13.761Z</time></trkpt><trkpt lat="41.1864563" lon="-7.8224806"><ele>644.4000000000001</ele><time>2026-04-25T11:20:14.767Z</time></trkpt><trkpt lat="41.186548" lon="-7.8225319"><ele>644.8</ele><time>2026-04-25T11:20:15.762Z</time></trkpt><trkpt lat="41.1866432" lon="-7.8225814"><ele>645.2</ele><time>2026-04-25T11:20:16.765Z</time></trkpt><trkpt lat="41.1867433" lon="-7.8226411"><ele>645.5999999999999</ele><time>2026-04-25T11:20:17.761Z</time></trkpt><trkpt lat="41.1868492" lon="-7.822697"><ele>646.0</ele><time>2026-04-25T11:20:18.76Z</time></trkpt><trkpt lat="41.1869545" lon="-7.822743"><ele>646.0</ele><time>2026-04-25T11:20:19.759Z</time></trkpt><trkpt lat="41.1870589" lon="-7.8227815"><ele>646.0</ele><time>2026-04-25T11:20:20.761Z</time></trkpt><trkpt lat="41.1871659" lon="-7.8228201"><ele>646.0</ele><time>2026-04-25T11:20:21.761Z</time></trkpt><trkpt lat="41.1872785" lon="-7.8228575"><ele>646.0</ele><time>2026-04-25T11:20:22.759Z</time></trkpt><trkpt lat="41.1873875" lon="-7.8228933"><ele>646.0</ele><time>2026-04-25T11:20:23.757Z</time></trkpt><trkpt lat="41.1874912" lon="-7.8229257"><ele>645.0</ele><time>2026-04-25T11:20:24.758Z</time></trkpt><trkpt lat="41.1875867" lon="-7.8229578"><ele>644.0</ele><time>2026-04-25T11:20:25.76Z</time></trkpt><trkpt lat="41.1876683" lon="-7.8229775"><ele>643.0</ele><time>2026-04-25T11:20:26.762Z</time></trkpt><trkpt lat="41.1877546" lon="-7.8229827"><ele>642.0</ele><time>2026-04-25T11:20:27.763Z</time></trkpt><trkpt lat="41.1878402" lon="-7.8229762"><ele>641.0</ele><time>2026-04-25T11:20:28.757Z</time></trkpt><trkpt lat="41.188032" lon="-7.8229491"><ele>641.0</ele><time>2026-04-25T11:20:30.76Z</time></trkpt><trkpt lat="41.1881201" lon="-7.8229142"><ele>641.0</ele><time>2026-04-25T11:20:31.759Z</time></trkpt><trkpt lat="41.1882134" lon="-7.8228739"><ele>641.0</ele><time>2026-04-25T11:20:32.759Z</time></trkpt><trkpt lat="41.1883047" lon="-7.822828"><ele>641.0</ele><time>2026-04-25T11:20:33.758Z</time></trkpt><trkpt lat="41.1883805" lon="-7.8227872"><ele>641.0</ele><time>2026-04-25T11:20:34.76Z</time></trkpt><trkpt lat="41.1884567" lon="-7.8227495"><ele>640.3333333333333</ele><time>2026-04-25T11:20:35.761Z</time></trkpt><trkpt lat="41.1885364" lon="-7.8227205"><ele>639.6666666666666</ele><time>2026-04-25T11:20:36.761Z</time></trkpt><trkpt lat="41.1886124" lon="-7.8226979"><ele>639.0</ele><time>2026-04-25T11:20:37.762Z</time></trkpt><trkpt lat="41.1887001" lon="-7.8226973"><ele>638.3333333333334</ele><time>2026-04-25T11:20:38.764Z</time></trkpt><trkpt lat="41.1887914" lon="-7.8227042"><ele>637.6666666666667</ele><time>2026-04-25T11:20:39.763Z</time></trkpt><trkpt lat="41.1888798" lon="-7.8227069"><ele>637.0</ele><time>2026-04-25T11:20:40.765Z</time></trkpt><trkpt lat="41.188966" lon="-7.8226983"><ele>637.0</ele><time>2026-04-25T11:20:41.76Z</time></trkpt><trkpt lat="41.189041" lon="-7.8226905"><ele>637.0</ele><time>2026-04-25T11:20:42.758Z</time></trkpt><trkpt lat="41.1891182" lon="-7.822678"><ele>637.0</ele><time>2026-04-25T11:20:43.768Z</time></trkpt><trkpt lat="41.1891976" lon="-7.8226596"><ele>637.0</ele><time>2026-04-25T11:20:44.762Z</time></trkpt><trkpt lat="41.1892833" lon="-7.8226298"><ele>637.0</ele><time>2026-04-25T11:20:45.76Z</time></trkpt><trkpt lat="41.189366" lon="-7.8225911"><ele>637.0</ele><time>2026-04-25T11:20:46.761Z</time></trkpt><trkpt lat="41.1894576" lon="-7.8225509"><ele>637.0</ele><time>2026-04-25T11:20:47.765Z</time></trkpt><trkpt lat="41.1895532" lon="-7.8224979"><ele>637.0</ele><time>2026-04-25T11:20:48.76Z</time></trkpt><trkpt lat="41.1896469" lon="-7.8224363"><ele>637.0</ele><time>2026-04-25T11:20:49.768Z</time></trkpt><trkpt lat="41.1898191" lon="-7.822316"><ele>637.0</ele><time>2026-04-25T11:20:51.759Z</time></trkpt><trkpt lat="41.1899074" lon="-7.8222659"><ele>635.4</ele><time>2026-04-25T11:20:52.756Z</time></trkpt><trkpt lat="41.1900015" lon="-7.8222204"><ele>633.8000000000001</ele><time>2026-04-25T11:20:53.763Z</time></trkpt><trkpt lat="41.1900948" lon="-7.8221797"><ele>632.2</ele><time>2026-04-25T11:20:54.759Z</time></trkpt><trkpt lat="41.1901916" lon="-7.8221475"><ele>630.6</ele><time>2026-04-25T11:20:55.764Z</time></trkpt><trkpt lat="41.1902909" lon="-7.8221086"><ele>629.0</ele><time>2026-04-25T11:20:56.765Z</time></trkpt><trkpt lat="41.1903934" lon="-7.8220668"><ele>629.0</ele><time>2026-04-25T11:20:57.76Z</time></trkpt><trkpt lat="41.190488" lon="-7.8220014"><ele>629.0</ele><time>2026-04-25T11:20:58.763Z</time></trkpt><trkpt lat="41.1905753" lon="-7.8219364"><ele>629.0</ele><time>2026-04-25T11:20:59.764Z</time></trkpt><trkpt lat="41.190663" lon="-7.8218807"><ele>629.0</ele><time>2026-04-25T11:21:00.759Z</time></trkpt><trkpt lat="41.190751" lon="-7.8218341"><ele>629.0</ele><time>2026-04-25T11:21:01.765Z</time></trkpt><trkpt lat="41.1908401" lon="-7.8217997"><ele>629.6</ele><time>2026-04-25T11:21:02.759Z</time></trkpt><trkpt lat="41.190931" lon="-7.8217783"><ele>630.2</ele><time>2026-04-25T11:21:03.758Z</time></trkpt><trkpt lat="41.1910341" lon="-7.8217806"><ele>630.8000000000001</ele><time>2026-04-25T11:21:04.768Z</time></trkpt><trkpt lat="41.1911373" lon="-7.8217996"><ele>631.4</ele><time>2026-04-25T11:21:05.77Z</time></trkpt><trkpt lat="41.1912369" lon="-7.8218219"><ele>632.0</ele><time>2026-04-25T11:21:06.764Z</time></trkpt><trkpt lat="41.1913366" lon="-7.8218417"><ele>632.0</ele><time>2026-04-25T11:21:07.757Z</time></trkpt><trkpt lat="41.191431" lon="-7.8218824"><ele>632.0</ele><time>2026-04-25T11:21:08.76Z</time></trkpt><trkpt lat="41.1915217" lon="-7.821937"><ele>632.0</ele><time>2026-04-25T11:21:09.763Z</time></trkpt><trkpt lat="41.1916178" lon="-7.821995"><ele>632.0</ele><time>2026-04-25T11:21:10.764Z</time></trkpt><trkpt lat="41.1918277" lon="-7.822125"><ele>629.25</ele><time>2026-04-25T11:21:12.764Z</time></trkpt><trkpt lat="41.1919426" lon="-7.8221957"><ele>626.5</ele><time>2026-04-25T11:21:13.764Z</time></trkpt><trkpt lat="41.1920588" lon="-7.822265"><ele>623.75</ele><time>2026-04-25T11:21:14.758Z</time></trkpt><trkpt lat="41.1921828" lon="-7.8223267"><ele>621.0</ele><time>2026-04-25T11:21:15.764Z</time></trkpt><trkpt lat="41.1923034" lon="-7.8223927"><ele>616.25</ele><time>2026-04-25T11:21:16.762Z</time></trkpt><trkpt lat="41.1924247" lon="-7.8224599"><ele>611.5</ele><time>2026-04-25T11:21:17.76Z</time></trkpt><trkpt lat="41.1925376" lon="-7.8225179"><ele>606.75</ele><time>2026-04-25T11:21:18.77Z</time></trkpt><trkpt lat="41.1926416" lon="-7.8225621"><ele>602.0</ele><time>2026-04-25T11:21:19.757Z</time></trkpt><trkpt lat="41.1927453" lon="-7.8225998"><ele>602.0</ele><time>2026-04-25T11:21:20.76Z</time></trkpt><trkpt lat="41.1928442" lon="-7.8226343"><ele>602.0</ele><time>2026-04-25T11:21:21.76Z</time></trkpt><trkpt lat="41.1929427" lon="-7.8226543"><ele>602.0</ele><time>2026-04-25T11:21:22.759Z</time></trkpt><trkpt lat="41.1930408" lon="-7.8226619"><ele>602.0</ele><time>2026-04-25T11:21:23.76Z</time></trkpt><trkpt lat="41.1931212" lon="-7.8226499"><ele>602.0</ele><time>2026-04-25T11:21:24.758Z</time></trkpt><trkpt lat="41.1931997" lon="-7.8226356"><ele>601.0</ele><time>2026-04-25T11:21:25.761Z</time></trkpt><trkpt lat="41.193273" lon="-7.8226339"><ele>600.0</ele><time>2026-04-25T11:21:26.77Z</time></trkpt><trkpt lat="41.1933383" lon="-7.8226597"><ele>599.0</ele><time>2026-04-25T11:21:27.763Z</time></trkpt><trkpt lat="41.1934071" lon="-7.8227036"><ele>598.0</ele><time>2026-04-25T11:21:28.762Z</time></trkpt><trkpt lat="41.1934814" lon="-7.8227531"><ele>597.0</ele><time>2026-04-25T11:21:29.766Z</time></trkpt><trkpt lat="41.193564" lon="-7.8227999"><ele>596.0</ele><time>2026-04-25T11:21:30.759Z</time></trkpt><trkpt lat="41.1936418" lon="-7.8228486"><ele>595.8</ele><time>2026-04-25T11:21:31.762Z</time></trkpt><trkpt lat="41.1937807" lon="-7.8229576"><ele>595.6</ele><time>2026-04-25T11:21:33.772Z</time></trkpt><trkpt lat="41.1938505" lon="-7.8230304"><ele>595.4</ele><time>2026-04-25T11:21:34.76Z</time></trkpt><trkpt lat="41.1939105" lon="-7.823109"><ele>595.2</ele><time>2026-04-25T11:21:35.774Z</time></trkpt><trkpt lat="41.1939684" lon="-7.8231934"><ele>595.0</ele><time>2026-04-25T11:21:36.763Z</time></trkpt><trkpt lat="41.1940256" lon="-7.8232843"><ele>593.0</ele><time>2026-04-25T11:21:37.76Z</time></trkpt><trkpt lat="41.1940815" lon="-7.8233874"><ele>591.0</ele><time>2026-04-25T11:21:38.761Z</time></trkpt><trkpt lat="41.1941311" lon="-7.8234928"><ele>589.0</ele><time>2026-04-25T11:21:39.758Z</time></trkpt><trkpt lat="41.1941736" lon="-7.823604"><ele>587.0</ele><time>2026-04-25T11:21:40.76Z</time></trkpt><trkpt lat="41.194207" lon="-7.823721"><ele>585.0</ele><time>2026-04-25T11:21:41.761Z</time></trkpt><trkpt lat="41.1942343" lon="-7.8238245"><ele>584.5714285714286</ele><time>2026-04-25T11:21:42.76Z</time></trkpt><trkpt lat="41.1942519" lon="-7.8239063"><ele>584.1428571428571</ele><time>2026-04-25T11:21:43.764Z</time></trkpt><trkpt lat="41.1942751" lon="-7.8240261"><ele>583.7142857142857</ele><time>2026-04-25T11:21:45.76Z</time></trkpt><trkpt lat="41.1943043" lon="-7.8241122"><ele>583.2857142857142</ele><time>2026-04-25T11:21:47.756Z</time></trkpt><trkpt lat="41.1943295" lon="-7.8242018"><ele>582.8571428571428</ele><time>2026-04-25T11:21:50.759Z</time></trkpt><trkpt lat="41.194384" lon="-7.8242558"><ele>582.4285714285714</ele><time>2026-04-25T11:21:54.774Z</time></trkpt><trkpt lat="41.194386" lon="-7.8243435"><ele>582.0</ele><time>2026-04-25T11:25:33.759Z</time></trkpt><trkpt lat="41.1942718" lon="-7.824388"><ele>580.6</ele><time>2026-04-25T11:36:14.751Z</time></trkpt><trkpt lat="41.1941729" lon="-7.8245728"><ele>579.2</ele><time>2026-04-25T11:36:19.757Z</time></trkpt><trkpt lat="41.1940927" lon="-7.8246709"><ele>577.8</ele><time>2026-04-25T11:36:21.753Z</time></trkpt><trkpt lat="41.1940449" lon="-7.824729"><ele>576.4</ele><time>2026-04-25T11:36:22.758Z</time></trkpt><trkpt lat="41.1939745" lon="-7.8247971"><ele>575.0</ele><time>2026-04-25T11:36:23.758Z</time></trkpt><trkpt lat="41.193889" lon="-7.8248549"><ele>573.4</ele><time>2026-04-25T11:36:24.754Z</time></trkpt><trkpt lat="41.1937891" lon="-7.8249022"><ele>571.8</ele><time>2026-04-25T11:36:25.755Z</time></trkpt><trkpt lat="41.1936911" lon="-7.8249198"><ele>570.2</ele><time>2026-04-25T11:36:26.759Z</time></trkpt><trkpt lat="41.1935995" lon="-7.8249238"><ele>568.6</ele><time>2026-04-25T11:36:27.752Z</time></trkpt><trkpt lat="41.193511" lon="-7.8249256"><ele>567.0</ele><time>2026-04-25T11:36:28.751Z</time></trkpt><trkpt lat="41.1934179" lon="-7.8249186"><ele>567.0</ele><time>2026-04-25T11:36:29.746Z</time></trkpt><trkpt lat="41.1933229" lon="-7.8249117"><ele>567.0</ele><time>2026-04-25T11:36:30.753Z</time></trkpt><trkpt lat="41.193229" lon="-7.8249029"><ele>567.0</ele><time>2026-04-25T11:36:31.753Z</time></trkpt><trkpt lat="41.1931277" lon="-7.8248935"><ele>567.0</ele><time>2026-04-25T11:36:32.761Z</time></trkpt><trkpt lat="41.1930296" lon="-7.8248864"><ele>567.0</ele><time>2026-04-25T11:36:33.751Z</time></trkpt><trkpt lat="41.1929388" lon="-7.8248728"><ele>567.4</ele><time>2026-04-25T11:36:34.765Z</time></trkpt><trkpt lat="41.1928504" lon="-7.8248652"><ele>567.8000000000001</ele><time>2026-04-25T11:36:35.751Z</time></trkpt><trkpt lat="41.1926851" lon="-7.8249131"><ele>568.2</ele><time>2026-04-25T11:36:37.754Z</time></trkpt><trkpt lat="41.1926121" lon="-7.8249709"><ele>568.6</ele><time>2026-04-25T11:36:38.755Z</time></trkpt><trkpt lat="41.1925512" lon="-7.8250479"><ele>569.0</ele><time>2026-04-25T11:36:39.754Z</time></trkpt><trkpt lat="41.1924949" lon="-7.825135"><ele>568.8333333333333</ele><time>2026-04-25T11:36:40.753Z</time></trkpt><trkpt lat="41.1924422" lon="-7.8252296"><ele>568.6666666666666</ele><time>2026-04-25T11:36:41.746Z</time></trkpt><trkpt lat="41.1923945" lon="-7.8253231"><ele>568.5</ele><time>2026-04-25T11:36:42.753Z</time></trkpt><trkpt lat="41.1923467" lon="-7.8253978"><ele>568.3333333333334</ele><time>2026-04-25T11:36:43.756Z</time></trkpt><trkpt lat="41.1923037" lon="-7.8254729"><ele>568.1666666666667</ele><time>2026-04-25T11:36:44.757Z</time></trkpt><trkpt lat="41.1922617" lon="-7.8255495"><ele>568.0</ele><time>2026-04-25T11:36:45.757Z</time></trkpt><trkpt lat="41.1922193" lon="-7.8256312"><ele>568.0</ele><time>2026-04-25T11:36:46.752Z</time></trkpt><trkpt lat="41.1921746" lon="-7.8257137"><ele>568.0</ele><time>2026-04-25T11:36:47.748Z</time></trkpt><trkpt lat="41.1921205" lon="-7.8257951"><ele>568.0</ele><time>2026-04-25T11:36:48.751Z</time></trkpt><trkpt lat="41.1920616" lon="-7.8258821"><ele>568.0</ele><time>2026-04-25T11:36:49.752Z</time></trkpt><trkpt lat="41.1920065" lon="-7.825963"><ele>568.0</ele><time>2026-04-25T11:36:50.755Z</time></trkpt><trkpt lat="41.1919491" lon="-7.8260427"><ele>568.0</ele><time>2026-04-25T11:36:51.755Z</time></trkpt><trkpt lat="41.1918937" lon="-7.8261289"><ele>564.6</ele><time>2026-04-25T11:36:52.752Z</time></trkpt><trkpt lat="41.1918394" lon="-7.826205"><ele>561.1999999999999</ele><time>2026-04-25T11:36:53.752Z</time></trkpt><trkpt lat="41.191789" lon="-7.8262859"><ele>557.8</ele><time>2026-04-25T11:36:54.759Z</time></trkpt><trkpt lat="41.1917331" lon="-7.826363"><ele>554.4</ele><time>2026-04-25T11:36:55.75Z</time></trkpt><trkpt lat="41.1916662" lon="-7.8264272"><ele>551.0</ele><time>2026-04-25T11:36:56.757Z</time></trkpt><trkpt lat="41.191502" lon="-7.8265613"><ele>551.0</ele><time>2026-04-25T11:36:58.759Z</time></trkpt><trkpt lat="41.1914155" lon="-7.8266309"><ele>551.0</ele><time>2026-04-25T11:36:59.749Z</time></trkpt><trkpt lat="41.1913298" lon="-7.826709"><ele>551.0</ele><time>2026-04-25T11:37:00.754Z</time></trkpt><trkpt lat="41.1912413" lon="-7.8267923"><ele>551.0</ele><time>2026-04-25T11:37:01.755Z</time></trkpt><trkpt lat="41.191163" lon="-7.8268833"><ele>551.0</ele><time>2026-04-25T11:37:02.76Z</time></trkpt><trkpt lat="41.1910839" lon="-7.826967"><ele>548.6</ele><time>2026-04-25T11:37:03.753Z</time></trkpt><trkpt lat="41.191006" lon="-7.8270488"><ele>546.2</ele><time>2026-04-25T11:37:04.76Z</time></trkpt><trkpt lat="41.1909261" lon="-7.8271167"><ele>543.8</ele><time>2026-04-25T11:37:05.753Z</time></trkpt><trkpt lat="41.1908485" lon="-7.8271899"><ele>541.4</ele><time>2026-04-25T11:37:06.756Z</time></trkpt><trkpt lat="41.1907812" lon="-7.8272726"><ele>539.0</ele><time>2026-04-25T11:37:07.774Z</time></trkpt><trkpt lat="41.1907229" lon="-7.8273648"><ele>539.0</ele><time>2026-04-25T11:37:08.756Z</time></trkpt><trkpt lat="41.1906824" lon="-7.8274636"><ele>539.0</ele><time>2026-04-25T11:37:09.755Z</time></trkpt><trkpt lat="41.1906841" lon="-7.827574"><ele>539.0</ele><time>2026-04-25T11:37:10.752Z</time></trkpt><trkpt lat="41.190721" lon="-7.8276971"><ele>539.0</ele><time>2026-04-25T11:37:11.756Z</time></trkpt><trkpt lat="41.190768" lon="-7.8278176"><ele>539.0</ele><time>2026-04-25T11:37:12.755Z</time></trkpt><trkpt lat="41.1908183" lon="-7.8279422"><ele>537.4</ele><time>2026-04-25T11:37:13.756Z</time></trkpt><trkpt lat="41.190839" lon="-7.8280639"><ele>535.8</ele><time>2026-04-25T11:37:14.755Z</time></trkpt><trkpt lat="41.1908422" lon="-7.8281955"><ele>534.2</ele><time>2026-04-25T11:37:15.758Z</time></trkpt><trkpt lat="41.1908232" lon="-7.8283194"><ele>532.6</ele><time>2026-04-25T11:37:16.751Z</time></trkpt><trkpt lat="41.1908024" lon="-7.8284486"><ele>531.0</ele><time>2026-04-25T11:37:17.753Z</time></trkpt><trkpt lat="41.1907166" lon="-7.8286863"><ele>529.0</ele><time>2026-04-25T11:37:19.756Z</time></trkpt><trkpt lat="41.1906511" lon="-7.8287939"><ele>527.0</ele><time>2026-04-25T11:37:20.752Z</time></trkpt><trkpt lat="41.1905784" lon="-7.828898"><ele>525.0</ele><time>2026-04-25T11:37:21.747Z</time></trkpt><trkpt lat="41.1904947" lon="-7.828986"><ele>523.0</ele><time>2026-04-25T11:37:22.751Z</time></trkpt><trkpt lat="41.1904005" lon="-7.8290818"><ele>521.0</ele><time>2026-04-25T11:37:23.751Z</time></trkpt><trkpt lat="41.1902949" lon="-7.8291755"><ele>521.0</ele><time>2026-04-25T11:37:24.749Z</time></trkpt><trkpt lat="41.1901879" lon="-7.829273"><ele>521.0</ele><time>2026-04-25T11:37:25.752Z</time></trkpt><trkpt lat="41.1900802" lon="-7.8293746"><ele>521.0</ele><time>2026-04-25T11:37:26.753Z</time></trkpt><trkpt lat="41.1899666" lon="-7.8294577"><ele>521.0</ele><time>2026-04-25T11:37:27.755Z</time></trkpt><trkpt lat="41.1898492" lon="-7.82953"><ele>517.75</ele><time>2026-04-25T11:37:28.753Z</time></trkpt><trkpt lat="41.1897277" lon="-7.829577"><ele>514.5</ele><time>2026-04-25T11:37:29.748Z</time></trkpt><trkpt lat="41.1896064" lon="-7.8295973"><ele>511.25</ele><time>2026-04-25T11:37:30.753Z</time></trkpt><trkpt lat="41.1894916" lon="-7.8295935"><ele>508.0</ele><time>2026-04-25T11:37:31.752Z</time></trkpt><trkpt lat="41.1893848" lon="-7.8295645"><ele>508.00000000000006</ele><time>2026-04-25T11:37:32.756Z</time></trkpt><trkpt lat="41.1892897" lon="-7.8295376"><ele>508.0</ele><time>2026-04-25T11:37:33.753Z</time></trkpt><trkpt lat="41.1892091" lon="-7.8295247"><ele>508.0</ele><time>2026-04-25T11:37:34.757Z</time></trkpt><trkpt lat="41.1891431" lon="-7.8295313"><ele>508.0</ele><time>2026-04-25T11:37:35.75Z</time></trkpt><trkpt lat="41.1891223" lon="-7.8296227"><ele>508.00000000000006</ele><time>2026-04-25T11:37:37.754Z</time></trkpt><trkpt lat="41.1892249" lon="-7.8297234"><ele>508.0</ele><time>2026-04-25T11:37:39.75Z</time></trkpt><trkpt lat="41.1893803" lon="-7.8297936"><ele>508.0</ele><time>2026-04-25T11:37:41.755Z</time></trkpt><trkpt lat="41.1894721" lon="-7.8298284"><ele>507.99999999999994</ele><time>2026-04-25T11:37:42.753Z</time></trkpt><trkpt lat="41.1895797" lon="-7.829882"><ele>507.99999999999994</ele><time>2026-04-25T11:37:43.753Z</time></trkpt><trkpt lat="41.189676" lon="-7.8299301"><ele>508.0</ele><time>2026-04-25T11:37:44.75Z</time></trkpt><trkpt lat="41.189789" lon="-7.8299746"><ele>508.0</ele><time>2026-04-25T11:37:45.757Z</time></trkpt><trkpt lat="41.1899043" lon="-7.8300128"><ele>503.75</ele><time>2026-04-25T11:37:46.752Z</time></trkpt><trkpt lat="41.1900223" lon="-7.8300434"><ele>499.5</ele><time>2026-04-25T11:37:47.753Z</time></trkpt><trkpt lat="41.1901408" lon="-7.8300645"><ele>495.25</ele><time>2026-04-25T11:37:48.751Z</time></trkpt><trkpt lat="41.1902568" lon="-7.8300754"><ele>491.0</ele><time>2026-04-25T11:37:49.755Z</time></trkpt><trkpt lat="41.190375" lon="-7.8300815"><ele>491.0</ele><time>2026-04-25T11:37:50.749Z</time></trkpt><trkpt lat="41.190494" lon="-7.830083"><ele>491.0</ele><time>2026-04-25T11:37:51.75Z</time></trkpt><trkpt lat="41.1906012" lon="-7.8300755"><ele>491.0</ele><time>2026-04-25T11:37:52.757Z</time></trkpt><trkpt lat="41.1907111" lon="-7.8300651"><ele>491.0</ele><time>2026-04-25T11:37:53.756Z</time></trkpt><trkpt lat="41.1908153" lon="-7.8300315"><ele>491.0</ele><time>2026-04-25T11:37:54.756Z</time></trkpt><trkpt lat="41.1909178" lon="-7.8299835"><ele>489.20000000000005</ele><time>2026-04-25T11:37:55.75Z</time></trkpt><trkpt lat="41.1910144" lon="-7.8299287"><ele>487.40000000000003</ele><time>2026-04-25T11:37:56.754Z</time></trkpt><trkpt lat="41.191101" lon="-7.8298719"><ele>485.6</ele><time>2026-04-25T11:37:57.756Z</time></trkpt><trkpt lat="41.1911819" lon="-7.8298146"><ele>483.8</ele><time>2026-04-25T11:37:58.763Z</time></trkpt><trkpt lat="41.1912621" lon="-7.8297823"><ele>482.0</ele><time>2026-04-25T11:37:59.749Z</time></trkpt><trkpt lat="41.1913348" lon="-7.8298024"><ele>482.0</ele><time>2026-04-25T11:38:00.751Z</time></trkpt><trkpt lat="41.1914227" lon="-7.8299551"><ele>482.00000000000006</ele><time>2026-04-25T11:38:02.751Z</time></trkpt><trkpt lat="41.1914162" lon="-7.8300671"><ele>482.00000000000006</ele><time>2026-04-25T11:38:03.754Z</time></trkpt><trkpt lat="41.1913688" lon="-7.8301935"><ele>482.0</ele><time>2026-04-25T11:38:04.75Z</time></trkpt><trkpt lat="41.1913183" lon="-7.8303217"><ele>482.0</ele><time>2026-04-25T11:38:05.756Z</time></trkpt><trkpt lat="41.1912706" lon="-7.830458"><ele>479.8</ele><time>2026-04-25T11:38:06.759Z</time></trkpt><trkpt lat="41.1912148" lon="-7.8305876"><ele>477.6</ele><time>2026-04-25T11:38:07.758Z</time></trkpt><trkpt lat="41.1911611" lon="-7.8307069"><ele>475.40000000000003</ele><time>2026-04-25T11:38:08.747Z</time></trkpt><trkpt lat="41.1911006" lon="-7.8308074"><ele>473.20000000000005</ele><time>2026-04-25T11:38:09.753Z</time></trkpt><trkpt lat="41.1910379" lon="-7.8308993"><ele>471.0</ele><time>2026-04-25T11:38:10.75Z</time></trkpt><trkpt lat="41.1909632" lon="-7.8309751"><ele>471.0</ele><time>2026-04-25T11:38:11.755Z</time></trkpt><trkpt lat="41.1908858" lon="-7.8310453"><ele>471.0</ele><time>2026-04-25T11:38:12.761Z</time></trkpt><trkpt lat="41.1908077" lon="-7.8311106"><ele>471.0</ele><time>2026-04-25T11:38:13.751Z</time></trkpt><trkpt lat="41.1907258" lon="-7.8311881"><ele>471.0</ele><time>2026-04-25T11:38:14.752Z</time></trkpt><trkpt lat="41.1906499" lon="-7.8312764"><ele>471.0</ele><time>2026-04-25T11:38:15.752Z</time></trkpt><trkpt lat="41.1905795" lon="-7.8313719"><ele>466.4</ele><time>2026-04-25T11:38:16.759Z</time></trkpt><trkpt lat="41.1905121" lon="-7.831481"><ele>461.8</ele><time>2026-04-25T11:38:17.754Z</time></trkpt><trkpt lat="41.1904612" lon="-7.8316033"><ele>457.19999999999993</ele><time>2026-04-25T11:38:18.752Z</time></trkpt><trkpt lat="41.1904433" lon="-7.8317335"><ele>452.59999999999997</ele><time>2026-04-25T11:38:19.748Z</time></trkpt><trkpt lat="41.190471" lon="-7.8318721"><ele>448.0</ele><time>2026-04-25T11:38:20.749Z</time></trkpt><trkpt lat="41.1904887" lon="-7.8320062"><ele>448.0</ele><time>2026-04-25T11:38:21.769Z</time></trkpt><trkpt lat="41.1904121" lon="-7.8322602"><ele>448.0</ele><time>2026-04-25T11:38:23.75Z</time></trkpt><trkpt lat="41.1903229" lon="-7.8323378"><ele>448.0</ele><time>2026-04-25T11:38:24.766Z</time></trkpt><trkpt lat="41.1902369" lon="-7.8323988"><ele>448.0</ele><time>2026-04-25T11:38:25.749Z</time></trkpt><trkpt lat="41.1901503" lon="-7.8324635"><ele>448.0</ele><time>2026-04-25T11:38:26.749Z</time></trkpt><trkpt lat="41.190076" lon="-7.8325411"><ele>447.99999999999994</ele><time>2026-04-25T11:38:27.753Z</time></trkpt><trkpt lat="41.1900162" lon="-7.8326295"><ele>447.99999999999994</ele><time>2026-04-25T11:38:28.751Z</time></trkpt><trkpt lat="41.1899673" lon="-7.8327248"><ele>448.0</ele><time>2026-04-25T11:38:29.755Z</time></trkpt><trkpt lat="41.1899327" lon="-7.832839"><ele>448.0</ele><time>2026-04-25T11:38:30.75Z</time></trkpt><trkpt lat="41.1899046" lon="-7.8329673"><ele>450.0</ele><time>2026-04-25T11:38:31.748Z</time></trkpt><trkpt lat="41.1898585" lon="-7.8330787"><ele>451.99999999999994</ele><time>2026-04-25T11:38:32.749Z</time></trkpt><trkpt lat="41.1898025" lon="-7.8331798"><ele>453.99999999999994</ele><time>2026-04-25T11:38:33.751Z</time></trkpt><trkpt lat="41.1897246" lon="-7.833238"><ele>456.0</ele><time>2026-04-25T11:38:34.753Z</time></trkpt><trkpt lat="41.1896331" lon="-7.8332628"><ele>458.0</ele><time>2026-04-25T11:38:35.748Z</time></trkpt><trkpt lat="41.1895517" lon="-7.8333055"><ele>454.4</ele><time>2026-04-25T11:38:36.756Z</time></trkpt><trkpt lat="41.1894749" lon="-7.8333679"><ele>450.79999999999995</ele><time>2026-04-25T11:38:37.754Z</time></trkpt><trkpt lat="41.1893993" lon="-7.8334398"><ele>447.2</ele><time>2026-04-25T11:38:38.756Z</time></trkpt><trkpt lat="41.1893218" lon="-7.8335242"><ele>443.6</ele><time>2026-04-25T11:38:39.76Z</time></trkpt><trkpt lat="41.1892546" lon="-7.8336231"><ele>440.0</ele><time>2026-04-25T11:38:40.755Z</time></trkpt><trkpt lat="41.1891962" lon="-7.8337337"><ele>440.0</ele><time>2026-04-25T11:38:41.761Z</time></trkpt><trkpt lat="41.1891487" lon="-7.8338611"><ele>440.0</ele><time>2026-04-25T11:38:42.753Z</time></trkpt><trkpt lat="41.1890742" lon="-7.834129"><ele>440.0</ele><time>2026-04-25T11:38:44.748Z</time></trkpt><trkpt lat="41.1890518" lon="-7.8342626"><ele>440.0</ele><time>2026-04-25T11:38:45.755Z</time></trkpt><trkpt lat="41.1890374" lon="-7.8343968"><ele>440.8</ele><time>2026-04-25T11:38:46.746Z</time></trkpt><trkpt lat="41.1890265" lon="-7.8345382"><ele>441.6</ele><time>2026-04-25T11:38:47.749Z</time></trkpt><trkpt lat="41.1890085" lon="-7.8346765"><ele>442.4</ele><time>2026-04-25T11:38:48.755Z</time></trkpt><trkpt lat="41.1889852" lon="-7.8348143"><ele>443.2</ele><time>2026-04-25T11:38:49.748Z</time></trkpt><trkpt lat="41.1889572" lon="-7.8349515"><ele>444.0</ele><time>2026-04-25T11:38:50.752Z</time></trkpt><trkpt lat="41.1889135" lon="-7.835079"><ele>438.4</ele><time>2026-04-25T11:38:51.757Z</time></trkpt><trkpt lat="41.1888596" lon="-7.8351988"><ele>432.79999999999995</ele><time>2026-04-25T11:38:52.751Z</time></trkpt><trkpt lat="41.1888055" lon="-7.8353231"><ele>427.20000000000005</ele><time>2026-04-25T11:38:53.755Z</time></trkpt><trkpt lat="41.1887535" lon="-7.8354466"><ele>421.6</ele><time>2026-04-25T11:38:54.753Z</time></trkpt><trkpt lat="41.1886973" lon="-7.8355701"><ele>416.0</ele><time>2026-04-25T11:38:55.748Z</time></trkpt><trkpt lat="41.1886389" lon="-7.8356903"><ele>416.0</ele><time>2026-04-25T11:38:56.749Z</time></trkpt><trkpt lat="41.1885802" lon="-7.8358063"><ele>416.0</ele><time>2026-04-25T11:38:57.757Z</time></trkpt><trkpt lat="41.1885228" lon="-7.8359216"><ele>416.0</ele><time>2026-04-25T11:38:58.75Z</time></trkpt><trkpt lat="41.188462" lon="-7.8360434"><ele>416.0</ele><time>2026-04-25T11:38:59.754Z</time></trkpt><trkpt lat="41.1883936" lon="-7.8361647"><ele>416.0</ele><time>2026-04-25T11:39:00.745Z</time></trkpt><trkpt lat="41.188317" lon="-7.8362951"><ele>420.66666666666663</ele><time>2026-04-25T11:39:01.747Z</time></trkpt><trkpt lat="41.1882259" lon="-7.8364185"><ele>425.33333333333337</ele><time>2026-04-25T11:39:02.752Z</time></trkpt><trkpt lat="41.1881349" lon="-7.8365361"><ele>430.0</ele><time>2026-04-25T11:39:03.748Z</time></trkpt><trkpt lat="41.1879561" lon="-7.8367527"><ele>424.8</ele><time>2026-04-25T11:39:05.75Z</time></trkpt><trkpt lat="41.1878716" lon="-7.8368644"><ele>419.6</ele><time>2026-04-25T11:39:06.755Z</time></trkpt><trkpt lat="41.1877967" lon="-7.8369714"><ele>414.4</ele><time>2026-04-25T11:39:07.759Z</time></trkpt><trkpt lat="41.1877239" lon="-7.8370751"><ele>409.2</ele><time>2026-04-25T11:39:08.755Z</time></trkpt><trkpt lat="41.187658" lon="-7.8371812"><ele>404.0</ele><time>2026-04-25T11:39:09.751Z</time></trkpt><trkpt lat="41.1876073" lon="-7.8372987"><ele>404.0</ele><time>2026-04-25T11:39:10.756Z</time></trkpt><trkpt lat="41.1875834" lon="-7.8374276"><ele>404.0</ele><time>2026-04-25T11:39:11.755Z</time></trkpt><trkpt lat="41.187593" lon="-7.8375603"><ele>404.0</ele><time>2026-04-25T11:39:12.751Z</time></trkpt><trkpt lat="41.1876262" lon="-7.8376985"><ele>404.0</ele><time>2026-04-25T11:39:13.751Z</time></trkpt><trkpt lat="41.1876646" lon="-7.837821"><ele>404.0</ele><time>2026-04-25T11:39:14.755Z</time></trkpt><trkpt lat="41.1877071" lon="-7.8379306"><ele>402.79999999999995</ele><time>2026-04-25T11:39:15.751Z</time></trkpt><trkpt lat="41.1877527" lon="-7.8380443"><ele>401.59999999999997</ele><time>2026-04-25T11:39:16.747Z</time></trkpt><trkpt lat="41.1877855" lon="-7.8381567"><ele>400.4</ele><time>2026-04-25T11:39:17.75Z</time></trkpt><trkpt lat="41.1878129" lon="-7.8382829"><ele>399.2</ele><time>2026-04-25T11:39:18.755Z</time></trkpt><trkpt lat="41.1878236" lon="-7.838408"><ele>398.0</ele><time>2026-04-25T11:39:19.754Z</time></trkpt><trkpt lat="41.1878281" lon="-7.8385357"><ele>395.59999999999997</ele><time>2026-04-25T11:39:20.75Z</time></trkpt><trkpt lat="41.1878275" lon="-7.8386677"><ele>393.2</ele><time>2026-04-25T11:39:21.751Z</time></trkpt><trkpt lat="41.1878255" lon="-7.8387998"><ele>390.8</ele><time>2026-04-25T11:39:22.753Z</time></trkpt><trkpt lat="41.1878211" lon="-7.8389278"><ele>388.4</ele><time>2026-04-25T11:39:23.752Z</time></trkpt><trkpt lat="41.1878232" lon="-7.8390554"><ele>386.0</ele><time>2026-04-25T11:39:24.752Z</time></trkpt><trkpt lat="41.1878582" lon="-7.8393021"><ele>388.20000000000005</ele><time>2026-04-25T11:39:26.749Z</time></trkpt><trkpt lat="41.1879135" lon="-7.8394153"><ele>390.40000000000003</ele><time>2026-04-25T11:39:27.752Z</time></trkpt><trkpt lat="41.1879811" lon="-7.8395173"><ele>392.6</ele><time>2026-04-25T11:39:28.75Z</time></trkpt><trkpt lat="41.1880543" lon="-7.8396077"><ele>394.8</ele><time>2026-04-25T11:39:29.75Z</time></trkpt><trkpt lat="41.1881254" lon="-7.8396952"><ele>397.0</ele><time>2026-04-25T11:39:30.759Z</time></trkpt><trkpt lat="41.1882078" lon="-7.8397692"><ele>397.0</ele><time>2026-04-25T11:39:31.749Z</time></trkpt><trkpt lat="41.1882926" lon="-7.8398409"><ele>397.0</ele><time>2026-04-25T11:39:32.752Z</time></trkpt><trkpt lat="41.1883734" lon="-7.8399237"><ele>397.0</ele><time>2026-04-25T11:39:33.751Z</time></trkpt><trkpt lat="41.1884289" lon="-7.8400268"><ele>397.0</ele><time>2026-04-25T11:39:34.751Z</time></trkpt><trkpt lat="41.1884507" lon="-7.8401526"><ele>397.0</ele><time>2026-04-25T11:39:35.75Z</time></trkpt><trkpt lat="41.1884348" lon="-7.840288"><ele>396.6</ele><time>2026-04-25T11:39:36.756Z</time></trkpt><trkpt lat="41.1883987" lon="-7.8404234"><ele>396.20000000000005</ele><time>2026-04-25T11:39:37.754Z</time></trkpt><trkpt lat="41.1883484" lon="-7.8405437"><ele>395.8</ele><time>2026-04-25T11:39:38.746Z</time></trkpt><trkpt lat="41.1882834" lon="-7.8406618"><ele>395.4</ele><time>2026-04-25T11:39:39.753Z</time></trkpt><trkpt lat="41.1882113" lon="-7.8407852"><ele>395.0</ele><time>2026-04-25T11:39:40.759Z</time></trkpt><trkpt lat="41.1881391" lon="-7.840906"><ele>390.0</ele><time>2026-04-25T11:39:41.758Z</time></trkpt><trkpt lat="41.1880651" lon="-7.841022"><ele>385.0</ele><time>2026-04-25T11:39:42.749Z</time></trkpt><trkpt lat="41.1879942" lon="-7.8411331"><ele>380.0</ele><time>2026-04-25T11:39:43.75Z</time></trkpt><trkpt lat="41.1879277" lon="-7.8412351"><ele>375.0</ele><time>2026-04-25T11:39:44.747Z</time></trkpt><trkpt lat="41.1878846" lon="-7.8413352"><ele>370.0</ele><time>2026-04-25T11:39:45.748Z</time></trkpt><trkpt lat="41.187853" lon="-7.8415529"><ele>370.0</ele><time>2026-04-25T11:39:47.747Z</time></trkpt><trkpt lat="41.1878743" lon="-7.8416737"><ele>370.0</ele><time>2026-04-25T11:39:48.752Z</time></trkpt><trkpt lat="41.1879177" lon="-7.8417781"><ele>370.0</ele><time>2026-04-25T11:39:49.75Z</time></trkpt><trkpt lat="41.1879773" lon="-7.8418778"><ele>370.0</ele><time>2026-04-25T11:39:50.75Z</time></trkpt><trkpt lat="41.1880344" lon="-7.841963"><ele>370.0</ele><time>2026-04-25T11:39:51.755Z</time></trkpt><trkpt lat="41.1880912" lon="-7.8420324"><ele>370.0</ele><time>2026-04-25T11:39:52.753Z</time></trkpt><trkpt lat="41.1881755" lon="-7.8421118"><ele>369.66666666666663</ele><time>2026-04-25T11:39:54.759Z</time></trkpt><trkpt lat="41.1882372" lon="-7.8421786"><ele>369.3333333333333</ele><time>2026-04-25T11:39:57.752Z</time></trkpt><trkpt lat="41.1882857" lon="-7.8422404"><ele>369.0</ele><time>2026-04-25T11:40:01.75Z</time></trkpt><trkpt lat="41.188355" lon="-7.8422506"><ele>368.6666666666667</ele><time>2026-04-25T11:40:03.746Z</time></trkpt><trkpt lat="41.1884599" lon="-7.8422425"><ele>368.33333333333337</ele><time>2026-04-25T11:40:05.747Z</time></trkpt><trkpt lat="41.1885723" lon="-7.8422326"><ele>368.0</ele><time>2026-04-25T11:40:07.745Z</time></trkpt><trkpt lat="41.1888153" lon="-7.8422837"><ele>368.0</ele><time>2026-04-25T11:40:11.752Z</time></trkpt><trkpt lat="41.1889142" lon="-7.8423619"><ele>368.0</ele><time>2026-04-25T11:40:13.749Z</time></trkpt><trkpt lat="41.1890114" lon="-7.8424529"><ele>368.0</ele><time>2026-04-25T11:40:15.752Z</time></trkpt><trkpt lat="41.1890703" lon="-7.8424995"><ele>368.0</ele><time>2026-04-25T11:40:16.753Z</time></trkpt><trkpt lat="41.1891235" lon="-7.8425546"><ele>368.0</ele><time>2026-04-25T11:40:17.752Z</time></trkpt><trkpt lat="41.1891817" lon="-7.8426095"><ele>368.0</ele><time>2026-04-25T11:40:18.754Z</time></trkpt><trkpt lat="41.1892424" lon="-7.8426712"><ele>366.83333333333337</ele><time>2026-04-25T11:40:19.757Z</time></trkpt><trkpt lat="41.1893046" lon="-7.8427214"><ele>365.6666666666667</ele><time>2026-04-25T11:40:20.748Z</time></trkpt><trkpt lat="41.1893726" lon="-7.842773"><ele>364.5</ele><time>2026-04-25T11:40:21.748Z</time></trkpt><trkpt lat="41.1894463" lon="-7.8428066"><ele>363.3333333333333</ele><time>2026-04-25T11:40:22.752Z</time></trkpt><trkpt lat="41.1895213" lon="-7.8428335"><ele>362.16666666666663</ele><time>2026-04-25T11:40:23.756Z</time></trkpt><trkpt lat="41.1895988" lon="-7.8428614"><ele>361.0</ele><time>2026-04-25T11:40:24.752Z</time></trkpt><trkpt lat="41.1896746" lon="-7.842885"><ele>361.0</ele><time>2026-04-25T11:40:25.753Z</time></trkpt><trkpt lat="41.1897466" lon="-7.8429159"><ele>361.0</ele><time>2026-04-25T11:40:26.748Z</time></trkpt><trkpt lat="41.1898161" lon="-7.8429458"><ele>361.0</ele><time>2026-04-25T11:40:27.754Z</time></trkpt><trkpt lat="41.1898925" lon="-7.8429652"><ele>361.0</ele><time>2026-04-25T11:40:28.755Z</time></trkpt><trkpt lat="41.1900251" lon="-7.8430174"><ele>361.0</ele><time>2026-04-25T11:40:30.747Z</time></trkpt><trkpt lat="41.1900786" lon="-7.8430637"><ele>361.0</ele><time>2026-04-25T11:40:31.756Z</time></trkpt><trkpt lat="41.1901114" lon="-7.8431436"><ele>365.5</ele><time>2026-04-25T11:40:32.746Z</time></trkpt><trkpt lat="41.1901129" lon="-7.8432432"><ele>370.0</ele><time>2026-04-25T11:40:33.747Z</time></trkpt><trkpt lat="41.1900873" lon="-7.8433521"><ele>374.5</ele><time>2026-04-25T11:40:34.753Z</time></trkpt><trkpt lat="41.1900564" lon="-7.8434588"><ele>379.0</ele><time>2026-04-25T11:40:35.754Z</time></trkpt><trkpt lat="41.1900305" lon="-7.8435671"><ele>383.50000000000006</ele><time>2026-04-25T11:40:36.753Z</time></trkpt><trkpt lat="41.1899968" lon="-7.8436602"><ele>388.0</ele><time>2026-04-25T11:40:37.75Z</time></trkpt><trkpt lat="41.1899614" lon="-7.8437574"><ele>388.1666666666667</ele><time>2026-04-25T11:40:38.748Z</time></trkpt><trkpt lat="41.1899284" lon="-7.8438563"><ele>388.33333333333337</ele><time>2026-04-25T11:40:39.749Z</time></trkpt><trkpt lat="41.1898984" lon="-7.8439521"><ele>388.5</ele><time>2026-04-25T11:40:40.759Z</time></trkpt><trkpt lat="41.1898674" lon="-7.8440541"><ele>388.66666666666663</ele><time>2026-04-25T11:40:41.751Z</time></trkpt><trkpt lat="41.1898338" lon="-7.8441492"><ele>388.8333333333333</ele><time>2026-04-25T11:40:42.749Z</time></trkpt><trkpt lat="41.1898055" lon="-7.8442467"><ele>389.0</ele><time>2026-04-25T11:40:43.756Z</time></trkpt><trkpt lat="41.1897818" lon="-7.8443486"><ele>381.49999999999994</ele><time>2026-04-25T11:40:44.755Z</time></trkpt><trkpt lat="41.1897611" lon="-7.8444495"><ele>374.0</ele><time>2026-04-25T11:40:45.749Z</time></trkpt><trkpt lat="41.1897454" lon="-7.8445558"><ele>366.5</ele><time>2026-04-25T11:40:46.754Z</time></trkpt><trkpt lat="41.1897274" lon="-7.8446694"><ele>359.0</ele><time>2026-04-25T11:40:47.753Z</time></trkpt><trkpt lat="41.1897147" lon="-7.8447861"><ele>351.5</ele><time>2026-04-25T11:40:48.752Z</time></trkpt><trkpt lat="41.1897037" lon="-7.8449067"><ele>344.0</ele><time>2026-04-25T11:40:49.754Z</time></trkpt><trkpt lat="41.1896701" lon="-7.8451376"><ele>344.0</ele><time>2026-04-25T11:40:51.748Z</time></trkpt><trkpt lat="41.1896505" lon="-7.8452622"><ele>344.0</ele><time>2026-04-25T11:40:52.751Z</time></trkpt><trkpt lat="41.189624" lon="-7.8453779"><ele>344.0</ele><time>2026-04-25T11:40:53.752Z</time></trkpt><trkpt lat="41.1895993" lon="-7.8454813"><ele>344.0</ele><time>2026-04-25T11:40:54.764Z</time></trkpt><trkpt lat="41.1895614" lon="-7.8455949"><ele>344.0</ele><time>2026-04-25T11:40:55.747Z</time></trkpt><trkpt lat="41.1895297" lon="-7.8457044"><ele>344.0</ele><time>2026-04-25T11:40:56.764Z</time></trkpt><trkpt lat="41.1894946" lon="-7.8458192"><ele>344.0</ele><time>2026-04-25T11:40:57.758Z</time></trkpt><trkpt lat="41.189473" lon="-7.8459366"><ele>344.0</ele><time>2026-04-25T11:40:58.747Z</time></trkpt><trkpt lat="41.1894584" lon="-7.8460461"><ele>344.0</ele><time>2026-04-25T11:40:59.749Z</time></trkpt><trkpt lat="41.1894493" lon="-7.8461509"><ele>344.0</ele><time>2026-04-25T11:41:00.753Z</time></trkpt><trkpt lat="41.1894471" lon="-7.8462412"><ele>344.0</ele><time>2026-04-25T11:41:01.75Z</time></trkpt><trkpt lat="41.1894498" lon="-7.8464022"><ele>344.2</ele><time>2026-04-25T11:41:03.75Z</time></trkpt><trkpt lat="41.1894622" lon="-7.8465346"><ele>344.4</ele><time>2026-04-25T11:41:05.75Z</time></trkpt><trkpt lat="41.1894783" lon="-7.8466168"><ele>344.6</ele><time>2026-04-25T11:41:07.748Z</time></trkpt><trkpt lat="41.1895054" lon="-7.8466982"><ele>344.8</ele><time>2026-04-25T11:41:10.75Z</time></trkpt><trkpt lat="41.1893893" lon="-7.846851"><ele>345.0</ele><time>2026-04-25T11:41:15.759Z</time></trkpt><trkpt lat="41.1893319" lon="-7.8468912"><ele>342.5</ele><time>2026-04-25T11:41:17.747Z</time></trkpt><trkpt lat="41.1892468" lon="-7.8469279"><ele>340.0</ele><time>2026-04-25T11:41:20.747Z</time></trkpt><trkpt lat="41.1891719" lon="-7.8469674"><ele>337.5</ele><time>2026-04-25T11:41:22.749Z</time></trkpt><trkpt lat="41.1891245" lon="-7.8470527"><ele>335.0</ele><time>2026-04-25T11:41:25.746Z</time></trkpt><trkpt lat="41.189166" lon="-7.8471464"><ele>332.5</ele><time>2026-04-25T11:41:28.753Z</time></trkpt><trkpt lat="41.1892534" lon="-7.8471971"><ele>330.0</ele><time>2026-04-25T11:41:31.746Z</time></trkpt><trkpt lat="41.1894245" lon="-7.8472073"><ele>330.0</ele><time>2026-04-25T11:41:35.749Z</time></trkpt><trkpt lat="41.1894963" lon="-7.8472002"><ele>330.0</ele><time>2026-04-25T11:41:37.75Z</time></trkpt><trkpt lat="41.1894745" lon="-7.8473162"><ele>330.0</ele><time>2026-04-25T11:41:45.755Z</time></trkpt><trkpt lat="41.1894164" lon="-7.8474062"><ele>330.0</ele><time>2026-04-25T11:41:47.751Z</time></trkpt><trkpt lat="41.1893572" lon="-7.8474979"><ele>330.0</ele><time>2026-04-25T11:41:49.743Z</time></trkpt><trkpt lat="41.1893024" lon="-7.8475534"><ele>330.0</ele><time>2026-04-25T11:41:51.756Z</time></trkpt><trkpt lat="41.1892463" lon="-7.8476262"><ele>323.0</ele><time>2026-04-25T11:41:54.748Z</time></trkpt><trkpt lat="41.189112" lon="-7.8477489"><ele>316.0</ele><time>2026-04-25T11:41:59.75Z</time></trkpt><trkpt lat="41.1890468" lon="-7.8477968"><ele>309.0</ele><time>2026-04-25T11:42:01.75Z</time></trkpt><trkpt lat="41.1889755" lon="-7.8478661"><ele>302.0</ele><time>2026-04-25T11:42:03.754Z</time></trkpt><trkpt lat="41.1889054" lon="-7.8479409"><ele>295.0</ele><time>2026-04-25T11:42:05.749Z</time></trkpt><trkpt lat="41.1888273" lon="-7.8479861"><ele>293.6</ele><time>2026-04-25T11:42:07.752Z</time></trkpt><trkpt lat="41.188732" lon="-7.8480341"><ele>292.2</ele><time>2026-04-25T11:42:09.749Z</time></trkpt><trkpt lat="41.1886396" lon="-7.8480595"><ele>290.8</ele><time>2026-04-25T11:42:11.746Z</time></trkpt><trkpt lat="41.188551" lon="-7.8480871"><ele>289.4</ele><time>2026-04-25T11:42:13.749Z</time></trkpt><trkpt lat="41.1884599" lon="-7.8480891"><ele>288.0</ele><time>2026-04-25T11:42:15.751Z</time></trkpt><trkpt lat="41.1883134" lon="-7.8480839"><ele>288.0</ele><time>2026-04-25T11:42:19.75Z</time></trkpt><trkpt lat="41.1882534" lon="-7.8480365"><ele>288.0</ele><time>2026-04-25T11:42:21.749Z</time></trkpt><trkpt lat="41.1882016" lon="-7.847955"><ele>288.0</ele><time>2026-04-25T11:42:23.75Z</time></trkpt><trkpt lat="41.1881516" lon="-7.8478639"><ele>288.0</ele><time>2026-04-25T11:42:25.748Z</time></trkpt><trkpt lat="41.1880955" lon="-7.8477728"><ele>288.0</ele><time>2026-04-25T11:42:27.753Z</time></trkpt><trkpt lat="41.1880405" lon="-7.8476907"><ele>288.0</ele><time>2026-04-25T11:42:29.753Z</time></trkpt><trkpt lat="41.1879828" lon="-7.8475821"><ele>285.6</ele><time>2026-04-25T11:42:31.746Z</time></trkpt><trkpt lat="41.187935" lon="-7.847479"><ele>283.20000000000005</ele><time>2026-04-25T11:42:33.752Z</time></trkpt><trkpt lat="41.1878914" lon="-7.8473896"><ele>280.8</ele><time>2026-04-25T11:42:35.757Z</time></trkpt><trkpt lat="41.1878494" lon="-7.8472963"><ele>278.40000000000003</ele><time>2026-04-25T11:42:38.75Z</time></trkpt><trkpt lat="41.1878519" lon="-7.8474814"><ele>276.0</ele><time>2026-04-25T11:42:48.751Z</time></trkpt><trkpt lat="41.1878749" lon="-7.8476087"><ele>276.0</ele><time>2026-04-25T11:42:50.763Z</time></trkpt><trkpt lat="41.1878844" lon="-7.8477206"><ele>276.0</ele><time>2026-04-25T11:42:52.747Z</time></trkpt><trkpt lat="41.1878996" lon="-7.8478473"><ele>276.0</ele><time>2026-04-25T11:42:54.748Z</time></trkpt><trkpt lat="41.187897" lon="-7.8479678"><ele>276.0</ele><time>2026-04-25T11:42:56.76Z</time></trkpt><trkpt lat="41.1878832" lon="-7.8480965"><ele>276.0</ele><time>2026-04-25T11:42:58.748Z</time></trkpt><trkpt lat="41.1878497" lon="-7.8482097"><ele>276.0</ele><time>2026-04-25T11:43:00.744Z</time></trkpt><trkpt lat="41.187725" lon="-7.8483775"><ele>276.0</ele><time>2026-04-25T11:43:04.75Z</time></trkpt><trkpt lat="41.1876342" lon="-7.8484012"><ele>276.0</ele><time>2026-04-25T11:43:06.749Z</time></trkpt><trkpt lat="41.1875447" lon="-7.8483826"><ele>276.0</ele><time>2026-04-25T11:43:08.75Z</time></trkpt><trkpt lat="41.1874501" lon="-7.8483465"><ele>276.0</ele><time>2026-04-25T11:43:10.746Z</time></trkpt><trkpt lat="41.1873547" lon="-7.8483404"><ele>276.0</ele><time>2026-04-25T11:43:12.757Z</time></trkpt><trkpt lat="41.1872975" lon="-7.8482942"><ele>276.0</ele><time>2026-04-25T11:43:14.745Z</time></trkpt><trkpt lat="41.1872906" lon="-7.8481905"><ele>276.0</ele><time>2026-04-25T11:43:16.748Z</time></trkpt><trkpt lat="41.1872968" lon="-7.8480638"><ele>276.0</ele><time>2026-04-25T11:43:18.746Z</time></trkpt><trkpt lat="41.1872279" lon="-7.8479502"><ele>276.0</ele><time>2026-04-25T11:43:20.757Z</time></trkpt><trkpt lat="41.1871782" lon="-7.8478768"><ele>282.40000000000003</ele><time>2026-04-25T11:43:21.748Z</time></trkpt><trkpt lat="41.1870641" lon="-7.847721"><ele>288.8</ele><time>2026-04-25T11:43:23.747Z</time></trkpt><trkpt lat="41.1870077" lon="-7.8476435"><ele>295.20000000000005</ele><time>2026-04-25T11:43:24.749Z</time></trkpt><trkpt lat="41.1869571" lon="-7.8475558"><ele>301.6</ele><time>2026-04-25T11:43:25.746Z</time></trkpt><trkpt lat="41.1869099" lon="-7.8474687"><ele>308.0</ele><time>2026-04-25T11:43:26.754Z</time></trkpt><trkpt lat="41.1868637" lon="-7.8473908"><ele>308.6666666666667</ele><time>2026-04-25T11:43:27.75Z</time></trkpt><trkpt lat="41.1868305" lon="-7.8473085"><ele>309.33333333333337</ele><time>2026-04-25T11:43:28.752Z</time></trkpt><trkpt lat="41.1868062" lon="-7.847218"><ele>310.0</ele><time>2026-04-25T11:43:29.75Z</time></trkpt><trkpt lat="41.1867857" lon="-7.8471347"><ele>310.6666666666667</ele><time>2026-04-25T11:43:30.753Z</time></trkpt><trkpt lat="41.1867564" lon="-7.8469927"><ele>311.3333333333333</ele><time>2026-04-25T11:43:32.749Z</time></trkpt><trkpt lat="41.1866869" lon="-7.8470393"><ele>312.0</ele><time>2026-04-25T11:43:36.751Z</time></trkpt><trkpt lat="41.1866784" lon="-7.8471323"><ele>312.0</ele><time>2026-04-25T11:43:37.748Z</time></trkpt><trkpt lat="41.1866703" lon="-7.847241"><ele>312.0</ele><time>2026-04-25T11:43:38.747Z</time></trkpt><trkpt lat="41.1866583" lon="-7.8473415"><ele>312.0</ele><time>2026-04-25T11:43:39.745Z</time></trkpt><trkpt lat="41.1866534" lon="-7.8474334"><ele>312.0</ele><time>2026-04-25T11:43:40.751Z</time></trkpt><trkpt lat="41.1866511" lon="-7.8475276"><ele>312.0</ele><time>2026-04-25T11:43:41.75Z</time></trkpt><trkpt lat="41.1866495" lon="-7.8476238"><ele>312.0</ele><time>2026-04-25T11:43:42.747Z</time></trkpt><trkpt lat="41.1866366" lon="-7.8478066"><ele>311.3333333333333</ele><time>2026-04-25T11:43:44.751Z</time></trkpt><trkpt lat="41.1866276" lon="-7.8478909"><ele>310.6666666666667</ele><time>2026-04-25T11:43:45.752Z</time></trkpt><trkpt lat="41.1866052" lon="-7.8480559"><ele>310.0</ele><time>2026-04-25T11:43:47.746Z</time></trkpt><trkpt lat="41.1865406" lon="-7.8481935"><ele>309.33333333333337</ele><time>2026-04-25T11:43:49.746Z</time></trkpt><trkpt lat="41.1864887" lon="-7.848248"><ele>308.6666666666667</ele><time>2026-04-25T11:43:50.751Z</time></trkpt><trkpt lat="41.1864314" lon="-7.8482931"><ele>308.0</ele><time>2026-04-25T11:43:51.747Z</time></trkpt><trkpt lat="41.1863699" lon="-7.8483308"><ele>310.0</ele><time>2026-04-25T11:43:52.748Z</time></trkpt><trkpt lat="41.1862974" lon="-7.8483703"><ele>312.0</ele><time>2026-04-25T11:43:53.755Z</time></trkpt><trkpt lat="41.1862207" lon="-7.8484084"><ele>314.0</ele><time>2026-04-25T11:43:54.745Z</time></trkpt><trkpt lat="41.1861417" lon="-7.8484403"><ele>316.0</ele><time>2026-04-25T11:43:55.747Z</time></trkpt><trkpt lat="41.186075" lon="-7.84849"><ele>318.0</ele><time>2026-04-25T11:43:56.75Z</time></trkpt><trkpt lat="41.1860161" lon="-7.8485312"><ele>320.0</ele><time>2026-04-25T11:43:57.75Z</time></trkpt><trkpt lat="41.1859619" lon="-7.8485814"><ele>320.0</ele><time>2026-04-25T11:43:58.745Z</time></trkpt><trkpt lat="41.1858439" lon="-7.8486637"><ele>320.0</ele><time>2026-04-25T11:44:00.75Z</time></trkpt><trkpt lat="41.185777" lon="-7.848714"><ele>320.0</ele><time>2026-04-25T11:44:01.746Z</time></trkpt><trkpt lat="41.1857105" lon="-7.8487621"><ele>320.0</ele><time>2026-04-25T11:44:02.75Z</time></trkpt><trkpt lat="41.1856496" lon="-7.8488208"><ele>320.0</ele><time>2026-04-25T11:44:03.75Z</time></trkpt><trkpt lat="41.1854953" lon="-7.8489817"><ele>322.33333333333337</ele><time>2026-04-25T11:44:06.754Z</time></trkpt><trkpt lat="41.1854037" lon="-7.8490674"><ele>324.6666666666667</ele><time>2026-04-25T11:44:08.745Z</time></trkpt><trkpt lat="41.1852938" lon="-7.8491595"><ele>327.0</ele><time>2026-04-25T11:44:10.755Z</time></trkpt><trkpt lat="41.1852381" lon="-7.8492092"><ele>329.3333333333333</ele><time>2026-04-25T11:44:11.752Z</time></trkpt><trkpt lat="41.1851847" lon="-7.8492632"><ele>331.66666666666663</ele><time>2026-04-25T11:44:12.75Z</time></trkpt><trkpt lat="41.1851287" lon="-7.8493021"><ele>334.0</ele><time>2026-04-25T11:44:13.748Z</time></trkpt><trkpt lat="41.1850294" lon="-7.8493964"><ele>334.0</ele><time>2026-04-25T11:44:15.745Z</time></trkpt><trkpt lat="41.1849292" lon="-7.8495076"><ele>334.0</ele><time>2026-04-25T11:44:17.752Z</time></trkpt><trkpt lat="41.1848696" lon="-7.849566"><ele>334.0</ele><time>2026-04-25T11:44:18.754Z</time></trkpt><trkpt lat="41.1848058" lon="-7.8496275"><ele>334.0</ele><time>2026-04-25T11:44:19.748Z</time></trkpt><trkpt lat="41.1847459" lon="-7.8496952"><ele>334.0</ele><time>2026-04-25T11:44:20.749Z</time></trkpt><trkpt lat="41.1846956" lon="-7.8497787"><ele>334.0</ele><time>2026-04-25T11:44:21.749Z</time></trkpt><trkpt lat="41.1846419" lon="-7.849852"><ele>338.79999999999995</ele><time>2026-04-25T11:44:22.752Z</time></trkpt><trkpt lat="41.1845876" lon="-7.8499226"><ele>343.59999999999997</ele><time>2026-04-25T11:44:23.756Z</time></trkpt><trkpt lat="41.1845339" lon="-7.8500036"><ele>348.4</ele><time>2026-04-25T11:44:24.754Z</time></trkpt><trkpt lat="41.1844249" lon="-7.8501636"><ele>353.2</ele><time>2026-04-25T11:44:26.748Z</time></trkpt><trkpt lat="41.1843688" lon="-7.8502414"><ele>358.0</ele><time>2026-04-25T11:44:27.758Z</time></trkpt><trkpt lat="41.1843039" lon="-7.8503146"><ele>358.0</ele><time>2026-04-25T11:44:28.753Z</time></trkpt><trkpt lat="41.1842396" lon="-7.8503906"><ele>358.0</ele><time>2026-04-25T11:44:29.748Z</time></trkpt><trkpt lat="41.1841732" lon="-7.8504585"><ele>358.0</ele><time>2026-04-25T11:44:30.745Z</time></trkpt><trkpt lat="41.1841113" lon="-7.8505261"><ele>358.0</ele><time>2026-04-25T11:44:31.744Z</time></trkpt><trkpt lat="41.1840454" lon="-7.8505988"><ele>358.0</ele><time>2026-04-25T11:44:32.747Z</time></trkpt><trkpt lat="41.1839749" lon="-7.8506685"><ele>358.0</ele><time>2026-04-25T11:44:33.753Z</time></trkpt><trkpt lat="41.1839094" lon="-7.8507427"><ele>362.79999999999995</ele><time>2026-04-25T11:44:34.754Z</time></trkpt><trkpt lat="41.1838415" lon="-7.8508229"><ele>367.6</ele><time>2026-04-25T11:44:35.747Z</time></trkpt><trkpt lat="41.1837717" lon="-7.8509114"><ele>372.4</ele><time>2026-04-25T11:44:36.753Z</time></trkpt><trkpt lat="41.1836995" lon="-7.8509949"><ele>377.20000000000005</ele><time>2026-04-25T11:44:37.748Z</time></trkpt><trkpt lat="41.1836355" lon="-7.8510812"><ele>382.0</ele><time>2026-04-25T11:44:38.751Z</time></trkpt><trkpt lat="41.1835798" lon="-7.8511541"><ele>382.0</ele><time>2026-04-25T11:44:39.752Z</time></trkpt><trkpt lat="41.1835258" lon="-7.851204"><ele>382.0</ele><time>2026-04-25T11:44:40.756Z</time></trkpt><trkpt lat="41.1834714" lon="-7.8512712"><ele>382.0</ele><time>2026-04-25T11:44:42.748Z</time></trkpt><trkpt lat="41.1834154" lon="-7.8513446"><ele>382.0</ele><time>2026-04-25T11:44:45.748Z</time></trkpt><trkpt lat="41.1832726" lon="-7.8514208"><ele>382.0</ele><time>2026-04-25T11:44:51.753Z</time></trkpt><trkpt lat="41.1832129" lon="-7.851453"><ele>382.0</ele><time>2026-04-25T11:44:57.753Z</time></trkpt><trkpt lat="41.1831494" lon="-7.8515049"><ele>383.20000000000005</ele><time>2026-04-25T11:45:05.748Z</time></trkpt><trkpt lat="41.1831179" lon="-7.8516231"><ele>384.4</ele><time>2026-04-25T11:45:08.748Z</time></trkpt><trkpt lat="41.1830349" lon="-7.8517733"><ele>385.6</ele><time>2026-04-25T11:45:14.749Z</time></trkpt><trkpt lat="41.1831145" lon="-7.8518589"><ele>386.79999999999995</ele><time>2026-04-25T11:45:18.745Z</time></trkpt><trkpt lat="41.1831909" lon="-7.8519465"><ele>388.0</ele><time>2026-04-25T11:45:20.746Z</time></trkpt><trkpt lat="41.1832281" lon="-7.8520606"><ele>388.4</ele><time>2026-04-25T11:45:22.749Z</time></trkpt><trkpt lat="41.1832442" lon="-7.8522152"><ele>388.79999999999995</ele><time>2026-04-25T11:45:24.748Z</time></trkpt><trkpt lat="41.1832309" lon="-7.8523893"><ele>389.2</ele><time>2026-04-25T11:45:26.762Z</time></trkpt><trkpt lat="41.1832231" lon="-7.8524951"><ele>389.6</ele><time>2026-04-25T11:45:27.754Z</time></trkpt><trkpt lat="41.1832315" lon="-7.8525942"><ele>390.0</ele><time>2026-04-25T11:45:28.748Z</time></trkpt><trkpt lat="41.1832399" lon="-7.8526961"><ele>391.6</ele><time>2026-04-25T11:45:29.745Z</time></trkpt><trkpt lat="41.1832541" lon="-7.8529088"><ele>393.2</ele><time>2026-04-25T11:45:31.75Z</time></trkpt><trkpt lat="41.1832524" lon="-7.8530148"><ele>394.79999999999995</ele><time>2026-04-25T11:45:32.749Z</time></trkpt><trkpt lat="41.1832508" lon="-7.8531225"><ele>396.4</ele><time>2026-04-25T11:45:33.759Z</time></trkpt><trkpt lat="41.1832431" lon="-7.8532211"><ele>398.0</ele><time>2026-04-25T11:45:34.754Z</time></trkpt><trkpt lat="41.1832316" lon="-7.8533145"><ele>397.99999999999994</ele><time>2026-04-25T11:45:35.75Z</time></trkpt><trkpt lat="41.1832202" lon="-7.8534078"><ele>398.0</ele><time>2026-04-25T11:45:36.746Z</time></trkpt><trkpt lat="41.1832134" lon="-7.853505"><ele>398.0</ele><time>2026-04-25T11:45:37.744Z</time></trkpt><trkpt lat="41.1832112" lon="-7.8536007"><ele>398.0</ele><time>2026-04-25T11:45:38.745Z</time></trkpt><trkpt lat="41.1832112" lon="-7.853704"><ele>397.99999999999994</ele><time>2026-04-25T11:45:39.748Z</time></trkpt><trkpt lat="41.1832096" lon="-7.8538188"><ele>398.0</ele><time>2026-04-25T11:45:40.745Z</time></trkpt><trkpt lat="41.1832096" lon="-7.8539367"><ele>400.4</ele><time>2026-04-25T11:45:41.753Z</time></trkpt><trkpt lat="41.1832046" lon="-7.8540617"><ele>402.79999999999995</ele><time>2026-04-25T11:45:42.752Z</time></trkpt><trkpt lat="41.183201" lon="-7.8541903"><ele>405.2</ele><time>2026-04-25T11:45:43.747Z</time></trkpt><trkpt lat="41.1831897" lon="-7.8543228"><ele>407.6</ele><time>2026-04-25T11:45:44.753Z</time></trkpt><trkpt lat="41.1831784" lon="-7.8544655"><ele>410.0</ele><time>2026-04-25T11:45:45.744Z</time></trkpt><trkpt lat="41.1831645" lon="-7.8546079"><ele>410.4</ele><time>2026-04-25T11:45:46.748Z</time></trkpt><trkpt lat="41.1831499" lon="-7.8547436"><ele>410.8</ele><time>2026-04-25T11:45:47.749Z</time></trkpt><trkpt lat="41.1831437" lon="-7.8548789"><ele>411.20000000000005</ele><time>2026-04-25T11:45:48.753Z</time></trkpt><trkpt lat="41.1831407" lon="-7.8550165"><ele>411.6</ele><time>2026-04-25T11:45:49.758Z</time></trkpt><trkpt lat="41.1831434" lon="-7.8551537"><ele>412.0</ele><time>2026-04-25T11:45:50.75Z</time></trkpt><trkpt lat="41.1831651" lon="-7.8554381"><ele>414.6</ele><time>2026-04-25T11:45:52.744Z</time></trkpt><trkpt lat="41.1831848" lon="-7.8555799"><ele>417.20000000000005</ele><time>2026-04-25T11:45:53.749Z</time></trkpt><trkpt lat="41.183209" lon="-7.8557247"><ele>419.8</ele><time>2026-04-25T11:45:54.748Z</time></trkpt><trkpt lat="41.1832341" lon="-7.855859"><ele>422.4</ele><time>2026-04-25T11:45:55.744Z</time></trkpt><trkpt lat="41.183255" lon="-7.855988"><ele>425.0</ele><time>2026-04-25T11:45:56.752Z</time></trkpt><trkpt lat="41.1832755" lon="-7.8561207"><ele>426.4</ele><time>2026-04-25T11:45:57.747Z</time></trkpt><trkpt lat="41.1832967" lon="-7.856251"><ele>427.8</ele><time>2026-04-25T11:45:58.751Z</time></trkpt><trkpt lat="41.1833112" lon="-7.8563762"><ele>429.20000000000005</ele><time>2026-04-25T11:45:59.742Z</time></trkpt><trkpt lat="41.1833292" lon="-7.8565064"><ele>430.6</ele><time>2026-04-25T11:46:00.756Z</time></trkpt><trkpt lat="41.1833429" lon="-7.8566398"><ele>432.0</ele><time>2026-04-25T11:46:01.75Z</time></trkpt><trkpt lat="41.183357" lon="-7.8567657"><ele>432.40000000000003</ele><time>2026-04-25T11:46:02.746Z</time></trkpt><trkpt lat="41.1833648" lon="-7.8568816"><ele>432.80000000000007</ele><time>2026-04-25T11:46:03.747Z</time></trkpt><trkpt lat="41.1833592" lon="-7.8569984"><ele>433.2</ele><time>2026-04-25T11:46:04.747Z</time></trkpt><trkpt lat="41.183333" lon="-7.8571213"><ele>433.6</ele><time>2026-04-25T11:46:05.747Z</time></trkpt><trkpt lat="41.1833033" lon="-7.8572414"><ele>434.0</ele><time>2026-04-25T11:46:06.757Z</time></trkpt><trkpt lat="41.1832699" lon="-7.8573614"><ele>434.0</ele><time>2026-04-25T11:46:07.751Z</time></trkpt><trkpt lat="41.1832284" lon="-7.857486"><ele>434.0</ele><time>2026-04-25T11:46:08.751Z</time></trkpt><trkpt lat="41.1831827" lon="-7.857612"><ele>434.0</ele><time>2026-04-25T11:46:09.745Z</time></trkpt><trkpt lat="41.1831379" lon="-7.8577316"><ele>434.0</ele><time>2026-04-25T11:46:10.75Z</time></trkpt><trkpt lat="41.1830885" lon="-7.8578442"><ele>434.0</ele><time>2026-04-25T11:46:11.752Z</time></trkpt><trkpt lat="41.1829797" lon="-7.8579875"><ele>435.3333333333333</ele><time>2026-04-25T11:46:13.748Z</time></trkpt><trkpt lat="41.1829272" lon="-7.8580361"><ele>436.66666666666663</ele><time>2026-04-25T11:46:14.751Z</time></trkpt><trkpt lat="41.1829334" lon="-7.8581546"><ele>438.0</ele><time>2026-04-25T11:46:16.745Z</time></trkpt><trkpt lat="41.1829656" lon="-7.8582376"><ele>439.33333333333337</ele><time>2026-04-25T11:46:17.762Z</time></trkpt><trkpt lat="41.1829957" lon="-7.8583274"><ele>440.6666666666667</ele><time>2026-04-25T11:46:18.748Z</time></trkpt><trkpt lat="41.183035" lon="-7.8584184"><ele>442.0</ele><time>2026-04-25T11:46:19.748Z</time></trkpt><trkpt lat="41.1830786" lon="-7.8585078"><ele>443.6666666666667</ele><time>2026-04-25T11:46:20.754Z</time></trkpt><trkpt lat="41.1831171" lon="-7.8585908"><ele>445.33333333333337</ele><time>2026-04-25T11:46:21.747Z</time></trkpt><trkpt lat="41.1831637" lon="-7.8586897"><ele>447.0</ele><time>2026-04-25T11:46:22.75Z</time></trkpt><trkpt lat="41.1832117" lon="-7.8587931"><ele>448.66666666666663</ele><time>2026-04-25T11:46:23.75Z</time></trkpt><trkpt lat="41.1832412" lon="-7.8588966"><ele>450.3333333333333</ele><time>2026-04-25T11:46:24.75Z</time></trkpt><trkpt lat="41.1832656" lon="-7.8590048"><ele>452.0</ele><time>2026-04-25T11:46:25.753Z</time></trkpt><trkpt lat="41.1832857" lon="-7.8591056"><ele>454.0</ele><time>2026-04-25T11:46:26.751Z</time></trkpt><trkpt lat="41.1833082" lon="-7.8592074"><ele>456.0</ele><time>2026-04-25T11:46:27.748Z</time></trkpt><trkpt lat="41.183329" lon="-7.8592934"><ele>458.0</ele><time>2026-04-25T11:46:28.75Z</time></trkpt><trkpt lat="41.1833372" lon="-7.8593803"><ele>460.0</ele><time>2026-04-25T11:46:29.743Z</time></trkpt><trkpt lat="41.1833457" lon="-7.8594712"><ele>462.0</ele><time>2026-04-25T11:46:30.751Z</time></trkpt><trkpt lat="41.1833495" lon="-7.8595728"><ele>464.0</ele><time>2026-04-25T11:46:31.758Z</time></trkpt><trkpt lat="41.183356" lon="-7.8596808"><ele>466.0</ele><time>2026-04-25T11:46:32.748Z</time></trkpt><trkpt lat="41.1833613" lon="-7.8598918"><ele>468.00000000000006</ele><time>2026-04-25T11:46:34.752Z</time></trkpt><trkpt lat="41.1833595" lon="-7.8600031"><ele>470.0</ele><time>2026-04-25T11:46:35.752Z</time></trkpt><trkpt lat="41.1833517" lon="-7.8601164"><ele>472.0</ele><time>2026-04-25T11:46:36.745Z</time></trkpt><trkpt lat="41.1833385" lon="-7.8602305"><ele>474.0</ele><time>2026-04-25T11:46:37.746Z</time></trkpt><trkpt lat="41.1833245" lon="-7.8603437"><ele>476.00000000000006</ele><time>2026-04-25T11:46:38.751Z</time></trkpt><trkpt lat="41.1833208" lon="-7.8604732"><ele>478.0</ele><time>2026-04-25T11:46:39.747Z</time></trkpt><trkpt lat="41.1833165" lon="-7.8606159"><ele>480.75</ele><time>2026-04-25T11:46:40.752Z</time></trkpt><trkpt lat="41.1833133" lon="-7.8607635"><ele>483.5</ele><time>2026-04-25T11:46:41.752Z</time></trkpt><trkpt lat="41.1832954" lon="-7.8609191"><ele>486.25</ele><time>2026-04-25T11:46:42.751Z</time></trkpt><trkpt lat="41.1832716" lon="-7.8610855"><ele>489.0</ele><time>2026-04-25T11:46:43.747Z</time></trkpt><trkpt lat="41.1832557" lon="-7.861266"><ele>489.25</ele><time>2026-04-25T11:46:44.752Z</time></trkpt><trkpt lat="41.1832429" lon="-7.861454"><ele>489.5</ele><time>2026-04-25T11:46:45.746Z</time></trkpt><trkpt lat="41.1832248" lon="-7.8616447"><ele>489.75</ele><time>2026-04-25T11:46:46.746Z</time></trkpt><trkpt lat="41.1831998" lon="-7.8618407"><ele>490.0</ele><time>2026-04-25T11:46:47.746Z</time></trkpt><trkpt lat="41.183183" lon="-7.8620466"><ele>493.0</ele><time>2026-04-25T11:46:48.749Z</time></trkpt><trkpt lat="41.1831723" lon="-7.8622428"><ele>496.0</ele><time>2026-04-25T11:46:49.755Z</time></trkpt><trkpt lat="41.1831652" lon="-7.8624175"><ele>499.0</ele><time>2026-04-25T11:46:50.75Z</time></trkpt><trkpt lat="41.1831543" lon="-7.862582"><ele>502.0</ele><time>2026-04-25T11:46:51.748Z</time></trkpt><trkpt lat="41.1831379" lon="-7.8627517"><ele>505.0</ele><time>2026-04-25T11:46:52.746Z</time></trkpt><trkpt lat="41.1831298" lon="-7.8629163"><ele>508.0</ele><time>2026-04-25T11:46:53.748Z</time></trkpt><trkpt lat="41.1831099" lon="-7.8631748"><ele>511.0</ele><time>2026-04-25T11:46:55.748Z</time></trkpt><trkpt lat="41.1830967" lon="-7.8633236"><ele>514.0</ele><time>2026-04-25T11:46:56.744Z</time></trkpt><trkpt lat="41.1830749" lon="-7.8634691"><ele>516.2</ele><time>2026-04-25T11:46:57.747Z</time></trkpt><trkpt lat="41.1830584" lon="-7.8636081"><ele>518.4</ele><time>2026-04-25T11:46:58.748Z</time></trkpt><trkpt lat="41.1830392" lon="-7.8637505"><ele>520.6</ele><time>2026-04-25T11:46:59.754Z</time></trkpt><trkpt lat="41.1830199" lon="-7.8638939"><ele>522.8</ele><time>2026-04-25T11:47:00.747Z</time></trkpt><trkpt lat="41.1830047" lon="-7.8640323"><ele>525.0</ele><time>2026-04-25T11:47:01.75Z</time></trkpt><trkpt lat="41.1830016" lon="-7.8641813"><ele>527.6</ele><time>2026-04-25T11:47:02.745Z</time></trkpt><trkpt lat="41.1830013" lon="-7.8643314"><ele>530.2</ele><time>2026-04-25T11:47:03.748Z</time></trkpt><trkpt lat="41.1830058" lon="-7.8644783"><ele>532.8</ele><time>2026-04-25T11:47:04.747Z</time></trkpt><trkpt lat="41.1830182" lon="-7.8646255"><ele>535.4</ele><time>2026-04-25T11:47:05.749Z</time></trkpt><trkpt lat="41.1830344" lon="-7.8647722"><ele>538.0</ele><time>2026-04-25T11:47:06.75Z</time></trkpt><trkpt lat="41.1830494" lon="-7.8649146"><ele>538.0</ele><time>2026-04-25T11:47:07.748Z</time></trkpt><trkpt lat="41.1830652" lon="-7.8650634"><ele>538.0</ele><time>2026-04-25T11:47:08.748Z</time></trkpt><trkpt lat="41.1830748" lon="-7.8652139"><ele>538.0</ele><time>2026-04-25T11:47:09.745Z</time></trkpt><trkpt lat="41.1830934" lon="-7.865363"><ele>538.0</ele><time>2026-04-25T11:47:10.755Z</time></trkpt><trkpt lat="41.1831116" lon="-7.8655016"><ele>538.0</ele><time>2026-04-25T11:47:11.747Z</time></trkpt><trkpt lat="41.1831291" lon="-7.8656302"><ele>539.5</ele><time>2026-04-25T11:47:12.751Z</time></trkpt><trkpt lat="41.1831428" lon="-7.865758"><ele>541.0</ele><time>2026-04-25T11:47:13.748Z</time></trkpt><trkpt lat="41.1831492" lon="-7.8658756"><ele>542.5</ele><time>2026-04-25T11:47:14.747Z</time></trkpt><trkpt lat="41.1831678" lon="-7.8661224"><ele>544.0</ele><time>2026-04-25T11:47:16.747Z</time></trkpt><trkpt lat="41.1831712" lon="-7.866254"><ele>544.6</ele><time>2026-04-25T11:47:17.751Z</time></trkpt><trkpt lat="41.1831781" lon="-7.8663875"><ele>545.2</ele><time>2026-04-25T11:47:18.748Z</time></trkpt><trkpt lat="41.1831908" lon="-7.8665297"><ele>545.8000000000001</ele><time>2026-04-25T11:47:19.748Z</time></trkpt><trkpt lat="41.183209" lon="-7.8666664"><ele>546.4</ele><time>2026-04-25T11:47:20.752Z</time></trkpt><trkpt lat="41.1832301" lon="-7.8667914"><ele>547.0</ele><time>2026-04-25T11:47:21.756Z</time></trkpt><trkpt lat="41.1832512" lon="-7.8669177"><ele>547.0</ele><time>2026-04-25T11:47:22.749Z</time></trkpt><trkpt lat="41.1832735" lon="-7.8670476"><ele>547.0</ele><time>2026-04-25T11:47:23.747Z</time></trkpt><trkpt lat="41.1832941" lon="-7.8671659"><ele>547.0</ele><time>2026-04-25T11:47:24.75Z</time></trkpt><trkpt lat="41.1833071" lon="-7.8673014"><ele>547.0</ele><time>2026-04-25T11:47:25.746Z</time></trkpt><trkpt lat="41.1833062" lon="-7.8674257"><ele>547.0</ele><time>2026-04-25T11:47:26.752Z</time></trkpt><trkpt lat="41.1832959" lon="-7.8675478"><ele>549.0</ele><time>2026-04-25T11:47:27.755Z</time></trkpt><trkpt lat="41.1832772" lon="-7.8676714"><ele>551.0</ele><time>2026-04-25T11:47:28.749Z</time></trkpt><trkpt lat="41.183265" lon="-7.8677889"><ele>553.0</ele><time>2026-04-25T11:47:29.747Z</time></trkpt><trkpt lat="41.1832579" lon="-7.8679066"><ele>555.0</ele><time>2026-04-25T11:47:30.757Z</time></trkpt><trkpt lat="41.1832482" lon="-7.8680178"><ele>557.0</ele><time>2026-04-25T11:47:31.745Z</time></trkpt><trkpt lat="41.1832408" lon="-7.8681236"><ele>559.0</ele><time>2026-04-25T11:47:32.745Z</time></trkpt><trkpt lat="41.1832329" lon="-7.8682336"><ele>559.0</ele><time>2026-04-25T11:47:33.753Z</time></trkpt><trkpt lat="41.1832201" lon="-7.8683474"><ele>559.0</ele><time>2026-04-25T11:47:34.747Z</time></trkpt><trkpt lat="41.1832006" lon="-7.868455"><ele>559.0</ele><time>2026-04-25T11:47:35.745Z</time></trkpt><trkpt lat="41.1831602" lon="-7.8686752"><ele>559.0</ele><time>2026-04-25T11:47:37.75Z</time></trkpt><trkpt lat="41.1831493" lon="-7.8687839"><ele>559.0</ele><time>2026-04-25T11:47:38.748Z</time></trkpt><trkpt lat="41.1831296" lon="-7.8688953"><ele>562.0</ele><time>2026-04-25T11:47:39.754Z</time></trkpt><trkpt lat="41.1830979" lon="-7.8690007"><ele>565.0</ele><time>2026-04-25T11:47:40.749Z</time></trkpt><trkpt lat="41.1830631" lon="-7.8691013"><ele>568.0</ele><time>2026-04-25T11:47:41.745Z</time></trkpt><trkpt lat="41.1830184" lon="-7.8692084"><ele>571.0</ele><time>2026-04-25T11:47:42.746Z</time></trkpt><trkpt lat="41.1829682" lon="-7.8693085"><ele>574.0</ele><time>2026-04-25T11:47:43.747Z</time></trkpt><trkpt lat="41.1829133" lon="-7.8693983"><ele>577.0</ele><time>2026-04-25T11:47:44.746Z</time></trkpt><trkpt lat="41.1828538" lon="-7.8694763"><ele>577.0</ele><time>2026-04-25T11:47:45.746Z</time></trkpt><trkpt lat="41.182805" lon="-7.8695587"><ele>577.0</ele><time>2026-04-25T11:47:46.751Z</time></trkpt><trkpt lat="41.1827582" lon="-7.8696462"><ele>577.0</ele><time>2026-04-25T11:47:47.747Z</time></trkpt><trkpt lat="41.1827042" lon="-7.8697352"><ele>577.0</ele><time>2026-04-25T11:47:48.75Z</time></trkpt><trkpt lat="41.1826489" lon="-7.8698263"><ele>577.0</ele><time>2026-04-25T11:47:49.75Z</time></trkpt><trkpt lat="41.1825925" lon="-7.8699266"><ele>577.0</ele><time>2026-04-25T11:47:50.745Z</time></trkpt><trkpt lat="41.1825299" lon="-7.8700318"><ele>578.0</ele><time>2026-04-25T11:47:51.754Z</time></trkpt><trkpt lat="41.1824675" lon="-7.8701335"><ele>579.0</ele><time>2026-04-25T11:47:52.755Z</time></trkpt><trkpt lat="41.1824034" lon="-7.8702269"><ele>580.0</ele><time>2026-04-25T11:47:53.746Z</time></trkpt><trkpt lat="41.1823387" lon="-7.8703205"><ele>581.0</ele><time>2026-04-25T11:47:54.757Z</time></trkpt><trkpt lat="41.1822769" lon="-7.8704156"><ele>582.0</ele><time>2026-04-25T11:47:55.749Z</time></trkpt><trkpt lat="41.1822209" lon="-7.8705218"><ele>588.0</ele><time>2026-04-25T11:47:56.746Z</time></trkpt><trkpt lat="41.182138" lon="-7.870749"><ele>594.0</ele><time>2026-04-25T11:47:58.744Z</time></trkpt><trkpt lat="41.1820964" lon="-7.8708668"><ele>600.0</ele><time>2026-04-25T11:47:59.746Z</time></trkpt><trkpt lat="41.182065" lon="-7.8709835"><ele>606.0</ele><time>2026-04-25T11:48:00.751Z</time></trkpt><trkpt lat="41.1820475" lon="-7.8711008"><ele>607.3333333333334</ele><time>2026-04-25T11:48:01.746Z</time></trkpt><trkpt lat="41.1820377" lon="-7.8712143"><ele>608.6666666666666</ele><time>2026-04-25T11:48:02.754Z</time></trkpt><trkpt lat="41.1820293" lon="-7.8713233"><ele>610.0</ele><time>2026-04-25T11:48:03.749Z</time></trkpt><trkpt lat="41.1820233" lon="-7.8714339"><ele>611.3333333333333</ele><time>2026-04-25T11:48:04.745Z</time></trkpt><trkpt lat="41.1820169" lon="-7.8715463"><ele>612.6666666666666</ele><time>2026-04-25T11:48:05.751Z</time></trkpt><trkpt lat="41.1820069" lon="-7.8716515"><ele>614.0</ele><time>2026-04-25T11:48:06.759Z</time></trkpt><trkpt lat="41.1819876" lon="-7.8717541"><ele>614.0</ele><time>2026-04-25T11:48:07.744Z</time></trkpt><trkpt lat="41.1819602" lon="-7.8718414"><ele>614.0</ele><time>2026-04-25T11:48:08.747Z</time></trkpt><trkpt lat="41.1818578" lon="-7.8719151"><ele>614.0</ele><time>2026-04-25T11:48:10.749Z</time></trkpt><trkpt lat="41.1817599" lon="-7.8717862"><ele>614.0</ele><time>2026-04-25T11:48:12.746Z</time></trkpt><trkpt lat="41.1817168" lon="-7.8716796"><ele>614.0</ele><time>2026-04-25T11:48:13.754Z</time></trkpt><trkpt lat="41.1816736" lon="-7.8715819"><ele>614.0</ele><time>2026-04-25T11:48:14.761Z</time></trkpt><trkpt lat="41.1816145" lon="-7.871511"><ele>614.0</ele><time>2026-04-25T11:48:15.745Z</time></trkpt><trkpt lat="41.1815378" lon="-7.8714521"><ele>614.0</ele><time>2026-04-25T11:48:16.747Z</time></trkpt><trkpt lat="41.1814454" lon="-7.8714254"><ele>614.0</ele><time>2026-04-25T11:48:17.747Z</time></trkpt><trkpt lat="41.1812679" lon="-7.8714162"><ele>614.0</ele><time>2026-04-25T11:48:19.749Z</time></trkpt><trkpt lat="41.1811899" lon="-7.8714235"><ele>614.8571428571428</ele><time>2026-04-25T11:48:20.745Z</time></trkpt><trkpt lat="41.1811153" lon="-7.8714555"><ele>615.7142857142857</ele><time>2026-04-25T11:48:21.746Z</time></trkpt><trkpt lat="41.1810582" lon="-7.8715052"><ele>616.5714285714286</ele><time>2026-04-25T11:48:22.743Z</time></trkpt><trkpt lat="41.1810138" lon="-7.8715695"><ele>617.4285714285713</ele><time>2026-04-25T11:48:23.761Z</time></trkpt><trkpt lat="41.1809687" lon="-7.8716404"><ele>618.2857142857142</ele><time>2026-04-25T11:48:24.75Z</time></trkpt><trkpt lat="41.1809299" lon="-7.8717296"><ele>619.1428571428571</ele><time>2026-04-25T11:48:25.748Z</time></trkpt><trkpt lat="41.180913" lon="-7.8718308"><ele>620.0</ele><time>2026-04-25T11:48:26.742Z</time></trkpt><trkpt lat="41.1809091" lon="-7.8719455"><ele>622.1666666666666</ele><time>2026-04-25T11:48:27.749Z</time></trkpt><trkpt lat="41.180921" lon="-7.8720572"><ele>624.3333333333333</ele><time>2026-04-25T11:48:28.753Z</time></trkpt><trkpt lat="41.1809344" lon="-7.8721557"><ele>626.5</ele><time>2026-04-25T11:48:29.746Z</time></trkpt><trkpt lat="41.1809516" lon="-7.8722552"><ele>628.6666666666666</ele><time>2026-04-25T11:48:30.748Z</time></trkpt><trkpt lat="41.1809671" lon="-7.872352"><ele>630.8333333333334</ele><time>2026-04-25T11:48:31.755Z</time></trkpt><trkpt lat="41.1809815" lon="-7.872449"><ele>633.0</ele><time>2026-04-25T11:48:32.753Z</time></trkpt><trkpt lat="41.1809943" lon="-7.8725431"><ele>635.0</ele><time>2026-04-25T11:48:33.753Z</time></trkpt><trkpt lat="41.1810065" lon="-7.8726346"><ele>637.0</ele><time>2026-04-25T11:48:34.741Z</time></trkpt><trkpt lat="41.1810226" lon="-7.8727294"><ele>639.0</ele><time>2026-04-25T11:48:35.744Z</time></trkpt><trkpt lat="41.1810338" lon="-7.8728142"><ele>641.0</ele><time>2026-04-25T11:48:36.744Z</time></trkpt><trkpt lat="41.1809998" lon="-7.8729689"><ele>643.0</ele><time>2026-04-25T11:48:38.751Z</time></trkpt><trkpt lat="41.1808441" lon="-7.8732036"><ele>643.0</ele><time>2026-04-25T11:48:42.75Z</time></trkpt><trkpt lat="41.1808169" lon="-7.8733379"><ele>643.0</ele><time>2026-04-25T11:48:44.745Z</time></trkpt><trkpt lat="41.1808307" lon="-7.8734598"><ele>643.0</ele><time>2026-04-25T11:48:46.747Z</time></trkpt><trkpt lat="41.1808608" lon="-7.873535"><ele>643.0</ele><time>2026-04-25T11:48:47.755Z</time></trkpt><trkpt lat="41.1808941" lon="-7.8736132"><ele>643.0</ele><time>2026-04-25T11:48:48.742Z</time></trkpt><trkpt lat="41.180923" lon="-7.8737651"><ele>643.0</ele><time>2026-04-25T11:48:50.747Z</time></trkpt><trkpt lat="41.1809529" lon="-7.8738677"><ele>644.5999999999999</ele><time>2026-04-25T11:48:52.748Z</time></trkpt><trkpt lat="41.1809539" lon="-7.8739579"><ele>646.1999999999999</ele><time>2026-04-25T11:48:54.746Z</time></trkpt><trkpt lat="41.1808954" lon="-7.8740034"><ele>647.8</ele><time>2026-04-25T11:48:56.744Z</time></trkpt><trkpt lat="41.180804" lon="-7.8739722"><ele>649.4</ele><time>2026-04-25T11:48:58.744Z</time></trkpt><trkpt lat="41.180687" lon="-7.8739287"><ele>651.0</ele><time>2026-04-25T11:49:00.753Z</time></trkpt><trkpt lat="41.1804952" lon="-7.8740037"><ele>651.0</ele><time>2026-04-25T11:49:04.747Z</time></trkpt><trkpt lat="41.1804079" lon="-7.8740703"><ele>651.0</ele><time>2026-04-25T11:49:06.755Z</time></trkpt><trkpt lat="41.1803188" lon="-7.8741692"><ele>651.0</ele><time>2026-04-25T11:49:08.746Z</time></trkpt><trkpt lat="41.1802417" lon="-7.8742516"><ele>651.0</ele><time>2026-04-25T11:49:10.749Z</time></trkpt><trkpt lat="41.1801746" lon="-7.8743363"><ele>651.0</ele><time>2026-04-25T11:49:12.745Z</time></trkpt><trkpt lat="41.180091" lon="-7.8744317"><ele>651.5999999999999</ele><time>2026-04-25T11:49:14.748Z</time></trkpt><trkpt lat="41.1799951" lon="-7.8745209"><ele>652.2</ele><time>2026-04-25T11:49:16.748Z</time></trkpt><trkpt lat="41.179901" lon="-7.874623"><ele>652.8</ele><time>2026-04-25T11:49:18.745Z</time></trkpt><trkpt lat="41.1798269" lon="-7.8747148"><ele>653.4000000000001</ele><time>2026-04-25T11:49:20.746Z</time></trkpt><trkpt lat="41.1797533" lon="-7.8748212"><ele>654.0</ele><time>2026-04-25T11:49:22.746Z</time></trkpt><trkpt lat="41.1795771" lon="-7.8750468"><ele>658.8000000000001</ele><time>2026-04-25T11:49:26.751Z</time></trkpt><trkpt lat="41.1794771" lon="-7.8751405"><ele>663.6</ele><time>2026-04-25T11:49:28.749Z</time></trkpt><trkpt lat="41.1793878" lon="-7.8752403"><ele>668.4</ele><time>2026-04-25T11:49:30.744Z</time></trkpt><trkpt lat="41.1792889" lon="-7.875335"><ele>673.2</ele><time>2026-04-25T11:49:32.749Z</time></trkpt><trkpt lat="41.1792258" lon="-7.8753938"><ele>678.0</ele><time>2026-04-25T11:49:33.748Z</time></trkpt><trkpt lat="41.1791686" lon="-7.8754612"><ele>678.0</ele><time>2026-04-25T11:49:34.747Z</time></trkpt><trkpt lat="41.1791071" lon="-7.8755185"><ele>678.0</ele><time>2026-04-25T11:49:35.746Z</time></trkpt><trkpt lat="41.1790463" lon="-7.8755779"><ele>678.0</ele><time>2026-04-25T11:49:36.74Z</time></trkpt><trkpt lat="41.1789944" lon="-7.8756387"><ele>678.0</ele><time>2026-04-25T11:49:37.746Z</time></trkpt><trkpt lat="41.178943" lon="-7.8757069"><ele>678.0</ele><time>2026-04-25T11:49:38.743Z</time></trkpt><trkpt lat="41.1788923" lon="-7.8757789"><ele>678.0</ele><time>2026-04-25T11:49:39.744Z</time></trkpt><trkpt lat="41.178836" lon="-7.8758568"><ele>678.0</ele><time>2026-04-25T11:49:40.748Z</time></trkpt><trkpt lat="41.1787844" lon="-7.8759354"><ele>674.0</ele><time>2026-04-25T11:49:41.745Z</time></trkpt><trkpt lat="41.1787417" lon="-7.8760139"><ele>670.0</ele><time>2026-04-25T11:49:42.743Z</time></trkpt><trkpt lat="41.1787024" lon="-7.8760893"><ele>666.0</ele><time>2026-04-25T11:49:43.745Z</time></trkpt><trkpt lat="41.1785787" lon="-7.8763454"><ele>662.0</ele><time>2026-04-25T11:49:47.743Z</time></trkpt><trkpt lat="41.1785299" lon="-7.8764595"><ele>662.0</ele><time>2026-04-25T11:49:49.75Z</time></trkpt><trkpt lat="41.1784765" lon="-7.8766059"><ele>662.0</ele><time>2026-04-25T11:49:51.743Z</time></trkpt><trkpt lat="41.1784477" lon="-7.8766915"><ele>662.0</ele><time>2026-04-25T11:49:52.755Z</time></trkpt><trkpt lat="41.1784181" lon="-7.876771"><ele>662.0</ele><time>2026-04-25T11:49:53.763Z</time></trkpt><trkpt lat="41.1783776" lon="-7.8769317"><ele>662.0</ele><time>2026-04-25T11:49:55.743Z</time></trkpt><trkpt lat="41.1783719" lon="-7.87702"><ele>663.0</ele><time>2026-04-25T11:49:56.748Z</time></trkpt><trkpt lat="41.1783766" lon="-7.8771115"><ele>664.0</ele><time>2026-04-25T11:49:57.746Z</time></trkpt><trkpt lat="41.1783848" lon="-7.8771965"><ele>665.0</ele><time>2026-04-25T11:49:58.743Z</time></trkpt><trkpt lat="41.1783943" lon="-7.8772834"><ele>666.0</ele><time>2026-04-25T11:49:59.755Z</time></trkpt><trkpt lat="41.1784021" lon="-7.8774378"><ele>667.0</ele><time>2026-04-25T11:50:01.745Z</time></trkpt><trkpt lat="41.178414" lon="-7.877589"><ele>668.0</ele><time>2026-04-25T11:50:03.75Z</time></trkpt><trkpt lat="41.1784266" lon="-7.8777519"><ele>668.75</ele><time>2026-04-25T11:50:05.747Z</time></trkpt><trkpt lat="41.1784367" lon="-7.8780049"><ele>669.5</ele><time>2026-04-25T11:50:08.748Z</time></trkpt><trkpt lat="41.1784385" lon="-7.8781707"><ele>670.25</ele><time>2026-04-25T11:50:10.756Z</time></trkpt><trkpt lat="41.178443" lon="-7.8782601"><ele>671.0</ele><time>2026-04-25T11:50:11.746Z</time></trkpt><trkpt lat="41.1784475" lon="-7.8783522"><ele>672.1428571428571</ele><time>2026-04-25T11:50:12.745Z</time></trkpt><trkpt lat="41.1784511" lon="-7.8784434"><ele>673.2857142857143</ele><time>2026-04-25T11:50:13.756Z</time></trkpt><trkpt lat="41.1784558" lon="-7.8785423"><ele>674.4285714285714</ele><time>2026-04-25T11:50:14.75Z</time></trkpt><trkpt lat="41.1784507" lon="-7.8786366"><ele>675.5714285714286</ele><time>2026-04-25T11:50:15.748Z</time></trkpt><trkpt lat="41.1784418" lon="-7.878738"><ele>676.7142857142858</ele><time>2026-04-25T11:50:16.747Z</time></trkpt><trkpt lat="41.1784204" lon="-7.8788318"><ele>677.8571428571429</ele><time>2026-04-25T11:50:17.743Z</time></trkpt><trkpt lat="41.1783869" lon="-7.8789159"><ele>679.0</ele><time>2026-04-25T11:50:18.743Z</time></trkpt><trkpt lat="41.1783555" lon="-7.8789954"><ele>679.0</ele><time>2026-04-25T11:50:19.748Z</time></trkpt><trkpt lat="41.1783163" lon="-7.8790756"><ele>679.0</ele><time>2026-04-25T11:50:20.745Z</time></trkpt><trkpt lat="41.1782818" lon="-7.8791497"><ele>679.0</ele><time>2026-04-25T11:50:21.747Z</time></trkpt><trkpt lat="41.1782224" lon="-7.8792974"><ele>679.0</ele><time>2026-04-25T11:50:23.747Z</time></trkpt><trkpt lat="41.1781901" lon="-7.8793768"><ele>679.0</ele><time>2026-04-25T11:50:24.745Z</time></trkpt><trkpt lat="41.1781676" lon="-7.8794649"><ele>679.0</ele><time>2026-04-25T11:50:25.744Z</time></trkpt><trkpt lat="41.1781462" lon="-7.87956"><ele>677.8333333333334</ele><time>2026-04-25T11:50:26.743Z</time></trkpt><trkpt lat="41.1780855" lon="-7.8797284"><ele>676.6666666666667</ele><time>2026-04-25T11:50:28.74Z</time></trkpt><trkpt lat="41.1780501" lon="-7.8798025"><ele>675.5</ele><time>2026-04-25T11:50:29.742Z</time></trkpt><trkpt lat="41.1780096" lon="-7.879872"><ele>674.3333333333334</ele><time>2026-04-25T11:50:30.741Z</time></trkpt><trkpt lat="41.1779574" lon="-7.8799374"><ele>673.1666666666666</ele><time>2026-04-25T11:50:31.75Z</time></trkpt><trkpt lat="41.1778993" lon="-7.8800001"><ele>672.0</ele><time>2026-04-25T11:50:32.743Z</time></trkpt><trkpt lat="41.1778284" lon="-7.880036"><ele>672.0</ele><time>2026-04-25T11:50:33.745Z</time></trkpt><trkpt lat="41.1777506" lon="-7.8800627"><ele>672.0</ele><time>2026-04-25T11:50:34.741Z</time></trkpt><trkpt lat="41.1776768" lon="-7.8800805"><ele>672.0</ele><time>2026-04-25T11:50:35.744Z</time></trkpt><trkpt lat="41.1776092" lon="-7.8800979"><ele>672.0</ele><time>2026-04-25T11:50:36.743Z</time></trkpt><trkpt lat="41.1775438" lon="-7.8801211"><ele>672.0</ele><time>2026-04-25T11:50:37.756Z</time></trkpt><trkpt lat="41.1774378" lon="-7.8801868"><ele>672.0</ele><time>2026-04-25T11:50:39.743Z</time></trkpt><trkpt lat="41.1773543" lon="-7.8802948"><ele>672.4000000000001</ele><time>2026-04-25T11:50:41.745Z</time></trkpt><trkpt lat="41.177287" lon="-7.880425"><ele>672.8000000000001</ele><time>2026-04-25T11:50:43.743Z</time></trkpt><trkpt lat="41.1772249" lon="-7.8805743"><ele>673.2</ele><time>2026-04-25T11:50:45.746Z</time></trkpt><trkpt lat="41.1772018" lon="-7.8806621"><ele>673.6</ele><time>2026-04-25T11:50:46.753Z</time></trkpt><trkpt lat="41.1771853" lon="-7.8807521"><ele>674.0</ele><time>2026-04-25T11:50:47.752Z</time></trkpt><trkpt lat="41.1771637" lon="-7.8809357"><ele>674.0</ele><time>2026-04-25T11:50:49.743Z</time></trkpt><trkpt lat="41.1771588" lon="-7.8810295"><ele>674.0</ele><time>2026-04-25T11:50:50.749Z</time></trkpt><trkpt lat="41.1771545" lon="-7.8811196"><ele>674.0</ele><time>2026-04-25T11:50:51.746Z</time></trkpt><trkpt lat="41.1771441" lon="-7.8812697"><ele>674.0</ele><time>2026-04-25T11:50:53.752Z</time></trkpt><trkpt lat="41.1771432" lon="-7.8813568"><ele>674.0</ele><time>2026-04-25T11:50:54.749Z</time></trkpt><trkpt lat="41.1771363" lon="-7.8814451"><ele>674.0</ele><time>2026-04-25T11:50:55.751Z</time></trkpt><trkpt lat="41.1771322" lon="-7.8815376"><ele>674.0</ele><time>2026-04-25T11:50:56.744Z</time></trkpt><trkpt lat="41.1771293" lon="-7.8816288"><ele>674.0</ele><time>2026-04-25T11:50:57.751Z</time></trkpt><trkpt lat="41.1771175" lon="-7.8817887"><ele>674.0</ele><time>2026-04-25T11:50:59.744Z</time></trkpt><trkpt lat="41.1770749" lon="-7.8819075"><ele>674.0</ele><time>2026-04-25T11:51:01.745Z</time></trkpt><trkpt lat="41.1770293" lon="-7.8819736"><ele>674.0</ele><time>2026-04-25T11:51:02.744Z</time></trkpt><trkpt lat="41.1769823" lon="-7.8820441"><ele>674.0</ele><time>2026-04-25T11:51:03.752Z</time></trkpt><trkpt lat="41.1769285" lon="-7.8821119"><ele>676.4000000000001</ele><time>2026-04-25T11:51:04.75Z</time></trkpt><trkpt lat="41.1768747" lon="-7.8821744"><ele>678.8</ele><time>2026-04-25T11:51:05.746Z</time></trkpt><trkpt lat="41.1768185" lon="-7.8822423"><ele>681.2</ele><time>2026-04-25T11:51:06.746Z</time></trkpt><trkpt lat="41.1767716" lon="-7.882319"><ele>683.5999999999999</ele><time>2026-04-25T11:51:07.745Z</time></trkpt><trkpt lat="41.1767262" lon="-7.8823858"><ele>686.0</ele><time>2026-04-25T11:51:08.75Z</time></trkpt><trkpt lat="41.1766177" lon="-7.8825876"><ele>687.0</ele><time>2026-04-25T11:51:11.749Z</time></trkpt><trkpt lat="41.1765351" lon="-7.8827121"><ele>688.0</ele><time>2026-04-25T11:51:13.745Z</time></trkpt><trkpt lat="41.1764851" lon="-7.8827844"><ele>689.0</ele><time>2026-04-25T11:51:14.748Z</time></trkpt><trkpt lat="41.1764264" lon="-7.8828566"><ele>690.0</ele><time>2026-04-25T11:51:15.746Z</time></trkpt><trkpt lat="41.1763662" lon="-7.882913"><ele>691.0</ele><time>2026-04-25T11:51:16.743Z</time></trkpt><trkpt lat="41.176301" lon="-7.882966"><ele>692.0</ele><time>2026-04-25T11:51:17.743Z</time></trkpt><trkpt lat="41.1762459" lon="-7.8830199"><ele>688.8333333333333</ele><time>2026-04-25T11:51:18.749Z</time></trkpt><trkpt lat="41.1761896" lon="-7.8830761"><ele>685.6666666666666</ele><time>2026-04-25T11:51:19.75Z</time></trkpt><trkpt lat="41.1761307" lon="-7.8831248"><ele>682.5</ele><time>2026-04-25T11:51:20.746Z</time></trkpt><trkpt lat="41.1760774" lon="-7.8831756"><ele>679.3333333333334</ele><time>2026-04-25T11:51:21.747Z</time></trkpt><trkpt lat="41.1760242" lon="-7.8832272"><ele>676.1666666666667</ele><time>2026-04-25T11:51:22.741Z</time></trkpt><trkpt lat="41.1759385" lon="-7.8833233"><ele>673.0</ele><time>2026-04-25T11:51:24.749Z</time></trkpt><trkpt lat="41.1758596" lon="-7.8833496"><ele>673.0</ele><time>2026-04-25T11:51:26.744Z</time></trkpt><trkpt lat="41.1757723" lon="-7.8833153"><ele>673.0</ele><time>2026-04-25T11:51:28.745Z</time></trkpt><trkpt lat="41.1756818" lon="-7.8832798"><ele>673.0</ele><time>2026-04-25T11:51:30.75Z</time></trkpt><trkpt lat="41.175479" lon="-7.8832051"><ele>673.0</ele><time>2026-04-25T11:51:34.743Z</time></trkpt><trkpt lat="41.1753687" lon="-7.8831534"><ele>668.2</ele><time>2026-04-25T11:51:36.746Z</time></trkpt><trkpt lat="41.1752503" lon="-7.8831135"><ele>663.4</ele><time>2026-04-25T11:51:38.747Z</time></trkpt><trkpt lat="41.1751417" lon="-7.8830923"><ele>658.6</ele><time>2026-04-25T11:51:40.743Z</time></trkpt><trkpt lat="41.1750461" lon="-7.8830497"><ele>653.8000000000001</ele><time>2026-04-25T11:51:42.752Z</time></trkpt><trkpt lat="41.1749611" lon="-7.8829942"><ele>649.0</ele><time>2026-04-25T11:51:44.752Z</time></trkpt><trkpt lat="41.1748751" lon="-7.8829573"><ele>644.75</ele><time>2026-04-25T11:51:46.748Z</time></trkpt><trkpt lat="41.1747803" lon="-7.8829425"><ele>640.5</ele><time>2026-04-25T11:51:48.753Z</time></trkpt><trkpt lat="41.1746781" lon="-7.8829806"><ele>636.25</ele><time>2026-04-25T11:51:50.743Z</time></trkpt><trkpt lat="41.1745768" lon="-7.8830059"><ele>632.0</ele><time>2026-04-25T11:51:52.742Z</time></trkpt><trkpt lat="41.1743586" lon="-7.8830754"><ele>632.0</ele><time>2026-04-25T11:51:56.753Z</time></trkpt><trkpt lat="41.1742418" lon="-7.8831296"><ele>632.0</ele><time>2026-04-25T11:51:58.752Z</time></trkpt><trkpt lat="41.1741307" lon="-7.8831598"><ele>632.0</ele><time>2026-04-25T11:52:00.742Z</time></trkpt><trkpt lat="41.174036" lon="-7.8832027"><ele>632.0</ele><time>2026-04-25T11:52:02.749Z</time></trkpt><trkpt lat="41.1739492" lon="-7.88325"><ele>632.0</ele><time>2026-04-25T11:52:04.751Z</time></trkpt><trkpt lat="41.1738736" lon="-7.8832995"><ele>629.0</ele><time>2026-04-25T11:52:06.744Z</time></trkpt><trkpt lat="41.173829" lon="-7.8833707"><ele>626.0</ele><time>2026-04-25T11:52:08.749Z</time></trkpt><trkpt lat="41.1737928" lon="-7.8834441"><ele>623.0</ele><time>2026-04-25T11:52:10.741Z</time></trkpt><trkpt lat="41.1737128" lon="-7.8835003"><ele>620.0</ele><time>2026-04-25T11:52:12.742Z</time></trkpt><trkpt lat="41.1736267" lon="-7.8835512"><ele>617.0</ele><time>2026-04-25T11:52:14.74Z</time></trkpt><trkpt lat="41.1734775" lon="-7.8836396"><ele>616.2857142857143</ele><time>2026-04-25T11:52:18.749Z</time></trkpt><trkpt lat="41.173407" lon="-7.8836762"><ele>615.5714285714286</ele><time>2026-04-25T11:52:20.744Z</time></trkpt><trkpt lat="41.1733312" lon="-7.8837077"><ele>614.8571428571429</ele><time>2026-04-25T11:52:22.744Z</time></trkpt><trkpt lat="41.1732661" lon="-7.8837484"><ele>614.1428571428571</ele><time>2026-04-25T11:52:24.748Z</time></trkpt><trkpt lat="41.1731965" lon="-7.8837584"><ele>613.4285714285714</ele><time>2026-04-25T11:52:26.744Z</time></trkpt><trkpt lat="41.1731288" lon="-7.8837793"><ele>612.7142857142857</ele><time>2026-04-25T11:52:28.747Z</time></trkpt><trkpt lat="41.1730588" lon="-7.8838126"><ele>612.0</ele><time>2026-04-25T11:52:30.747Z</time></trkpt><trkpt lat="41.1729829" lon="-7.8838527"><ele>608.4</ele><time>2026-04-25T11:52:32.749Z</time></trkpt><trkpt lat="41.1729087" lon="-7.8838795"><ele>604.8000000000001</ele><time>2026-04-25T11:52:34.759Z</time></trkpt><trkpt lat="41.172844" lon="-7.8839177"><ele>601.2</ele><time>2026-04-25T11:52:36.75Z</time></trkpt><trkpt lat="41.1726978" lon="-7.8840253"><ele>597.6</ele><time>2026-04-25T11:52:40.753Z</time></trkpt><trkpt lat="41.1726267" lon="-7.8840769"><ele>594.0</ele><time>2026-04-25T11:52:42.749Z</time></trkpt><trkpt lat="41.1725558" lon="-7.8841322"><ele>594.0</ele><time>2026-04-25T11:52:44.747Z</time></trkpt><trkpt lat="41.1724798" lon="-7.8841868"><ele>594.0</ele><time>2026-04-25T11:52:46.744Z</time></trkpt><trkpt lat="41.1724042" lon="-7.8842417"><ele>594.0</ele><time>2026-04-25T11:52:48.743Z</time></trkpt><trkpt lat="41.1723317" lon="-7.8843011"><ele>594.0</ele><time>2026-04-25T11:52:50.746Z</time></trkpt><trkpt lat="41.172266" lon="-7.8843431"><ele>594.0</ele><time>2026-04-25T11:52:52.75Z</time></trkpt><trkpt lat="41.172209" lon="-7.8843905"><ele>594.0</ele><time>2026-04-25T11:52:54.743Z</time></trkpt><trkpt lat="41.1721348" lon="-7.8844635"><ele>589.2</ele><time>2026-04-25T11:52:56.744Z</time></trkpt><trkpt lat="41.1720492" lon="-7.8845458"><ele>584.4</ele><time>2026-04-25T11:52:58.742Z</time></trkpt><trkpt lat="41.1719098" lon="-7.8846729"><ele>579.6</ele><time>2026-04-25T11:53:02.743Z</time></trkpt><trkpt lat="41.171852" lon="-7.8847383"><ele>574.8</ele><time>2026-04-25T11:53:04.742Z</time></trkpt><trkpt lat="41.1717871" lon="-7.8848366"><ele>570.0</ele><time>2026-04-25T11:53:06.737Z</time></trkpt><trkpt lat="41.1717293" lon="-7.8849036"><ele>570.0</ele><time>2026-04-25T11:53:08.742Z</time></trkpt><trkpt lat="41.1716698" lon="-7.8849591"><ele>570.0</ele><time>2026-04-25T11:53:10.744Z</time></trkpt><trkpt lat="41.1716033" lon="-7.8850137"><ele>570.0</ele><time>2026-04-25T11:53:12.746Z</time></trkpt><trkpt lat="41.1715334" lon="-7.8850714"><ele>570.0</ele><time>2026-04-25T11:53:14.746Z</time></trkpt><trkpt lat="41.1714548" lon="-7.8850807"><ele>570.0</ele><time>2026-04-25T11:53:16.743Z</time></trkpt><trkpt lat="41.1713702" lon="-7.885053"><ele>570.0</ele><time>2026-04-25T11:53:18.743Z</time></trkpt><trkpt lat="41.1712847" lon="-7.8850159"><ele>565.4</ele><time>2026-04-25T11:53:20.744Z</time></trkpt><trkpt lat="41.1711469" lon="-7.8849604"><ele>560.8</ele><time>2026-04-25T11:53:24.743Z</time></trkpt><trkpt lat="41.1710813" lon="-7.8848901"><ele>556.2</ele><time>2026-04-25T11:53:26.743Z</time></trkpt><trkpt lat="41.1709884" lon="-7.8848375"><ele>551.6</ele><time>2026-04-25T11:53:28.742Z</time></trkpt><trkpt lat="41.1708925" lon="-7.8848085"><ele>547.0</ele><time>2026-04-25T11:53:30.748Z</time></trkpt><trkpt lat="41.1707791" lon="-7.8848084"><ele>547.0</ele><time>2026-04-25T11:53:32.743Z</time></trkpt><trkpt lat="41.1707103" lon="-7.8848115"><ele>547.0</ele><time>2026-04-25T11:53:33.748Z</time></trkpt><trkpt lat="41.1706375" lon="-7.8848179"><ele>547.0</ele><time>2026-04-25T11:53:34.747Z</time></trkpt><trkpt lat="41.1705539" lon="-7.8848285"><ele>547.0</ele><time>2026-04-25T11:53:35.743Z</time></trkpt><trkpt lat="41.1704678" lon="-7.8848401"><ele>547.0</ele><time>2026-04-25T11:53:36.748Z</time></trkpt><trkpt lat="41.1703804" lon="-7.8848484"><ele>547.0</ele><time>2026-04-25T11:53:37.744Z</time></trkpt><trkpt lat="41.1702853" lon="-7.8848594"><ele>540.25</ele><time>2026-04-25T11:53:38.744Z</time></trkpt><trkpt lat="41.1701859" lon="-7.8848789"><ele>533.5</ele><time>2026-04-25T11:53:39.75Z</time></trkpt><trkpt lat="41.1700744" lon="-7.8848877"><ele>526.75</ele><time>2026-04-25T11:53:40.744Z</time></trkpt><trkpt lat="41.1699616" lon="-7.8848935"><ele>520.0</ele><time>2026-04-25T11:53:41.747Z</time></trkpt><trkpt lat="41.1697566" lon="-7.8849006"><ele>516.5</ele><time>2026-04-25T11:53:43.747Z</time></trkpt><trkpt lat="41.1696681" lon="-7.8849073"><ele>513.0</ele><time>2026-04-25T11:53:44.747Z</time></trkpt><trkpt lat="41.1695833" lon="-7.8849177"><ele>509.5</ele><time>2026-04-25T11:53:45.743Z</time></trkpt><trkpt lat="41.1695038" lon="-7.8849318"><ele>506.0</ele><time>2026-04-25T11:53:46.745Z</time></trkpt><trkpt lat="41.1694277" lon="-7.8849447"><ele>502.50000000000006</ele><time>2026-04-25T11:53:47.743Z</time></trkpt><trkpt lat="41.1693615" lon="-7.8849523"><ele>499.0</ele><time>2026-04-25T11:53:48.742Z</time></trkpt><trkpt lat="41.1692455" lon="-7.8849592"><ele>499.00000000000006</ele><time>2026-04-25T11:53:50.745Z</time></trkpt><trkpt lat="41.169166" lon="-7.8849901"><ele>499.0</ele><time>2026-04-25T11:53:52.744Z</time></trkpt><trkpt lat="41.1690871" lon="-7.8850544"><ele>499.0</ele><time>2026-04-25T11:53:55.748Z</time></trkpt><trkpt lat="41.1690095" lon="-7.8850757"><ele>499.0</ele><time>2026-04-25T11:53:57.741Z</time></trkpt><trkpt lat="41.1689133" lon="-7.8850809"><ele>499.00000000000006</ele><time>2026-04-25T11:53:59.742Z</time></trkpt><trkpt lat="41.1688265" lon="-7.885069"><ele>499.0</ele><time>2026-04-25T11:54:01.744Z</time></trkpt><trkpt lat="41.1687364" lon="-7.8850642"><ele>493.25</ele><time>2026-04-25T11:54:03.748Z</time></trkpt><trkpt lat="41.1685376" lon="-7.8850594"><ele>487.5</ele><time>2026-04-25T11:54:07.741Z</time></trkpt><trkpt lat="41.1684185" lon="-7.8850411"><ele>481.75</ele><time>2026-04-25T11:54:09.741Z</time></trkpt><trkpt lat="41.1683499" lon="-7.8850359"><ele>476.0</ele><time>2026-04-25T11:54:10.742Z</time></trkpt><trkpt lat="41.1682753" lon="-7.8850265"><ele>475.99999999999994</ele><time>2026-04-25T11:54:11.745Z</time></trkpt><trkpt lat="41.1681994" lon="-7.8850213"><ele>476.0</ele><time>2026-04-25T11:54:12.748Z</time></trkpt><trkpt lat="41.1681303" lon="-7.8850212"><ele>476.0</ele><time>2026-04-25T11:54:13.744Z</time></trkpt><trkpt lat="41.1680615" lon="-7.8850184"><ele>476.0</ele><time>2026-04-25T11:54:14.762Z</time></trkpt><trkpt lat="41.1679879" lon="-7.8850139"><ele>475.99999999999994</ele><time>2026-04-25T11:54:15.745Z</time></trkpt><trkpt lat="41.1679175" lon="-7.8850089"><ele>476.0</ele><time>2026-04-25T11:54:16.742Z</time></trkpt><trkpt lat="41.1677959" lon="-7.8850068"><ele>470.75</ele><time>2026-04-25T11:54:18.746Z</time></trkpt><trkpt lat="41.1676757" lon="-7.8850092"><ele>465.5</ele><time>2026-04-25T11:54:20.755Z</time></trkpt><trkpt lat="41.1675715" lon="-7.8850127"><ele>460.25</ele><time>2026-04-25T11:54:22.741Z</time></trkpt><trkpt lat="41.1674731" lon="-7.8850028"><ele>455.0</ele><time>2026-04-25T11:54:24.743Z</time></trkpt><trkpt lat="41.1673293" lon="-7.8849878"><ele>452.3333333333333</ele><time>2026-04-25T11:54:28.744Z</time></trkpt><trkpt lat="41.1672633" lon="-7.8850033"><ele>449.66666666666663</ele><time>2026-04-25T11:54:30.742Z</time></trkpt><trkpt lat="41.1671889" lon="-7.8850136"><ele>447.0</ele><time>2026-04-25T11:54:32.741Z</time></trkpt><trkpt lat="41.1670975" lon="-7.8850011"><ele>444.33333333333337</ele><time>2026-04-25T11:54:35.745Z</time></trkpt><trkpt lat="41.1670073" lon="-7.8849895"><ele>441.6666666666667</ele><time>2026-04-25T11:54:38.748Z</time></trkpt><trkpt lat="41.1669082" lon="-7.8849812"><ele>439.0</ele><time>2026-04-25T11:54:41.74Z</time></trkpt><trkpt lat="41.1668322" lon="-7.8849726"><ele>439.00000000000006</ele><time>2026-04-25T11:54:43.748Z</time></trkpt><trkpt lat="41.1667564" lon="-7.8849646"><ele>439.0</ele><time>2026-04-25T11:54:45.747Z</time></trkpt><trkpt lat="41.1666014" lon="-7.8849565"><ele>439.0</ele><time>2026-04-25T11:54:49.747Z</time></trkpt><trkpt lat="41.1665402" lon="-7.8849328"><ele>439.0</ele><time>2026-04-25T11:54:51.743Z</time></trkpt><trkpt lat="41.1664758" lon="-7.8849"><ele>439.00000000000006</ele><time>2026-04-25T11:54:53.743Z</time></trkpt><trkpt lat="41.1664099" lon="-7.8848827"><ele>439.0</ele><time>2026-04-25T11:54:55.738Z</time></trkpt><trkpt lat="41.1663168" lon="-7.8848521"><ele>437.0</ele><time>2026-04-25T11:54:58.743Z</time></trkpt><trkpt lat="41.1662316" lon="-7.8848194"><ele>435.0</ele><time>2026-04-25T11:55:01.748Z</time></trkpt><trkpt lat="41.1661458" lon="-7.8848702"><ele>433.0</ele><time>2026-04-25T11:55:04.741Z</time></trkpt><trkpt lat="41.1660747" lon="-7.884898"><ele>431.0</ele><time>2026-04-25T11:55:07.745Z</time></trkpt><trkpt lat="41.1659251" lon="-7.8849048"><ele>429.0</ele><time>2026-04-25T11:55:12.743Z</time></trkpt><trkpt lat="41.1658426" lon="-7.8849139"><ele>429.0</ele><time>2026-04-25T11:55:15.748Z</time></trkpt><trkpt lat="41.1657499" lon="-7.884889"><ele>429.0</ele><time>2026-04-25T11:55:18.74Z</time></trkpt><trkpt lat="41.1656586" lon="-7.8848714"><ele>429.0</ele><time>2026-04-25T11:55:21.742Z</time></trkpt><trkpt lat="41.16559" lon="-7.8848508"><ele>429.0</ele><time>2026-04-25T11:55:23.752Z</time></trkpt><trkpt lat="41.1655044" lon="-7.8848105"><ele>429.0</ele><time>2026-04-25T11:55:26.746Z</time></trkpt><trkpt lat="41.1654447" lon="-7.8847829"><ele>429.0</ele><time>2026-04-25T11:55:28.747Z</time></trkpt><trkpt lat="41.1653089" lon="-7.8847834"><ele>425.0</ele><time>2026-04-25T11:55:33.743Z</time></trkpt><trkpt lat="41.1652301" lon="-7.8848017"><ele>421.0</ele><time>2026-04-25T11:55:36.739Z</time></trkpt><trkpt lat="41.165158" lon="-7.8848652"><ele>417.0</ele><time>2026-04-25T11:55:39.74Z</time></trkpt><trkpt lat="41.1650846" lon="-7.8848942"><ele>413.0</ele><time>2026-04-25T11:55:43.745Z</time></trkpt><trkpt lat="41.1649988" lon="-7.8848978"><ele>409.0</ele><time>2026-04-25T11:55:46.741Z</time></trkpt><trkpt lat="41.1649149" lon="-7.8849134"><ele>405.0</ele><time>2026-04-25T11:55:48.744Z</time></trkpt><trkpt lat="41.164826" lon="-7.8849192"><ele>400.0</ele><time>2026-04-25T11:55:50.746Z</time></trkpt><trkpt lat="41.1646337" lon="-7.884928"><ele>395.0</ele><time>2026-04-25T11:55:54.74Z</time></trkpt><trkpt lat="41.1645299" lon="-7.8849418"><ele>390.0</ele><time>2026-04-25T11:55:56.745Z</time></trkpt><trkpt lat="41.1644441" lon="-7.8849474"><ele>385.0</ele><time>2026-04-25T11:55:58.74Z</time></trkpt><trkpt lat="41.1643471" lon="-7.8849849"><ele>385.0</ele><time>2026-04-25T11:56:00.743Z</time></trkpt><trkpt lat="41.1642617" lon="-7.8850351"><ele>385.0</ele><time>2026-04-25T11:56:02.739Z</time></trkpt><trkpt lat="41.1641783" lon="-7.8850875"><ele>385.0</ele><time>2026-04-25T11:56:04.742Z</time></trkpt><trkpt lat="41.1640873" lon="-7.8851093"><ele>385.0</ele><time>2026-04-25T11:56:06.739Z</time></trkpt><trkpt lat="41.1640036" lon="-7.8851445"><ele>385.0</ele><time>2026-04-25T11:56:08.743Z</time></trkpt><trkpt lat="41.1639196" lon="-7.8852053"><ele>381.0</ele><time>2026-04-25T11:56:10.742Z</time></trkpt><trkpt lat="41.1638273" lon="-7.8852921"><ele>377.0</ele><time>2026-04-25T11:56:12.745Z</time></trkpt><trkpt lat="41.163688" lon="-7.8854056"><ele>373.0</ele><time>2026-04-25T11:56:16.74Z</time></trkpt><trkpt lat="41.1636341" lon="-7.8854709"><ele>369.0</ele><time>2026-04-25T11:56:18.736Z</time></trkpt><trkpt lat="41.1635716" lon="-7.8855504"><ele>365.0</ele><time>2026-04-25T11:56:20.749Z</time></trkpt><trkpt lat="41.1635159" lon="-7.8856252"><ele>365.0</ele><time>2026-04-25T11:56:22.741Z</time></trkpt><trkpt lat="41.1634586" lon="-7.8857075"><ele>365.0</ele><time>2026-04-25T11:56:25.74Z</time></trkpt><trkpt lat="41.1634233" lon="-7.885791"><ele>365.0</ele><time>2026-04-25T11:56:28.742Z</time></trkpt><trkpt lat="41.16338" lon="-7.8858875"><ele>365.0</ele><time>2026-04-25T11:56:31.742Z</time></trkpt><trkpt lat="41.1633143" lon="-7.8859668"><ele>365.0</ele><time>2026-04-25T11:56:34.742Z</time></trkpt><trkpt lat="41.163213" lon="-7.8861151"><ele>360.6666666666667</ele><time>2026-04-25T11:56:39.741Z</time></trkpt><trkpt lat="41.1631726" lon="-7.8861876"><ele>356.33333333333337</ele><time>2026-04-25T11:56:42.747Z</time></trkpt><trkpt lat="41.1631184" lon="-7.8862647"><ele>352.0</ele><time>2026-04-25T11:56:45.742Z</time></trkpt><trkpt lat="41.1630485" lon="-7.8863154"><ele>347.6666666666667</ele><time>2026-04-25T11:56:48.74Z</time></trkpt><trkpt lat="41.162993" lon="-7.8863674"><ele>343.3333333333333</ele><time>2026-04-25T11:56:51.743Z</time></trkpt><trkpt lat="41.1629321" lon="-7.886412"><ele>339.0</ele><time>2026-04-25T11:56:53.743Z</time></trkpt><trkpt lat="41.1628567" lon="-7.8864734"><ele>339.0</ele><time>2026-04-25T11:56:56.744Z</time></trkpt><trkpt lat="41.1627083" lon="-7.8866045"><ele>339.0</ele><time>2026-04-25T11:57:02.746Z</time></trkpt><trkpt lat="41.1626634" lon="-7.8866782"><ele>339.0</ele><time>2026-04-25T11:57:04.746Z</time></trkpt><trkpt lat="41.1626132" lon="-7.8867347"><ele>339.0</ele><time>2026-04-25T11:57:06.741Z</time></trkpt><trkpt lat="41.1625538" lon="-7.886794"><ele>339.0</ele><time>2026-04-25T11:57:08.741Z</time></trkpt><trkpt lat="41.1624859" lon="-7.8868693"><ele>337.4</ele><time>2026-04-25T11:57:10.749Z</time></trkpt><trkpt lat="41.1624039" lon="-7.8869134"><ele>335.79999999999995</ele><time>2026-04-25T11:57:13.742Z</time></trkpt><trkpt lat="41.1623241" lon="-7.8869115"><ele>334.20000000000005</ele><time>2026-04-25T11:57:17.741Z</time></trkpt><trkpt lat="41.1621608" lon="-7.8868713"><ele>332.6</ele><time>2026-04-25T11:57:22.739Z</time></trkpt><trkpt lat="41.1620973" lon="-7.8868334"><ele>331.0</ele><time>2026-04-25T11:57:24.74Z</time></trkpt><trkpt lat="41.1620189" lon="-7.8867785"><ele>329.16666666666663</ele><time>2026-04-25T11:57:27.74Z</time></trkpt><trkpt lat="41.1619595" lon="-7.8867397"><ele>327.3333333333333</ele><time>2026-04-25T11:57:30.747Z</time></trkpt><trkpt lat="41.1618929" lon="-7.8866807"><ele>325.5</ele><time>2026-04-25T11:57:34.742Z</time></trkpt><trkpt lat="41.1618294" lon="-7.8866613"><ele>323.6666666666667</ele><time>2026-04-25T11:57:38.746Z</time></trkpt><trkpt lat="41.1617831" lon="-7.8868743"><ele>321.83333333333337</ele><time>2026-04-25T11:57:42.736Z</time></trkpt><trkpt lat="41.1617617" lon="-7.8869591"><ele>320.0</ele><time>2026-04-25T11:57:44.751Z</time></trkpt><trkpt lat="41.1617424" lon="-7.8870566"><ele>320.0</ele><time>2026-04-25T11:57:46.741Z</time></trkpt><trkpt lat="41.1616985" lon="-7.8871632"><ele>320.0</ele><time>2026-04-25T11:57:48.743Z</time></trkpt><trkpt lat="41.1616744" lon="-7.887253"><ele>320.0</ele><time>2026-04-25T11:57:50.748Z</time></trkpt><trkpt lat="41.1616802" lon="-7.8873702"><ele>320.0</ele><time>2026-04-25T11:57:52.746Z</time></trkpt><trkpt lat="41.1616445" lon="-7.8874952"><ele>320.0</ele><time>2026-04-25T11:57:54.74Z</time></trkpt><trkpt lat="41.1615886" lon="-7.8876064"><ele>317.5</ele><time>2026-04-25T11:57:56.74Z</time></trkpt><trkpt lat="41.1615322" lon="-7.8877012"><ele>315.0</ele><time>2026-04-25T11:57:58.751Z</time></trkpt><trkpt lat="41.1614511" lon="-7.8877659"><ele>312.5</ele><time>2026-04-25T11:58:00.744Z</time></trkpt><trkpt lat="41.1612416" lon="-7.8878046"><ele>310.0</ele><time>2026-04-25T11:58:04.736Z</time></trkpt><trkpt lat="41.1611513" lon="-7.8877536"><ele>310.0</ele><time>2026-04-25T11:58:06.744Z</time></trkpt><trkpt lat="41.161062" lon="-7.8876577"><ele>310.0</ele><time>2026-04-25T11:58:08.741Z</time></trkpt><trkpt lat="41.1609669" lon="-7.8876051"><ele>310.0</ele><time>2026-04-25T11:58:10.742Z</time></trkpt><trkpt lat="41.1608608" lon="-7.8875891"><ele>310.0</ele><time>2026-04-25T11:58:12.744Z</time></trkpt><trkpt lat="41.1607433" lon="-7.8876028"><ele>310.0</ele><time>2026-04-25T11:58:14.74Z</time></trkpt><trkpt lat="41.160649" lon="-7.8876668"><ele>310.0</ele><time>2026-04-25T11:58:16.74Z</time></trkpt><trkpt lat="41.1605524" lon="-7.8877463"><ele>310.0</ele><time>2026-04-25T11:58:18.752Z</time></trkpt><trkpt lat="41.1604723" lon="-7.8878631"><ele>310.0</ele><time>2026-04-25T11:58:20.742Z</time></trkpt><trkpt lat="41.1604029" lon="-7.887995"><ele>310.0</ele><time>2026-04-25T11:58:22.739Z</time></trkpt><trkpt lat="41.1603155" lon="-7.8881217"><ele>310.0</ele><time>2026-04-25T11:58:24.741Z</time></trkpt><trkpt lat="41.1602536" lon="-7.8882666"><ele>310.0</ele><time>2026-04-25T11:58:26.738Z</time></trkpt><trkpt lat="41.1602319" lon="-7.888356"><ele>310.0</ele><time>2026-04-25T11:58:27.743Z</time></trkpt><trkpt lat="41.1602097" lon="-7.8884529"><ele>310.0</ele><time>2026-04-25T11:58:28.741Z</time></trkpt><trkpt lat="41.1601844" lon="-7.8885449"><ele>310.0</ele><time>2026-04-25T11:58:29.74Z</time></trkpt><trkpt lat="41.1601635" lon="-7.8886382"><ele>310.0</ele><time>2026-04-25T11:58:30.735Z</time></trkpt><trkpt lat="41.1601323" lon="-7.8887931"><ele>310.0</ele><time>2026-04-25T11:58:32.737Z</time></trkpt><trkpt lat="41.1600953" lon="-7.88895"><ele>310.0</ele><time>2026-04-25T11:58:34.746Z</time></trkpt><trkpt lat="41.160077" lon="-7.8890377"><ele>310.0</ele><time>2026-04-25T11:58:35.744Z</time></trkpt><trkpt lat="41.1600523" lon="-7.8891186"><ele>310.0</ele><time>2026-04-25T11:58:36.74Z</time></trkpt><trkpt lat="41.1600028" lon="-7.8892764"><ele>310.0</ele><time>2026-04-25T11:58:38.741Z</time></trkpt><trkpt lat="41.1599802" lon="-7.8893613"><ele>309.8</ele><time>2026-04-25T11:58:39.741Z</time></trkpt><trkpt lat="41.1599385" lon="-7.8895161"><ele>309.6</ele><time>2026-04-25T11:58:41.747Z</time></trkpt><trkpt lat="41.1599022" lon="-7.889666"><ele>309.4</ele><time>2026-04-25T11:58:43.74Z</time></trkpt><trkpt lat="41.1598729" lon="-7.889843"><ele>309.2</ele><time>2026-04-25T11:58:45.741Z</time></trkpt><trkpt lat="41.1598478" lon="-7.889927"><ele>309.0</ele><time>2026-04-25T11:58:46.737Z</time></trkpt><trkpt lat="41.1598261" lon="-7.8900074"><ele>308.59999999999997</ele><time>2026-04-25T11:58:47.749Z</time></trkpt><trkpt lat="41.1598087" lon="-7.8901634"><ele>308.2</ele><time>2026-04-25T11:58:49.744Z</time></trkpt><trkpt lat="41.1597898" lon="-7.8903124"><ele>307.79999999999995</ele><time>2026-04-25T11:58:51.74Z</time></trkpt><trkpt lat="41.1597759" lon="-7.8904126"><ele>307.4</ele><time>2026-04-25T11:58:53.744Z</time></trkpt><trkpt lat="41.1596855" lon="-7.8903846"><ele>307.0</ele><time>2026-04-25T11:58:59.749Z</time></trkpt><trkpt lat="41.1595949" lon="-7.890331"><ele>307.0</ele><time>2026-04-25T11:59:01.744Z</time></trkpt><trkpt lat="41.1595215" lon="-7.890287"><ele>307.0</ele><time>2026-04-25T11:59:02.739Z</time></trkpt><trkpt lat="41.1594493" lon="-7.8902398"><ele>307.0</ele><time>2026-04-25T11:59:03.743Z</time></trkpt><trkpt lat="41.1593761" lon="-7.8901945"><ele>307.0</ele><time>2026-04-25T11:59:04.751Z</time></trkpt><trkpt lat="41.1591741" lon="-7.8900915"><ele>307.0</ele><time>2026-04-25T11:59:08.748Z</time></trkpt><trkpt lat="41.1591042" lon="-7.8901036"><ele>307.0</ele><time>2026-04-25T11:59:10.738Z</time></trkpt><trkpt lat="41.1590913" lon="-7.8901923"><ele>307.0</ele><time>2026-04-25T11:59:13.746Z</time></trkpt><trkpt lat="41.1590664" lon="-7.8903257"><ele>307.0</ele><time>2026-04-25T12:03:43.742Z</time></trkpt><trkpt lat="41.1590289" lon="-7.8904693"><ele>307.0</ele><time>2026-04-25T12:05:11.737Z</time></trkpt><trkpt lat="41.158888" lon="-7.8904404"><ele>305.6</ele><time>2026-04-25T12:05:16.736Z</time></trkpt><trkpt lat="41.1588532" lon="-7.890363"><ele>304.2</ele><time>2026-04-25T12:05:18.732Z</time></trkpt><trkpt lat="41.1588418" lon="-7.8902466"><ele>302.8</ele><time>2026-04-25T12:05:21.733Z</time></trkpt><trkpt lat="41.1588868" lon="-7.8901654"><ele>301.4</ele><time>2026-04-25T12:05:23.74Z</time></trkpt><trkpt lat="41.1589686" lon="-7.8900502"><ele>300.0</ele><time>2026-04-25T12:05:25.734Z</time></trkpt><trkpt lat="41.1590561" lon="-7.8899438"><ele>300.0</ele><time>2026-04-25T12:05:27.738Z</time></trkpt><trkpt lat="41.1591534" lon="-7.8899352"><ele>300.0</ele><time>2026-04-25T12:05:29.743Z</time></trkpt><trkpt lat="41.1592319" lon="-7.8900236"><ele>300.0</ele><time>2026-04-25T12:05:31.738Z</time></trkpt><trkpt lat="41.1592873" lon="-7.8900745"><ele>300.0</ele><time>2026-04-25T12:05:32.739Z</time></trkpt><trkpt lat="41.1595098" lon="-7.8901962"><ele>301.4</ele><time>2026-04-25T12:05:36.739Z</time></trkpt><trkpt lat="41.1596073" lon="-7.8902615"><ele>302.8</ele><time>2026-04-25T12:05:38.74Z</time></trkpt><trkpt lat="41.1596915" lon="-7.890338"><ele>304.2</ele><time>2026-04-25T12:05:40.742Z</time></trkpt><trkpt lat="41.1597611" lon="-7.8904192"><ele>305.6</ele><time>2026-04-25T12:05:43.736Z</time></trkpt><trkpt lat="41.1597514" lon="-7.8905374"><ele>307.0</ele><time>2026-04-25T12:05:46.737Z</time></trkpt><trkpt lat="41.159678" lon="-7.8906387"><ele>307.0</ele><time>2026-04-25T12:05:48.746Z</time></trkpt><trkpt lat="41.1595959" lon="-7.8907214"><ele>307.0</ele><time>2026-04-25T12:05:50.745Z</time></trkpt><trkpt lat="41.1595937" lon="-7.8908194"><ele>307.0</ele><time>2026-04-25T12:05:52.736Z</time></trkpt><trkpt lat="41.1596893" lon="-7.8908766"><ele>307.0</ele><time>2026-04-25T12:05:54.735Z</time></trkpt><trkpt lat="41.1598771" lon="-7.8909153"><ele>307.0</ele><time>2026-04-25T12:05:58.734Z</time></trkpt><trkpt lat="41.1599502" lon="-7.8908995"><ele>307.0</ele><time>2026-04-25T12:06:00.737Z</time></trkpt><trkpt lat="41.1600292" lon="-7.8908844"><ele>307.0</ele><time>2026-04-25T12:06:08.736Z</time></trkpt><trkpt lat="41.160093" lon="-7.8908698"><ele>307.0</ele><time>2026-04-25T12:06:10.74Z</time></trkpt><trkpt lat="41.1601562" lon="-7.8907876"><ele>307.0</ele><time>2026-04-25T12:06:12.736Z</time></trkpt><trkpt lat="41.1601532" lon="-7.8906457"><ele>307.0</ele><time>2026-04-25T12:06:14.735Z</time></trkpt><trkpt lat="41.1601622" lon="-7.8905211"><ele>307.0</ele><time>2026-04-25T12:06:16.744Z</time></trkpt><trkpt lat="41.160258" lon="-7.8906211"><ele>307.0</ele><time>2026-04-25T12:06:51.734Z</time></trkpt><trkpt lat="41.1602961" lon="-7.8908629"><ele>307.0</ele><time>2026-04-25T12:06:55.742Z</time></trkpt><trkpt lat="41.1603237" lon="-7.890999"><ele>307.0</ele><time>2026-04-25T12:06:57.736Z</time></trkpt><trkpt lat="41.1603315" lon="-7.8911256"><ele>307.0</ele><time>2026-04-25T12:06:59.737Z</time></trkpt><trkpt lat="41.1603503" lon="-7.8912353"><ele>307.0</ele><time>2026-04-25T12:07:01.752Z</time></trkpt><trkpt lat="41.1604286" lon="-7.891253"><ele>307.0</ele><time>2026-04-25T12:07:04.749Z</time></trkpt><trkpt lat="41.1604673" lon="-7.8911392"><ele>307.0</ele><time>2026-04-25T12:07:06.734Z</time></trkpt><trkpt lat="41.1604658" lon="-7.890967"><ele>307.0</ele><time>2026-04-25T12:07:08.732Z</time></trkpt><trkpt lat="41.1604598" lon="-7.8908671"><ele>307.0</ele><time>2026-04-25T12:07:09.734Z</time></trkpt><trkpt lat="41.1604507" lon="-7.8907626"><ele>307.0</ele><time>2026-04-25T12:07:10.744Z</time></trkpt><trkpt lat="41.1604429" lon="-7.8906575"><ele>307.0</ele><time>2026-04-25T12:07:11.735Z</time></trkpt><trkpt lat="41.1604354" lon="-7.8905609"><ele>307.0</ele><time>2026-04-25T12:07:12.735Z</time></trkpt><trkpt lat="41.1604604" lon="-7.8903874"><ele>307.0</ele><time>2026-04-25T12:07:14.734Z</time></trkpt><trkpt lat="41.1605224" lon="-7.8902691"><ele>307.0</ele><time>2026-04-25T12:07:16.733Z</time></trkpt><trkpt lat="41.1605871" lon="-7.890361"><ele>307.0</ele><time>2026-04-25T12:07:21.738Z</time></trkpt><trkpt lat="41.160616" lon="-7.8905112"><ele>307.0</ele><time>2026-04-25T12:07:23.734Z</time></trkpt><trkpt lat="41.1606303" lon="-7.8906178"><ele>307.0</ele><time>2026-04-25T12:07:25.749Z</time></trkpt><trkpt lat="41.1606365" lon="-7.8907471"><ele>307.0</ele><time>2026-04-25T12:07:29.75Z</time></trkpt><trkpt lat="41.1606331" lon="-7.8908355"><ele>303.5</ele><time>2026-04-25T12:07:31.735Z</time></trkpt><trkpt lat="41.1606318" lon="-7.8909406"><ele>300.0</ele><time>2026-04-25T12:07:33.734Z</time></trkpt><trkpt lat="41.160616" lon="-7.8911884"><ele>296.5</ele><time>2026-04-25T12:07:37.734Z</time></trkpt><trkpt lat="41.1606218" lon="-7.8913281"><ele>293.0</ele><time>2026-04-25T12:07:39.742Z</time></trkpt><trkpt lat="41.1606316" lon="-7.8914628"><ele>293.0</ele><time>2026-04-25T12:07:41.735Z</time></trkpt><trkpt lat="41.1606065" lon="-7.891589"><ele>293.0</ele><time>2026-04-25T12:07:43.742Z</time></trkpt><trkpt lat="41.1605298" lon="-7.8916736"><ele>293.0</ele><time>2026-04-25T12:07:45.737Z</time></trkpt><trkpt lat="41.160444" lon="-7.8917715"><ele>293.0</ele><time>2026-04-25T12:07:47.743Z</time></trkpt><trkpt lat="41.1604554" lon="-7.8918755"><ele>293.0</ele><time>2026-04-25T12:07:49.736Z</time></trkpt><trkpt lat="41.1605752" lon="-7.8918416"><ele>290.2</ele><time>2026-04-25T12:07:51.734Z</time></trkpt><trkpt lat="41.1606433" lon="-7.8917801"><ele>287.4</ele><time>2026-04-25T12:07:52.744Z</time></trkpt><trkpt lat="41.1607121" lon="-7.8917058"><ele>284.59999999999997</ele><time>2026-04-25T12:07:53.729Z</time></trkpt><trkpt lat="41.1607559" lon="-7.8916268"><ele>281.8</ele><time>2026-04-25T12:07:54.735Z</time></trkpt><trkpt lat="41.1608124" lon="-7.8914385"><ele>279.0</ele><time>2026-04-25T12:07:56.734Z</time></trkpt><trkpt lat="41.1608462" lon="-7.8913423"><ele>279.0</ele><time>2026-04-25T12:07:57.749Z</time></trkpt><trkpt lat="41.1608865" lon="-7.8912433"><ele>279.0</ele><time>2026-04-25T12:07:58.732Z</time></trkpt><trkpt lat="41.1609293" lon="-7.8911407"><ele>279.0</ele><time>2026-04-25T12:07:59.741Z</time></trkpt><trkpt lat="41.1609687" lon="-7.8910383"><ele>279.0</ele><time>2026-04-25T12:08:00.736Z</time></trkpt><trkpt lat="41.1609992" lon="-7.8909429"><ele>279.0</ele><time>2026-04-25T12:08:01.734Z</time></trkpt><trkpt lat="41.1610325" lon="-7.8908569"><ele>279.0</ele><time>2026-04-25T12:08:02.738Z</time></trkpt><trkpt lat="41.1610719" lon="-7.8907859"><ele>280.0</ele><time>2026-04-25T12:08:03.736Z</time></trkpt><trkpt lat="41.1611168" lon="-7.8907254"><ele>281.0</ele><time>2026-04-25T12:08:04.741Z</time></trkpt><trkpt lat="41.161221" lon="-7.8906317"><ele>282.0</ele><time>2026-04-25T12:08:06.734Z</time></trkpt><trkpt lat="41.1612934" lon="-7.8906099"><ele>283.0</ele><time>2026-04-25T12:08:07.737Z</time></trkpt><trkpt lat="41.1613647" lon="-7.8906017"><ele>284.0</ele><time>2026-04-25T12:08:08.746Z</time></trkpt><trkpt lat="41.1614412" lon="-7.8906078"><ele>285.0</ele><time>2026-04-25T12:08:09.737Z</time></trkpt><trkpt lat="41.1615165" lon="-7.8906215"><ele>282.1666666666667</ele><time>2026-04-25T12:08:10.735Z</time></trkpt><trkpt lat="41.1615874" lon="-7.8906481"><ele>279.3333333333333</ele><time>2026-04-25T12:08:11.74Z</time></trkpt><trkpt lat="41.1616505" lon="-7.8906907"><ele>276.5</ele><time>2026-04-25T12:08:12.738Z</time></trkpt><trkpt lat="41.1617148" lon="-7.8907345"><ele>273.66666666666663</ele><time>2026-04-25T12:08:13.736Z</time></trkpt><trkpt lat="41.1617823" lon="-7.8907559"><ele>270.8333333333333</ele><time>2026-04-25T12:08:14.732Z</time></trkpt><trkpt lat="41.1618508" lon="-7.8907491"><ele>268.0</ele><time>2026-04-25T12:08:15.735Z</time></trkpt><trkpt lat="41.1620292" lon="-7.8906665"><ele>268.0</ele><time>2026-04-25T12:08:18.743Z</time></trkpt><trkpt lat="41.1621286" lon="-7.8906087"><ele>268.0</ele><time>2026-04-25T12:08:20.736Z</time></trkpt><trkpt lat="41.1621995" lon="-7.8906412"><ele>268.0</ele><time>2026-04-25T12:08:23.733Z</time></trkpt><trkpt lat="41.1622419" lon="-7.8907038"><ele>268.0</ele><time>2026-04-25T12:08:40.738Z</time></trkpt><trkpt lat="41.1623109" lon="-7.8909456"><ele>268.0</ele><time>2026-04-25T12:09:21.739Z</time></trkpt><trkpt lat="41.1622826" lon="-7.8910654"><ele>265.75</ele><time>2026-04-25T12:09:23.735Z</time></trkpt><trkpt lat="41.1622264" lon="-7.8911571"><ele>263.5</ele><time>2026-04-25T12:09:25.735Z</time></trkpt><trkpt lat="41.1621614" lon="-7.8912235"><ele>261.25</ele><time>2026-04-25T12:09:41.732Z</time></trkpt><trkpt lat="41.1620746" lon="-7.8914347"><ele>259.0</ele><time>2026-04-25T12:09:46.74Z</time></trkpt><trkpt lat="41.1621842" lon="-7.8914644"><ele>259.0</ele><time>2026-04-25T12:09:48.741Z</time></trkpt><trkpt lat="41.1622611" lon="-7.8914852"><ele>259.0</ele><time>2026-04-25T12:09:49.734Z</time></trkpt><trkpt lat="41.1623755" lon="-7.8915221"><ele>259.0</ele><time>2026-04-25T12:09:50.735Z</time></trkpt><trkpt lat="41.1624844" lon="-7.891587"><ele>259.0</ele><time>2026-04-25T12:09:51.74Z</time></trkpt><trkpt lat="41.1625761" lon="-7.8916637"><ele>259.0</ele><time>2026-04-25T12:09:52.736Z</time></trkpt><trkpt lat="41.1626588" lon="-7.8917554"><ele>261.16666666666663</ele><time>2026-04-25T12:09:53.74Z</time></trkpt><trkpt lat="41.1627325" lon="-7.8918442"><ele>263.3333333333333</ele><time>2026-04-25T12:09:54.736Z</time></trkpt><trkpt lat="41.1627949" lon="-7.8919295"><ele>265.5</ele><time>2026-04-25T12:09:55.731Z</time></trkpt><trkpt lat="41.1628558" lon="-7.8920043"><ele>267.6666666666667</ele><time>2026-04-25T12:09:56.745Z</time></trkpt><trkpt lat="41.1629241" lon="-7.8920646"><ele>269.83333333333337</ele><time>2026-04-25T12:09:57.732Z</time></trkpt><trkpt lat="41.162992" lon="-7.8921207"><ele>272.0</ele><time>2026-04-25T12:09:58.734Z</time></trkpt><trkpt lat="41.1630425" lon="-7.8921789"><ele>272.0</ele><time>2026-04-25T12:09:59.742Z</time></trkpt><trkpt lat="41.1630773" lon="-7.8922525"><ele>272.0</ele><time>2026-04-25T12:10:00.733Z</time></trkpt><trkpt lat="41.1631038" lon="-7.8923401"><ele>272.0</ele><time>2026-04-25T12:10:01.734Z</time></trkpt><trkpt lat="41.1631222" lon="-7.892439"><ele>272.0</ele><time>2026-04-25T12:10:02.735Z</time></trkpt><trkpt lat="41.1631246" lon="-7.8926486"><ele>272.0</ele><time>2026-04-25T12:10:04.742Z</time></trkpt><trkpt lat="41.1631127" lon="-7.8927449"><ele>272.0</ele><time>2026-04-25T12:10:05.741Z</time></trkpt><trkpt lat="41.1631111" lon="-7.8928324"><ele>274.0</ele><time>2026-04-25T12:10:06.733Z</time></trkpt><trkpt lat="41.163102" lon="-7.8929183"><ele>276.0</ele><time>2026-04-25T12:10:07.734Z</time></trkpt><trkpt lat="41.1630913" lon="-7.893007"><ele>278.0</ele><time>2026-04-25T12:10:08.733Z</time></trkpt><trkpt lat="41.1630843" lon="-7.8931708"><ele>280.0</ele><time>2026-04-25T12:10:10.735Z</time></trkpt><trkpt lat="41.1631115" lon="-7.89332"><ele>282.0</ele><time>2026-04-25T12:10:12.729Z</time></trkpt><trkpt lat="41.1631382" lon="-7.8934396"><ele>284.8333333333333</ele><time>2026-04-25T12:10:14.736Z</time></trkpt><trkpt lat="41.1631908" lon="-7.8935229"><ele>287.6666666666667</ele><time>2026-04-25T12:10:16.735Z</time></trkpt><trkpt lat="41.1632407" lon="-7.8936137"><ele>290.5</ele><time>2026-04-25T12:10:18.745Z</time></trkpt><trkpt lat="41.1632777" lon="-7.8936873"><ele>293.33333333333337</ele><time>2026-04-25T12:10:19.735Z</time></trkpt><trkpt lat="41.1633138" lon="-7.8937745"><ele>296.1666666666667</ele><time>2026-04-25T12:10:20.738Z</time></trkpt><trkpt lat="41.1633469" lon="-7.8938795"><ele>299.0</ele><time>2026-04-25T12:10:21.741Z</time></trkpt><trkpt lat="41.1633885" lon="-7.8939998"><ele>299.0</ele><time>2026-04-25T12:10:22.739Z</time></trkpt><trkpt lat="41.163435" lon="-7.8941269"><ele>299.0</ele><time>2026-04-25T12:10:23.737Z</time></trkpt><trkpt lat="41.163535" lon="-7.8943842"><ele>299.0</ele><time>2026-04-25T12:10:25.732Z</time></trkpt><trkpt lat="41.1635755" lon="-7.8944907"><ele>299.0</ele><time>2026-04-25T12:10:26.728Z</time></trkpt><trkpt lat="41.1636165" lon="-7.894575"><ele>301.6666666666667</ele><time>2026-04-25T12:10:27.736Z</time></trkpt><trkpt lat="41.1636509" lon="-7.8946463"><ele>304.33333333333337</ele><time>2026-04-25T12:10:28.742Z</time></trkpt><trkpt lat="41.1636947" lon="-7.8947518"><ele>307.0</ele><time>2026-04-25T12:10:30.731Z</time></trkpt><trkpt lat="41.1636558" lon="-7.8948484"><ele>309.6666666666667</ele><time>2026-04-25T12:10:38.734Z</time></trkpt><trkpt lat="41.1636397" lon="-7.894977"><ele>312.3333333333333</ele><time>2026-04-25T12:10:41.731Z</time></trkpt><trkpt lat="41.1636318" lon="-7.8950769"><ele>315.0</ele><time>2026-04-25T12:10:43.745Z</time></trkpt><trkpt lat="41.1635846" lon="-7.8952309"><ele>318.6</ele><time>2026-04-25T12:10:45.734Z</time></trkpt><trkpt lat="41.1634908" lon="-7.8954148"><ele>322.2</ele><time>2026-04-25T12:10:48.74Z</time></trkpt><trkpt lat="41.1634438" lon="-7.8955165"><ele>325.79999999999995</ele><time>2026-04-25T12:10:50.731Z</time></trkpt><trkpt lat="41.163415" lon="-7.8956361"><ele>329.4</ele><time>2026-04-25T12:10:52.735Z</time></trkpt><trkpt lat="41.1634029" lon="-7.895759"><ele>333.0</ele><time>2026-04-25T12:10:54.736Z</time></trkpt><trkpt lat="41.1634176" lon="-7.895875"><ele>337.6666666666667</ele><time>2026-04-25T12:10:56.737Z</time></trkpt><trkpt lat="41.1634658" lon="-7.8959776"><ele>342.3333333333333</ele><time>2026-04-25T12:10:58.742Z</time></trkpt><trkpt lat="41.1635314" lon="-7.8960633"><ele>347.0</ele><time>2026-04-25T12:11:00.731Z</time></trkpt><trkpt lat="41.1636134" lon="-7.8961648"><ele>351.66666666666663</ele><time>2026-04-25T12:11:02.733Z</time></trkpt><trkpt lat="41.1636681" lon="-7.8962093"><ele>356.3333333333333</ele><time>2026-04-25T12:11:03.731Z</time></trkpt><trkpt lat="41.1637282" lon="-7.8962404"><ele>361.0</ele><time>2026-04-25T12:11:04.74Z</time></trkpt><trkpt lat="41.1637926" lon="-7.8962693"><ele>361.0</ele><time>2026-04-25T12:11:05.734Z</time></trkpt><trkpt lat="41.1638912" lon="-7.896339"><ele>361.0</ele><time>2026-04-25T12:11:07.732Z</time></trkpt><trkpt lat="41.1640041" lon="-7.8965192"><ele>361.0</ele><time>2026-04-25T12:11:10.733Z</time></trkpt><trkpt lat="41.1640423" lon="-7.8965957"><ele>361.0</ele><time>2026-04-25T12:11:11.734Z</time></trkpt><trkpt lat="41.1640828" lon="-7.8966752"><ele>361.0</ele><time>2026-04-25T12:11:12.736Z</time></trkpt><trkpt lat="41.1641228" lon="-7.8967579"><ele>359.5</ele><time>2026-04-25T12:11:13.735Z</time></trkpt><trkpt lat="41.1641617" lon="-7.896838"><ele>358.0</ele><time>2026-04-25T12:11:14.737Z</time></trkpt><trkpt lat="41.1641971" lon="-7.8969199"><ele>356.5</ele><time>2026-04-25T12:11:15.739Z</time></trkpt><trkpt lat="41.1642285" lon="-7.8970061"><ele>355.0</ele><time>2026-04-25T12:11:16.733Z</time></trkpt><trkpt lat="41.164254" lon="-7.8970874"><ele>353.5</ele><time>2026-04-25T12:11:17.738Z</time></trkpt><trkpt lat="41.1642913" lon="-7.8972403"><ele>352.0</ele><time>2026-04-25T12:11:19.741Z</time></trkpt><trkpt lat="41.1643132" lon="-7.8973864"><ele>352.0</ele><time>2026-04-25T12:11:21.735Z</time></trkpt><trkpt lat="41.1643288" lon="-7.89751"><ele>352.0</ele><time>2026-04-25T12:11:23.736Z</time></trkpt><trkpt lat="41.164354" lon="-7.8976288"><ele>366.0</ele><time>2026-04-25T12:11:25.735Z</time></trkpt><trkpt lat="41.1644252" lon="-7.8977022"><ele>366.0</ele><time>2026-04-25T12:11:27.732Z</time></trkpt><trkpt lat="41.1645235" lon="-7.8977057"><ele>366.0</ele><time>2026-04-25T12:11:29.736Z</time></trkpt></trkseg></trk></gpx>